<?xml version='1.0' encoding='UTF-8'?><gpx version="1.1" creator="JPX - https://github.com/jenetics/jpx" xmlns="http://www.topografix.com/GPX/1/1"><trk><trkseg><trkpt lat="45.86368582837841" lon="13.43393999329816"><ele>15.0</ele><time>2026-04-11T09:42:03.973Z</time></trkpt><trkpt lat="45.86374523706367" lon="13.434036691320086"><ele>15.0</ele><time>2026-04-11T09:42:04.973Z</time></trkpt><trkpt lat="45.863806899750465" lon="13.434126241895461"><ele>15.0</ele><time>2026-04-11T09:42:05.973Z</time></trkpt><trkpt lat="45.86390214266339" lon="13.434173532358558"><ele>15.0</ele><time>2026-04-11T09:42:06.973Z</time></trkpt><trkpt lat="45.86396489960573" lon="13.434286944276751"><ele>15.0</ele><time>2026-04-11T09:42:07.972Z</time></trkpt><trkpt lat="45.86403564757459" lon="13.434414798158215"><ele>15.0</ele><time>2026-04-11T09:42:08.972Z</time></trkpt><trkpt lat="45.86410668746998" lon="13.434579610431054"><ele>15.0</ele><time>2026-04-11T09:42:09.972Z</time></trkpt><trkpt lat="45.86421232269382" lon="13.434740571376533"><ele>15.0</ele><time>2026-04-11T09:42:10.972Z</time></trkpt><trkpt lat="45.86430505098849" lon="13.434893987884422"><ele>15.0</ele><time>2026-04-11T09:42:11.972Z</time></trkpt><trkpt lat="45.86441102847197" lon="13.435053379914734"><ele>15.0</ele><time>2026-04-11T09:42:12.972Z</time></trkpt><trkpt lat="45.86452633220511" lon="13.43523637539242"><ele>15.0</ele><time>2026-04-11T09:42:13.972Z</time></trkpt><trkpt lat="45.86464891957033" lon="13.435425200266307"><ele>15.0</ele><time>2026-04-11T09:42:14.972Z</time></trkpt><trkpt lat="45.864762189288555" lon="13.435583007579352"><ele>15.0</ele><time>2026-04-11T09:42:15.972Z</time></trkpt><trkpt lat="45.86488033011238" lon="13.435748812851816"><ele>15.0</ele><time>2026-04-11T09:42:16.972Z</time></trkpt><trkpt lat="45.86500127444077" lon="13.435932962337288"><ele>15.0</ele><time>2026-04-11T09:42:17.972Z</time></trkpt><trkpt lat="45.865128542970844" lon="13.436114181610707"><ele>14.333333333333332</ele><time>2026-04-11T09:42:18.972Z</time></trkpt><trkpt lat="45.865244503881236" lon="13.436302332650655"><ele>13.666666666666666</ele><time>2026-04-11T09:42:19.972Z</time></trkpt><trkpt lat="45.86536310060271" lon="13.436489255476774"><ele>13.0</ele><time>2026-04-11T09:42:20.972Z</time></trkpt><trkpt lat="45.86549377584823" lon="13.436663207613641"><ele>13.0</ele><time>2026-04-11T09:42:21.972Z</time></trkpt><trkpt lat="45.86563786745563" lon="13.436838049883937"><ele>13.0</ele><time>2026-04-11T09:42:22.972Z</time></trkpt><trkpt lat="45.86576422048108" lon="13.43703239654214"><ele>13.0</ele><time>2026-04-11T09:42:23.972Z</time></trkpt><trkpt lat="45.86588381555522" lon="13.437229893923668"><ele>14.0</ele><time>2026-04-11T09:42:24.972Z</time></trkpt><trkpt lat="45.86599616844273" lon="13.437422134351188"><ele>15.0</ele><time>2026-04-11T09:42:25.972Z</time></trkpt><trkpt lat="45.8661089138979" lon="13.43761558464879"><ele>16.0</ele><time>2026-04-11T09:42:26.972Z</time></trkpt><trkpt lat="45.866228044946034" lon="13.437827016968093"><ele>16.333333333333332</ele><time>2026-04-11T09:42:27.972Z</time></trkpt><trkpt lat="45.86635006586344" lon="13.438041504815475"><ele>16.666666666666668</ele><time>2026-04-11T09:42:28.972Z</time></trkpt><trkpt lat="45.8664726854889" lon="13.438250538296625"><ele>17.0</ele><time>2026-04-11T09:42:29.972Z</time></trkpt><trkpt lat="45.86659410447931" lon="13.438453664722235"><ele>17.0</ele><time>2026-04-11T09:42:30.972Z</time></trkpt><trkpt lat="45.86671681288328" lon="13.438665971945914"><ele>17.0</ele><time>2026-04-11T09:42:31.972Z</time></trkpt><trkpt lat="45.86684235757749" lon="13.438876334231889"><ele>17.0</ele><time>2026-04-11T09:42:32.972Z</time></trkpt><trkpt lat="45.86697340365941" lon="13.439103236523415"><ele>15.666666666666668</ele><time>2026-04-11T09:42:33.972Z</time></trkpt><trkpt lat="45.86710563462648" lon="13.439342191732148"><ele>14.333333333333332</ele><time>2026-04-11T09:42:34.972Z</time></trkpt><trkpt lat="45.86723053905126" lon="13.43957856474435"><ele>13.0</ele><time>2026-04-11T09:42:35.972Z</time></trkpt><trkpt lat="45.86734613650751" lon="13.43978564605817"><ele>12.666666666666666</ele><time>2026-04-11T09:42:36.972Z</time></trkpt><trkpt lat="45.86746356515184" lon="13.440004117524907"><ele>12.333333333333332</ele><time>2026-04-11T09:42:37.972Z</time></trkpt><trkpt lat="45.86758091123758" lon="13.440226197365307"><ele>12.0</ele><time>2026-04-11T09:42:38.972Z</time></trkpt><trkpt lat="45.86769532696449" lon="13.440436995629481"><ele>12.333333333333332</ele><time>2026-04-11T09:42:39.972Z</time></trkpt><trkpt lat="45.867811581314186" lon="13.44064395641489"><ele>12.666666666666666</ele><time>2026-04-11T09:42:40.972Z</time></trkpt><trkpt lat="45.86792272520161" lon="13.44085645518563"><ele>13.0</ele><time>2026-04-11T09:42:41.972Z</time></trkpt><trkpt lat="45.86802776722147" lon="13.44106927897457"><ele>13.0</ele><time>2026-04-11T09:42:42.972Z</time></trkpt><trkpt lat="45.868138981993006" lon="13.441268537671387"><ele>13.0</ele><time>2026-04-11T09:42:43.972Z</time></trkpt><trkpt lat="45.868242339187844" lon="13.441468980637813"><ele>13.0</ele><time>2026-04-11T09:42:44.972Z</time></trkpt><trkpt lat="45.86834324144856" lon="13.441680847645117"><ele>13.0</ele><time>2026-04-11T09:42:45.972Z</time></trkpt><trkpt lat="45.86843963734675" lon="13.441878439075763"><ele>13.0</ele><time>2026-04-11T09:42:46.972Z</time></trkpt><trkpt lat="45.868539469851044" lon="13.442067731915357"><ele>13.0</ele><time>2026-04-11T09:42:47.972Z</time></trkpt><trkpt lat="45.86863479616617" lon="13.442245165262317"><ele>12.25</ele><time>2026-04-11T09:42:48.972Z</time></trkpt><trkpt lat="45.86872159859545" lon="13.442394957614452"><ele>11.5</ele><time>2026-04-11T09:42:49.972Z</time></trkpt><trkpt lat="45.86879452684893" lon="13.442556403526691"><ele>10.75</ele><time>2026-04-11T09:42:50.972Z</time></trkpt><trkpt lat="45.86886478464921" lon="13.442698689554367"><ele>10.0</ele><time>2026-04-11T09:42:51.972Z</time></trkpt><trkpt lat="45.86893376640751" lon="13.442837096128981"><ele>10.4</ele><time>2026-04-11T09:42:52.971Z</time></trkpt><trkpt lat="45.86899096519217" lon="13.442981367006086"><ele>10.8</ele><time>2026-04-11T09:42:53.971Z</time></trkpt><trkpt lat="45.8690215143122" lon="13.443123238714293"><ele>11.2</ele><time>2026-04-11T09:42:54.971Z</time></trkpt><trkpt lat="45.86901055642646" lon="13.443256195440426"><ele>11.6</ele><time>2026-04-11T09:42:55.971Z</time></trkpt><trkpt lat="45.86897241091447" lon="13.443404242036904"><ele>12.0</ele><time>2026-04-11T09:42:56.971Z</time></trkpt><trkpt lat="45.86894820834484" lon="13.44356026799563"><ele>12.0</ele><time>2026-04-11T09:42:57.971Z</time></trkpt><trkpt lat="45.86894964463788" lon="13.44372443911788"><ele>12.0</ele><time>2026-04-11T09:42:58.971Z</time></trkpt><trkpt lat="45.868945924647775" lon="13.443886798149448"><ele>12.0</ele><time>2026-04-11T09:42:59.971Z</time></trkpt><trkpt lat="45.868913549748825" lon="13.444050259074698"><ele>12.0</ele><time>2026-04-11T09:43:00.971Z</time></trkpt><trkpt lat="45.868847973541584" lon="13.444201099439606"><ele>12.0</ele><time>2026-04-11T09:43:01.971Z</time></trkpt><trkpt lat="45.86874787359377" lon="13.444311075705476"><ele>12.0</ele><time>2026-04-11T09:43:02.971Z</time></trkpt><trkpt lat="45.86866535530004" lon="13.444441295261239"><ele>12.0</ele><time>2026-04-11T09:43:03.971Z</time></trkpt><trkpt lat="45.868574314216865" lon="13.444529958530351"><ele>12.0</ele><time>2026-04-11T09:43:04.971Z</time></trkpt><trkpt lat="45.86848420780649" lon="13.444604127708535"><ele>12.399999999999999</ele><time>2026-04-11T09:43:05.971Z</time></trkpt><trkpt lat="45.86840984575518" lon="13.444662588210003"><ele>12.799999999999999</ele><time>2026-04-11T09:43:06.971Z</time></trkpt><trkpt lat="45.8683305299323" lon="13.444734283996931"><ele>13.2</ele><time>2026-04-11T09:43:08.971Z</time></trkpt><trkpt lat="45.8682957756424" lon="13.444817717327513"><ele>13.6</ele><time>2026-04-11T09:43:14.971Z</time></trkpt><trkpt lat="45.868352687845906" lon="13.445036080456326"><ele>14.0</ele><time>2026-04-11T09:43:15.971Z</time></trkpt><trkpt lat="45.86839360323921" lon="13.445163626066037"><ele>13.75</ele><time>2026-04-11T09:43:16.971Z</time></trkpt><trkpt lat="45.868444718496754" lon="13.445311587872956"><ele>13.5</ele><time>2026-04-11T09:43:17.971Z</time></trkpt><trkpt lat="45.86849682431892" lon="13.445469411483401"><ele>13.25</ele><time>2026-04-11T09:43:18.971Z</time></trkpt><trkpt lat="45.868530441660944" lon="13.445627278554959"><ele>13.0</ele><time>2026-04-11T09:43:19.971Z</time></trkpt><trkpt lat="45.86856584742097" lon="13.445810584987116"><ele>13.75</ele><time>2026-04-11T09:43:20.971Z</time></trkpt><trkpt lat="45.868613670001245" lon="13.446011626085394"><ele>14.5</ele><time>2026-04-11T09:43:21.971Z</time></trkpt><trkpt lat="45.868660215792836" lon="13.446201093844302"><ele>15.25</ele><time>2026-04-11T09:43:22.971Z</time></trkpt><trkpt lat="45.86870809707773" lon="13.446380200383741"><ele>16.0</ele><time>2026-04-11T09:43:23.971Z</time></trkpt><trkpt lat="45.86875158462864" lon="13.446577853427147"><ele>16.0</ele><time>2026-04-11T09:43:24.971Z</time></trkpt><trkpt lat="45.86879241238188" lon="13.446763840540509"><ele>16.0</ele><time>2026-04-11T09:43:25.971Z</time></trkpt><trkpt lat="45.868833121090965" lon="13.446943322385712"><ele>16.0</ele><time>2026-04-11T09:43:26.971Z</time></trkpt><trkpt lat="45.86887171594481" lon="13.447117289303886"><ele>16.0</ele><time>2026-04-11T09:43:27.971Z</time></trkpt><trkpt lat="45.86890010014205" lon="13.447286872061632"><ele>15.666666666666666</ele><time>2026-04-11T09:43:28.971Z</time></trkpt><trkpt lat="45.86889202264795" lon="13.447443649809262"><ele>15.333333333333332</ele><time>2026-04-11T09:43:29.971Z</time></trkpt><trkpt lat="45.86886790908499" lon="13.447579131808823"><ele>15.0</ele><time>2026-04-11T09:43:30.971Z</time></trkpt><trkpt lat="45.86882443243145" lon="13.447677483957731"><ele>14.666666666666668</ele><time>2026-04-11T09:43:31.971Z</time></trkpt><trkpt lat="45.868795148750245" lon="13.447765542239598"><ele>14.333333333333334</ele><time>2026-04-11T09:43:32.971Z</time></trkpt><trkpt lat="45.868795915221376" lon="13.447857207686152"><ele>14.0</ele><time>2026-04-11T09:43:33.971Z</time></trkpt><trkpt lat="45.86887516664399" lon="13.447985252967552"><ele>14.0</ele><time>2026-04-11T09:43:35.971Z</time></trkpt><trkpt lat="45.868939103473686" lon="13.44804361154024"><ele>13.999999999999998</ele><time>2026-04-11T09:43:36.97Z</time></trkpt><trkpt lat="45.869011832736206" lon="13.448122250820678"><ele>13.999999999999998</ele><time>2026-04-11T09:43:37.97Z</time></trkpt><trkpt lat="45.86908091257478" lon="13.448221563421914"><ele>14.0</ele><time>2026-04-11T09:43:38.97Z</time></trkpt><trkpt lat="45.86915594707357" lon="13.448346189719965"><ele>14.0</ele><time>2026-04-11T09:43:39.97Z</time></trkpt><trkpt lat="45.86924060282507" lon="13.448483731851283"><ele>14.25</ele><time>2026-04-11T09:43:40.97Z</time></trkpt><trkpt lat="45.86930585258742" lon="13.44867200962965"><ele>14.5</ele><time>2026-04-11T09:43:41.971Z</time></trkpt><trkpt lat="45.869385585259366" lon="13.448827788655704"><ele>14.75</ele><time>2026-04-11T09:43:42.971Z</time></trkpt><trkpt lat="45.869471058319235" lon="13.448982844014688"><ele>15.0</ele><time>2026-04-11T09:43:43.971Z</time></trkpt><trkpt lat="45.86956343316032" lon="13.449165230423278"><ele>15.333333333333332</ele><time>2026-04-11T09:43:44.971Z</time></trkpt><trkpt lat="45.86967913694307" lon="13.449380489697216"><ele>15.666666666666666</ele><time>2026-04-11T09:43:45.971Z</time></trkpt><trkpt lat="45.86983827733736" lon="13.449622875122287"><ele>16.0</ele><time>2026-04-11T09:43:46.971Z</time></trkpt><trkpt lat="45.869997868050724" lon="13.449853153275019"><ele>16.0</ele><time>2026-04-11T09:43:47.971Z</time></trkpt><trkpt lat="45.870137862723446" lon="13.450054846915245"><ele>16.0</ele><time>2026-04-11T09:43:48.971Z</time></trkpt><trkpt lat="45.87027186963656" lon="13.450248409436607"><ele>16.0</ele><time>2026-04-11T09:43:49.971Z</time></trkpt><trkpt lat="45.87040194996467" lon="13.45043630028473"><ele>16.333333333333332</ele><time>2026-04-11T09:43:50.971Z</time></trkpt><trkpt lat="45.87053451440224" lon="13.45062777722689"><ele>16.666666666666668</ele><time>2026-04-11T09:43:51.97Z</time></trkpt><trkpt lat="45.87066817054415" lon="13.450820518295208"><ele>17.0</ele><time>2026-04-11T09:43:52.97Z</time></trkpt><trkpt lat="45.8708037729468" lon="13.451016108508648"><ele>17.0</ele><time>2026-04-11T09:43:53.97Z</time></trkpt><trkpt lat="45.87093736008752" lon="13.451208792027039"><ele>17.0</ele><time>2026-04-11T09:43:54.97Z</time></trkpt><trkpt lat="45.87109143149884" lon="13.451397752239602"><ele>17.0</ele><time>2026-04-11T09:43:55.97Z</time></trkpt><trkpt lat="45.87122607437777" lon="13.451625225151778"><ele>17.666666666666668</ele><time>2026-04-11T09:43:56.97Z</time></trkpt><trkpt lat="45.871371802243424" lon="13.45183494754678"><ele>18.333333333333332</ele><time>2026-04-11T09:43:57.97Z</time></trkpt><trkpt lat="45.87151559877667" lon="13.452042631519754"><ele>19.0</ele><time>2026-04-11T09:43:58.97Z</time></trkpt><trkpt lat="45.87165729043445" lon="13.452247111704384"><ele>18.333333333333332</ele><time>2026-04-11T09:43:59.97Z</time></trkpt><trkpt lat="45.871793487676015" lon="13.452442415095412"><ele>17.666666666666668</ele><time>2026-04-11T09:44:00.97Z</time></trkpt><trkpt lat="45.87193358296247" lon="13.452610104547283"><ele>17.0</ele><time>2026-04-11T09:44:01.97Z</time></trkpt><trkpt lat="45.87206227193364" lon="13.452811601500926"><ele>17.666666666666668</ele><time>2026-04-11T09:44:02.97Z</time></trkpt><trkpt lat="45.87218842054918" lon="13.453010604760152"><ele>18.333333333333332</ele><time>2026-04-11T09:44:03.97Z</time></trkpt><trkpt lat="45.872329567980174" lon="13.45321395950733"><ele>19.0</ele><time>2026-04-11T09:44:04.97Z</time></trkpt><trkpt lat="45.872461502087965" lon="13.45340479256545"><ele>18.666666666666664</ele><time>2026-04-11T09:44:05.97Z</time></trkpt><trkpt lat="45.872613899628504" lon="13.453580572463272"><ele>18.333333333333332</ele><time>2026-04-11T09:44:06.97Z</time></trkpt><trkpt lat="45.87274497881096" lon="13.453774315187006"><ele>18.0</ele><time>2026-04-11T09:44:07.97Z</time></trkpt><trkpt lat="45.87287918047465" lon="13.453963084971932"><ele>18.0</ele><time>2026-04-11T09:44:08.97Z</time></trkpt><trkpt lat="45.87299962504298" lon="13.45414577748627"><ele>18.0</ele><time>2026-04-11T09:44:09.97Z</time></trkpt><trkpt lat="45.87312645511358" lon="13.45433262291236"><ele>18.0</ele><time>2026-04-11T09:44:10.97Z</time></trkpt><trkpt lat="45.8732465903363" lon="13.454502975943551"><ele>18.0</ele><time>2026-04-11T09:44:11.97Z</time></trkpt><trkpt lat="45.873363240878376" lon="13.454676079474249"><ele>18.0</ele><time>2026-04-11T09:44:12.97Z</time></trkpt><trkpt lat="45.87347620292567" lon="13.454850576209683"><ele>18.0</ele><time>2026-04-11T09:44:13.97Z</time></trkpt><trkpt lat="45.8735905945168" lon="13.455016662862308"><ele>18.333333333333332</ele><time>2026-04-11T09:44:14.97Z</time></trkpt><trkpt lat="45.873701107372156" lon="13.45517865408089"><ele>18.666666666666664</ele><time>2026-04-11T09:44:15.97Z</time></trkpt><trkpt lat="45.87380773354159" lon="13.45533813063971"><ele>19.0</ele><time>2026-04-11T09:44:16.97Z</time></trkpt><trkpt lat="45.87391266557425" lon="13.455503565054546"><ele>19.0</ele><time>2026-04-11T09:44:17.97Z</time></trkpt><trkpt lat="45.874016196309455" lon="13.455649835188044"><ele>19.0</ele><time>2026-04-11T09:44:18.97Z</time></trkpt><trkpt lat="45.874124358509114" lon="13.455800226040786"><ele>19.0</ele><time>2026-04-11T09:44:19.97Z</time></trkpt><trkpt lat="45.87423331303409" lon="13.45595047651856"><ele>19.0</ele><time>2026-04-11T09:44:20.97Z</time></trkpt><trkpt lat="45.87434473658822" lon="13.456111087441196"><ele>19.0</ele><time>2026-04-11T09:44:21.97Z</time></trkpt><trkpt lat="45.874465514099874" lon="13.456284274746062"><ele>19.0</ele><time>2026-04-11T09:44:22.97Z</time></trkpt><trkpt lat="45.87458911290027" lon="13.456458848230673"><ele>19.0</ele><time>2026-04-11T09:44:23.97Z</time></trkpt><trkpt lat="45.87471658000005" lon="13.456637926417349"><ele>19.0</ele><time>2026-04-11T09:44:24.97Z</time></trkpt><trkpt lat="45.874844106763234" lon="13.456822115679177"><ele>19.0</ele><time>2026-04-11T09:44:25.97Z</time></trkpt><trkpt lat="45.8749728153502" lon="13.457001829106408"><ele>19.0</ele><time>2026-04-11T09:44:26.97Z</time></trkpt><trkpt lat="45.8750995430473" lon="13.457186343194856"><ele>19.666666666666664</ele><time>2026-04-11T09:44:27.97Z</time></trkpt><trkpt lat="45.87522527550724" lon="13.457375112192114"><ele>20.333333333333332</ele><time>2026-04-11T09:44:28.97Z</time></trkpt><trkpt lat="45.87535403557503" lon="13.457557056477926"><ele>21.0</ele><time>2026-04-11T09:44:29.97Z</time></trkpt><trkpt lat="45.87548186303775" lon="13.457731463450587"><ele>21.0</ele><time>2026-04-11T09:44:30.969Z</time></trkpt><trkpt lat="45.87560209336924" lon="13.457903803369318"><ele>21.0</ele><time>2026-04-11T09:44:31.969Z</time></trkpt><trkpt lat="45.87572321677533" lon="13.458079608112827"><ele>21.0</ele><time>2026-04-11T09:44:32.969Z</time></trkpt><trkpt lat="45.875843429780765" lon="13.458261564528271"><ele>20.0</ele><time>2026-04-11T09:44:33.969Z</time></trkpt><trkpt lat="45.87596027654222" lon="13.458456169456424"><ele>19.0</ele><time>2026-04-11T09:44:34.969Z</time></trkpt><trkpt lat="45.87609451864557" lon="13.458639850473167"><ele>18.0</ele><time>2026-04-11T09:44:35.969Z</time></trkpt><trkpt lat="45.87622420262447" lon="13.458834956263688"><ele>18.0</ele><time>2026-04-11T09:44:36.969Z</time></trkpt><trkpt lat="45.87635649131379" lon="13.459015285894921"><ele>18.0</ele><time>2026-04-11T09:44:37.969Z</time></trkpt><trkpt lat="45.876481280530136" lon="13.459212243709807"><ele>18.0</ele><time>2026-04-11T09:44:38.969Z</time></trkpt><trkpt lat="45.87661252736323" lon="13.459392236348185"><ele>18.0</ele><time>2026-04-11T09:44:39.969Z</time></trkpt><trkpt lat="45.876738667714214" lon="13.459583586469723"><ele>18.0</ele><time>2026-04-11T09:44:40.969Z</time></trkpt><trkpt lat="45.876862140560284" lon="13.459779334135545"><ele>18.0</ele><time>2026-04-11T09:44:41.969Z</time></trkpt><trkpt lat="45.876993450159276" lon="13.459980955962424"><ele>18.333333333333332</ele><time>2026-04-11T09:44:42.969Z</time></trkpt><trkpt lat="45.877122295675704" lon="13.460187519507086"><ele>18.666666666666664</ele><time>2026-04-11T09:44:43.969Z</time></trkpt><trkpt lat="45.87725410517031" lon="13.460401900661617"><ele>19.0</ele><time>2026-04-11T09:44:44.969Z</time></trkpt><trkpt lat="45.87738050937567" lon="13.46060728532453"><ele>19.0</ele><time>2026-04-11T09:44:45.969Z</time></trkpt><trkpt lat="45.877504080609" lon="13.460805095454015"><ele>19.0</ele><time>2026-04-11T09:44:46.969Z</time></trkpt><trkpt lat="45.877623952050754" lon="13.461015291063072"><ele>19.0</ele><time>2026-04-11T09:44:47.969Z</time></trkpt><trkpt lat="45.87775145221641" lon="13.4612268779528"><ele>19.666666666666664</ele><time>2026-04-11T09:44:48.969Z</time></trkpt><trkpt lat="45.87787841906599" lon="13.461453656916454"><ele>20.333333333333332</ele><time>2026-04-11T09:44:49.969Z</time></trkpt><trkpt lat="45.87800225711871" lon="13.461686253038788"><ele>21.0</ele><time>2026-04-11T09:44:50.969Z</time></trkpt><trkpt lat="45.87812490330274" lon="13.461921612570734"><ele>20.333333333333332</ele><time>2026-04-11T09:44:51.969Z</time></trkpt><trkpt lat="45.878253120737305" lon="13.462164147987178"><ele>19.666666666666664</ele><time>2026-04-11T09:44:52.969Z</time></trkpt><trkpt lat="45.878380398779385" lon="13.462406387195426"><ele>19.0</ele><time>2026-04-11T09:44:53.969Z</time></trkpt><trkpt lat="45.87850675429769" lon="13.462654118324926"><ele>19.0</ele><time>2026-04-11T09:44:54.969Z</time></trkpt><trkpt lat="45.87863137183221" lon="13.462898766876265"><ele>19.0</ele><time>2026-04-11T09:44:55.969Z</time></trkpt><trkpt lat="45.87875678686148" lon="13.463141654904003"><ele>19.0</ele><time>2026-04-11T09:44:56.969Z</time></trkpt><trkpt lat="45.87888209238792" lon="13.463379884331976"><ele>18.666666666666664</ele><time>2026-04-11T09:44:57.969Z</time></trkpt><trkpt lat="45.879003371474546" lon="13.463620028658612"><ele>18.333333333333332</ele><time>2026-04-11T09:44:58.969Z</time></trkpt><trkpt lat="45.8791241877774" lon="13.463855496729849"><ele>18.0</ele><time>2026-04-11T09:44:59.969Z</time></trkpt><trkpt lat="45.879240034313185" lon="13.464090902721079"><ele>19.0</ele><time>2026-04-11T09:45:00.969Z</time></trkpt><trkpt lat="45.87935848462261" lon="13.464313771429223"><ele>20.0</ele><time>2026-04-11T09:45:01.969Z</time></trkpt><trkpt lat="45.87947154562187" lon="13.464535685509853"><ele>21.0</ele><time>2026-04-11T09:45:02.969Z</time></trkpt><trkpt lat="45.87958352762546" lon="13.464757849357666"><ele>21.0</ele><time>2026-04-11T09:45:03.969Z</time></trkpt><trkpt lat="45.879701473033705" lon="13.464983916543776"><ele>21.0</ele><time>2026-04-11T09:45:04.969Z</time></trkpt><trkpt lat="45.87981781197176" lon="13.465210437684163"><ele>21.0</ele><time>2026-04-11T09:45:05.969Z</time></trkpt><trkpt lat="45.87993352093279" lon="13.465433902073013"><ele>20.666666666666668</ele><time>2026-04-11T09:45:06.969Z</time></trkpt><trkpt lat="45.880048544528584" lon="13.465653144275109"><ele>20.333333333333336</ele><time>2026-04-11T09:45:07.969Z</time></trkpt><trkpt lat="45.88016764677434" lon="13.465877132155265"><ele>20.0</ele><time>2026-04-11T09:45:08.969Z</time></trkpt><trkpt lat="45.88027881960798" lon="13.466093776084648"><ele>20.0</ele><time>2026-04-11T09:45:09.969Z</time></trkpt><trkpt lat="45.8803913616778" lon="13.46632159540956"><ele>20.0</ele><time>2026-04-11T09:45:10.969Z</time></trkpt><trkpt lat="45.880496133251725" lon="13.466558706566133"><ele>20.0</ele><time>2026-04-11T09:45:11.969Z</time></trkpt><trkpt lat="45.88059602926126" lon="13.466799316704261"><ele>20.0</ele><time>2026-04-11T09:45:12.969Z</time></trkpt><trkpt lat="45.88068553687059" lon="13.467035309495065"><ele>20.0</ele><time>2026-04-11T09:45:13.969Z</time></trkpt><trkpt lat="45.880765044351385" lon="13.467281356038589"><ele>20.0</ele><time>2026-04-11T09:45:14.969Z</time></trkpt><trkpt lat="45.880826960338815" lon="13.46754115147845"><ele>20.0</ele><time>2026-04-11T09:45:15.968Z</time></trkpt><trkpt lat="45.880884036911766" lon="13.467807270139089"><ele>20.0</ele><time>2026-04-11T09:45:16.968Z</time></trkpt><trkpt lat="45.88092178683155" lon="13.468084955175604"><ele>20.0</ele><time>2026-04-11T09:45:17.968Z</time></trkpt><trkpt lat="45.880954947318465" lon="13.468381061572295"><ele>20.0</ele><time>2026-04-11T09:45:18.968Z</time></trkpt><trkpt lat="45.88098753500173" lon="13.468684699875169"><ele>20.0</ele><time>2026-04-11T09:45:19.968Z</time></trkpt><trkpt lat="45.88102311147494" lon="13.468984035940009"><ele>20.0</ele><time>2026-04-11T09:45:20.968Z</time></trkpt><trkpt lat="45.8810665633591" lon="13.469294467022818"><ele>20.0</ele><time>2026-04-11T09:45:21.968Z</time></trkpt><trkpt lat="45.881107939160096" lon="13.469604949560715"><ele>20.0</ele><time>2026-04-11T09:45:22.968Z</time></trkpt><trkpt lat="45.881155875733036" lon="13.46991411981613"><ele>20.0</ele><time>2026-04-11T09:45:23.968Z</time></trkpt><trkpt lat="45.881194234858526" lon="13.470223622768934"><ele>20.666666666666668</ele><time>2026-04-11T09:45:24.968Z</time></trkpt><trkpt lat="45.8812363461553" lon="13.47053698421336"><ele>21.333333333333332</ele><time>2026-04-11T09:45:25.968Z</time></trkpt><trkpt lat="45.88127324714929" lon="13.470846669348198"><ele>22.0</ele><time>2026-04-11T09:45:26.968Z</time></trkpt><trkpt lat="45.88130996253454" lon="13.471144237488613"><ele>21.666666666666664</ele><time>2026-04-11T09:45:27.968Z</time></trkpt><trkpt lat="45.881344576709886" lon="13.471435665898985"><ele>21.333333333333332</ele><time>2026-04-11T09:45:28.968Z</time></trkpt><trkpt lat="45.8813827149967" lon="13.471726469142995"><ele>21.0</ele><time>2026-04-11T09:45:29.968Z</time></trkpt><trkpt lat="45.881417259141784" lon="13.472006870060232"><ele>21.0</ele><time>2026-04-11T09:45:30.968Z</time></trkpt><trkpt lat="45.881453846315054" lon="13.472283754990363"><ele>21.0</ele><time>2026-04-11T09:45:31.968Z</time></trkpt><trkpt lat="45.8814850229555" lon="13.472554955967302"><ele>21.0</ele><time>2026-04-11T09:45:32.968Z</time></trkpt><trkpt lat="45.881516051819766" lon="13.472828165144774"><ele>21.0</ele><time>2026-04-11T09:45:33.968Z</time></trkpt><trkpt lat="45.88154600243391" lon="13.473095384917833"><ele>21.0</ele><time>2026-04-11T09:45:34.968Z</time></trkpt><trkpt lat="45.88159142425116" lon="13.473364995286197"><ele>21.0</ele><time>2026-04-11T09:45:35.968Z</time></trkpt><trkpt lat="45.88162079065662" lon="13.473632663990593"><ele>21.0</ele><time>2026-04-11T09:45:36.968Z</time></trkpt><trkpt lat="45.881651442999875" lon="13.473897557358992"><ele>21.0</ele><time>2026-04-11T09:45:37.968Z</time></trkpt><trkpt lat="45.88166890058888" lon="13.474158249658808"><ele>21.0</ele><time>2026-04-11T09:45:38.968Z</time></trkpt><trkpt lat="45.88165982629102" lon="13.474424894978744"><ele>21.333333333333332</ele><time>2026-04-11T09:45:39.968Z</time></trkpt><trkpt lat="45.88163734651557" lon="13.474683418268182"><ele>21.666666666666664</ele><time>2026-04-11T09:45:40.968Z</time></trkpt><trkpt lat="45.88160634014431" lon="13.47493859784539"><ele>22.0</ele><time>2026-04-11T09:45:41.968Z</time></trkpt><trkpt lat="45.881567127599155" lon="13.475203300854128"><ele>22.0</ele><time>2026-04-11T09:45:42.968Z</time></trkpt><trkpt lat="45.881524995021614" lon="13.475472556036198"><ele>22.0</ele><time>2026-04-11T09:45:43.968Z</time></trkpt><trkpt lat="45.88147691506072" lon="13.475744109465499"><ele>22.0</ele><time>2026-04-11T09:45:44.968Z</time></trkpt><trkpt lat="45.88144046941603" lon="13.476013859419599"><ele>22.0</ele><time>2026-04-11T09:45:45.968Z</time></trkpt><trkpt lat="45.88139897281973" lon="13.476302837634963"><ele>22.0</ele><time>2026-04-11T09:45:46.968Z</time></trkpt><trkpt lat="45.881353981711634" lon="13.476585459475734"><ele>22.0</ele><time>2026-04-11T09:45:47.968Z</time></trkpt><trkpt lat="45.8813177944548" lon="13.476867960296039"><ele>22.333333333333332</ele><time>2026-04-11T09:45:48.968Z</time></trkpt><trkpt lat="45.88127315460201" lon="13.477150834676005"><ele>22.666666666666668</ele><time>2026-04-11T09:45:49.968Z</time></trkpt><trkpt lat="45.88122856333901" lon="13.477441575168163"><ele>23.0</ele><time>2026-04-11T09:45:50.969Z</time></trkpt><trkpt lat="45.881188626705786" lon="13.477722972808204"><ele>23.0</ele><time>2026-04-11T09:45:51.969Z</time></trkpt><trkpt lat="45.88114622678093" lon="13.47800598215224"><ele>23.0</ele><time>2026-04-11T09:45:52.969Z</time></trkpt><trkpt lat="45.8811058069246" lon="13.478279747776739"><ele>23.0</ele><time>2026-04-11T09:45:53.969Z</time></trkpt><trkpt lat="45.8810675208732" lon="13.47854811455396"><ele>23.333333333333336</ele><time>2026-04-11T09:45:54.968Z</time></trkpt><trkpt lat="45.88102922352346" lon="13.47880882156281"><ele>23.666666666666668</ele><time>2026-04-11T09:45:55.968Z</time></trkpt><trkpt lat="45.88099231518991" lon="13.479056211026442"><ele>24.0</ele><time>2026-04-11T09:45:56.968Z</time></trkpt><trkpt lat="45.880957821161324" lon="13.479292762225901"><ele>23.666666666666668</ele><time>2026-04-11T09:45:57.968Z</time></trkpt><trkpt lat="45.880923356030245" lon="13.479535173789717"><ele>23.333333333333336</ele><time>2026-04-11T09:45:58.968Z</time></trkpt><trkpt lat="45.88089022400739" lon="13.479769341883939"><ele>23.0</ele><time>2026-04-11T09:45:59.968Z</time></trkpt><trkpt lat="45.88085982439444" lon="13.479979958475742"><ele>23.0</ele><time>2026-04-11T09:46:00.968Z</time></trkpt><trkpt lat="45.880819462357856" lon="13.480198310229264"><ele>23.0</ele><time>2026-04-11T09:46:01.968Z</time></trkpt><trkpt lat="45.88078627545107" lon="13.480407807981672"><ele>23.0</ele><time>2026-04-11T09:46:02.968Z</time></trkpt><trkpt lat="45.88075772327838" lon="13.480627112225488"><ele>23.0</ele><time>2026-04-11T09:46:03.968Z</time></trkpt><trkpt lat="45.8807305245401" lon="13.480848137119033"><ele>23.0</ele><time>2026-04-11T09:46:04.968Z</time></trkpt><trkpt lat="45.880701971456794" lon="13.48106383413588"><ele>23.0</ele><time>2026-04-11T09:46:05.968Z</time></trkpt><trkpt lat="45.88067252289939" lon="13.481269785213133"><ele>22.799999999999997</ele><time>2026-04-11T09:46:06.968Z</time></trkpt><trkpt lat="45.88064146167718" lon="13.481451531456694"><ele>22.6</ele><time>2026-04-11T09:46:07.968Z</time></trkpt><trkpt lat="45.88061898235225" lon="13.481612736562617"><ele>22.4</ele><time>2026-04-11T09:46:08.968Z</time></trkpt><trkpt lat="45.880597854606684" lon="13.481760639573672"><ele>22.200000000000003</ele><time>2026-04-11T09:46:09.968Z</time></trkpt><trkpt lat="45.88058165034487" lon="13.48188906837724"><ele>22.0</ele><time>2026-04-11T09:46:10.968Z</time></trkpt><trkpt lat="45.88057278902734" lon="13.48199201432013"><ele>22.400000000000002</ele><time>2026-04-11T09:46:11.968Z</time></trkpt><trkpt lat="45.88056350938086" lon="13.48211114661952"><ele>22.8</ele><time>2026-04-11T09:46:12.968Z</time></trkpt><trkpt lat="45.88053905830709" lon="13.482240103063459"><ele>23.2</ele><time>2026-04-11T09:46:13.968Z</time></trkpt><trkpt lat="45.88051203937523" lon="13.482372642699936"><ele>23.6</ele><time>2026-04-11T09:46:14.968Z</time></trkpt><trkpt lat="45.88049049630143" lon="13.482504394490894"><ele>24.0</ele><time>2026-04-11T09:46:15.968Z</time></trkpt><trkpt lat="45.88047938539078" lon="13.482644392180221"><ele>24.0</ele><time>2026-04-11T09:46:16.968Z</time></trkpt><trkpt lat="45.880458284316624" lon="13.48275070914078"><ele>24.0</ele><time>2026-04-11T09:46:17.968Z</time></trkpt><trkpt lat="45.88044257342027" lon="13.482859636513826"><ele>24.0</ele><time>2026-04-11T09:46:18.968Z</time></trkpt><trkpt lat="45.88041952970372" lon="13.48297621175051"><ele>24.0</ele><time>2026-04-11T09:46:19.968Z</time></trkpt><trkpt lat="45.88040028179468" lon="13.483096613401168"><ele>24.0</ele><time>2026-04-11T09:46:20.968Z</time></trkpt><trkpt lat="45.88039043678352" lon="13.483219688065855"><ele>24.0</ele><time>2026-04-11T09:46:21.968Z</time></trkpt><trkpt lat="45.88037235847037" lon="13.483332428371035"><ele>24.0</ele><time>2026-04-11T09:46:22.968Z</time></trkpt><trkpt lat="45.88034966371107" lon="13.483506163877005"><ele>24.0</ele><time>2026-04-11T09:46:24.968Z</time></trkpt><trkpt lat="45.880326133831126" lon="13.483620296073644"><ele>24.0</ele><time>2026-04-11T09:46:27.968Z</time></trkpt><trkpt lat="45.880293722998545" lon="13.483744226983113"><ele>24.0</ele><time>2026-04-11T09:46:30.968Z</time></trkpt><trkpt lat="45.880256101253785" lon="13.48381779287692"><ele>24.0</ele><time>2026-04-11T09:46:34.968Z</time></trkpt><trkpt lat="45.88018638684728" lon="13.483929200544255"><ele>24.2</ele><time>2026-04-11T09:46:36.968Z</time></trkpt><trkpt lat="45.88014338022435" lon="13.483996427072608"><ele>24.4</ele><time>2026-04-11T09:46:37.968Z</time></trkpt><trkpt lat="45.88005285463764" lon="13.484123711972387"><ele>24.6</ele><time>2026-04-11T09:46:39.968Z</time></trkpt><trkpt lat="45.879997600436944" lon="13.48418582989251"><ele>24.8</ele><time>2026-04-11T09:46:40.967Z</time></trkpt><trkpt lat="45.879922006015256" lon="13.484268292349906"><ele>25.0</ele><time>2026-04-11T09:46:41.967Z</time></trkpt><trkpt lat="45.8798328244452" lon="13.484320383256387"><ele>25.0</ele><time>2026-04-11T09:46:42.967Z</time></trkpt><trkpt lat="45.879759347045336" lon="13.484368530415527"><ele>25.0</ele><time>2026-04-11T09:46:43.967Z</time></trkpt><trkpt lat="45.87967546676007" lon="13.484419974858762"><ele>25.0</ele><time>2026-04-11T09:46:44.967Z</time></trkpt><trkpt lat="45.879591936010385" lon="13.484468802163612"><ele>25.0</ele><time>2026-04-11T09:46:45.967Z</time></trkpt><trkpt lat="45.879506470630794" lon="13.484502662582402"><ele>25.0</ele><time>2026-04-11T09:46:46.967Z</time></trkpt><trkpt lat="45.8794095080978" lon="13.484550558087905"><ele>24.833333333333336</ele><time>2026-04-11T09:46:47.967Z</time></trkpt><trkpt lat="45.879322990603995" lon="13.484597450714737"><ele>24.666666666666668</ele><time>2026-04-11T09:46:48.967Z</time></trkpt><trkpt lat="45.8792408399842" lon="13.484650925165885"><ele>24.5</ele><time>2026-04-11T09:46:49.967Z</time></trkpt><trkpt lat="45.87915696676919" lon="13.48469984351377"><ele>24.333333333333336</ele><time>2026-04-11T09:46:50.967Z</time></trkpt><trkpt lat="45.87908120599099" lon="13.484735206231338"><ele>24.166666666666668</ele><time>2026-04-11T09:46:51.967Z</time></trkpt><trkpt lat="45.87900782684914" lon="13.484783102101035"><ele>24.0</ele><time>2026-04-11T09:46:52.967Z</time></trkpt><trkpt lat="45.87894239640768" lon="13.484809542268708"><ele>23.5</ele><time>2026-04-11T09:46:53.967Z</time></trkpt><trkpt lat="45.87886641045834" lon="13.48484681603916"><ele>23.0</ele><time>2026-04-11T09:46:54.967Z</time></trkpt><trkpt lat="45.87880381522379" lon="13.484899115401511"><ele>22.5</ele><time>2026-04-11T09:46:55.967Z</time></trkpt><trkpt lat="45.8787422288932" lon="13.484924317326831"><ele>22.0</ele><time>2026-04-11T09:46:56.967Z</time></trkpt><trkpt lat="45.87867474539942" lon="13.484960947348688"><ele>21.5</ele><time>2026-04-11T09:46:57.967Z</time></trkpt><trkpt lat="45.87860053099098" lon="13.485004325322368"><ele>21.0</ele><time>2026-04-11T09:46:58.967Z</time></trkpt><trkpt lat="45.878514350572026" lon="13.485048299305587"><ele>21.0</ele><time>2026-04-11T09:46:59.967Z</time></trkpt><trkpt lat="45.87843741491071" lon="13.485102320457965"><ele>21.0</ele><time>2026-04-11T09:47:00.967Z</time></trkpt><trkpt lat="45.878347080077326" lon="13.485132395332569"><ele>21.0</ele><time>2026-04-11T09:47:01.967Z</time></trkpt><trkpt lat="45.87826346188045" lon="13.485187330420116"><ele>21.0</ele><time>2026-04-11T09:47:02.967Z</time></trkpt><trkpt lat="45.878183857743075" lon="13.485235667283801"><ele>21.0</ele><time>2026-04-11T09:47:03.967Z</time></trkpt><trkpt lat="45.87809889785526" lon="13.485284700518603"><ele>21.0</ele><time>2026-04-11T09:47:04.967Z</time></trkpt><trkpt lat="45.878018955908594" lon="13.48533050628525"><ele>20.833333333333332</ele><time>2026-04-11T09:47:05.967Z</time></trkpt><trkpt lat="45.877935015740675" lon="13.485371723692145"><ele>20.666666666666668</ele><time>2026-04-11T09:47:06.967Z</time></trkpt><trkpt lat="45.87785022855614" lon="13.485421611189238"><ele>20.5</ele><time>2026-04-11T09:47:07.967Z</time></trkpt><trkpt lat="45.87777196679711" lon="13.485458495993024"><ele>20.333333333333336</ele><time>2026-04-11T09:47:08.967Z</time></trkpt><trkpt lat="45.87769928148727" lon="13.485498347752383"><ele>20.166666666666668</ele><time>2026-04-11T09:47:09.967Z</time></trkpt><trkpt lat="45.87762807995091" lon="13.48553817449948"><ele>20.0</ele><time>2026-04-11T09:47:10.967Z</time></trkpt><trkpt lat="45.87756207803874" lon="13.485566173006786"><ele>20.666666666666668</ele><time>2026-04-11T09:47:11.967Z</time></trkpt><trkpt lat="45.87749367005148" lon="13.485593715502056"><ele>21.333333333333336</ele><time>2026-04-11T09:47:12.967Z</time></trkpt><trkpt lat="45.87737534709594" lon="13.485599321902226"><ele>22.0</ele><time>2026-04-11T09:47:14.967Z</time></trkpt><trkpt lat="45.87730562799973" lon="13.485595445056214"><ele>22.666666666666668</ele><time>2026-04-11T09:47:50.966Z</time></trkpt><trkpt lat="45.87724765271758" lon="13.485637853518393"><ele>23.333333333333332</ele><time>2026-04-11T09:47:55.966Z</time></trkpt><trkpt lat="45.87715386887313" lon="13.485690404166665"><ele>24.0</ele><time>2026-04-11T09:47:57.966Z</time></trkpt><trkpt lat="45.877061862166634" lon="13.48573044830656"><ele>24.0</ele><time>2026-04-11T09:47:59.966Z</time></trkpt><trkpt lat="45.876998479242104" lon="13.485743564135879"><ele>24.0</ele><time>2026-04-11T09:48:02.965Z</time></trkpt><trkpt lat="45.87690723836688" lon="13.485675922716974"><ele>24.0</ele><time>2026-04-11T10:03:03.963Z</time></trkpt><trkpt lat="45.87684163927953" lon="13.485610106193832"><ele>24.0</ele><time>2026-04-11T10:03:04.963Z</time></trkpt><trkpt lat="45.87676601920696" lon="13.485520119067726"><ele>24.0</ele><time>2026-04-11T10:03:05.963Z</time></trkpt><trkpt lat="45.8766992380113" lon="13.485421693375129"><ele>24.0</ele><time>2026-04-11T10:03:06.963Z</time></trkpt><trkpt lat="45.87660284833481" lon="13.485361650614108"><ele>24.25</ele><time>2026-04-11T10:03:07.963Z</time></trkpt><trkpt lat="45.87650434975446" lon="13.485314505747882"><ele>24.5</ele><time>2026-04-11T10:03:08.963Z</time></trkpt><trkpt lat="45.87637854376442" lon="13.485238716801765"><ele>24.75</ele><time>2026-04-11T10:03:09.963Z</time></trkpt><trkpt lat="45.87627143271316" lon="13.485144604596805"><ele>25.0</ele><time>2026-04-11T10:03:10.963Z</time></trkpt><trkpt lat="45.87617949289875" lon="13.485067433377239"><ele>25.000000000000004</ele><time>2026-04-11T10:03:11.963Z</time></trkpt><trkpt lat="45.876092656898656" lon="13.484995652554137"><ele>25.0</ele><time>2026-04-11T10:03:12.963Z</time></trkpt><trkpt lat="45.87600443848577" lon="13.484928013489402"><ele>25.0</ele><time>2026-04-11T10:03:13.963Z</time></trkpt><trkpt lat="45.87593231436977" lon="13.484893354785918"><ele>25.0</ele><time>2026-04-11T10:03:14.962Z</time></trkpt><trkpt lat="45.87583663238518" lon="13.48490712366891"><ele>25.000000000000004</ele><time>2026-04-11T10:03:15.962Z</time></trkpt><trkpt lat="45.87576888283052" lon="13.484908210062532"><ele>25.0</ele><time>2026-04-11T10:03:16.962Z</time></trkpt><trkpt lat="45.87569619035634" lon="13.4849109194437"><ele>25.0</ele><time>2026-04-11T10:03:17.962Z</time></trkpt><trkpt lat="45.87557037454972" lon="13.484899922429285"><ele>25.0</ele><time>2026-04-11T10:03:19.962Z</time></trkpt><trkpt lat="45.87550123133105" lon="13.48487327741925"><ele>25.0</ele><time>2026-04-11T10:03:20.962Z</time></trkpt><trkpt lat="45.87540814816301" lon="13.484868970530794"><ele>25.0</ele><time>2026-04-11T10:03:22.962Z</time></trkpt><trkpt lat="45.87535956530351" lon="13.484932653398316"><ele>25.0</ele><time>2026-04-11T10:03:30.962Z</time></trkpt><trkpt lat="45.87534502171792" lon="13.485237697004482"><ele>25.000000000000004</ele><time>2026-04-11T10:03:42.962Z</time></trkpt><trkpt lat="45.87532434838826" lon="13.48534864387271"><ele>25.0</ele><time>2026-04-11T10:03:43.962Z</time></trkpt><trkpt lat="45.87526541222699" lon="13.485480255131494"><ele>25.0</ele><time>2026-04-11T10:03:44.962Z</time></trkpt><trkpt lat="45.87524102030605" lon="13.485608238188481"><ele>25.0</ele><time>2026-04-11T10:03:45.962Z</time></trkpt><trkpt lat="45.875218562426724" lon="13.485715436830283"><ele>25.000000000000004</ele><time>2026-04-11T10:03:46.962Z</time></trkpt><trkpt lat="45.87522635663735" lon="13.485806996418267"><ele>25.0</ele><time>2026-04-11T10:03:47.962Z</time></trkpt><trkpt lat="45.87517242406908" lon="13.485921339188051"><ele>25.0</ele><time>2026-04-11T10:03:49.962Z</time></trkpt><trkpt lat="45.8751882038242" lon="13.486139852719507"><ele>25.0</ele><time>2026-04-11T10:04:06.961Z</time></trkpt><trkpt lat="45.87526697745313" lon="13.486213838653178"><ele>25.0</ele><time>2026-04-11T10:04:07.961Z</time></trkpt><trkpt lat="45.87533907717749" lon="13.486262001137751"><ele>25.0</ele><time>2026-04-11T10:04:08.961Z</time></trkpt><trkpt lat="45.87541995113134" lon="13.486328047641232"><ele>25.0</ele><time>2026-04-11T10:04:09.961Z</time></trkpt><trkpt lat="45.87551296698511" lon="13.486403512028714"><ele>24.833333333333336</ele><time>2026-04-11T10:04:10.961Z</time></trkpt><trkpt lat="45.87559698087964" lon="13.486473020842311"><ele>24.666666666666668</ele><time>2026-04-11T10:04:11.961Z</time></trkpt><trkpt lat="45.875670222986784" lon="13.48653856557166"><ele>24.5</ele><time>2026-04-11T10:04:12.961Z</time></trkpt><trkpt lat="45.875739860826165" lon="13.486603821319273"><ele>24.333333333333336</ele><time>2026-04-11T10:04:13.961Z</time></trkpt><trkpt lat="45.875811326661726" lon="13.486672130753913"><ele>24.166666666666668</ele><time>2026-04-11T10:04:14.961Z</time></trkpt><trkpt lat="45.87588154565023" lon="13.486742834847156"><ele>24.0</ele><time>2026-04-11T10:04:15.961Z</time></trkpt><trkpt lat="45.875951603926076" lon="13.486794270794222"><ele>24.0</ele><time>2026-04-11T10:04:16.961Z</time></trkpt><trkpt lat="45.87601430292609" lon="13.486846123721023"><ele>24.0</ele><time>2026-04-11T10:04:17.961Z</time></trkpt><trkpt lat="45.87607228469821" lon="13.48691652711147"><ele>24.0</ele><time>2026-04-11T10:04:18.961Z</time></trkpt><trkpt lat="45.8761356927107" lon="13.486973919941244"><ele>24.0</ele><time>2026-04-11T10:04:19.961Z</time></trkpt><trkpt lat="45.87620901799405" lon="13.487039252983097"><ele>24.0</ele><time>2026-04-11T10:04:21.961Z</time></trkpt><trkpt lat="45.876156956029035" lon="13.487126842481606"><ele>24.0</ele><time>2026-04-11T10:04:25.961Z</time></trkpt><trkpt lat="45.87611398500232" lon="13.487207974146866"><ele>24.6</ele><time>2026-04-11T10:04:27.961Z</time></trkpt><trkpt lat="45.8760618796768" lon="13.487333135309765"><ele>25.2</ele><time>2026-04-11T10:04:30.961Z</time></trkpt><trkpt lat="45.87603854713503" lon="13.48747420755875"><ele>25.800000000000004</ele><time>2026-04-11T10:04:32.961Z</time></trkpt><trkpt lat="45.87612766965253" lon="13.487598644087706"><ele>26.400000000000002</ele><time>2026-04-11T10:04:34.961Z</time></trkpt><trkpt lat="45.87620993854065" lon="13.487713559855749"><ele>27.0</ele><time>2026-04-11T10:04:35.961Z</time></trkpt><trkpt lat="45.876282856296726" lon="13.487868010200653"><ele>27.833333333333332</ele><time>2026-04-11T10:04:36.961Z</time></trkpt><trkpt lat="45.8763688074999" lon="13.487930722678739"><ele>28.666666666666664</ele><time>2026-04-11T10:04:37.961Z</time></trkpt><trkpt lat="45.87640290924788" lon="13.488021976419457"><ele>29.5</ele><time>2026-04-11T10:04:38.961Z</time></trkpt><trkpt lat="45.876404526678314" lon="13.4881425951049"><ele>30.333333333333332</ele><time>2026-04-11T10:04:39.961Z</time></trkpt><trkpt lat="45.87635759969869" lon="13.488248930352192"><ele>31.166666666666664</ele><time>2026-04-11T10:04:40.961Z</time></trkpt><trkpt lat="45.87626995025538" lon="13.48834207661164"><ele>32.0</ele><time>2026-04-11T10:04:41.961Z</time></trkpt><trkpt lat="45.87617492364604" lon="13.488467976347737"><ele>32.0</ele><time>2026-04-11T10:04:42.96Z</time></trkpt><trkpt lat="45.876057741363745" lon="13.48866698678295"><ele>32.0</ele><time>2026-04-11T10:04:43.96Z</time></trkpt><trkpt lat="45.87590868138305" lon="13.488893549028683"><ele>32.0</ele><time>2026-04-11T10:04:44.96Z</time></trkpt><trkpt lat="45.875784475937" lon="13.489094454684256"><ele>33.0</ele><time>2026-04-11T10:04:45.961Z</time></trkpt><trkpt lat="45.87566115362006" lon="13.489297648614293"><ele>34.0</ele><time>2026-04-11T10:04:46.961Z</time></trkpt><trkpt lat="45.875555388502555" lon="13.489477624547193"><ele>35.0</ele><time>2026-04-11T10:04:47.96Z</time></trkpt><trkpt lat="45.87544126988858" lon="13.489615979336318"><ele>38.0</ele><time>2026-04-11T10:04:48.96Z</time></trkpt><trkpt lat="45.87535186808902" lon="13.489758683974653"><ele>41.0</ele><time>2026-04-11T10:04:49.96Z</time></trkpt><trkpt lat="45.87525893878214" lon="13.489901103834864"><ele>44.0</ele><time>2026-04-11T10:04:50.961Z</time></trkpt><trkpt lat="45.87518111724945" lon="13.490021074525966"><ele>47.0</ele><time>2026-04-11T10:04:51.96Z</time></trkpt><trkpt lat="45.87513106456021" lon="13.490125878451037"><ele>47.0</ele><time>2026-04-11T10:04:52.96Z</time></trkpt><trkpt lat="45.875086006462226" lon="13.490242664057805"><ele>47.0</ele><time>2026-04-11T10:04:54.96Z</time></trkpt><trkpt lat="45.87521110249206" lon="13.490341240228874"><ele>47.0</ele><time>2026-04-11T10:04:56.96Z</time></trkpt><trkpt lat="45.87530210419567" lon="13.49027373331223"><ele>47.0</ele><time>2026-04-11T10:04:57.96Z</time></trkpt><trkpt lat="45.87540234228881" lon="13.49023692254533"><ele>47.0</ele><time>2026-04-11T10:04:58.96Z</time></trkpt><trkpt lat="45.8755092416258" lon="13.49019147962081"><ele>47.0</ele><time>2026-04-11T10:04:59.96Z</time></trkpt><trkpt lat="45.875609388415796" lon="13.490153818405721"><ele>47.0</ele><time>2026-04-11T10:05:00.96Z</time></trkpt><trkpt lat="45.8756858317853" lon="13.49013479542303"><ele>47.0</ele><time>2026-04-11T10:05:01.959Z</time></trkpt><trkpt lat="45.8756888738739" lon="13.490288985410828"><ele>47.0</ele><time>2026-04-11T10:05:04.959Z</time></trkpt><trkpt lat="45.8755480416907" lon="13.490372893077161"><ele>47.0</ele><time>2026-04-11T10:05:06.959Z</time></trkpt><trkpt lat="45.87543816276554" lon="13.490461745898376"><ele>48.33333333333333</ele><time>2026-04-11T10:05:07.959Z</time></trkpt><trkpt lat="45.875304347479975" lon="13.490587626543762"><ele>49.666666666666664</ele><time>2026-04-11T10:05:08.959Z</time></trkpt><trkpt lat="45.87517768299486" lon="13.490716788377833"><ele>51.0</ele><time>2026-04-11T10:05:09.959Z</time></trkpt><trkpt lat="45.875068162024355" lon="13.490857629307472"><ele>51.0</ele><time>2026-04-11T10:05:10.959Z</time></trkpt><trkpt lat="45.874976542673615" lon="13.491002944446324"><ele>51.0</ele><time>2026-04-11T10:05:11.959Z</time></trkpt><trkpt lat="45.874906160872285" lon="13.491151841895096"><ele>51.0</ele><time>2026-04-11T10:05:12.959Z</time></trkpt><trkpt lat="45.874831561543054" lon="13.49132518571972"><ele>51.0</ele><time>2026-04-11T10:05:13.959Z</time></trkpt><trkpt lat="45.874743896906935" lon="13.491526729785082"><ele>55.33333333333333</ele><time>2026-04-11T10:05:14.959Z</time></trkpt><trkpt lat="45.87465342263493" lon="13.491715889861215"><ele>59.666666666666664</ele><time>2026-04-11T10:05:15.959Z</time></trkpt><trkpt lat="45.87453467272491" lon="13.491860655113909"><ele>64.0</ele><time>2026-04-11T10:05:16.959Z</time></trkpt><trkpt lat="45.87440687896852" lon="13.492002363112043"><ele>64.75</ele><time>2026-04-11T10:05:17.959Z</time></trkpt><trkpt lat="45.87428863489708" lon="13.492137893090044"><ele>65.5</ele><time>2026-04-11T10:05:18.959Z</time></trkpt><trkpt lat="45.874178588769915" lon="13.492256179964983"><ele>66.25</ele><time>2026-04-11T10:05:19.959Z</time></trkpt><trkpt lat="45.87407003510561" lon="13.492379580266155"><ele>67.0</ele><time>2026-04-11T10:05:20.959Z</time></trkpt><trkpt lat="45.87397590086659" lon="13.49247300013172"><ele>67.0</ele><time>2026-04-11T10:05:21.959Z</time></trkpt><trkpt lat="45.87392842231535" lon="13.492571791362192"><ele>67.0</ele><time>2026-04-11T10:05:22.959Z</time></trkpt><trkpt lat="45.8738566492189" lon="13.492721445677088"><ele>67.0</ele><time>2026-04-11T10:05:24.959Z</time></trkpt><trkpt lat="45.873809788718916" lon="13.49282876698605"><ele>67.0</ele><time>2026-04-11T10:05:25.959Z</time></trkpt><trkpt lat="45.8737586289879" lon="13.49295135051299"><ele>67.0</ele><time>2026-04-11T10:05:26.959Z</time></trkpt><trkpt lat="45.87371596556391" lon="13.493111581481605"><ele>69.75</ele><time>2026-04-11T10:05:27.959Z</time></trkpt><trkpt lat="45.87366696978649" lon="13.493262210020651"><ele>72.5</ele><time>2026-04-11T10:05:28.959Z</time></trkpt><trkpt lat="45.873604174169316" lon="13.493399276160746"><ele>75.25</ele><time>2026-04-11T10:05:29.959Z</time></trkpt><trkpt lat="45.87354100048658" lon="13.493549608090454"><ele>78.0</ele><time>2026-04-11T10:05:30.959Z</time></trkpt><trkpt lat="45.87347410546088" lon="13.493703617953868"><ele>78.75</ele><time>2026-04-11T10:05:31.959Z</time></trkpt><trkpt lat="45.87338400539065" lon="13.493834163529634"><ele>79.5</ele><time>2026-04-11T10:05:32.959Z</time></trkpt><trkpt lat="45.87327289804891" lon="13.493943540433813"><ele>80.25</ele><time>2026-04-11T10:05:33.959Z</time></trkpt><trkpt lat="45.87313827165773" lon="13.494036170076292"><ele>81.0</ele><time>2026-04-11T10:05:34.959Z</time></trkpt><trkpt lat="45.87299770682478" lon="13.494129373963087"><ele>81.0</ele><time>2026-04-11T10:05:35.959Z</time></trkpt><trkpt lat="45.87286684531099" lon="13.494218074593617"><ele>81.0</ele><time>2026-04-11T10:05:36.959Z</time></trkpt><trkpt lat="45.872751904655736" lon="13.49429001396332"><ele>81.0</ele><time>2026-04-11T10:05:37.959Z</time></trkpt><trkpt lat="45.87265313318222" lon="13.494359607577687"><ele>81.0</ele><time>2026-04-11T10:05:38.959Z</time></trkpt><trkpt lat="45.87256516071759" lon="13.49442121423159"><ele>80.5</ele><time>2026-04-11T10:05:39.959Z</time></trkpt><trkpt lat="45.87250222013514" lon="13.494502143350783"><ele>80.0</ele><time>2026-04-11T10:05:40.959Z</time></trkpt><trkpt lat="45.87245496994506" lon="13.494593590831098"><ele>79.5</ele><time>2026-04-11T10:05:41.959Z</time></trkpt><trkpt lat="45.872450295063274" lon="13.494703419971442"><ele>79.0</ele><time>2026-04-11T10:05:42.959Z</time></trkpt><trkpt lat="45.87246717542171" lon="13.4948276496362"><ele>78.5</ele><time>2026-04-11T10:05:43.959Z</time></trkpt><trkpt lat="45.872498697613715" lon="13.494937508652447"><ele>78.0</ele><time>2026-04-11T10:05:44.959Z</time></trkpt><trkpt lat="45.87257630108545" lon="13.49497091207011"><ele>81.75</ele><time>2026-04-11T10:05:45.959Z</time></trkpt><trkpt lat="45.87267657566435" lon="13.494967400449273"><ele>85.5</ele><time>2026-04-11T10:05:46.959Z</time></trkpt><trkpt lat="45.872809005604715" lon="13.494953873268724"><ele>89.25</ele><time>2026-04-11T10:05:47.958Z</time></trkpt><trkpt lat="45.87295289105913" lon="13.494953404914671"><ele>93.0</ele><time>2026-04-11T10:05:48.958Z</time></trkpt><trkpt lat="45.87306903659641" lon="13.494996423316389"><ele>93.0</ele><time>2026-04-11T10:05:49.958Z</time></trkpt><trkpt lat="45.87316146571801" lon="13.495034239173924"><ele>93.0</ele><time>2026-04-11T10:05:50.958Z</time></trkpt><trkpt lat="45.87324548046936" lon="13.495067945423884"><ele>93.0</ele><time>2026-04-11T10:05:51.958Z</time></trkpt><trkpt lat="45.87330216880755" lon="13.495117006035514"><ele>93.0</ele><time>2026-04-11T10:05:52.958Z</time></trkpt><trkpt lat="45.87333327896451" lon="13.495291392036362"><ele>93.0</ele><time>2026-04-11T10:05:54.958Z</time></trkpt><trkpt lat="45.8733004558518" lon="13.495387098741293"><ele>93.0</ele><time>2026-04-11T10:05:55.958Z</time></trkpt><trkpt lat="45.87326152112242" lon="13.495490064574025"><ele>95.25</ele><time>2026-04-11T10:05:56.958Z</time></trkpt><trkpt lat="45.87320053241434" lon="13.495656086633526"><ele>97.5</ele><time>2026-04-11T10:05:57.958Z</time></trkpt><trkpt lat="45.873130510492715" lon="13.495825391865644"><ele>99.75</ele><time>2026-04-11T10:05:58.958Z</time></trkpt><trkpt lat="45.873036115220096" lon="13.4959965037836"><ele>102.0</ele><time>2026-04-11T10:05:59.958Z</time></trkpt><trkpt lat="45.872916247251226" lon="13.496189398656883"><ele>103.5</ele><time>2026-04-11T10:06:00.958Z</time></trkpt><trkpt lat="45.87280470591244" lon="13.496366736845786"><ele>105.0</ele><time>2026-04-11T10:06:01.958Z</time></trkpt><trkpt lat="45.87271202412621" lon="13.496507301479646"><ele>106.5</ele><time>2026-04-11T10:06:02.958Z</time></trkpt><trkpt lat="45.87263486021695" lon="13.4966270958802"><ele>108.0</ele><time>2026-04-11T10:06:03.958Z</time></trkpt><trkpt lat="45.872575349195436" lon="13.496740042816974"><ele>108.0</ele><time>2026-04-11T10:06:04.958Z</time></trkpt><trkpt lat="45.87251975204742" lon="13.496823565103794"><ele>108.0</ele><time>2026-04-11T10:06:05.958Z</time></trkpt><trkpt lat="45.87246068766596" lon="13.49690146787396"><ele>108.0</ele><time>2026-04-11T10:06:06.958Z</time></trkpt><trkpt lat="45.87241403258272" lon="13.496979728140873"><ele>108.0</ele><time>2026-04-11T10:06:07.958Z</time></trkpt><trkpt lat="45.872358604763896" lon="13.49707353569412"><ele>108.0</ele><time>2026-04-11T10:06:09.958Z</time></trkpt><trkpt lat="45.87245208525566" lon="13.496968694009011"><ele>108.0</ele><time>2026-04-11T10:06:48.957Z</time></trkpt><trkpt lat="45.87250702226482" lon="13.496861434133143"><ele>108.0</ele><time>2026-04-11T10:06:49.957Z</time></trkpt><trkpt lat="45.87260485521076" lon="13.496755992291135"><ele>108.0</ele><time>2026-04-11T10:06:50.957Z</time></trkpt><trkpt lat="45.872677686107124" lon="13.496605226240902"><ele>108.0</ele><time>2026-04-11T10:06:51.957Z</time></trkpt><trkpt lat="45.872754004899335" lon="13.49648310728828"><ele>108.0</ele><time>2026-04-11T10:06:52.957Z</time></trkpt><trkpt lat="45.87283216143182" lon="13.496353520529466"><ele>106.5</ele><time>2026-04-11T10:06:53.957Z</time></trkpt><trkpt lat="45.87291482500718" lon="13.496213537269744"><ele>105.0</ele><time>2026-04-11T10:06:54.957Z</time></trkpt><trkpt lat="45.873004085803885" lon="13.496078351540007"><ele>103.5</ele><time>2026-04-11T10:06:55.957Z</time></trkpt><trkpt lat="45.87309173927855" lon="13.495919139733706"><ele>102.0</ele><time>2026-04-11T10:06:56.957Z</time></trkpt><trkpt lat="45.87316675470489" lon="13.495764607961203"><ele>102.0</ele><time>2026-04-11T10:06:57.957Z</time></trkpt><trkpt lat="45.8732361112538" lon="13.495623019132312"><ele>102.0</ele><time>2026-04-11T10:06:58.957Z</time></trkpt><trkpt lat="45.87328426930652" lon="13.49545674634384"><ele>102.0</ele><time>2026-04-11T10:06:59.957Z</time></trkpt><trkpt lat="45.873343376482765" lon="13.495353498128868"><ele>102.0</ele><time>2026-04-11T10:07:00.957Z</time></trkpt><trkpt lat="45.873383586352645" lon="13.495245890002572"><ele>102.0</ele><time>2026-04-11T10:07:03.957Z</time></trkpt><trkpt lat="45.873528527811274" lon="13.495201178692463"><ele>100.66666666666667</ele><time>2026-04-11T10:07:07.956Z</time></trkpt><trkpt lat="45.87364063228048" lon="13.49519799539111"><ele>99.33333333333333</ele><time>2026-04-11T10:07:09.956Z</time></trkpt><trkpt lat="45.873724700487216" lon="13.495181274215229"><ele>98.0</ele><time>2026-04-11T10:07:11.956Z</time></trkpt><trkpt lat="45.87382661885645" lon="13.495124917967082"><ele>96.66666666666666</ele><time>2026-04-11T10:07:13.956Z</time></trkpt><trkpt lat="45.87388574718593" lon="13.495092585532483"><ele>95.33333333333333</ele><time>2026-04-11T10:07:14.956Z</time></trkpt><trkpt lat="45.8739597493876" lon="13.49505093973295"><ele>94.0</ele><time>2026-04-11T10:07:16.956Z</time></trkpt><trkpt lat="45.87401433874685" lon="13.495120918375365"><ele>94.0</ele><time>2026-04-11T10:07:19.956Z</time></trkpt><trkpt lat="45.8739988870182" lon="13.49521228165847"><ele>94.0</ele><time>2026-04-11T10:07:22.956Z</time></trkpt><trkpt lat="45.873966851198176" lon="13.495299752321726"><ele>94.0</ele><time>2026-04-11T10:07:24.956Z</time></trkpt><trkpt lat="45.873909494803684" lon="13.495438673590556"><ele>94.0</ele><time>2026-04-11T10:07:26.956Z</time></trkpt><trkpt lat="45.87389135271299" lon="13.495579592637988"><ele>94.0</ele><time>2026-04-11T10:07:28.956Z</time></trkpt><trkpt lat="45.87393911988875" lon="13.495673327026537"><ele>94.0</ele><time>2026-04-11T10:07:30.956Z</time></trkpt><trkpt lat="45.8740586996705" lon="13.495755478272354"><ele>95.0</ele><time>2026-04-11T10:07:32.956Z</time></trkpt><trkpt lat="45.8741632828138" lon="13.495819084284035"><ele>96.0</ele><time>2026-04-11T10:07:34.956Z</time></trkpt><trkpt lat="45.87426568104837" lon="13.495879702384425"><ele>97.0</ele><time>2026-04-11T10:07:36.956Z</time></trkpt><trkpt lat="45.874344876256615" lon="13.495980204962999"><ele>98.0</ele><time>2026-04-11T10:07:38.956Z</time></trkpt><trkpt lat="45.8744152497193" lon="13.496095226393194"><ele>99.0</ele><time>2026-04-11T10:07:40.956Z</time></trkpt><trkpt lat="45.87446086804157" lon="13.496190660556872"><ele>97.5</ele><time>2026-04-11T10:07:42.956Z</time></trkpt><trkpt lat="45.87445234850189" lon="13.496300132705679"><ele>96.0</ele><time>2026-04-11T10:07:44.956Z</time></trkpt><trkpt lat="45.87442818272603" lon="13.496390065243522"><ele>94.5</ele><time>2026-04-11T10:07:45.956Z</time></trkpt><trkpt lat="45.874402866944045" lon="13.496474963108325"><ele>93.0</ele><time>2026-04-11T10:07:46.956Z</time></trkpt><trkpt lat="45.87436947877462" lon="13.496609000429379"><ele>91.5</ele><time>2026-04-11T10:07:48.956Z</time></trkpt><trkpt lat="45.87432252579313" lon="13.496747821769448"><ele>90.0</ele><time>2026-04-11T10:07:50.955Z</time></trkpt><trkpt lat="45.874288758067756" lon="13.49683121594444"><ele>93.0</ele><time>2026-04-11T10:07:51.955Z</time></trkpt><trkpt lat="45.87425066054388" lon="13.496966077866254"><ele>96.0</ele><time>2026-04-11T10:07:53.956Z</time></trkpt><trkpt lat="45.87420484108095" lon="13.497106846027862"><ele>99.0</ele><time>2026-04-11T10:07:55.957Z</time></trkpt><trkpt lat="45.87416494877966" lon="13.497236283231215"><ele>102.0</ele><time>2026-04-11T10:07:57.957Z</time></trkpt><trkpt lat="45.874131607571016" lon="13.497368486822767"><ele>105.0</ele><time>2026-04-11T10:07:59.958Z</time></trkpt><trkpt lat="45.87408224671522" lon="13.497508798447928"><ele>105.2</ele><time>2026-04-11T10:08:01.958Z</time></trkpt><trkpt lat="45.874033614298305" lon="13.497637144032755"><ele>105.4</ele><time>2026-04-11T10:08:03.958Z</time></trkpt><trkpt lat="45.8739897072251" lon="13.49776450129272"><ele>105.6</ele><time>2026-04-11T10:08:05.959Z</time></trkpt><trkpt lat="45.873949755396076" lon="13.497881854302854"><ele>105.8</ele><time>2026-04-11T10:08:07.959Z</time></trkpt><trkpt lat="45.87391274043546" lon="13.498043296810126"><ele>106.0</ele><time>2026-04-11T10:08:09.959Z</time></trkpt><trkpt lat="45.87388317996362" lon="13.498135624954658"><ele>106.00000000000001</ele><time>2026-04-11T10:08:10.959Z</time></trkpt><trkpt lat="45.873856863314806" lon="13.498224860009824"><ele>106.0</ele><time>2026-04-11T10:08:11.959Z</time></trkpt><trkpt lat="45.87382198219609" lon="13.498319219034256"><ele>106.0</ele><time>2026-04-11T10:08:12.959Z</time></trkpt><trkpt lat="45.87379365785805" lon="13.498411558397093"><ele>106.0</ele><time>2026-04-11T10:08:13.959Z</time></trkpt><trkpt lat="45.8737320363751" lon="13.49857209602048"><ele>106.00000000000001</ele><time>2026-04-11T10:08:15.959Z</time></trkpt><trkpt lat="45.87370471846022" lon="13.498666678625604"><ele>106.0</ele><time>2026-04-11T10:08:16.96Z</time></trkpt><trkpt lat="45.87367549205433" lon="13.49875135323728"><ele>106.0</ele><time>2026-04-11T10:08:17.96Z</time></trkpt><trkpt lat="45.873633444541746" lon="13.498864684821067"><ele>106.0</ele><time>2026-04-11T10:08:19.96Z</time></trkpt><trkpt lat="45.87360456598825" lon="13.498971619884518"><ele>106.0</ele><time>2026-04-11T10:08:22.96Z</time></trkpt><trkpt lat="45.87363094448092" lon="13.498889257690589"><ele>106.0</ele><time>2026-04-11T10:10:08.958Z</time></trkpt><trkpt lat="45.873526111675446" lon="13.49869464678341"><ele>106.0</ele><time>2026-04-11T10:10:45.958Z</time></trkpt><trkpt lat="45.87343468379376" lon="13.498691139501236"><ele>107.50000000000001</ele><time>2026-04-11T10:10:47.958Z</time></trkpt><trkpt lat="45.873318986667236" lon="13.498675825495601"><ele>109.0</ele><time>2026-04-11T10:10:49.957Z</time></trkpt><trkpt lat="45.873256543385175" lon="13.498653468531597"><ele>110.5</ele><time>2026-04-11T10:10:50.957Z</time></trkpt><trkpt lat="45.87318419014647" lon="13.498617761831003"><ele>112.0</ele><time>2026-04-11T10:10:51.957Z</time></trkpt><trkpt lat="45.873118442002124" lon="13.498579819002071"><ele>113.50000000000001</ele><time>2026-04-11T10:10:52.957Z</time></trkpt><trkpt lat="45.87304966055206" lon="13.498534961294995"><ele>115.0</ele><time>2026-04-11T10:10:54.957Z</time></trkpt><trkpt lat="45.872988407273965" lon="13.498512557569665"><ele>115.0</ele><time>2026-04-11T10:10:57.959Z</time></trkpt><trkpt lat="45.87291541883798" lon="13.498515169019713"><ele>115.0</ele><time>2026-04-11T10:11:02.958Z</time></trkpt><trkpt lat="45.87287693329257" lon="13.498601910413743"><ele>115.0</ele><time>2026-04-11T10:11:05.958Z</time></trkpt><trkpt lat="45.872862302202954" lon="13.498804205390206"><ele>115.0</ele><time>2026-04-11T10:11:21.958Z</time></trkpt><trkpt lat="45.87285894957682" lon="13.498922011876994"><ele>115.0</ele><time>2026-04-11T10:11:22.958Z</time></trkpt><trkpt lat="45.87284891867925" lon="13.499058523744846"><ele>115.25</ele><time>2026-04-11T10:11:23.958Z</time></trkpt><trkpt lat="45.87285348876284" lon="13.49921900214988"><ele>115.5</ele><time>2026-04-11T10:11:24.958Z</time></trkpt><trkpt lat="45.872859591323554" lon="13.499398917046967"><ele>115.75</ele><time>2026-04-11T10:11:25.958Z</time></trkpt><trkpt lat="45.87286792921596" lon="13.499563022218805"><ele>116.0</ele><time>2026-04-11T10:11:26.958Z</time></trkpt><trkpt lat="45.87287486146663" lon="13.499753070779903"><ele>115.25</ele><time>2026-04-11T10:11:27.958Z</time></trkpt><trkpt lat="45.872881282477444" lon="13.4999569929572"><ele>114.5</ele><time>2026-04-11T10:11:28.958Z</time></trkpt><trkpt lat="45.872888408162446" lon="13.50015050641767"><ele>113.75</ele><time>2026-04-11T10:11:29.958Z</time></trkpt><trkpt lat="45.872895715773026" lon="13.500335169796768"><ele>113.0</ele><time>2026-04-11T10:11:30.958Z</time></trkpt><trkpt lat="45.87292289772673" lon="13.500531600920059"><ele>112.0</ele><time>2026-04-11T10:11:31.958Z</time></trkpt><trkpt lat="45.872974763264146" lon="13.500722241920172"><ele>111.0</ele><time>2026-04-11T10:11:32.958Z</time></trkpt><trkpt lat="45.87304539489702" lon="13.500932603729105"><ele>110.0</ele><time>2026-04-11T10:11:33.958Z</time></trkpt><trkpt lat="45.873118104833914" lon="13.501150596046088"><ele>109.0</ele><time>2026-04-11T10:11:34.958Z</time></trkpt><trkpt lat="45.87318436777574" lon="13.501343014596207"><ele>108.0</ele><time>2026-04-11T10:11:35.958Z</time></trkpt><trkpt lat="45.8732472632066" lon="13.501536885951799"><ele>107.0</ele><time>2026-04-11T10:11:36.958Z</time></trkpt><trkpt lat="45.87331099840608" lon="13.501739235975245"><ele>107.0</ele><time>2026-04-11T10:11:37.958Z</time></trkpt><trkpt lat="45.873368246117465" lon="13.501951513866297"><ele>107.0</ele><time>2026-04-11T10:11:38.958Z</time></trkpt><trkpt lat="45.8734325492916" lon="13.502165785875794"><ele>107.0</ele><time>2026-04-11T10:11:39.958Z</time></trkpt><trkpt lat="45.87348444743356" lon="13.50238904494126"><ele>104.66666666666666</ele><time>2026-04-11T10:11:40.958Z</time></trkpt><trkpt lat="45.87350642534988" lon="13.502627987438121"><ele>102.33333333333334</ele><time>2026-04-11T10:11:41.958Z</time></trkpt><trkpt lat="45.87351267489215" lon="13.502868845856055"><ele>100.0</ele><time>2026-04-11T10:11:42.958Z</time></trkpt><trkpt lat="45.87351378958493" lon="13.503117243230466"><ele>100.0</ele><time>2026-04-11T10:11:43.958Z</time></trkpt><trkpt lat="45.87348511877612" lon="13.503357741325884"><ele>100.0</ele><time>2026-04-11T10:11:44.958Z</time></trkpt><trkpt lat="45.873477860936426" lon="13.503600494378317"><ele>100.0</ele><time>2026-04-11T10:11:45.958Z</time></trkpt><trkpt lat="45.87345034632207" lon="13.503838413338611"><ele>103.33333333333334</ele><time>2026-04-11T10:11:46.958Z</time></trkpt><trkpt lat="45.87343592271583" lon="13.50407050424564"><ele>106.66666666666666</ele><time>2026-04-11T10:11:47.958Z</time></trkpt><trkpt lat="45.873418332843805" lon="13.50429428766755"><ele>110.0</ele><time>2026-04-11T10:11:48.958Z</time></trkpt><trkpt lat="45.87339710377829" lon="13.504513459696973"><ele>111.0</ele><time>2026-04-11T10:11:49.958Z</time></trkpt><trkpt lat="45.873380684466724" lon="13.504741257901385"><ele>112.0</ele><time>2026-04-11T10:11:50.958Z</time></trkpt><trkpt lat="45.873365106311454" lon="13.504975354623914"><ele>113.0</ele><time>2026-04-11T10:11:51.958Z</time></trkpt><trkpt lat="45.87333851106309" lon="13.505207172044386"><ele>113.66666666666666</ele><time>2026-04-11T10:11:52.958Z</time></trkpt><trkpt lat="45.87332319817208" lon="13.505438885821746"><ele>114.33333333333334</ele><time>2026-04-11T10:11:53.958Z</time></trkpt><trkpt lat="45.873304252810925" lon="13.505673329563185"><ele>115.0</ele><time>2026-04-11T10:11:54.958Z</time></trkpt><trkpt lat="45.873276780943584" lon="13.5059145636175"><ele>115.0</ele><time>2026-04-11T10:11:55.958Z</time></trkpt><trkpt lat="45.87324091928894" lon="13.506162780452115"><ele>115.0</ele><time>2026-04-11T10:11:56.958Z</time></trkpt><trkpt lat="45.87319240099398" lon="13.50639697871952"><ele>115.0</ele><time>2026-04-11T10:11:57.957Z</time></trkpt><trkpt lat="45.87313439602582" lon="13.506605801119308"><ele>115.66666666666667</ele><time>2026-04-11T10:11:58.957Z</time></trkpt><trkpt lat="45.873066742622136" lon="13.506823315437163"><ele>116.33333333333334</ele><time>2026-04-11T10:11:59.957Z</time></trkpt><trkpt lat="45.873010102459304" lon="13.507058774810421"><ele>117.0</ele><time>2026-04-11T10:12:00.957Z</time></trkpt><trkpt lat="45.87294736460442" lon="13.507266742079766"><ele>117.5</ele><time>2026-04-11T10:12:01.957Z</time></trkpt><trkpt lat="45.872873985201664" lon="13.507451237325935"><ele>118.0</ele><time>2026-04-11T10:12:02.957Z</time></trkpt><trkpt lat="45.87281888830256" lon="13.507614625576638"><ele>118.5</ele><time>2026-04-11T10:12:03.957Z</time></trkpt><trkpt lat="45.87276675806433" lon="13.5077579940092"><ele>119.0</ele><time>2026-04-11T10:12:04.957Z</time></trkpt><trkpt lat="45.87268629907112" lon="13.507870961679536"><ele>120.0</ele><time>2026-04-11T10:12:05.957Z</time></trkpt><trkpt lat="45.872600620038256" lon="13.507950901073427"><ele>121.0</ele><time>2026-04-11T10:12:06.957Z</time></trkpt><trkpt lat="45.87251195617262" lon="13.50800628390464"><ele>122.0</ele><time>2026-04-11T10:12:07.957Z</time></trkpt><trkpt lat="45.87243000856164" lon="13.508050096328741"><ele>123.0</ele><time>2026-04-11T10:12:08.957Z</time></trkpt><trkpt lat="45.87235343381008" lon="13.508086194795913"><ele>124.0</ele><time>2026-04-11T10:12:09.957Z</time></trkpt><trkpt lat="45.87227348715988" lon="13.508124720783831"><ele>124.00000000000001</ele><time>2026-04-11T10:12:10.957Z</time></trkpt><trkpt lat="45.872205799382996" lon="13.50815524323314"><ele>124.0</ele><time>2026-04-11T10:12:11.957Z</time></trkpt><trkpt lat="45.8720959171782" lon="13.508211835759884"><ele>124.0</ele><time>2026-04-11T10:12:13.957Z</time></trkpt><trkpt lat="45.871999708678075" lon="13.508253202595766"><ele>124.0</ele><time>2026-04-11T10:12:15.957Z</time></trkpt><trkpt lat="45.87193422255189" lon="13.508275873897233"><ele>124.00000000000001</ele><time>2026-04-11T10:12:18.957Z</time></trkpt><trkpt lat="45.87194088636108" lon="13.508377812768202"><ele>124.0</ele><time>2026-04-11T10:12:29.957Z</time></trkpt><trkpt lat="45.872024244045825" lon="13.508317012819257"><ele>124.00000000000001</ele><time>2026-04-11T10:12:31.957Z</time></trkpt><trkpt lat="45.87208907119629" lon="13.508236991211497"><ele>124.0</ele><time>2026-04-11T10:12:32.957Z</time></trkpt><trkpt lat="45.87216127264442" lon="13.508173373087798"><ele>124.0</ele><time>2026-04-11T10:12:33.957Z</time></trkpt><trkpt lat="45.87224927888545" lon="13.50817278207783"><ele>124.0</ele><time>2026-04-11T10:12:34.957Z</time></trkpt><trkpt lat="45.872329912152246" lon="13.508137111087839"><ele>124.00000000000001</ele><time>2026-04-11T10:12:35.957Z</time></trkpt><trkpt lat="45.87239772924651" lon="13.50808114865984"><ele>124.0</ele><time>2026-04-11T10:12:36.957Z</time></trkpt><trkpt lat="45.872463477871705" lon="13.508054790483339"><ele>124.0</ele><time>2026-04-11T10:12:37.957Z</time></trkpt><trkpt lat="45.87253355079574" lon="13.508018379058058"><ele>124.0</ele><time>2026-04-11T10:12:38.957Z</time></trkpt><trkpt lat="45.872595171772446" lon="13.50797415305502"><ele>124.0</ele><time>2026-04-11T10:12:39.957Z</time></trkpt><trkpt lat="45.87269670074905" lon="13.507878186825659"><ele>124.0</ele><time>2026-04-11T10:12:41.957Z</time></trkpt><trkpt lat="45.8727854343921" lon="13.507716463792919"><ele>124.0</ele><time>2026-04-11T10:12:43.957Z</time></trkpt><trkpt lat="45.87281684777672" lon="13.507634288754975"><ele>123.6</ele><time>2026-04-11T10:12:44.957Z</time></trkpt><trkpt lat="45.87285560984605" lon="13.50749012870986"><ele>123.2</ele><time>2026-04-11T10:12:46.956Z</time></trkpt><trkpt lat="45.872915327230885" lon="13.507520238354553"><ele>122.79999999999998</ele><time>2026-04-11T10:12:49.956Z</time></trkpt><trkpt lat="45.87291395376921" lon="13.507614586594173"><ele>122.39999999999999</ele><time>2026-04-11T10:12:51.956Z</time></trkpt><trkpt lat="45.87288818676754" lon="13.507767804389653"><ele>122.0</ele><time>2026-04-11T10:12:53.956Z</time></trkpt><trkpt lat="45.87289069067464" lon="13.507920452011566"><ele>122.0</ele><time>2026-04-11T10:12:55.956Z</time></trkpt><trkpt lat="45.87292989396345" lon="13.50806392423353"><ele>121.99999999999999</ele><time>2026-04-11T10:12:57.956Z</time></trkpt><trkpt lat="45.87300710820611" lon="13.50818350204502"><ele>121.99999999999999</ele><time>2026-04-11T10:12:59.956Z</time></trkpt><trkpt lat="45.87310876185649" lon="13.508242021246955"><ele>122.0</ele><time>2026-04-11T10:13:01.956Z</time></trkpt><trkpt lat="45.87317593185202" lon="13.50826253197992"><ele>122.0</ele><time>2026-04-11T10:13:02.956Z</time></trkpt><trkpt lat="45.87324001881345" lon="13.508294002416777"><ele>121.99999999999999</ele><time>2026-04-11T10:13:03.956Z</time></trkpt><trkpt lat="45.873303868800235" lon="13.508300218309055"><ele>122.0</ele><time>2026-04-11T10:13:04.956Z</time></trkpt><trkpt lat="45.873369390688595" lon="13.508288410559953"><ele>122.0</ele><time>2026-04-11T10:13:05.956Z</time></trkpt><trkpt lat="45.87343751720061" lon="13.508267276139177"><ele>122.0</ele><time>2026-04-11T10:13:06.956Z</time></trkpt><trkpt lat="45.87355875144059" lon="13.50825161130166"><ele>121.99999999999999</ele><time>2026-04-11T10:13:08.956Z</time></trkpt><trkpt lat="45.87366427448229" lon="13.508236403709486"><ele>122.0</ele><time>2026-04-11T10:13:10.956Z</time></trkpt><trkpt lat="45.87373091189608" lon="13.508215681080081"><ele>122.19999999999999</ele><time>2026-04-11T10:13:11.956Z</time></trkpt><trkpt lat="45.873795712710546" lon="13.508197282187622"><ele>122.39999999999999</ele><time>2026-04-11T10:13:12.955Z</time></trkpt><trkpt lat="45.87390072391785" lon="13.508158247299638"><ele>122.60000000000001</ele><time>2026-04-11T10:13:14.956Z</time></trkpt><trkpt lat="45.87400994181671" lon="13.508158538296026"><ele>122.80000000000001</ele><time>2026-04-11T10:13:16.956Z</time></trkpt><trkpt lat="45.87407436801007" lon="13.508255073964877"><ele>123.0</ele><time>2026-04-11T10:13:18.956Z</time></trkpt><trkpt lat="45.87414436638974" lon="13.508368141088534"><ele>123.00000000000001</ele><time>2026-04-11T10:13:20.956Z</time></trkpt><trkpt lat="45.874190951947824" lon="13.508457148000215"><ele>123.0</ele><time>2026-04-11T10:13:21.956Z</time></trkpt><trkpt lat="45.874240021591575" lon="13.508549822359551"><ele>123.00000000000001</ele><time>2026-04-11T10:13:22.956Z</time></trkpt><trkpt lat="45.87427612454255" lon="13.508644371022223"><ele>123.00000000000001</ele><time>2026-04-11T10:13:23.956Z</time></trkpt><trkpt lat="45.87431170307641" lon="13.508740956769827"><ele>123.0</ele><time>2026-04-11T10:13:24.956Z</time></trkpt><trkpt lat="45.874338045889964" lon="13.508830865852975"><ele>123.00000000000001</ele><time>2026-04-11T10:13:25.956Z</time></trkpt><trkpt lat="45.874362265242816" lon="13.508924986389001"><ele>123.00000000000001</ele><time>2026-04-11T10:13:26.956Z</time></trkpt><trkpt lat="45.87440536906783" lon="13.509085980916941"><ele>124.0</ele><time>2026-04-11T10:13:28.956Z</time></trkpt><trkpt lat="45.87443432654415" lon="13.509174715462217"><ele>125.00000000000001</ele><time>2026-04-11T10:13:29.956Z</time></trkpt><trkpt lat="45.87449930809731" lon="13.509303192837901"><ele>126.00000000000001</ele><time>2026-04-11T10:13:31.956Z</time></trkpt><trkpt lat="45.874538274893744" lon="13.509390205810128"><ele>127.0</ele><time>2026-04-11T10:13:32.956Z</time></trkpt><trkpt lat="45.874592737907236" lon="13.509507103978693"><ele>128.0</ele><time>2026-04-11T10:13:34.956Z</time></trkpt><trkpt lat="45.874680248960466" lon="13.509597090759502"><ele>128.8</ele><time>2026-04-11T10:13:36.956Z</time></trkpt><trkpt lat="45.87475799682928" lon="13.509653696892025"><ele>129.60000000000002</ele><time>2026-04-11T10:13:38.956Z</time></trkpt><trkpt lat="45.87484537905648" lon="13.509712814583763"><ele>130.39999999999998</ele><time>2026-04-11T10:13:40.956Z</time></trkpt><trkpt lat="45.87492776434485" lon="13.509753865410895"><ele>131.2</ele><time>2026-04-11T10:13:42.956Z</time></trkpt><trkpt lat="45.875032973713324" lon="13.50980831012383"><ele>132.0</ele><time>2026-04-11T10:13:44.956Z</time></trkpt><trkpt lat="45.87514333890878" lon="13.509885263241843"><ele>132.0</ele><time>2026-04-11T10:13:46.956Z</time></trkpt><trkpt lat="45.87520511196818" lon="13.509925850942832"><ele>132.0</ele><time>2026-04-11T10:13:47.956Z</time></trkpt><trkpt lat="45.87527377777805" lon="13.509974113985075"><ele>132.0</ele><time>2026-04-11T10:13:48.956Z</time></trkpt><trkpt lat="45.87534083510525" lon="13.50998638520243"><ele>132.0</ele><time>2026-04-11T10:13:49.956Z</time></trkpt><trkpt lat="45.87541660762351" lon="13.509991201682295"><ele>132.0</ele><time>2026-04-11T10:13:50.956Z</time></trkpt><trkpt lat="45.875486733032034" lon="13.509994903092585"><ele>132.0</ele><time>2026-04-11T10:13:51.956Z</time></trkpt><trkpt lat="45.87557027119795" lon="13.510022013490216"><ele>132.0</ele><time>2026-04-11T10:13:53.956Z</time></trkpt><trkpt lat="45.87564877253312" lon="13.510084449307396"><ele>132.0</ele><time>2026-04-11T10:13:55.956Z</time></trkpt><trkpt lat="45.8757166650887" lon="13.510208990606477"><ele>132.0</ele><time>2026-04-11T10:13:57.956Z</time></trkpt><trkpt lat="45.87571824572278" lon="13.51030024670286"><ele>132.0</ele><time>2026-04-11T10:13:58.956Z</time></trkpt><trkpt lat="45.87572137710697" lon="13.510471013141716"><ele>132.0</ele><time>2026-04-11T10:14:00.955Z</time></trkpt><trkpt lat="45.87571958931682" lon="13.510570435597355"><ele>132.0</ele><time>2026-04-11T10:14:01.955Z</time></trkpt><trkpt lat="45.87571058452675" lon="13.510729378192984"><ele>132.33333333333334</ele><time>2026-04-11T10:14:03.955Z</time></trkpt><trkpt lat="45.875665278464574" lon="13.510903396701632"><ele>132.66666666666666</ele><time>2026-04-11T10:14:05.955Z</time></trkpt><trkpt lat="45.87564456433119" lon="13.510989894952202"><ele>133.0</ele><time>2026-04-11T10:14:06.955Z</time></trkpt><trkpt lat="45.87562237063288" lon="13.511083362469098"><ele>133.33333333333331</ele><time>2026-04-11T10:14:07.955Z</time></trkpt><trkpt lat="45.87559245407895" lon="13.511176468231506"><ele>133.66666666666666</ele><time>2026-04-11T10:14:08.955Z</time></trkpt><trkpt lat="45.87557530598291" lon="13.511269934690015"><ele>134.0</ele><time>2026-04-11T10:14:09.955Z</time></trkpt><trkpt lat="45.87554466583448" lon="13.51142291446131"><ele>134.4</ele><time>2026-04-11T10:14:11.955Z</time></trkpt><trkpt lat="45.87552284056871" lon="13.511573561628005"><ele>134.8</ele><time>2026-04-11T10:14:13.955Z</time></trkpt><trkpt lat="45.875531454635514" lon="13.511730634589846"><ele>135.2</ele><time>2026-04-11T10:14:15.955Z</time></trkpt><trkpt lat="45.8755364181005" lon="13.511890769000198"><ele>135.6</ele><time>2026-04-11T10:14:17.955Z</time></trkpt><trkpt lat="45.87554676720279" lon="13.512056930959112"><ele>136.0</ele><time>2026-04-11T10:14:19.955Z</time></trkpt><trkpt lat="45.87554969051308" lon="13.51221735042842"><ele>137.6</ele><time>2026-04-11T10:14:21.955Z</time></trkpt><trkpt lat="45.87555988616205" lon="13.512336083590105"><ele>139.2</ele><time>2026-04-11T10:14:23.955Z</time></trkpt><trkpt lat="45.87555512869711" lon="13.512460087445676"><ele>140.8</ele><time>2026-04-11T10:14:25.955Z</time></trkpt><trkpt lat="45.87553488128455" lon="13.512632425683233"><ele>142.4</ele><time>2026-04-11T10:14:27.955Z</time></trkpt><trkpt lat="45.87552410464967" lon="13.512731748992728"><ele>144.0</ele><time>2026-04-11T10:14:28.955Z</time></trkpt><trkpt lat="45.87554394662235" lon="13.512880474442682"><ele>145.6</ele><time>2026-04-11T10:14:30.955Z</time></trkpt><trkpt lat="45.875587334432716" lon="13.513034895549406"><ele>147.2</ele><time>2026-04-11T10:14:32.955Z</time></trkpt><trkpt lat="45.87568191252488" lon="13.513142794168026"><ele>148.79999999999998</ele><time>2026-04-11T10:14:34.955Z</time></trkpt><trkpt lat="45.87573373666845" lon="13.513214625455088"><ele>150.4</ele><time>2026-04-11T10:14:35.955Z</time></trkpt><trkpt lat="45.87580145147434" lon="13.513296531473554"><ele>152.0</ele><time>2026-04-11T10:14:36.955Z</time></trkpt><trkpt lat="45.875846924941285" lon="13.513374495118725"><ele>152.0</ele><time>2026-04-11T10:14:37.955Z</time></trkpt><trkpt lat="45.875924165661715" lon="13.513509114989821"><ele>152.0</ele><time>2026-04-11T10:14:39.955Z</time></trkpt><trkpt lat="45.87596579228272" lon="13.513588062275021"><ele>152.0</ele><time>2026-04-11T10:14:40.955Z</time></trkpt><trkpt lat="45.8760132565193" lon="13.513666880615169"><ele>152.0</ele><time>2026-04-11T10:14:41.955Z</time></trkpt><trkpt lat="45.87605055972917" lon="13.513749670215809"><ele>152.0</ele><time>2026-04-11T10:14:42.955Z</time></trkpt><trkpt lat="45.87610004952056" lon="13.513891472282552"><ele>152.0</ele><time>2026-04-11T10:14:44.955Z</time></trkpt><trkpt lat="45.87613033547467" lon="13.51399676627347"><ele>152.0</ele><time>2026-04-11T10:14:45.955Z</time></trkpt><trkpt lat="45.87616264275452" lon="13.514093267280495"><ele>152.0</ele><time>2026-04-11T10:14:46.955Z</time></trkpt><trkpt lat="45.87617099893958" lon="13.514231985639563"><ele>152.0</ele><time>2026-04-11T10:14:48.955Z</time></trkpt><trkpt lat="45.87615416819096" lon="13.514417287965545"><ele>152.0</ele><time>2026-04-11T10:14:50.954Z</time></trkpt><trkpt lat="45.87616854708352" lon="13.51453878964609"><ele>152.0</ele><time>2026-04-11T10:14:52.954Z</time></trkpt><trkpt lat="45.8762143664519" lon="13.514661872974603"><ele>154.0</ele><time>2026-04-11T10:14:54.954Z</time></trkpt><trkpt lat="45.87626900823643" lon="13.514712817008938"><ele>156.0</ele><time>2026-04-11T10:14:56.954Z</time></trkpt><trkpt lat="45.87634115609134" lon="13.514721763917795"><ele>158.0</ele><time>2026-04-11T10:14:58.954Z</time></trkpt><trkpt lat="45.8764125210813" lon="13.514708062202223"><ele>160.0</ele><time>2026-04-11T10:15:00.954Z</time></trkpt><trkpt lat="45.87649494059471" lon="13.514720210202865"><ele>162.0</ele><time>2026-04-11T10:15:02.954Z</time></trkpt><trkpt lat="45.87661032532738" lon="13.514725919172072"><ele>164.0</ele><time>2026-04-11T10:15:04.954Z</time></trkpt><trkpt lat="45.87671007059906" lon="13.51476103075371"><ele>165.0</ele><time>2026-04-11T10:15:06.954Z</time></trkpt><trkpt lat="45.87681359255742" lon="13.514824781442018"><ele>166.0</ele><time>2026-04-11T10:15:08.954Z</time></trkpt><trkpt lat="45.876913100385195" lon="13.514880411826175"><ele>167.0</ele><time>2026-04-11T10:15:10.954Z</time></trkpt><trkpt lat="45.8770165328701" lon="13.514934807998785"><ele>168.0</ele><time>2026-04-11T10:15:12.955Z</time></trkpt><trkpt lat="45.87709232246223" lon="13.515005728798164"><ele>169.0</ele><time>2026-04-11T10:15:14.954Z</time></trkpt><trkpt lat="45.87715371884786" lon="13.51511649194648"><ele>169.0</ele><time>2026-04-11T10:15:16.954Z</time></trkpt><trkpt lat="45.877182109153665" lon="13.515225633004382"><ele>169.0</ele><time>2026-04-11T10:15:18.954Z</time></trkpt><trkpt lat="45.87721166276219" lon="13.515364028906056"><ele>169.0</ele><time>2026-04-11T10:15:20.954Z</time></trkpt><trkpt lat="45.87720470431053" lon="13.515486268097964"><ele>169.0</ele><time>2026-04-11T10:15:22.954Z</time></trkpt><trkpt lat="45.877185469159855" lon="13.515630653639851"><ele>169.0</ele><time>2026-04-11T10:15:24.954Z</time></trkpt><trkpt lat="45.8771936248573" lon="13.515749847004155"><ele>170.79999999999998</ele><time>2026-04-11T10:15:26.954Z</time></trkpt><trkpt lat="45.87728585534037" lon="13.515826620807632"><ele>172.6</ele><time>2026-04-11T10:15:28.954Z</time></trkpt><trkpt lat="45.87737788843189" lon="13.515816697442805"><ele>174.4</ele><time>2026-04-11T10:15:30.954Z</time></trkpt><trkpt lat="45.87749748697077" lon="13.51583801109594"><ele>176.2</ele><time>2026-04-11T10:15:32.954Z</time></trkpt><trkpt lat="45.87756452208203" lon="13.515847113654155"><ele>178.0</ele><time>2026-04-11T10:15:33.954Z</time></trkpt><trkpt lat="45.87763142520259" lon="13.51584439703723"><ele>178.0</ele><time>2026-04-11T10:15:34.954Z</time></trkpt><trkpt lat="45.877745302893466" lon="13.515855588046161"><ele>178.0</ele><time>2026-04-11T10:15:36.954Z</time></trkpt><trkpt lat="45.877846040552" lon="13.515844545354133"><ele>178.0</ele><time>2026-04-11T10:15:38.954Z</time></trkpt><trkpt lat="45.87794813342635" lon="13.51585555586128"><ele>178.0</ele><time>2026-04-11T10:15:40.954Z</time></trkpt><trkpt lat="45.878016663354884" lon="13.515853789297724"><ele>178.0</ele><time>2026-04-11T10:15:41.954Z</time></trkpt><trkpt lat="45.87813537353818" lon="13.51585140816621"><ele>178.0</ele><time>2026-04-11T10:15:43.954Z</time></trkpt><trkpt lat="45.87823244230285" lon="13.515901406826423"><ele>178.0</ele><time>2026-04-11T10:15:45.954Z</time></trkpt><trkpt lat="45.87829902170708" lon="13.516021817730907"><ele>178.0</ele><time>2026-04-11T10:15:47.954Z</time></trkpt><trkpt lat="45.87833348130223" lon="13.51614961933142"><ele>178.0</ele><time>2026-04-11T10:15:49.954Z</time></trkpt><trkpt lat="45.878298392687114" lon="13.516236235682456"><ele>178.0</ele><time>2026-04-11T10:16:08.953Z</time></trkpt><trkpt lat="45.87824033916585" lon="13.516129126627487"><ele>178.0</ele><time>2026-04-11T10:16:11.953Z</time></trkpt><trkpt lat="45.87816961524828" lon="13.516065983591325"><ele>178.0</ele><time>2026-04-11T10:16:13.953Z</time></trkpt><trkpt lat="45.8780807018372" lon="13.516096062107145"><ele>178.0</ele><time>2026-04-11T10:16:15.953Z</time></trkpt><trkpt lat="45.87798754058961" lon="13.516194987446928"><ele>178.0</ele><time>2026-04-11T10:16:17.953Z</time></trkpt><trkpt lat="45.87790788303126" lon="13.516350301595073"><ele>178.0</ele><time>2026-04-11T10:16:19.953Z</time></trkpt><trkpt lat="45.87787329603781" lon="13.516443096937483"><ele>179.16666666666669</ele><time>2026-04-11T10:16:20.953Z</time></trkpt><trkpt lat="45.87784500765619" lon="13.516539819666866"><ele>180.33333333333334</ele><time>2026-04-11T10:16:21.953Z</time></trkpt><trkpt lat="45.87781871415856" lon="13.516639998728959"><ele>181.5</ele><time>2026-04-11T10:16:22.953Z</time></trkpt><trkpt lat="45.87777740537657" lon="13.516761382899189"><ele>182.66666666666666</ele><time>2026-04-11T10:16:23.953Z</time></trkpt><trkpt lat="45.87773823385179" lon="13.516881183518306"><ele>183.83333333333331</ele><time>2026-04-11T10:16:24.953Z</time></trkpt><trkpt lat="45.87770458111371" lon="13.516976015667005"><ele>185.0</ele><time>2026-04-11T10:16:25.953Z</time></trkpt><trkpt lat="45.87767258198467" lon="13.517078735695153"><ele>185.16666666666666</ele><time>2026-04-11T10:16:26.953Z</time></trkpt><trkpt lat="45.87764338926601" lon="13.517181613925015"><ele>185.33333333333331</ele><time>2026-04-11T10:16:27.953Z</time></trkpt><trkpt lat="45.877614023223906" lon="13.517275919736816"><ele>185.5</ele><time>2026-04-11T10:16:28.953Z</time></trkpt><trkpt lat="45.87759653904369" lon="13.517370502791236"><ele>185.66666666666666</ele><time>2026-04-11T10:16:29.953Z</time></trkpt><trkpt lat="45.87761832179029" lon="13.517526415217576"><ele>185.83333333333334</ele><time>2026-04-11T10:16:31.953Z</time></trkpt><trkpt lat="45.87764803719332" lon="13.517628327748897"><ele>186.0</ele><time>2026-04-11T10:16:32.953Z</time></trkpt><trkpt lat="45.877657967724836" lon="13.51772664138689"><ele>185.8</ele><time>2026-04-11T10:16:33.953Z</time></trkpt><trkpt lat="45.8776279220386" lon="13.517913411366315"><ele>185.60000000000002</ele><time>2026-04-11T10:16:35.953Z</time></trkpt><trkpt lat="45.877611760106866" lon="13.518028726909638"><ele>185.4</ele><time>2026-04-11T10:16:36.953Z</time></trkpt><trkpt lat="45.87759587173969" lon="13.518189058449918"><ele>185.2</ele><time>2026-04-11T10:16:37.953Z</time></trkpt><trkpt lat="45.877581545870505" lon="13.518348740176506"><ele>185.0</ele><time>2026-04-11T10:16:38.953Z</time></trkpt><trkpt lat="45.87756938369278" lon="13.518506914554738"><ele>186.6</ele><time>2026-04-11T10:16:39.953Z</time></trkpt><trkpt lat="45.87755462108065" lon="13.518641412697002"><ele>188.2</ele><time>2026-04-11T10:16:40.953Z</time></trkpt><trkpt lat="45.877545891245646" lon="13.518802642562825"><ele>189.8</ele><time>2026-04-11T10:16:41.953Z</time></trkpt><trkpt lat="45.87752630794869" lon="13.518953315199001"><ele>191.4</ele><time>2026-04-11T10:16:42.953Z</time></trkpt><trkpt lat="45.87750656938402" lon="13.519124107646078"><ele>193.0</ele><time>2026-04-11T10:16:43.953Z</time></trkpt><trkpt lat="45.87748827177321" lon="13.51928417834072"><ele>193.2</ele><time>2026-04-11T10:16:44.953Z</time></trkpt><trkpt lat="45.877481743154696" lon="13.519428364932141"><ele>193.4</ele><time>2026-04-11T10:16:45.953Z</time></trkpt><trkpt lat="45.87747854970736" lon="13.519582004269317"><ele>193.6</ele><time>2026-04-11T10:16:46.953Z</time></trkpt><trkpt lat="45.877467089444366" lon="13.51971813548078"><ele>193.79999999999998</ele><time>2026-04-11T10:16:47.953Z</time></trkpt><trkpt lat="45.877462676503555" lon="13.519850846307403"><ele>194.0</ele><time>2026-04-11T10:16:48.953Z</time></trkpt><trkpt lat="45.877462222048536" lon="13.520003615231055"><ele>194.2</ele><time>2026-04-11T10:16:49.953Z</time></trkpt><trkpt lat="45.877472184860444" lon="13.52015239363355"><ele>194.39999999999998</ele><time>2026-04-11T10:16:50.953Z</time></trkpt><trkpt lat="45.877482095870334" lon="13.520304337529248"><ele>194.6</ele><time>2026-04-11T10:16:51.953Z</time></trkpt><trkpt lat="45.877492158252075" lon="13.520451429721852"><ele>194.8</ele><time>2026-04-11T10:16:52.952Z</time></trkpt><trkpt lat="45.87750562090176" lon="13.52061095999282"><ele>195.0</ele><time>2026-04-11T10:16:53.952Z</time></trkpt><trkpt lat="45.87751225160635" lon="13.520765959815533"><ele>194.4</ele><time>2026-04-11T10:16:54.952Z</time></trkpt><trkpt lat="45.87753219712659" lon="13.520915276426665"><ele>193.8</ele><time>2026-04-11T10:16:55.952Z</time></trkpt><trkpt lat="45.87754923834827" lon="13.521062216454656"><ele>193.2</ele><time>2026-04-11T10:16:56.952Z</time></trkpt><trkpt lat="45.877566279224254" lon="13.52121072293406"><ele>192.6</ele><time>2026-04-11T10:16:57.952Z</time></trkpt><trkpt lat="45.87757714774524" lon="13.521366133453332"><ele>192.0</ele><time>2026-04-11T10:16:58.952Z</time></trkpt><trkpt lat="45.87759247813773" lon="13.521513205695753"><ele>190.8</ele><time>2026-04-11T10:16:59.952Z</time></trkpt><trkpt lat="45.87761479882637" lon="13.521658876831578"><ele>189.6</ele><time>2026-04-11T10:17:00.952Z</time></trkpt><trkpt lat="45.87764919217891" lon="13.52179042872602"><ele>188.4</ele><time>2026-04-11T10:17:01.952Z</time></trkpt><trkpt lat="45.87769679148823" lon="13.52198585763318"><ele>187.20000000000002</ele><time>2026-04-11T10:17:03.952Z</time></trkpt><trkpt lat="45.877739421523266" lon="13.522060954793192"><ele>186.0</ele><time>2026-04-11T10:17:04.952Z</time></trkpt><trkpt lat="45.877790939266276" lon="13.522115815221023"><ele>186.0</ele><time>2026-04-11T10:17:05.952Z</time></trkpt><trkpt lat="45.87784319175176" lon="13.522172325931818"><ele>186.0</ele><time>2026-04-11T10:17:06.952Z</time></trkpt><trkpt lat="45.87788810989226" lon="13.522257507488545"><ele>186.0</ele><time>2026-04-11T10:17:07.952Z</time></trkpt><trkpt lat="45.87792946563922" lon="13.522373016790391"><ele>186.0</ele><time>2026-04-11T10:17:08.952Z</time></trkpt><trkpt lat="45.877969472504574" lon="13.522500127098532"><ele>186.0</ele><time>2026-04-11T10:17:09.952Z</time></trkpt><trkpt lat="45.87801654967852" lon="13.52259352691515"><ele>186.0</ele><time>2026-04-11T10:17:10.952Z</time></trkpt><trkpt lat="45.878097931841054" lon="13.522681752299551"><ele>186.0</ele><time>2026-04-11T10:17:12.952Z</time></trkpt><trkpt lat="45.87815765221959" lon="13.522756031244105"><ele>186.0</ele><time>2026-04-11T10:17:14.952Z</time></trkpt><trkpt lat="45.87820066168384" lon="13.522907828813482"><ele>186.0</ele><time>2026-04-11T10:17:16.952Z</time></trkpt><trkpt lat="45.87820400354345" lon="13.523020223935726"><ele>186.0</ele><time>2026-04-11T10:17:17.952Z</time></trkpt><trkpt lat="45.878200927119806" lon="13.523151240665712"><ele>186.0</ele><time>2026-04-11T10:17:18.952Z</time></trkpt><trkpt lat="45.87820166273307" lon="13.523265970684541"><ele>186.0</ele><time>2026-04-11T10:17:19.951Z</time></trkpt><trkpt lat="45.8782028386355" lon="13.523376521342437"><ele>185.8</ele><time>2026-04-11T10:17:20.951Z</time></trkpt><trkpt lat="45.87821229899823" lon="13.5234864101922"><ele>185.60000000000002</ele><time>2026-04-11T10:17:21.952Z</time></trkpt><trkpt lat="45.878210411068736" lon="13.52358891605347"><ele>185.4</ele><time>2026-04-11T10:17:22.952Z</time></trkpt><trkpt lat="45.878185171710236" lon="13.523702891728258"><ele>185.2</ele><time>2026-04-11T10:17:23.952Z</time></trkpt><trkpt lat="45.878151216352826" lon="13.52384493399095"><ele>185.0</ele><time>2026-04-11T10:17:24.952Z</time></trkpt><trkpt lat="45.878116245434754" lon="13.524009390321826"><ele>183.6</ele><time>2026-04-11T10:17:25.952Z</time></trkpt><trkpt lat="45.878079976966866" lon="13.524173713411546"><ele>182.2</ele><time>2026-04-11T10:17:26.952Z</time></trkpt><trkpt lat="45.878035497118056" lon="13.524309660030745"><ele>180.8</ele><time>2026-04-11T10:17:27.952Z</time></trkpt><trkpt lat="45.87798638310622" lon="13.524447364835988"><ele>179.4</ele><time>2026-04-11T10:17:28.951Z</time></trkpt><trkpt lat="45.87797032681469" lon="13.524571560430077"><ele>178.0</ele><time>2026-04-11T10:17:29.951Z</time></trkpt><trkpt lat="45.877947452524104" lon="13.52470338572743"><ele>176.5</ele><time>2026-04-11T10:17:30.951Z</time></trkpt><trkpt lat="45.877925204294385" lon="13.524838234129016"><ele>175.0</ele><time>2026-04-11T10:17:31.951Z</time></trkpt><trkpt lat="45.87790508326548" lon="13.524967873303108"><ele>173.5</ele><time>2026-04-11T10:17:32.951Z</time></trkpt><trkpt lat="45.877881669539754" lon="13.525088022101635"><ele>172.0</ele><time>2026-04-11T10:17:33.951Z</time></trkpt><trkpt lat="45.87786984511916" lon="13.525204256919833"><ele>170.5</ele><time>2026-04-11T10:17:34.951Z</time></trkpt><trkpt lat="45.877840127645165" lon="13.525325572128986"><ele>169.0</ele><time>2026-04-11T10:17:35.951Z</time></trkpt><trkpt lat="45.87780576664145" lon="13.525417587215195"><ele>169.5</ele><time>2026-04-11T10:17:36.951Z</time></trkpt><trkpt lat="45.877788988216146" lon="13.525521310624056"><ele>170.0</ele><time>2026-04-11T10:17:37.951Z</time></trkpt><trkpt lat="45.87776653666943" lon="13.525610750755757"><ele>170.5</ele><time>2026-04-11T10:17:38.951Z</time></trkpt><trkpt lat="45.87775036503221" lon="13.525719975276616"><ele>171.0</ele><time>2026-04-11T10:17:39.951Z</time></trkpt><trkpt lat="45.87774294852939" lon="13.525844465636066"><ele>171.5</ele><time>2026-04-11T10:17:41.951Z</time></trkpt><trkpt lat="45.87769270080677" lon="13.525947718763158"><ele>172.0</ele><time>2026-04-11T10:17:43.951Z</time></trkpt><trkpt lat="45.877588439301626" lon="13.526099901458126"><ele>172.0</ele><time>2026-04-11T10:17:45.951Z</time></trkpt><trkpt lat="45.877541972082625" lon="13.526185229162644"><ele>172.0</ele><time>2026-04-11T10:17:46.951Z</time></trkpt><trkpt lat="45.877485988893646" lon="13.526256064572628"><ele>172.0</ele><time>2026-04-11T10:17:47.951Z</time></trkpt><trkpt lat="45.87739129879036" lon="13.526370164217987"><ele>172.0</ele><time>2026-04-11T10:17:49.951Z</time></trkpt><trkpt lat="45.87733361191903" lon="13.526432944763291"><ele>172.0</ele><time>2026-04-11T10:17:50.951Z</time></trkpt><trkpt lat="45.8772712969572" lon="13.526516215759708"><ele>172.0</ele><time>2026-04-11T10:17:51.951Z</time></trkpt><trkpt lat="45.877224620688466" lon="13.52658965831905"><ele>170.16666666666669</ele><time>2026-04-11T10:17:52.951Z</time></trkpt><trkpt lat="45.87717699463721" lon="13.526732279500257"><ele>168.33333333333334</ele><time>2026-04-11T10:17:54.951Z</time></trkpt><trkpt lat="45.87716104430745" lon="13.526821344107141"><ele>166.5</ele><time>2026-04-11T10:17:55.951Z</time></trkpt><trkpt lat="45.87713875999822" lon="13.526931351870445"><ele>164.66666666666666</ele><time>2026-04-11T10:17:56.951Z</time></trkpt><trkpt lat="45.877114656129685" lon="13.527020508175728"><ele>162.83333333333331</ele><time>2026-04-11T10:17:57.951Z</time></trkpt><trkpt lat="45.87710468936433" lon="13.527115297745407"><ele>161.0</ele><time>2026-04-11T10:17:58.951Z</time></trkpt><trkpt lat="45.877072063460275" lon="13.527280370764817"><ele>159.0</ele><time>2026-04-11T10:18:00.951Z</time></trkpt><trkpt lat="45.877036020168696" lon="13.527401885652456"><ele>157.0</ele><time>2026-04-11T10:18:02.951Z</time></trkpt><trkpt lat="45.87700924554026" lon="13.527534159043086"><ele>155.0</ele><time>2026-04-11T10:18:05.95Z</time></trkpt><trkpt lat="45.877036992129575" lon="13.527629366104483"><ele>153.0</ele><time>2026-04-11T10:18:09.95Z</time></trkpt><trkpt lat="45.877147038292755" lon="13.527392962342477"><ele>153.0</ele><time>2026-04-11T10:18:44.95Z</time></trkpt><trkpt lat="45.87718621567342" lon="13.527304593533971"><ele>153.0</ele><time>2026-04-11T10:18:45.95Z</time></trkpt><trkpt lat="45.8772295878094" lon="13.527214799992976"><ele>153.0</ele><time>2026-04-11T10:18:46.95Z</time></trkpt><trkpt lat="45.87731496997879" lon="13.527130913918468"><ele>153.0</ele><time>2026-04-11T10:18:47.95Z</time></trkpt><trkpt lat="45.87741608403999" lon="13.527052026257183"><ele>153.0</ele><time>2026-04-11T10:18:48.95Z</time></trkpt><trkpt lat="45.87752931444103" lon="13.526975593429135"><ele>152.6</ele><time>2026-04-11T10:18:49.95Z</time></trkpt><trkpt lat="45.877638175019946" lon="13.526911190073221"><ele>152.20000000000002</ele><time>2026-04-11T10:18:50.95Z</time></trkpt><trkpt lat="45.87772995110975" lon="13.526835406647367"><ele>151.8</ele><time>2026-04-11T10:18:51.95Z</time></trkpt><trkpt lat="45.877815086238506" lon="13.526811032552557"><ele>151.4</ele><time>2026-04-11T10:18:52.949Z</time></trkpt><trkpt lat="45.87790458089441" lon="13.526747535892358"><ele>151.0</ele><time>2026-04-11T10:18:53.949Z</time></trkpt><trkpt lat="45.87798728818051" lon="13.526684667124176"><ele>151.0</ele><time>2026-04-11T10:18:54.949Z</time></trkpt><trkpt lat="45.87808568928206" lon="13.526634166754183"><ele>151.0</ele><time>2026-04-11T10:18:55.949Z</time></trkpt><trkpt lat="45.87815171238693" lon="13.526503644221131"><ele>151.0</ele><time>2026-04-11T10:18:56.949Z</time></trkpt><trkpt lat="45.87823080524069" lon="13.526407517918534"><ele>151.0</ele><time>2026-04-11T10:18:57.949Z</time></trkpt><trkpt lat="45.87829362985605" lon="13.526293761383018"><ele>151.0</ele><time>2026-04-11T10:18:58.949Z</time></trkpt><trkpt lat="45.87833794193566" lon="13.526212610910683"><ele>150.0</ele><time>2026-04-11T10:18:59.949Z</time></trkpt><trkpt lat="45.87839992172964" lon="13.526094197395906"><ele>149.0</ele><time>2026-04-11T10:19:01.949Z</time></trkpt><trkpt lat="45.87845828738655" lon="13.52599031622632"><ele>148.0</ele><time>2026-04-11T10:19:03.949Z</time></trkpt><trkpt lat="45.87849266099327" lon="13.525909427950246"><ele>147.0</ele><time>2026-04-11T10:19:06.949Z</time></trkpt><trkpt lat="45.87853713140662" lon="13.52579700580524"><ele>146.0</ele><time>2026-04-11T10:19:35.949Z</time></trkpt><trkpt lat="45.878617613651166" lon="13.525657971997404"><ele>146.0</ele><time>2026-04-11T10:19:37.949Z</time></trkpt><trkpt lat="45.87867361300244" lon="13.525554300675989"><ele>146.0</ele><time>2026-04-11T10:19:38.949Z</time></trkpt><trkpt lat="45.87874629969796" lon="13.525472021630476"><ele>146.0</ele><time>2026-04-11T10:19:39.949Z</time></trkpt><trkpt lat="45.87879677163366" lon="13.525361313338538"><ele>146.0</ele><time>2026-04-11T10:19:40.949Z</time></trkpt><trkpt lat="45.87887029928401" lon="13.525246023108927"><ele>146.0</ele><time>2026-04-11T10:19:41.949Z</time></trkpt><trkpt lat="45.878946211626285" lon="13.525123363904372"><ele>147.75</ele><time>2026-04-11T10:19:42.949Z</time></trkpt><trkpt lat="45.879020547239655" lon="13.525004983726909"><ele>149.5</ele><time>2026-04-11T10:19:43.949Z</time></trkpt><trkpt lat="45.879095385961506" lon="13.524885235271205"><ele>151.25</ele><time>2026-04-11T10:19:44.949Z</time></trkpt><trkpt lat="45.87917670412745" lon="13.524770002756355"><ele>153.0</ele><time>2026-04-11T10:19:45.949Z</time></trkpt><trkpt lat="45.879259633203674" lon="13.524658208507967"><ele>151.0</ele><time>2026-04-11T10:19:46.949Z</time></trkpt><trkpt lat="45.87934467280431" lon="13.524560227027818"><ele>149.0</ele><time>2026-04-11T10:19:47.949Z</time></trkpt><trkpt lat="45.879437747766104" lon="13.524457756436886"><ele>147.0</ele><time>2026-04-11T10:19:48.949Z</time></trkpt><trkpt lat="45.87951734289431" lon="13.524371258794643"><ele>145.0</ele><time>2026-04-11T10:19:49.949Z</time></trkpt><trkpt lat="45.87963302928034" lon="13.524299123903125"><ele>145.0</ele><time>2026-04-11T10:19:50.949Z</time></trkpt><trkpt lat="45.879743662893695" lon="13.524223898626447"><ele>145.0</ele><time>2026-04-11T10:19:51.949Z</time></trkpt><trkpt lat="45.87985193615502" lon="13.524147493014498"><ele>145.0</ele><time>2026-04-11T10:19:52.949Z</time></trkpt><trkpt lat="45.87996054633173" lon="13.52406808674351"><ele>145.0</ele><time>2026-04-11T10:19:53.949Z</time></trkpt><trkpt lat="45.880062591482165" lon="13.523988838038527"><ele>144.75</ele><time>2026-04-11T10:19:54.949Z</time></trkpt><trkpt lat="45.88016873016695" lon="13.52390961423405"><ele>144.5</ele><time>2026-04-11T10:19:55.949Z</time></trkpt><trkpt lat="45.88027603036922" lon="13.523837542148586"><ele>144.25</ele><time>2026-04-11T10:19:56.949Z</time></trkpt><trkpt lat="45.880380556739574" lon="13.523757515127384"><ele>144.0</ele><time>2026-04-11T10:19:57.949Z</time></trkpt><trkpt lat="45.880474131835754" lon="13.52367651866307"><ele>144.0</ele><time>2026-04-11T10:19:58.949Z</time></trkpt><trkpt lat="45.88056908635239" lon="13.523585341305557"><ele>144.0</ele><time>2026-04-11T10:19:59.949Z</time></trkpt><trkpt lat="45.880659025934115" lon="13.523489860050205"><ele>144.0</ele><time>2026-04-11T10:20:00.949Z</time></trkpt><trkpt lat="45.88075972568974" lon="13.52337709165075"><ele>144.0</ele><time>2026-04-11T10:20:01.949Z</time></trkpt><trkpt lat="45.88084772481184" lon="13.523256941276903"><ele>143.66666666666666</ele><time>2026-04-11T10:20:02.949Z</time></trkpt><trkpt lat="45.88101151955712" lon="13.523035027029628"><ele>143.33333333333331</ele><time>2026-04-11T10:20:04.949Z</time></trkpt><trkpt lat="45.88109577898141" lon="13.522929086078735"><ele>143.0</ele><time>2026-04-11T10:20:05.949Z</time></trkpt><trkpt lat="45.88117978591167" lon="13.522819394590236"><ele>142.25</ele><time>2026-04-11T10:20:06.949Z</time></trkpt><trkpt lat="45.8812604882158" lon="13.522716643560914"><ele>141.5</ele><time>2026-04-11T10:20:07.949Z</time></trkpt><trkpt lat="45.881350576868066" lon="13.52260494309788"><ele>140.75</ele><time>2026-04-11T10:20:08.949Z</time></trkpt><trkpt lat="45.881440121036974" lon="13.52250617236744"><ele>140.0</ele><time>2026-04-11T10:20:09.949Z</time></trkpt><trkpt lat="45.88152797066943" lon="13.522411029748918"><ele>140.0</ele><time>2026-04-11T10:20:10.949Z</time></trkpt><trkpt lat="45.881620403990524" lon="13.522317427097505"><ele>140.0</ele><time>2026-04-11T10:20:11.949Z</time></trkpt><trkpt lat="45.881715914637354" lon="13.522233305770152"><ele>140.0</ele><time>2026-04-11T10:20:12.949Z</time></trkpt><trkpt lat="45.881807984835866" lon="13.522152978036987"><ele>140.0</ele><time>2026-04-11T10:20:13.949Z</time></trkpt><trkpt lat="45.88190189756534" lon="13.52206425164482"><ele>140.0</ele><time>2026-04-11T10:20:14.949Z</time></trkpt><trkpt lat="45.88200167279941" lon="13.521980858859378"><ele>137.5</ele><time>2026-04-11T10:20:15.949Z</time></trkpt><trkpt lat="45.882103277208216" lon="13.521887500825116"><ele>135.0</ele><time>2026-04-11T10:20:16.949Z</time></trkpt><trkpt lat="45.88220175359013" lon="13.521804053101217"><ele>132.5</ele><time>2026-04-11T10:20:17.948Z</time></trkpt><trkpt lat="45.88230718104016" lon="13.521738208692273"><ele>130.0</ele><time>2026-04-11T10:20:18.948Z</time></trkpt><trkpt lat="45.8824029699628" lon="13.521652625086231"><ele>130.0</ele><time>2026-04-11T10:20:19.948Z</time></trkpt><trkpt lat="45.88250753158869" lon="13.521573488634827"><ele>130.0</ele><time>2026-04-11T10:20:20.948Z</time></trkpt><trkpt lat="45.88261951855194" lon="13.521510531783331"><ele>130.0</ele><time>2026-04-11T10:20:21.948Z</time></trkpt><trkpt lat="45.882743198548496" lon="13.52146109190086"><ele>130.0</ele><time>2026-04-11T10:20:22.948Z</time></trkpt><trkpt lat="45.882867614150676" lon="13.521409469619181"><ele>129.25</ele><time>2026-04-11T10:20:23.948Z</time></trkpt><trkpt lat="45.88299728832078" lon="13.521359532815742"><ele>128.5</ele><time>2026-04-11T10:20:24.948Z</time></trkpt><trkpt lat="45.88310778223405" lon="13.521296813346611"><ele>127.75</ele><time>2026-04-11T10:20:25.948Z</time></trkpt><trkpt lat="45.883230230308634" lon="13.521229327715982"><ele>127.0</ele><time>2026-04-11T10:20:26.948Z</time></trkpt><trkpt lat="45.88335537656796" lon="13.521172881892143"><ele>122.8</ele><time>2026-04-11T10:20:27.948Z</time></trkpt><trkpt lat="45.883472473144316" lon="13.521115323296652"><ele>118.6</ele><time>2026-04-11T10:20:28.948Z</time></trkpt><trkpt lat="45.883567162031206" lon="13.521067113679157"><ele>114.39999999999999</ele><time>2026-04-11T10:20:29.948Z</time></trkpt><trkpt lat="45.883662431050574" lon="13.521013249486327"><ele>110.19999999999999</ele><time>2026-04-11T10:20:30.948Z</time></trkpt><trkpt lat="45.883749313127666" lon="13.520969923009874"><ele>106.0</ele><time>2026-04-11T10:20:31.948Z</time></trkpt><trkpt lat="45.8838542025385" lon="13.520914979845472"><ele>106.0</ele><time>2026-04-11T10:20:32.948Z</time></trkpt><trkpt lat="45.883951230272864" lon="13.520851684500657"><ele>106.0</ele><time>2026-04-11T10:20:33.948Z</time></trkpt><trkpt lat="45.88403766521167" lon="13.520801948528536"><ele>106.0</ele><time>2026-04-11T10:20:34.948Z</time></trkpt><trkpt lat="45.884121253479016" lon="13.52076709692825"><ele>106.0</ele><time>2026-04-11T10:20:35.948Z</time></trkpt><trkpt lat="45.88420258185217" lon="13.520710099204171"><ele>106.0</ele><time>2026-04-11T10:20:36.948Z</time></trkpt><trkpt lat="45.88427544629047" lon="13.52067033292809"><ele>105.00000000000001</ele><time>2026-04-11T10:20:37.948Z</time></trkpt><trkpt lat="45.88435151655661" lon="13.520633724554326"><ele>104.0</ele><time>2026-04-11T10:20:38.948Z</time></trkpt><trkpt lat="45.88441811683395" lon="13.520597032169748"><ele>103.0</ele><time>2026-04-11T10:20:39.948Z</time></trkpt><trkpt lat="45.884474211540095" lon="13.520543353917626"><ele>102.0</ele><time>2026-04-11T10:20:40.948Z</time></trkpt><trkpt lat="45.88458558491015" lon="13.520453666494506"><ele>101.00000000000001</ele><time>2026-04-11T10:20:42.948Z</time></trkpt><trkpt lat="45.884652086929" lon="13.520391912215564"><ele>100.0</ele><time>2026-04-11T10:20:43.948Z</time></trkpt><trkpt lat="45.88470908154198" lon="13.520335983643893"><ele>98.33333333333334</ele><time>2026-04-11T10:20:44.948Z</time></trkpt><trkpt lat="45.8847739548089" lon="13.520278351471976"><ele>96.66666666666667</ele><time>2026-04-11T10:20:45.948Z</time></trkpt><trkpt lat="45.88484780593251" lon="13.520215604673776"><ele>95.0</ele><time>2026-04-11T10:20:46.948Z</time></trkpt><trkpt lat="45.884934076553286" lon="13.520166198924777"><ele>93.33333333333334</ele><time>2026-04-11T10:20:47.948Z</time></trkpt><trkpt lat="45.885010263802535" lon="13.52010090064973"><ele>91.66666666666667</ele><time>2026-04-11T10:20:48.948Z</time></trkpt><trkpt lat="45.88508493029277" lon="13.520030932071373"><ele>90.0</ele><time>2026-04-11T10:20:49.948Z</time></trkpt><trkpt lat="45.88516996858179" lon="13.519959313962735"><ele>88.2</ele><time>2026-04-11T10:20:50.948Z</time></trkpt><trkpt lat="45.88524240761565" lon="13.519897968464264"><ele>86.4</ele><time>2026-04-11T10:20:51.948Z</time></trkpt><trkpt lat="45.885313951004576" lon="13.519835292523869"><ele>84.6</ele><time>2026-04-11T10:20:52.948Z</time></trkpt><trkpt lat="45.885402199693644" lon="13.519770909249173"><ele>82.8</ele><time>2026-04-11T10:20:53.948Z</time></trkpt><trkpt lat="45.885481367752085" lon="13.51970555323498"><ele>81.0</ele><time>2026-04-11T10:20:54.948Z</time></trkpt><trkpt lat="45.88556194156929" lon="13.519641177747479"><ele>81.0</ele><time>2026-04-11T10:20:55.948Z</time></trkpt><trkpt lat="45.88564245040012" lon="13.519594092177858"><ele>81.0</ele><time>2026-04-11T10:20:56.948Z</time></trkpt><trkpt lat="45.88572649138409" lon="13.519520770511791"><ele>81.0</ele><time>2026-04-11T10:20:57.948Z</time></trkpt><trkpt lat="45.885790431393325" lon="13.519453144649349"><ele>81.0</ele><time>2026-04-11T10:20:58.948Z</time></trkpt><trkpt lat="45.885873611571554" lon="13.519384764711395"><ele>81.0</ele><time>2026-04-11T10:20:59.948Z</time></trkpt><trkpt lat="45.88593447270016" lon="13.519299049771442"><ele>81.0</ele><time>2026-04-11T10:21:00.948Z</time></trkpt><trkpt lat="45.88597128240045" lon="13.519202184836344"><ele>79.83333333333333</ele><time>2026-04-11T10:21:01.948Z</time></trkpt><trkpt lat="45.885924147002" lon="13.51903667884777"><ele>78.66666666666667</ele><time>2026-04-11T10:21:03.948Z</time></trkpt><trkpt lat="45.88586216595919" lon="13.518993119117123"><ele>77.5</ele><time>2026-04-11T10:21:06.947Z</time></trkpt><trkpt lat="45.88578801185698" lon="13.518963728372663"><ele>76.33333333333334</ele><time>2026-04-11T10:21:53.946Z</time></trkpt><trkpt lat="45.88572975431668" lon="13.519008051499704"><ele>75.16666666666667</ele><time>2026-04-11T10:21:57.946Z</time></trkpt><trkpt lat="45.88579101768593" lon="13.519036267135617"><ele>74.0</ele><time>2026-04-11T10:21:59.946Z</time></trkpt><trkpt lat="45.885898093973566" lon="13.519113697886912"><ele>74.0</ele><time>2026-04-11T10:22:01.946Z</time></trkpt><trkpt lat="45.88591083465926" lon="13.519275663205581"><ele>74.0</ele><time>2026-04-11T10:22:03.946Z</time></trkpt><trkpt lat="45.88579345592082" lon="13.51942236224337"><ele>74.0</ele><time>2026-04-11T10:22:05.946Z</time></trkpt><trkpt lat="45.88570244012844" lon="13.519504362535091"><ele>74.0</ele><time>2026-04-11T10:22:06.946Z</time></trkpt><trkpt lat="45.88558516288043" lon="13.519594962929853"><ele>75.4</ele><time>2026-04-11T10:22:07.946Z</time></trkpt><trkpt lat="45.88547524556366" lon="13.519678614516604"><ele>76.80000000000001</ele><time>2026-04-11T10:22:08.946Z</time></trkpt><trkpt lat="45.88538311432879" lon="13.519751247985553"><ele>78.19999999999999</ele><time>2026-04-11T10:22:09.946Z</time></trkpt><trkpt lat="45.88529048297384" lon="13.519827044136896"><ele>79.6</ele><time>2026-04-11T10:22:10.946Z</time></trkpt><trkpt lat="45.88519305471406" lon="13.519891714466068"><ele>81.0</ele><time>2026-04-11T10:22:11.946Z</time></trkpt><trkpt lat="45.88509079517611" lon="13.519984948872834"><ele>83.25</ele><time>2026-04-11T10:22:12.946Z</time></trkpt><trkpt lat="45.88498172685784" lon="13.520076792433636"><ele>85.5</ele><time>2026-04-11T10:22:13.946Z</time></trkpt><trkpt lat="45.88485808113146" lon="13.520185733696813"><ele>87.75</ele><time>2026-04-11T10:22:14.946Z</time></trkpt><trkpt lat="45.88472490714301" lon="13.520302964585586"><ele>90.0</ele><time>2026-04-11T10:22:15.946Z</time></trkpt><trkpt lat="45.88459296367325" lon="13.520414959676426"><ele>92.5</ele><time>2026-04-11T10:22:16.946Z</time></trkpt><trkpt lat="45.88447547230038" lon="13.520513245834751"><ele>95.0</ele><time>2026-04-11T10:22:17.946Z</time></trkpt><trkpt lat="45.88436528742627" lon="13.520588001521219"><ele>97.5</ele><time>2026-04-11T10:22:18.946Z</time></trkpt><trkpt lat="45.88426573629428" lon="13.520643043513505"><ele>100.0</ele><time>2026-04-11T10:22:19.946Z</time></trkpt><trkpt lat="45.884168076202826" lon="13.520693095879563"><ele>101.5</ele><time>2026-04-11T10:22:20.946Z</time></trkpt><trkpt lat="45.884058225315066" lon="13.520739264013985"><ele>103.0</ele><time>2026-04-11T10:22:21.946Z</time></trkpt><trkpt lat="45.883943449743285" lon="13.52081804129552"><ele>104.5</ele><time>2026-04-11T10:22:22.946Z</time></trkpt><trkpt lat="45.883831293267924" lon="13.520880520461251"><ele>106.0</ele><time>2026-04-11T10:22:23.946Z</time></trkpt><trkpt lat="45.8837121313359" lon="13.520937591156564"><ele>106.0</ele><time>2026-04-11T10:22:24.946Z</time></trkpt><trkpt lat="45.88359944840272" lon="13.521008854091189"><ele>106.0</ele><time>2026-04-11T10:22:25.946Z</time></trkpt><trkpt lat="45.883492436406506" lon="13.521073448365179"><ele>106.0</ele><time>2026-04-11T10:22:26.946Z</time></trkpt><trkpt lat="45.88336916276508" lon="13.521141714760887"><ele>106.0</ele><time>2026-04-11T10:22:27.946Z</time></trkpt><trkpt lat="45.883248192786354" lon="13.521198559047484"><ele>111.25</ele><time>2026-04-11T10:22:28.946Z</time></trkpt><trkpt lat="45.883122899866095" lon="13.521251849063265"><ele>116.5</ele><time>2026-04-11T10:22:29.946Z</time></trkpt><trkpt lat="45.88299630166916" lon="13.521308990723377"><ele>121.75</ele><time>2026-04-11T10:22:30.946Z</time></trkpt><trkpt lat="45.882868319885034" lon="13.52136319549072"><ele>127.0</ele><time>2026-04-11T10:22:31.946Z</time></trkpt><trkpt lat="45.88274544360861" lon="13.521412913387397"><ele>127.0</ele><time>2026-04-11T10:22:32.946Z</time></trkpt><trkpt lat="45.882626922586624" lon="13.521466344028504"><ele>127.0</ele><time>2026-04-11T10:22:33.946Z</time></trkpt><trkpt lat="45.88250474679419" lon="13.521524840070896"><ele>127.0</ele><time>2026-04-11T10:22:34.946Z</time></trkpt><trkpt lat="45.88239267893226" lon="13.521605136294072"><ele>127.0</ele><time>2026-04-11T10:22:35.945Z</time></trkpt><trkpt lat="45.88228353188514" lon="13.521691254258478"><ele>128.0</ele><time>2026-04-11T10:22:36.945Z</time></trkpt><trkpt lat="45.88216894892179" lon="13.521802458233434"><ele>129.0</ele><time>2026-04-11T10:22:37.945Z</time></trkpt><trkpt lat="45.88203889331111" lon="13.521918447481468"><ele>130.0</ele><time>2026-04-11T10:22:38.945Z</time></trkpt><trkpt lat="45.881901516556674" lon="13.52203901680773"><ele>132.5</ele><time>2026-04-11T10:22:39.945Z</time></trkpt><trkpt lat="45.88176192871941" lon="13.522166964913149"><ele>135.0</ele><time>2026-04-11T10:22:40.945Z</time></trkpt><trkpt lat="45.88164426191688" lon="13.522264030188875"><ele>137.5</ele><time>2026-04-11T10:22:41.945Z</time></trkpt><trkpt lat="45.881550647058155" lon="13.522350273397363"><ele>140.0</ele><time>2026-04-11T10:22:42.945Z</time></trkpt><trkpt lat="45.88145835134758" lon="13.522427517090557"><ele>140.0</ele><time>2026-04-11T10:22:43.945Z</time></trkpt><trkpt lat="45.881374658927115" lon="13.52251526061481"><ele>140.0</ele><time>2026-04-11T10:22:44.945Z</time></trkpt><trkpt lat="45.88128896263306" lon="13.522623397857444"><ele>140.0</ele><time>2026-04-11T10:22:45.945Z</time></trkpt><trkpt lat="45.88120760028089" lon="13.522730222829633"><ele>140.0</ele><time>2026-04-11T10:22:46.945Z</time></trkpt><trkpt lat="45.88114239471087" lon="13.522817178633359"><ele>140.0</ele><time>2026-04-11T10:22:47.945Z</time></trkpt><trkpt lat="45.88109035965326" lon="13.522906951597545"><ele>140.6</ele><time>2026-04-11T10:22:49.945Z</time></trkpt><trkpt lat="45.88116163752514" lon="13.523095570164251"><ele>141.2</ele><time>2026-04-11T10:22:54.945Z</time></trkpt><trkpt lat="45.88118073243343" lon="13.523193545333967"><ele>141.8</ele><time>2026-04-11T10:22:57.945Z</time></trkpt><trkpt lat="45.88119651200831" lon="13.523302382968893"><ele>142.4</ele><time>2026-04-11T10:23:00.945Z</time></trkpt><trkpt lat="45.88120907072989" lon="13.523425292315885"><ele>143.0</ele><time>2026-04-11T10:23:03.945Z</time></trkpt><trkpt lat="45.88121325176096" lon="13.523524972955911"><ele>143.0</ele><time>2026-04-11T10:23:05.945Z</time></trkpt><trkpt lat="45.881208577134174" lon="13.523617256423952"><ele>143.0</ele><time>2026-04-11T10:23:07.945Z</time></trkpt><trkpt lat="45.88121409616778" lon="13.523708449436404"><ele>143.0</ele><time>2026-04-11T10:23:09.945Z</time></trkpt><trkpt lat="45.88121601192748" lon="13.523809690595769"><ele>143.0</ele><time>2026-04-11T10:23:11.945Z</time></trkpt><trkpt lat="45.88125783924504" lon="13.523931608963302"><ele>143.0</ele><time>2026-04-11T10:23:14.945Z</time></trkpt><trkpt lat="45.88132227246776" lon="13.52399495406466"><ele>143.0</ele><time>2026-04-11T10:23:17.945Z</time></trkpt><trkpt lat="45.88139353025553" lon="13.524049479425033"><ele>142.6</ele><time>2026-04-11T10:23:30.944Z</time></trkpt><trkpt lat="45.88149397908475" lon="13.52412037448044"><ele>142.20000000000002</ele><time>2026-04-11T10:23:32.945Z</time></trkpt><trkpt lat="45.88160264610618" lon="13.524225711170565"><ele>141.8</ele><time>2026-04-11T10:23:34.945Z</time></trkpt><trkpt lat="45.88167435627092" lon="13.524260070563388"><ele>141.4</ele><time>2026-04-11T10:23:35.945Z</time></trkpt><trkpt lat="45.88174100677389" lon="13.524308619694127"><ele>141.0</ele><time>2026-04-11T10:23:36.945Z</time></trkpt><trkpt lat="45.88181314845995" lon="13.524345389729497"><ele>141.0</ele><time>2026-04-11T10:23:37.945Z</time></trkpt><trkpt lat="45.88188405075804" lon="13.524379325627873"><ele>141.0</ele><time>2026-04-11T10:23:38.945Z</time></trkpt><trkpt lat="45.88195162870098" lon="13.524398746067956"><ele>141.0</ele><time>2026-04-11T10:23:39.945Z</time></trkpt><trkpt lat="45.882022370042456" lon="13.52441344730355"><ele>141.0</ele><time>2026-04-11T10:23:40.945Z</time></trkpt><trkpt lat="45.882095887307564" lon="13.524438705991702"><ele>141.0</ele><time>2026-04-11T10:23:41.945Z</time></trkpt><trkpt lat="45.88216809727571" lon="13.52443144382501"><ele>141.0</ele><time>2026-04-11T10:23:42.944Z</time></trkpt><trkpt lat="45.88225213894602" lon="13.52443180092003"><ele>141.0</ele><time>2026-04-11T10:23:43.944Z</time></trkpt><trkpt lat="45.882334151114414" lon="13.52443333789024"><ele>141.0</ele><time>2026-04-11T10:23:44.945Z</time></trkpt><trkpt lat="45.88241442038031" lon="13.524429407872077"><ele>141.0</ele><time>2026-04-11T10:23:45.944Z</time></trkpt><trkpt lat="45.88249816321671" lon="13.524419630889621"><ele>141.0</ele><time>2026-04-11T10:23:46.944Z</time></trkpt><trkpt lat="45.882565722250455" lon="13.52442591342807"><ele>141.0</ele><time>2026-04-11T10:23:47.944Z</time></trkpt><trkpt lat="45.8826393606988" lon="13.524426854764647"><ele>141.0</ele><time>2026-04-11T10:23:48.944Z</time></trkpt><trkpt lat="45.88270716416668" lon="13.524435312421328"><ele>141.0</ele><time>2026-04-11T10:23:49.944Z</time></trkpt><trkpt lat="45.88277557193611" lon="13.52444473105708"><ele>141.0</ele><time>2026-04-11T10:23:50.944Z</time></trkpt><trkpt lat="45.88286744655272" lon="13.524441468063051"><ele>140.5</ele><time>2026-04-11T10:23:51.944Z</time></trkpt><trkpt lat="45.882954891780024" lon="13.52444555188102"><ele>140.0</ele><time>2026-04-11T10:23:52.944Z</time></trkpt><trkpt lat="45.883034224753914" lon="13.524438176495632"><ele>139.5</ele><time>2026-04-11T10:23:53.944Z</time></trkpt><trkpt lat="45.88311845930033" lon="13.524447227771498"><ele>139.0</ele><time>2026-04-11T10:23:54.944Z</time></trkpt><trkpt lat="45.8832113569755" lon="13.524440291818603"><ele>138.5</ele><time>2026-04-11T10:23:55.944Z</time></trkpt><trkpt lat="45.88329556391555" lon="13.524419428102151"><ele>138.0</ele><time>2026-04-11T10:23:56.944Z</time></trkpt><trkpt lat="45.883379077799866" lon="13.524387551072133"><ele>137.66666666666666</ele><time>2026-04-11T10:23:57.944Z</time></trkpt><trkpt lat="45.8834573307472" lon="13.5243523349794"><ele>137.33333333333334</ele><time>2026-04-11T10:23:58.944Z</time></trkpt><trkpt lat="45.883541764499356" lon="13.524314733349934"><ele>137.0</ele><time>2026-04-11T10:23:59.944Z</time></trkpt><trkpt lat="45.88361939711506" lon="13.524299688741747"><ele>136.66666666666669</ele><time>2026-04-11T10:24:00.944Z</time></trkpt><trkpt lat="45.88370573992508" lon="13.524292070825787"><ele>136.33333333333334</ele><time>2026-04-11T10:24:01.944Z</time></trkpt><trkpt lat="45.88378184916591" lon="13.52431759852127"><ele>136.0</ele><time>2026-04-11T10:24:02.944Z</time></trkpt><trkpt lat="45.883858612971466" lon="13.524341674127292"><ele>136.0</ele><time>2026-04-11T10:24:03.944Z</time></trkpt><trkpt lat="45.88395656574838" lon="13.524382681043289"><ele>136.0</ele><time>2026-04-11T10:24:04.944Z</time></trkpt><trkpt lat="45.88404725928755" lon="13.524409098424067"><ele>136.0</ele><time>2026-04-11T10:24:05.944Z</time></trkpt><trkpt lat="45.88413640306225" lon="13.524411882211137"><ele>136.0</ele><time>2026-04-11T10:24:06.944Z</time></trkpt><trkpt lat="45.88421384844394" lon="13.524418595558583"><ele>136.0</ele><time>2026-04-11T10:24:07.944Z</time></trkpt><trkpt lat="45.884301749467504" lon="13.524433159268693"><ele>134.4</ele><time>2026-04-11T10:24:08.944Z</time></trkpt><trkpt lat="45.88437269318951" lon="13.524455128247757"><ele>132.8</ele><time>2026-04-11T10:24:09.944Z</time></trkpt><trkpt lat="45.88445571410432" lon="13.524498263135527"><ele>131.20000000000002</ele><time>2026-04-11T10:24:10.944Z</time></trkpt><trkpt lat="45.884555294783574" lon="13.524534121795302"><ele>129.6</ele><time>2026-04-11T10:24:11.944Z</time></trkpt><trkpt lat="45.88465315586012" lon="13.524549789694545"><ele>128.0</ele><time>2026-04-11T10:24:12.944Z</time></trkpt><trkpt lat="45.88474383197301" lon="13.524564730381897"><ele>127.33333333333333</ele><time>2026-04-11T10:24:13.944Z</time></trkpt><trkpt lat="45.88481005908906" lon="13.524582718415944"><ele>126.66666666666666</ele><time>2026-04-11T10:24:14.944Z</time></trkpt><trkpt lat="45.88487806771283" lon="13.524615009373976"><ele>126.0</ele><time>2026-04-11T10:24:15.944Z</time></trkpt><trkpt lat="45.88493809115141" lon="13.52466811411922"><ele>125.33333333333334</ele><time>2026-04-11T10:24:16.944Z</time></trkpt><trkpt lat="45.884990524353064" lon="13.524733051409862"><ele>124.66666666666667</ele><time>2026-04-11T10:24:17.944Z</time></trkpt><trkpt lat="45.88504554581998" lon="13.52480747840815"><ele>124.0</ele><time>2026-04-11T10:24:18.944Z</time></trkpt><trkpt lat="45.88511164466104" lon="13.524923338480177"><ele>123.6</ele><time>2026-04-11T10:24:20.944Z</time></trkpt><trkpt lat="45.8851676062259" lon="13.525006456322952"><ele>123.2</ele><time>2026-04-11T10:24:22.943Z</time></trkpt><trkpt lat="45.88521650459458" lon="13.525066557037844"><ele>122.79999999999998</ele><time>2026-04-11T10:24:28.943Z</time></trkpt><trkpt lat="45.885379831434705" lon="13.525049710810034"><ele>122.39999999999999</ele><time>2026-04-11T10:24:36.943Z</time></trkpt><trkpt lat="45.88544117000023" lon="13.524969513320112"><ele>122.0</ele><time>2026-04-11T10:24:38.943Z</time></trkpt><trkpt lat="45.88551265110078" lon="13.524953131378108"><ele>121.99999999999999</ele><time>2026-04-11T10:24:40.943Z</time></trkpt><trkpt lat="45.885594024092505" lon="13.524973651299794"><ele>122.0</ele><time>2026-04-11T10:24:43.943Z</time></trkpt><trkpt lat="45.885658940667355" lon="13.524995245490436"><ele>122.0</ele><time>2026-04-11T10:24:45.943Z</time></trkpt><trkpt lat="45.885729278906574" lon="13.525047211220391"><ele>122.0</ele><time>2026-04-11T10:24:47.943Z</time></trkpt><trkpt lat="45.88579094705986" lon="13.525097568369107"><ele>121.99999999999999</ele><time>2026-04-11T10:24:48.943Z</time></trkpt><trkpt lat="45.88588710403543" lon="13.525196769989376"><ele>122.0</ele><time>2026-04-11T10:24:50.943Z</time></trkpt><trkpt lat="45.885940753817046" lon="13.525282687184674"><ele>122.33333333333333</ele><time>2026-04-11T10:24:51.943Z</time></trkpt><trkpt lat="45.886002807504575" lon="13.525362779634351"><ele>122.66666666666666</ele><time>2026-04-11T10:24:52.943Z</time></trkpt><trkpt lat="45.88606449964296" lon="13.525442583965791"><ele>123.0</ele><time>2026-04-11T10:24:53.943Z</time></trkpt><trkpt lat="45.88613638728045" lon="13.525533078171343"><ele>123.33333333333334</ele><time>2026-04-11T10:24:54.943Z</time></trkpt><trkpt lat="45.886192751511274" lon="13.525611999993894"><ele>123.66666666666667</ele><time>2026-04-11T10:24:55.943Z</time></trkpt><trkpt lat="45.88626890112332" lon="13.52570573991966"><ele>124.0</ele><time>2026-04-11T10:24:56.943Z</time></trkpt><trkpt lat="45.88633441883764" lon="13.525803926426798"><ele>124.16666666666667</ele><time>2026-04-11T10:24:57.943Z</time></trkpt><trkpt lat="45.886386823429426" lon="13.525889955442086"><ele>124.33333333333334</ele><time>2026-04-11T10:24:58.943Z</time></trkpt><trkpt lat="45.8864366184675" lon="13.52597732446072"><ele>124.5</ele><time>2026-04-11T10:24:59.943Z</time></trkpt><trkpt lat="45.886485603230064" lon="13.526092851422385"><ele>124.66666666666666</ele><time>2026-04-11T10:25:00.943Z</time></trkpt><trkpt lat="45.88653868975106" lon="13.526187240865394"><ele>124.83333333333333</ele><time>2026-04-11T10:25:01.943Z</time></trkpt><trkpt lat="45.88660055054726" lon="13.526276102172977"><ele>125.0</ele><time>2026-04-11T10:25:02.943Z</time></trkpt><trkpt lat="45.88663469507837" lon="13.526373085895044"><ele>124.99999999999999</ele><time>2026-04-11T10:25:03.943Z</time></trkpt><trkpt lat="45.886683295876544" lon="13.526472083566278"><ele>125.0</ele><time>2026-04-11T10:25:04.943Z</time></trkpt><trkpt lat="45.886732605671526" lon="13.526554821002248"><ele>125.0</ele><time>2026-04-11T10:25:05.943Z</time></trkpt><trkpt lat="45.88678765995197" lon="13.526656638301253"><ele>125.0</ele><time>2026-04-11T10:25:06.943Z</time></trkpt><trkpt lat="45.88682630517486" lon="13.526740495222517"><ele>124.99999999999999</ele><time>2026-04-11T10:25:07.942Z</time></trkpt><trkpt lat="45.88687587952193" lon="13.52682613369502"><ele>125.0</ele><time>2026-04-11T10:25:08.942Z</time></trkpt><trkpt lat="45.88695301846313" lon="13.526943720655353"><ele>125.8</ele><time>2026-04-11T10:25:10.942Z</time></trkpt><trkpt lat="45.887032413930115" lon="13.527033899228721"><ele>126.6</ele><time>2026-04-11T10:25:12.942Z</time></trkpt><trkpt lat="45.88714972494865" lon="13.527125127699703"><ele>127.4</ele><time>2026-04-11T10:25:14.942Z</time></trkpt><trkpt lat="45.887222437593024" lon="13.527159465966484"><ele>128.2</ele><time>2026-04-11T10:25:15.942Z</time></trkpt><trkpt lat="45.88729406297723" lon="13.527171785575225"><ele>129.0</ele><time>2026-04-11T10:25:16.942Z</time></trkpt><trkpt lat="45.88741724766005" lon="13.527189478156986"><ele>128.99999999999997</ele><time>2026-04-11T10:25:18.942Z</time></trkpt><trkpt lat="45.88748361808217" lon="13.527215880391864"><ele>129.0</ele><time>2026-04-11T10:25:19.942Z</time></trkpt><trkpt lat="45.88757038485643" lon="13.527239279258536"><ele>129.0</ele><time>2026-04-11T10:25:20.942Z</time></trkpt><trkpt lat="45.88764050563537" lon="13.527260305401109"><ele>129.0</ele><time>2026-04-11T10:25:21.942Z</time></trkpt><trkpt lat="45.88771155124276" lon="13.527271608209874"><ele>129.0</ele><time>2026-04-11T10:25:22.942Z</time></trkpt><trkpt lat="45.88777567913457" lon="13.527266542427249"><ele>128.99999999999997</ele><time>2026-04-11T10:25:23.942Z</time></trkpt><trkpt lat="45.88785866130866" lon="13.527259464889633"><ele>129.0</ele><time>2026-04-11T10:25:24.942Z</time></trkpt><trkpt lat="45.88795249543151" lon="13.527266275541775"><ele>128.83333333333334</ele><time>2026-04-11T10:25:25.942Z</time></trkpt><trkpt lat="45.88804121246018" lon="13.527277003502647"><ele>128.66666666666666</ele><time>2026-04-11T10:25:26.942Z</time></trkpt><trkpt lat="45.8881354291562" lon="13.527282202573689"><ele>128.5</ele><time>2026-04-11T10:25:27.942Z</time></trkpt><trkpt lat="45.888225551548814" lon="13.527284948872763"><ele>128.33333333333331</ele><time>2026-04-11T10:25:28.942Z</time></trkpt><trkpt lat="45.888299793265155" lon="13.527322458462821"><ele>128.16666666666666</ele><time>2026-04-11T10:25:29.942Z</time></trkpt><trkpt lat="45.88838057700723" lon="13.527344621860983"><ele>128.0</ele><time>2026-04-11T10:25:30.942Z</time></trkpt><trkpt lat="45.88845019175878" lon="13.527371355136824"><ele>127.99999999999999</ele><time>2026-04-11T10:25:31.942Z</time></trkpt><trkpt lat="45.88851571614621" lon="13.527407365842947"><ele>128.0</ele><time>2026-04-11T10:25:32.942Z</time></trkpt><trkpt lat="45.8885930802666" lon="13.527444163930346"><ele>128.0</ele><time>2026-04-11T10:25:33.942Z</time></trkpt><trkpt lat="45.8886557501139" lon="13.527496846803029"><ele>128.0</ele><time>2026-04-11T10:25:34.942Z</time></trkpt><trkpt lat="45.888712039367654" lon="13.527561785490617"><ele>127.99999999999999</ele><time>2026-04-11T10:25:35.942Z</time></trkpt><trkpt lat="45.88881612529192" lon="13.52769645316629"><ele>128.0</ele><time>2026-04-11T10:25:37.942Z</time></trkpt><trkpt lat="45.888858796061626" lon="13.527769446350108"><ele>127.99999999999999</ele><time>2026-04-11T10:25:38.943Z</time></trkpt><trkpt lat="45.88890476036718" lon="13.527867816367195"><ele>128.0</ele><time>2026-04-11T10:25:39.943Z</time></trkpt><trkpt lat="45.88893630843259" lon="13.52798284237445"><ele>128.0</ele><time>2026-04-11T10:25:40.943Z</time></trkpt><trkpt lat="45.88896035442605" lon="13.528088941426647"><ele>128.0</ele><time>2026-04-11T10:25:41.943Z</time></trkpt><trkpt lat="45.88898345630797" lon="13.528194401639404"><ele>127.99999999999999</ele><time>2026-04-11T10:25:42.943Z</time></trkpt><trkpt lat="45.88901000228272" lon="13.528293367935424"><ele>128.0</ele><time>2026-04-11T10:25:43.943Z</time></trkpt><trkpt lat="45.88904571603458" lon="13.5283877508254"><ele>128.57142857142856</ele><time>2026-04-11T10:25:44.943Z</time></trkpt><trkpt lat="45.88907538528346" lon="13.528468035924545"><ele>129.14285714285714</ele><time>2026-04-11T10:25:45.943Z</time></trkpt><trkpt lat="45.889114501987464" lon="13.528551110486523"><ele>129.71428571428572</ele><time>2026-04-11T10:25:46.943Z</time></trkpt><trkpt lat="45.88914217761166" lon="13.528636428940501"><ele>130.28571428571428</ele><time>2026-04-11T10:25:47.943Z</time></trkpt><trkpt lat="45.88916310894624" lon="13.528728386768114"><ele>130.85714285714286</ele><time>2026-04-11T10:25:48.943Z</time></trkpt><trkpt lat="45.88917131265536" lon="13.52882170672671"><ele>131.42857142857142</ele><time>2026-04-11T10:25:49.943Z</time></trkpt><trkpt lat="45.88918886877818" lon="13.528945832357543"><ele>132.0</ele><time>2026-04-11T10:25:51.943Z</time></trkpt><trkpt lat="45.88915054654197" lon="13.529061578354519"><ele>133.4</ele><time>2026-04-11T10:25:54.943Z</time></trkpt><trkpt lat="45.88903159793902" lon="13.529093515503384"><ele>134.79999999999998</ele><time>2026-04-11T10:25:56.943Z</time></trkpt><trkpt lat="45.88892808737146" lon="13.5291738075432"><ele>136.2</ele><time>2026-04-11T10:25:58.943Z</time></trkpt><trkpt lat="45.88886091306348" lon="13.529211925166864"><ele>137.6</ele><time>2026-04-11T10:25:59.943Z</time></trkpt><trkpt lat="45.88878690521648" lon="13.52925279373371"><ele>139.0</ele><time>2026-04-11T10:26:00.943Z</time></trkpt><trkpt lat="45.88872296728129" lon="13.529298364958768"><ele>139.0</ele><time>2026-04-11T10:26:01.943Z</time></trkpt><trkpt lat="45.88863021546605" lon="13.529338483323738"><ele>139.0</ele><time>2026-04-11T10:26:02.943Z</time></trkpt><trkpt lat="45.88856373533236" lon="13.529368270939926"><ele>139.0</ele><time>2026-04-11T10:26:03.943Z</time></trkpt><trkpt lat="45.88849292666312" lon="13.529408425768528"><ele>139.0</ele><time>2026-04-11T10:26:04.943Z</time></trkpt><trkpt lat="45.88841765527164" lon="13.529450277778222"><ele>139.0</ele><time>2026-04-11T10:26:05.943Z</time></trkpt><trkpt lat="45.88834195538832" lon="13.529495142354406"><ele>139.0</ele><time>2026-04-11T10:26:06.943Z</time></trkpt><trkpt lat="45.8882613915862" lon="13.529563863967718"><ele>140.83333333333334</ele><time>2026-04-11T10:26:07.943Z</time></trkpt><trkpt lat="45.888189161308084" lon="13.529641949910875"><ele>142.66666666666669</ele><time>2026-04-11T10:26:08.943Z</time></trkpt><trkpt lat="45.88811563086566" lon="13.529728828533473"><ele>144.5</ele><time>2026-04-11T10:26:09.943Z</time></trkpt><trkpt lat="45.8880312265534" lon="13.52979871631559"><ele>146.33333333333334</ele><time>2026-04-11T10:26:10.943Z</time></trkpt><trkpt lat="45.88796636235931" lon="13.529857272284982"><ele>148.16666666666666</ele><time>2026-04-11T10:26:11.943Z</time></trkpt><trkpt lat="45.88790611807181" lon="13.529933078497502"><ele>150.0</ele><time>2026-04-11T10:26:12.943Z</time></trkpt><trkpt lat="45.88785141084097" lon="13.530000155080383"><ele>150.0</ele><time>2026-04-11T10:26:13.943Z</time></trkpt><trkpt lat="45.887810181319374" lon="13.530088185744523"><ele>150.0</ele><time>2026-04-11T10:26:15.943Z</time></trkpt><trkpt lat="45.887774862826106" lon="13.530178160951085"><ele>150.0</ele><time>2026-04-11T10:26:17.943Z</time></trkpt><trkpt lat="45.887708728409606" lon="13.53033207696959"><ele>150.0</ele><time>2026-04-11T10:26:19.943Z</time></trkpt><trkpt lat="45.88767569676576" lon="13.530435657676215"><ele>150.0</ele><time>2026-04-11T10:26:20.942Z</time></trkpt><trkpt lat="45.88764534991572" lon="13.530523191358958"><ele>150.0</ele><time>2026-04-11T10:26:21.942Z</time></trkpt><trkpt lat="45.88759020296568" lon="13.530681260509162"><ele>149.5</ele><time>2026-04-11T10:26:23.942Z</time></trkpt><trkpt lat="45.88756261756727" lon="13.530777185265126"><ele>149.0</ele><time>2026-04-11T10:26:24.942Z</time></trkpt><trkpt lat="45.88754812982993" lon="13.530869601064671"><ele>148.5</ele><time>2026-04-11T10:26:25.942Z</time></trkpt><trkpt lat="45.887533913196336" lon="13.5310600856581"><ele>148.0</ele><time>2026-04-11T10:26:27.942Z</time></trkpt><trkpt lat="45.887535386025334" lon="13.53115207036014"><ele>147.5</ele><time>2026-04-11T10:26:28.942Z</time></trkpt><trkpt lat="45.887534891315795" lon="13.531311552651285"><ele>147.0</ele><time>2026-04-11T10:26:30.942Z</time></trkpt><trkpt lat="45.887510916733326" lon="13.531457877138033"><ele>148.16666666666666</ele><time>2026-04-11T10:26:32.942Z</time></trkpt><trkpt lat="45.88749305878145" lon="13.531579156618376"><ele>149.33333333333334</ele><time>2026-04-11T10:26:34.942Z</time></trkpt><trkpt lat="45.887467970138815" lon="13.531697966381492"><ele>150.5</ele><time>2026-04-11T10:26:36.942Z</time></trkpt><trkpt lat="45.88747497870425" lon="13.531827427773065"><ele>151.66666666666669</ele><time>2026-04-11T10:26:38.942Z</time></trkpt><trkpt lat="45.887495673551555" lon="13.531953441423594"><ele>152.83333333333334</ele><time>2026-04-11T10:26:40.942Z</time></trkpt><trkpt lat="45.88750813233032" lon="13.532065243146716"><ele>154.0</ele><time>2026-04-11T10:26:43.942Z</time></trkpt><trkpt lat="45.88754613686781" lon="13.532187209234944"><ele>154.4</ele><time>2026-04-11T10:26:45.942Z</time></trkpt><trkpt lat="45.88759351094024" lon="13.532312942776144"><ele>154.8</ele><time>2026-04-11T10:26:47.942Z</time></trkpt><trkpt lat="45.88765014641641" lon="13.532452726970586"><ele>155.2</ele><time>2026-04-11T10:26:49.942Z</time></trkpt><trkpt lat="45.88769696400191" lon="13.53260252383432"><ele>155.6</ele><time>2026-04-11T10:26:51.942Z</time></trkpt><trkpt lat="45.88772733821471" lon="13.532740375415457"><ele>156.0</ele><time>2026-04-11T10:26:53.942Z</time></trkpt><trkpt lat="45.88777933342112" lon="13.532896827245013"><ele>156.0</ele><time>2026-04-11T10:26:55.942Z</time></trkpt><trkpt lat="45.8878124063018" lon="13.532997560844715"><ele>156.0</ele><time>2026-04-11T10:26:56.942Z</time></trkpt><trkpt lat="45.88785552543686" lon="13.533097044581753"><ele>156.0</ele><time>2026-04-11T10:26:58.942Z</time></trkpt><trkpt lat="45.88787241711745" lon="13.533195878665753"><ele>156.0</ele><time>2026-04-11T10:27:01.942Z</time></trkpt><trkpt lat="45.887873349587245" lon="13.533293766935616"><ele>156.0</ele><time>2026-04-11T10:28:56.939Z</time></trkpt><trkpt lat="45.887948095715565" lon="13.533326105885868"><ele>156.0</ele><time>2026-04-11T10:29:05.939Z</time></trkpt><trkpt lat="45.88798624874764" lon="13.533445677888935"><ele>156.0</ele><time>2026-04-11T10:29:08.939Z</time></trkpt><trkpt lat="45.88801125418055" lon="13.533553609980139"><ele>156.0</ele><time>2026-04-11T10:29:10.939Z</time></trkpt><trkpt lat="45.88805622609939" lon="13.533682535101352"><ele>156.0</ele><time>2026-04-11T10:29:13.939Z</time></trkpt><trkpt lat="45.88808127497884" lon="13.53379126821993"><ele>156.0</ele><time>2026-04-11T10:29:15.939Z</time></trkpt><trkpt lat="45.88811630775315" lon="13.533933483035122"><ele>156.0</ele><time>2026-04-11T10:29:17.939Z</time></trkpt><trkpt lat="45.88817319135202" lon="13.534124846382708"><ele>155.83333333333334</ele><time>2026-04-11T10:29:19.939Z</time></trkpt><trkpt lat="45.88821509665792" lon="13.53423820624369"><ele>155.66666666666666</ele><time>2026-04-11T10:29:21.939Z</time></trkpt><trkpt lat="45.88827561291984" lon="13.534299955991886"><ele>155.5</ele><time>2026-04-11T10:29:23.939Z</time></trkpt><trkpt lat="45.88830467335344" lon="13.534384036072876"><ele>155.33333333333331</ele><time>2026-04-11T10:29:25.939Z</time></trkpt><trkpt lat="45.88834019965985" lon="13.534463670551318"><ele>155.16666666666666</ele><time>2026-04-11T10:29:27.938Z</time></trkpt><trkpt lat="45.888404574108094" lon="13.534539371444101"><ele>155.0</ele><time>2026-04-11T10:29:29.938Z</time></trkpt><trkpt lat="45.88849792924426" lon="13.534644731931591"><ele>156.16666666666666</ele><time>2026-04-11T10:29:31.938Z</time></trkpt><trkpt lat="45.88856844059966" lon="13.534729153191046"><ele>157.33333333333331</ele><time>2026-04-11T10:29:33.938Z</time></trkpt><trkpt lat="45.88864864845835" lon="13.534795339072838"><ele>158.5</ele><time>2026-04-11T10:29:35.938Z</time></trkpt><trkpt lat="45.88873818187146" lon="13.534859276954174"><ele>159.66666666666666</ele><time>2026-04-11T10:29:37.938Z</time></trkpt><trkpt lat="45.88881127467633" lon="13.53490908673874"><ele>160.83333333333334</ele><time>2026-04-11T10:29:39.938Z</time></trkpt><trkpt lat="45.88887478981388" lon="13.534986476453511"><ele>162.0</ele><time>2026-04-11T10:29:42.938Z</time></trkpt><trkpt lat="45.888939937180815" lon="13.535065350179904"><ele>162.0</ele><time>2026-04-11T10:29:44.938Z</time></trkpt><trkpt lat="45.8890223799511" lon="13.535097043046921"><ele>162.0</ele><time>2026-04-11T10:29:46.938Z</time></trkpt><trkpt lat="45.8891039522915" lon="13.535129098921644"><ele>162.0</ele><time>2026-04-11T10:29:48.938Z</time></trkpt><trkpt lat="45.88917268915718" lon="13.535176141586504"><ele>162.0</ele><time>2026-04-11T10:29:50.94Z</time></trkpt><trkpt lat="45.889255882161045" lon="13.535212645551763"><ele>162.0</ele><time>2026-04-11T10:29:52.94Z</time></trkpt><trkpt lat="45.88931423228417" lon="13.535315445710193"><ele>162.0</ele><time>2026-04-11T10:29:55.94Z</time></trkpt><trkpt lat="45.88933116115706" lon="13.535432726016902"><ele>161.14285714285714</ele><time>2026-04-11T10:29:58.939Z</time></trkpt><trkpt lat="45.88930599030441" lon="13.535516002991411"><ele>160.28571428571428</ele><time>2026-04-11T10:30:00.94Z</time></trkpt><trkpt lat="45.88927002132489" lon="13.535621593072465"><ele>159.42857142857144</ele><time>2026-04-11T10:30:03.94Z</time></trkpt><trkpt lat="45.889244794714934" lon="13.535757020148743"><ele>158.57142857142856</ele><time>2026-04-11T10:30:06.94Z</time></trkpt><trkpt lat="45.88924976814914" lon="13.535847788056655"><ele>157.7142857142857</ele><time>2026-04-11T10:30:09.94Z</time></trkpt><trkpt lat="45.88922506309315" lon="13.535934376661553"><ele>156.85714285714286</ele><time>2026-04-11T10:30:27.939Z</time></trkpt><trkpt lat="45.8891573032352" lon="13.53594080676842"><ele>156.0</ele><time>2026-04-11T10:30:31.939Z</time></trkpt><trkpt lat="45.8890778084461" lon="13.53595991436995"><ele>157.71428571428572</ele><time>2026-04-11T10:30:34.939Z</time></trkpt><trkpt lat="45.888996887402676" lon="13.535982047596384"><ele>159.42857142857142</ele><time>2026-04-11T10:30:36.939Z</time></trkpt><trkpt lat="45.88893673506847" lon="13.536041896882763"><ele>161.14285714285714</ele><time>2026-04-11T10:36:28.942Z</time></trkpt><trkpt lat="45.88892708279271" lon="13.536166295571613"><ele>162.85714285714286</ele><time>2026-04-11T10:36:36.944Z</time></trkpt><trkpt lat="45.888936844440245" lon="13.536268608643262"><ele>164.57142857142856</ele><time>2026-04-11T10:36:38.944Z</time></trkpt><trkpt lat="45.888937720287885" lon="13.536361961271677"><ele>166.28571428571428</ele><time>2026-04-11T10:36:45.945Z</time></trkpt><trkpt lat="45.88891886387705" lon="13.536452005348481"><ele>168.0</ele><time>2026-04-11T10:36:55.945Z</time></trkpt><trkpt lat="45.8888720125934" lon="13.536549376773495"><ele>169.5</ele><time>2026-04-11T10:36:58.946Z</time></trkpt><trkpt lat="45.888831275911876" lon="13.53665457104224"><ele>171.0</ele><time>2026-04-11T10:37:01.946Z</time></trkpt><trkpt lat="45.888783190035355" lon="13.536733508176457"><ele>172.5</ele><time>2026-04-11T10:37:15.946Z</time></trkpt><trkpt lat="45.88876402551096" lon="13.536831184454734"><ele>174.0</ele><time>2026-04-11T10:37:18.946Z</time></trkpt><trkpt lat="45.8887268117017" lon="13.536909995159842"><ele>175.5</ele><time>2026-04-11T10:37:20.946Z</time></trkpt><trkpt lat="45.88867126196908" lon="13.537011328317737"><ele>177.0</ele><time>2026-04-11T10:37:22.946Z</time></trkpt><trkpt lat="45.88862290881243" lon="13.53710307193581"><ele>177.83333333333334</ele><time>2026-04-11T10:37:25.946Z</time></trkpt><trkpt lat="45.88860353405412" lon="13.537211649887592"><ele>178.66666666666666</ele><time>2026-04-11T10:37:28.946Z</time></trkpt><trkpt lat="45.88862619039778" lon="13.537325510661631"><ele>179.5</ele><time>2026-04-11T10:37:30.946Z</time></trkpt><trkpt lat="45.88859603106603" lon="13.537422080555093"><ele>180.33333333333331</ele><time>2026-04-11T10:37:33.946Z</time></trkpt><trkpt lat="45.88853641157212" lon="13.537507833643565"><ele>181.16666666666666</ele><time>2026-04-11T10:37:36.946Z</time></trkpt><trkpt lat="45.8884692749241" lon="13.5376258503012"><ele>182.0</ele><time>2026-04-11T10:37:38.945Z</time></trkpt><trkpt lat="45.88843527371711" lon="13.537703881264118"><ele>183.5</ele><time>2026-04-11T10:37:39.945Z</time></trkpt><trkpt lat="45.8884165163952" lon="13.537791635645092"><ele>185.0</ele><time>2026-04-11T10:37:41.945Z</time></trkpt><trkpt lat="45.88838607329278" lon="13.53791885558529"><ele>186.5</ele><time>2026-04-11T10:37:44.945Z</time></trkpt><trkpt lat="45.88835341779175" lon="13.538044098505518"><ele>188.0</ele><time>2026-04-11T10:37:46.945Z</time></trkpt><trkpt lat="45.88831684869781" lon="13.538148564275271"><ele>189.5</ele><time>2026-04-11T10:37:48.945Z</time></trkpt><trkpt lat="45.8882747079304" lon="13.538257686371157"><ele>191.0</ele><time>2026-04-11T10:37:50.945Z</time></trkpt><trkpt lat="45.88823300199229" lon="13.538350388632841"><ele>192.66666666666666</ele><time>2026-04-11T10:37:53.945Z</time></trkpt><trkpt lat="45.88816400610194" lon="13.53842068854979"><ele>194.33333333333331</ele><time>2026-04-11T10:37:55.945Z</time></trkpt><trkpt lat="45.888108832983114" lon="13.538489058546572"><ele>196.0</ele><time>2026-04-11T10:37:57.945Z</time></trkpt><trkpt lat="45.88809949596783" lon="13.53859740197353"><ele>197.66666666666666</ele><time>2026-04-11T10:37:59.945Z</time></trkpt><trkpt lat="45.88808681894445" lon="13.538715949271092"><ele>199.33333333333334</ele><time>2026-04-11T10:38:01.945Z</time></trkpt><trkpt lat="45.888055345277714" lon="13.538856530144322"><ele>201.0</ele><time>2026-04-11T10:38:03.945Z</time></trkpt><trkpt lat="45.888015415571786" lon="13.538952855148883"><ele>202.60000000000002</ele><time>2026-04-11T10:38:05.945Z</time></trkpt><trkpt lat="45.887981164702126" lon="13.539033452266377"><ele>204.2</ele><time>2026-04-11T10:38:07.945Z</time></trkpt><trkpt lat="45.88793245266874" lon="13.539145428853686"><ele>205.8</ele><time>2026-04-11T10:38:09.945Z</time></trkpt><trkpt lat="45.88789889617164" lon="13.539252975333795"><ele>207.39999999999998</ele><time>2026-04-11T10:38:11.945Z</time></trkpt><trkpt lat="45.88787426455285" lon="13.539419745854033"><ele>209.0</ele><time>2026-04-11T10:38:13.946Z</time></trkpt><trkpt lat="45.88786161046451" lon="13.539619029583356"><ele>209.79999999999998</ele><time>2026-04-11T10:38:15.946Z</time></trkpt><trkpt lat="45.88785601675015" lon="13.539712079900408"><ele>210.6</ele><time>2026-04-11T10:38:16.946Z</time></trkpt><trkpt lat="45.88784091172213" lon="13.539858728582931"><ele>211.4</ele><time>2026-04-11T10:38:18.946Z</time></trkpt><trkpt lat="45.88783312343226" lon="13.539996867782746"><ele>212.2</ele><time>2026-04-11T10:38:20.946Z</time></trkpt><trkpt lat="45.887862979234484" lon="13.540096096688215"><ele>213.0</ele><time>2026-04-11T10:38:22.946Z</time></trkpt><trkpt lat="45.88788761725991" lon="13.540254158336511"><ele>213.0</ele><time>2026-04-11T10:38:24.946Z</time></trkpt><trkpt lat="45.88785184480246" lon="13.540382538458777"><ele>213.0</ele><time>2026-04-11T10:38:26.946Z</time></trkpt><trkpt lat="45.88780934790137" lon="13.540460597464827"><ele>213.0</ele><time>2026-04-11T10:38:29.946Z</time></trkpt><trkpt lat="45.8877436362118" lon="13.540515264109308"><ele>213.0</ele><time>2026-04-11T10:38:31.946Z</time></trkpt><trkpt lat="45.88764685315893" lon="13.54055619948665"><ele>213.0</ele><time>2026-04-11T10:38:33.946Z</time></trkpt><trkpt lat="45.88758709701752" lon="13.540592832117438"><ele>213.0</ele><time>2026-04-11T10:38:35.946Z</time></trkpt><trkpt lat="45.88750911897455" lon="13.540651009095317"><ele>215.0</ele><time>2026-04-11T10:38:37.946Z</time></trkpt><trkpt lat="45.887440001203636" lon="13.540708709517373"><ele>217.0</ele><time>2026-04-11T10:38:39.946Z</time></trkpt><trkpt lat="45.88736469559828" lon="13.540774876829586"><ele>219.0</ele><time>2026-04-11T10:38:41.946Z</time></trkpt><trkpt lat="45.88727593307901" lon="13.540839938370981"><ele>221.0</ele><time>2026-04-11T10:38:43.946Z</time></trkpt><trkpt lat="45.887188940067084" lon="13.54087675275877"><ele>223.0</ele><time>2026-04-11T10:38:45.946Z</time></trkpt><trkpt lat="45.8871300126271" lon="13.540946696300423"><ele>225.0</ele><time>2026-04-11T10:38:47.946Z</time></trkpt><trkpt lat="45.88710908645623" lon="13.541097385102486"><ele>225.0</ele><time>2026-04-11T10:38:50.946Z</time></trkpt><trkpt lat="45.88711196187845" lon="13.541215429992063"><ele>225.0</ele><time>2026-04-11T10:38:51.945Z</time></trkpt><trkpt lat="45.88712413254617" lon="13.541332682871944"><ele>225.0</ele><time>2026-04-11T10:38:52.945Z</time></trkpt><trkpt lat="45.8871234215129" lon="13.54143543590453"><ele>225.0</ele><time>2026-04-11T10:38:53.945Z</time></trkpt><trkpt lat="45.88709162514104" lon="13.541613639664277"><ele>225.0</ele><time>2026-04-11T10:38:55.945Z</time></trkpt><trkpt lat="45.88704056311628" lon="13.541781226719682"><ele>225.4</ele><time>2026-04-11T10:38:57.945Z</time></trkpt><trkpt lat="45.88697577513587" lon="13.541929564320018"><ele>225.8</ele><time>2026-04-11T10:38:59.945Z</time></trkpt><trkpt lat="45.88692683163734" lon="13.542030831562773"><ele>226.2</ele><time>2026-04-11T10:39:00.945Z</time></trkpt><trkpt lat="45.8868822298757" lon="13.542126722668996"><ele>226.6</ele><time>2026-04-11T10:39:01.945Z</time></trkpt><trkpt lat="45.886820594274525" lon="13.542274127256722"><ele>227.0</ele><time>2026-04-11T10:39:03.945Z</time></trkpt><trkpt lat="45.88677606352892" lon="13.542345415961234"><ele>229.50000000000003</ele><time>2026-04-11T10:39:04.945Z</time></trkpt><trkpt lat="45.886744985281915" lon="13.542425696971426"><ele>232.0</ele><time>2026-04-11T10:39:05.945Z</time></trkpt><trkpt lat="45.88672109648082" lon="13.542510729880469"><ele>234.5</ele><time>2026-04-11T10:39:06.945Z</time></trkpt><trkpt lat="45.886680841722914" lon="13.542636824204358"><ele>237.0</ele><time>2026-04-11T10:39:08.945Z</time></trkpt><trkpt lat="45.88665861607671" lon="13.542774894004966"><ele>239.50000000000003</ele><time>2026-04-11T10:39:10.945Z</time></trkpt><trkpt lat="45.886639347629426" lon="13.54287369471012"><ele>242.0</ele><time>2026-04-11T10:39:11.945Z</time></trkpt><trkpt lat="45.88660262505267" lon="13.542956636261183"><ele>242.33333333333334</ele><time>2026-04-11T10:39:12.945Z</time></trkpt><trkpt lat="45.88657018053972" lon="13.543040355646667"><ele>242.66666666666669</ele><time>2026-04-11T10:39:13.945Z</time></trkpt><trkpt lat="45.8865232123147" lon="13.543183967586925"><ele>243.0</ele><time>2026-04-11T10:39:15.945Z</time></trkpt><trkpt lat="45.88651439269881" lon="13.543277935443461"><ele>243.33333333333331</ele><time>2026-04-11T10:39:16.945Z</time></trkpt><trkpt lat="45.886516355095175" lon="13.543381113028506"><ele>243.66666666666666</ele><time>2026-04-11T10:39:17.945Z</time></trkpt><trkpt lat="45.88651947060897" lon="13.543482332255474"><ele>244.0</ele><time>2026-04-11T10:39:18.945Z</time></trkpt><trkpt lat="45.88650401215252" lon="13.543602793641154"><ele>244.99999999999997</ele><time>2026-04-11T10:39:19.945Z</time></trkpt><trkpt lat="45.88650655904751" lon="13.543744808038902"><ele>246.0</ele><time>2026-04-11T10:39:20.945Z</time></trkpt><trkpt lat="45.88651871238037" lon="13.543896232980876"><ele>247.0</ele><time>2026-04-11T10:39:21.945Z</time></trkpt><trkpt lat="45.886514165358555" lon="13.54402680318674"><ele>248.0</ele><time>2026-04-11T10:39:22.945Z</time></trkpt><trkpt lat="45.886503563217396" lon="13.544119895961597"><ele>248.99999999999997</ele><time>2026-04-11T10:39:23.945Z</time></trkpt><trkpt lat="45.88647907625928" lon="13.544221185660653"><ele>250.0</ele><time>2026-04-11T10:39:25.945Z</time></trkpt><trkpt lat="45.88646742632444" lon="13.544332616163999"><ele>249.99999999999997</ele><time>2026-04-11T10:41:28.943Z</time></trkpt><trkpt lat="45.88642004893814" lon="13.544467125925042"><ele>250.0</ele><time>2026-04-11T10:41:30.943Z</time></trkpt><trkpt lat="45.886413938852" lon="13.544613385239414"><ele>250.0</ele><time>2026-04-11T10:41:32.943Z</time></trkpt><trkpt lat="45.88646548699405" lon="13.544676216600203"><ele>250.0</ele><time>2026-04-11T10:41:33.943Z</time></trkpt><trkpt lat="45.88653624956109" lon="13.544723702024276"><ele>249.99999999999997</ele><time>2026-04-11T10:41:34.943Z</time></trkpt><trkpt lat="45.88660691893439" lon="13.544803176033932"><ele>250.0</ele><time>2026-04-11T10:41:35.943Z</time></trkpt><trkpt lat="45.886719317136" lon="13.544765936231737"><ele>248.99999999999997</ele><time>2026-04-11T10:41:36.943Z</time></trkpt><trkpt lat="45.886806798408756" lon="13.54474827194385"><ele>248.0</ele><time>2026-04-11T10:41:37.943Z</time></trkpt><trkpt lat="45.88690474069895" lon="13.544725218927692"><ele>247.0</ele><time>2026-04-11T10:41:38.943Z</time></trkpt><trkpt lat="45.887011515704614" lon="13.544699366351084"><ele>246.0</ele><time>2026-04-11T10:41:39.943Z</time></trkpt><trkpt lat="45.88708302318114" lon="13.54467948258411"><ele>244.99999999999997</ele><time>2026-04-11T10:41:40.943Z</time></trkpt><trkpt lat="45.887156480661005" lon="13.544665121610425"><ele>244.0</ele><time>2026-04-11T10:41:41.943Z</time></trkpt><trkpt lat="45.887244879899114" lon="13.544671918824912"><ele>243.99999999999997</ele><time>2026-04-11T10:41:42.943Z</time></trkpt><trkpt lat="45.887318020719206" lon="13.544689833535578"><ele>244.0</ele><time>2026-04-11T10:41:43.943Z</time></trkpt><trkpt lat="45.88738365410342" lon="13.544731051738164"><ele>244.0</ele><time>2026-04-11T10:41:44.943Z</time></trkpt><trkpt lat="45.88744936318219" lon="13.544720365329777"><ele>244.0</ele><time>2026-04-11T10:41:45.943Z</time></trkpt><trkpt lat="45.887545146045426" lon="13.54465416000782"><ele>243.99999999999997</ele><time>2026-04-11T10:41:47.943Z</time></trkpt><trkpt lat="45.8875997206152" lon="13.544600121099375"><ele>244.0</ele><time>2026-04-11T10:41:48.943Z</time></trkpt><trkpt lat="45.88765225228899" lon="13.544534590281767"><ele>241.49999999999997</ele><time>2026-04-11T10:41:49.943Z</time></trkpt><trkpt lat="45.887708166249816" lon="13.544459738864655"><ele>239.0</ele><time>2026-04-11T10:41:50.943Z</time></trkpt><trkpt lat="45.8877707246712" lon="13.544390474806661"><ele>236.5</ele><time>2026-04-11T10:41:51.943Z</time></trkpt><trkpt lat="45.88784921069463" lon="13.54433623739904"><ele>234.0</ele><time>2026-04-11T10:41:52.943Z</time></trkpt><trkpt lat="45.88794174199038" lon="13.544290897356852"><ele>231.49999999999997</ele><time>2026-04-11T10:41:53.943Z</time></trkpt><trkpt lat="45.88803043577586" lon="13.544250257457403"><ele>229.0</ele><time>2026-04-11T10:41:54.943Z</time></trkpt><trkpt lat="45.888107086732255" lon="13.544256774739353"><ele>229.0</ele><time>2026-04-11T10:41:55.943Z</time></trkpt><trkpt lat="45.888191309503625" lon="13.544341584790708"><ele>228.99999999999997</ele><time>2026-04-11T10:41:56.943Z</time></trkpt><trkpt lat="45.8882620934092" lon="13.544449612114454"><ele>228.99999999999997</ele><time>2026-04-11T10:41:57.943Z</time></trkpt><trkpt lat="45.888342555094525" lon="13.544571666446858"><ele>229.0</ele><time>2026-04-11T10:41:58.943Z</time></trkpt><trkpt lat="45.888405251605825" lon="13.544686798873142"><ele>229.0</ele><time>2026-04-11T10:41:59.943Z</time></trkpt><trkpt lat="45.888450441866425" lon="13.544801546439135"><ele>226.79999999999998</ele><time>2026-04-11T10:42:00.942Z</time></trkpt><trkpt lat="45.88848696806126" lon="13.544919797317649"><ele>224.59999999999997</ele><time>2026-04-11T10:42:01.942Z</time></trkpt><trkpt lat="45.88852672561332" lon="13.545029134781696"><ele>222.4</ele><time>2026-04-11T10:42:02.942Z</time></trkpt><trkpt lat="45.88857232869931" lon="13.545129216787327"><ele>220.2</ele><time>2026-04-11T10:42:03.942Z</time></trkpt><trkpt lat="45.8885654399258" lon="13.545266791064599"><ele>218.0</ele><time>2026-04-11T10:42:04.942Z</time></trkpt><trkpt lat="45.888520899134264" lon="13.54538964712873"><ele>218.0</ele><time>2026-04-11T10:42:05.942Z</time></trkpt><trkpt lat="45.88847922386731" lon="13.545466567343087"><ele>218.0</ele><time>2026-04-11T10:42:06.942Z</time></trkpt><trkpt lat="45.888554411767906" lon="13.545565721895112"><ele>218.0</ele><time>2026-04-11T10:42:08.942Z</time></trkpt><trkpt lat="45.88863214999256" lon="13.545586798803331"><ele>218.0</ele><time>2026-04-11T10:42:09.942Z</time></trkpt><trkpt lat="45.88875470104905" lon="13.54561118913955"><ele>218.0</ele><time>2026-04-11T10:42:11.942Z</time></trkpt><trkpt lat="45.888830128149394" lon="13.545644541419263"><ele>218.00000000000003</ele><time>2026-04-11T10:42:12.942Z</time></trkpt><trkpt lat="45.88889183296632" lon="13.545700201048366"><ele>218.0</ele><time>2026-04-11T10:42:13.942Z</time></trkpt><trkpt lat="45.88896328566698" lon="13.545755659809846"><ele>218.0</ele><time>2026-04-11T10:42:14.942Z</time></trkpt><trkpt lat="45.88901455666046" lon="13.545843091174095"><ele>218.0</ele><time>2026-04-11T10:42:15.942Z</time></trkpt><trkpt lat="45.88903678331959" lon="13.545965195473656"><ele>218.00000000000003</ele><time>2026-04-11T10:42:16.942Z</time></trkpt><trkpt lat="45.8890609233702" lon="13.546092278183984"><ele>218.0</ele><time>2026-04-11T10:42:17.942Z</time></trkpt><trkpt lat="45.88907625268453" lon="13.546254152929166"><ele>218.75</ele><time>2026-04-11T10:42:18.942Z</time></trkpt><trkpt lat="45.88908671898329" lon="13.54642590382779"><ele>219.5</ele><time>2026-04-11T10:42:19.942Z</time></trkpt><trkpt lat="45.889105253827886" lon="13.546582595377293"><ele>220.25</ele><time>2026-04-11T10:42:20.942Z</time></trkpt><trkpt lat="45.889122179753095" lon="13.54674977913381"><ele>221.0</ele><time>2026-04-11T10:42:21.942Z</time></trkpt><trkpt lat="45.88913998127699" lon="13.54691517950932"><ele>220.75</ele><time>2026-04-11T10:42:22.942Z</time></trkpt><trkpt lat="45.88916283173924" lon="13.547100205702112"><ele>220.5</ele><time>2026-04-11T10:42:23.942Z</time></trkpt><trkpt lat="45.88918917836369" lon="13.547293609386218"><ele>220.25</ele><time>2026-04-11T10:42:24.942Z</time></trkpt><trkpt lat="45.88921798461265" lon="13.547476304948223"><ele>220.0</ele><time>2026-04-11T10:42:25.942Z</time></trkpt><trkpt lat="45.889261166367206" lon="13.547653868702008"><ele>214.0</ele><time>2026-04-11T10:42:26.942Z</time></trkpt><trkpt lat="45.88929463671487" lon="13.547828862023248"><ele>208.0</ele><time>2026-04-11T10:42:27.942Z</time></trkpt><trkpt lat="45.88932752319482" lon="13.548001871508527"><ele>202.0</ele><time>2026-04-11T10:42:28.942Z</time></trkpt><trkpt lat="45.88935292348435" lon="13.54816044735294"><ele>196.0</ele><time>2026-04-11T10:42:29.942Z</time></trkpt><trkpt lat="45.88936676873423" lon="13.548298506214541"><ele>196.0</ele><time>2026-04-11T10:42:30.942Z</time></trkpt><trkpt lat="45.88936174456137" lon="13.548475548891089"><ele>196.0</ele><time>2026-04-11T10:42:31.942Z</time></trkpt><trkpt lat="45.889344325510805" lon="13.548622811148507"><ele>196.0</ele><time>2026-04-11T10:42:32.942Z</time></trkpt><trkpt lat="45.889302540758564" lon="13.548780366384062"><ele>196.0</ele><time>2026-04-11T10:42:33.942Z</time></trkpt><trkpt lat="45.889290228282285" lon="13.54892038632287"><ele>196.0</ele><time>2026-04-11T10:42:34.942Z</time></trkpt><trkpt lat="45.889298527571825" lon="13.549056869560408"><ele>195.20000000000002</ele><time>2026-04-11T10:42:35.942Z</time></trkpt><trkpt lat="45.8892870523458" lon="13.549190844806935"><ele>194.4</ele><time>2026-04-11T10:42:36.942Z</time></trkpt><trkpt lat="45.88926045917931" lon="13.549310335507824"><ele>193.6</ele><time>2026-04-11T10:42:37.942Z</time></trkpt><trkpt lat="45.88920475130602" lon="13.549415441721703"><ele>192.8</ele><time>2026-04-11T10:42:38.942Z</time></trkpt><trkpt lat="45.889157245329955" lon="13.549518271328877"><ele>192.0</ele><time>2026-04-11T10:42:39.942Z</time></trkpt><trkpt lat="45.88910184555691" lon="13.549621596499424"><ele>195.0</ele><time>2026-04-11T10:42:40.942Z</time></trkpt><trkpt lat="45.88904872290376" lon="13.549712724339587"><ele>198.0</ele><time>2026-04-11T10:42:41.942Z</time></trkpt><trkpt lat="45.88898356194417" lon="13.54980925563875"><ele>201.0</ele><time>2026-04-11T10:42:42.942Z</time></trkpt><trkpt lat="45.88890993429283" lon="13.54990922492674"><ele>204.0</ele><time>2026-04-11T10:42:43.942Z</time></trkpt><trkpt lat="45.88883628019959" lon="13.550006422778099"><ele>207.0</ele><time>2026-04-11T10:42:44.942Z</time></trkpt><trkpt lat="45.888755258605286" lon="13.55011106886992"><ele>207.0</ele><time>2026-04-11T10:42:45.942Z</time></trkpt><trkpt lat="45.88868276278293" lon="13.550202981562364"><ele>207.0</ele><time>2026-04-11T10:42:46.942Z</time></trkpt><trkpt lat="45.888610184821665" lon="13.550295905893183"><ele>207.0</ele><time>2026-04-11T10:42:47.942Z</time></trkpt><trkpt lat="45.88853408812364" lon="13.550389329224865"><ele>207.0</ele><time>2026-04-11T10:42:48.942Z</time></trkpt><trkpt lat="45.88845158730944" lon="13.550479145591758"><ele>207.0</ele><time>2026-04-11T10:42:49.942Z</time></trkpt><trkpt lat="45.88836773194552" lon="13.550553420887752"><ele>210.0</ele><time>2026-04-11T10:42:50.942Z</time></trkpt><trkpt lat="45.88827953393763" lon="13.550631676689521"><ele>213.0</ele><time>2026-04-11T10:42:51.942Z</time></trkpt><trkpt lat="45.888184485073445" lon="13.550670790112287"><ele>216.0</ele><time>2026-04-11T10:42:52.942Z</time></trkpt><trkpt lat="45.88811485829727" lon="13.550741203621989"><ele>219.0</ele><time>2026-04-11T10:42:53.942Z</time></trkpt><trkpt lat="45.888056435152905" lon="13.550793988075693"><ele>222.0</ele><time>2026-04-11T10:42:54.942Z</time></trkpt><trkpt lat="45.88806502422856" lon="13.550950878616106"><ele>222.0</ele><time>2026-04-11T10:42:56.942Z</time></trkpt><trkpt lat="45.88811533679911" lon="13.55104400203839"><ele>222.0</ele><time>2026-04-11T10:42:57.942Z</time></trkpt><trkpt lat="45.8881550050846" lon="13.551120433296381"><ele>222.0</ele><time>2026-04-11T10:42:58.942Z</time></trkpt><trkpt lat="45.88822354653647" lon="13.551177958780581"><ele>222.0</ele><time>2026-04-11T10:42:59.942Z</time></trkpt><trkpt lat="45.88826837789985" lon="13.551294688233192"><ele>222.0</ele><time>2026-04-11T10:43:00.942Z</time></trkpt><trkpt lat="45.888334848165606" lon="13.551420133615139"><ele>222.0</ele><time>2026-04-11T10:43:01.942Z</time></trkpt><trkpt lat="45.88840074410743" lon="13.551539051937464"><ele>221.0</ele><time>2026-04-11T10:43:02.942Z</time></trkpt><trkpt lat="45.88845542604389" lon="13.551658378406373"><ele>220.0</ele><time>2026-04-11T10:43:03.942Z</time></trkpt><trkpt lat="45.88851726873201" lon="13.551780643949222"><ele>219.0</ele><time>2026-04-11T10:43:04.942Z</time></trkpt><trkpt lat="45.88856163709889" lon="13.551883321075117"><ele>218.0</ele><time>2026-04-11T10:43:05.942Z</time></trkpt><trkpt lat="45.88857637247942" lon="13.552038024452138"><ele>217.0</ele><time>2026-04-11T10:43:06.942Z</time></trkpt><trkpt lat="45.88858728536878" lon="13.55221318340614"><ele>217.0</ele><time>2026-04-11T10:43:07.942Z</time></trkpt><trkpt lat="45.888546307281196" lon="13.552378757664888"><ele>217.0</ele><time>2026-04-11T10:43:08.942Z</time></trkpt><trkpt lat="45.88853649040844" lon="13.552575632484876"><ele>217.0</ele><time>2026-04-11T10:43:09.942Z</time></trkpt><trkpt lat="45.888561050998916" lon="13.552759346194911"><ele>217.0</ele><time>2026-04-11T10:43:10.941Z</time></trkpt><trkpt lat="45.88857328341206" lon="13.552919388656388"><ele>216.39999999999998</ele><time>2026-04-11T10:43:11.941Z</time></trkpt><trkpt lat="45.88857046528332" lon="13.553083822502913"><ele>215.79999999999998</ele><time>2026-04-11T10:43:12.941Z</time></trkpt><trkpt lat="45.88855360341487" lon="13.553235602369222"><ele>215.2</ele><time>2026-04-11T10:43:13.941Z</time></trkpt><trkpt lat="45.88847605929859" lon="13.553333269011892"><ele>214.6</ele><time>2026-04-11T10:43:14.941Z</time></trkpt><trkpt lat="45.888393837568145" lon="13.553390953864593"><ele>214.0</ele><time>2026-04-11T10:43:15.941Z</time></trkpt><trkpt lat="45.88828742305818" lon="13.553459209037905"><ele>215.39999999999998</ele><time>2026-04-11T10:43:16.941Z</time></trkpt><trkpt lat="45.88819876888145" lon="13.553532466735335"><ele>216.79999999999998</ele><time>2026-04-11T10:43:17.941Z</time></trkpt><trkpt lat="45.88811604715654" lon="13.553643030857051"><ele>218.20000000000002</ele><time>2026-04-11T10:43:18.941Z</time></trkpt><trkpt lat="45.888035531866194" lon="13.553752198987503"><ele>219.60000000000002</ele><time>2026-04-11T10:43:19.941Z</time></trkpt><trkpt lat="45.88798012481182" lon="13.553861176758145"><ele>221.0</ele><time>2026-04-11T10:43:20.941Z</time></trkpt><trkpt lat="45.88790738125381" lon="13.553951805857103"><ele>221.00000000000003</ele><time>2026-04-11T10:43:21.941Z</time></trkpt><trkpt lat="45.887866411894166" lon="13.554031905050254"><ele>221.0</ele><time>2026-04-11T10:43:22.941Z</time></trkpt><trkpt lat="45.887830645952604" lon="13.554125515305294"><ele>221.0</ele><time>2026-04-11T10:43:23.941Z</time></trkpt><trkpt lat="45.88784972801002" lon="13.554260457608182"><ele>221.0</ele><time>2026-04-11T10:43:24.941Z</time></trkpt><trkpt lat="45.88784989831341" lon="13.554371550413354"><ele>221.00000000000003</ele><time>2026-04-11T10:43:25.941Z</time></trkpt><trkpt lat="45.88783988559292" lon="13.554485707073846"><ele>221.0</ele><time>2026-04-11T10:43:26.941Z</time></trkpt><trkpt lat="45.88788779905121" lon="13.554633009711628"><ele>220.75</ele><time>2026-04-11T10:43:27.941Z</time></trkpt><trkpt lat="45.88795413197913" lon="13.554766853564724"><ele>220.5</ele><time>2026-04-11T10:43:28.941Z</time></trkpt><trkpt lat="45.88803128067123" lon="13.554867087134486"><ele>220.25</ele><time>2026-04-11T10:43:29.941Z</time></trkpt><trkpt lat="45.888133224794224" lon="13.554920567449622"><ele>220.0</ele><time>2026-04-11T10:43:30.941Z</time></trkpt><trkpt lat="45.88825085851913" lon="13.554998606349352"><ele>220.0</ele><time>2026-04-11T10:43:31.941Z</time></trkpt><trkpt lat="45.88837093910277" lon="13.55506762935478"><ele>220.0</ele><time>2026-04-11T10:43:32.941Z</time></trkpt><trkpt lat="45.88847697756764" lon="13.555126804950687"><ele>220.0</ele><time>2026-04-11T10:43:33.941Z</time></trkpt><trkpt lat="45.8885716747436" lon="13.555202359593086"><ele>220.0</ele><time>2026-04-11T10:43:34.941Z</time></trkpt><trkpt lat="45.88862553648101" lon="13.555318196820417"><ele>220.0</ele><time>2026-04-11T10:43:35.941Z</time></trkpt><trkpt lat="45.88864236130448" lon="13.55546198610526"><ele>221.25</ele><time>2026-04-11T10:43:36.941Z</time></trkpt><trkpt lat="45.888620056274995" lon="13.555630501591562"><ele>222.5</ele><time>2026-04-11T10:43:37.941Z</time></trkpt><trkpt lat="45.88860930746101" lon="13.555785911635967"><ele>223.75</ele><time>2026-04-11T10:43:38.941Z</time></trkpt><trkpt lat="45.88857671710626" lon="13.555923202231886"><ele>225.0</ele><time>2026-04-11T10:43:39.941Z</time></trkpt><trkpt lat="45.88851339121677" lon="13.55610372852617"><ele>224.66666666666669</ele><time>2026-04-11T10:43:40.941Z</time></trkpt><trkpt lat="45.88846018348125" lon="13.556314755586605"><ele>224.33333333333334</ele><time>2026-04-11T10:43:41.941Z</time></trkpt><trkpt lat="45.88840104673449" lon="13.556529400897292"><ele>224.0</ele><time>2026-04-11T10:43:42.941Z</time></trkpt><trkpt lat="45.88832219126294" lon="13.556759974541324"><ele>224.0</ele><time>2026-04-11T10:43:43.941Z</time></trkpt><trkpt lat="45.888259045189606" lon="13.556957122797932"><ele>224.0</ele><time>2026-04-11T10:43:44.941Z</time></trkpt><trkpt lat="45.88820286116519" lon="13.557140411225859"><ele>224.0</ele><time>2026-04-11T10:43:45.941Z</time></trkpt><trkpt lat="45.88816255390572" lon="13.557311447292605"><ele>224.0</ele><time>2026-04-11T10:43:46.941Z</time></trkpt><trkpt lat="45.88813657966617" lon="13.557491420222354"><ele>224.6</ele><time>2026-04-11T10:43:47.941Z</time></trkpt><trkpt lat="45.88813304753889" lon="13.55766438663771"><ele>225.2</ele><time>2026-04-11T10:43:48.941Z</time></trkpt><trkpt lat="45.88813614220078" lon="13.557821645018944"><ele>225.79999999999998</ele><time>2026-04-11T10:43:49.941Z</time></trkpt><trkpt lat="45.88812354148838" lon="13.557957332531153"><ele>226.39999999999998</ele><time>2026-04-11T10:43:50.941Z</time></trkpt><trkpt lat="45.88807431585188" lon="13.558068438457545"><ele>227.0</ele><time>2026-04-11T10:43:51.941Z</time></trkpt><trkpt lat="45.88798829146928" lon="13.55813225468395"><ele>227.2</ele><time>2026-04-11T10:43:52.941Z</time></trkpt><trkpt lat="45.887892102148115" lon="13.558189965717919"><ele>227.39999999999998</ele><time>2026-04-11T10:43:53.941Z</time></trkpt><trkpt lat="45.88778960674545" lon="13.55823857772123"><ele>227.60000000000002</ele><time>2026-04-11T10:43:54.941Z</time></trkpt><trkpt lat="45.88769112638797" lon="13.558259904599083"><ele>227.8</ele><time>2026-04-11T10:43:55.941Z</time></trkpt><trkpt lat="45.88758358773363" lon="13.55821443382722"><ele>228.0</ele><time>2026-04-11T10:43:56.941Z</time></trkpt><trkpt lat="45.887472357571596" lon="13.558111379520648"><ele>228.0</ele><time>2026-04-11T10:43:57.941Z</time></trkpt><trkpt lat="45.88733419420244" lon="13.558061271115742"><ele>228.0</ele><time>2026-04-11T10:43:58.941Z</time></trkpt><trkpt lat="45.8871895465321" lon="13.558015131456107"><ele>228.0</ele><time>2026-04-11T10:43:59.941Z</time></trkpt><trkpt lat="45.88706011332476" lon="13.557994857951527"><ele>228.0</ele><time>2026-04-11T10:44:00.941Z</time></trkpt><trkpt lat="45.88693016415509" lon="13.558003144648149"><ele>228.0</ele><time>2026-04-11T10:44:01.941Z</time></trkpt><trkpt lat="45.88680209694324" lon="13.558016108714718"><ele>228.0</ele><time>2026-04-11T10:44:02.941Z</time></trkpt><trkpt lat="45.886673398129695" lon="13.558022293073455"><ele>228.0</ele><time>2026-04-11T10:44:03.941Z</time></trkpt><trkpt lat="45.88655877783132" lon="13.558025750419725"><ele>228.0</ele><time>2026-04-11T10:44:04.94Z</time></trkpt><trkpt lat="45.88645869477264" lon="13.55803869574756"><ele>227.83333333333334</ele><time>2026-04-11T10:44:05.94Z</time></trkpt><trkpt lat="45.88638135929075" lon="13.558073952967819"><ele>227.66666666666669</ele><time>2026-04-11T10:44:06.94Z</time></trkpt><trkpt lat="45.88631186202571" lon="13.558114925315532"><ele>227.5</ele><time>2026-04-11T10:44:07.94Z</time></trkpt><trkpt lat="45.88629023792675" lon="13.558219900429984"><ele>227.33333333333334</ele><time>2026-04-11T10:44:08.94Z</time></trkpt><trkpt lat="45.88626457477809" lon="13.558321337338262"><ele>227.16666666666669</ele><time>2026-04-11T10:44:09.94Z</time></trkpt><trkpt lat="45.886247769191215" lon="13.558421799603295"><ele>227.0</ele><time>2026-04-11T10:44:10.94Z</time></trkpt><trkpt lat="45.886205819622006" lon="13.558536970520029"><ele>227.0</ele><time>2026-04-11T10:44:11.94Z</time></trkpt><trkpt lat="45.88617710053055" lon="13.558669872326202"><ele>227.0</ele><time>2026-04-11T10:44:12.94Z</time></trkpt><trkpt lat="45.88616854071621" lon="13.558799142909916"><ele>227.0</ele><time>2026-04-11T10:44:13.94Z</time></trkpt><trkpt lat="45.88613619261351" lon="13.558933144225536"><ele>227.0</ele><time>2026-04-11T10:44:14.94Z</time></trkpt><trkpt lat="45.88609564189624" lon="13.559063850734468"><ele>227.0</ele><time>2026-04-11T10:44:15.94Z</time></trkpt><trkpt lat="45.88605082233315" lon="13.559168797703684"><ele>227.39999999999998</ele><time>2026-04-11T10:44:16.94Z</time></trkpt><trkpt lat="45.885978686438136" lon="13.559246090103262"><ele>227.79999999999998</ele><time>2026-04-11T10:44:17.94Z</time></trkpt><trkpt lat="45.885892259082226" lon="13.559312614900584"><ele>228.2</ele><time>2026-04-11T10:44:18.94Z</time></trkpt><trkpt lat="45.88579819997803" lon="13.559376865288522"><ele>228.6</ele><time>2026-04-11T10:44:19.94Z</time></trkpt><trkpt lat="45.885701975786006" lon="13.559407086440391"><ele>229.0</ele><time>2026-04-11T10:44:20.94Z</time></trkpt><trkpt lat="45.88560374682491" lon="13.55941427367743"><ele>229.0</ele><time>2026-04-11T10:44:21.94Z</time></trkpt><trkpt lat="45.88551323169801" lon="13.559417119023044"><ele>228.99999999999997</ele><time>2026-04-11T10:44:22.94Z</time></trkpt><trkpt lat="45.885413422437246" lon="13.559425821731363"><ele>228.99999999999997</ele><time>2026-04-11T10:44:23.94Z</time></trkpt><trkpt lat="45.885315871264154" lon="13.559462890361441"><ele>229.0</ele><time>2026-04-11T10:44:24.94Z</time></trkpt><trkpt lat="45.88521800564441" lon="13.559520444250627"><ele>229.0</ele><time>2026-04-11T10:44:25.94Z</time></trkpt><trkpt lat="45.88512488765831" lon="13.559586500372776"><ele>227.39999999999998</ele><time>2026-04-11T10:44:26.94Z</time></trkpt><trkpt lat="45.885026679867046" lon="13.559607907230726"><ele>225.79999999999998</ele><time>2026-04-11T10:44:27.94Z</time></trkpt><trkpt lat="45.884926222227044" lon="13.559646530008406"><ele>224.20000000000002</ele><time>2026-04-11T10:44:28.94Z</time></trkpt><trkpt lat="45.884833515046864" lon="13.559713079572015"><ele>222.60000000000002</ele><time>2026-04-11T10:44:29.94Z</time></trkpt><trkpt lat="45.88473636146" lon="13.559778121097631"><ele>221.0</ele><time>2026-04-11T10:44:30.94Z</time></trkpt><trkpt lat="45.88465491215631" lon="13.559853184212438"><ele>221.00000000000003</ele><time>2026-04-11T10:44:31.94Z</time></trkpt><trkpt lat="45.88457504884334" lon="13.559934545087781"><ele>221.0</ele><time>2026-04-11T10:44:32.94Z</time></trkpt><trkpt lat="45.88450141493381" lon="13.56002723020536"><ele>221.0</ele><time>2026-04-11T10:44:33.94Z</time></trkpt><trkpt lat="45.884458367012684" lon="13.56011798325928"><ele>221.0</ele><time>2026-04-11T10:44:34.94Z</time></trkpt><trkpt lat="45.884436230583006" lon="13.560210389492504"><ele>221.00000000000003</ele><time>2026-04-11T10:44:35.94Z</time></trkpt><trkpt lat="45.884454338129885" lon="13.56032917424953"><ele>221.0</ele><time>2026-04-11T10:44:36.94Z</time></trkpt><trkpt lat="45.88445616507703" lon="13.56042568122312"><ele>220.20000000000002</ele><time>2026-04-11T10:44:37.94Z</time></trkpt><trkpt lat="45.884489664464546" lon="13.560568168495282"><ele>219.40000000000003</ele><time>2026-04-11T10:44:39.94Z</time></trkpt><trkpt lat="45.884443482708974" lon="13.560646538384164"><ele>218.6</ele><time>2026-04-11T10:44:40.94Z</time></trkpt><trkpt lat="45.88427552917222" lon="13.560751418165905"><ele>217.8</ele><time>2026-04-11T10:44:42.94Z</time></trkpt><trkpt lat="45.88419580489547" lon="13.560798521535515"><ele>217.0</ele><time>2026-04-11T10:44:43.94Z</time></trkpt><trkpt lat="45.88412486295534" lon="13.560857010818502"><ele>216.83333333333331</ele><time>2026-04-11T10:44:44.94Z</time></trkpt><trkpt lat="45.88404558142448" lon="13.56089728840417"><ele>216.66666666666666</ele><time>2026-04-11T10:44:45.94Z</time></trkpt><trkpt lat="45.88398094912917" lon="13.560913791448495"><ele>216.5</ele><time>2026-04-11T10:44:46.94Z</time></trkpt><trkpt lat="45.88389631387571" lon="13.560893037972946"><ele>216.33333333333331</ele><time>2026-04-11T10:44:47.94Z</time></trkpt><trkpt lat="45.88380943233104" lon="13.560872770574885"><ele>216.16666666666666</ele><time>2026-04-11T10:44:48.94Z</time></trkpt><trkpt lat="45.883712602655514" lon="13.560863118221434"><ele>216.0</ele><time>2026-04-11T10:44:49.94Z</time></trkpt><trkpt lat="45.883612508439015" lon="13.560852102143231"><ele>216.0</ele><time>2026-04-11T10:44:50.94Z</time></trkpt><trkpt lat="45.8835158850623" lon="13.560818990955607"><ele>216.00000000000003</ele><time>2026-04-11T10:44:51.94Z</time></trkpt><trkpt lat="45.88341935190774" lon="13.560776913057603"><ele>216.00000000000003</ele><time>2026-04-11T10:44:52.94Z</time></trkpt><trkpt lat="45.88332382475665" lon="13.560742628799503"><ele>216.0</ele><time>2026-04-11T10:44:53.94Z</time></trkpt><trkpt lat="45.88322082599698" lon="13.560702776343877"><ele>216.0</ele><time>2026-04-11T10:44:54.94Z</time></trkpt><trkpt lat="45.883121612639606" lon="13.560655335998627"><ele>213.75</ele><time>2026-04-11T10:44:55.94Z</time></trkpt><trkpt lat="45.883014546831404" lon="13.560598202938186"><ele>211.5</ele><time>2026-04-11T10:44:56.94Z</time></trkpt><trkpt lat="45.8829038126271" lon="13.560547379211695"><ele>209.25</ele><time>2026-04-11T10:44:57.94Z</time></trkpt><trkpt lat="45.88279012319488" lon="13.560494049578441"><ele>207.0</ele><time>2026-04-11T10:44:58.94Z</time></trkpt><trkpt lat="45.882664438704865" lon="13.560435750225558"><ele>205.0</ele><time>2026-04-11T10:44:59.94Z</time></trkpt><trkpt lat="45.882551990857" lon="13.560354726073518"><ele>203.0</ele><time>2026-04-11T10:45:00.94Z</time></trkpt><trkpt lat="45.88244128086801" lon="13.560241781965154"><ele>201.0</ele><time>2026-04-11T10:45:01.94Z</time></trkpt><trkpt lat="45.88232890386994" lon="13.560100499042269"><ele>199.0</ele><time>2026-04-11T10:45:02.94Z</time></trkpt><trkpt lat="45.88221529258302" lon="13.559964116908537"><ele>199.0</ele><time>2026-04-11T10:45:03.94Z</time></trkpt><trkpt lat="45.88209937751418" lon="13.559853266805716"><ele>199.0</ele><time>2026-04-11T10:45:04.94Z</time></trkpt><trkpt lat="45.88198293394671" lon="13.55976677784841"><ele>199.0</ele><time>2026-04-11T10:45:05.94Z</time></trkpt><trkpt lat="45.88186694037301" lon="13.559710868873784"><ele>199.0</ele><time>2026-04-11T10:45:06.94Z</time></trkpt><trkpt lat="45.881761533508595" lon="13.559666093563468"><ele>198.83333333333331</ele><time>2026-04-11T10:45:07.94Z</time></trkpt><trkpt lat="45.88167382211347" lon="13.559644854258138"><ele>198.66666666666666</ele><time>2026-04-11T10:45:08.94Z</time></trkpt><trkpt lat="45.88159759781765" lon="13.559613045549154"><ele>198.5</ele><time>2026-04-11T10:45:09.94Z</time></trkpt><trkpt lat="45.88153711007178" lon="13.559564479168056"><ele>198.33333333333331</ele><time>2026-04-11T10:45:10.94Z</time></trkpt><trkpt lat="45.88147710800148" lon="13.559510036105236"><ele>198.16666666666666</ele><time>2026-04-11T10:45:11.94Z</time></trkpt><trkpt lat="45.8813973069725" lon="13.559477442982923"><ele>198.0</ele><time>2026-04-11T10:45:12.94Z</time></trkpt><trkpt lat="45.88129798604895" lon="13.55942400906467"><ele>198.0</ele><time>2026-04-11T10:45:13.94Z</time></trkpt><trkpt lat="45.88118314929359" lon="13.559431920067013"><ele>198.0</ele><time>2026-04-11T10:45:14.94Z</time></trkpt><trkpt lat="45.88106818706402" lon="13.559392161830218"><ele>198.0</ele><time>2026-04-11T10:45:15.94Z</time></trkpt><trkpt lat="45.88096437816279" lon="13.55937162933965"><ele>198.0</ele><time>2026-04-11T10:45:16.94Z</time></trkpt><trkpt lat="45.8808606429594" lon="13.559349810656354"><ele>198.0</ele><time>2026-04-11T10:45:17.94Z</time></trkpt><trkpt lat="45.880766991656074" lon="13.559334329650403"><ele>197.0</ele><time>2026-04-11T10:45:18.94Z</time></trkpt><trkpt lat="45.88067802299117" lon="13.559322665492846"><ele>196.0</ele><time>2026-04-11T10:45:19.94Z</time></trkpt><trkpt lat="45.88060756559894" lon="13.559305181876626"><ele>195.0</ele><time>2026-04-11T10:45:20.94Z</time></trkpt><trkpt lat="45.88051833418581" lon="13.55930582669352"><ele>194.0</ele><time>2026-04-11T10:45:22.94Z</time></trkpt><trkpt lat="45.880415118201974" lon="13.559452609150776"><ele>193.0</ele><time>2026-04-11T10:45:25.94Z</time></trkpt><trkpt lat="45.88032983299855" lon="13.5595819760828"><ele>191.8</ele><time>2026-04-11T10:45:27.94Z</time></trkpt><trkpt lat="45.880278807858154" lon="13.559661489069242"><ele>190.60000000000002</ele><time>2026-04-11T10:45:28.94Z</time></trkpt><trkpt lat="45.88022544168928" lon="13.559766397443914"><ele>189.39999999999998</ele><time>2026-04-11T10:45:29.94Z</time></trkpt><trkpt lat="45.88018882350559" lon="13.55990767037962"><ele>188.2</ele><time>2026-04-11T10:45:30.939Z</time></trkpt><trkpt lat="45.88016503468041" lon="13.560048942085032"><ele>187.0</ele><time>2026-04-11T10:45:31.939Z</time></trkpt><trkpt lat="45.88016813014926" lon="13.560202991961283"><ele>187.39999999999998</ele><time>2026-04-11T10:45:32.939Z</time></trkpt><trkpt lat="45.88018670666214" lon="13.560373634714402"><ele>187.79999999999998</ele><time>2026-04-11T10:45:33.939Z</time></trkpt><trkpt lat="45.88020111215344" lon="13.560539431319224"><ele>188.2</ele><time>2026-04-11T10:45:34.939Z</time></trkpt><trkpt lat="45.88021112213011" lon="13.560696532329843"><ele>188.6</ele><time>2026-04-11T10:45:35.939Z</time></trkpt><trkpt lat="45.880231398635104" lon="13.560825130578358"><ele>189.0</ele><time>2026-04-11T10:45:36.939Z</time></trkpt><trkpt lat="45.88026081335013" lon="13.560943916205789"><ele>189.0</ele><time>2026-04-11T10:45:37.939Z</time></trkpt><trkpt lat="45.88029050273032" lon="13.561066425612019"><ele>189.0</ele><time>2026-04-11T10:45:38.939Z</time></trkpt><trkpt lat="45.88032101320401" lon="13.56117695534518"><ele>189.0</ele><time>2026-04-11T10:45:39.939Z</time></trkpt><trkpt lat="45.88034294512959" lon="13.561312114682881"><ele>189.0</ele><time>2026-04-11T10:45:40.939Z</time></trkpt><trkpt lat="45.88035627220043" lon="13.561456812330883"><ele>189.0</ele><time>2026-04-11T10:45:41.939Z</time></trkpt><trkpt lat="45.8803678296108" lon="13.56161286683062"><ele>189.0</ele><time>2026-04-11T10:45:42.939Z</time></trkpt><trkpt lat="45.88037030955158" lon="13.561766943280562"><ele>189.0</ele><time>2026-04-11T10:45:43.939Z</time></trkpt><trkpt lat="45.88034835289433" lon="13.56191658743097"><ele>189.0</ele><time>2026-04-11T10:45:44.939Z</time></trkpt><trkpt lat="45.880322426797164" lon="13.562076787276146"><ele>189.0</ele><time>2026-04-11T10:45:45.939Z</time></trkpt><trkpt lat="45.880302889102715" lon="13.56223650926187"><ele>189.0</ele><time>2026-04-11T10:45:46.939Z</time></trkpt><trkpt lat="45.88028906202473" lon="13.562399384891076"><ele>189.39999999999998</ele><time>2026-04-11T10:45:47.939Z</time></trkpt><trkpt lat="45.88027220339099" lon="13.56255627139607"><ele>189.8</ele><time>2026-04-11T10:45:48.939Z</time></trkpt><trkpt lat="45.88025230813036" lon="13.562703368237086"><ele>190.2</ele><time>2026-04-11T10:45:49.939Z</time></trkpt><trkpt lat="45.880237488135435" lon="13.562817500440211"><ele>190.60000000000002</ele><time>2026-04-11T10:45:50.939Z</time></trkpt><trkpt lat="45.880215995809586" lon="13.56292947783968"><ele>191.0</ele><time>2026-04-11T10:45:52.939Z</time></trkpt><trkpt lat="45.88036815996471" lon="13.563064654098547"><ele>189.5</ele><time>2026-04-11T10:45:56.939Z</time></trkpt><trkpt lat="45.88044098780207" lon="13.563083809890438"><ele>188.0</ele><time>2026-04-11T10:45:57.939Z</time></trkpt><trkpt lat="45.880512056885244" lon="13.563102562571082"><ele>186.5</ele><time>2026-04-11T10:45:58.939Z</time></trkpt><trkpt lat="45.88059286545037" lon="13.563107811861713"><ele>185.0</ele><time>2026-04-11T10:45:59.939Z</time></trkpt><trkpt lat="45.880682079828794" lon="13.563120465338372"><ele>183.5</ele><time>2026-04-11T10:46:00.939Z</time></trkpt><trkpt lat="45.88076267378717" lon="13.563136613507503"><ele>182.0</ele><time>2026-04-11T10:46:01.939Z</time></trkpt><trkpt lat="45.88083340541756" lon="13.563179552506117"><ele>182.0</ele><time>2026-04-11T10:46:02.939Z</time></trkpt><trkpt lat="45.88088994027132" lon="13.563266708045251"><ele>182.0</ele><time>2026-04-11T10:46:03.939Z</time></trkpt><trkpt lat="45.88091274888195" lon="13.563384130723708"><ele>182.0</ele><time>2026-04-11T10:46:04.939Z</time></trkpt><trkpt lat="45.88091343287581" lon="13.563522359557675"><ele>182.0</ele><time>2026-04-11T10:46:05.939Z</time></trkpt><trkpt lat="45.88094321632498" lon="13.563656827919683"><ele>182.0</ele><time>2026-04-11T10:46:06.939Z</time></trkpt><trkpt lat="45.880998143364465" lon="13.563774026944287"><ele>182.66666666666666</ele><time>2026-04-11T10:46:07.939Z</time></trkpt><trkpt lat="45.88105760570316" lon="13.56384500380745"><ele>183.33333333333331</ele><time>2026-04-11T10:46:08.939Z</time></trkpt><trkpt lat="45.881088358356074" lon="13.56393082477531"><ele>184.0</ele><time>2026-04-11T10:46:10.939Z</time></trkpt><trkpt lat="45.88104340770256" lon="13.564053312168218"><ele>184.66666666666666</ele><time>2026-04-11T10:46:12.939Z</time></trkpt><trkpt lat="45.88101744059646" lon="13.564142940755401"><ele>185.33333333333334</ele><time>2026-04-11T10:46:13.939Z</time></trkpt><trkpt lat="45.88100143876347" lon="13.564233789770642"><ele>186.0</ele><time>2026-04-11T10:46:14.939Z</time></trkpt><trkpt lat="45.88100673600383" lon="13.564400804601737"><ele>186.0</ele><time>2026-04-11T10:46:16.939Z</time></trkpt><trkpt lat="45.88097347859706" lon="13.564507281106055"><ele>186.0</ele><time>2026-04-11T10:46:20.939Z</time></trkpt><trkpt lat="45.880995912921" lon="13.564669085944548"><ele>186.0</ele><time>2026-04-11T10:46:35.938Z</time></trkpt><trkpt lat="45.881090501198905" lon="13.564765121730753"><ele>186.0</ele><time>2026-04-11T10:46:37.938Z</time></trkpt><trkpt lat="45.8811469027815" lon="13.564902399757646"><ele>186.0</ele><time>2026-04-11T10:46:39.937Z</time></trkpt><trkpt lat="45.881221321904555" lon="13.565032182106762"><ele>185.4</ele><time>2026-04-11T10:46:41.938Z</time></trkpt><trkpt lat="45.88124384077892" lon="13.565182561593621"><ele>184.8</ele><time>2026-04-11T10:46:43.938Z</time></trkpt><trkpt lat="45.88126687752051" lon="13.565352509923798"><ele>184.20000000000002</ele><time>2026-04-11T10:46:45.938Z</time></trkpt><trkpt lat="45.88124353569019" lon="13.565456904531697"><ele>183.60000000000002</ele><time>2026-04-11T10:46:46.938Z</time></trkpt><trkpt lat="45.88122027352263" lon="13.565550237092097"><ele>183.0</ele><time>2026-04-11T10:46:47.938Z</time></trkpt><trkpt lat="45.881202020387484" lon="13.565658352107272"><ele>182.71428571428572</ele><time>2026-04-11T10:46:48.937Z</time></trkpt><trkpt lat="45.88118217733802" lon="13.565760128280877"><ele>182.42857142857144</ele><time>2026-04-11T10:46:49.937Z</time></trkpt><trkpt lat="45.88115925231129" lon="13.565863767933116"><ele>182.14285714285714</ele><time>2026-04-11T10:46:50.937Z</time></trkpt><trkpt lat="45.881134027413985" lon="13.565965789166125"><ele>181.85714285714286</ele><time>2026-04-11T10:46:51.937Z</time></trkpt><trkpt lat="45.88109622850961" lon="13.56605734673496"><ele>181.57142857142856</ele><time>2026-04-11T10:46:52.937Z</time></trkpt><trkpt lat="45.88106329979721" lon="13.56614810337935"><ele>181.28571428571428</ele><time>2026-04-11T10:46:53.937Z</time></trkpt><trkpt lat="45.88102888929195" lon="13.566244445520335"><ele>181.0</ele><time>2026-04-11T10:46:54.937Z</time></trkpt><trkpt lat="45.88099028446251" lon="13.566350398673674"><ele>181.66666666666669</ele><time>2026-04-11T10:46:55.937Z</time></trkpt><trkpt lat="45.880969161446885" lon="13.566462368503418"><ele>182.33333333333334</ele><time>2026-04-11T10:46:56.937Z</time></trkpt><trkpt lat="45.880953695736004" lon="13.566576379460868"><ele>183.0</ele><time>2026-04-11T10:46:57.937Z</time></trkpt><trkpt lat="45.880941221089266" lon="13.566690079532954"><ele>183.66666666666666</ele><time>2026-04-11T10:46:58.937Z</time></trkpt><trkpt lat="45.880940233171906" lon="13.56678835168206"><ele>184.33333333333331</ele><time>2026-04-11T10:46:59.937Z</time></trkpt><trkpt lat="45.880954494556306" lon="13.56695936151364"><ele>185.0</ele><time>2026-04-11T10:47:01.937Z</time></trkpt><trkpt lat="45.881000316081504" lon="13.567025288180934"><ele>186.8</ele><time>2026-04-11T10:47:02.937Z</time></trkpt><trkpt lat="45.88107359338117" lon="13.56716783914794"><ele>188.6</ele><time>2026-04-11T10:47:04.937Z</time></trkpt><trkpt lat="45.881112693631955" lon="13.567247423885291"><ele>190.39999999999998</ele><time>2026-04-11T10:47:06.937Z</time></trkpt><trkpt lat="45.881123843682715" lon="13.567350046203568"><ele>192.2</ele><time>2026-04-11T10:47:08.937Z</time></trkpt><trkpt lat="45.88116125486817" lon="13.56747328437573"><ele>194.0</ele><time>2026-04-11T10:47:10.937Z</time></trkpt><trkpt lat="45.881200984872535" lon="13.567626428969565"><ele>194.0</ele><time>2026-04-11T10:47:12.937Z</time></trkpt><trkpt lat="45.88122249039358" lon="13.567786839102677"><ele>194.0</ele><time>2026-04-11T10:47:14.937Z</time></trkpt><trkpt lat="45.881244557398354" lon="13.56793682450061"><ele>194.0</ele><time>2026-04-11T10:47:16.937Z</time></trkpt><trkpt lat="45.88126821806585" lon="13.56803594443593"><ele>194.0</ele><time>2026-04-11T10:47:18.937Z</time></trkpt><trkpt lat="45.881285948075245" lon="13.568153738369299"><ele>194.0</ele><time>2026-04-11T10:47:20.937Z</time></trkpt><trkpt lat="45.88132292270197" lon="13.568274800351046"><ele>194.2</ele><time>2026-04-11T10:47:22.937Z</time></trkpt><trkpt lat="45.88138744693665" lon="13.568353652563877"><ele>194.39999999999998</ele><time>2026-04-11T10:47:24.937Z</time></trkpt><trkpt lat="45.88143798198635" lon="13.56840888589898"><ele>194.6</ele><time>2026-04-11T10:47:25.937Z</time></trkpt><trkpt lat="45.881523887436714" lon="13.568476178706273"><ele>194.8</ele><time>2026-04-11T10:47:27.937Z</time></trkpt><trkpt lat="45.88162507280541" lon="13.568511774904191"><ele>195.0</ele><time>2026-04-11T10:47:29.937Z</time></trkpt><trkpt lat="45.881736814227736" lon="13.568514563836604"><ele>194.6</ele><time>2026-04-11T10:47:31.937Z</time></trkpt><trkpt lat="45.88183015398754" lon="13.568526657126363"><ele>194.2</ele><time>2026-04-11T10:47:33.937Z</time></trkpt><trkpt lat="45.88193267506818" lon="13.568535171235162"><ele>193.8</ele><time>2026-04-11T10:47:35.937Z</time></trkpt><trkpt lat="45.88204090107863" lon="13.568577910613838"><ele>193.4</ele><time>2026-04-11T10:47:37.937Z</time></trkpt><trkpt lat="45.88210127099799" lon="13.568638492709674"><ele>193.0</ele><time>2026-04-11T10:47:38.937Z</time></trkpt><trkpt lat="45.882177375370716" lon="13.568714224917732"><ele>192.66666666666666</ele><time>2026-04-11T10:47:39.937Z</time></trkpt><trkpt lat="45.88225624501035" lon="13.568753234895947"><ele>192.33333333333331</ele><time>2026-04-11T10:47:40.937Z</time></trkpt><trkpt lat="45.88233295375721" lon="13.568800030793591"><ele>192.0</ele><time>2026-04-11T10:47:41.937Z</time></trkpt><trkpt lat="45.88239503991683" lon="13.568856370876702"><ele>191.66666666666666</ele><time>2026-04-11T10:47:42.936Z</time></trkpt><trkpt lat="45.88245839084305" lon="13.568915533433978"><ele>191.33333333333331</ele><time>2026-04-11T10:47:43.936Z</time></trkpt><trkpt lat="45.88250799609265" lon="13.568973798815485"><ele>191.0</ele><time>2026-04-11T10:47:44.936Z</time></trkpt><trkpt lat="45.8826057149475" lon="13.569059472092857"><ele>190.60000000000002</ele><time>2026-04-11T10:47:47.936Z</time></trkpt><trkpt lat="45.88271043256099" lon="13.56908547716944"><ele>190.2</ele><time>2026-04-11T10:49:49.935Z</time></trkpt><trkpt lat="45.88271298209277" lon="13.569298449144032"><ele>189.8</ele><time>2026-04-11T10:50:00.935Z</time></trkpt><trkpt lat="45.88270222617856" lon="13.56944416585546"><ele>189.39999999999998</ele><time>2026-04-11T10:50:02.935Z</time></trkpt><trkpt lat="45.88270567804396" lon="13.569573767552475"><ele>189.0</ele><time>2026-04-11T10:50:04.935Z</time></trkpt><trkpt lat="45.882701204743995" lon="13.569740808640766"><ele>188.2</ele><time>2026-04-11T10:50:06.935Z</time></trkpt><trkpt lat="45.882752307904425" lon="13.569861326436756"><ele>187.39999999999998</ele><time>2026-04-11T10:50:08.935Z</time></trkpt><trkpt lat="45.88282166023635" lon="13.569964536494277"><ele>186.6</ele><time>2026-04-11T10:50:10.935Z</time></trkpt><trkpt lat="45.882861439129" lon="13.570100575369619"><ele>185.8</ele><time>2026-04-11T10:50:12.935Z</time></trkpt><trkpt lat="45.88287375907324" lon="13.570195444742561"><ele>185.0</ele><time>2026-04-11T10:50:14.935Z</time></trkpt><trkpt lat="45.882860987130464" lon="13.570340078063607"><ele>183.5</ele><time>2026-04-11T10:50:16.935Z</time></trkpt><trkpt lat="45.88281081850644" lon="13.570529643613586"><ele>182.0</ele><time>2026-04-11T10:50:18.935Z</time></trkpt><trkpt lat="45.88277480583771" lon="13.570617332509086"><ele>180.5</ele><time>2026-04-11T10:50:19.935Z</time></trkpt><trkpt lat="45.88275425364265" lon="13.570718927102764"><ele>179.0</ele><time>2026-04-11T10:50:21.934Z</time></trkpt><trkpt lat="45.88278126187359" lon="13.570801973999147"><ele>177.5</ele><time>2026-04-11T10:50:34.934Z</time></trkpt><trkpt lat="45.88277612928152" lon="13.570903483160617"><ele>176.0</ele><time>2026-04-11T10:50:36.934Z</time></trkpt><trkpt lat="45.88278867762057" lon="13.570995466627382"><ele>176.0</ele><time>2026-04-11T10:50:38.934Z</time></trkpt><trkpt lat="45.88285268367663" lon="13.571088796827405"><ele>176.0</ele><time>2026-04-11T10:50:41.934Z</time></trkpt><trkpt lat="45.88292363559639" lon="13.571074218593587"><ele>176.0</ele><time>2026-04-11T10:50:44.934Z</time></trkpt><trkpt lat="45.882985676153794" lon="13.571054417078022"><ele>176.0</ele><time>2026-04-11T10:50:46.934Z</time></trkpt><trkpt lat="45.88305540666894" lon="13.571038481818585"><ele>176.0</ele><time>2026-04-11T10:50:48.934Z</time></trkpt><trkpt lat="45.88314506578002" lon="13.57102958436775"><ele>176.0</ele><time>2026-04-11T10:50:50.934Z</time></trkpt><trkpt lat="45.88323146247803" lon="13.571026958298862"><ele>176.0</ele><time>2026-04-11T10:50:52.934Z</time></trkpt><trkpt lat="45.88334444909455" lon="13.57106697629091"><ele>176.0</ele><time>2026-04-11T10:50:55.934Z</time></trkpt><trkpt lat="45.8834173247726" lon="13.571151432921084"><ele>176.0</ele><time>2026-04-11T10:50:57.934Z</time></trkpt><trkpt lat="45.88346287270848" lon="13.571244635305693"><ele>176.0</ele><time>2026-04-11T10:50:59.933Z</time></trkpt><trkpt lat="45.88352377215008" lon="13.571315915255513"><ele>176.0</ele><time>2026-04-11T10:51:01.933Z</time></trkpt><trkpt lat="45.88361033352926" lon="13.571391417330743"><ele>174.16666666666666</ele><time>2026-04-11T10:51:04.933Z</time></trkpt><trkpt lat="45.88367943273792" lon="13.571458341831086"><ele>172.33333333333331</ele><time>2026-04-11T10:51:06.933Z</time></trkpt><trkpt lat="45.88375887931528" lon="13.571498441445636"><ele>170.5</ele><time>2026-04-11T10:51:09.933Z</time></trkpt><trkpt lat="45.8837977802158" lon="13.571583885281974"><ele>168.66666666666666</ele><time>2026-04-11T10:51:11.933Z</time></trkpt><trkpt lat="45.883777304531115" lon="13.571680507570132"><ele>166.83333333333334</ele><time>2026-04-11T10:51:14.933Z</time></trkpt><trkpt lat="45.883730061330276" lon="13.571752691969463"><ele>165.0</ele><time>2026-04-11T10:51:16.933Z</time></trkpt><trkpt lat="45.88363672745687" lon="13.571854482098464"><ele>165.0</ele><time>2026-04-11T10:51:18.933Z</time></trkpt><trkpt lat="45.88357733897216" lon="13.571945381583157"><ele>165.0</ele><time>2026-04-11T10:51:20.933Z</time></trkpt><trkpt lat="45.88352688916251" lon="13.57201662008922"><ele>165.0</ele><time>2026-04-11T10:51:22.933Z</time></trkpt><trkpt lat="45.88349769629877" lon="13.572114239921167"><ele>165.0</ele><time>2026-04-11T10:51:24.933Z</time></trkpt><trkpt lat="45.88352017342086" lon="13.572200748977167"><ele>165.0</ele><time>2026-04-11T10:59:30.93Z</time></trkpt><trkpt lat="45.88356932291891" lon="13.572259638260881"><ele>165.0</ele><time>2026-04-11T10:59:58.929Z</time></trkpt><trkpt lat="45.8836721157804" lon="13.572286415142427"><ele>163.66666666666666</ele><time>2026-04-11T11:00:04.929Z</time></trkpt><trkpt lat="45.88374459131917" lon="13.572339938655144"><ele>162.33333333333334</ele><time>2026-04-11T11:00:07.929Z</time></trkpt><trkpt lat="45.88380912212586" lon="13.572425047640618"><ele>161.0</ele><time>2026-04-11T11:00:09.929Z</time></trkpt><trkpt lat="45.88388431158551" lon="13.572531168870833"><ele>159.66666666666669</ele><time>2026-04-11T11:00:11.929Z</time></trkpt><trkpt lat="45.88395048967969" lon="13.572614994820615"><ele>158.33333333333334</ele><time>2026-04-11T11:00:13.929Z</time></trkpt><trkpt lat="45.88400122409889" lon="13.572693256857066"><ele>157.0</ele><time>2026-04-11T11:00:15.929Z</time></trkpt><trkpt lat="45.88405866581251" lon="13.572778995658973"><ele>156.14285714285714</ele><time>2026-04-11T11:00:17.929Z</time></trkpt><trkpt lat="45.8841100059621" lon="13.572856029419325"><ele>155.28571428571428</ele><time>2026-04-11T11:00:19.929Z</time></trkpt><trkpt lat="45.88416751049658" lon="13.572919551806182"><ele>154.42857142857144</ele><time>2026-04-11T11:00:21.929Z</time></trkpt><trkpt lat="45.884205565559654" lon="13.57299392116466"><ele>153.57142857142856</ele><time>2026-04-11T11:00:23.93Z</time></trkpt><trkpt lat="45.88421342007555" lon="13.573094831501983"><ele>152.71428571428572</ele><time>2026-04-11T11:00:25.931Z</time></trkpt><trkpt lat="45.88420711693054" lon="13.573209087994943"><ele>151.85714285714286</ele><time>2026-04-11T11:00:28.932Z</time></trkpt><trkpt lat="45.884188201905175" lon="13.5733256241043"><ele>151.0</ele><time>2026-04-11T11:00:31.934Z</time></trkpt><trkpt lat="45.884162870897285" lon="13.573458706442576"><ele>151.00000000000003</ele><time>2026-04-11T11:00:34.935Z</time></trkpt><trkpt lat="45.88417351751762" lon="13.573558729570216"><ele>151.0</ele><time>2026-04-11T11:00:36.935Z</time></trkpt><trkpt lat="45.88422080170129" lon="13.573641940405926"><ele>151.0</ele><time>2026-04-11T11:00:38.936Z</time></trkpt><trkpt lat="45.88425427540849" lon="13.573737912355888"><ele>151.0</ele><time>2026-04-11T11:00:41.937Z</time></trkpt><trkpt lat="45.884309539530186" lon="13.57379342879224"><ele>151.0</ele><time>2026-04-11T11:00:43.937Z</time></trkpt><trkpt lat="45.88437462387795" lon="13.573831364534506"><ele>151.00000000000003</ele><time>2026-04-11T11:00:45.937Z</time></trkpt><trkpt lat="45.88442641288879" lon="13.573890081785242"><ele>151.0</ele><time>2026-04-11T11:00:47.937Z</time></trkpt><trkpt lat="45.884506678237884" lon="13.57397176876592"><ele>148.33333333333334</ele><time>2026-04-11T11:00:50.938Z</time></trkpt><trkpt lat="45.88456557778806" lon="13.574077908283442"><ele>145.66666666666669</ele><time>2026-04-11T11:00:53.938Z</time></trkpt><trkpt lat="45.884609309244745" lon="13.574185992325054"><ele>143.0</ele><time>2026-04-11T11:00:56.938Z</time></trkpt><trkpt lat="45.88465673172854" lon="13.57427985131516"><ele>140.33333333333334</ele><time>2026-04-11T11:00:59.938Z</time></trkpt><trkpt lat="45.884651498596334" lon="13.574400901309787"><ele>137.66666666666666</ele><time>2026-04-11T11:01:03.939Z</time></trkpt><trkpt lat="45.88459989960857" lon="13.57446803346279"><ele>135.0</ele><time>2026-04-11T11:01:06.939Z</time></trkpt><trkpt lat="45.88455253873134" lon="13.574538249782105"><ele>133.33333333333334</ele><time>2026-04-11T11:01:09.939Z</time></trkpt><trkpt lat="45.88450702666809" lon="13.57461140882923"><ele>131.66666666666666</ele><time>2026-04-11T11:01:12.939Z</time></trkpt><trkpt lat="45.884491473856976" lon="13.574727833822644"><ele>130.0</ele><time>2026-04-11T11:01:15.94Z</time></trkpt><trkpt lat="45.88450158389843" lon="13.574866182970254"><ele>128.33333333333331</ele><time>2026-04-11T11:01:17.939Z</time></trkpt><trkpt lat="45.884538768321235" lon="13.574966900789574"><ele>126.66666666666666</ele><time>2026-04-11T11:01:19.939Z</time></trkpt><trkpt lat="45.884590411696436" lon="13.575020260454105"><ele>125.0</ele><time>2026-04-11T11:01:21.939Z</time></trkpt><trkpt lat="45.884669035431884" lon="13.575028747189293"><ele>124.99999999999999</ele><time>2026-04-11T11:01:24.94Z</time></trkpt><trkpt lat="45.88473621948475" lon="13.575008523644575"><ele>125.0</ele><time>2026-04-11T11:01:26.939Z</time></trkpt><trkpt lat="45.884871488020046" lon="13.575025658632018"><ele>125.0</ele><time>2026-04-11T11:01:30.939Z</time></trkpt><trkpt lat="45.8849220088431" lon="13.57509734725636"><ele>125.0</ele><time>2026-04-11T11:01:32.939Z</time></trkpt><trkpt lat="45.88497962681895" lon="13.575185513064364"><ele>124.99999999999999</ele><time>2026-04-11T11:01:34.939Z</time></trkpt><trkpt lat="45.88502695825145" lon="13.575260778459157"><ele>125.0</ele><time>2026-04-11T11:01:36.939Z</time></trkpt><trkpt lat="45.88508473771906" lon="13.5753490865113"><ele>122.33333333333333</ele><time>2026-04-11T11:01:38.939Z</time></trkpt><trkpt lat="45.88516511066565" lon="13.575424927669362"><ele>119.66666666666666</ele><time>2026-04-11T11:01:40.939Z</time></trkpt><trkpt lat="45.885249750617696" lon="13.575490442059833"><ele>117.0</ele><time>2026-04-11T11:01:43.939Z</time></trkpt><trkpt lat="45.88533277038698" lon="13.575538336202259"><ele>114.33333333333334</ele><time>2026-04-11T11:01:45.939Z</time></trkpt><trkpt lat="45.88539952902686" lon="13.575574186968408"><ele>111.66666666666667</ele><time>2026-04-11T11:01:47.939Z</time></trkpt><trkpt lat="45.885460442443474" lon="13.57562257499563"><ele>109.0</ele><time>2026-04-11T11:01:49.939Z</time></trkpt><trkpt lat="45.885537824366054" lon="13.575653973768212"><ele>109.00000000000001</ele><time>2026-04-11T11:01:51.939Z</time></trkpt><trkpt lat="45.88561347381943" lon="13.575684435636413"><ele>109.0</ele><time>2026-04-11T11:01:53.939Z</time></trkpt><trkpt lat="45.885660950573445" lon="13.575766222551003"><ele>109.0</ele><time>2026-04-11T11:01:56.939Z</time></trkpt><trkpt lat="45.88561257576412" lon="13.575870117213148"><ele>109.0</ele><time>2026-04-11T11:01:59.939Z</time></trkpt><trkpt lat="45.88552923855678" lon="13.575928440282611"><ele>109.00000000000001</ele><time>2026-04-11T11:02:02.939Z</time></trkpt><trkpt lat="45.885467737621056" lon="13.57598071892771"><ele>109.0</ele><time>2026-04-11T11:02:04.939Z</time></trkpt><trkpt lat="45.88539982193277" lon="13.57603320933771"><ele>109.00000000000001</ele><time>2026-04-11T11:02:07.939Z</time></trkpt><trkpt lat="45.88531320208927" lon="13.576109324474407"><ele>109.0</ele><time>2026-04-11T11:02:10.939Z</time></trkpt><trkpt lat="45.88523704353876" lon="13.57613711777949"><ele>109.0</ele><time>2026-04-11T11:02:12.939Z</time></trkpt><trkpt lat="45.88514946155606" lon="13.576178770632623"><ele>109.0</ele><time>2026-04-11T11:02:14.939Z</time></trkpt><trkpt lat="45.885080762674086" lon="13.576204359058773"><ele>109.00000000000001</ele><time>2026-04-11T11:02:16.939Z</time></trkpt><trkpt lat="45.88502090563774" lon="13.57629175096795"><ele>109.0</ele><time>2026-04-11T11:02:19.939Z</time></trkpt><trkpt lat="45.88503351153402" lon="13.576438163422477"><ele>108.50000000000001</ele><time>2026-04-11T11:02:22.939Z</time></trkpt><trkpt lat="45.8850406470582" lon="13.576533221708255"><ele>108.0</ele><time>2026-04-11T11:02:23.939Z</time></trkpt><trkpt lat="45.88505342340546" lon="13.576669685331913"><ele>107.5</ele><time>2026-04-11T11:02:25.939Z</time></trkpt><trkpt lat="45.88502292573943" lon="13.576811874773103"><ele>107.0</ele><time>2026-04-11T11:02:27.939Z</time></trkpt><trkpt lat="45.88501623424742" lon="13.57693384095736"><ele>106.50000000000001</ele><time>2026-04-11T11:02:29.938Z</time></trkpt><trkpt lat="45.88501416555156" lon="13.577067316622296"><ele>106.0</ele><time>2026-04-11T11:02:31.938Z</time></trkpt><trkpt lat="45.885016968563974" lon="13.57717567536648"><ele>104.66666666666667</ele><time>2026-04-11T11:02:33.938Z</time></trkpt><trkpt lat="45.88502787976778" lon="13.577302133054916"><ele>103.33333333333334</ele><time>2026-04-11T11:02:35.938Z</time></trkpt><trkpt lat="45.885050321604226" lon="13.5774007364245"><ele>102.0</ele><time>2026-04-11T11:02:37.938Z</time></trkpt><trkpt lat="45.88506340295267" lon="13.577512388687937"><ele>100.66666666666666</ele><time>2026-04-11T11:02:39.938Z</time></trkpt><trkpt lat="45.88506417360831" lon="13.5776490155197"><ele>99.33333333333333</ele><time>2026-04-11T11:02:41.938Z</time></trkpt><trkpt lat="45.885069731611665" lon="13.577802185102149"><ele>98.0</ele><time>2026-04-11T11:02:43.938Z</time></trkpt><trkpt lat="45.88506209798737" lon="13.57794923150674"><ele>97.33333333333333</ele><time>2026-04-11T11:02:45.938Z</time></trkpt><trkpt lat="45.88505130349475" lon="13.578075454449165"><ele>96.66666666666666</ele><time>2026-04-11T11:02:47.938Z</time></trkpt><trkpt lat="45.885065214953606" lon="13.578196992354467"><ele>96.0</ele><time>2026-04-11T11:02:49.938Z</time></trkpt><trkpt lat="45.88506539052012" lon="13.578295632376177"><ele>95.33333333333333</ele><time>2026-04-11T11:02:51.938Z</time></trkpt><trkpt lat="45.885073342431646" lon="13.57840062287074"><ele>94.66666666666666</ele><time>2026-04-11T11:02:54.938Z</time></trkpt><trkpt lat="45.88509499670862" lon="13.578501969431514"><ele>94.0</ele><time>2026-04-11T11:02:56.938Z</time></trkpt><trkpt lat="45.88509342234128" lon="13.578618831512477"><ele>92.16666666666666</ele><time>2026-04-11T11:02:58.938Z</time></trkpt><trkpt lat="45.88508866739417" lon="13.578750527007438"><ele>90.33333333333333</ele><time>2026-04-11T11:03:00.938Z</time></trkpt><trkpt lat="45.88509114298279" lon="13.578867340319837"><ele>88.5</ele><time>2026-04-11T11:03:02.938Z</time></trkpt><trkpt lat="45.885067374157224" lon="13.578962845054589"><ele>86.66666666666667</ele><time>2026-04-11T11:03:04.938Z</time></trkpt><trkpt lat="45.885039573425054" lon="13.57908959176716"><ele>84.83333333333334</ele><time>2026-04-11T11:03:06.938Z</time></trkpt><trkpt lat="45.88500913906465" lon="13.579209352540337"><ele>83.0</ele><time>2026-04-11T11:03:08.938Z</time></trkpt><trkpt lat="45.884976210953475" lon="13.57928915791862"><ele>83.0</ele><time>2026-04-11T11:03:10.938Z</time></trkpt><trkpt lat="45.88495186887511" lon="13.579374453473397"><ele>83.0</ele><time>2026-04-11T11:03:12.938Z</time></trkpt><trkpt lat="45.88490902135436" lon="13.579499044559679"><ele>83.0</ele><time>2026-04-11T11:03:14.938Z</time></trkpt><trkpt lat="45.88489119448226" lon="13.579604395269506"><ele>83.0</ele><time>2026-04-11T11:03:16.938Z</time></trkpt><trkpt lat="45.8848640442953" lon="13.579718509774725"><ele>83.0</ele><time>2026-04-11T11:03:18.938Z</time></trkpt><trkpt lat="45.88482042440592" lon="13.57985207091871"><ele>83.0</ele><time>2026-04-11T11:03:20.938Z</time></trkpt><trkpt lat="45.884798983480614" lon="13.579943517741256"><ele>80.5</ele><time>2026-04-11T11:03:22.937Z</time></trkpt><trkpt lat="45.884756670516616" lon="13.580061534793082"><ele>78.0</ele><time>2026-04-11T11:03:24.938Z</time></trkpt><trkpt lat="45.88473548233221" lon="13.580151347324998"><ele>75.5</ele><time>2026-04-11T11:03:26.937Z</time></trkpt><trkpt lat="45.884685597388206" lon="13.58025747995098"><ele>73.0</ele><time>2026-04-11T11:03:28.937Z</time></trkpt><trkpt lat="45.88465284976798" lon="13.580375064023935"><ele>70.5</ele><time>2026-04-11T11:03:31.937Z</time></trkpt><trkpt lat="45.88460861220159" lon="13.580454364227341"><ele>68.0</ele><time>2026-04-11T11:03:33.937Z</time></trkpt><trkpt lat="45.8845775252272" lon="13.580541927384598"><ele>65.83333333333334</ele><time>2026-04-11T11:03:35.936Z</time></trkpt><trkpt lat="45.88454580474572" lon="13.580633117011631"><ele>63.66666666666667</ele><time>2026-04-11T11:03:37.936Z</time></trkpt><trkpt lat="45.884507475127656" lon="13.580751319746312"><ele>61.5</ele><time>2026-04-11T11:03:39.936Z</time></trkpt><trkpt lat="45.884476321158175" lon="13.580870723092113"><ele>59.33333333333333</ele><time>2026-04-11T11:03:41.936Z</time></trkpt><trkpt lat="45.88445080546432" lon="13.580965578100322"><ele>57.166666666666664</ele><time>2026-04-11T11:03:43.936Z</time></trkpt><trkpt lat="45.88448227068518" lon="13.581067592385075"><ele>55.0</ele><time>2026-04-11T11:03:46.936Z</time></trkpt><trkpt lat="45.88457005810371" lon="13.581043282330654"><ele>54.99999999999999</ele><time>2026-04-11T11:03:49.936Z</time></trkpt><trkpt lat="45.88465130238517" lon="13.58105169437557"><ele>55.0</ele><time>2026-04-11T11:03:51.936Z</time></trkpt><trkpt lat="45.88471418085585" lon="13.581046656074639"><ele>55.0</ele><time>2026-04-11T11:03:53.936Z</time></trkpt><trkpt lat="45.88477113984199" lon="13.581101529227452"><ele>55.0</ele><time>2026-04-11T11:04:04.936Z</time></trkpt><trkpt lat="45.88478938747375" lon="13.581222752903479"><ele>54.99999999999999</ele><time>2026-04-11T11:04:09.936Z</time></trkpt><trkpt lat="45.884771935039296" lon="13.581339907565887"><ele>55.0</ele><time>2026-04-11T11:04:11.936Z</time></trkpt><trkpt lat="45.88478155957979" lon="13.581464271108077"><ele>54.49999999999999</ele><time>2026-04-11T11:04:13.936Z</time></trkpt><trkpt lat="45.88478007586554" lon="13.581568795747756"><ele>54.0</ele><time>2026-04-11T11:04:20.936Z</time></trkpt><trkpt lat="45.884702474935466" lon="13.581621718872249"><ele>53.5</ele><time>2026-04-11T11:04:22.936Z</time></trkpt><trkpt lat="45.88462611626195" lon="13.581614270778605"><ele>53.0</ele><time>2026-04-11T11:04:23.936Z</time></trkpt><trkpt lat="45.884548622342486" lon="13.581610858821145"><ele>52.49999999999999</ele><time>2026-04-11T11:04:24.936Z</time></trkpt><trkpt lat="45.88448191308856" lon="13.581616243064946"><ele>52.0</ele><time>2026-04-11T11:04:25.935Z</time></trkpt><trkpt lat="45.884375406358586" lon="13.581637258191362"><ele>52.0</ele><time>2026-04-11T11:04:27.935Z</time></trkpt><trkpt lat="45.88427421100795" lon="13.58159085803948"><ele>52.0</ele><time>2026-04-11T11:04:29.935Z</time></trkpt><trkpt lat="45.88420170653534" lon="13.581565137948276"><ele>52.0</ele><time>2026-04-11T11:04:30.935Z</time></trkpt><trkpt lat="45.8841191753564" lon="13.581526172632246"><ele>52.0</ele><time>2026-04-11T11:04:31.935Z</time></trkpt><trkpt lat="45.88400070506148" lon="13.581491703254269"><ele>52.0</ele><time>2026-04-11T11:04:32.935Z</time></trkpt><trkpt lat="45.88388110070821" lon="13.581449748137329"><ele>53.2</ele><time>2026-04-11T11:04:33.935Z</time></trkpt><trkpt lat="45.88378297841567" lon="13.581421619500114"><ele>54.400000000000006</ele><time>2026-04-11T11:04:34.935Z</time></trkpt><trkpt lat="45.883701591015495" lon="13.581410919153582"><ele>55.599999999999994</ele><time>2026-04-11T11:04:35.935Z</time></trkpt><trkpt lat="45.88361174689869" lon="13.581391939317903"><ele>56.8</ele><time>2026-04-11T11:04:36.935Z</time></trkpt><trkpt lat="45.88352167060185" lon="13.581376094859644"><ele>58.0</ele><time>2026-04-11T11:04:37.935Z</time></trkpt><trkpt lat="45.88341674485555" lon="13.581356334402747"><ele>58.25</ele><time>2026-04-11T11:04:38.935Z</time></trkpt><trkpt lat="45.883320000077774" lon="13.581346856459303"><ele>58.5</ele><time>2026-04-11T11:04:39.935Z</time></trkpt><trkpt lat="45.88320763866586" lon="13.581317441839682"><ele>58.75</ele><time>2026-04-11T11:04:40.935Z</time></trkpt><trkpt lat="45.88308797111142" lon="13.5812948834441"><ele>59.0</ele><time>2026-04-11T11:04:41.935Z</time></trkpt><trkpt lat="45.882967729566026" lon="13.581271471842411"><ele>59.0</ele><time>2026-04-11T11:04:42.935Z</time></trkpt><trkpt lat="45.88284687457701" lon="13.581245362992725"><ele>59.0</ele><time>2026-04-11T11:04:43.935Z</time></trkpt><trkpt lat="45.882719419335174" lon="13.581209709666958"><ele>59.0</ele><time>2026-04-11T11:04:44.935Z</time></trkpt><trkpt lat="45.88259064119378" lon="13.581181626544296"><ele>59.0</ele><time>2026-04-11T11:04:45.935Z</time></trkpt><trkpt lat="45.8824645394201" lon="13.581158165198117"><ele>61.0</ele><time>2026-04-11T11:04:46.935Z</time></trkpt><trkpt lat="45.88233483915912" lon="13.581124830701967"><ele>63.0</ele><time>2026-04-11T11:04:47.935Z</time></trkpt><trkpt lat="45.88219959530639" lon="13.58110844637624"><ele>65.0</ele><time>2026-04-11T11:04:48.935Z</time></trkpt><trkpt lat="45.88206369213537" lon="13.58108341398819"><ele>67.0</ele><time>2026-04-11T11:04:49.935Z</time></trkpt><trkpt lat="45.881928199843564" lon="13.581062099223146"><ele>67.0</ele><time>2026-04-11T11:04:50.935Z</time></trkpt><trkpt lat="45.881787796459356" lon="13.581043742825399"><ele>67.0</ele><time>2026-04-11T11:04:51.935Z</time></trkpt><trkpt lat="45.881647940550614" lon="13.581034366642756"><ele>67.0</ele><time>2026-04-11T11:04:52.935Z</time></trkpt><trkpt lat="45.881509469622266" lon="13.581035346776487"><ele>67.0</ele><time>2026-04-11T11:04:53.935Z</time></trkpt><trkpt lat="45.88138672681346" lon="13.581040290368474"><ele>66.75</ele><time>2026-04-11T11:04:54.935Z</time></trkpt><trkpt lat="45.881265338607356" lon="13.58103118509088"><ele>66.5</ele><time>2026-04-11T11:04:55.935Z</time></trkpt><trkpt lat="45.88114687459199" lon="13.581021652121342"><ele>66.25</ele><time>2026-04-11T11:04:56.935Z</time></trkpt><trkpt lat="45.88101234988943" lon="13.581009672419036"><ele>66.0</ele><time>2026-04-11T11:04:57.935Z</time></trkpt><trkpt lat="45.88087499931645" lon="13.58098378107054"><ele>66.66666666666667</ele><time>2026-04-11T11:04:58.935Z</time></trkpt><trkpt lat="45.88073480155952" lon="13.580947112810295"><ele>67.33333333333334</ele><time>2026-04-11T11:04:59.935Z</time></trkpt><trkpt lat="45.88059102091511" lon="13.580890101088414"><ele>68.0</ele><time>2026-04-11T11:05:00.935Z</time></trkpt><trkpt lat="45.88044375621627" lon="13.580805370408449"><ele>68.0</ele><time>2026-04-11T11:05:01.935Z</time></trkpt><trkpt lat="45.88028765962911" lon="13.580749728845849"><ele>68.0</ele><time>2026-04-11T11:05:02.935Z</time></trkpt><trkpt lat="45.88012689722098" lon="13.58068966918825"><ele>68.0</ele><time>2026-04-11T11:05:03.935Z</time></trkpt><trkpt lat="45.8799616986449" lon="13.580613332412906"><ele>66.0</ele><time>2026-04-11T11:05:04.935Z</time></trkpt><trkpt lat="45.87979495979084" lon="13.580539117691023"><ele>64.0</ele><time>2026-04-11T11:05:05.935Z</time></trkpt><trkpt lat="45.87963239281372" lon="13.580450595085294"><ele>62.0</ele><time>2026-04-11T11:05:06.935Z</time></trkpt><trkpt lat="45.87947850340126" lon="13.580383640949037"><ele>65.0</ele><time>2026-04-11T11:05:07.935Z</time></trkpt><trkpt lat="45.87933116114414" lon="13.580330592257774"><ele>68.0</ele><time>2026-04-11T11:05:08.935Z</time></trkpt><trkpt lat="45.87918605089655" lon="13.580256403448427"><ele>71.0</ele><time>2026-04-11T11:05:09.935Z</time></trkpt><trkpt lat="45.87903611605494" lon="13.58019117012338"><ele>71.0</ele><time>2026-04-11T11:05:10.935Z</time></trkpt><trkpt lat="45.87888904574216" lon="13.580127183087228"><ele>71.0</ele><time>2026-04-11T11:05:11.935Z</time></trkpt><trkpt lat="45.87873589414794" lon="13.58007973382786"><ele>71.0</ele><time>2026-04-11T11:05:12.935Z</time></trkpt><trkpt lat="45.878595559826756" lon="13.579999493856915"><ele>71.0</ele><time>2026-04-11T11:05:13.935Z</time></trkpt><trkpt lat="45.8784380918248" lon="13.579948406444728"><ele>71.0</ele><time>2026-04-11T11:05:14.935Z</time></trkpt><trkpt lat="45.878280658113525" lon="13.579879354324975"><ele>71.0</ele><time>2026-04-11T11:05:15.935Z</time></trkpt><trkpt lat="45.87812043771762" lon="13.579817332530668"><ele>70.0</ele><time>2026-04-11T11:05:16.935Z</time></trkpt><trkpt lat="45.877956539146886" lon="13.579748086610147"><ele>69.0</ele><time>2026-04-11T11:05:17.935Z</time></trkpt><trkpt lat="45.87779257640149" lon="13.579669138540964"><ele>68.0</ele><time>2026-04-11T11:05:18.935Z</time></trkpt><trkpt lat="45.87762160830912" lon="13.57966385456061"><ele>68.25</ele><time>2026-04-11T11:05:19.935Z</time></trkpt><trkpt lat="45.87745712726106" lon="13.579664481692399"><ele>68.5</ele><time>2026-04-11T11:05:20.935Z</time></trkpt><trkpt lat="45.877336624043934" lon="13.579698661850147"><ele>68.75</ele><time>2026-04-11T11:05:21.935Z</time></trkpt><trkpt lat="45.87725259348108" lon="13.579717691312064"><ele>69.0</ele><time>2026-04-11T11:05:22.935Z</time></trkpt><trkpt lat="45.87715505508759" lon="13.579731258822365"><ele>69.0</ele><time>2026-04-11T11:05:24.935Z</time></trkpt><trkpt lat="45.877077115579716" lon="13.579762691739164"><ele>69.0</ele><time>2026-04-11T11:05:27.935Z</time></trkpt><trkpt lat="45.877008863823775" lon="13.579832525530133"><ele>69.0</ele><time>2026-04-11T11:05:30.935Z</time></trkpt><trkpt lat="45.87693064278619" lon="13.579860356967734"><ele>69.0</ele><time>2026-04-11T11:05:33.935Z</time></trkpt><trkpt lat="45.87683273281168" lon="13.579896261171962"><ele>69.0</ele><time>2026-04-11T11:06:27.934Z</time></trkpt><trkpt lat="45.87672864787948" lon="13.579911141138723"><ele>72.0</ele><time>2026-04-11T11:06:28.934Z</time></trkpt><trkpt lat="45.876583002964374" lon="13.579894959108673"><ele>75.0</ele><time>2026-04-11T11:06:29.934Z</time></trkpt><trkpt lat="45.87642881838807" lon="13.579812977152564"><ele>78.0</ele><time>2026-04-11T11:06:30.934Z</time></trkpt><trkpt lat="45.87625338719876" lon="13.579766466700463"><ele>78.0</ele><time>2026-04-11T11:06:31.934Z</time></trkpt><trkpt lat="45.87607743036114" lon="13.579739244520391"><ele>78.0</ele><time>2026-04-11T11:06:32.934Z</time></trkpt><trkpt lat="45.87591320695105" lon="13.579697484762127"><ele>78.0</ele><time>2026-04-11T11:06:33.934Z</time></trkpt><trkpt lat="45.875719804149625" lon="13.57967510506525"><ele>77.0</ele><time>2026-04-11T11:06:34.934Z</time></trkpt><trkpt lat="45.87550278816948" lon="13.579657032831653"><ele>76.0</ele><time>2026-04-11T11:06:35.934Z</time></trkpt><trkpt lat="45.87530412156747" lon="13.579660543220314"><ele>75.0</ele><time>2026-04-11T11:06:36.934Z</time></trkpt><trkpt lat="45.875136241383956" lon="13.579672001266603"><ele>76.33333333333333</ele><time>2026-04-11T11:06:37.934Z</time></trkpt><trkpt lat="45.87496696357825" lon="13.5796624314456"><ele>77.66666666666666</ele><time>2026-04-11T11:06:38.934Z</time></trkpt><trkpt lat="45.874799361636775" lon="13.579657845565121"><ele>79.0</ele><time>2026-04-11T11:06:39.934Z</time></trkpt><trkpt lat="45.87462843268778" lon="13.579654105088862"><ele>79.0</ele><time>2026-04-11T11:06:40.934Z</time></trkpt><trkpt lat="45.87446406887435" lon="13.579642097446444"><ele>79.0</ele><time>2026-04-11T11:06:41.934Z</time></trkpt><trkpt lat="45.8743023234053" lon="13.579619130727277"><ele>79.0</ele><time>2026-04-11T11:06:42.934Z</time></trkpt><trkpt lat="45.874131688632644" lon="13.57958485872844"><ele>80.25</ele><time>2026-04-11T11:06:43.934Z</time></trkpt><trkpt lat="45.87396489320068" lon="13.579548673623147"><ele>81.5</ele><time>2026-04-11T11:06:44.934Z</time></trkpt><trkpt lat="45.8738234896256" lon="13.579515529192614"><ele>82.75</ele><time>2026-04-11T11:06:45.934Z</time></trkpt><trkpt lat="45.873696483277435" lon="13.57946169627097"><ele>84.0</ele><time>2026-04-11T11:06:46.934Z</time></trkpt><trkpt lat="45.87356576910546" lon="13.579453299536933"><ele>86.2</ele><time>2026-04-11T11:06:47.934Z</time></trkpt><trkpt lat="45.873461451449344" lon="13.579390949609465"><ele>88.4</ele><time>2026-04-11T11:06:48.934Z</time></trkpt><trkpt lat="45.87336130647806" lon="13.579372201060924"><ele>90.6</ele><time>2026-04-11T11:06:49.934Z</time></trkpt><trkpt lat="45.87326806301823" lon="13.579361711307019"><ele>92.8</ele><time>2026-04-11T11:06:50.934Z</time></trkpt><trkpt lat="45.873188745771266" lon="13.579342322688788"><ele>95.0</ele><time>2026-04-11T11:06:51.934Z</time></trkpt><trkpt lat="45.87312155189852" lon="13.5793279696993"><ele>95.0</ele><time>2026-04-11T11:06:52.934Z</time></trkpt><trkpt lat="45.873052590139444" lon="13.579314355442593"><ele>95.0</ele><time>2026-04-11T11:06:53.934Z</time></trkpt><trkpt lat="45.872949276537845" lon="13.579519318969695"><ele>95.0</ele><time>2026-04-11T11:06:55.934Z</time></trkpt><trkpt lat="45.87285314742609" lon="13.579595831111444"><ele>95.0</ele><time>2026-04-11T11:06:57.934Z</time></trkpt><trkpt lat="45.87275258444472" lon="13.57969315974326"><ele>94.5</ele><time>2026-04-11T11:06:59.934Z</time></trkpt><trkpt lat="45.872698887267305" lon="13.579777239867052"><ele>94.0</ele><time>2026-04-11T11:07:01.934Z</time></trkpt><trkpt lat="45.87263217741754" lon="13.579826258651037"><ele>93.5</ele><time>2026-04-11T11:07:05.934Z</time></trkpt><trkpt lat="45.87256133596699" lon="13.579934102123918"><ele>93.0</ele><time>2026-04-11T11:07:56.933Z</time></trkpt><trkpt lat="45.87250035057429" lon="13.579998475029814"><ele>92.5</ele><time>2026-04-11T11:07:57.933Z</time></trkpt><trkpt lat="45.872436192167626" lon="13.580054066329142"><ele>92.0</ele><time>2026-04-11T11:07:58.933Z</time></trkpt><trkpt lat="45.87235294775381" lon="13.580128562133018"><ele>92.0</ele><time>2026-04-11T11:07:59.933Z</time></trkpt><trkpt lat="45.87223255927095" lon="13.580209785252968"><ele>92.0</ele><time>2026-04-11T11:08:00.933Z</time></trkpt><trkpt lat="45.87210532240204" lon="13.580313927649666"><ele>92.0</ele><time>2026-04-11T11:08:01.933Z</time></trkpt><trkpt lat="45.87198082996398" lon="13.580402055541049"><ele>92.0</ele><time>2026-04-11T11:08:02.933Z</time></trkpt><trkpt lat="45.87187264252965" lon="13.580487999199493"><ele>96.0</ele><time>2026-04-11T11:08:03.933Z</time></trkpt><trkpt lat="45.871758905740485" lon="13.580558285055597"><ele>100.0</ele><time>2026-04-11T11:08:04.933Z</time></trkpt><trkpt lat="45.87165220934151" lon="13.580575763868453"><ele>103.99999999999999</ele><time>2026-04-11T11:08:05.933Z</time></trkpt><trkpt lat="45.87155265563013" lon="13.580554399504551"><ele>108.0</ele><time>2026-04-11T11:08:06.933Z</time></trkpt><trkpt lat="45.87147707765184" lon="13.580531077668466"><ele>112.0</ele><time>2026-04-11T11:08:07.933Z</time></trkpt><trkpt lat="45.87138489445133" lon="13.58056892810734"><ele>112.0</ele><time>2026-04-11T11:08:09.933Z</time></trkpt><trkpt lat="45.87139956361372" lon="13.580734620322746"><ele>111.99999999999999</ele><time>2026-04-11T11:08:11.933Z</time></trkpt><trkpt lat="45.87151825158308" lon="13.58074946881055"><ele>111.99999999999999</ele><time>2026-04-11T11:08:12.933Z</time></trkpt><trkpt lat="45.87159118136794" lon="13.580784035621777"><ele>112.0</ele><time>2026-04-11T11:08:13.933Z</time></trkpt><trkpt lat="45.871684184445456" lon="13.580798693289672"><ele>112.0</ele><time>2026-04-11T11:08:14.933Z</time></trkpt><trkpt lat="45.87179625895105" lon="13.580868579185362"><ele>110.6</ele><time>2026-04-11T11:08:15.933Z</time></trkpt><trkpt lat="45.8719008710624" lon="13.580983886533422"><ele>109.19999999999999</ele><time>2026-04-11T11:08:16.933Z</time></trkpt><trkpt lat="45.87198851363374" lon="13.58105120972158"><ele>107.8</ele><time>2026-04-11T11:08:17.933Z</time></trkpt><trkpt lat="45.872088643327295" lon="13.581105913400524"><ele>106.4</ele><time>2026-04-11T11:08:18.933Z</time></trkpt><trkpt lat="45.87219068010178" lon="13.581126519999609"><ele>105.0</ele><time>2026-04-11T11:08:19.933Z</time></trkpt><trkpt lat="45.87227389892705" lon="13.581192154926937"><ele>108.4</ele><time>2026-04-11T11:08:21.932Z</time></trkpt><trkpt lat="45.872240348479814" lon="13.581281898796178"><ele>111.8</ele><time>2026-04-11T11:08:23.932Z</time></trkpt><trkpt lat="45.87213583060346" lon="13.581278306638692"><ele>115.19999999999999</ele><time>2026-04-11T11:08:25.931Z</time></trkpt><trkpt lat="45.87204404897383" lon="13.581253998596416"><ele>118.6</ele><time>2026-04-11T11:08:26.931Z</time></trkpt><trkpt lat="45.871936653975055" lon="13.581254190103435"><ele>122.0</ele><time>2026-04-11T11:08:27.931Z</time></trkpt><trkpt lat="45.87182060439251" lon="13.581245102343555"><ele>125.0</ele><time>2026-04-11T11:08:28.931Z</time></trkpt><trkpt lat="45.87167547727008" lon="13.581245171547836"><ele>128.0</ele><time>2026-04-11T11:08:29.931Z</time></trkpt><trkpt lat="45.87154052158829" lon="13.58123951458904"><ele>131.0</ele><time>2026-04-11T11:08:30.931Z</time></trkpt><trkpt lat="45.871409847236166" lon="13.581244435269582"><ele>134.0</ele><time>2026-04-11T11:08:31.931Z</time></trkpt><trkpt lat="45.871254134916" lon="13.581259695127356"><ele>134.0</ele><time>2026-04-11T11:08:32.931Z</time></trkpt><trkpt lat="45.871096531474784" lon="13.581277312510633"><ele>134.0</ele><time>2026-04-11T11:08:33.931Z</time></trkpt><trkpt lat="45.87094124029945" lon="13.581300584780776"><ele>134.0</ele><time>2026-04-11T11:08:34.931Z</time></trkpt><trkpt lat="45.87081536424995" lon="13.581343876993984"><ele>134.0</ele><time>2026-04-11T11:08:35.931Z</time></trkpt><trkpt lat="45.87070334898575" lon="13.581387631245505"><ele>135.0</ele><time>2026-04-11T11:08:36.931Z</time></trkpt><trkpt lat="45.87058649221195" lon="13.581423042520225"><ele>136.0</ele><time>2026-04-11T11:08:37.931Z</time></trkpt><trkpt lat="45.870479317845266" lon="13.581520931652223"><ele>137.0</ele><time>2026-04-11T11:08:38.931Z</time></trkpt><trkpt lat="45.870394102804305" lon="13.581658654777918"><ele>138.0</ele><time>2026-04-11T11:08:39.931Z</time></trkpt><trkpt lat="45.870289471584016" lon="13.581788454131388"><ele>138.0</ele><time>2026-04-11T11:08:40.931Z</time></trkpt><trkpt lat="45.870185790678434" lon="13.58194170884586"><ele>138.0</ele><time>2026-04-11T11:08:41.931Z</time></trkpt><trkpt lat="45.870085034470456" lon="13.58209820726748"><ele>138.0</ele><time>2026-04-11T11:08:42.931Z</time></trkpt><trkpt lat="45.86997711426016" lon="13.582248712577277"><ele>138.0</ele><time>2026-04-11T11:08:43.931Z</time></trkpt><trkpt lat="45.86986485491407" lon="13.582401731952848"><ele>140.0</ele><time>2026-04-11T11:08:44.931Z</time></trkpt><trkpt lat="45.86975886235465" lon="13.582523444556156"><ele>142.0</ele><time>2026-04-11T11:08:45.931Z</time></trkpt><trkpt lat="45.86968210898154" lon="13.582652369246562"><ele>144.0</ele><time>2026-04-11T11:08:46.931Z</time></trkpt><trkpt lat="45.86962697855224" lon="13.58280267348779"><ele>146.0</ele><time>2026-04-11T11:08:47.931Z</time></trkpt><trkpt lat="45.86958038309646" lon="13.582948696803511"><ele>150.25</ele><time>2026-04-11T11:08:48.931Z</time></trkpt><trkpt lat="45.869536044439855" lon="13.583091555295429"><ele>154.5</ele><time>2026-04-11T11:08:49.931Z</time></trkpt><trkpt lat="45.86948295895948" lon="13.583251305753855"><ele>158.75</ele><time>2026-04-11T11:08:50.931Z</time></trkpt><trkpt lat="45.869396376943804" lon="13.58341102255298"><ele>163.0</ele><time>2026-04-11T11:08:51.931Z</time></trkpt><trkpt lat="45.86929120579012" lon="13.583500676795216"><ele>163.5</ele><time>2026-04-11T11:08:52.931Z</time></trkpt><trkpt lat="45.86917241959295" lon="13.583572981597735"><ele>164.0</ele><time>2026-04-11T11:08:53.931Z</time></trkpt><trkpt lat="45.86905200248662" lon="13.583640529264994"><ele>164.5</ele><time>2026-04-11T11:08:54.931Z</time></trkpt><trkpt lat="45.8689228773669" lon="13.58371755818472"><ele>165.0</ele><time>2026-04-11T11:08:55.931Z</time></trkpt><trkpt lat="45.8688021402677" lon="13.583826039623293"><ele>165.0</ele><time>2026-04-11T11:08:56.931Z</time></trkpt><trkpt lat="45.86869302394399" lon="13.583973841824138"><ele>165.0</ele><time>2026-04-11T11:08:57.931Z</time></trkpt><trkpt lat="45.86859008289445" lon="13.584130586983187"><ele>165.0</ele><time>2026-04-11T11:08:58.931Z</time></trkpt><trkpt lat="45.86848547576007" lon="13.584281271893358"><ele>165.0</ele><time>2026-04-11T11:08:59.931Z</time></trkpt><trkpt lat="45.868389653338035" lon="13.584384778109534"><ele>165.5</ele><time>2026-04-11T11:09:00.931Z</time></trkpt><trkpt lat="45.86829473248624" lon="13.58446489054734"><ele>166.0</ele><time>2026-04-11T11:09:01.931Z</time></trkpt><trkpt lat="45.86818847698632" lon="13.584520800179481"><ele>166.5</ele><time>2026-04-11T11:09:02.931Z</time></trkpt><trkpt lat="45.86807978966977" lon="13.584567566386067"><ele>167.0</ele><time>2026-04-11T11:09:03.931Z</time></trkpt><trkpt lat="45.867962745089976" lon="13.584616349121012"><ele>167.0</ele><time>2026-04-11T11:09:04.931Z</time></trkpt><trkpt lat="45.86784605415837" lon="13.584675233571765"><ele>167.0</ele><time>2026-04-11T11:09:05.931Z</time></trkpt><trkpt lat="45.86772629847508" lon="13.584733151676273"><ele>167.0</ele><time>2026-04-11T11:09:06.931Z</time></trkpt><trkpt lat="45.86761335227954" lon="13.584765169778183"><ele>167.0</ele><time>2026-04-11T11:09:07.931Z</time></trkpt><trkpt lat="45.867496932258206" lon="13.584722487237856"><ele>167.0</ele><time>2026-04-11T11:09:08.931Z</time></trkpt><trkpt lat="45.867366330284774" lon="13.584663572363729"><ele>167.0</ele><time>2026-04-11T11:09:09.931Z</time></trkpt><trkpt lat="45.86724531334168" lon="13.584619090232623"><ele>167.0</ele><time>2026-04-11T11:09:10.931Z</time></trkpt><trkpt lat="45.86709708750931" lon="13.584617375482281"><ele>167.0</ele><time>2026-04-11T11:09:11.931Z</time></trkpt><trkpt lat="45.866962990852386" lon="13.584606581047268"><ele>167.0</ele><time>2026-04-11T11:09:12.931Z</time></trkpt><trkpt lat="45.866821629735945" lon="13.58459623388078"><ele>167.0</ele><time>2026-04-11T11:09:13.931Z</time></trkpt><trkpt lat="45.86668243063239" lon="13.584592777106346"><ele>167.0</ele><time>2026-04-11T11:09:14.931Z</time></trkpt><trkpt lat="45.86654124034117" lon="13.584595774582386"><ele>167.0</ele><time>2026-04-11T11:09:15.931Z</time></trkpt><trkpt lat="45.866409203029974" lon="13.58460818793471"><ele>168.0</ele><time>2026-04-11T11:09:16.931Z</time></trkpt><trkpt lat="45.866273530046" lon="13.584644825259065"><ele>169.0</ele><time>2026-04-11T11:09:17.931Z</time></trkpt><trkpt lat="45.86614734612938" lon="13.58470655277547"><ele>170.0</ele><time>2026-04-11T11:09:18.931Z</time></trkpt><trkpt lat="45.86602750429298" lon="13.584795854812873"><ele>171.0</ele><time>2026-04-11T11:09:19.931Z</time></trkpt><trkpt lat="45.865932062597295" lon="13.58492887615469"><ele>172.0</ele><time>2026-04-11T11:09:20.931Z</time></trkpt><trkpt lat="45.865832362674716" lon="13.585053710110016"><ele>173.0</ele><time>2026-04-11T11:09:21.931Z</time></trkpt><trkpt lat="45.86574655266747" lon="13.585197624664058"><ele>174.0</ele><time>2026-04-11T11:09:22.931Z</time></trkpt><trkpt lat="45.86566006847128" lon="13.58535255158845"><ele>175.0</ele><time>2026-04-11T11:09:23.931Z</time></trkpt><trkpt lat="45.8655714497829" lon="13.585498382126637"><ele>175.75</ele><time>2026-04-11T11:09:24.931Z</time></trkpt><trkpt lat="45.8654830003521" lon="13.585651150751572"><ele>176.5</ele><time>2026-04-11T11:09:25.931Z</time></trkpt><trkpt lat="45.86538918882661" lon="13.585808633933175"><ele>177.25</ele><time>2026-04-11T11:09:26.931Z</time></trkpt><trkpt lat="45.86529430162418" lon="13.585960276657607"><ele>178.0</ele><time>2026-04-11T11:09:27.93Z</time></trkpt><trkpt lat="45.86520178475106" lon="13.586102550407082"><ele>178.8</ele><time>2026-04-11T11:09:28.93Z</time></trkpt><trkpt lat="45.86511516548918" lon="13.58623713745542"><ele>179.60000000000002</ele><time>2026-04-11T11:09:29.93Z</time></trkpt><trkpt lat="45.86502849727709" lon="13.586341170871602"><ele>180.39999999999998</ele><time>2026-04-11T11:09:30.93Z</time></trkpt><trkpt lat="45.86495998642338" lon="13.586442757137675"><ele>181.2</ele><time>2026-04-11T11:09:31.93Z</time></trkpt><trkpt lat="45.86491033876307" lon="13.586541029046728"><ele>182.0</ele><time>2026-04-11T11:09:32.93Z</time></trkpt><trkpt lat="45.86485033875766" lon="13.586608192019208"><ele>182.0</ele><time>2026-04-11T11:09:34.93Z</time></trkpt><trkpt lat="45.8649876611187" lon="13.586766820872972"><ele>182.0</ele><time>2026-04-11T11:09:38.93Z</time></trkpt><trkpt lat="45.86507277114578" lon="13.5867904006294"><ele>182.0</ele><time>2026-04-11T11:09:39.931Z</time></trkpt><trkpt lat="45.865176453970804" lon="13.586823449488127"><ele>182.0</ele><time>2026-04-11T11:09:40.931Z</time></trkpt><trkpt lat="45.865272231923065" lon="13.586857783718164"><ele>182.0</ele><time>2026-04-11T11:09:41.931Z</time></trkpt><trkpt lat="45.86539235426484" lon="13.586904271501574"><ele>182.0</ele><time>2026-04-11T11:09:42.93Z</time></trkpt><trkpt lat="45.865519001255635" lon="13.58696464245679"><ele>182.0</ele><time>2026-04-11T11:09:43.93Z</time></trkpt><trkpt lat="45.86563983721933" lon="13.587018537694547"><ele>182.0</ele><time>2026-04-11T11:09:44.93Z</time></trkpt><trkpt lat="45.865764966747115" lon="13.58707499709681"><ele>182.25</ele><time>2026-04-11T11:09:45.93Z</time></trkpt><trkpt lat="45.86589171650825" lon="13.587125763534706"><ele>182.5</ele><time>2026-04-11T11:09:46.93Z</time></trkpt><trkpt lat="45.86603272269268" lon="13.587184636869194"><ele>182.75</ele><time>2026-04-11T11:09:47.93Z</time></trkpt><trkpt lat="45.86617971027543" lon="13.587245319648298"><ele>183.0</ele><time>2026-04-11T11:09:48.931Z</time></trkpt><trkpt lat="45.86634089993023" lon="13.58732688505633"><ele>183.0</ele><time>2026-04-11T11:09:49.931Z</time></trkpt><trkpt lat="45.866494558090935" lon="13.587394109643698"><ele>183.0</ele><time>2026-04-11T11:09:50.931Z</time></trkpt><trkpt lat="45.866651746606465" lon="13.587464944000464"><ele>183.0</ele><time>2026-04-11T11:09:51.931Z</time></trkpt><trkpt lat="45.86680711914455" lon="13.587544257517695"><ele>183.66666666666666</ele><time>2026-04-11T11:09:52.931Z</time></trkpt><trkpt lat="45.866958877127935" lon="13.587637609666794"><ele>184.33333333333331</ele><time>2026-04-11T11:09:53.931Z</time></trkpt><trkpt lat="45.867112887982636" lon="13.587689859622133"><ele>185.0</ele><time>2026-04-11T11:09:54.931Z</time></trkpt><trkpt lat="45.86726644342" lon="13.587761879662839"><ele>185.0</ele><time>2026-04-11T11:09:55.931Z</time></trkpt><trkpt lat="45.8674345060283" lon="13.587817198507754"><ele>185.0</ele><time>2026-04-11T11:09:56.931Z</time></trkpt><trkpt lat="45.86760919632756" lon="13.587845011518445"><ele>185.0</ele><time>2026-04-11T11:09:57.931Z</time></trkpt><trkpt lat="45.86777762498422" lon="13.587863631999562"><ele>187.5</ele><time>2026-04-11T11:09:58.931Z</time></trkpt><trkpt lat="45.867924617952" lon="13.587893636936009"><ele>190.0</ele><time>2026-04-11T11:09:59.931Z</time></trkpt><trkpt lat="45.86805059704874" lon="13.587959322995285"><ele>192.5</ele><time>2026-04-11T11:10:00.931Z</time></trkpt><trkpt lat="45.86817437864138" lon="13.58806331607079"><ele>195.0</ele><time>2026-04-11T11:10:01.931Z</time></trkpt><trkpt lat="45.86828599535129" lon="13.588193256025201"><ele>195.0</ele><time>2026-04-11T11:10:02.931Z</time></trkpt><trkpt lat="45.86839850050556" lon="13.588327198878922"><ele>195.0</ele><time>2026-04-11T11:10:03.931Z</time></trkpt><trkpt lat="45.8685316884071" lon="13.588443681908746"><ele>195.0</ele><time>2026-04-11T11:10:04.931Z</time></trkpt><trkpt lat="45.868676619984804" lon="13.588526603212179"><ele>195.0</ele><time>2026-04-11T11:10:05.931Z</time></trkpt><trkpt lat="45.8688253958685" lon="13.58858662664413"><ele>195.0</ele><time>2026-04-11T11:10:06.931Z</time></trkpt><trkpt lat="45.86897023073284" lon="13.588640825662045"><ele>195.0</ele><time>2026-04-11T11:10:07.931Z</time></trkpt><trkpt lat="45.869120256848056" lon="13.588683825492456"><ele>196.0</ele><time>2026-04-11T11:10:08.931Z</time></trkpt><trkpt lat="45.86927303644098" lon="13.588744338311976"><ele>197.0</ele><time>2026-04-11T11:10:09.931Z</time></trkpt><trkpt lat="45.86943795101801" lon="13.588736405692314"><ele>198.0</ele><time>2026-04-11T11:10:10.931Z</time></trkpt><trkpt lat="45.86960016067312" lon="13.588661741348224"><ele>198.0</ele><time>2026-04-11T11:10:11.931Z</time></trkpt><trkpt lat="45.86975197089626" lon="13.588589555361727"><ele>198.0</ele><time>2026-04-11T11:10:12.931Z</time></trkpt><trkpt lat="45.86991254842245" lon="13.588553650100149"><ele>198.0</ele><time>2026-04-11T11:10:13.931Z</time></trkpt><trkpt lat="45.8700634903756" lon="13.588542837412868"><ele>198.66666666666669</ele><time>2026-04-11T11:10:14.931Z</time></trkpt><trkpt lat="45.870213783972424" lon="13.588567469124271"><ele>199.33333333333334</ele><time>2026-04-11T11:10:15.93Z</time></trkpt><trkpt lat="45.87037004367117" lon="13.58861330713939"><ele>200.0</ele><time>2026-04-11T11:10:16.93Z</time></trkpt><trkpt lat="45.870529902710345" lon="13.58866347178081"><ele>200.25</ele><time>2026-04-11T11:10:17.93Z</time></trkpt><trkpt lat="45.87068162519922" lon="13.58871666221378"><ele>200.5</ele><time>2026-04-11T11:10:18.93Z</time></trkpt><trkpt lat="45.87081580410693" lon="13.588779910947215"><ele>200.75</ele><time>2026-04-11T11:10:19.93Z</time></trkpt><trkpt lat="45.87092849778368" lon="13.58887397362663"><ele>201.0</ele><time>2026-04-11T11:10:20.93Z</time></trkpt><trkpt lat="45.871034012593704" lon="13.588997914501682"><ele>201.0</ele><time>2026-04-11T11:10:21.93Z</time></trkpt><trkpt lat="45.871128380037625" lon="13.589143071389735"><ele>201.0</ele><time>2026-04-11T11:10:22.93Z</time></trkpt><trkpt lat="45.871228846980316" lon="13.589304694300338"><ele>201.0</ele><time>2026-04-11T11:10:23.93Z</time></trkpt><trkpt lat="45.871332991320244" lon="13.589475240846163"><ele>201.0</ele><time>2026-04-11T11:10:24.93Z</time></trkpt><trkpt lat="45.871445115337416" lon="13.589653766668695"><ele>201.0</ele><time>2026-04-11T11:10:25.93Z</time></trkpt><trkpt lat="45.87155968003296" lon="13.589839453050585"><ele>201.0</ele><time>2026-04-11T11:10:26.93Z</time></trkpt><trkpt lat="45.87167435981162" lon="13.59003295521422"><ele>201.0</ele><time>2026-04-11T11:10:27.93Z</time></trkpt><trkpt lat="45.87179326808519" lon="13.590230826395175"><ele>203.0</ele><time>2026-04-11T11:10:28.93Z</time></trkpt><trkpt lat="45.87190959874994" lon="13.590423384134215"><ele>205.0</ele><time>2026-04-11T11:10:29.93Z</time></trkpt><trkpt lat="45.872022873179475" lon="13.590610442710117"><ele>207.0</ele><time>2026-04-11T11:10:30.93Z</time></trkpt><trkpt lat="45.87213427107526" lon="13.590794517872672"><ele>207.0</ele><time>2026-04-11T11:10:31.93Z</time></trkpt><trkpt lat="45.87224526133847" lon="13.590962709957783"><ele>207.0</ele><time>2026-04-11T11:10:32.93Z</time></trkpt><trkpt lat="45.87234911431957" lon="13.591124361805539"><ele>207.0</ele><time>2026-04-11T11:10:33.93Z</time></trkpt><trkpt lat="45.872453104603856" lon="13.591287659480178"><ele>207.33333333333331</ele><time>2026-04-11T11:10:34.93Z</time></trkpt><trkpt lat="45.87255047726831" lon="13.591451445066554"><ele>207.66666666666666</ele><time>2026-04-11T11:10:35.93Z</time></trkpt><trkpt lat="45.87264982952424" lon="13.59161486077958"><ele>208.0</ele><time>2026-04-11T11:10:36.93Z</time></trkpt><trkpt lat="45.87275590441904" lon="13.591786773298402"><ele>206.66666666666666</ele><time>2026-04-11T11:10:37.93Z</time></trkpt><trkpt lat="45.87286660240531" lon="13.591955473904507"><ele>205.33333333333331</ele><time>2026-04-11T11:10:38.93Z</time></trkpt><trkpt lat="45.87297245218006" lon="13.59213715479379"><ele>204.0</ele><time>2026-04-11T11:10:39.93Z</time></trkpt><trkpt lat="45.87308123394484" lon="13.59231748138027"><ele>204.0</ele><time>2026-04-11T11:10:40.93Z</time></trkpt><trkpt lat="45.87318169499313" lon="13.59251267625054"><ele>204.0</ele><time>2026-04-11T11:10:41.93Z</time></trkpt><trkpt lat="45.873278727266374" lon="13.592707480955937"><ele>204.0</ele><time>2026-04-11T11:10:42.93Z</time></trkpt><trkpt lat="45.873368408504916" lon="13.592903956893215"><ele>202.33333333333331</ele><time>2026-04-11T11:10:43.93Z</time></trkpt><trkpt lat="45.87345390870112" lon="13.593093778077687"><ele>200.66666666666666</ele><time>2026-04-11T11:10:44.93Z</time></trkpt><trkpt lat="45.87353927893993" lon="13.593291993475505"><ele>199.0</ele><time>2026-04-11T11:10:45.93Z</time></trkpt><trkpt lat="45.8736196150392" lon="13.593486785312827"><ele>201.0</ele><time>2026-04-11T11:10:46.93Z</time></trkpt><trkpt lat="45.87377906391812" lon="13.593869840591424"><ele>203.0</ele><time>2026-04-11T11:10:48.93Z</time></trkpt><trkpt lat="45.87387679740985" lon="13.594050189756551"><ele>203.0</ele><time>2026-04-11T11:10:49.93Z</time></trkpt><trkpt lat="45.87399168558815" lon="13.594222326320219"><ele>203.0</ele><time>2026-04-11T11:10:50.93Z</time></trkpt><trkpt lat="45.8741132717822" lon="13.594392083650161"><ele>203.0</ele><time>2026-04-11T11:10:51.93Z</time></trkpt><trkpt lat="45.874238915740136" lon="13.594555726395228"><ele>202.66666666666669</ele><time>2026-04-11T11:10:52.93Z</time></trkpt><trkpt lat="45.874365742732365" lon="13.594720348098155"><ele>202.33333333333331</ele><time>2026-04-11T11:10:53.93Z</time></trkpt><trkpt lat="45.874489100610035" lon="13.594879439206284"><ele>202.0</ele><time>2026-04-11T11:10:54.93Z</time></trkpt><trkpt lat="45.87460889509992" lon="13.595033865407768"><ele>202.0</ele><time>2026-04-11T11:10:55.93Z</time></trkpt><trkpt lat="45.874717575233106" lon="13.595178507523517"><ele>202.0</ele><time>2026-04-11T11:10:56.93Z</time></trkpt><trkpt lat="45.87482198799757" lon="13.59530900306239"><ele>202.0</ele><time>2026-04-11T11:10:57.93Z</time></trkpt><trkpt lat="45.87493116799563" lon="13.59542538349751"><ele>202.0</ele><time>2026-04-11T11:10:58.93Z</time></trkpt><trkpt lat="45.87504817858812" lon="13.595521987262225"><ele>201.39999999999998</ele><time>2026-04-11T11:10:59.93Z</time></trkpt><trkpt lat="45.875163598496165" lon="13.595574401778059"><ele>200.79999999999998</ele><time>2026-04-11T11:11:00.93Z</time></trkpt><trkpt lat="45.875250764266625" lon="13.595592197746562"><ele>200.2</ele><time>2026-04-11T11:11:01.93Z</time></trkpt><trkpt lat="45.87531803111148" lon="13.59561630726253"><ele>199.6</ele><time>2026-04-11T11:11:02.93Z</time></trkpt><trkpt lat="45.87542596972609" lon="13.595680292463284"><ele>199.0</ele><time>2026-04-11T11:11:04.93Z</time></trkpt><trkpt lat="45.87550802070213" lon="13.59574726486629"><ele>199.0</ele><time>2026-04-11T11:11:06.93Z</time></trkpt><trkpt lat="45.87559145262516" lon="13.595833707030378"><ele>199.0</ele><time>2026-04-11T11:11:08.93Z</time></trkpt><trkpt lat="45.87571765904762" lon="13.595944105702493"><ele>199.0</ele><time>2026-04-11T11:11:10.93Z</time></trkpt><trkpt lat="45.875790585808595" lon="13.59601818208202"><ele>199.0</ele><time>2026-04-11T11:11:11.93Z</time></trkpt><trkpt lat="45.87586835158513" lon="13.5960855834004"><ele>199.0</ele><time>2026-04-11T11:11:12.93Z</time></trkpt><trkpt lat="45.875946790026475" lon="13.596156857689747"><ele>199.79999999999998</ele><time>2026-04-11T11:11:13.93Z</time></trkpt><trkpt lat="45.87603614725001" lon="13.596236853179306"><ele>200.6</ele><time>2026-04-11T11:11:14.93Z</time></trkpt><trkpt lat="45.876127245752855" lon="13.596313377636248"><ele>201.4</ele><time>2026-04-11T11:11:15.93Z</time></trkpt><trkpt lat="45.876207444934934" lon="13.596381275606918"><ele>202.2</ele><time>2026-04-11T11:11:16.93Z</time></trkpt><trkpt lat="45.87628517329185" lon="13.596426857033803"><ele>203.0</ele><time>2026-04-11T11:11:17.929Z</time></trkpt><trkpt lat="45.876351911804505" lon="13.596482363726707"><ele>203.00000000000003</ele><time>2026-04-11T11:11:18.929Z</time></trkpt><trkpt lat="45.87641172195383" lon="13.596532385803897"><ele>203.0</ele><time>2026-04-11T11:11:19.929Z</time></trkpt><trkpt lat="45.8764651201127" lon="13.59658981506848"><ele>203.0</ele><time>2026-04-11T11:11:20.929Z</time></trkpt><trkpt lat="45.876531654732375" lon="13.596690187687377"><ele>203.0</ele><time>2026-04-11T11:11:22.929Z</time></trkpt><trkpt lat="45.87656346492442" lon="13.59681012771106"><ele>203.00000000000003</ele><time>2026-04-11T11:11:24.929Z</time></trkpt><trkpt lat="45.87654227597829" lon="13.596934141483782"><ele>203.0</ele><time>2026-04-11T11:11:26.929Z</time></trkpt><trkpt lat="45.87650575126635" lon="13.597095345507032"><ele>204.60000000000002</ele><time>2026-04-11T11:11:28.929Z</time></trkpt><trkpt lat="45.876482000963826" lon="13.597197024532182"><ele>206.20000000000002</ele><time>2026-04-11T11:11:29.929Z</time></trkpt><trkpt lat="45.876456764537465" lon="13.597318374594872"><ele>207.8</ele><time>2026-04-11T11:11:30.929Z</time></trkpt><trkpt lat="45.87643156054654" lon="13.597431854748354"><ele>209.4</ele><time>2026-04-11T11:11:31.929Z</time></trkpt><trkpt lat="45.876402880367024" lon="13.597572356238073"><ele>211.0</ele><time>2026-04-11T11:11:32.929Z</time></trkpt><trkpt lat="45.876365422405556" lon="13.597710326879907"><ele>211.4</ele><time>2026-04-11T11:11:33.929Z</time></trkpt><trkpt lat="45.876327170954475" lon="13.597849755133078"><ele>211.8</ele><time>2026-04-11T11:11:34.929Z</time></trkpt><trkpt lat="45.876288272068734" lon="13.597985116846079"><ele>212.20000000000002</ele><time>2026-04-11T11:11:35.929Z</time></trkpt><trkpt lat="45.87625850226906" lon="13.598130954474863"><ele>212.60000000000002</ele><time>2026-04-11T11:11:36.929Z</time></trkpt><trkpt lat="45.87622650694435" lon="13.59826915609399"><ele>213.0</ele><time>2026-04-11T11:11:37.929Z</time></trkpt><trkpt lat="45.87618973951112" lon="13.598397997562374"><ele>213.0</ele><time>2026-04-11T11:11:38.929Z</time></trkpt><trkpt lat="45.87614886709645" lon="13.598524620004863"><ele>213.0</ele><time>2026-04-11T11:11:39.929Z</time></trkpt><trkpt lat="45.876109658284385" lon="13.598661533327395"><ele>213.0</ele><time>2026-04-11T11:11:40.929Z</time></trkpt><trkpt lat="45.87608173274924" lon="13.598783692041088"><ele>213.0</ele><time>2026-04-11T11:11:41.929Z</time></trkpt><trkpt lat="45.876055704512325" lon="13.598915490957587"><ele>213.0</ele><time>2026-04-11T11:11:42.929Z</time></trkpt><trkpt lat="45.87603629995905" lon="13.59904416545655"><ele>213.2</ele><time>2026-04-11T11:11:43.929Z</time></trkpt><trkpt lat="45.87604279044127" lon="13.599193499274127"><ele>213.4</ele><time>2026-04-11T11:11:44.929Z</time></trkpt><trkpt lat="45.87601583181081" lon="13.599333012237045"><ele>213.59999999999997</ele><time>2026-04-11T11:11:45.929Z</time></trkpt><trkpt lat="45.87598824974292" lon="13.599466494191503"><ele>213.79999999999998</ele><time>2026-04-11T11:11:46.929Z</time></trkpt><trkpt lat="45.87596911028414" lon="13.599601395349618"><ele>214.0</ele><time>2026-04-11T11:11:47.929Z</time></trkpt><trkpt lat="45.87594800847284" lon="13.59974387871649"><ele>216.5</ele><time>2026-04-11T11:11:48.93Z</time></trkpt><trkpt lat="45.8759151950515" lon="13.599897052321401"><ele>219.0</ele><time>2026-04-11T11:11:49.93Z</time></trkpt><trkpt lat="45.87587383087876" lon="13.600050963925089"><ele>221.5</ele><time>2026-04-11T11:11:50.93Z</time></trkpt><trkpt lat="45.87582510006249" lon="13.600204149691496"><ele>224.0</ele><time>2026-04-11T11:11:51.93Z</time></trkpt><trkpt lat="45.87577657839438" lon="13.600375272716581"><ele>224.25</ele><time>2026-04-11T11:11:52.929Z</time></trkpt><trkpt lat="45.87573074270202" lon="13.600537326795129"><ele>224.5</ele><time>2026-04-11T11:11:53.929Z</time></trkpt><trkpt lat="45.87569593103385" lon="13.600697723519678"><ele>224.75</ele><time>2026-04-11T11:11:54.929Z</time></trkpt><trkpt lat="45.875663999463676" lon="13.600857924604734"><ele>225.0</ele><time>2026-04-11T11:11:55.929Z</time></trkpt><trkpt lat="45.875625430120024" lon="13.601007998551546"><ele>225.0</ele><time>2026-04-11T11:11:56.929Z</time></trkpt><trkpt lat="45.87558608682088" lon="13.601134606824042"><ele>225.0</ele><time>2026-04-11T11:11:57.93Z</time></trkpt><trkpt lat="45.87554104799818" lon="13.601250129951175"><ele>225.0</ele><time>2026-04-11T11:11:58.929Z</time></trkpt><trkpt lat="45.87549262338826" lon="13.60137918051754"><ele>225.0</ele><time>2026-04-11T11:11:59.929Z</time></trkpt><trkpt lat="45.87545767244334" lon="13.601534865656404"><ele>225.0</ele><time>2026-04-11T11:12:00.929Z</time></trkpt><trkpt lat="45.87541234772706" lon="13.601668023200112"><ele>225.6</ele><time>2026-04-11T11:12:01.929Z</time></trkpt><trkpt lat="45.875377119892164" lon="13.601798189171406"><ele>226.2</ele><time>2026-04-11T11:12:02.929Z</time></trkpt><trkpt lat="45.875338286480876" lon="13.601930250642662"><ele>226.8</ele><time>2026-04-11T11:12:03.929Z</time></trkpt><trkpt lat="45.87531700606127" lon="13.602063429606762"><ele>227.4</ele><time>2026-04-11T11:12:04.929Z</time></trkpt><trkpt lat="45.87527030985044" lon="13.602176366210163"><ele>228.0</ele><time>2026-04-11T11:12:05.929Z</time></trkpt><trkpt lat="45.87524335890381" lon="13.602301734132004"><ele>228.4</ele><time>2026-04-11T11:12:06.929Z</time></trkpt><trkpt lat="45.87520738773644" lon="13.602428009846049"><ele>228.8</ele><time>2026-04-11T11:12:07.929Z</time></trkpt><trkpt lat="45.875177098756296" lon="13.602557587867473"><ele>229.2</ele><time>2026-04-11T11:12:08.929Z</time></trkpt><trkpt lat="45.87514206676314" lon="13.602697879381711"><ele>229.6</ele><time>2026-04-11T11:12:09.929Z</time></trkpt><trkpt lat="45.87512193441263" lon="13.602850695581116"><ele>230.0</ele><time>2026-04-11T11:12:10.929Z</time></trkpt><trkpt lat="45.8750990268935" lon="13.60301153367823"><ele>234.25</ele><time>2026-04-11T11:12:11.929Z</time></trkpt><trkpt lat="45.87506046311872" lon="13.60316883514144"><ele>238.5</ele><time>2026-04-11T11:12:12.929Z</time></trkpt><trkpt lat="45.875029215064345" lon="13.60333130778195"><ele>242.75</ele><time>2026-04-11T11:12:13.929Z</time></trkpt><trkpt lat="45.87499000839342" lon="13.60348332151278"><ele>247.0</ele><time>2026-04-11T11:12:14.929Z</time></trkpt><trkpt lat="45.87496226658297" lon="13.603632373064265"><ele>247.6</ele><time>2026-04-11T11:12:15.929Z</time></trkpt><trkpt lat="45.87494004179031" lon="13.603770870523261"><ele>248.2</ele><time>2026-04-11T11:12:16.929Z</time></trkpt><trkpt lat="45.87490473672693" lon="13.603919050052511"><ele>248.8</ele><time>2026-04-11T11:12:17.929Z</time></trkpt><trkpt lat="45.8748605882372" lon="13.604068358642229"><ele>249.4</ele><time>2026-04-11T11:12:18.929Z</time></trkpt><trkpt lat="45.87483140491469" lon="13.604223792438304"><ele>250.0</ele><time>2026-04-11T11:12:19.929Z</time></trkpt><trkpt lat="45.8747851633196" lon="13.604344490240686"><ele>250.0</ele><time>2026-04-11T11:12:20.929Z</time></trkpt><trkpt lat="45.874754922759735" lon="13.604484089147487"><ele>250.0</ele><time>2026-04-11T11:12:21.929Z</time></trkpt><trkpt lat="45.87472327154639" lon="13.604621477686848"><ele>250.0</ele><time>2026-04-11T11:12:22.929Z</time></trkpt><trkpt lat="45.87468486955169" lon="13.604764020066957"><ele>250.0</ele><time>2026-04-11T11:12:23.929Z</time></trkpt><trkpt lat="45.87464367344186" lon="13.604901675372007"><ele>250.0</ele><time>2026-04-11T11:12:24.929Z</time></trkpt><trkpt lat="45.874605216118944" lon="13.605030179092266"><ele>250.0</ele><time>2026-04-11T11:12:25.929Z</time></trkpt><trkpt lat="45.87457518929992" lon="13.605168473586932"><ele>250.0</ele><time>2026-04-11T11:12:26.929Z</time></trkpt><trkpt lat="45.874533896399136" lon="13.605310548131833"><ele>250.0</ele><time>2026-04-11T11:12:27.929Z</time></trkpt><trkpt lat="45.8744774766119" lon="13.605453299043774"><ele>250.0</ele><time>2026-04-11T11:12:28.929Z</time></trkpt><trkpt lat="45.874430719350975" lon="13.605598238151508"><ele>250.0</ele><time>2026-04-11T11:12:29.929Z</time></trkpt><trkpt lat="45.8743893986691" lon="13.605726324821514"><ele>250.0</ele><time>2026-04-11T11:12:30.929Z</time></trkpt><trkpt lat="45.87436872565699" lon="13.605847211100864"><ele>250.0</ele><time>2026-04-11T11:12:31.929Z</time></trkpt><trkpt lat="45.87433759583512" lon="13.605952436271401"><ele>250.0</ele><time>2026-04-11T11:12:32.929Z</time></trkpt><trkpt lat="45.874301251333755" lon="13.606047066276757"><ele>250.0</ele><time>2026-04-11T11:12:33.929Z</time></trkpt><trkpt lat="45.874278394255" lon="13.606197851011462"><ele>250.0</ele><time>2026-04-11T11:12:35.929Z</time></trkpt><trkpt lat="45.874275549285706" lon="13.606388456588421"><ele>250.0</ele><time>2026-04-11T11:12:37.929Z</time></trkpt><trkpt lat="45.87428160977427" lon="13.606505597510486"><ele>250.0</ele><time>2026-04-11T11:12:38.929Z</time></trkpt><trkpt lat="45.87428706125169" lon="13.606673203550171"><ele>250.0</ele><time>2026-04-11T11:12:39.929Z</time></trkpt><trkpt lat="45.87428833795121" lon="13.606847103668725"><ele>250.0</ele><time>2026-04-11T11:12:40.929Z</time></trkpt><trkpt lat="45.87428872956423" lon="13.606991841436917"><ele>250.0</ele><time>2026-04-11T11:12:41.929Z</time></trkpt><trkpt lat="45.87429827382483" lon="13.60716360146612"><ele>250.0</ele><time>2026-04-11T11:12:42.928Z</time></trkpt><trkpt lat="45.87428935048889" lon="13.607332051311731"><ele>250.0</ele><time>2026-04-11T11:12:43.928Z</time></trkpt><trkpt lat="45.87428087398038" lon="13.60749482231864"><ele>250.0</ele><time>2026-04-11T11:12:44.928Z</time></trkpt><trkpt lat="45.87427120939124" lon="13.60764887658168"><ele>250.0</ele><time>2026-04-11T11:12:45.928Z</time></trkpt><trkpt lat="45.87428604550052" lon="13.607803434264577"><ele>250.0</ele><time>2026-04-11T11:12:46.928Z</time></trkpt><trkpt lat="45.87430311046658" lon="13.607943555543377"><ele>251.2</ele><time>2026-04-11T11:12:47.928Z</time></trkpt><trkpt lat="45.874310950567" lon="13.608096069696167"><ele>252.4</ele><time>2026-04-11T11:12:48.928Z</time></trkpt><trkpt lat="45.874316347228685" lon="13.608236831244781"><ele>253.60000000000002</ele><time>2026-04-11T11:12:49.928Z</time></trkpt><trkpt lat="45.87433791914534" lon="13.608368517680418"><ele>254.8</ele><time>2026-04-11T11:12:50.928Z</time></trkpt><trkpt lat="45.874349672552235" lon="13.608484800251182"><ele>256.0</ele><time>2026-04-11T11:12:51.928Z</time></trkpt><trkpt lat="45.87438040931253" lon="13.608593093925695"><ele>256.0</ele><time>2026-04-11T11:12:52.928Z</time></trkpt><trkpt lat="45.874422286537666" lon="13.608701767201095"><ele>256.0</ele><time>2026-04-11T11:12:53.928Z</time></trkpt><trkpt lat="45.874491666543356" lon="13.608794890803566"><ele>256.0</ele><time>2026-04-11T11:12:54.928Z</time></trkpt><trkpt lat="45.874571114984136" lon="13.608885887176417"><ele>256.0</ele><time>2026-04-11T11:12:55.928Z</time></trkpt><trkpt lat="45.87464569764809" lon="13.608973515017668"><ele>256.0</ele><time>2026-04-11T11:12:56.928Z</time></trkpt><trkpt lat="45.874707077868514" lon="13.609055840991715"><ele>256.0</ele><time>2026-04-11T11:12:57.928Z</time></trkpt><trkpt lat="45.8747595340296" lon="13.609135301608486"><ele>255.99999999999997</ele><time>2026-04-11T11:12:58.928Z</time></trkpt><trkpt lat="45.874812268464005" lon="13.609212319555027"><ele>256.0</ele><time>2026-04-11T11:12:59.928Z</time></trkpt><trkpt lat="45.87485470135578" lon="13.609284896815959"><ele>256.0</ele><time>2026-04-11T11:13:00.928Z</time></trkpt><trkpt lat="45.874896342601154" lon="13.609363338350546"><ele>255.99999999999997</ele><time>2026-04-11T11:13:01.928Z</time></trkpt><trkpt lat="45.87493449410439" lon="13.609449953931192"><ele>256.0</ele><time>2026-04-11T11:13:02.928Z</time></trkpt><trkpt lat="45.874971149430664" lon="13.609537026290498"><ele>256.0</ele><time>2026-04-11T11:13:03.928Z</time></trkpt><trkpt lat="45.87500550051601" lon="13.60961972148207"><ele>256.3333333333333</ele><time>2026-04-11T11:13:04.928Z</time></trkpt><trkpt lat="45.87503659589933" lon="13.609703886512907"><ele>256.66666666666663</ele><time>2026-04-11T11:13:05.928Z</time></trkpt><trkpt lat="45.87506644502038" lon="13.609793645952449"><ele>257.0</ele><time>2026-04-11T11:13:06.928Z</time></trkpt><trkpt lat="45.87509206241262" lon="13.609893701565147"><ele>257.3333333333333</ele><time>2026-04-11T11:13:07.928Z</time></trkpt><trkpt lat="45.87510819594921" lon="13.609991881100791"><ele>257.6666666666667</ele><time>2026-04-11T11:13:08.928Z</time></trkpt><trkpt lat="45.87512723278174" lon="13.610120417359266"><ele>258.0</ele><time>2026-04-11T11:13:09.928Z</time></trkpt><trkpt lat="45.87513783470197" lon="13.610234172192705"><ele>253.66666666666666</ele><time>2026-04-11T11:13:10.928Z</time></trkpt><trkpt lat="45.87514331582973" lon="13.610343396343998"><ele>249.33333333333331</ele><time>2026-04-11T11:13:11.928Z</time></trkpt><trkpt lat="45.87514141372594" lon="13.610458639436517"><ele>245.0</ele><time>2026-04-11T11:13:12.928Z</time></trkpt><trkpt lat="45.875141749456525" lon="13.610576836903473"><ele>240.66666666666666</ele><time>2026-04-11T11:13:13.928Z</time></trkpt><trkpt lat="45.87513959662984" lon="13.610676003942215"><ele>236.33333333333331</ele><time>2026-04-11T11:13:14.928Z</time></trkpt><trkpt lat="45.875142663702405" lon="13.610796889671622"><ele>232.0</ele><time>2026-04-11T11:13:15.928Z</time></trkpt><trkpt lat="45.875143221261396" lon="13.610909941943985"><ele>231.99999999999997</ele><time>2026-04-11T11:13:16.928Z</time></trkpt><trkpt lat="45.87514921057196" lon="13.611030309083176"><ele>232.0</ele><time>2026-04-11T11:13:17.928Z</time></trkpt><trkpt lat="45.87515827660399" lon="13.61114285458777"><ele>232.0</ele><time>2026-04-11T11:13:18.928Z</time></trkpt><trkpt lat="45.87515893196226" lon="13.611252897284693"><ele>232.0</ele><time>2026-04-11T11:13:19.928Z</time></trkpt><trkpt lat="45.87516205024087" lon="13.611364107757899"><ele>231.99999999999997</ele><time>2026-04-11T11:13:20.928Z</time></trkpt><trkpt lat="45.87514807584552" lon="13.611464728318564"><ele>232.0</ele><time>2026-04-11T11:13:21.928Z</time></trkpt><trkpt lat="45.8751255517853" lon="13.611557710269826"><ele>230.8</ele><time>2026-04-11T11:13:22.928Z</time></trkpt><trkpt lat="45.87508568561294" lon="13.61164235312015"><ele>229.6</ele><time>2026-04-11T11:13:23.928Z</time></trkpt><trkpt lat="45.87501146268442" lon="13.611751981223259"><ele>228.40000000000003</ele><time>2026-04-11T11:13:25.928Z</time></trkpt><trkpt lat="45.87501079723949" lon="13.611879767529048"><ele>227.20000000000002</ele><time>2026-04-11T11:13:27.928Z</time></trkpt><trkpt lat="45.875100274607455" lon="13.61199180789151"><ele>226.0</ele><time>2026-04-11T11:13:29.928Z</time></trkpt><trkpt lat="45.87515616069431" lon="13.612043362803613"><ele>225.99999999999997</ele><time>2026-04-11T11:13:30.928Z</time></trkpt><trkpt lat="45.87521506782284" lon="13.61210218898504"><ele>226.0</ele><time>2026-04-11T11:13:31.928Z</time></trkpt><trkpt lat="45.87526952969154" lon="13.612163004977408"><ele>226.0</ele><time>2026-04-11T11:13:32.928Z</time></trkpt><trkpt lat="45.87532261238352" lon="13.61223065342281"><ele>226.0</ele><time>2026-04-11T11:13:33.928Z</time></trkpt><trkpt lat="45.87540158401385" lon="13.61233852780531"><ele>225.99999999999997</ele><time>2026-04-11T11:13:35.928Z</time></trkpt><trkpt lat="45.87545120409242" lon="13.612487144625955"><ele>226.0</ele><time>2026-04-11T11:13:37.928Z</time></trkpt><trkpt lat="45.8754767121293" lon="13.612578516632388"><ele>225.99999999999997</ele><time>2026-04-11T11:13:38.928Z</time></trkpt><trkpt lat="45.87550635458088" lon="13.61267529427066"><ele>226.0</ele><time>2026-04-11T11:13:39.928Z</time></trkpt><trkpt lat="45.87551699029534" lon="13.6127749236134"><ele>226.0</ele><time>2026-04-11T11:13:40.928Z</time></trkpt><trkpt lat="45.875523796665945" lon="13.612895059509109"><ele>226.0</ele><time>2026-04-11T11:13:41.928Z</time></trkpt><trkpt lat="45.87552547340216" lon="13.6130285665708"><ele>225.99999999999997</ele><time>2026-04-11T11:13:42.928Z</time></trkpt><trkpt lat="45.87554104113279" lon="13.613148407901619"><ele>226.0</ele><time>2026-04-11T11:13:43.928Z</time></trkpt><trkpt lat="45.87554779337358" lon="13.61325885699199"><ele>226.16666666666666</ele><time>2026-04-11T11:13:44.927Z</time></trkpt><trkpt lat="45.87555774665535" lon="13.613370095488047"><ele>226.33333333333331</ele><time>2026-04-11T11:13:45.927Z</time></trkpt><trkpt lat="45.8755652303542" lon="13.61348177895589"><ele>226.5</ele><time>2026-04-11T11:13:46.927Z</time></trkpt><trkpt lat="45.8755599797237" lon="13.613667253703017"><ele>226.66666666666669</ele><time>2026-04-11T11:13:48.927Z</time></trkpt><trkpt lat="45.875549199742665" lon="13.613768246623913"><ele>226.83333333333334</ele><time>2026-04-11T11:13:49.927Z</time></trkpt><trkpt lat="45.87552483821258" lon="13.613873294897127"><ele>227.0</ele><time>2026-04-11T11:13:50.927Z</time></trkpt><trkpt lat="45.87549543665582" lon="13.613965282634618"><ele>226.50000000000003</ele><time>2026-04-11T11:13:51.929Z</time></trkpt><trkpt lat="45.87547224820862" lon="13.61406579403956"><ele>226.0</ele><time>2026-04-11T11:13:52.928Z</time></trkpt><trkpt lat="45.875468739010714" lon="13.614187953491221"><ele>225.5</ele><time>2026-04-11T11:13:53.928Z</time></trkpt><trkpt lat="45.87548109312475" lon="13.614281901404395"><ele>225.0</ele><time>2026-04-11T11:13:54.929Z</time></trkpt><trkpt lat="45.87552445002678" lon="13.614385800125921"><ele>224.50000000000003</ele><time>2026-04-11T11:13:55.928Z</time></trkpt><trkpt lat="45.875572200225996" lon="13.614473125066807"><ele>224.0</ele><time>2026-04-11T11:13:56.928Z</time></trkpt><trkpt lat="45.87561133020491" lon="13.614553764049578"><ele>224.00000000000003</ele><time>2026-04-11T11:13:57.928Z</time></trkpt><trkpt lat="45.875650614428224" lon="13.614707607944398"><ele>224.0</ele><time>2026-04-11T11:13:59.929Z</time></trkpt><trkpt lat="45.87565704034847" lon="13.61482060040602"><ele>224.0</ele><time>2026-04-11T11:14:00.928Z</time></trkpt><trkpt lat="45.87567590617951" lon="13.614943841412831"><ele>224.0</ele><time>2026-04-11T11:14:01.928Z</time></trkpt><trkpt lat="45.87569596078721" lon="13.61505930031324"><ele>224.00000000000003</ele><time>2026-04-11T11:14:02.928Z</time></trkpt><trkpt lat="45.87572341371966" lon="13.615157724371008"><ele>224.0</ele><time>2026-04-11T11:14:03.928Z</time></trkpt><trkpt lat="45.875736636169094" lon="13.615248193018665"><ele>224.16666666666669</ele><time>2026-04-11T11:14:04.928Z</time></trkpt><trkpt lat="45.87572978924155" lon="13.615347593817763"><ele>224.33333333333334</ele><time>2026-04-11T11:14:05.928Z</time></trkpt><trkpt lat="45.875706674760295" lon="13.61544152409502"><ele>224.5</ele><time>2026-04-11T11:14:06.928Z</time></trkpt><trkpt lat="45.87567682958331" lon="13.61555768461295"><ele>224.66666666666669</ele><time>2026-04-11T11:14:07.928Z</time></trkpt><trkpt lat="45.87564507261178" lon="13.615688065453964"><ele>224.83333333333334</ele><time>2026-04-11T11:14:08.928Z</time></trkpt><trkpt lat="45.87561839366423" lon="13.61582069351481"><ele>225.0</ele><time>2026-04-11T11:14:09.928Z</time></trkpt><trkpt lat="45.875596618715186" lon="13.615975518460766"><ele>225.0</ele><time>2026-04-11T11:14:10.928Z</time></trkpt><trkpt lat="45.87558956099428" lon="13.616130223275093"><ele>225.0</ele><time>2026-04-11T11:14:11.928Z</time></trkpt><trkpt lat="45.87558986427027" lon="13.616279477584904"><ele>225.0</ele><time>2026-04-11T11:14:12.928Z</time></trkpt><trkpt lat="45.87557669122111" lon="13.616411771876855"><ele>225.0</ele><time>2026-04-11T11:14:13.928Z</time></trkpt><trkpt lat="45.87554846208933" lon="13.616551661159047"><ele>225.0</ele><time>2026-04-11T11:14:14.928Z</time></trkpt><trkpt lat="45.87551637741773" lon="13.616714712690793"><ele>224.8</ele><time>2026-04-11T11:14:15.928Z</time></trkpt><trkpt lat="45.87549348912235" lon="13.61686377431531"><ele>224.6</ele><time>2026-04-11T11:14:16.928Z</time></trkpt><trkpt lat="45.87547472762083" lon="13.617001324508413"><ele>224.39999999999998</ele><time>2026-04-11T11:14:17.928Z</time></trkpt><trkpt lat="45.875439742296265" lon="13.617127218039396"><ele>224.2</ele><time>2026-04-11T11:14:18.928Z</time></trkpt><trkpt lat="45.87539976619383" lon="13.617265289882459"><ele>224.0</ele><time>2026-04-11T11:14:19.928Z</time></trkpt><trkpt lat="45.87536108377171" lon="13.617417277537061"><ele>222.79999999999998</ele><time>2026-04-11T11:14:20.928Z</time></trkpt><trkpt lat="45.875316003697684" lon="13.617549463139769"><ele>221.59999999999997</ele><time>2026-04-11T11:14:21.928Z</time></trkpt><trkpt lat="45.87527597362152" lon="13.617682281198618"><ele>220.4</ele><time>2026-04-11T11:14:22.928Z</time></trkpt><trkpt lat="45.87524596175815" lon="13.61778164526436"><ele>219.2</ele><time>2026-04-11T11:14:23.928Z</time></trkpt><trkpt lat="45.875203280522825" lon="13.617938895514614"><ele>218.0</ele><time>2026-04-11T11:14:25.928Z</time></trkpt><trkpt lat="45.875175176364664" lon="13.618024120078198"><ele>217.66666666666669</ele><time>2026-04-11T11:14:26.928Z</time></trkpt><trkpt lat="45.87517174828794" lon="13.618190600856778"><ele>217.33333333333334</ele><time>2026-04-11T11:14:28.928Z</time></trkpt><trkpt lat="45.875208692176585" lon="13.618268490328855"><ele>217.0</ele><time>2026-04-11T11:14:29.928Z</time></trkpt><trkpt lat="45.875242268864525" lon="13.618369247348841"><ele>216.66666666666669</ele><time>2026-04-11T11:14:30.928Z</time></trkpt><trkpt lat="45.87525861088838" lon="13.618465561168676"><ele>216.33333333333334</ele><time>2026-04-11T11:14:31.928Z</time></trkpt><trkpt lat="45.87526122280705" lon="13.618572237795624"><ele>216.0</ele><time>2026-04-11T11:14:32.928Z</time></trkpt><trkpt lat="45.87524920352228" lon="13.618682418178937"><ele>216.0</ele><time>2026-04-11T11:14:33.928Z</time></trkpt><trkpt lat="45.87522729475524" lon="13.618808276021426"><ele>216.00000000000003</ele><time>2026-04-11T11:14:34.928Z</time></trkpt><trkpt lat="45.875231851209655" lon="13.618939792554697"><ele>216.00000000000003</ele><time>2026-04-11T11:14:35.928Z</time></trkpt><trkpt lat="45.8752344661707" lon="13.619073671812506"><ele>216.0</ele><time>2026-04-11T11:14:36.928Z</time></trkpt><trkpt lat="45.875250295387914" lon="13.619217959546527"><ele>216.0</ele><time>2026-04-11T11:14:37.928Z</time></trkpt><trkpt lat="45.875259512500115" lon="13.619346702963194"><ele>216.0</ele><time>2026-04-11T11:14:38.928Z</time></trkpt><trkpt lat="45.875270840063806" lon="13.619454626921362"><ele>216.0</ele><time>2026-04-11T11:14:39.928Z</time></trkpt><trkpt lat="45.87526751905761" lon="13.619548110633152"><ele>216.0</ele><time>2026-04-11T11:14:40.928Z</time></trkpt><trkpt lat="45.87525794659998" lon="13.619654309590453"><ele>216.0</ele><time>2026-04-11T11:14:41.928Z</time></trkpt><trkpt lat="45.8752228057138" lon="13.619754886051258"><ele>216.0</ele><time>2026-04-11T11:14:42.928Z</time></trkpt><trkpt lat="45.87517817413723" lon="13.619880728960254"><ele>216.0</ele><time>2026-04-11T11:14:43.928Z</time></trkpt><trkpt lat="45.87513533180542" lon="13.620026838005536"><ele>216.4</ele><time>2026-04-11T11:14:44.928Z</time></trkpt><trkpt lat="45.87509512898387" lon="13.620144311752163"><ele>216.8</ele><time>2026-04-11T11:14:45.928Z</time></trkpt><trkpt lat="45.875070270475" lon="13.620241962735964"><ele>217.20000000000002</ele><time>2026-04-11T11:14:46.928Z</time></trkpt><trkpt lat="45.875054637136046" lon="13.62033266185558"><ele>217.60000000000002</ele><time>2026-04-11T11:14:47.928Z</time></trkpt><trkpt lat="45.87510255641838" lon="13.620497942239103"><ele>218.0</ele><time>2026-04-11T11:14:49.928Z</time></trkpt><trkpt lat="45.875214445042324" lon="13.620609431327907"><ele>218.0</ele><time>2026-04-11T11:14:51.928Z</time></trkpt><trkpt lat="45.875263748213484" lon="13.620676776324425"><ele>218.0</ele><time>2026-04-11T11:14:52.928Z</time></trkpt><trkpt lat="45.87529108275307" lon="13.620771217426057"><ele>218.0</ele><time>2026-04-11T11:14:53.928Z</time></trkpt><trkpt lat="45.87530049607008" lon="13.620891753488875"><ele>218.0</ele><time>2026-04-11T11:14:54.928Z</time></trkpt><trkpt lat="45.87531086160849" lon="13.62104730682051"><ele>218.0</ele><time>2026-04-11T11:14:55.928Z</time></trkpt><trkpt lat="45.87532327198256" lon="13.621228855455174"><ele>217.25</ele><time>2026-04-11T11:14:56.928Z</time></trkpt><trkpt lat="45.87532128623066" lon="13.621394056093775"><ele>216.5</ele><time>2026-04-11T11:14:57.928Z</time></trkpt><trkpt lat="45.87531421064333" lon="13.621550313217416"><ele>215.75</ele><time>2026-04-11T11:14:58.928Z</time></trkpt><trkpt lat="45.87530168472104" lon="13.62171202366324"><ele>215.0</ele><time>2026-04-11T11:14:59.928Z</time></trkpt><trkpt lat="45.87529041052966" lon="13.62190046980918"><ele>216.0</ele><time>2026-04-11T11:15:00.928Z</time></trkpt><trkpt lat="45.8752910895168" lon="13.622064485729565"><ele>217.0</ele><time>2026-04-11T11:15:01.928Z</time></trkpt><trkpt lat="45.875302670284334" lon="13.622216485405183"><ele>218.0</ele><time>2026-04-11T11:15:02.928Z</time></trkpt><trkpt lat="45.87531088629151" lon="13.622361040589075"><ele>219.0</ele><time>2026-04-11T11:15:03.928Z</time></trkpt><trkpt lat="45.87534260746978" lon="13.622495356377854"><ele>220.0</ele><time>2026-04-11T11:15:04.927Z</time></trkpt><trkpt lat="45.875337903919245" lon="13.622628361170953"><ele>219.99999999999997</ele><time>2026-04-11T11:15:05.927Z</time></trkpt><trkpt lat="45.875351312217184" lon="13.622747050623556"><ele>220.0</ele><time>2026-04-11T11:15:06.927Z</time></trkpt><trkpt lat="45.87535192764462" lon="13.622860483875025"><ele>220.0</ele><time>2026-04-11T11:15:07.927Z</time></trkpt><trkpt lat="45.87531798357182" lon="13.622965620863873"><ele>220.0</ele><time>2026-04-11T11:15:08.927Z</time></trkpt><trkpt lat="45.875311560691685" lon="13.623095061514631"><ele>219.99999999999997</ele><time>2026-04-11T11:15:09.927Z</time></trkpt><trkpt lat="45.87528773959861" lon="13.62323233963139"><ele>220.0</ele><time>2026-04-11T11:15:10.927Z</time></trkpt><trkpt lat="45.87529145725536" lon="13.623370602404071"><ele>220.0</ele><time>2026-04-11T11:15:11.927Z</time></trkpt><trkpt lat="45.875303980241995" lon="13.623523016395323"><ele>220.0</ele><time>2026-04-11T11:15:12.927Z</time></trkpt><trkpt lat="45.87529729606847" lon="13.623658003527591"><ele>220.0</ele><time>2026-04-11T11:15:13.927Z</time></trkpt><trkpt lat="45.87527777965835" lon="13.623783664634683"><ele>220.0</ele><time>2026-04-11T11:15:14.927Z</time></trkpt><trkpt lat="45.875258036703364" lon="13.623952746903804"><ele>220.0</ele><time>2026-04-11T11:15:15.927Z</time></trkpt><trkpt lat="45.87523923029858" lon="13.624131425016142"><ele>220.2</ele><time>2026-04-11T11:15:16.927Z</time></trkpt><trkpt lat="45.87522593038201" lon="13.62427686319663"><ele>220.4</ele><time>2026-04-11T11:15:17.927Z</time></trkpt><trkpt lat="45.87522300732585" lon="13.624413855196721"><ele>220.60000000000002</ele><time>2026-04-11T11:15:18.927Z</time></trkpt><trkpt lat="45.87520485254078" lon="13.624544244235071"><ele>220.8</ele><time>2026-04-11T11:15:19.927Z</time></trkpt><trkpt lat="45.875168181644945" lon="13.624667125139146"><ele>221.0</ele><time>2026-04-11T11:15:20.927Z</time></trkpt><trkpt lat="45.875143237074745" lon="13.624806247188324"><ele>222.0</ele><time>2026-04-11T11:15:21.927Z</time></trkpt><trkpt lat="45.87511772292102" lon="13.62494430197027"><ele>223.00000000000003</ele><time>2026-04-11T11:15:22.927Z</time></trkpt><trkpt lat="45.875100480906134" lon="13.625104202241227"><ele>224.00000000000003</ele><time>2026-04-11T11:15:23.927Z</time></trkpt><trkpt lat="45.875067442816864" lon="13.625250921644163"><ele>225.0</ele><time>2026-04-11T11:15:24.927Z</time></trkpt><trkpt lat="45.87503006846067" lon="13.625402315683893"><ele>226.0</ele><time>2026-04-11T11:15:25.927Z</time></trkpt><trkpt lat="45.87499488137573" lon="13.625563216697786"><ele>231.60000000000002</ele><time>2026-04-11T11:15:26.927Z</time></trkpt><trkpt lat="45.87495659210615" lon="13.625713051382316"><ele>237.20000000000002</ele><time>2026-04-11T11:15:27.927Z</time></trkpt><trkpt lat="45.874928251725855" lon="13.625860852284438"><ele>242.79999999999998</ele><time>2026-04-11T11:15:28.927Z</time></trkpt><trkpt lat="45.87490793940434" lon="13.626011017916383"><ele>248.39999999999998</ele><time>2026-04-11T11:15:29.927Z</time></trkpt><trkpt lat="45.874893216559414" lon="13.626157896121011"><ele>254.0</ele><time>2026-04-11T11:15:30.927Z</time></trkpt><trkpt lat="45.874889330204844" lon="13.62629373149676"><ele>254.2</ele><time>2026-04-11T11:15:31.927Z</time></trkpt><trkpt lat="45.874872955064696" lon="13.626437726800976"><ele>254.39999999999998</ele><time>2026-04-11T11:15:32.927Z</time></trkpt><trkpt lat="45.87484315306657" lon="13.626575567874426"><ele>254.6</ele><time>2026-04-11T11:15:33.927Z</time></trkpt><trkpt lat="45.8748146162183" lon="13.626711955782845"><ele>254.8</ele><time>2026-04-11T11:15:34.927Z</time></trkpt><trkpt lat="45.874781727424725" lon="13.626859598856838"><ele>255.0</ele><time>2026-04-11T11:15:35.927Z</time></trkpt><trkpt lat="45.87475022514478" lon="13.627001185048861"><ele>256.4</ele><time>2026-04-11T11:15:36.927Z</time></trkpt><trkpt lat="45.87471938031131" lon="13.62714199367334"><ele>257.8</ele><time>2026-04-11T11:15:37.927Z</time></trkpt><trkpt lat="45.87470526401036" lon="13.62727834847471"><ele>259.2</ele><time>2026-04-11T11:15:38.927Z</time></trkpt><trkpt lat="45.874673586015945" lon="13.627407436561016"><ele>260.6</ele><time>2026-04-11T11:15:39.927Z</time></trkpt><trkpt lat="45.87464123317361" lon="13.627519562559058"><ele>262.0</ele><time>2026-04-11T11:15:40.927Z</time></trkpt><trkpt lat="45.87462258346781" lon="13.627633391852703"><ele>262.0</ele><time>2026-04-11T11:15:41.927Z</time></trkpt><trkpt lat="45.87462876117783" lon="13.627771904584698"><ele>262.0</ele><time>2026-04-11T11:15:42.927Z</time></trkpt><trkpt lat="45.87467138208935" lon="13.627918606172754"><ele>262.0</ele><time>2026-04-11T11:15:43.927Z</time></trkpt><trkpt lat="45.87472847977392" lon="13.628029861852404"><ele>262.0</ele><time>2026-04-11T11:15:44.927Z</time></trkpt><trkpt lat="45.874797487362585" lon="13.628128470951497"><ele>262.0</ele><time>2026-04-11T11:15:45.927Z</time></trkpt><trkpt lat="45.8748210122238" lon="13.628228327402363"><ele>263.25</ele><time>2026-04-11T11:15:46.927Z</time></trkpt><trkpt lat="45.87486152047266" lon="13.628389222814933"><ele>264.5</ele><time>2026-04-11T11:15:48.927Z</time></trkpt><trkpt lat="45.87487332285335" lon="13.6285708554558"><ele>265.75</ele><time>2026-04-11T11:15:50.927Z</time></trkpt><trkpt lat="45.87485460879316" lon="13.628716351753"><ele>267.0</ele><time>2026-04-11T11:15:51.927Z</time></trkpt><trkpt lat="45.87482594533819" lon="13.628901147191534"><ele>267.0</ele><time>2026-04-11T11:15:52.927Z</time></trkpt><trkpt lat="45.87479633375179" lon="13.62908286081521"><ele>267.0</ele><time>2026-04-11T11:15:53.927Z</time></trkpt><trkpt lat="45.87476332286478" lon="13.62923685656414"><ele>267.0</ele><time>2026-04-11T11:15:54.927Z</time></trkpt><trkpt lat="45.8747415740655" lon="13.629369582179638"><ele>267.0</ele><time>2026-04-11T11:15:55.927Z</time></trkpt><trkpt lat="45.87471750649716" lon="13.629473547011912"><ele>267.0</ele><time>2026-04-11T11:15:56.927Z</time></trkpt><trkpt lat="45.87468270027798" lon="13.62957134484227"><ele>266.3333333333333</ele><time>2026-04-11T11:15:57.928Z</time></trkpt><trkpt lat="45.8746372802039" lon="13.629646123321475"><ele>265.6666666666667</ele><time>2026-04-11T11:15:58.927Z</time></trkpt><trkpt lat="45.8745766650664" lon="13.629709962372575"><ele>265.0</ele><time>2026-04-11T11:15:59.927Z</time></trkpt><trkpt lat="45.874503109720635" lon="13.629784620484852"><ele>264.33333333333337</ele><time>2026-04-11T11:16:00.928Z</time></trkpt><trkpt lat="45.87443523704431" lon="13.629889149010879"><ele>263.6666666666667</ele><time>2026-04-11T11:16:01.928Z</time></trkpt><trkpt lat="45.874358421469786" lon="13.629979519582257"><ele>263.0</ele><time>2026-04-11T11:16:02.928Z</time></trkpt><trkpt lat="45.874286365079996" lon="13.630088444564004"><ele>264.8</ele><time>2026-04-11T11:16:03.927Z</time></trkpt><trkpt lat="45.87421764044498" lon="13.630200668681852"><ele>266.6</ele><time>2026-04-11T11:16:04.928Z</time></trkpt><trkpt lat="45.874153184568875" lon="13.630338985016932"><ele>268.4</ele><time>2026-04-11T11:16:05.928Z</time></trkpt><trkpt lat="45.87409059751461" lon="13.630468694327874"><ele>270.2</ele><time>2026-04-11T11:16:06.928Z</time></trkpt><trkpt lat="45.87403902726557" lon="13.630597002083029"><ele>272.0</ele><time>2026-04-11T11:16:07.927Z</time></trkpt><trkpt lat="45.87396695534894" lon="13.630741984370465"><ele>272.0</ele><time>2026-04-11T11:16:08.927Z</time></trkpt><trkpt lat="45.873901734695906" lon="13.630893144899671"><ele>272.0</ele><time>2026-04-11T11:16:09.928Z</time></trkpt><trkpt lat="45.873846852921716" lon="13.63104625819997"><ele>272.0</ele><time>2026-04-11T11:16:10.928Z</time></trkpt><trkpt lat="45.87379329523792" lon="13.631187872690411"><ele>272.0</ele><time>2026-04-11T11:16:11.928Z</time></trkpt><trkpt lat="45.873722670366924" lon="13.631321044540474"><ele>270.25</ele><time>2026-04-11T11:16:12.928Z</time></trkpt><trkpt lat="45.873657502288914" lon="13.631441054187922"><ele>268.5</ele><time>2026-04-11T11:16:13.928Z</time></trkpt><trkpt lat="45.87359662470357" lon="13.631586869361142"><ele>266.75</ele><time>2026-04-11T11:16:14.928Z</time></trkpt><trkpt lat="45.873515177122385" lon="13.631723467985271"><ele>265.0</ele><time>2026-04-11T11:16:15.928Z</time></trkpt><trkpt lat="45.87344540227694" lon="13.631872423948174"><ele>272.5</ele><time>2026-04-11T11:16:16.928Z</time></trkpt><trkpt lat="45.873361155294155" lon="13.632016050355505"><ele>280.0</ele><time>2026-04-11T11:16:17.928Z</time></trkpt><trkpt lat="45.87331608815735" lon="13.632159759317926"><ele>287.5</ele><time>2026-04-11T11:16:18.928Z</time></trkpt><trkpt lat="45.87324462451502" lon="13.632308078695067"><ele>295.0</ele><time>2026-04-11T11:16:19.928Z</time></trkpt><trkpt lat="45.873176958697734" lon="13.632458868749811"><ele>295.0</ele><time>2026-04-11T11:16:20.928Z</time></trkpt><trkpt lat="45.87311505879669" lon="13.63259655235837"><ele>295.0</ele><time>2026-04-11T11:16:21.929Z</time></trkpt><trkpt lat="45.873044611764" lon="13.632715781952568"><ele>295.0</ele><time>2026-04-11T11:16:22.93Z</time></trkpt><trkpt lat="45.872978829194864" lon="13.632857570859768"><ele>295.0</ele><time>2026-04-11T11:16:23.931Z</time></trkpt><trkpt lat="45.87292650444481" lon="13.633010262540697"><ele>294.4</ele><time>2026-04-11T11:16:24.931Z</time></trkpt><trkpt lat="45.872874854879434" lon="13.633140921912586"><ele>293.8</ele><time>2026-04-11T11:16:25.932Z</time></trkpt><trkpt lat="45.87282766493821" lon="13.633265399341504"><ele>293.2</ele><time>2026-04-11T11:16:26.933Z</time></trkpt><trkpt lat="45.872791680391046" lon="13.633377616623727"><ele>292.6</ele><time>2026-04-11T11:16:27.933Z</time></trkpt><trkpt lat="45.872750690073744" lon="13.633510634742214"><ele>292.0</ele><time>2026-04-11T11:16:28.934Z</time></trkpt><trkpt lat="45.872707640838605" lon="13.633646196510195"><ele>292.0</ele><time>2026-04-11T11:16:29.935Z</time></trkpt><trkpt lat="45.87266758631191" lon="13.633782550868833"><ele>292.0</ele><time>2026-04-11T11:16:30.935Z</time></trkpt><trkpt lat="45.87262872140847" lon="13.633909981714227"><ele>292.0</ele><time>2026-04-11T11:16:31.936Z</time></trkpt><trkpt lat="45.87256315265394" lon="13.634011937831184"><ele>292.0</ele><time>2026-04-11T11:16:32.936Z</time></trkpt><trkpt lat="45.87251663148295" lon="13.634117366577913"><ele>292.0</ele><time>2026-04-11T11:16:33.937Z</time></trkpt><trkpt lat="45.87247197784888" lon="13.634252124994772"><ele>297.0</ele><time>2026-04-11T11:16:34.937Z</time></trkpt><trkpt lat="45.87241256807693" lon="13.634377758798315"><ele>302.0</ele><time>2026-04-11T11:16:35.938Z</time></trkpt><trkpt lat="45.87235323036262" lon="13.634507378261677"><ele>307.0</ele><time>2026-04-11T11:16:36.938Z</time></trkpt><trkpt lat="45.8722995955329" lon="13.6346370624253"><ele>312.0</ele><time>2026-04-11T11:16:37.938Z</time></trkpt><trkpt lat="45.872246032919136" lon="13.634761615242367"><ele>317.0</ele><time>2026-04-11T11:16:38.939Z</time></trkpt><trkpt lat="45.87221104015362" lon="13.634946199193863"><ele>317.0</ele><time>2026-04-11T11:16:39.939Z</time></trkpt><trkpt lat="45.87218377558489" lon="13.635143233329313"><ele>317.0</ele><time>2026-04-11T11:16:40.939Z</time></trkpt><trkpt lat="45.87215539340838" lon="13.63533403470136"><ele>317.0</ele><time>2026-04-11T11:16:41.939Z</time></trkpt><trkpt lat="45.87211861958606" lon="13.635516910065927"><ele>317.0</ele><time>2026-04-11T11:16:42.94Z</time></trkpt><trkpt lat="45.872075004609165" lon="13.635678744123812"><ele>317.0</ele><time>2026-04-11T11:16:43.94Z</time></trkpt><trkpt lat="45.87203605076121" lon="13.635844405414748"><ele>317.0</ele><time>2026-04-11T11:16:44.94Z</time></trkpt><trkpt lat="45.87200318249871" lon="13.635991832444413"><ele>317.0</ele><time>2026-04-11T11:16:45.94Z</time></trkpt><trkpt lat="45.87198373624074" lon="13.63616398941303"><ele>317.0</ele><time>2026-04-11T11:16:46.941Z</time></trkpt><trkpt lat="45.87195526030898" lon="13.636328595759117"><ele>316.0</ele><time>2026-04-11T11:16:47.941Z</time></trkpt><trkpt lat="45.87192164007886" lon="13.636473944901054"><ele>315.0</ele><time>2026-04-11T11:16:48.941Z</time></trkpt><trkpt lat="45.87189353945259" lon="13.636611890317628"><ele>314.0</ele><time>2026-04-11T11:16:49.941Z</time></trkpt><trkpt lat="45.87185082334552" lon="13.636733130124721"><ele>313.0</ele><time>2026-04-11T11:16:50.941Z</time></trkpt><trkpt lat="45.87181706334699" lon="13.636868794303693"><ele>312.0</ele><time>2026-04-11T11:16:51.941Z</time></trkpt><trkpt lat="45.8717820938812" lon="13.637009318707785"><ele>319.4</ele><time>2026-04-11T11:16:52.941Z</time></trkpt><trkpt lat="45.87176253040869" lon="13.637150207500756"><ele>326.79999999999995</ele><time>2026-04-11T11:16:53.942Z</time></trkpt><trkpt lat="45.87172032201284" lon="13.63728355562966"><ele>334.2</ele><time>2026-04-11T11:16:54.942Z</time></trkpt><trkpt lat="45.87168711498327" lon="13.637423930496675"><ele>341.59999999999997</ele><time>2026-04-11T11:16:55.942Z</time></trkpt><trkpt lat="45.871651931695965" lon="13.63757388690884"><ele>349.0</ele><time>2026-04-11T11:16:56.942Z</time></trkpt><trkpt lat="45.87161649503033" lon="13.637730588509674"><ele>348.75</ele><time>2026-04-11T11:16:57.942Z</time></trkpt><trkpt lat="45.871578598773965" lon="13.63789372551163"><ele>348.5</ele><time>2026-04-11T11:16:58.942Z</time></trkpt><trkpt lat="45.87154172041463" lon="13.63805656989191"><ele>348.25</ele><time>2026-04-11T11:16:59.942Z</time></trkpt><trkpt lat="45.87150887290007" lon="13.638225521338931"><ele>348.0</ele><time>2026-04-11T11:17:00.942Z</time></trkpt><trkpt lat="45.871457499175726" lon="13.638385234285437"><ele>348.0</ele><time>2026-04-11T11:17:01.942Z</time></trkpt><trkpt lat="45.871422389230474" lon="13.638563420792734"><ele>348.0</ele><time>2026-04-11T11:17:02.942Z</time></trkpt><trkpt lat="45.87138906141572" lon="13.638737500012327"><ele>348.0</ele><time>2026-04-11T11:17:03.942Z</time></trkpt><trkpt lat="45.87137571215292" lon="13.638888850878022"><ele>348.0</ele><time>2026-04-11T11:17:04.942Z</time></trkpt><trkpt lat="45.871332524897085" lon="13.63903280397135"><ele>347.4</ele><time>2026-04-11T11:17:05.942Z</time></trkpt><trkpt lat="45.87131755938625" lon="13.639190398697131"><ele>346.79999999999995</ele><time>2026-04-11T11:17:06.942Z</time></trkpt><trkpt lat="45.87126894188795" lon="13.639343975074699"><ele>346.2</ele><time>2026-04-11T11:17:07.942Z</time></trkpt><trkpt lat="45.871234085984135" lon="13.639501087886678"><ele>345.6</ele><time>2026-04-11T11:17:08.943Z</time></trkpt><trkpt lat="45.87120409472319" lon="13.639631050993515"><ele>345.0</ele><time>2026-04-11T11:17:09.943Z</time></trkpt><trkpt lat="45.871170453044556" lon="13.639772019510147"><ele>344.0</ele><time>2026-04-11T11:17:10.943Z</time></trkpt><trkpt lat="45.87113779960965" lon="13.639903435229847"><ele>343.0</ele><time>2026-04-11T11:17:11.943Z</time></trkpt><trkpt lat="45.871102858554536" lon="13.640038973163298"><ele>342.0</ele><time>2026-04-11T11:17:12.943Z</time></trkpt><trkpt lat="45.87108179722886" lon="13.640186612178308"><ele>341.0</ele><time>2026-04-11T11:17:13.943Z</time></trkpt><trkpt lat="45.87103816152005" lon="13.640329685125437"><ele>340.0</ele><time>2026-04-11T11:17:14.943Z</time></trkpt><trkpt lat="45.871002923546136" lon="13.640463726437124"><ele>340.0</ele><time>2026-04-11T11:17:15.943Z</time></trkpt><trkpt lat="45.87095189254742" lon="13.640586602103363"><ele>340.0</ele><time>2026-04-11T11:17:16.943Z</time></trkpt><trkpt lat="45.87090699607588" lon="13.640719232562553"><ele>340.0</ele><time>2026-04-11T11:17:17.943Z</time></trkpt><trkpt lat="45.87085869488553" lon="13.640840156208556"><ele>340.0</ele><time>2026-04-11T11:17:18.943Z</time></trkpt><trkpt lat="45.87080667771272" lon="13.640940792537595"><ele>340.0</ele><time>2026-04-11T11:17:19.943Z</time></trkpt><trkpt lat="45.87075942400041" lon="13.641012813284394"><ele>343.16666666666663</ele><time>2026-04-11T11:17:20.943Z</time></trkpt><trkpt lat="45.87070411648611" lon="13.64107897177815"><ele>346.3333333333333</ele><time>2026-04-11T11:17:21.943Z</time></trkpt><trkpt lat="45.87061280075958" lon="13.641122698426932"><ele>349.5</ele><time>2026-04-11T11:17:23.943Z</time></trkpt><trkpt lat="45.870522691905165" lon="13.64112130043394"><ele>352.6666666666667</ele><time>2026-04-11T11:17:25.943Z</time></trkpt><trkpt lat="45.8704628054162" lon="13.641218117480237"><ele>355.83333333333337</ele><time>2026-04-11T11:17:26.943Z</time></trkpt><trkpt lat="45.87038805186451" lon="13.64116995498636"><ele>359.0</ele><time>2026-04-11T11:17:27.943Z</time></trkpt><trkpt lat="45.87029994307709" lon="13.641118594742236"><ele>360.6</ele><time>2026-04-11T11:17:28.943Z</time></trkpt><trkpt lat="45.87018588242216" lon="13.641074700381926"><ele>362.2</ele><time>2026-04-11T11:17:29.943Z</time></trkpt><trkpt lat="45.870073670742116" lon="13.641044664551318"><ele>363.8</ele><time>2026-04-11T11:17:30.943Z</time></trkpt><trkpt lat="45.86999301711896" lon="13.641022397169067"><ele>365.40000000000003</ele><time>2026-04-11T11:17:31.943Z</time></trkpt><trkpt lat="45.869920428598824" lon="13.640996675595929"><ele>367.0</ele><time>2026-04-11T11:17:32.943Z</time></trkpt><trkpt lat="45.869841753478354" lon="13.640960308788955"><ele>368.8333333333333</ele><time>2026-04-11T11:17:34.943Z</time></trkpt><trkpt lat="45.86976016134503" lon="13.640987986617535"><ele>370.66666666666663</ele><time>2026-04-11T11:17:36.943Z</time></trkpt><trkpt lat="45.869707076666685" lon="13.641105165693103"><ele>372.5</ele><time>2026-04-11T11:17:39.943Z</time></trkpt><trkpt lat="45.86969192761206" lon="13.641258884331968"><ele>374.3333333333333</ele><time>2026-04-11T11:17:41.943Z</time></trkpt><trkpt lat="45.869678774845696" lon="13.641353899960162"><ele>376.1666666666667</ele><time>2026-04-11T11:17:42.943Z</time></trkpt><trkpt lat="45.86966699191014" lon="13.641448871476536"><ele>378.0</ele><time>2026-04-11T11:17:43.943Z</time></trkpt><trkpt lat="45.869667152767626" lon="13.64154868449722"><ele>378.3333333333333</ele><time>2026-04-11T11:17:44.943Z</time></trkpt><trkpt lat="45.86965494499489" lon="13.641660186029716"><ele>378.6666666666667</ele><time>2026-04-11T11:17:45.943Z</time></trkpt><trkpt lat="45.86965756645289" lon="13.641777637408161"><ele>379.0</ele><time>2026-04-11T11:17:46.943Z</time></trkpt><trkpt lat="45.86966712095024" lon="13.641886582996369"><ele>379.33333333333337</ele><time>2026-04-11T11:17:47.943Z</time></trkpt><trkpt lat="45.86970286497773" lon="13.642001274782832"><ele>379.6666666666667</ele><time>2026-04-11T11:17:48.943Z</time></trkpt><trkpt lat="45.869748462458155" lon="13.642099367969278"><ele>380.0</ele><time>2026-04-11T11:17:49.943Z</time></trkpt><trkpt lat="45.8697895405424" lon="13.642186859503376"><ele>380.6666666666667</ele><time>2026-04-11T11:17:50.943Z</time></trkpt><trkpt lat="45.86983533718488" lon="13.642261928351601"><ele>381.33333333333337</ele><time>2026-04-11T11:17:51.943Z</time></trkpt><trkpt lat="45.869867404966875" lon="13.642359962940697"><ele>382.0</ele><time>2026-04-11T11:17:52.943Z</time></trkpt><trkpt lat="45.869882607228945" lon="13.642451491065474"><ele>382.6666666666667</ele><time>2026-04-11T11:17:53.943Z</time></trkpt><trkpt lat="45.86988467800619" lon="13.642560512748387"><ele>383.3333333333333</ele><time>2026-04-11T11:17:54.943Z</time></trkpt><trkpt lat="45.86988382415757" lon="13.642688322947109"><ele>384.0</ele><time>2026-04-11T11:17:55.943Z</time></trkpt><trkpt lat="45.869859406895166" lon="13.64281440744753"><ele>384.2</ele><time>2026-04-11T11:17:56.943Z</time></trkpt><trkpt lat="45.869843828179086" lon="13.642940513517729"><ele>384.4</ele><time>2026-04-11T11:17:57.943Z</time></trkpt><trkpt lat="45.869816320810926" lon="13.643079240910158"><ele>384.6</ele><time>2026-04-11T11:17:58.943Z</time></trkpt><trkpt lat="45.86978537506051" lon="13.643240655601273"><ele>384.8</ele><time>2026-04-11T11:17:59.943Z</time></trkpt><trkpt lat="45.86975847907479" lon="13.643409252597532"><ele>385.0</ele><time>2026-04-11T11:18:00.943Z</time></trkpt><trkpt lat="45.869734541687144" lon="13.643587031376294"><ele>384.75</ele><time>2026-04-11T11:18:01.943Z</time></trkpt><trkpt lat="45.869705041232265" lon="13.643764030037259"><ele>384.5</ele><time>2026-04-11T11:18:02.943Z</time></trkpt><trkpt lat="45.869670295703116" lon="13.643950279346196"><ele>384.25</ele><time>2026-04-11T11:18:03.943Z</time></trkpt><trkpt lat="45.869633950694144" lon="13.644132577497206"><ele>384.0</ele><time>2026-04-11T11:18:04.942Z</time></trkpt><trkpt lat="45.8695947854842" lon="13.644303752556578"><ele>383.2</ele><time>2026-04-11T11:18:05.942Z</time></trkpt><trkpt lat="45.86955532098872" lon="13.644468264135869"><ele>382.4</ele><time>2026-04-11T11:18:06.943Z</time></trkpt><trkpt lat="45.869517149078646" lon="13.644617559449582"><ele>381.6</ele><time>2026-04-11T11:18:07.942Z</time></trkpt><trkpt lat="45.869480894495325" lon="13.644758233573922"><ele>380.8</ele><time>2026-04-11T11:18:08.942Z</time></trkpt><trkpt lat="45.86944299936851" lon="13.64489642823244"><ele>380.0</ele><time>2026-04-11T11:18:09.942Z</time></trkpt><trkpt lat="45.86939735669079" lon="13.64503642875606"><ele>380.0</ele><time>2026-04-11T11:18:10.943Z</time></trkpt><trkpt lat="45.86934507317791" lon="13.645173015765783"><ele>380.0</ele><time>2026-04-11T11:18:11.943Z</time></trkpt><trkpt lat="45.86928886901551" lon="13.645303884153474"><ele>380.0</ele><time>2026-04-11T11:18:12.942Z</time></trkpt><trkpt lat="45.86921264296673" lon="13.645411745218919"><ele>380.0</ele><time>2026-04-11T11:18:13.943Z</time></trkpt><trkpt lat="45.86915449966239" lon="13.64551126972854"><ele>380.0</ele><time>2026-04-11T11:18:14.943Z</time></trkpt><trkpt lat="45.86909746052924" lon="13.645603008274637"><ele>380.1666666666667</ele><time>2026-04-11T11:18:15.942Z</time></trkpt><trkpt lat="45.86904881122335" lon="13.645684194330178"><ele>380.33333333333337</ele><time>2026-04-11T11:18:16.943Z</time></trkpt><trkpt lat="45.868996757087984" lon="13.645770510079524"><ele>380.5</ele><time>2026-04-11T11:18:17.943Z</time></trkpt><trkpt lat="45.86896973276502" lon="13.645853323031037"><ele>380.6666666666667</ele><time>2026-04-11T11:18:18.943Z</time></trkpt><trkpt lat="45.86892640988352" lon="13.645925392437825"><ele>380.8333333333333</ele><time>2026-04-11T11:18:19.943Z</time></trkpt><trkpt lat="45.8688809862513" lon="13.64600069239959"><ele>381.0</ele><time>2026-04-11T11:18:20.943Z</time></trkpt><trkpt lat="45.86880441628399" lon="13.646131358823306"><ele>381.0</ele><time>2026-04-11T11:18:22.943Z</time></trkpt><trkpt lat="45.86875639706202" lon="13.646257232633005"><ele>381.0</ele><time>2026-04-11T11:18:24.943Z</time></trkpt><trkpt lat="45.868738104715774" lon="13.646353863107024"><ele>381.0</ele><time>2026-04-11T11:18:26.943Z</time></trkpt><trkpt lat="45.86877338657014" lon="13.646453406205453"><ele>381.0</ele><time>2026-04-11T11:18:28.943Z</time></trkpt><trkpt lat="45.86886360708184" lon="13.646526900974118"><ele>381.0</ele><time>2026-04-11T11:18:30.943Z</time></trkpt><trkpt lat="45.86898407095354" lon="13.64658515110257"><ele>381.0</ele><time>2026-04-11T11:18:32.942Z</time></trkpt><trkpt lat="45.86904919133539" lon="13.646624266085313"><ele>381.0</ele><time>2026-04-11T11:18:33.942Z</time></trkpt><trkpt lat="45.86911872747237" lon="13.646675604284209"><ele>381.0</ele><time>2026-04-11T11:18:34.942Z</time></trkpt><trkpt lat="45.869178918274876" lon="13.646745997194076"><ele>381.0</ele><time>2026-04-11T11:18:35.942Z</time></trkpt><trkpt lat="45.86923287893018" lon="13.646815359166911"><ele>381.0</ele><time>2026-04-11T11:18:36.942Z</time></trkpt><trkpt lat="45.86927752402388" lon="13.646884913999271"><ele>381.0</ele><time>2026-04-11T11:18:37.942Z</time></trkpt><trkpt lat="45.86931135158734" lon="13.646965225830378"><ele>381.0</ele><time>2026-04-11T11:18:38.942Z</time></trkpt><trkpt lat="45.8693483587645" lon="13.647050549195146"><ele>378.3333333333333</ele><time>2026-04-11T11:18:39.942Z</time></trkpt><trkpt lat="45.86937729547667" lon="13.64713223611122"><ele>375.6666666666667</ele><time>2026-04-11T11:18:40.942Z</time></trkpt><trkpt lat="45.86939524959017" lon="13.647238894286449"><ele>373.0</ele><time>2026-04-11T11:18:41.942Z</time></trkpt><trkpt lat="45.86941568957616" lon="13.647354442859442"><ele>370.33333333333337</ele><time>2026-04-11T11:18:42.942Z</time></trkpt><trkpt lat="45.86943415463312" lon="13.647488053463817"><ele>367.6666666666667</ele><time>2026-04-11T11:18:43.942Z</time></trkpt><trkpt lat="45.869437908167804" lon="13.647618379630197"><ele>365.0</ele><time>2026-04-11T11:18:44.942Z</time></trkpt><trkpt lat="45.86943551254862" lon="13.647757796018178"><ele>364.6</ele><time>2026-04-11T11:18:45.942Z</time></trkpt><trkpt lat="45.869424346905504" lon="13.647902725339685"><ele>364.2</ele><time>2026-04-11T11:18:46.942Z</time></trkpt><trkpt lat="45.86939460665164" lon="13.648026972237032"><ele>363.79999999999995</ele><time>2026-04-11T11:18:47.942Z</time></trkpt><trkpt lat="45.869374917749795" lon="13.648149988400894"><ele>363.4</ele><time>2026-04-11T11:18:48.942Z</time></trkpt><trkpt lat="45.86936013402018" lon="13.648280408214578"><ele>363.0</ele><time>2026-04-11T11:18:49.942Z</time></trkpt><trkpt lat="45.86936417406011" lon="13.648424323580334"><ele>363.0</ele><time>2026-04-11T11:18:50.942Z</time></trkpt><trkpt lat="45.86937305728901" lon="13.648577363770935"><ele>363.0</ele><time>2026-04-11T11:18:51.942Z</time></trkpt><trkpt lat="45.869378986308135" lon="13.648728920671033"><ele>363.0</ele><time>2026-04-11T11:18:52.942Z</time></trkpt><trkpt lat="45.86938773277976" lon="13.648894113048001"><ele>363.0</ele><time>2026-04-11T11:18:53.942Z</time></trkpt><trkpt lat="45.869386749451685" lon="13.649062796973611"><ele>363.0</ele><time>2026-04-11T11:18:54.942Z</time></trkpt><trkpt lat="45.86940500482583" lon="13.64920165000923"><ele>363.4</ele><time>2026-04-11T11:18:55.942Z</time></trkpt><trkpt lat="45.869397400312295" lon="13.649348469114166"><ele>363.79999999999995</ele><time>2026-04-11T11:18:56.942Z</time></trkpt><trkpt lat="45.869417070385055" lon="13.64949880079992"><ele>364.2</ele><time>2026-04-11T11:18:57.942Z</time></trkpt><trkpt lat="45.86941297991989" lon="13.649636351805178"><ele>364.6</ele><time>2026-04-11T11:18:58.942Z</time></trkpt><trkpt lat="45.86937942485707" lon="13.64974584987069"><ele>365.0</ele><time>2026-04-11T11:18:59.942Z</time></trkpt><trkpt lat="45.86935996088213" lon="13.64986584888348"><ele>363.6</ele><time>2026-04-11T11:19:00.942Z</time></trkpt><trkpt lat="45.86933642855818" lon="13.649973486532934"><ele>362.2</ele><time>2026-04-11T11:19:01.942Z</time></trkpt><trkpt lat="45.869312840466534" lon="13.650081231292024"><ele>360.79999999999995</ele><time>2026-04-11T11:19:02.942Z</time></trkpt><trkpt lat="45.869284136741385" lon="13.650201794324731"><ele>359.4</ele><time>2026-04-11T11:19:03.942Z</time></trkpt><trkpt lat="45.869253908431794" lon="13.65035680840561"><ele>358.0</ele><time>2026-04-11T11:19:04.942Z</time></trkpt><trkpt lat="45.86920037549467" lon="13.650514194754386"><ele>361.2</ele><time>2026-04-11T11:19:05.942Z</time></trkpt><trkpt lat="45.86915219697881" lon="13.65066623384037"><ele>364.4</ele><time>2026-04-11T11:19:06.942Z</time></trkpt><trkpt lat="45.86911361938212" lon="13.650809136019985"><ele>367.59999999999997</ele><time>2026-04-11T11:19:07.942Z</time></trkpt><trkpt lat="45.869077803305586" lon="13.650942895158526"><ele>370.79999999999995</ele><time>2026-04-11T11:19:08.942Z</time></trkpt><trkpt lat="45.86903620060097" lon="13.651080099843842"><ele>374.0</ele><time>2026-04-11T11:19:09.942Z</time></trkpt><trkpt lat="45.868971137699674" lon="13.651209082807542"><ele>374.0</ele><time>2026-04-11T11:19:10.942Z</time></trkpt><trkpt lat="45.86891849553888" lon="13.65134543714038"><ele>374.0</ele><time>2026-04-11T11:19:11.942Z</time></trkpt><trkpt lat="45.868884558578166" lon="13.651479311970744"><ele>374.0</ele><time>2026-04-11T11:19:12.942Z</time></trkpt><trkpt lat="45.86882844187407" lon="13.651599194961898"><ele>374.0</ele><time>2026-04-11T11:19:13.942Z</time></trkpt><trkpt lat="45.86877623423289" lon="13.651740138391503"><ele>374.0</ele><time>2026-04-11T11:19:14.942Z</time></trkpt><trkpt lat="45.868723744642786" lon="13.651902811412771"><ele>370.5</ele><time>2026-04-11T11:19:15.942Z</time></trkpt><trkpt lat="45.86867158198211" lon="13.652068500075703"><ele>367.0</ele><time>2026-04-11T11:19:16.942Z</time></trkpt><trkpt lat="45.86862359050259" lon="13.652229891059854"><ele>363.5</ele><time>2026-04-11T11:19:17.942Z</time></trkpt><trkpt lat="45.86856368740365" lon="13.652364225225138"><ele>360.0</ele><time>2026-04-11T11:19:18.942Z</time></trkpt><trkpt lat="45.86852062645144" lon="13.652497873294623"><ele>360.0</ele><time>2026-04-11T11:19:19.942Z</time></trkpt><trkpt lat="45.86848906933863" lon="13.652630793481029"><ele>360.0</ele><time>2026-04-11T11:19:20.942Z</time></trkpt><trkpt lat="45.868446643573" lon="13.652763762783351"><ele>360.0</ele><time>2026-04-11T11:19:21.942Z</time></trkpt><trkpt lat="45.86840138885125" lon="13.652907011038469"><ele>360.0</ele><time>2026-04-11T11:19:22.942Z</time></trkpt><trkpt lat="45.868349742359655" lon="13.653048080590818"><ele>360.0</ele><time>2026-04-11T11:19:23.942Z</time></trkpt><trkpt lat="45.868309270836995" lon="13.65316989839368"><ele>360.6666666666667</ele><time>2026-04-11T11:19:24.942Z</time></trkpt><trkpt lat="45.86827135208135" lon="13.653272642297136"><ele>361.3333333333333</ele><time>2026-04-11T11:19:25.942Z</time></trkpt><trkpt lat="45.868234411171606" lon="13.653379212864776"><ele>362.0</ele><time>2026-04-11T11:19:26.942Z</time></trkpt><trkpt lat="45.868198614622045" lon="13.653481606065018"><ele>362.66666666666663</ele><time>2026-04-11T11:19:27.942Z</time></trkpt><trkpt lat="45.86815101262896" lon="13.653578268846402"><ele>363.3333333333333</ele><time>2026-04-11T11:19:28.942Z</time></trkpt><trkpt lat="45.86812335977751" lon="13.653699787484635"><ele>364.0</ele><time>2026-04-11T11:19:29.942Z</time></trkpt><trkpt lat="45.86806844315315" lon="13.653799809386314"><ele>364.0</ele><time>2026-04-11T11:19:30.942Z</time></trkpt><trkpt lat="45.86804075833326" lon="13.653923990818795"><ele>364.0</ele><time>2026-04-11T11:19:31.942Z</time></trkpt><trkpt lat="45.86798581364343" lon="13.654025797816043"><ele>364.0</ele><time>2026-04-11T11:19:32.942Z</time></trkpt><trkpt lat="45.867946306032934" lon="13.65413436620119"><ele>364.0</ele><time>2026-04-11T11:19:33.942Z</time></trkpt><trkpt lat="45.86791342413204" lon="13.65426166019625"><ele>364.0</ele><time>2026-04-11T11:19:34.942Z</time></trkpt><trkpt lat="45.86787909010841" lon="13.654380004764525"><ele>360.0</ele><time>2026-04-11T11:19:35.942Z</time></trkpt><trkpt lat="45.86784299642156" lon="13.654486572389809"><ele>356.0</ele><time>2026-04-11T11:19:36.942Z</time></trkpt><trkpt lat="45.86779917766856" lon="13.65461172990554"><ele>352.0</ele><time>2026-04-11T11:19:37.942Z</time></trkpt><trkpt lat="45.867765156630874" lon="13.654739574609081"><ele>348.0</ele><time>2026-04-11T11:19:38.942Z</time></trkpt><trkpt lat="45.867726806648676" lon="13.654859377465218"><ele>344.0</ele><time>2026-04-11T11:19:39.942Z</time></trkpt><trkpt lat="45.86769399782696" lon="13.654976194114255"><ele>344.0</ele><time>2026-04-11T11:19:40.942Z</time></trkpt><trkpt lat="45.86765244274727" lon="13.655097343153747"><ele>344.0</ele><time>2026-04-11T11:19:41.942Z</time></trkpt><trkpt lat="45.867618673774494" lon="13.655220131205613"><ele>344.0</ele><time>2026-04-11T11:19:42.942Z</time></trkpt><trkpt lat="45.86759225634371" lon="13.655344463779427"><ele>344.0</ele><time>2026-04-11T11:19:43.942Z</time></trkpt><trkpt lat="45.86758279498692" lon="13.655466200509055"><ele>344.0</ele><time>2026-04-11T11:19:44.942Z</time></trkpt><trkpt lat="45.86754415771509" lon="13.655586071686544"><ele>345.1666666666667</ele><time>2026-04-11T11:19:45.942Z</time></trkpt><trkpt lat="45.867531591109966" lon="13.655721012615857"><ele>346.33333333333337</ele><time>2026-04-11T11:19:46.942Z</time></trkpt><trkpt lat="45.86751050784934" lon="13.65584135609366"><ele>347.5</ele><time>2026-04-11T11:19:47.942Z</time></trkpt><trkpt lat="45.86747974972648" lon="13.655945752564547"><ele>348.6666666666667</ele><time>2026-04-11T11:19:48.942Z</time></trkpt><trkpt lat="45.86746267694983" lon="13.656065387884926"><ele>349.8333333333333</ele><time>2026-04-11T11:19:49.942Z</time></trkpt><trkpt lat="45.86744214819799" lon="13.656184685217605"><ele>351.0</ele><time>2026-04-11T11:19:50.941Z</time></trkpt><trkpt lat="45.867410842407836" lon="13.656287654314129"><ele>351.0</ele><time>2026-04-11T11:19:51.941Z</time></trkpt><trkpt lat="45.867408081850435" lon="13.656396453629199"><ele>351.0</ele><time>2026-04-11T11:19:52.941Z</time></trkpt><trkpt lat="45.867385689321736" lon="13.656485278741984"><ele>351.0</ele><time>2026-04-11T11:19:53.941Z</time></trkpt><trkpt lat="45.86737054499943" lon="13.656575952924964"><ele>351.0</ele><time>2026-04-11T11:19:54.941Z</time></trkpt><trkpt lat="45.86734874096281" lon="13.656667419249246"><ele>351.0</ele><time>2026-04-11T11:19:55.941Z</time></trkpt><trkpt lat="45.86731559249252" lon="13.656787897973313"><ele>351.0</ele><time>2026-04-11T11:19:56.941Z</time></trkpt><trkpt lat="45.867264256303656" lon="13.656900320281236"><ele>351.0</ele><time>2026-04-11T11:19:57.941Z</time></trkpt><trkpt lat="45.86722092232529" lon="13.657058219439168"><ele>351.0</ele><time>2026-04-11T11:19:58.941Z</time></trkpt><trkpt lat="45.86718949856232" lon="13.657219545377608"><ele>351.0</ele><time>2026-04-11T11:19:59.941Z</time></trkpt><trkpt lat="45.867151222898485" lon="13.657384682714268"><ele>351.0</ele><time>2026-04-11T11:20:00.941Z</time></trkpt><trkpt lat="45.86710188523318" lon="13.657580642185298"><ele>350.0</ele><time>2026-04-11T11:20:01.941Z</time></trkpt><trkpt lat="45.86702952353239" lon="13.657812015291793"><ele>349.0</ele><time>2026-04-11T11:20:02.941Z</time></trkpt><trkpt lat="45.86695551905708" lon="13.658046831266391"><ele>348.0</ele><time>2026-04-11T11:20:03.941Z</time></trkpt><trkpt lat="45.86688332703153" lon="13.658257251078608"><ele>348.0</ele><time>2026-04-11T11:20:04.941Z</time></trkpt><trkpt lat="45.86680452349587" lon="13.658463998060478"><ele>348.0</ele><time>2026-04-11T11:20:05.941Z</time></trkpt><trkpt lat="45.86673060564717" lon="13.658661790497202"><ele>348.0</ele><time>2026-04-11T11:20:06.941Z</time></trkpt><trkpt lat="45.86667980437216" lon="13.658783400855567"><ele>348.0</ele><time>2026-04-11T11:20:07.941Z</time></trkpt><trkpt lat="45.86664538062122" lon="13.658923425684927"><ele>350.6666666666667</ele><time>2026-04-11T11:20:09.942Z</time></trkpt><trkpt lat="45.86661946348074" lon="13.659008913255617"><ele>353.3333333333333</ele><time>2026-04-11T11:20:12.942Z</time></trkpt><trkpt lat="45.86654493543512" lon="13.65897305090931"><ele>356.0</ele><time>2026-04-11T11:20:16.941Z</time></trkpt><trkpt lat="45.86656473283488" lon="13.658878421086396"><ele>358.66666666666663</ele><time>2026-04-11T11:20:19.941Z</time></trkpt><trkpt lat="45.866583538537604" lon="13.65871003716112"><ele>361.3333333333333</ele><time>2026-04-11T11:20:21.941Z</time></trkpt><trkpt lat="45.86657880653295" lon="13.658615539057644"><ele>364.0</ele><time>2026-04-11T11:20:22.941Z</time></trkpt><trkpt lat="45.86656724331328" lon="13.658501189452016"><ele>365.0</ele><time>2026-04-11T11:20:23.941Z</time></trkpt><trkpt lat="45.86656361684169" lon="13.658384656846485"><ele>366.0</ele><time>2026-04-11T11:20:24.941Z</time></trkpt><trkpt lat="45.866546306798895" lon="13.658247040738503"><ele>367.0</ele><time>2026-04-11T11:20:25.941Z</time></trkpt><trkpt lat="45.86654196903805" lon="13.658092125413805"><ele>368.0</ele><time>2026-04-11T11:20:26.941Z</time></trkpt><trkpt lat="45.86654265638954" lon="13.657942243242951"><ele>369.0</ele><time>2026-04-11T11:20:27.941Z</time></trkpt><trkpt lat="45.866542067229766" lon="13.65779159909784"><ele>369.6666666666667</ele><time>2026-04-11T11:20:28.941Z</time></trkpt><trkpt lat="45.866536153639466" lon="13.65764763415533"><ele>370.3333333333333</ele><time>2026-04-11T11:20:29.941Z</time></trkpt><trkpt lat="45.86653100355905" lon="13.657491510604835"><ele>371.0</ele><time>2026-04-11T11:20:30.941Z</time></trkpt><trkpt lat="45.86652756005148" lon="13.657363500911936"><ele>371.66666666666663</ele><time>2026-04-11T11:20:31.941Z</time></trkpt><trkpt lat="45.86652167258022" lon="13.65726774148525"><ele>372.3333333333333</ele><time>2026-04-11T11:20:32.941Z</time></trkpt><trkpt lat="45.86652124850453" lon="13.657174737606269"><ele>373.0</ele><time>2026-04-11T11:20:33.941Z</time></trkpt><trkpt lat="45.8665135115805" lon="13.657072386121976"><ele>373.0</ele><time>2026-04-11T11:20:34.941Z</time></trkpt><trkpt lat="45.86648372682593" lon="13.656954218593189"><ele>373.0</ele><time>2026-04-11T11:20:35.941Z</time></trkpt><trkpt lat="45.86645955297402" lon="13.656844344288308"><ele>373.0</ele><time>2026-04-11T11:20:36.941Z</time></trkpt><trkpt lat="45.866419499635796" lon="13.656736841401102"><ele>373.0</ele><time>2026-04-11T11:20:37.941Z</time></trkpt><trkpt lat="45.86636223923419" lon="13.656618093087832"><ele>373.0</ele><time>2026-04-11T11:20:38.941Z</time></trkpt><trkpt lat="45.866290147254766" lon="13.656513221090245"><ele>373.0</ele><time>2026-04-11T11:20:39.941Z</time></trkpt><trkpt lat="45.86622000407296" lon="13.656384638399159"><ele>373.0</ele><time>2026-04-11T11:20:40.941Z</time></trkpt><trkpt lat="45.866141952289105" lon="13.656269336223565"><ele>373.0</ele><time>2026-04-11T11:20:41.941Z</time></trkpt><trkpt lat="45.866056074671526" lon="13.656171919029356"><ele>373.0</ele><time>2026-04-11T11:20:42.941Z</time></trkpt><trkpt lat="45.86594870278448" lon="13.656090026742804"><ele>373.4</ele><time>2026-04-11T11:20:43.941Z</time></trkpt><trkpt lat="45.86585928760027" lon="13.65601624484115"><ele>373.79999999999995</ele><time>2026-04-11T11:20:44.941Z</time></trkpt><trkpt lat="45.86578243346071" lon="13.655950656301558"><ele>374.2</ele><time>2026-04-11T11:20:45.941Z</time></trkpt><trkpt lat="45.86570849478539" lon="13.655887353967442"><ele>374.6</ele><time>2026-04-11T11:20:46.941Z</time></trkpt><trkpt lat="45.86564683498315" lon="13.655804475026722"><ele>375.0</ele><time>2026-04-11T11:20:47.941Z</time></trkpt><trkpt lat="45.86558034055006" lon="13.655712516465583"><ele>375.0</ele><time>2026-04-11T11:20:48.941Z</time></trkpt><trkpt lat="45.8655025673681" lon="13.655600507399894"><ele>375.0</ele><time>2026-04-11T11:20:49.941Z</time></trkpt><trkpt lat="45.865417699173214" lon="13.6554841091779"><ele>375.0</ele><time>2026-04-11T11:20:50.941Z</time></trkpt><trkpt lat="45.86533843581759" lon="13.655363449254168"><ele>375.0</ele><time>2026-04-11T11:20:51.941Z</time></trkpt><trkpt lat="45.86526269643618" lon="13.655267898890976"><ele>375.0</ele><time>2026-04-11T11:20:52.941Z</time></trkpt><trkpt lat="45.86519608012386" lon="13.65519145288763"><ele>376.0</ele><time>2026-04-11T11:20:53.941Z</time></trkpt><trkpt lat="45.865121475753504" lon="13.655125008859986"><ele>377.0</ele><time>2026-04-11T11:20:54.941Z</time></trkpt><trkpt lat="45.86504419380131" lon="13.655076469256974"><ele>378.0</ele><time>2026-04-11T11:20:55.941Z</time></trkpt><trkpt lat="45.86496493482216" lon="13.655059755200964"><ele>379.0</ele><time>2026-04-11T11:20:56.941Z</time></trkpt><trkpt lat="45.864877619833024" lon="13.65496238573248"><ele>380.0</ele><time>2026-04-11T11:20:58.941Z</time></trkpt><trkpt lat="45.864832249919324" lon="13.654784202043865"><ele>377.2</ele><time>2026-04-11T11:21:00.941Z</time></trkpt><trkpt lat="45.86482888947133" lon="13.654634118941269"><ele>374.4</ele><time>2026-04-11T11:21:01.941Z</time></trkpt><trkpt lat="45.86482450638329" lon="13.65450058123183"><ele>371.6</ele><time>2026-04-11T11:21:02.941Z</time></trkpt><trkpt lat="45.86477432049835" lon="13.654370913526794"><ele>368.8</ele><time>2026-04-11T11:21:03.941Z</time></trkpt><trkpt lat="45.864694254685304" lon="13.65423636295906"><ele>366.0</ele><time>2026-04-11T11:21:04.941Z</time></trkpt><trkpt lat="45.864619566266725" lon="13.654086801075724"><ele>366.0</ele><time>2026-04-11T11:21:05.941Z</time></trkpt><trkpt lat="45.86455629083862" lon="13.653937226876131"><ele>366.0</ele><time>2026-04-11T11:21:06.941Z</time></trkpt><trkpt lat="45.86449232442262" lon="13.65378897666765"><ele>366.0</ele><time>2026-04-11T11:21:07.941Z</time></trkpt><trkpt lat="45.86441216027705" lon="13.653658270938474"><ele>366.0</ele><time>2026-04-11T11:21:08.941Z</time></trkpt><trkpt lat="45.86432345462179" lon="13.653526505580256"><ele>364.20000000000005</ele><time>2026-04-11T11:21:09.941Z</time></trkpt><trkpt lat="45.864247292680226" lon="13.653406463911118"><ele>362.40000000000003</ele><time>2026-04-11T11:21:10.941Z</time></trkpt><trkpt lat="45.86418997992902" lon="13.653312840708645"><ele>360.6</ele><time>2026-04-11T11:21:11.941Z</time></trkpt><trkpt lat="45.864119142345835" lon="13.653226372910646"><ele>358.8</ele><time>2026-04-11T11:21:13.941Z</time></trkpt><trkpt lat="45.86402106426418" lon="13.653208707239116"><ele>357.0</ele><time>2026-04-11T11:21:15.941Z</time></trkpt><trkpt lat="45.86392593158164" lon="13.653261599687168"><ele>357.0</ele><time>2026-04-11T11:21:17.94Z</time></trkpt><trkpt lat="45.86384830860893" lon="13.653230921812355"><ele>357.0</ele><time>2026-04-11T11:21:19.94Z</time></trkpt><trkpt lat="45.863784077398094" lon="13.653090897629815"><ele>357.0</ele><time>2026-04-11T11:21:21.94Z</time></trkpt><trkpt lat="45.8637497981945" lon="13.652988264798179"><ele>357.0</ele><time>2026-04-11T11:21:22.94Z</time></trkpt><trkpt lat="45.8637139572884" lon="13.652904781004723"><ele>357.0</ele><time>2026-04-11T11:21:23.94Z</time></trkpt><trkpt lat="45.86360159909944" lon="13.652847614345633"><ele>357.0</ele><time>2026-04-11T11:21:25.94Z</time></trkpt><trkpt lat="45.86351899098317" lon="13.6528223017829"><ele>357.0</ele><time>2026-04-11T11:21:26.94Z</time></trkpt><trkpt lat="45.863428772407715" lon="13.652797007431303"><ele>357.0</ele><time>2026-04-11T11:21:27.94Z</time></trkpt><trkpt lat="45.86333562518595" lon="13.652745564382963"><ele>357.0</ele><time>2026-04-11T11:21:28.94Z</time></trkpt><trkpt lat="45.8632460027421" lon="13.652646486608125"><ele>357.0</ele><time>2026-04-11T11:21:29.94Z</time></trkpt><trkpt lat="45.863156622562805" lon="13.652507974604228"><ele>355.6</ele><time>2026-04-11T11:21:30.94Z</time></trkpt><trkpt lat="45.86306352657319" lon="13.652373068153503"><ele>354.20000000000005</ele><time>2026-04-11T11:21:31.94Z</time></trkpt><trkpt lat="45.86298075189399" lon="13.652268747982557"><ele>352.8</ele><time>2026-04-11T11:21:32.94Z</time></trkpt><trkpt lat="45.862898569193675" lon="13.652171509474316"><ele>351.4</ele><time>2026-04-11T11:21:33.94Z</time></trkpt><trkpt lat="45.86283009486448" lon="13.652073511059152"><ele>350.0</ele><time>2026-04-11T11:21:34.94Z</time></trkpt><trkpt lat="45.86276097801679" lon="13.65197823584441"><ele>349.83333333333337</ele><time>2026-04-11T11:21:35.94Z</time></trkpt><trkpt lat="45.86270224451053" lon="13.651865281013748"><ele>349.6666666666667</ele><time>2026-04-11T11:21:36.94Z</time></trkpt><trkpt lat="45.86265170307127" lon="13.65177604454175"><ele>349.5</ele><time>2026-04-11T11:21:37.94Z</time></trkpt><trkpt lat="45.86259291226128" lon="13.651709583743767"><ele>349.3333333333333</ele><time>2026-04-11T11:21:38.94Z</time></trkpt><trkpt lat="45.86251580851107" lon="13.651673960926516"><ele>349.16666666666663</ele><time>2026-04-11T11:21:39.94Z</time></trkpt><trkpt lat="45.862413547775624" lon="13.651639992757879"><ele>349.0</ele><time>2026-04-11T11:21:40.94Z</time></trkpt><trkpt lat="45.862309759179226" lon="13.65160679781704"><ele>348.4</ele><time>2026-04-11T11:21:41.94Z</time></trkpt><trkpt lat="45.862213036012534" lon="13.65155589633389"><ele>347.79999999999995</ele><time>2026-04-11T11:21:42.94Z</time></trkpt><trkpt lat="45.86211982224315" lon="13.651518325331267"><ele>347.20000000000005</ele><time>2026-04-11T11:21:43.94Z</time></trkpt><trkpt lat="45.86203558087231" lon="13.651506691173132"><ele>346.6</ele><time>2026-04-11T11:21:44.94Z</time></trkpt><trkpt lat="45.86196069078218" lon="13.651523430250023"><ele>346.0</ele><time>2026-04-11T11:21:45.94Z</time></trkpt><trkpt lat="45.861869441592304" lon="13.651548873404957"><ele>344.4</ele><time>2026-04-11T11:21:46.94Z</time></trkpt><trkpt lat="45.86177073356648" lon="13.651566824288508"><ele>342.8</ele><time>2026-04-11T11:21:47.94Z</time></trkpt><trkpt lat="45.86167248065313" lon="13.651584751517921"><ele>341.2</ele><time>2026-04-11T11:21:48.94Z</time></trkpt><trkpt lat="45.86156906177141" lon="13.651582893947777"><ele>339.59999999999997</ele><time>2026-04-11T11:21:49.94Z</time></trkpt><trkpt lat="45.86147876671899" lon="13.651617926104285"><ele>338.0</ele><time>2026-04-11T11:21:50.94Z</time></trkpt><trkpt lat="45.86138558629482" lon="13.651654729837185"><ele>338.0</ele><time>2026-04-11T11:21:51.94Z</time></trkpt><trkpt lat="45.86128926547813" lon="13.651674712276124"><ele>338.0</ele><time>2026-04-11T11:21:52.94Z</time></trkpt><trkpt lat="45.86118205194627" lon="13.651686159182098"><ele>338.0</ele><time>2026-04-11T11:21:53.94Z</time></trkpt><trkpt lat="45.861070845527415" lon="13.651684761164756"><ele>338.0</ele><time>2026-04-11T11:21:54.94Z</time></trkpt><trkpt lat="45.86096202637969" lon="13.651670730519486"><ele>338.0</ele><time>2026-04-11T11:21:55.94Z</time></trkpt><trkpt lat="45.86085023396597" lon="13.6516338944309"><ele>338.4</ele><time>2026-04-11T11:21:56.94Z</time></trkpt><trkpt lat="45.86073073552323" lon="13.651588576473882"><ele>338.79999999999995</ele><time>2026-04-11T11:21:57.94Z</time></trkpt><trkpt lat="45.86061838743429" lon="13.651527973947312"><ele>339.2</ele><time>2026-04-11T11:21:58.94Z</time></trkpt><trkpt lat="45.86053215356283" lon="13.651486100200996"><ele>339.6</ele><time>2026-04-11T11:21:59.94Z</time></trkpt><trkpt lat="45.86044274618599" lon="13.65144274043269"><ele>340.0</ele><time>2026-04-11T11:22:01.94Z</time></trkpt><trkpt lat="45.86037483375576" lon="13.651487023517625"><ele>340.0</ele><time>2026-04-11T11:22:04.94Z</time></trkpt><trkpt lat="45.860336394501836" lon="13.65161136948951"><ele>340.0</ele><time>2026-04-11T11:22:07.94Z</time></trkpt><trkpt lat="45.86035402747734" lon="13.65174196648501"><ele>340.0</ele><time>2026-04-11T11:22:09.94Z</time></trkpt><trkpt lat="45.86033821609984" lon="13.651900974373342"><ele>340.0</ele><time>2026-04-11T11:22:11.94Z</time></trkpt><trkpt lat="45.860303518535645" lon="13.651990338755425"><ele>340.0</ele><time>2026-04-11T11:22:12.94Z</time></trkpt><trkpt lat="45.86019634738832" lon="13.652134480697633"><ele>342.16666666666663</ele><time>2026-04-11T11:22:14.942Z</time></trkpt><trkpt lat="45.86011536568538" lon="13.65220361153629"><ele>344.3333333333333</ele><time>2026-04-11T11:22:15.942Z</time></trkpt><trkpt lat="45.86003693285701" lon="13.652292700907203"><ele>346.5</ele><time>2026-04-11T11:22:16.942Z</time></trkpt><trkpt lat="45.859987461826485" lon="13.652374640931583"><ele>348.6666666666667</ele><time>2026-04-11T11:22:17.942Z</time></trkpt><trkpt lat="45.85996545657754" lon="13.652465775022057"><ele>350.83333333333337</ele><time>2026-04-11T11:22:18.941Z</time></trkpt><trkpt lat="45.859926411101995" lon="13.65258236371238"><ele>353.0</ele><time>2026-04-11T11:22:19.941Z</time></trkpt><trkpt lat="45.85990107310824" lon="13.652711273997165"><ele>353.79999999999995</ele><time>2026-04-11T11:22:20.942Z</time></trkpt><trkpt lat="45.85988046851624" lon="13.65282999928599"><ele>354.6</ele><time>2026-04-11T11:22:21.941Z</time></trkpt><trkpt lat="45.85984072151747" lon="13.652948228724096"><ele>355.4</ele><time>2026-04-11T11:22:22.941Z</time></trkpt><trkpt lat="45.85979914190786" lon="13.653088203366995"><ele>356.20000000000005</ele><time>2026-04-11T11:22:23.941Z</time></trkpt><trkpt lat="45.85976191237414" lon="13.653246211215293"><ele>357.0</ele><time>2026-04-11T11:22:24.941Z</time></trkpt><trkpt lat="45.85972734231067" lon="13.653396727425786"><ele>357.0</ele><time>2026-04-11T11:22:25.941Z</time></trkpt><trkpt lat="45.85968346341137" lon="13.653530337432446"><ele>357.0</ele><time>2026-04-11T11:22:26.941Z</time></trkpt><trkpt lat="45.8596572585696" lon="13.653644664455143"><ele>357.0</ele><time>2026-04-11T11:22:27.941Z</time></trkpt><trkpt lat="45.85964381988831" lon="13.653747088662875"><ele>357.0</ele><time>2026-04-11T11:22:28.941Z</time></trkpt><trkpt lat="45.85966396017754" lon="13.653925657792582"><ele>357.0</ele><time>2026-04-11T11:22:30.941Z</time></trkpt><trkpt lat="45.85970087601502" lon="13.654016616329137"><ele>357.6</ele><time>2026-04-11T11:22:31.941Z</time></trkpt><trkpt lat="45.859750919970885" lon="13.654112480905583"><ele>358.20000000000005</ele><time>2026-04-11T11:22:32.941Z</time></trkpt><trkpt lat="45.85981294780527" lon="13.654213543369927"><ele>358.8</ele><time>2026-04-11T11:22:33.941Z</time></trkpt><trkpt lat="45.85987862283945" lon="13.654312505420686"><ele>359.4</ele><time>2026-04-11T11:22:34.941Z</time></trkpt><trkpt lat="45.85994223878168" lon="13.654392217833784"><ele>360.0</ele><time>2026-04-11T11:22:35.941Z</time></trkpt><trkpt lat="45.86002518663818" lon="13.654468475692592"><ele>360.2</ele><time>2026-04-11T11:22:36.941Z</time></trkpt><trkpt lat="45.860110418905954" lon="13.654517332615798"><ele>360.4</ele><time>2026-04-11T11:22:37.941Z</time></trkpt><trkpt lat="45.860226326361534" lon="13.654573729936196"><ele>360.6</ele><time>2026-04-11T11:22:38.941Z</time></trkpt><trkpt lat="45.86033237372173" lon="13.654628607956962"><ele>360.8</ele><time>2026-04-11T11:22:39.941Z</time></trkpt><trkpt lat="45.860423012645796" lon="13.654689333908381"><ele>361.0</ele><time>2026-04-11T11:22:40.941Z</time></trkpt><trkpt lat="45.860508852149415" lon="13.65476003327324"><ele>360.5</ele><time>2026-04-11T11:22:41.941Z</time></trkpt><trkpt lat="45.860587112245526" lon="13.65485617420195"><ele>360.0</ele><time>2026-04-11T11:22:42.941Z</time></trkpt><trkpt lat="45.86066951961062" lon="13.65497346628061"><ele>359.5</ele><time>2026-04-11T11:22:43.941Z</time></trkpt><trkpt lat="45.86074394819991" lon="13.655105959729473"><ele>359.0</ele><time>2026-04-11T11:22:44.941Z</time></trkpt><trkpt lat="45.860816576736234" lon="13.655241276542203"><ele>359.1666666666667</ele><time>2026-04-11T11:22:45.941Z</time></trkpt><trkpt lat="45.86086455648148" lon="13.65534678124078"><ele>359.33333333333337</ele><time>2026-04-11T11:22:46.941Z</time></trkpt><trkpt lat="45.86090423625277" lon="13.655450850096175"><ele>359.5</ele><time>2026-04-11T11:22:47.941Z</time></trkpt><trkpt lat="45.860920804081786" lon="13.655545139316473"><ele>359.6666666666667</ele><time>2026-04-11T11:22:48.941Z</time></trkpt><trkpt lat="45.86095244015388" lon="13.655677251347033"><ele>359.8333333333333</ele><time>2026-04-11T11:22:49.941Z</time></trkpt><trkpt lat="45.86097308383671" lon="13.655805919101757"><ele>360.0</ele><time>2026-04-11T11:22:50.941Z</time></trkpt><trkpt lat="45.86098761930671" lon="13.655947366320607"><ele>362.5</ele><time>2026-04-11T11:22:51.941Z</time></trkpt><trkpt lat="45.860989189628334" lon="13.656094265661503"><ele>365.0</ele><time>2026-04-11T11:22:52.941Z</time></trkpt><trkpt lat="45.86097793121461" lon="13.656247320478327"><ele>367.5</ele><time>2026-04-11T11:22:53.941Z</time></trkpt><trkpt lat="45.86096230902608" lon="13.656414423470993"><ele>370.0</ele><time>2026-04-11T11:22:54.941Z</time></trkpt><trkpt lat="45.8609528798103" lon="13.656597132455358"><ele>369.2</ele><time>2026-04-11T11:22:55.941Z</time></trkpt><trkpt lat="45.86094396880365" lon="13.656752623913476"><ele>368.4</ele><time>2026-04-11T11:22:56.941Z</time></trkpt><trkpt lat="45.860920104019584" lon="13.656887538160472"><ele>367.6</ele><time>2026-04-11T11:22:57.941Z</time></trkpt><trkpt lat="45.86089323258192" lon="13.657016325701298"><ele>366.8</ele><time>2026-04-11T11:22:58.941Z</time></trkpt><trkpt lat="45.86085961554278" lon="13.65714798521133"><ele>366.0</ele><time>2026-04-11T11:22:59.941Z</time></trkpt><trkpt lat="45.86084747717831" lon="13.657273218619862"><ele>367.3333333333333</ele><time>2026-04-11T11:23:00.941Z</time></trkpt><trkpt lat="45.86082961735982" lon="13.657377503454798"><ele>368.6666666666667</ele><time>2026-04-11T11:23:01.941Z</time></trkpt><trkpt lat="45.860834492530834" lon="13.657484396389252"><ele>370.0</ele><time>2026-04-11T11:23:02.941Z</time></trkpt><trkpt lat="45.86084066246008" lon="13.657599405692185"><ele>371.33333333333337</ele><time>2026-04-11T11:23:03.94Z</time></trkpt><trkpt lat="45.86085274186218" lon="13.657696847858787"><ele>372.6666666666667</ele><time>2026-04-11T11:23:04.94Z</time></trkpt><trkpt lat="45.86087661693914" lon="13.657813810419213"><ele>374.0</ele><time>2026-04-11T11:23:05.94Z</time></trkpt><trkpt lat="45.860898933130805" lon="13.657949198428874"><ele>374.33333333333337</ele><time>2026-04-11T11:23:06.94Z</time></trkpt><trkpt lat="45.86094186412644" lon="13.65808687023752"><ele>374.6666666666667</ele><time>2026-04-11T11:23:07.94Z</time></trkpt><trkpt lat="45.860972087287884" lon="13.658215871257585"><ele>375.0</ele><time>2026-04-11T11:23:08.94Z</time></trkpt><trkpt lat="45.86100720051974" lon="13.65833430932274"><ele>375.3333333333333</ele><time>2026-04-11T11:23:09.94Z</time></trkpt><trkpt lat="45.86102514125948" lon="13.65842701910574"><ele>375.66666666666663</ele><time>2026-04-11T11:23:10.94Z</time></trkpt><trkpt lat="45.861033397904606" lon="13.658516707923749"><ele>376.0</ele><time>2026-04-11T11:23:11.94Z</time></trkpt><trkpt lat="45.86104439123234" lon="13.658629795407446"><ele>378.20000000000005</ele><time>2026-04-11T11:23:12.94Z</time></trkpt><trkpt lat="45.86104141235984" lon="13.658764315053954"><ele>380.40000000000003</ele><time>2026-04-11T11:23:13.94Z</time></trkpt><trkpt lat="45.86103511059449" lon="13.658925015405526"><ele>382.6</ele><time>2026-04-11T11:23:14.94Z</time></trkpt><trkpt lat="45.86101576901144" lon="13.659075340010618"><ele>384.8</ele><time>2026-04-11T11:23:15.94Z</time></trkpt><trkpt lat="45.86099074821023" lon="13.659211852623613"><ele>387.0</ele><time>2026-04-11T11:23:16.94Z</time></trkpt><trkpt lat="45.86094966782709" lon="13.659326932727888"><ele>386.5</ele><time>2026-04-11T11:23:17.94Z</time></trkpt><trkpt lat="45.8608873252876" lon="13.659457861057444"><ele>386.0</ele><time>2026-04-11T11:23:18.94Z</time></trkpt><trkpt lat="45.86084219446518" lon="13.659575595158909"><ele>385.5</ele><time>2026-04-11T11:23:19.94Z</time></trkpt><trkpt lat="45.86081198451149" lon="13.659669093091527"><ele>385.0</ele><time>2026-04-11T11:23:20.94Z</time></trkpt><trkpt lat="45.86077150658797" lon="13.659754521866002"><ele>384.5</ele><time>2026-04-11T11:23:21.94Z</time></trkpt><trkpt lat="45.86075991136903" lon="13.659851463268387"><ele>384.0</ele><time>2026-04-11T11:23:22.94Z</time></trkpt><trkpt lat="45.86076257680377" lon="13.659947935485054"><ele>384.0</ele><time>2026-04-11T11:23:23.94Z</time></trkpt><trkpt lat="45.86076821093831" lon="13.660046464765385"><ele>384.0</ele><time>2026-04-11T11:23:24.94Z</time></trkpt><trkpt lat="45.8607891456773" lon="13.66017093788197"><ele>384.0</ele><time>2026-04-11T11:23:25.94Z</time></trkpt><trkpt lat="45.860823585203605" lon="13.660277670901914"><ele>384.0</ele><time>2026-04-11T11:23:26.94Z</time></trkpt><trkpt lat="45.86087783980833" lon="13.660375954523415"><ele>384.0</ele><time>2026-04-11T11:23:27.94Z</time></trkpt><trkpt lat="45.86096211719754" lon="13.660483411794104"><ele>384.0</ele><time>2026-04-11T11:23:28.94Z</time></trkpt><trkpt lat="45.86105362461248" lon="13.66057097996059"><ele>386.5</ele><time>2026-04-11T11:23:29.94Z</time></trkpt><trkpt lat="45.86114662285093" lon="13.660690359277472"><ele>389.0</ele><time>2026-04-11T11:23:30.94Z</time></trkpt><trkpt lat="45.86124295761229" lon="13.660809379581288"><ele>391.5</ele><time>2026-04-11T11:23:31.94Z</time></trkpt><trkpt lat="45.861335574254" lon="13.660923071320658"><ele>394.0</ele><time>2026-04-11T11:23:32.94Z</time></trkpt><trkpt lat="45.86141508135442" lon="13.661044385232994"><ele>393.4</ele><time>2026-04-11T11:23:33.94Z</time></trkpt><trkpt lat="45.86148549590273" lon="13.661171729251647"><ele>392.79999999999995</ele><time>2026-04-11T11:23:34.94Z</time></trkpt><trkpt lat="45.86154832217196" lon="13.661308832518857"><ele>392.20000000000005</ele><time>2026-04-11T11:23:35.94Z</time></trkpt><trkpt lat="45.861593629883" lon="13.661430456097591"><ele>391.6</ele><time>2026-04-11T11:23:36.94Z</time></trkpt><trkpt lat="45.861642073531584" lon="13.661546573753819"><ele>391.0</ele><time>2026-04-11T11:23:37.94Z</time></trkpt><trkpt lat="45.861669172086934" lon="13.66166853748386"><ele>391.0</ele><time>2026-04-11T11:23:38.94Z</time></trkpt><trkpt lat="45.86168978587496" lon="13.661767856160987"><ele>391.0</ele><time>2026-04-11T11:23:39.94Z</time></trkpt><trkpt lat="45.86169902264028" lon="13.661903840447588"><ele>391.0</ele><time>2026-04-11T11:23:40.94Z</time></trkpt><trkpt lat="45.861689315889905" lon="13.662034463824224"><ele>391.0</ele><time>2026-04-11T11:23:41.94Z</time></trkpt><trkpt lat="45.86166056671314" lon="13.662186260342402"><ele>391.0</ele><time>2026-04-11T11:23:42.94Z</time></trkpt><trkpt lat="45.86164584011959" lon="13.662335411426657"><ele>391.2857142857143</ele><time>2026-04-11T11:23:43.94Z</time></trkpt><trkpt lat="45.86164150164331" lon="13.662442437500069"><ele>391.57142857142856</ele><time>2026-04-11T11:23:44.94Z</time></trkpt><trkpt lat="45.86162702065912" lon="13.662550030830914"><ele>391.8571428571429</ele><time>2026-04-11T11:23:45.94Z</time></trkpt><trkpt lat="45.86164185258736" lon="13.662655884796118"><ele>392.1428571428571</ele><time>2026-04-11T11:23:46.94Z</time></trkpt><trkpt lat="45.86165363581421" lon="13.662758173853105"><ele>392.42857142857144</ele><time>2026-04-11T11:23:47.94Z</time></trkpt><trkpt lat="45.86169574998116" lon="13.662840341864397"><ele>392.7142857142857</ele><time>2026-04-11T11:23:48.94Z</time></trkpt><trkpt lat="45.8617554476088" lon="13.662890787320787"><ele>393.0</ele><time>2026-04-11T11:23:49.94Z</time></trkpt><trkpt lat="45.86183709090619" lon="13.662964135111729"><ele>394.1666666666667</ele><time>2026-04-11T11:23:50.94Z</time></trkpt><trkpt lat="45.86192920297554" lon="13.663037992546561"><ele>395.33333333333337</ele><time>2026-04-11T11:23:51.94Z</time></trkpt><trkpt lat="45.862008870148536" lon="13.6631265033822"><ele>396.5</ele><time>2026-04-11T11:23:52.94Z</time></trkpt><trkpt lat="45.8620742336802" lon="13.66318546168395"><ele>397.6666666666667</ele><time>2026-04-11T11:23:53.94Z</time></trkpt><trkpt lat="45.86211580436753" lon="13.663255346026519"><ele>398.83333333333337</ele><time>2026-04-11T11:23:54.94Z</time></trkpt><trkpt lat="45.86214271661538" lon="13.663350296569902"><ele>400.0</ele><time>2026-04-11T11:23:55.94Z</time></trkpt><trkpt lat="45.862166035408336" lon="13.663453906885929"><ele>400.0</ele><time>2026-04-11T11:23:56.94Z</time></trkpt><trkpt lat="45.862205567420155" lon="13.663572335914886"><ele>400.0</ele><time>2026-04-11T11:23:57.94Z</time></trkpt><trkpt lat="45.86226338435943" lon="13.66368141914949"><ele>400.0</ele><time>2026-04-11T11:23:58.94Z</time></trkpt><trkpt lat="45.86231058775319" lon="13.663757244770391"><ele>400.0</ele><time>2026-04-11T11:23:59.94Z</time></trkpt><trkpt lat="45.86239078502798" lon="13.663820369957271"><ele>400.0</ele><time>2026-04-11T11:24:00.94Z</time></trkpt><trkpt lat="45.862476922080354" lon="13.6639234902539"><ele>399.8</ele><time>2026-04-11T11:24:01.94Z</time></trkpt><trkpt lat="45.86255708201606" lon="13.664020094968253"><ele>399.6</ele><time>2026-04-11T11:24:02.94Z</time></trkpt><trkpt lat="45.862615611634496" lon="13.664095277612303"><ele>399.4</ele><time>2026-04-11T11:24:03.94Z</time></trkpt><trkpt lat="45.862648213363386" lon="13.664224774532292"><ele>399.2</ele><time>2026-04-11T11:24:05.94Z</time></trkpt><trkpt lat="45.86263056363243" lon="13.66436242138795"><ele>399.0</ele><time>2026-04-11T11:24:07.94Z</time></trkpt><trkpt lat="45.86259196677255" lon="13.664508183664616"><ele>400.5</ele><time>2026-04-11T11:24:09.94Z</time></trkpt><trkpt lat="45.862548869220646" lon="13.66461028410552"><ele>402.0</ele><time>2026-04-11T11:24:10.94Z</time></trkpt><trkpt lat="45.86252218559034" lon="13.66469305218162"><ele>403.5</ele><time>2026-04-11T11:24:11.94Z</time></trkpt><trkpt lat="45.862483758594685" lon="13.664771247854254"><ele>405.0</ele><time>2026-04-11T11:24:13.94Z</time></trkpt><trkpt lat="45.86241182117487" lon="13.664822266927805"><ele>406.5</ele><time>2026-04-11T11:24:15.94Z</time></trkpt><trkpt lat="45.8623511780386" lon="13.664856384902185"><ele>408.0</ele><time>2026-04-11T11:24:18.939Z</time></trkpt><trkpt lat="45.8622633858518" lon="13.664908671177455"><ele>408.0</ele><time>2026-04-11T11:25:05.94Z</time></trkpt><trkpt lat="45.862191289824096" lon="13.664924589959961"><ele>408.0</ele><time>2026-04-11T11:25:06.94Z</time></trkpt><trkpt lat="45.86211910314956" lon="13.664935591337615"><ele>408.0</ele><time>2026-04-11T11:25:07.94Z</time></trkpt><trkpt lat="45.862019021643796" lon="13.664921720470907"><ele>408.0</ele><time>2026-04-11T11:25:08.94Z</time></trkpt><trkpt lat="45.861892473179296" lon="13.664944542965815"><ele>408.0</ele><time>2026-04-11T11:25:09.94Z</time></trkpt><trkpt lat="45.8617817397644" lon="13.66496445295767"><ele>409.25</ele><time>2026-04-11T11:25:10.94Z</time></trkpt><trkpt lat="45.86167525459665" lon="13.664983531868218"><ele>410.5</ele><time>2026-04-11T11:25:11.94Z</time></trkpt><trkpt lat="45.86157331166604" lon="13.66503962121088"><ele>411.75</ele><time>2026-04-11T11:25:12.94Z</time></trkpt><trkpt lat="45.86145600005652" lon="13.665059404393139"><ele>413.0</ele><time>2026-04-11T11:25:13.94Z</time></trkpt><trkpt lat="45.86133244135696" lon="13.665080601782659"><ele>413.0</ele><time>2026-04-11T11:25:14.94Z</time></trkpt><trkpt lat="45.86118565233857" lon="13.665113092581635"><ele>413.0</ele><time>2026-04-11T11:25:15.94Z</time></trkpt><trkpt lat="45.861020061959195" lon="13.665141772959824"><ele>413.0</ele><time>2026-04-11T11:25:16.94Z</time></trkpt><trkpt lat="45.860861510003524" lon="13.665183493554473"><ele>414.0</ele><time>2026-04-11T11:25:17.94Z</time></trkpt><trkpt lat="45.86072377570675" lon="13.66521479266412"><ele>415.0</ele><time>2026-04-11T11:25:18.94Z</time></trkpt><trkpt lat="45.860585653520516" lon="13.665210118337129"><ele>416.0</ele><time>2026-04-11T11:25:19.94Z</time></trkpt><trkpt lat="45.86045425750924" lon="13.665234313903634"><ele>417.0</ele><time>2026-04-11T11:25:20.94Z</time></trkpt><trkpt lat="45.86032221419069" lon="13.665256786719938"><ele>417.0</ele><time>2026-04-11T11:25:21.94Z</time></trkpt><trkpt lat="45.860197072043306" lon="13.66527780761401"><ele>417.0</ele><time>2026-04-11T11:25:22.94Z</time></trkpt><trkpt lat="45.86008470505793" lon="13.66531794180128"><ele>417.0</ele><time>2026-04-11T11:25:23.94Z</time></trkpt><trkpt lat="45.8622633858518" lon="13.664908671177455"><ele>416.20000000000005</ele><time>2026-04-11T11:25:05.94Z</time></trkpt><trkpt lat="45.862191289824096" lon="13.664924589959961"><ele>415.4</ele><time>2026-04-11T11:25:06.94Z</time></trkpt><trkpt lat="45.86211910314956" lon="13.664935591337615"><ele>414.6</ele><time>2026-04-11T11:25:07.94Z</time></trkpt><trkpt lat="45.862019021643796" lon="13.664921720470907"><ele>413.79999999999995</ele><time>2026-04-11T11:25:08.94Z</time></trkpt><trkpt lat="45.861892473179296" lon="13.664944542965815"><ele>413.0</ele><time>2026-04-11T11:25:09.94Z</time></trkpt><trkpt lat="45.8617817397644" lon="13.66496445295767"><ele>413.0</ele><time>2026-04-11T11:25:10.94Z</time></trkpt><trkpt lat="45.86167525459665" lon="13.664983531868218"><ele>413.0</ele><time>2026-04-11T11:25:11.94Z</time></trkpt><trkpt lat="45.86157331166604" lon="13.66503962121088"><ele>413.0</ele><time>2026-04-11T11:25:12.94Z</time></trkpt><trkpt lat="45.86145600005652" lon="13.665059404393139"><ele>413.0</ele><time>2026-04-11T11:25:13.94Z</time></trkpt><trkpt lat="45.86133244135696" lon="13.665080601782659"><ele>413.0</ele><time>2026-04-11T11:25:14.94Z</time></trkpt><trkpt lat="45.86118565233857" lon="13.665113092581635"><ele>413.0</ele><time>2026-04-11T11:25:15.94Z</time></trkpt><trkpt lat="45.861020061959195" lon="13.665141772959824"><ele>413.0</ele><time>2026-04-11T11:25:16.94Z</time></trkpt><trkpt lat="45.860861510003524" lon="13.665183493554473"><ele>414.0</ele><time>2026-04-11T11:25:17.94Z</time></trkpt><trkpt lat="45.86072377570675" lon="13.66521479266412"><ele>415.0</ele><time>2026-04-11T11:25:18.94Z</time></trkpt><trkpt lat="45.860585653520516" lon="13.665210118337129"><ele>416.0</ele><time>2026-04-11T11:25:19.94Z</time></trkpt><trkpt lat="45.86045425750924" lon="13.665234313903634"><ele>417.0</ele><time>2026-04-11T11:25:20.94Z</time></trkpt><trkpt lat="45.86032221419069" lon="13.665256786719938"><ele>417.0</ele><time>2026-04-11T11:25:21.94Z</time></trkpt><trkpt lat="45.860197072043306" lon="13.66527780761401"><ele>417.0</ele><time>2026-04-11T11:25:22.94Z</time></trkpt><trkpt lat="45.86008470505793" lon="13.66531794180128"><ele>417.0</ele><time>2026-04-11T11:25:23.94Z</time></trkpt><trkpt lat="45.85995685600236" lon="13.665329475697437"><ele>417.0</ele><time>2026-04-11T11:25:24.94Z</time></trkpt><trkpt lat="45.85982395074133" lon="13.665366922592652"><ele>419.33333333333337</ele><time>2026-04-11T11:25:25.94Z</time></trkpt><trkpt lat="45.85968531000359" lon="13.665414370267442"><ele>421.6666666666667</ele><time>2026-04-11T11:25:26.94Z</time></trkpt><trkpt lat="45.859534813494754" lon="13.665459622711998"><ele>424.0</ele><time>2026-04-11T11:25:27.94Z</time></trkpt><trkpt lat="45.85937935924229" lon="13.665539313868171"><ele>422.0</ele><time>2026-04-11T11:25:28.94Z</time></trkpt><trkpt lat="45.85922102980456" lon="13.66561293975207"><ele>420.0</ele><time>2026-04-11T11:25:29.94Z</time></trkpt><trkpt lat="45.85905101840462" lon="13.665679794002111"><ele>418.0</ele><time>2026-04-11T11:25:30.94Z</time></trkpt><trkpt lat="45.85888019885064" lon="13.665755291065924"><ele>418.0</ele><time>2026-04-11T11:25:31.94Z</time></trkpt><trkpt lat="45.85870282850914" lon="13.665823835869993"><ele>418.0</ele><time>2026-04-11T11:25:32.94Z</time></trkpt><trkpt lat="45.858535844806696" lon="13.665885850715876"><ele>418.0</ele><time>2026-04-11T11:25:33.94Z</time></trkpt><trkpt lat="45.85837959787932" lon="13.665939884176831"><ele>418.0</ele><time>2026-04-11T11:25:34.94Z</time></trkpt><trkpt lat="45.858230510505535" lon="13.665988630610844"><ele>418.0</ele><time>2026-04-11T11:25:35.94Z</time></trkpt><trkpt lat="45.85809071617112" lon="13.666045086565402"><ele>418.0</ele><time>2026-04-11T11:25:36.94Z</time></trkpt><trkpt lat="45.857962990261335" lon="13.66608161861282"><ele>418.0</ele><time>2026-04-11T11:25:37.94Z</time></trkpt><trkpt lat="45.85783919104277" lon="13.666128866940406"><ele>418.0</ele><time>2026-04-11T11:25:38.94Z</time></trkpt><trkpt lat="45.85772161830513" lon="13.666199516071847"><ele>418.0</ele><time>2026-04-11T11:25:39.94Z</time></trkpt><trkpt lat="45.85763088495097" lon="13.666316361991841"><ele>418.0</ele><time>2026-04-11T11:25:40.94Z</time></trkpt><trkpt lat="45.85757367910049" lon="13.666470775120038"><ele>418.0</ele><time>2026-04-11T11:25:41.94Z</time></trkpt><trkpt lat="45.85754564933028" lon="13.666653669767891"><ele>418.25</ele><time>2026-04-11T11:25:42.94Z</time></trkpt><trkpt lat="45.85752387516188" lon="13.666842385552878"><ele>418.5</ele><time>2026-04-11T11:25:43.94Z</time></trkpt><trkpt lat="45.857501411119266" lon="13.667036432048565"><ele>418.75</ele><time>2026-04-11T11:25:44.94Z</time></trkpt><trkpt lat="45.857489405015826" lon="13.667226998550337"><ele>419.0</ele><time>2026-04-11T11:25:45.94Z</time></trkpt><trkpt lat="45.85746379459676" lon="13.667406992859396"><ele>418.0</ele><time>2026-04-11T11:25:46.94Z</time></trkpt><trkpt lat="45.85743777262401" lon="13.66758772443272"><ele>417.0</ele><time>2026-04-11T11:25:47.94Z</time></trkpt><trkpt lat="45.85740957956166" lon="13.667766624991398"><ele>416.0</ele><time>2026-04-11T11:25:48.94Z</time></trkpt><trkpt lat="45.85738507870131" lon="13.667948355574307"><ele>415.0</ele><time>2026-04-11T11:25:49.94Z</time></trkpt><trkpt lat="45.85735634257966" lon="13.668129290635886"><ele>414.5</ele><time>2026-04-11T11:25:50.94Z</time></trkpt><trkpt lat="45.85732753802933" lon="13.66829896912075"><ele>414.0</ele><time>2026-04-11T11:25:51.94Z</time></trkpt><trkpt lat="45.857305319869006" lon="13.668472210590416"><ele>413.5</ele><time>2026-04-11T11:25:52.94Z</time></trkpt><trkpt lat="45.85728677323769" lon="13.66865795029066"><ele>413.0</ele><time>2026-04-11T11:25:53.94Z</time></trkpt><trkpt lat="45.85724516359664" lon="13.668839185031308"><ele>414.0</ele><time>2026-04-11T11:25:54.94Z</time></trkpt><trkpt lat="45.8571934856495" lon="13.668994155608086"><ele>415.0</ele><time>2026-04-11T11:25:55.94Z</time></trkpt><trkpt lat="45.857112994593926" lon="13.669110367231616"><ele>416.0</ele><time>2026-04-11T11:25:56.94Z</time></trkpt><trkpt lat="45.8570187279236" lon="13.669171567150368"><ele>417.0</ele><time>2026-04-11T11:25:57.94Z</time></trkpt><trkpt lat="45.85689974205034" lon="13.6692432153401"><ele>416.25</ele><time>2026-04-11T11:25:58.94Z</time></trkpt><trkpt lat="45.85677340284135" lon="13.669317270610964"><ele>415.5</ele><time>2026-04-11T11:25:59.94Z</time></trkpt><trkpt lat="45.856671403661636" lon="13.669399365191744"><ele>414.75</ele><time>2026-04-11T11:26:00.94Z</time></trkpt><trkpt lat="45.85655828130122" lon="13.66944266517171"><ele>414.0</ele><time>2026-04-11T11:26:01.94Z</time></trkpt><trkpt lat="45.85645498885012" lon="13.669506057711622"><ele>416.5</ele><time>2026-04-11T11:26:02.94Z</time></trkpt><trkpt lat="45.85635080287466" lon="13.669580719788486"><ele>419.0</ele><time>2026-04-11T11:26:03.94Z</time></trkpt><trkpt lat="45.85623638623464" lon="13.669648751288333"><ele>421.5</ele><time>2026-04-11T11:26:04.94Z</time></trkpt><trkpt lat="45.85612074085318" lon="13.669732148977317"><ele>424.0</ele><time>2026-04-11T11:26:05.939Z</time></trkpt><trkpt lat="45.85600296105161" lon="13.669808320865856"><ele>423.25</ele><time>2026-04-11T11:26:06.939Z</time></trkpt><trkpt lat="45.855875075165535" lon="13.66986773360668"><ele>422.5</ele><time>2026-04-11T11:26:07.939Z</time></trkpt><trkpt lat="45.85574859167188" lon="13.66993306344465"><ele>421.75</ele><time>2026-04-11T11:26:08.939Z</time></trkpt><trkpt lat="45.855623469920175" lon="13.670008217629194"><ele>421.0</ele><time>2026-04-11T11:26:09.939Z</time></trkpt><trkpt lat="45.855503945470545" lon="13.670113356149582"><ele>421.0</ele><time>2026-04-11T11:26:10.939Z</time></trkpt><trkpt lat="45.855398389222714" lon="13.670255664924671"><ele>421.0</ele><time>2026-04-11T11:26:11.939Z</time></trkpt><trkpt lat="45.85530043017208" lon="13.670415203878244"><ele>421.0</ele><time>2026-04-11T11:26:12.939Z</time></trkpt><trkpt lat="45.85520077897701" lon="13.670566337570563"><ele>421.0</ele><time>2026-04-11T11:26:13.939Z</time></trkpt><trkpt lat="45.85509042776666" lon="13.670716510682327"><ele>421.0</ele><time>2026-04-11T11:26:14.939Z</time></trkpt><trkpt lat="45.854996816021924" lon="13.6708695618541"><ele>421.0</ele><time>2026-04-11T11:26:15.939Z</time></trkpt><trkpt lat="45.85491038447633" lon="13.671042439516757"><ele>421.0</ele><time>2026-04-11T11:26:16.939Z</time></trkpt><trkpt lat="45.854827699280015" lon="13.671228573824159"><ele>421.0</ele><time>2026-04-11T11:26:17.939Z</time></trkpt><trkpt lat="45.85473741486748" lon="13.67142862577149"><ele>421.33333333333337</ele><time>2026-04-11T11:26:18.939Z</time></trkpt><trkpt lat="45.854640108812376" lon="13.671632652985382"><ele>421.66666666666663</ele><time>2026-04-11T11:26:19.939Z</time></trkpt><trkpt lat="45.854544783813985" lon="13.67185148869132"><ele>422.0</ele><time>2026-04-11T11:26:20.939Z</time></trkpt><trkpt lat="45.85444918654743" lon="13.67206310922778"><ele>422.0</ele><time>2026-04-11T11:26:21.939Z</time></trkpt><trkpt lat="45.85435639705929" lon="13.672276627913691"><ele>422.0</ele><time>2026-04-11T11:26:22.939Z</time></trkpt><trkpt lat="45.854259429249545" lon="13.672499037585265"><ele>422.0</ele><time>2026-04-11T11:26:23.939Z</time></trkpt><trkpt lat="45.854158377156395" lon="13.672720057295932"><ele>419.0</ele><time>2026-04-11T11:26:24.939Z</time></trkpt><trkpt lat="45.854052449307986" lon="13.672933697065412"><ele>416.0</ele><time>2026-04-11T11:26:25.939Z</time></trkpt><trkpt lat="45.853948570980734" lon="13.673155194843304"><ele>413.0</ele><time>2026-04-11T11:26:26.941Z</time></trkpt><trkpt lat="45.8538463219057" lon="13.673373397391853"><ele>413.0</ele><time>2026-04-11T11:26:27.94Z</time></trkpt><trkpt lat="45.85374482456197" lon="13.673593335286283"><ele>413.0</ele><time>2026-04-11T11:26:28.94Z</time></trkpt><trkpt lat="45.853641135409205" lon="13.673817039582401"><ele>413.0</ele><time>2026-04-11T11:26:29.941Z</time></trkpt><trkpt lat="45.85353657829813" lon="13.674035989300853"><ele>412.0</ele><time>2026-04-11T11:26:30.941Z</time></trkpt><trkpt lat="45.853432837387494" lon="13.6742546507162"><ele>411.0</ele><time>2026-04-11T11:26:31.941Z</time></trkpt><trkpt lat="45.853331996546295" lon="13.674476402334646"><ele>410.0</ele><time>2026-04-11T11:26:32.941Z</time></trkpt><trkpt lat="45.853233768846124" lon="13.674686285515822"><ele>410.0</ele><time>2026-04-11T11:26:33.94Z</time></trkpt><trkpt lat="45.8531412762795" lon="13.674876838071423"><ele>410.0</ele><time>2026-04-11T11:26:34.94Z</time></trkpt><trkpt lat="45.8530403078729" lon="13.675036956377973"><ele>410.0</ele><time>2026-04-11T11:26:35.941Z</time></trkpt><trkpt lat="45.852935719232576" lon="13.675167201346124"><ele>410.0</ele><time>2026-04-11T11:26:36.941Z</time></trkpt><trkpt lat="45.85282826316273" lon="13.675260169097731"><ele>410.0</ele><time>2026-04-11T11:26:37.941Z</time></trkpt><trkpt lat="45.8527088043068" lon="13.67536771730413"><ele>410.0</ele><time>2026-04-11T11:26:38.941Z</time></trkpt><trkpt lat="45.85260519655763" lon="13.675480511498044"><ele>410.0</ele><time>2026-04-11T11:26:39.941Z</time></trkpt><trkpt lat="45.8525163001" lon="13.675603231995508"><ele>408.75</ele><time>2026-04-11T11:26:40.941Z</time></trkpt><trkpt lat="45.852469079907166" lon="13.675767810510784"><ele>407.5</ele><time>2026-04-11T11:26:41.941Z</time></trkpt><trkpt lat="45.85245403476497" lon="13.67595206433283"><ele>406.25</ele><time>2026-04-11T11:26:42.941Z</time></trkpt><trkpt lat="45.85245588665794" lon="13.676141193099408"><ele>405.0</ele><time>2026-04-11T11:26:43.941Z</time></trkpt><trkpt lat="45.85245130116089" lon="13.676332754475265"><ele>405.0</ele><time>2026-04-11T11:26:44.941Z</time></trkpt><trkpt lat="45.85244135275516" lon="13.676529189612062"><ele>405.0</ele><time>2026-04-11T11:26:45.941Z</time></trkpt><trkpt lat="45.85242722269716" lon="13.676734005180261"><ele>405.0</ele><time>2026-04-11T11:26:46.941Z</time></trkpt><trkpt lat="45.852415508773724" lon="13.676934815547042"><ele>405.0</ele><time>2026-04-11T11:26:47.941Z</time></trkpt><trkpt lat="45.85239781762119" lon="13.677124573969087"><ele>405.0</ele><time>2026-04-11T11:26:48.941Z</time></trkpt><trkpt lat="45.852360324313715" lon="13.677294484960626"><ele>405.0</ele><time>2026-04-11T11:26:49.941Z</time></trkpt><trkpt lat="45.85227480523879" lon="13.677447856707687"><ele>405.0</ele><time>2026-04-11T11:26:50.941Z</time></trkpt><trkpt lat="45.852206433228375" lon="13.677620427899702"><ele>405.0</ele><time>2026-04-11T11:26:51.941Z</time></trkpt><trkpt lat="45.852136812983204" lon="13.67782272737899"><ele>404.75</ele><time>2026-04-11T11:26:52.941Z</time></trkpt><trkpt lat="45.85205728541966" lon="13.678014233150204"><ele>404.5</ele><time>2026-04-11T11:26:53.941Z</time></trkpt><trkpt lat="45.85198345801169" lon="13.678204249654256"><ele>404.25</ele><time>2026-04-11T11:26:54.941Z</time></trkpt><trkpt lat="45.85190430968557" lon="13.678362548831235"><ele>404.0</ele><time>2026-04-11T11:26:55.941Z</time></trkpt><trkpt lat="45.85179259067702" lon="13.678487667392805"><ele>401.0</ele><time>2026-04-11T11:26:56.941Z</time></trkpt><trkpt lat="45.85166750392541" lon="13.678559625882512"><ele>398.0</ele><time>2026-04-11T11:26:57.941Z</time></trkpt><trkpt lat="45.851547859652634" lon="13.678587535412642"><ele>395.0</ele><time>2026-04-11T11:26:58.941Z</time></trkpt><trkpt lat="45.85141191669423" lon="13.67863802260755"><ele>392.0</ele><time>2026-04-11T11:26:59.941Z</time></trkpt><trkpt lat="45.85127377725215" lon="13.67869405853845"><ele>391.66666666666663</ele><time>2026-04-11T11:27:00.941Z</time></trkpt><trkpt lat="45.851133194323914" lon="13.678761090738297"><ele>391.33333333333337</ele><time>2026-04-11T11:27:01.941Z</time></trkpt><trkpt lat="45.85099308610129" lon="13.678866122805983"><ele>391.0</ele><time>2026-04-11T11:27:02.941Z</time></trkpt><trkpt lat="45.85085636935045" lon="13.67896457810193"><ele>390.0</ele><time>2026-04-11T11:27:03.941Z</time></trkpt><trkpt lat="45.85073269458134" lon="13.679073667371172"><ele>389.0</ele><time>2026-04-11T11:27:04.941Z</time></trkpt><trkpt lat="45.850609554507805" lon="13.679146486252073"><ele>388.0</ele><time>2026-04-11T11:27:05.941Z</time></trkpt><trkpt lat="45.85047421592649" lon="13.679151194816765"><ele>387.0</ele><time>2026-04-11T11:27:06.941Z</time></trkpt><trkpt lat="45.850341996009924" lon="13.679107152293689"><ele>387.0</ele><time>2026-04-11T11:27:07.941Z</time></trkpt><trkpt lat="45.85019844342557" lon="13.679065104883753"><ele>387.0</ele><time>2026-04-11T11:27:08.941Z</time></trkpt><trkpt lat="45.850053633896074" lon="13.679003886024205"><ele>387.0</ele><time>2026-04-11T11:27:09.941Z</time></trkpt><trkpt lat="45.849893611505564" lon="13.678979739466058"><ele>387.33333333333337</ele><time>2026-04-11T11:27:10.941Z</time></trkpt><trkpt lat="45.84973623268474" lon="13.678954649185899"><ele>387.6666666666667</ele><time>2026-04-11T11:27:11.941Z</time></trkpt><trkpt lat="45.8495763565316" lon="13.678914905505582"><ele>388.0</ele><time>2026-04-11T11:27:12.941Z</time></trkpt><trkpt lat="45.84942009448539" lon="13.67883569113283"><ele>387.6666666666667</ele><time>2026-04-11T11:27:13.941Z</time></trkpt><trkpt lat="45.84927650792656" lon="13.67873394536183"><ele>387.33333333333337</ele><time>2026-04-11T11:27:14.941Z</time></trkpt><trkpt lat="45.84912867313739" lon="13.678659696841766"><ele>387.0</ele><time>2026-04-11T11:27:15.941Z</time></trkpt><trkpt lat="45.848986818767976" lon="13.678599049740164"><ele>387.0</ele><time>2026-04-11T11:27:16.941Z</time></trkpt><trkpt lat="45.84884384914108" lon="13.678603040840706"><ele>387.0</ele><time>2026-04-11T11:27:17.941Z</time></trkpt><trkpt lat="45.84871153849282" lon="13.67861563193278"><ele>387.0</ele><time>2026-04-11T11:27:18.94Z</time></trkpt><trkpt lat="45.8485807049729" lon="13.678604633416825"><ele>387.0</ele><time>2026-04-11T11:27:19.94Z</time></trkpt><trkpt lat="45.84844355282968" lon="13.678597124214834"><ele>386.75</ele><time>2026-04-11T11:27:20.94Z</time></trkpt><trkpt lat="45.848309144062156" lon="13.67857734498112"><ele>386.5</ele><time>2026-04-11T11:27:21.94Z</time></trkpt><trkpt lat="45.84817439912202" lon="13.67855126700681"><ele>386.25</ele><time>2026-04-11T11:27:22.94Z</time></trkpt><trkpt lat="45.848055111061456" lon="13.67852677786817"><ele>386.0</ele><time>2026-04-11T11:27:23.94Z</time></trkpt><trkpt lat="45.84796402795297" lon="13.678533487561745"><ele>386.0</ele><time>2026-04-11T11:27:24.94Z</time></trkpt><trkpt lat="45.84786855704971" lon="13.678511946140526"><ele>386.0</ele><time>2026-04-11T11:27:26.94Z</time></trkpt><trkpt lat="45.847838775100776" lon="13.678639619755483"><ele>386.0</ele><time>2026-04-11T11:27:29.94Z</time></trkpt><trkpt lat="45.84785149945225" lon="13.678738234767696"><ele>386.0</ele><time>2026-04-11T11:27:30.94Z</time></trkpt><trkpt lat="45.847873319782856" lon="13.678873884703853"><ele>386.0</ele><time>2026-04-11T11:27:31.94Z</time></trkpt><trkpt lat="45.84789450205275" lon="13.679018062946186"><ele>386.5</ele><time>2026-04-11T11:27:32.94Z</time></trkpt><trkpt lat="45.847915180862486" lon="13.679179263112223"><ele>387.0</ele><time>2026-04-11T11:27:33.94Z</time></trkpt><trkpt lat="45.847932424889656" lon="13.679379994786517"><ele>387.5</ele><time>2026-04-11T11:27:34.94Z</time></trkpt><trkpt lat="45.8479406488093" lon="13.679590927583162"><ele>388.0</ele><time>2026-04-11T11:27:35.94Z</time></trkpt><trkpt lat="45.84794318494622" lon="13.679797779218235"><ele>388.0</ele><time>2026-04-11T11:27:36.94Z</time></trkpt><trkpt lat="45.84794276770466" lon="13.680023326627543"><ele>388.0</ele><time>2026-04-11T11:27:37.94Z</time></trkpt><trkpt lat="45.84794007115473" lon="13.680263125114104"><ele>388.0</ele><time>2026-04-11T11:27:38.94Z</time></trkpt><trkpt lat="45.84793728376838" lon="13.680496203828588"><ele>388.33333333333337</ele><time>2026-04-11T11:27:39.94Z</time></trkpt><trkpt lat="45.847935813559836" lon="13.680735911704039"><ele>388.66666666666663</ele><time>2026-04-11T11:27:40.94Z</time></trkpt><trkpt lat="45.847939504825824" lon="13.680990777708155"><ele>389.0</ele><time>2026-04-11T11:27:41.94Z</time></trkpt><trkpt lat="45.84794742378371" lon="13.681253371924242"><ele>388.0</ele><time>2026-04-11T11:27:42.94Z</time></trkpt><trkpt lat="45.84795961219061" lon="13.681520224457907"><ele>387.0</ele><time>2026-04-11T11:27:43.94Z</time></trkpt><trkpt lat="45.84797083439256" lon="13.681783268513485"><ele>386.0</ele><time>2026-04-11T11:27:44.94Z</time></trkpt><trkpt lat="45.84797821481114" lon="13.682036494444453"><ele>385.66666666666663</ele><time>2026-04-11T11:27:45.94Z</time></trkpt><trkpt lat="45.84798097037189" lon="13.682289128116782"><ele>385.33333333333337</ele><time>2026-04-11T11:27:46.94Z</time></trkpt><trkpt lat="45.84798171835603" lon="13.682535923681344"><ele>385.0</ele><time>2026-04-11T11:27:47.94Z</time></trkpt><trkpt lat="45.84798147621217" lon="13.682780585219236"><ele>384.33333333333337</ele><time>2026-04-11T11:27:48.94Z</time></trkpt><trkpt lat="45.84798042018802" lon="13.683032007581858"><ele>383.6666666666667</ele><time>2026-04-11T11:27:49.94Z</time></trkpt><trkpt lat="45.84796979888357" lon="13.683281290389868"><ele>383.0</ele><time>2026-04-11T11:27:50.94Z</time></trkpt><trkpt lat="45.84795698233927" lon="13.683537109596346"><ele>382.0</ele><time>2026-04-11T11:27:51.94Z</time></trkpt><trkpt lat="45.847944929817594" lon="13.683792640101371"><ele>381.0</ele><time>2026-04-11T11:27:52.94Z</time></trkpt><trkpt lat="45.847929408939315" lon="13.684047635835062"><ele>380.0</ele><time>2026-04-11T11:27:53.94Z</time></trkpt><trkpt lat="45.847904229059104" lon="13.684303716398116"><ele>381.33333333333337</ele><time>2026-04-11T11:27:54.94Z</time></trkpt><trkpt lat="45.84786854679032" lon="13.684551472811702"><ele>382.6666666666667</ele><time>2026-04-11T11:27:55.94Z</time></trkpt><trkpt lat="45.847833585711754" lon="13.684807365358465"><ele>384.0</ele><time>2026-04-11T11:27:56.94Z</time></trkpt><trkpt lat="45.84782147232471" lon="13.685076224691153"><ele>383.6666666666667</ele><time>2026-04-11T11:27:57.94Z</time></trkpt><trkpt lat="45.84780540193821" lon="13.685342455641392"><ele>383.33333333333337</ele><time>2026-04-11T11:27:58.94Z</time></trkpt><trkpt lat="45.84778428471288" lon="13.68560389205695"><ele>383.0</ele><time>2026-04-11T11:27:59.94Z</time></trkpt><trkpt lat="45.847752479066" lon="13.685866957559469"><ele>382.6666666666667</ele><time>2026-04-11T11:28:00.94Z</time></trkpt><trkpt lat="45.8477231939596" lon="13.686130297818057"><ele>382.3333333333333</ele><time>2026-04-11T11:28:01.94Z</time></trkpt><trkpt lat="45.84769136472197" lon="13.686394478509948"><ele>382.0</ele><time>2026-04-11T11:28:02.94Z</time></trkpt><trkpt lat="45.8476564191281" lon="13.686651773928249"><ele>382.0</ele><time>2026-04-11T11:28:03.94Z</time></trkpt><trkpt lat="45.84762836433319" lon="13.686906398456648"><ele>382.0</ele><time>2026-04-11T11:28:04.94Z</time></trkpt><trkpt lat="45.847604538593764" lon="13.68716154075087"><ele>382.0</ele><time>2026-04-11T11:28:05.94Z</time></trkpt><trkpt lat="45.84758441734393" lon="13.687417330276867"><ele>384.66666666666663</ele><time>2026-04-11T11:28:06.94Z</time></trkpt><trkpt lat="45.847565070657076" lon="13.687669145828746"><ele>387.3333333333333</ele><time>2026-04-11T11:28:07.94Z</time></trkpt><trkpt lat="45.847545877246624" lon="13.68792552533836"><ele>390.0</ele><time>2026-04-11T11:28:08.94Z</time></trkpt><trkpt lat="45.84752842768002" lon="13.688182429422556"><ele>390.0</ele><time>2026-04-11T11:28:09.94Z</time></trkpt><trkpt lat="45.847514146810205" lon="13.688448854529126"><ele>390.0</ele><time>2026-04-11T11:28:10.94Z</time></trkpt><trkpt lat="45.8475062640011" lon="13.68871272678618"><ele>390.0</ele><time>2026-04-11T11:28:11.94Z</time></trkpt><trkpt lat="45.84750123921111" lon="13.688975988492242"><ele>390.66666666666663</ele><time>2026-04-11T11:28:12.94Z</time></trkpt><trkpt lat="45.84749846661347" lon="13.68924440660467"><ele>391.3333333333333</ele><time>2026-04-11T11:28:13.94Z</time></trkpt><trkpt lat="45.84750091904655" lon="13.68951427773818"><ele>392.0</ele><time>2026-04-11T11:28:14.94Z</time></trkpt><trkpt lat="45.84751654418017" lon="13.689775993894266"><ele>392.0</ele><time>2026-04-11T11:28:15.94Z</time></trkpt><trkpt lat="45.84755449946784" lon="13.690034310048695"><ele>392.0</ele><time>2026-04-11T11:28:16.94Z</time></trkpt><trkpt lat="45.84756960983757" lon="13.69030839410174"><ele>392.0</ele><time>2026-04-11T11:28:17.94Z</time></trkpt><trkpt lat="45.847595824041505" lon="13.69059058766581"><ele>387.3333333333333</ele><time>2026-04-11T11:28:18.94Z</time></trkpt><trkpt lat="45.84762835277999" lon="13.69088353053684"><ele>382.66666666666663</ele><time>2026-04-11T11:28:19.94Z</time></trkpt><trkpt lat="45.847627252759295" lon="13.691158997313643"><ele>378.0</ele><time>2026-04-11T11:28:20.94Z</time></trkpt><trkpt lat="45.84763648961909" lon="13.691431875486863"><ele>377.0</ele><time>2026-04-11T11:28:21.94Z</time></trkpt><trkpt lat="45.84764450321543" lon="13.691701736342678"><ele>376.0</ele><time>2026-04-11T11:28:22.94Z</time></trkpt><trkpt lat="45.847649649525074" lon="13.691967842675027"><ele>375.0</ele><time>2026-04-11T11:28:23.94Z</time></trkpt><trkpt lat="45.847650856590654" lon="13.6922297620876"><ele>374.6666666666667</ele><time>2026-04-11T11:28:24.94Z</time></trkpt><trkpt lat="45.847645042889084" lon="13.692486568455001"><ele>374.33333333333337</ele><time>2026-04-11T11:28:25.94Z</time></trkpt><trkpt lat="45.84763004656606" lon="13.692735924501987"><ele>374.0</ele><time>2026-04-11T11:28:26.94Z</time></trkpt><trkpt lat="45.84760871120151" lon="13.692988021353425"><ele>376.6666666666667</ele><time>2026-04-11T11:28:27.94Z</time></trkpt><trkpt lat="45.84758181400978" lon="13.693241827867794"><ele>379.3333333333333</ele><time>2026-04-11T11:28:28.94Z</time></trkpt><trkpt lat="45.847556662241885" lon="13.69350329831159"><ele>382.0</ele><time>2026-04-11T11:28:29.94Z</time></trkpt><trkpt lat="45.84755178890281" lon="13.69376901182405"><ele>382.0</ele><time>2026-04-11T11:28:30.94Z</time></trkpt><trkpt lat="45.84754080213456" lon="13.694035979984884"><ele>382.0</ele><time>2026-04-11T11:28:31.94Z</time></trkpt><trkpt lat="45.84753316815419" lon="13.694303000609299"><ele>382.0</ele><time>2026-04-11T11:28:32.94Z</time></trkpt><trkpt lat="45.84752374574621" lon="13.694568037037252"><ele>381.3333333333333</ele><time>2026-04-11T11:28:33.94Z</time></trkpt><trkpt lat="45.84751424414083" lon="13.694830896215663"><ele>380.6666666666667</ele><time>2026-04-11T11:28:34.94Z</time></trkpt><trkpt lat="45.847498615604174" lon="13.695087206204498"><ele>380.0</ele><time>2026-04-11T11:28:35.94Z</time></trkpt><trkpt lat="45.847488456946344" lon="13.695340631540365"><ele>380.0</ele><time>2026-04-11T11:28:36.94Z</time></trkpt><trkpt lat="45.84747935004717" lon="13.695593159005528"><ele>380.0</ele><time>2026-04-11T11:28:37.94Z</time></trkpt><trkpt lat="45.847466023159626" lon="13.695841645707166"><ele>380.0</ele><time>2026-04-11T11:28:38.94Z</time></trkpt><trkpt lat="45.84745827455682" lon="13.696089115106274"><ele>379.6666666666667</ele><time>2026-04-11T11:28:39.94Z</time></trkpt><trkpt lat="45.84745975850059" lon="13.69633906274004"><ele>379.3333333333333</ele><time>2026-04-11T11:28:40.94Z</time></trkpt><trkpt lat="45.84746921269349" lon="13.696602424916547"><ele>379.0</ele><time>2026-04-11T11:28:41.94Z</time></trkpt><trkpt lat="45.84747518414344" lon="13.69687183705423"><ele>378.0</ele><time>2026-04-11T11:28:42.94Z</time></trkpt><trkpt lat="45.84748175699916" lon="13.697142294536926"><ele>377.0</ele><time>2026-04-11T11:28:43.94Z</time></trkpt><trkpt lat="45.8474851512193" lon="13.697422640535365"><ele>376.0</ele><time>2026-04-11T11:28:44.94Z</time></trkpt><trkpt lat="45.8474897135812" lon="13.697708021510774"><ele>375.0</ele><time>2026-04-11T11:28:45.94Z</time></trkpt><trkpt lat="45.8474994628781" lon="13.697992243445876"><ele>374.0</ele><time>2026-04-11T11:28:46.94Z</time></trkpt><trkpt lat="45.84751472642555" lon="13.69827951815616"><ele>373.0</ele><time>2026-04-11T11:28:47.94Z</time></trkpt><trkpt lat="45.84753419953377" lon="13.698572625353421"><ele>372.0</ele><time>2026-04-11T11:28:48.94Z</time></trkpt><trkpt lat="45.84755399267555" lon="13.698862156906861"><ele>371.0</ele><time>2026-04-11T11:28:49.94Z</time></trkpt><trkpt lat="45.84756763946571" lon="13.699136038023855"><ele>370.0</ele><time>2026-04-11T11:28:50.94Z</time></trkpt><trkpt lat="45.847582551960876" lon="13.699403735520578"><ele>370.3333333333333</ele><time>2026-04-11T11:28:51.94Z</time></trkpt><trkpt lat="45.847604647549744" lon="13.69966999108395"><ele>370.6666666666667</ele><time>2026-04-11T11:28:52.94Z</time></trkpt><trkpt lat="45.847629182755085" lon="13.699926059118317"><ele>371.0</ele><time>2026-04-11T11:28:53.94Z</time></trkpt><trkpt lat="45.84764584936473" lon="13.700171370343437"><ele>371.75</ele><time>2026-04-11T11:28:54.939Z</time></trkpt><trkpt lat="45.847645635439605" lon="13.70040242223549"><ele>372.5</ele><time>2026-04-11T11:28:55.939Z</time></trkpt><trkpt lat="45.84763494116581" lon="13.700600771882781"><ele>373.25</ele><time>2026-04-11T11:28:56.939Z</time></trkpt><trkpt lat="45.84761591464216" lon="13.700749769633685"><ele>374.0</ele><time>2026-04-11T11:28:57.939Z</time></trkpt><trkpt lat="45.847579501132365" lon="13.700894749139229"><ele>374.0</ele><time>2026-04-11T11:28:58.939Z</time></trkpt><trkpt lat="45.84755101514784" lon="13.701029307436661"><ele>374.0</ele><time>2026-04-11T11:28:59.939Z</time></trkpt><trkpt lat="45.8475205811167" lon="13.701191976711831"><ele>374.0</ele><time>2026-04-11T11:29:00.939Z</time></trkpt><trkpt lat="45.84744456379049" lon="13.701332371666245"><ele>374.0</ele><time>2026-04-11T11:29:01.939Z</time></trkpt><trkpt lat="45.847358767864854" lon="13.701454062609677"><ele>374.0</ele><time>2026-04-11T11:29:02.939Z</time></trkpt><trkpt lat="45.84724471420236" lon="13.701550699977043"><ele>374.0</ele><time>2026-04-11T11:29:03.939Z</time></trkpt><trkpt lat="45.8471203149284" lon="13.701662458009443"><ele>374.0</ele><time>2026-04-11T11:29:04.939Z</time></trkpt><trkpt lat="45.846995047055685" lon="13.701779730701084"><ele>374.0</ele><time>2026-04-11T11:29:05.939Z</time></trkpt><trkpt lat="45.846870689236006" lon="13.701901975281572"><ele>373.6666666666667</ele><time>2026-04-11T11:29:06.939Z</time></trkpt><trkpt lat="45.8467565845579" lon="13.702045012292718"><ele>373.3333333333333</ele><time>2026-04-11T11:29:07.939Z</time></trkpt><trkpt lat="45.84666237938953" lon="13.702238442387415"><ele>373.0</ele><time>2026-04-11T11:29:08.939Z</time></trkpt><trkpt lat="45.84655192143903" lon="13.70242633655217"><ele>373.0</ele><time>2026-04-11T11:29:09.939Z</time></trkpt><trkpt lat="45.84646921266749" lon="13.702657400964494"><ele>373.0</ele><time>2026-04-11T11:29:10.939Z</time></trkpt><trkpt lat="45.846387051177985" lon="13.702875342637306"><ele>373.0</ele><time>2026-04-11T11:29:11.939Z</time></trkpt><trkpt lat="45.84629900631043" lon="13.703117222284007"><ele>372.3333333333333</ele><time>2026-04-11T11:29:12.939Z</time></trkpt><trkpt lat="45.8462316321284" lon="13.703353917039196"><ele>371.6666666666667</ele><time>2026-04-11T11:29:13.939Z</time></trkpt><trkpt lat="45.846152208238735" lon="13.703563920928563"><ele>371.0</ele><time>2026-04-11T11:29:14.939Z</time></trkpt><trkpt lat="45.84610547176371" lon="13.703778665328725"><ele>371.0</ele><time>2026-04-11T11:29:15.939Z</time></trkpt><trkpt lat="45.84604642415619" lon="13.703959800668002"><ele>371.0</ele><time>2026-04-11T11:29:16.939Z</time></trkpt><trkpt lat="45.84599304994842" lon="13.704145489559064"><ele>371.0</ele><time>2026-04-11T11:29:17.939Z</time></trkpt><trkpt lat="45.845944412666015" lon="13.704329271367671"><ele>371.0</ele><time>2026-04-11T11:29:18.939Z</time></trkpt><trkpt lat="45.84591267486147" lon="13.704473131757485"><ele>371.0</ele><time>2026-04-11T11:29:19.939Z</time></trkpt><trkpt lat="45.84586812562345" lon="13.704597022682558"><ele>371.0</ele><time>2026-04-11T11:29:20.939Z</time></trkpt><trkpt lat="45.84587588024388" lon="13.704716956439443"><ele>371.0</ele><time>2026-04-11T11:29:21.939Z</time></trkpt><trkpt lat="45.845773017834965" lon="13.704822892257406"><ele>371.0</ele><time>2026-04-11T11:29:22.939Z</time></trkpt><trkpt lat="45.845711343064444" lon="13.704916506132193"><ele>371.0</ele><time>2026-04-11T11:29:23.939Z</time></trkpt><trkpt lat="45.84564714844105" lon="13.705009178293869"><ele>371.0</ele><time>2026-04-11T11:29:24.939Z</time></trkpt><trkpt lat="45.84558471747854" lon="13.705114325107289"><ele>371.0</ele><time>2026-04-11T11:29:25.939Z</time></trkpt><trkpt lat="45.84550273781248" lon="13.705194664901493"><ele>371.0</ele><time>2026-04-11T11:29:26.939Z</time></trkpt><trkpt lat="45.845431272234165" lon="13.705290689201549"><ele>371.0</ele><time>2026-04-11T11:29:27.939Z</time></trkpt><trkpt lat="45.845350275575214" lon="13.705399043783805"><ele>371.0</ele><time>2026-04-11T11:29:28.939Z</time></trkpt><trkpt lat="45.84526107157399" lon="13.705511429546855"><ele>370.8</ele><time>2026-04-11T11:29:29.939Z</time></trkpt><trkpt lat="45.84516451987964" lon="13.7056306838505"><ele>370.6</ele><time>2026-04-11T11:29:30.939Z</time></trkpt><trkpt lat="45.84508880187117" lon="13.705724205764792"><ele>370.4</ele><time>2026-04-11T11:29:31.939Z</time></trkpt><trkpt lat="45.84501612412149" lon="13.705813972546506"><ele>370.2</ele><time>2026-04-11T11:29:32.939Z</time></trkpt><trkpt lat="45.844939357954026" lon="13.70590963549339"><ele>370.0</ele><time>2026-04-11T11:29:33.939Z</time></trkpt><trkpt lat="45.84485290728568" lon="13.7060181805224"><ele>370.25</ele><time>2026-04-11T11:29:34.939Z</time></trkpt><trkpt lat="45.8447706087858" lon="13.70614614559775"><ele>370.5</ele><time>2026-04-11T11:29:35.939Z</time></trkpt><trkpt lat="45.84468442163487" lon="13.706259426419512"><ele>370.75</ele><time>2026-04-11T11:29:36.939Z</time></trkpt><trkpt lat="45.844598851857015" lon="13.706390246065823"><ele>371.0</ele><time>2026-04-11T11:29:37.939Z</time></trkpt><trkpt lat="45.844514535491925" lon="13.706508602845531"><ele>371.0</ele><time>2026-04-11T11:29:38.939Z</time></trkpt><trkpt lat="45.844425009216344" lon="13.706623688257357"><ele>371.0</ele><time>2026-04-11T11:29:39.939Z</time></trkpt><trkpt lat="45.84434384069504" lon="13.706751907781884"><ele>371.0</ele><time>2026-04-11T11:29:40.939Z</time></trkpt><trkpt lat="45.84425313138472" lon="13.706849674796867"><ele>371.0</ele><time>2026-04-11T11:29:41.939Z</time></trkpt><trkpt lat="45.84417294740821" lon="13.706910428137919"><ele>371.0</ele><time>2026-04-11T11:29:42.939Z</time></trkpt><trkpt lat="45.84409333512638" lon="13.706970082150931"><ele>369.75</ele><time>2026-04-11T11:29:43.939Z</time></trkpt><trkpt lat="45.844003775134674" lon="13.707032876062978"><ele>368.5</ele><time>2026-04-11T11:29:44.939Z</time></trkpt><trkpt lat="45.843900688909784" lon="13.70710448777052"><ele>367.25</ele><time>2026-04-11T11:29:45.939Z</time></trkpt><trkpt lat="45.84379155989489" lon="13.707198226816223"><ele>366.0</ele><time>2026-04-11T11:29:46.939Z</time></trkpt><trkpt lat="45.84367259427988" lon="13.707267540541565"><ele>366.0</ele><time>2026-04-11T11:29:47.939Z</time></trkpt><trkpt lat="45.843560572163135" lon="13.707332628253079"><ele>366.0</ele><time>2026-04-11T11:29:48.939Z</time></trkpt><trkpt lat="45.8434575191945" lon="13.70739678563558"><ele>366.0</ele><time>2026-04-11T11:29:49.939Z</time></trkpt><trkpt lat="45.84335043238014" lon="13.707461301321732"><ele>366.0</ele><time>2026-04-11T11:29:50.939Z</time></trkpt><trkpt lat="45.84324895770095" lon="13.707526322157307"><ele>365.4</ele><time>2026-04-11T11:29:51.939Z</time></trkpt><trkpt lat="45.843160415711" lon="13.707593416090436"><ele>364.8</ele><time>2026-04-11T11:29:52.939Z</time></trkpt><trkpt lat="45.84309367951165" lon="13.707684275363654"><ele>364.2</ele><time>2026-04-11T11:29:53.939Z</time></trkpt><trkpt lat="45.84301343357751" lon="13.707773382671519"><ele>363.59999999999997</ele><time>2026-04-11T11:29:54.939Z</time></trkpt><trkpt lat="45.842935185494056" lon="13.707887005590532"><ele>363.0</ele><time>2026-04-11T11:29:55.939Z</time></trkpt><trkpt lat="45.842853845324335" lon="13.708019315427979"><ele>362.5</ele><time>2026-04-11T11:29:56.939Z</time></trkpt><trkpt lat="45.84276468781589" lon="13.708117789380452"><ele>362.0</ele><time>2026-04-11T11:29:57.939Z</time></trkpt><trkpt lat="45.84269313270608" lon="13.708232510859968"><ele>361.5</ele><time>2026-04-11T11:29:58.939Z</time></trkpt><trkpt lat="45.84261936172445" lon="13.708368266682138"><ele>361.0</ele><time>2026-04-11T11:29:59.939Z</time></trkpt><trkpt lat="45.842542230759165" lon="13.708494087592761"><ele>360.25</ele><time>2026-04-11T11:30:00.939Z</time></trkpt><trkpt lat="45.84246009751321" lon="13.708628486529136"><ele>359.5</ele><time>2026-04-11T11:30:01.939Z</time></trkpt><trkpt lat="45.84239357474386" lon="13.708761756475758"><ele>358.75</ele><time>2026-04-11T11:30:02.939Z</time></trkpt><trkpt lat="45.84232809178652" lon="13.708896735112953"><ele>358.0</ele><time>2026-04-11T11:30:03.939Z</time></trkpt><trkpt lat="45.84226367394188" lon="13.709020875685676"><ele>358.0</ele><time>2026-04-11T11:30:04.939Z</time></trkpt><trkpt lat="45.842206960411005" lon="13.70913397406052"><ele>358.0</ele><time>2026-04-11T11:30:05.939Z</time></trkpt><trkpt lat="45.84214692503494" lon="13.709244733211778"><ele>358.0</ele><time>2026-04-11T11:30:06.939Z</time></trkpt><trkpt lat="45.842076436689254" lon="13.709363223454822"><ele>358.0</ele><time>2026-04-11T11:30:07.939Z</time></trkpt><trkpt lat="45.842001042548084" lon="13.709493202964309"><ele>358.0</ele><time>2026-04-11T11:30:08.939Z</time></trkpt><trkpt lat="45.841938238328794" lon="13.70961388796882"><ele>357.59999999999997</ele><time>2026-04-11T11:30:09.939Z</time></trkpt><trkpt lat="45.84186475138644" lon="13.709730511273715"><ele>357.2</ele><time>2026-04-11T11:30:10.939Z</time></trkpt><trkpt lat="45.84179725349682" lon="13.709841977911509"><ele>356.8</ele><time>2026-04-11T11:30:11.938Z</time></trkpt><trkpt lat="45.84172942712695" lon="13.709947198149049"><ele>356.4</ele><time>2026-04-11T11:30:12.938Z</time></trkpt><trkpt lat="45.841656245876834" lon="13.710073313513579"><ele>356.0</ele><time>2026-04-11T11:30:13.938Z</time></trkpt><trkpt lat="45.841581576058864" lon="13.710194066724572"><ele>353.8</ele><time>2026-04-11T11:30:14.938Z</time></trkpt><trkpt lat="45.84150824679594" lon="13.71031228632704"><ele>351.6</ele><time>2026-04-11T11:30:15.938Z</time></trkpt><trkpt lat="45.84143447615256" lon="13.710438377311242"><ele>349.4</ele><time>2026-04-11T11:30:16.938Z</time></trkpt><trkpt lat="45.841369656884794" lon="13.710555501379627"><ele>347.2</ele><time>2026-04-11T11:30:17.938Z</time></trkpt><trkpt lat="45.84129789938494" lon="13.710663906044353"><ele>345.0</ele><time>2026-04-11T11:30:18.938Z</time></trkpt><trkpt lat="45.841232484705664" lon="13.710773965881101"><ele>345.0</ele><time>2026-04-11T11:30:19.938Z</time></trkpt><trkpt lat="45.84117413575754" lon="13.710872991472213"><ele>345.0</ele><time>2026-04-11T11:30:20.938Z</time></trkpt><trkpt lat="45.84112167771848" lon="13.710962755438462"><ele>345.0</ele><time>2026-04-11T11:30:21.938Z</time></trkpt><trkpt lat="45.8410647525611" lon="13.711061315884441"><ele>345.0</ele><time>2026-04-11T11:30:22.938Z</time></trkpt><trkpt lat="45.841011018852235" lon="13.711168323535865"><ele>345.0</ele><time>2026-04-11T11:30:23.938Z</time></trkpt><trkpt lat="45.84095484734198" lon="13.711291819281916"><ele>344.2</ele><time>2026-04-11T11:30:24.938Z</time></trkpt><trkpt lat="45.840903069137255" lon="13.711413425415323"><ele>343.4</ele><time>2026-04-11T11:30:25.938Z</time></trkpt><trkpt lat="45.84085397877363" lon="13.711544496247452"><ele>342.6</ele><time>2026-04-11T11:30:26.938Z</time></trkpt><trkpt lat="45.84080142917235" lon="13.711676588119817"><ele>341.8</ele><time>2026-04-11T11:30:27.938Z</time></trkpt><trkpt lat="45.84075470847608" lon="13.71179316135907"><ele>341.0</ele><time>2026-04-11T11:30:28.938Z</time></trkpt><trkpt lat="45.84068899654314" lon="13.711907774171724"><ele>341.0</ele><time>2026-04-11T11:30:29.938Z</time></trkpt><trkpt lat="45.84061569843656" lon="13.7120268700603"><ele>341.0</ele><time>2026-04-11T11:30:30.938Z</time></trkpt><trkpt lat="45.84053331385881" lon="13.712146629638632"><ele>341.0</ele><time>2026-04-11T11:30:31.938Z</time></trkpt><trkpt lat="45.84045184889543" lon="13.712268574731576"><ele>341.0</ele><time>2026-04-11T11:30:32.938Z</time></trkpt><trkpt lat="45.84036771690046" lon="13.712383343519129"><ele>341.0</ele><time>2026-04-11T11:30:33.938Z</time></trkpt><trkpt lat="45.840281739854696" lon="13.712494934223347"><ele>341.0</ele><time>2026-04-11T11:30:34.938Z</time></trkpt><trkpt lat="45.8401959573527" lon="13.71260234421634"><ele>341.0</ele><time>2026-04-11T11:30:35.938Z</time></trkpt><trkpt lat="45.840115581280116" lon="13.712699834297872"><ele>341.0</ele><time>2026-04-11T11:30:36.938Z</time></trkpt><trkpt lat="45.84003907063069" lon="13.712791985191997"><ele>341.0</ele><time>2026-04-11T11:30:37.938Z</time></trkpt><trkpt lat="45.83995712070941" lon="13.712878496755387"><ele>341.20000000000005</ele><time>2026-04-11T11:30:38.94Z</time></trkpt><trkpt lat="45.83988344609346" lon="13.71294279201163"><ele>341.40000000000003</ele><time>2026-04-11T11:30:39.939Z</time></trkpt><trkpt lat="45.8397937939141" lon="13.713011384255617"><ele>341.6</ele><time>2026-04-11T11:30:40.939Z</time></trkpt><trkpt lat="45.83968179310669" lon="13.713068422020937"><ele>341.8</ele><time>2026-04-11T11:30:41.939Z</time></trkpt><trkpt lat="45.8395555298383" lon="13.71313234014058"><ele>342.0</ele><time>2026-04-11T11:30:42.94Z</time></trkpt><trkpt lat="45.839435100544776" lon="13.71319014440755"><ele>342.0</ele><time>2026-04-11T11:30:43.94Z</time></trkpt><trkpt lat="45.839316902439855" lon="13.713233796635105"><ele>342.0</ele><time>2026-04-11T11:30:44.939Z</time></trkpt><trkpt lat="45.83919621408442" lon="13.713273555516917"><ele>342.0</ele><time>2026-04-11T11:30:45.94Z</time></trkpt><trkpt lat="45.83908322582307" lon="13.713307720131885"><ele>342.0</ele><time>2026-04-11T11:30:46.94Z</time></trkpt><trkpt lat="45.83895879117043" lon="13.713341949740343"><ele>340.5</ele><time>2026-04-11T11:30:47.939Z</time></trkpt><trkpt lat="45.83883964352171" lon="13.713368103177896"><ele>339.0</ele><time>2026-04-11T11:30:48.94Z</time></trkpt><trkpt lat="45.838722866099324" lon="13.713383424341632"><ele>337.5</ele><time>2026-04-11T11:30:49.94Z</time></trkpt><trkpt lat="45.83861060395357" lon="13.71341702822198"><ele>336.0</ele><time>2026-04-11T11:30:50.94Z</time></trkpt><trkpt lat="45.83850118422686" lon="13.713432739139513"><ele>335.0</ele><time>2026-04-11T11:30:51.94Z</time></trkpt><trkpt lat="45.838391803500755" lon="13.71343735585297"><ele>334.0</ele><time>2026-04-11T11:30:52.94Z</time></trkpt><trkpt lat="45.838294253734716" lon="13.713454542453066"><ele>333.0</ele><time>2026-04-11T11:30:53.94Z</time></trkpt><trkpt lat="45.83818667080318" lon="13.713473110574407"><ele>332.0</ele><time>2026-04-11T11:30:54.94Z</time></trkpt><trkpt lat="45.83807523647282" lon="13.713490461659825"><ele>331.0</ele><time>2026-04-11T11:30:55.94Z</time></trkpt><trkpt lat="45.83796415247032" lon="13.713504732457926"><ele>331.0</ele><time>2026-04-11T11:30:56.94Z</time></trkpt><trkpt lat="45.83784192113661" lon="13.713513134372157"><ele>331.0</ele><time>2026-04-11T11:30:57.94Z</time></trkpt><trkpt lat="45.83771799238451" lon="13.713520113700891"><ele>331.0</ele><time>2026-04-11T11:30:58.94Z</time></trkpt><trkpt lat="45.83759322152205" lon="13.713553265457072"><ele>331.0</ele><time>2026-04-11T11:30:59.94Z</time></trkpt><trkpt lat="45.8374693414088" lon="13.713565893333973"><ele>332.25</ele><time>2026-04-11T11:31:00.94Z</time></trkpt><trkpt lat="45.83734286901665" lon="13.713606069550728"><ele>333.5</ele><time>2026-04-11T11:31:01.94Z</time></trkpt><trkpt lat="45.83721641370932" lon="13.713664470413978"><ele>334.75</ele><time>2026-04-11T11:31:02.94Z</time></trkpt><trkpt lat="45.83710102749413" lon="13.713727706561887"><ele>336.0</ele><time>2026-04-11T11:31:03.94Z</time></trkpt><trkpt lat="45.836999097424474" lon="13.713811239403078"><ele>336.0</ele><time>2026-04-11T11:31:04.94Z</time></trkpt><trkpt lat="45.836899088821724" lon="13.713890047403506"><ele>336.0</ele><time>2026-04-11T11:31:05.94Z</time></trkpt><trkpt lat="45.83678755763945" lon="13.713981673056077"><ele>336.0</ele><time>2026-04-11T11:31:06.94Z</time></trkpt><trkpt lat="45.83666741964177" lon="13.71407786019094"><ele>336.0</ele><time>2026-04-11T11:31:07.94Z</time></trkpt><trkpt lat="45.83654468924025" lon="13.714168370016539"><ele>335.75</ele><time>2026-04-11T11:31:08.94Z</time></trkpt><trkpt lat="45.83641780706352" lon="13.714274713746441"><ele>335.5</ele><time>2026-04-11T11:31:09.94Z</time></trkpt><trkpt lat="45.836296776593684" lon="13.714389731041738"><ele>335.25</ele><time>2026-04-11T11:31:10.94Z</time></trkpt><trkpt lat="45.836177817102964" lon="13.714466686575216"><ele>335.0</ele><time>2026-04-11T11:31:11.94Z</time></trkpt><trkpt lat="45.8360671803623" lon="13.714557313156634"><ele>335.0</ele><time>2026-04-11T11:31:12.94Z</time></trkpt><trkpt lat="45.83597199590172" lon="13.714641633764543"><ele>335.0</ele><time>2026-04-11T11:31:13.94Z</time></trkpt><trkpt lat="45.83588233748979" lon="13.714753246801386"><ele>335.0</ele><time>2026-04-11T11:31:14.94Z</time></trkpt><trkpt lat="45.83578515342686" lon="13.714857533125624"><ele>335.0</ele><time>2026-04-11T11:31:15.94Z</time></trkpt><trkpt lat="45.83569062679749" lon="13.714983726942014"><ele>334.25</ele><time>2026-04-11T11:31:16.94Z</time></trkpt><trkpt lat="45.835593552528515" lon="13.715130021303569"><ele>333.5</ele><time>2026-04-11T11:31:17.94Z</time></trkpt><trkpt lat="45.83548448925503" lon="13.715258103652285"><ele>332.75</ele><time>2026-04-11T11:31:18.94Z</time></trkpt><trkpt lat="45.83538907147667" lon="13.715373870618553"><ele>332.0</ele><time>2026-04-11T11:31:19.94Z</time></trkpt><trkpt lat="45.83529809809835" lon="13.71550429953877"><ele>331.0</ele><time>2026-04-11T11:31:20.94Z</time></trkpt><trkpt lat="45.835199279206265" lon="13.715625872466694"><ele>330.0</ele><time>2026-04-11T11:31:21.94Z</time></trkpt><trkpt lat="45.835102142498606" lon="13.715743659755047"><ele>329.0</ele><time>2026-04-11T11:31:22.94Z</time></trkpt><trkpt lat="45.83501672469368" lon="13.715858915930385"><ele>328.0</ele><time>2026-04-11T11:31:23.94Z</time></trkpt><trkpt lat="45.83493509539389" lon="13.715978709447937"><ele>327.59999999999997</ele><time>2026-04-11T11:31:24.94Z</time></trkpt><trkpt lat="45.83485845580087" lon="13.716093938755002"><ele>327.2</ele><time>2026-04-11T11:31:25.94Z</time></trkpt><trkpt lat="45.83478043199641" lon="13.716206510125325"><ele>326.8</ele><time>2026-04-11T11:31:26.939Z</time></trkpt><trkpt lat="45.834704955417756" lon="13.716325595765102"><ele>326.4</ele><time>2026-04-11T11:31:27.939Z</time></trkpt><trkpt lat="45.83461798863029" lon="13.716433638671624"><ele>326.0</ele><time>2026-04-11T11:31:28.939Z</time></trkpt><trkpt lat="45.83452699137793" lon="13.716559816336193"><ele>326.0</ele><time>2026-04-11T11:31:29.939Z</time></trkpt><trkpt lat="45.83443526095817" lon="13.716685630845836"><ele>326.0</ele><time>2026-04-11T11:31:30.939Z</time></trkpt><trkpt lat="45.834336685434074" lon="13.716822456241507"><ele>326.0</ele><time>2026-04-11T11:31:31.939Z</time></trkpt><trkpt lat="45.83424842210497" lon="13.71695991014647"><ele>326.0</ele><time>2026-04-11T11:31:32.939Z</time></trkpt><trkpt lat="45.83416508680823" lon="13.717113009930264"><ele>325.75</ele><time>2026-04-11T11:31:33.939Z</time></trkpt><trkpt lat="45.834078997845694" lon="13.717256461979096"><ele>325.5</ele><time>2026-04-11T11:31:34.939Z</time></trkpt><trkpt lat="45.83398857712534" lon="13.717416207668256"><ele>325.25</ele><time>2026-04-11T11:31:35.939Z</time></trkpt><trkpt lat="45.833879759885015" lon="13.717569320985723"><ele>325.0</ele><time>2026-04-11T11:31:36.939Z</time></trkpt><trkpt lat="45.83380395352886" lon="13.71773586072346"><ele>325.5</ele><time>2026-04-11T11:31:37.939Z</time></trkpt><trkpt lat="45.83372002694447" lon="13.717888840247472"><ele>326.0</ele><time>2026-04-11T11:31:38.939Z</time></trkpt><trkpt lat="45.83362390727812" lon="13.718042955164119"><ele>326.5</ele><time>2026-04-11T11:31:39.939Z</time></trkpt><trkpt lat="45.833532009521186" lon="13.718203790527259"><ele>327.0</ele><time>2026-04-11T11:31:40.939Z</time></trkpt><trkpt lat="45.833451191479426" lon="13.718372257398043"><ele>328.75</ele><time>2026-04-11T11:31:41.939Z</time></trkpt><trkpt lat="45.8333655415953" lon="13.718538304488181"><ele>330.5</ele><time>2026-04-11T11:31:42.939Z</time></trkpt><trkpt lat="45.83327265071793" lon="13.718705599604407"><ele>332.25</ele><time>2026-04-11T11:31:43.939Z</time></trkpt><trkpt lat="45.83318381028497" lon="13.718865645989032"><ele>334.0</ele><time>2026-04-11T11:31:44.939Z</time></trkpt><trkpt lat="45.833100712520285" lon="13.719007186095396"><ele>334.0</ele><time>2026-04-11T11:31:45.939Z</time></trkpt><trkpt lat="45.833019458475874" lon="13.719142928705223"><ele>334.0</ele><time>2026-04-11T11:31:46.939Z</time></trkpt><trkpt lat="45.83293655869393" lon="13.71927651255661"><ele>334.0</ele><time>2026-04-11T11:31:47.939Z</time></trkpt><trkpt lat="45.83286804298977" lon="13.719437357403114"><ele>334.0</ele><time>2026-04-11T11:31:48.939Z</time></trkpt><trkpt lat="45.83280545329802" lon="13.719611262212872"><ele>333.5</ele><time>2026-04-11T11:31:49.939Z</time></trkpt><trkpt lat="45.83274414256208" lon="13.719791509953287"><ele>333.0</ele><time>2026-04-11T11:31:50.939Z</time></trkpt><trkpt lat="45.8326829002808" lon="13.719963376345165"><ele>332.5</ele><time>2026-04-11T11:31:51.939Z</time></trkpt><trkpt lat="45.832621091123784" lon="13.720125881411088"><ele>332.0</ele><time>2026-04-11T11:31:52.939Z</time></trkpt><trkpt lat="45.83255976809535" lon="13.72029371733238"><ele>332.0</ele><time>2026-04-11T11:31:53.939Z</time></trkpt><trkpt lat="45.832506506636975" lon="13.720461143269228"><ele>332.0</ele><time>2026-04-11T11:31:54.939Z</time></trkpt><trkpt lat="45.83244480269562" lon="13.720646228625679"><ele>332.0</ele><time>2026-04-11T11:31:55.939Z</time></trkpt><trkpt lat="45.832383964091534" lon="13.720819499270416"><ele>332.0</ele><time>2026-04-11T11:31:56.939Z</time></trkpt><trkpt lat="45.83232998548763" lon="13.720969077367462"><ele>331.0</ele><time>2026-04-11T11:31:57.939Z</time></trkpt><trkpt lat="45.832264743885766" lon="13.721110452718783"><ele>330.0</ele><time>2026-04-11T11:31:58.939Z</time></trkpt><trkpt lat="45.83221028595724" lon="13.721258239904335"><ele>329.0</ele><time>2026-04-11T11:31:59.939Z</time></trkpt><trkpt lat="45.83214999064546" lon="13.721420891117921"><ele>328.0</ele><time>2026-04-11T11:32:00.939Z</time></trkpt><trkpt lat="45.83210049649036" lon="13.721604649741218"><ele>328.0</ele><time>2026-04-11T11:32:01.939Z</time></trkpt><trkpt lat="45.83203781276999" lon="13.72177017173569"><ele>328.0</ele><time>2026-04-11T11:32:02.939Z</time></trkpt><trkpt lat="45.831959686704785" lon="13.721933704410837"><ele>328.0</ele><time>2026-04-11T11:32:03.939Z</time></trkpt><trkpt lat="45.8318912809272" lon="13.722111786794702"><ele>328.0</ele><time>2026-04-11T11:32:04.939Z</time></trkpt><trkpt lat="45.831822437818786" lon="13.722287030096092"><ele>327.75</ele><time>2026-04-11T11:32:05.939Z</time></trkpt><trkpt lat="45.831751864334926" lon="13.72246670051763"><ele>327.5</ele><time>2026-04-11T11:32:06.939Z</time></trkpt><trkpt lat="45.83168662157048" lon="13.722637521342927"><ele>327.25</ele><time>2026-04-11T11:32:07.939Z</time></trkpt><trkpt lat="45.83163600828054" lon="13.722816896867965"><ele>327.0</ele><time>2026-04-11T11:32:08.939Z</time></trkpt><trkpt lat="45.831576588878086" lon="13.722997610311223"><ele>327.0</ele><time>2026-04-11T11:32:09.939Z</time></trkpt><trkpt lat="45.83152291034012" lon="13.723144411445723"><ele>327.0</ele><time>2026-04-11T11:32:10.939Z</time></trkpt><trkpt lat="45.83146699183788" lon="13.723262153027044"><ele>327.0</ele><time>2026-04-11T11:32:11.939Z</time></trkpt><trkpt lat="45.83141651497482" lon="13.72337768163688"><ele>327.0</ele><time>2026-04-11T11:32:12.939Z</time></trkpt><trkpt lat="45.83135552571268" lon="13.723510815539713"><ele>327.0</ele><time>2026-04-11T11:32:13.939Z</time></trkpt><trkpt lat="45.83128536418478" lon="13.723657462955694"><ele>327.20000000000005</ele><time>2026-04-11T11:32:14.939Z</time></trkpt><trkpt lat="45.831237536737945" lon="13.723796850748734"><ele>327.4</ele><time>2026-04-11T11:32:15.939Z</time></trkpt><trkpt lat="45.8311734989401" lon="13.723914557756585"><ele>327.6</ele><time>2026-04-11T11:32:16.939Z</time></trkpt><trkpt lat="45.83110010769999" lon="13.72402810709334"><ele>327.79999999999995</ele><time>2026-04-11T11:32:17.939Z</time></trkpt><trkpt lat="45.83099893825929" lon="13.724137893846372"><ele>328.0</ele><time>2026-04-11T11:32:18.939Z</time></trkpt><trkpt lat="45.83089271971533" lon="13.72426863678065"><ele>328.25</ele><time>2026-04-11T11:32:19.939Z</time></trkpt><trkpt lat="45.830804471718025" lon="13.724404471641023"><ele>328.5</ele><time>2026-04-11T11:32:20.939Z</time></trkpt><trkpt lat="45.8307172120616" lon="13.724528517369135"><ele>328.75</ele><time>2026-04-11T11:32:21.939Z</time></trkpt><trkpt lat="45.83062634667945" lon="13.724656615494006"><ele>329.0</ele><time>2026-04-11T11:32:22.939Z</time></trkpt><trkpt lat="45.830518582705956" lon="13.724777637253652"><ele>329.0</ele><time>2026-04-11T11:32:23.939Z</time></trkpt><trkpt lat="45.830428063844195" lon="13.724902660776467"><ele>329.0</ele><time>2026-04-11T11:32:24.939Z</time></trkpt><trkpt lat="45.83033542587098" lon="13.725030610757099"><ele>329.0</ele><time>2026-04-11T11:32:25.939Z</time></trkpt><trkpt lat="45.830246732799736" lon="13.72515285614503"><ele>329.0</ele><time>2026-04-11T11:32:26.939Z</time></trkpt><trkpt lat="45.8301696989217" lon="13.725278464204148"><ele>328.25</ele><time>2026-04-11T11:32:27.939Z</time></trkpt><trkpt lat="45.83007027725298" lon="13.725393652554773"><ele>327.5</ele><time>2026-04-11T11:32:28.939Z</time></trkpt><trkpt lat="45.82997307870023" lon="13.725501864769738"><ele>326.75</ele><time>2026-04-11T11:32:29.939Z</time></trkpt><trkpt lat="45.82986689214977" lon="13.725575884636152"><ele>326.0</ele><time>2026-04-11T11:32:30.939Z</time></trkpt><trkpt lat="45.82975409060033" lon="13.725668051800596"><ele>326.0</ele><time>2026-04-11T11:32:31.939Z</time></trkpt><trkpt lat="45.829642171350095" lon="13.72575138913827"><ele>326.0</ele><time>2026-04-11T11:32:32.939Z</time></trkpt><trkpt lat="45.82952880246463" lon="13.725818165520295"><ele>326.0</ele><time>2026-04-11T11:32:33.939Z</time></trkpt><trkpt lat="45.82941199857491" lon="13.725876093378165"><ele>326.0</ele><time>2026-04-11T11:32:34.939Z</time></trkpt><trkpt lat="45.82929752535463" lon="13.725927744446237"><ele>324.5</ele><time>2026-04-11T11:32:35.939Z</time></trkpt><trkpt lat="45.82917263333572" lon="13.725981287844656"><ele>323.0</ele><time>2026-04-11T11:32:36.939Z</time></trkpt><trkpt lat="45.829038395579154" lon="13.726035795987945"><ele>321.5</ele><time>2026-04-11T11:32:37.939Z</time></trkpt><trkpt lat="45.828916189024" lon="13.726085507327753"><ele>320.0</ele><time>2026-04-11T11:32:38.939Z</time></trkpt><trkpt lat="45.82878441360201" lon="13.726139184226103"><ele>320.0</ele><time>2026-04-11T11:32:39.939Z</time></trkpt><trkpt lat="45.82864490993394" lon="13.726179012505295"><ele>320.0</ele><time>2026-04-11T11:32:40.939Z</time></trkpt><trkpt lat="45.82850402616824" lon="13.726218781107443"><ele>320.0</ele><time>2026-04-11T11:32:41.939Z</time></trkpt><trkpt lat="45.828360276275646" lon="13.726268387613363"><ele>320.0</ele><time>2026-04-11T11:32:42.939Z</time></trkpt><trkpt lat="45.828216954448294" lon="13.726328382485818"><ele>320.0</ele><time>2026-04-11T11:32:43.938Z</time></trkpt><trkpt lat="45.8280928192263" lon="13.726404953149013"><ele>320.0</ele><time>2026-04-11T11:32:44.939Z</time></trkpt><trkpt lat="45.82796822794794" lon="13.726437317389111"><ele>320.0</ele><time>2026-04-11T11:32:45.939Z</time></trkpt><trkpt lat="45.827854271542186" lon="13.726500586809594"><ele>320.0</ele><time>2026-04-11T11:32:46.939Z</time></trkpt><trkpt lat="45.82773890825875" lon="13.726574858876642"><ele>321.0</ele><time>2026-04-11T11:32:47.939Z</time></trkpt><trkpt lat="45.827629380742344" lon="13.726677664133641"><ele>322.0</ele><time>2026-04-11T11:32:48.939Z</time></trkpt><trkpt lat="45.827530403016326" lon="13.726812151433876"><ele>323.0</ele><time>2026-04-11T11:32:49.939Z</time></trkpt><trkpt lat="45.827434579765075" lon="13.72692273556275"><ele>324.0</ele><time>2026-04-11T11:32:50.939Z</time></trkpt><trkpt lat="45.82735489912293" lon="13.727053184202449"><ele>324.0</ele><time>2026-04-11T11:32:51.939Z</time></trkpt><trkpt lat="45.82727763547394" lon="13.727203449154738"><ele>324.0</ele><time>2026-04-11T11:32:52.939Z</time></trkpt><trkpt lat="45.82718150690581" lon="13.727375245043872"><ele>324.0</ele><time>2026-04-11T11:32:53.939Z</time></trkpt><trkpt lat="45.82708436321344" lon="13.727536504072784"><ele>324.0</ele><time>2026-04-11T11:32:54.939Z</time></trkpt><trkpt lat="45.82701929174438" lon="13.727650630804773"><ele>323.6</ele><time>2026-04-11T11:32:55.939Z</time></trkpt><trkpt lat="45.82697227106469" lon="13.72776934179384"><ele>323.2</ele><time>2026-04-11T11:32:56.939Z</time></trkpt><trkpt lat="45.82691803162442" lon="13.727855340642314"><ele>322.8</ele><time>2026-04-11T11:32:57.939Z</time></trkpt><trkpt lat="45.82686496655566" lon="13.727941152080433"><ele>322.40000000000003</ele><time>2026-04-11T11:32:58.939Z</time></trkpt><trkpt lat="45.82679317721611" lon="13.72803731279509"><ele>322.0</ele><time>2026-04-11T11:32:59.939Z</time></trkpt><trkpt lat="45.826708275734454" lon="13.728148752235409"><ele>321.75</ele><time>2026-04-11T11:33:00.939Z</time></trkpt><trkpt lat="45.826621626592114" lon="13.728284961446652"><ele>321.5</ele><time>2026-04-11T11:33:01.939Z</time></trkpt><trkpt lat="45.8265475201322" lon="13.728448152370454"><ele>321.25</ele><time>2026-04-11T11:33:02.939Z</time></trkpt><trkpt lat="45.826486911153346" lon="13.728619067688928"><ele>321.0</ele><time>2026-04-11T11:33:03.939Z</time></trkpt><trkpt lat="45.826408881963324" lon="13.728745695580875"><ele>321.0</ele><time>2026-04-11T11:33:04.939Z</time></trkpt><trkpt lat="45.82632393892131" lon="13.728860384698713"><ele>321.0</ele><time>2026-04-11T11:33:05.939Z</time></trkpt><trkpt lat="45.82622925321493" lon="13.728987085712735"><ele>321.0</ele><time>2026-04-11T11:33:06.939Z</time></trkpt><trkpt lat="45.82612272512748" lon="13.729101884821631"><ele>321.0</ele><time>2026-04-11T11:33:07.939Z</time></trkpt><trkpt lat="45.82601508475498" lon="13.72921809179175"><ele>320.25</ele><time>2026-04-11T11:33:08.939Z</time></trkpt><trkpt lat="45.82590691567353" lon="13.729326309540118"><ele>319.5</ele><time>2026-04-11T11:33:09.939Z</time></trkpt><trkpt lat="45.82580378215817" lon="13.729438727411221"><ele>318.75</ele><time>2026-04-11T11:33:10.938Z</time></trkpt><trkpt lat="45.825713487188956" lon="13.729562302271484"><ele>318.0</ele><time>2026-04-11T11:33:11.938Z</time></trkpt><trkpt lat="45.82562796407337" lon="13.729654497708447"><ele>318.0</ele><time>2026-04-11T11:33:12.938Z</time></trkpt><trkpt lat="45.825549870952855" lon="13.729726908591655"><ele>318.0</ele><time>2026-04-11T11:33:13.938Z</time></trkpt><trkpt lat="45.82547244881136" lon="13.729820512652783"><ele>318.0</ele><time>2026-04-11T11:33:14.938Z</time></trkpt><trkpt lat="45.82539185143134" lon="13.729918577858273"><ele>318.0</ele><time>2026-04-11T11:33:15.938Z</time></trkpt><trkpt lat="45.82531263964862" lon="13.730018298313716"><ele>318.0</ele><time>2026-04-11T11:33:16.938Z</time></trkpt><trkpt lat="45.82524452773244" lon="13.73014039867507"><ele>317.2</ele><time>2026-04-11T11:33:17.938Z</time></trkpt><trkpt lat="45.82516747045422" lon="13.730255881076639"><ele>316.4</ele><time>2026-04-11T11:33:18.938Z</time></trkpt><trkpt lat="45.82509620232072" lon="13.730359762510384"><ele>315.59999999999997</ele><time>2026-04-11T11:33:19.938Z</time></trkpt><trkpt lat="45.82501681561514" lon="13.730462331860009"><ele>314.8</ele><time>2026-04-11T11:33:20.938Z</time></trkpt><trkpt lat="45.824950611977755" lon="13.73055837119642"><ele>314.0</ele><time>2026-04-11T11:33:21.938Z</time></trkpt><trkpt lat="45.82487726952819" lon="13.730640368042554"><ele>314.0</ele><time>2026-04-11T11:33:22.938Z</time></trkpt><trkpt lat="45.82481867994228" lon="13.730743733367635"><ele>314.0</ele><time>2026-04-11T11:33:23.938Z</time></trkpt><trkpt lat="45.8247625071484" lon="13.73083381968928"><ele>314.0</ele><time>2026-04-11T11:33:24.938Z</time></trkpt><trkpt lat="45.824703162038716" lon="13.730909186186576"><ele>314.0</ele><time>2026-04-11T11:33:25.938Z</time></trkpt><trkpt lat="45.82464529360491" lon="13.73098190006285"><ele>314.0</ele><time>2026-04-11T11:33:26.938Z</time></trkpt><trkpt lat="45.824595497556736" lon="13.731044938172818"><ele>314.0</ele><time>2026-04-11T11:33:27.938Z</time></trkpt><trkpt lat="45.82450066909041" lon="13.731135547319454"><ele>313.59999999999997</ele><time>2026-04-11T11:33:29.938Z</time></trkpt><trkpt lat="45.82440297046536" lon="13.731108159262387"><ele>313.2</ele><time>2026-04-11T11:33:31.938Z</time></trkpt><trkpt lat="45.82433935848337" lon="13.731062580856673"><ele>312.79999999999995</ele><time>2026-04-11T11:33:32.938Z</time></trkpt><trkpt lat="45.824276834742044" lon="13.730964717700312"><ele>312.4</ele><time>2026-04-11T11:33:33.938Z</time></trkpt><trkpt lat="45.82420534686273" lon="13.730852009192159"><ele>312.0</ele><time>2026-04-11T11:33:34.938Z</time></trkpt><trkpt lat="45.82414256221419" lon="13.73071620286913"><ele>312.0</ele><time>2026-04-11T11:33:35.938Z</time></trkpt><trkpt lat="45.8240600699547" lon="13.730578283676033"><ele>312.0</ele><time>2026-04-11T11:33:36.938Z</time></trkpt><trkpt lat="45.82397635282961" lon="13.730416439783225"><ele>312.0</ele><time>2026-04-11T11:33:37.938Z</time></trkpt><trkpt lat="45.823874949465996" lon="13.730255580752578"><ele>312.0</ele><time>2026-04-11T11:33:38.938Z</time></trkpt><trkpt lat="45.82377219617972" lon="13.730118418048203"><ele>312.0</ele><time>2026-04-11T11:33:39.938Z</time></trkpt><trkpt lat="45.82367725719135" lon="13.730025291262882"><ele>312.0</ele><time>2026-04-11T11:33:40.938Z</time></trkpt><trkpt lat="45.82359002580802" lon="13.729922117059246"><ele>312.0</ele><time>2026-04-11T11:33:41.938Z</time></trkpt><trkpt lat="45.82351329419667" lon="13.729819278469671"><ele>312.0</ele><time>2026-04-11T11:33:42.938Z</time></trkpt><trkpt lat="45.82344157100785" lon="13.729693972729303"><ele>312.0</ele><time>2026-04-11T11:33:43.938Z</time></trkpt><trkpt lat="45.823374003643394" lon="13.729560963966204"><ele>312.0</ele><time>2026-04-11T11:33:44.938Z</time></trkpt><trkpt lat="45.82332098828282" lon="13.729401534462983"><ele>312.0</ele><time>2026-04-11T11:33:45.938Z</time></trkpt><trkpt lat="45.82323533952798" lon="13.72926928470465"><ele>312.0</ele><time>2026-04-11T11:33:46.938Z</time></trkpt><trkpt lat="45.823147630469165" lon="13.729139880035678"><ele>312.0</ele><time>2026-04-11T11:33:47.938Z</time></trkpt><trkpt lat="45.82307451385521" lon="13.729026963784902"><ele>312.25</ele><time>2026-04-11T11:33:48.938Z</time></trkpt><trkpt lat="45.82301101263732" lon="13.728905865248368"><ele>312.5</ele><time>2026-04-11T11:33:49.938Z</time></trkpt><trkpt lat="45.82296871120476" lon="13.728788939919708"><ele>312.75</ele><time>2026-04-11T11:33:50.938Z</time></trkpt><trkpt lat="45.822938445111824" lon="13.72869165120172"><ele>313.0</ele><time>2026-04-11T11:33:51.938Z</time></trkpt><trkpt lat="45.8227478495673" lon="13.728851701513317"><ele>313.0</ele><time>2026-04-11T11:33:58.939Z</time></trkpt><trkpt lat="45.822669672269924" lon="13.728870657785063"><ele>313.0</ele><time>2026-04-11T11:33:59.939Z</time></trkpt><trkpt lat="45.82260102635197" lon="13.72885445496483"><ele>313.0</ele><time>2026-04-11T11:34:00.939Z</time></trkpt><trkpt lat="45.822539758392246" lon="13.728912638226882"><ele>313.0</ele><time>2026-04-11T11:34:01.939Z</time></trkpt><trkpt lat="45.82246779463685" lon="13.72898294678693"><ele>313.0</ele><time>2026-04-11T11:34:02.939Z</time></trkpt><trkpt lat="45.822538879663405" lon="13.72942465001971"><ele>311.8333333333333</ele><time>2026-04-11T11:34:03.939Z</time></trkpt><trkpt lat="45.82247781502439" lon="13.72954098707331"><ele>310.66666666666663</ele><time>2026-04-11T11:34:04.939Z</time></trkpt><trkpt lat="45.82242893229365" lon="13.729660294561796"><ele>309.5</ele><time>2026-04-11T11:34:05.939Z</time></trkpt><trkpt lat="45.82238269990481" lon="13.72974785669137"><ele>308.3333333333333</ele><time>2026-04-11T11:34:06.94Z</time></trkpt><trkpt lat="45.82232943745551" lon="13.729826701259697"><ele>307.1666666666667</ele><time>2026-04-11T11:34:07.94Z</time></trkpt><trkpt lat="45.822283746562654" lon="13.729926707460011"><ele>306.0</ele><time>2026-04-11T11:34:08.94Z</time></trkpt><trkpt lat="45.822212738294944" lon="13.730027162517219"><ele>306.0</ele><time>2026-04-11T11:34:09.94Z</time></trkpt><trkpt lat="45.822148153764054" lon="13.730141543621233"><ele>306.0</ele><time>2026-04-11T11:34:10.94Z</time></trkpt><trkpt lat="45.82208997201479" lon="13.730246799414394"><ele>306.0</ele><time>2026-04-11T11:34:11.94Z</time></trkpt><trkpt lat="45.82203051831597" lon="13.730358653743993"><ele>306.0</ele><time>2026-04-11T11:34:12.94Z</time></trkpt><trkpt lat="45.821979849808955" lon="13.730485225705278"><ele>306.0</ele><time>2026-04-11T11:34:13.94Z</time></trkpt><trkpt lat="45.82192778868486" lon="13.730594077366364"><ele>305.8333333333333</ele><time>2026-04-11T11:34:14.94Z</time></trkpt><trkpt lat="45.821886502454724" lon="13.730700099502727"><ele>305.6666666666667</ele><time>2026-04-11T11:34:15.94Z</time></trkpt><trkpt lat="45.821850973504226" lon="13.73079738124791"><ele>305.5</ele><time>2026-04-11T11:34:16.94Z</time></trkpt><trkpt lat="45.821804288322674" lon="13.730902281005942"><ele>305.33333333333337</ele><time>2026-04-11T11:34:17.94Z</time></trkpt><trkpt lat="45.821758341781575" lon="13.730998476906105"><ele>305.1666666666667</ele><time>2026-04-11T11:34:18.94Z</time></trkpt><trkpt lat="45.821726422407906" lon="13.731096991658884"><ele>305.0</ele><time>2026-04-11T11:34:19.94Z</time></trkpt><trkpt lat="45.82170236002562" lon="13.731203080290646"><ele>304.33333333333337</ele><time>2026-04-11T11:34:20.94Z</time></trkpt><trkpt lat="45.8216781751941" lon="13.73131572197672"><ele>303.6666666666667</ele><time>2026-04-11T11:34:21.94Z</time></trkpt><trkpt lat="45.82165247576838" lon="13.731418189476654"><ele>303.0</ele><time>2026-04-11T11:34:22.94Z</time></trkpt><trkpt lat="45.82161006303588" lon="13.73155749563282"><ele>302.3333333333333</ele><time>2026-04-11T11:34:23.94Z</time></trkpt><trkpt lat="45.821574686287" lon="13.731678216533854"><ele>301.66666666666663</ele><time>2026-04-11T11:34:24.94Z</time></trkpt><trkpt lat="45.82153881683393" lon="13.731800865903448"><ele>301.0</ele><time>2026-04-11T11:34:25.94Z</time></trkpt><trkpt lat="45.82151265869799" lon="13.731914235932486"><ele>301.0</ele><time>2026-04-11T11:34:26.94Z</time></trkpt><trkpt lat="45.82148397629732" lon="13.73204577628616"><ele>301.0</ele><time>2026-04-11T11:34:27.94Z</time></trkpt><trkpt lat="45.82145949252889" lon="13.73217292591502"><ele>301.0</ele><time>2026-04-11T11:34:28.94Z</time></trkpt><trkpt lat="45.82143431143941" lon="13.732291236177657"><ele>301.0</ele><time>2026-04-11T11:34:29.94Z</time></trkpt><trkpt lat="45.82140952611905" lon="13.73239086584863"><ele>301.0</ele><time>2026-04-11T11:34:30.94Z</time></trkpt><trkpt lat="45.82137598423171" lon="13.732472143208689"><ele>301.0</ele><time>2026-04-11T11:34:31.94Z</time></trkpt><trkpt lat="45.82128195647875" lon="13.732568889716402"><ele>301.0</ele><time>2026-04-11T11:34:33.94Z</time></trkpt><trkpt lat="45.821212590422654" lon="13.732597512219652"><ele>301.0</ele><time>2026-04-11T11:34:34.94Z</time></trkpt><trkpt lat="45.82115248512539" lon="13.73264317440503"><ele>301.0</ele><time>2026-04-11T11:34:35.94Z</time></trkpt><trkpt lat="45.821097067086335" lon="13.732713915600788"><ele>301.0</ele><time>2026-04-11T11:34:36.94Z</time></trkpt><trkpt lat="45.82104430256286" lon="13.732812244742613"><ele>301.0</ele><time>2026-04-11T11:34:37.94Z</time></trkpt><trkpt lat="45.820986620543046" lon="13.732901698546154"><ele>301.0</ele><time>2026-04-11T11:34:38.94Z</time></trkpt><trkpt lat="45.82093639560909" lon="13.732993884035158"><ele>299.2</ele><time>2026-04-11T11:34:39.94Z</time></trkpt><trkpt lat="45.82089120404553" lon="13.733083111950709"><ele>297.40000000000003</ele><time>2026-04-11T11:34:40.94Z</time></trkpt><trkpt lat="45.820842711280626" lon="13.733140833936877"><ele>295.6</ele><time>2026-04-11T11:34:41.94Z</time></trkpt><trkpt lat="45.82076384291862" lon="13.733269593759987"><ele>293.8</ele><time>2026-04-11T11:34:43.94Z</time></trkpt><trkpt lat="45.820690721982054" lon="13.733377792189746"><ele>292.0</ele><time>2026-04-11T11:34:45.94Z</time></trkpt><trkpt lat="45.82061737412277" lon="13.733501867167796"><ele>292.5</ele><time>2026-04-11T11:34:47.94Z</time></trkpt><trkpt lat="45.82057680760029" lon="13.733578861878625"><ele>293.0</ele><time>2026-04-11T11:34:48.94Z</time></trkpt><trkpt lat="45.82052162207056" lon="13.733676223365116"><ele>293.5</ele><time>2026-04-11T11:34:49.94Z</time></trkpt><trkpt lat="45.82045716868661" lon="13.73378979524837"><ele>294.0</ele><time>2026-04-11T11:34:50.941Z</time></trkpt><trkpt lat="45.820402349504384" lon="13.733880202309294"><ele>294.5</ele><time>2026-04-11T11:34:51.941Z</time></trkpt><trkpt lat="45.82034892401416" lon="13.733970972346123"><ele>295.0</ele><time>2026-04-11T11:34:52.941Z</time></trkpt><trkpt lat="45.82030476666663" lon="13.734074931768497"><ele>295.0</ele><time>2026-04-11T11:34:53.942Z</time></trkpt><trkpt lat="45.82025962567502" lon="13.734188766335206"><ele>295.0</ele><time>2026-04-11T11:34:54.941Z</time></trkpt><trkpt lat="45.820216785790215" lon="13.734304235292123"><ele>295.0</ele><time>2026-04-11T11:34:55.941Z</time></trkpt><trkpt lat="45.82018253647848" lon="13.734411628424121"><ele>295.0</ele><time>2026-04-11T11:34:56.941Z</time></trkpt><trkpt lat="45.820145512934985" lon="13.734517873851722"><ele>295.0</ele><time>2026-04-11T11:34:57.941Z</time></trkpt><trkpt lat="45.82009402249558" lon="13.73461799657694"><ele>295.0</ele><time>2026-04-11T11:34:58.941Z</time></trkpt><trkpt lat="45.82003126842179" lon="13.73469609935037"><ele>295.0</ele><time>2026-04-11T11:34:59.941Z</time></trkpt><trkpt lat="45.81995628588003" lon="13.734789513423387"><ele>295.0</ele><time>2026-04-11T11:35:00.941Z</time></trkpt><trkpt lat="45.81987342775054" lon="13.734887814766978"><ele>295.0</ele><time>2026-04-11T11:35:01.941Z</time></trkpt><trkpt lat="45.819796272253186" lon="13.734995959740802"><ele>295.0</ele><time>2026-04-11T11:35:02.942Z</time></trkpt><trkpt lat="45.819728680261385" lon="13.735096587337974"><ele>295.0</ele><time>2026-04-11T11:35:03.942Z</time></trkpt><trkpt lat="45.819676834758376" lon="13.735189436558949"><ele>294.66666666666663</ele><time>2026-04-11T11:35:04.942Z</time></trkpt><trkpt lat="45.81962650085862" lon="13.73526332911753"><ele>294.3333333333333</ele><time>2026-04-11T11:35:05.942Z</time></trkpt><trkpt lat="45.8195737766476" lon="13.73531794769395"><ele>294.0</ele><time>2026-04-11T11:35:06.941Z</time></trkpt><trkpt lat="45.81945766302837" lon="13.735378114026012"><ele>293.6666666666667</ele><time>2026-04-11T11:35:08.941Z</time></trkpt><trkpt lat="45.81939145664572" lon="13.73540707530356"><ele>293.33333333333337</ele><time>2026-04-11T11:35:09.941Z</time></trkpt><trkpt lat="45.81932436130894" lon="13.735439918102673"><ele>293.0</ele><time>2026-04-11T11:35:10.941Z</time></trkpt><trkpt lat="45.81924086475581" lon="13.73547292434835"><ele>292.6</ele><time>2026-04-11T11:35:12.941Z</time></trkpt><trkpt lat="45.81914015773966" lon="13.735445536115108"><ele>292.20000000000005</ele><time>2026-04-11T11:35:14.941Z</time></trkpt><trkpt lat="45.81907875060211" lon="13.735411987607565"><ele>291.8</ele><time>2026-04-11T11:35:15.941Z</time></trkpt><trkpt lat="45.81898916330512" lon="13.735413516181337"><ele>291.40000000000003</ele><time>2026-04-11T11:35:17.941Z</time></trkpt><trkpt lat="45.818910388862044" lon="13.735534931488921"><ele>291.0</ele><time>2026-04-11T11:35:19.941Z</time></trkpt><trkpt lat="45.818874463958025" lon="13.735634046427357"><ele>291.0</ele><time>2026-04-11T11:35:20.941Z</time></trkpt><trkpt lat="45.818817211565786" lon="13.735731492113405"><ele>291.0</ele><time>2026-04-11T11:35:21.941Z</time></trkpt><trkpt lat="45.81875435282442" lon="13.735855740200494"><ele>291.0</ele><time>2026-04-11T11:35:22.941Z</time></trkpt><trkpt lat="45.818696686488664" lon="13.735982433375264"><ele>291.0</ele><time>2026-04-11T11:35:23.941Z</time></trkpt><trkpt lat="45.81864920489425" lon="13.736110447592013"><ele>291.0</ele><time>2026-04-11T11:35:24.941Z</time></trkpt><trkpt lat="45.818616787594785" lon="13.736242316470697"><ele>291.0</ele><time>2026-04-11T11:35:25.941Z</time></trkpt><trkpt lat="45.818583305713815" lon="13.736368678926658"><ele>291.0</ele><time>2026-04-11T11:35:26.941Z</time></trkpt><trkpt lat="45.81852887173855" lon="13.736498916075856"><ele>291.0</ele><time>2026-04-11T11:35:27.941Z</time></trkpt><trkpt lat="45.818462273807796" lon="13.736629254199947"><ele>291.0</ele><time>2026-04-11T11:35:28.941Z</time></trkpt><trkpt lat="45.81840096820323" lon="13.736757799708347"><ele>291.0</ele><time>2026-04-11T11:35:29.941Z</time></trkpt><trkpt lat="45.81833922329097" lon="13.736896524119034"><ele>289.75</ele><time>2026-04-11T11:35:30.941Z</time></trkpt><trkpt lat="45.81826508607083" lon="13.737031230384405"><ele>288.5</ele><time>2026-04-11T11:35:31.941Z</time></trkpt><trkpt lat="45.81818532732957" lon="13.73718508245034"><ele>287.25</ele><time>2026-04-11T11:35:32.941Z</time></trkpt><trkpt lat="45.81811198960189" lon="13.737334280281141"><ele>286.0</ele><time>2026-04-11T11:35:33.941Z</time></trkpt><trkpt lat="45.81804198743867" lon="13.737455673593864"><ele>286.0</ele><time>2026-04-11T11:35:34.941Z</time></trkpt><trkpt lat="45.81797817912995" lon="13.737569393979316"><ele>286.0</ele><time>2026-04-11T11:35:35.941Z</time></trkpt><trkpt lat="45.81792077796578" lon="13.737671352211299"><ele>286.0</ele><time>2026-04-11T11:35:36.941Z</time></trkpt><trkpt lat="45.81787416113176" lon="13.737749565306363"><ele>286.0</ele><time>2026-04-11T11:35:37.941Z</time></trkpt><trkpt lat="45.81774775359369" lon="13.737758935966397"><ele>286.0</ele><time>2026-04-11T11:35:38.941Z</time></trkpt><trkpt lat="45.81770968767218" lon="13.7378877215466"><ele>285.40000000000003</ele><time>2026-04-11T11:35:40.941Z</time></trkpt><trkpt lat="45.81767777321379" lon="13.737966048723885"><ele>284.8</ele><time>2026-04-11T11:35:41.941Z</time></trkpt><trkpt lat="45.817625052028895" lon="13.738083603704565"><ele>284.20000000000005</ele><time>2026-04-11T11:35:42.941Z</time></trkpt><trkpt lat="45.81754751890665" lon="13.738214142932796"><ele>283.6</ele><time>2026-04-11T11:35:43.941Z</time></trkpt><trkpt lat="45.81746998396157" lon="13.738342215559776"><ele>283.0</ele><time>2026-04-11T11:35:44.941Z</time></trkpt><trkpt lat="45.81740385785567" lon="13.738481848814581"><ele>282.75</ele><time>2026-04-11T11:35:45.941Z</time></trkpt><trkpt lat="45.81737989018515" lon="13.738655632782454"><ele>282.5</ele><time>2026-04-11T11:35:46.941Z</time></trkpt><trkpt lat="45.81738194531964" lon="13.738836030235065"><ele>282.25</ele><time>2026-04-11T11:35:47.941Z</time></trkpt><trkpt lat="45.81739524246154" lon="13.739043694511405"><ele>282.0</ele><time>2026-04-11T11:35:48.941Z</time></trkpt><trkpt lat="45.817422283050114" lon="13.739265054348651"><ele>282.3333333333333</ele><time>2026-04-11T11:35:49.941Z</time></trkpt><trkpt lat="45.81746736738245" lon="13.7394783728516"><ele>282.66666666666663</ele><time>2026-04-11T11:35:50.941Z</time></trkpt><trkpt lat="45.817505827644375" lon="13.739700005420753"><ele>283.0</ele><time>2026-04-11T11:35:51.941Z</time></trkpt><trkpt lat="45.817542785357524" lon="13.739927197599167"><ele>283.0</ele><time>2026-04-11T11:35:52.941Z</time></trkpt><trkpt lat="45.81759228447722" lon="13.740161383552591"><ele>283.0</ele><time>2026-04-11T11:35:53.941Z</time></trkpt><trkpt lat="45.817659135744236" lon="13.74039414627486"><ele>283.0</ele><time>2026-04-11T11:35:54.941Z</time></trkpt><trkpt lat="45.81773376483904" lon="13.74061261303828"><ele>284.5</ele><time>2026-04-11T11:35:55.941Z</time></trkpt><trkpt lat="45.817801769017024" lon="13.740808548959146"><ele>286.0</ele><time>2026-04-11T11:35:56.941Z</time></trkpt><trkpt lat="45.81784312985723" lon="13.741014119456093"><ele>287.5</ele><time>2026-04-11T11:35:57.941Z</time></trkpt><trkpt lat="45.81785324212428" lon="13.741216751354502"><ele>289.0</ele><time>2026-04-11T11:35:58.941Z</time></trkpt><trkpt lat="45.81784085864548" lon="13.741407370712206"><ele>289.5</ele><time>2026-04-11T11:35:59.941Z</time></trkpt><trkpt lat="45.81781519267789" lon="13.741584980466959"><ele>290.0</ele><time>2026-04-11T11:36:00.941Z</time></trkpt><trkpt lat="45.81779757479986" lon="13.741757286304546"><ele>290.5</ele><time>2026-04-11T11:36:01.941Z</time></trkpt><trkpt lat="45.817793501226355" lon="13.741928080418724"><ele>291.0</ele><time>2026-04-11T11:36:02.941Z</time></trkpt><trkpt lat="45.81780325135164" lon="13.742087275642746"><ele>291.2</ele><time>2026-04-11T11:36:03.941Z</time></trkpt><trkpt lat="45.817835291887384" lon="13.742259792022555"><ele>291.40000000000003</ele><time>2026-04-11T11:36:04.941Z</time></trkpt><trkpt lat="45.81787071399633" lon="13.74242071268187"><ele>291.6</ele><time>2026-04-11T11:36:05.941Z</time></trkpt><trkpt lat="45.8178921874394" lon="13.742564346571239"><ele>291.8</ele><time>2026-04-11T11:36:06.941Z</time></trkpt><trkpt lat="45.81789180940627" lon="13.742697918255425"><ele>292.0</ele><time>2026-04-11T11:36:07.941Z</time></trkpt><trkpt lat="45.817823669220154" lon="13.742808803507252"><ele>292.4</ele><time>2026-04-11T11:36:08.941Z</time></trkpt><trkpt lat="45.81777920592891" lon="13.74292505654505"><ele>292.79999999999995</ele><time>2026-04-11T11:36:09.941Z</time></trkpt><trkpt lat="45.81774348267233" lon="13.743045181946107"><ele>293.2</ele><time>2026-04-11T11:36:10.941Z</time></trkpt><trkpt lat="45.81770037939985" lon="13.743186598526897"><ele>293.59999999999997</ele><time>2026-04-11T11:36:11.941Z</time></trkpt><trkpt lat="45.817662095135866" lon="13.743334598726834"><ele>294.0</ele><time>2026-04-11T11:36:12.941Z</time></trkpt><trkpt lat="45.81759638893751" lon="13.743493875764004"><ele>292.5</ele><time>2026-04-11T11:36:13.941Z</time></trkpt><trkpt lat="45.81755625164944" lon="13.743651209568947"><ele>291.0</ele><time>2026-04-11T11:36:14.941Z</time></trkpt><trkpt lat="45.81752791533289" lon="13.743813843938478"><ele>289.5</ele><time>2026-04-11T11:36:15.941Z</time></trkpt><trkpt lat="45.81750029239028" lon="13.74398908672982"><ele>288.0</ele><time>2026-04-11T11:36:16.941Z</time></trkpt><trkpt lat="45.81747035413923" lon="13.744154506924227"><ele>288.0</ele><time>2026-04-11T11:36:17.941Z</time></trkpt><trkpt lat="45.817439924597515" lon="13.74432073776764"><ele>288.0</ele><time>2026-04-11T11:36:18.941Z</time></trkpt><trkpt lat="45.81738283274454" lon="13.744463030112527"><ele>288.0</ele><time>2026-04-11T11:36:19.941Z</time></trkpt><trkpt lat="45.81729171560854" lon="13.744546397413218"><ele>288.0</ele><time>2026-04-11T11:36:20.941Z</time></trkpt><trkpt lat="45.81720146098942" lon="13.744579266124443"><ele>288.0</ele><time>2026-04-11T11:36:21.941Z</time></trkpt><trkpt lat="45.81710735264886" lon="13.744623311017547"><ele>288.4</ele><time>2026-04-11T11:36:22.94Z</time></trkpt><trkpt lat="45.81702523288425" lon="13.744662782536901"><ele>288.8</ele><time>2026-04-11T11:36:23.94Z</time></trkpt><trkpt lat="45.81695920126247" lon="13.744729091116149"><ele>289.2</ele><time>2026-04-11T11:36:24.94Z</time></trkpt><trkpt lat="45.81684750274081" lon="13.744785038675943"><ele>289.6</ele><time>2026-04-11T11:36:26.94Z</time></trkpt><trkpt lat="45.816756433754726" lon="13.744798647452876"><ele>290.0</ele><time>2026-04-11T11:36:28.94Z</time></trkpt><trkpt lat="45.81668218643087" lon="13.744816513133781"><ele>288.6666666666667</ele><time>2026-04-11T11:36:30.94Z</time></trkpt><trkpt lat="45.81660272982315" lon="13.744838136270237"><ele>287.33333333333337</ele><time>2026-04-11T11:36:33.94Z</time></trkpt><trkpt lat="45.816579935340435" lon="13.744929726085754"><ele>286.0</ele><time>2026-04-11T11:36:35.94Z</time></trkpt><trkpt lat="45.816579466924274" lon="13.745064019957034"><ele>284.6666666666667</ele><time>2026-04-11T11:36:37.94Z</time></trkpt><trkpt lat="45.81659702021281" lon="13.745183336011173"><ele>283.3333333333333</ele><time>2026-04-11T11:36:39.94Z</time></trkpt><trkpt lat="45.8166099221263" lon="13.745296170458879"><ele>282.0</ele><time>2026-04-11T11:36:41.94Z</time></trkpt><trkpt lat="45.816632869050245" lon="13.74540450203343"><ele>282.0</ele><time>2026-04-11T11:36:46.94Z</time></trkpt><trkpt lat="45.81668804175377" lon="13.74544879080751"><ele>282.0</ele><time>2026-04-11T11:37:16.941Z</time></trkpt><trkpt lat="45.816741341043084" lon="13.745515938274055"><ele>282.0</ele><time>2026-04-11T11:37:18.941Z</time></trkpt><trkpt lat="45.81680424116613" lon="13.745648707735343"><ele>282.0</ele><time>2026-04-11T11:37:20.941Z</time></trkpt><trkpt lat="45.81685441136218" lon="13.745711813043224"><ele>282.0</ele><time>2026-04-11T11:37:23.941Z</time></trkpt><trkpt lat="45.81683435949498" lon="13.745537958939765"><ele>282.0</ele><time>2026-04-11T11:38:32.94Z</time></trkpt><trkpt lat="45.81681793944149" lon="13.745636509071495"><ele>282.0</ele><time>2026-04-11T11:41:15.941Z</time></trkpt><trkpt lat="45.816827063945944" lon="13.745392722869138"><ele>282.0</ele><time>2026-04-11T11:42:28.941Z</time></trkpt><trkpt lat="45.81676217649294" lon="13.745386548662431"><ele>282.0</ele><time>2026-04-11T11:42:37.941Z</time></trkpt><trkpt lat="45.81674125550866" lon="13.745499750256073"><ele>282.0</ele><time>2026-04-11T11:43:32.942Z</time></trkpt><trkpt lat="45.816706463384456" lon="13.745576709134246"><ele>282.0</ele><time>2026-04-11T11:56:08.948Z</time></trkpt><trkpt lat="45.81672260011614" lon="13.745667519235143"><ele>282.0</ele><time>2026-04-11T11:56:53.948Z</time></trkpt><trkpt lat="45.81677499107116" lon="13.745576237171269"><ele>282.0</ele><time>2026-04-11T12:00:11.949Z</time></trkpt><trkpt lat="45.816711525724905" lon="13.745634515844822"><ele>282.0</ele><time>2026-04-11T12:00:59.949Z</time></trkpt><trkpt lat="45.81667912050594" lon="13.74571665916108"><ele>282.0</ele><time>2026-04-11T12:01:18.949Z</time></trkpt><trkpt lat="45.816701319910436" lon="13.745629943455821"><ele>282.0</ele><time>2026-04-11T12:01:30.949Z</time></trkpt><trkpt lat="45.816714739169235" lon="13.745508834374615"><ele>282.0</ele><time>2026-04-11T12:05:07.95Z</time></trkpt><trkpt lat="45.81670467837934" lon="13.745414521262639"><ele>282.0</ele><time>2026-04-11T12:05:51.95Z</time></trkpt><trkpt lat="45.816647105016294" lon="13.745375185144614"><ele>282.0</ele><time>2026-04-11T12:06:00.95Z</time></trkpt><trkpt lat="45.816713417565374" lon="13.745444971588642"><ele>282.0</ele><time>2026-04-11T12:06:14.949Z</time></trkpt><trkpt lat="45.816739544972975" lon="13.745656581177014"><ele>282.0</ele><time>2026-04-11T12:06:46.951Z</time></trkpt><trkpt lat="45.816696699705865" lon="13.745589941036533"><ele>282.0</ele><time>2026-04-11T12:07:36.951Z</time></trkpt><trkpt lat="45.81664044140821" lon="13.745535729503224"><ele>282.0</ele><time>2026-04-11T12:07:42.951Z</time></trkpt><trkpt lat="45.816797828551564" lon="13.745413978253396"><ele>282.0</ele><time>2026-04-11T12:08:17.674Z</time></trkpt><trkpt lat="45.816739521067966" lon="13.745481256309416"><ele>282.0</ele><time>2026-04-11T12:08:28.952Z</time></trkpt><trkpt lat="45.81679489077231" lon="13.74555723829579"><ele>282.0</ele><time>2026-04-11T12:08:31.953Z</time></trkpt><trkpt lat="45.81688352521377" lon="13.74560031295123"><ele>282.0</ele><time>2026-04-11T12:08:40.953Z</time></trkpt><trkpt lat="45.81695291940648" lon="13.745643247366068"><ele>282.0</ele><time>2026-04-11T12:11:02.953Z</time></trkpt><trkpt lat="45.81688902565404" lon="13.745531228187392"><ele>282.0</ele><time>2026-04-11T12:11:07.953Z</time></trkpt><trkpt lat="45.81687640257743" lon="13.745434831747666"><ele>282.0</ele><time>2026-04-11T12:11:09.953Z</time></trkpt><trkpt lat="45.81684056473125" lon="13.745359749441072"><ele>282.0</ele><time>2026-04-11T12:11:19.952Z</time></trkpt><trkpt lat="45.81673846226844" lon="13.745370835042898"><ele>282.0</ele><time>2026-04-11T12:14:48.954Z</time></trkpt><trkpt lat="45.8167054236446" lon="13.745257536680265"><ele>282.0</ele><time>2026-04-11T12:14:51.954Z</time></trkpt><trkpt lat="45.81663307927237" lon="13.745283805940133"><ele>282.0</ele><time>2026-04-11T12:14:57.954Z</time></trkpt><trkpt lat="45.816615184596394" lon="13.745434998215623"><ele>282.0</ele><time>2026-04-11T12:14:59.954Z</time></trkpt><trkpt lat="45.81665296783515" lon="13.74555811296765"><ele>282.0</ele><time>2026-04-11T12:15:01.954Z</time></trkpt><trkpt lat="45.81661635893222" lon="13.745706572999032"><ele>282.0</ele><time>2026-04-11T12:15:23.954Z</time></trkpt><trkpt lat="45.816577347583035" lon="13.745808894212475"><ele>282.0</ele><time>2026-04-11T12:15:24.954Z</time></trkpt><trkpt lat="45.816543870997656" lon="13.745959563043053"><ele>282.0</ele><time>2026-04-11T12:15:26.954Z</time></trkpt><trkpt lat="45.816513006725664" lon="13.746096564560613"><ele>282.0</ele><time>2026-04-11T12:15:28.954Z</time></trkpt><trkpt lat="45.81647087864079" lon="13.746175576089323"><ele>281.25</ele><time>2026-04-11T12:15:29.954Z</time></trkpt><trkpt lat="45.81642545894329" lon="13.746315277828817"><ele>280.5</ele><time>2026-04-11T12:15:30.954Z</time></trkpt><trkpt lat="45.81636757919139" lon="13.746500261197033"><ele>279.75</ele><time>2026-04-11T12:15:31.954Z</time></trkpt><trkpt lat="45.81632009267923" lon="13.746664254320507"><ele>279.0</ele><time>2026-04-11T12:15:32.954Z</time></trkpt><trkpt lat="45.81627622351392" lon="13.746822350629"><ele>279.2</ele><time>2026-04-11T12:15:33.954Z</time></trkpt><trkpt lat="45.81623520256541" lon="13.746974192296383"><ele>279.4</ele><time>2026-04-11T12:15:34.954Z</time></trkpt><trkpt lat="45.81619954972596" lon="13.747115820632288"><ele>279.6</ele><time>2026-04-11T12:15:35.953Z</time></trkpt><trkpt lat="45.8161606379424" lon="13.747247631603411"><ele>279.8</ele><time>2026-04-11T12:15:36.953Z</time></trkpt><trkpt lat="45.81611408354795" lon="13.747377849925373"><ele>280.0</ele><time>2026-04-11T12:15:37.953Z</time></trkpt><trkpt lat="45.81605878737565" lon="13.74749990779466"><ele>280.0</ele><time>2026-04-11T12:15:38.953Z</time></trkpt><trkpt lat="45.816002293399535" lon="13.747608324339096"><ele>280.0</ele><time>2026-04-11T12:15:39.953Z</time></trkpt><trkpt lat="45.81593465276702" lon="13.747720023641566"><ele>280.0</ele><time>2026-04-11T12:15:40.953Z</time></trkpt><trkpt lat="45.81585376724905" lon="13.747833071699773"><ele>280.0</ele><time>2026-04-11T12:15:41.953Z</time></trkpt><trkpt lat="45.81577037941719" lon="13.747979311399028"><ele>280.0</ele><time>2026-04-11T12:15:42.953Z</time></trkpt><trkpt lat="45.81566037265503" lon="13.748111244395634"><ele>278.75</ele><time>2026-04-11T12:15:43.953Z</time></trkpt><trkpt lat="45.81556208061047" lon="13.748245901340653"><ele>277.5</ele><time>2026-04-11T12:15:44.953Z</time></trkpt><trkpt lat="45.8154642873583" lon="13.74837661158654"><ele>276.25</ele><time>2026-04-11T12:15:45.953Z</time></trkpt><trkpt lat="45.815393280912446" lon="13.748519886873499"><ele>275.0</ele><time>2026-04-11T12:15:46.953Z</time></trkpt><trkpt lat="45.815330592147625" lon="13.748662728591778"><ele>275.0</ele><time>2026-04-11T12:15:47.953Z</time></trkpt><trkpt lat="45.81526776448521" lon="13.748801917169773"><ele>275.0</ele><time>2026-04-11T12:15:48.953Z</time></trkpt><trkpt lat="45.815193093549794" lon="13.748928976338899"><ele>275.0</ele><time>2026-04-11T12:15:49.953Z</time></trkpt><trkpt lat="45.8151037143477" lon="13.749034286783019"><ele>275.0</ele><time>2026-04-11T12:15:50.953Z</time></trkpt><trkpt lat="45.81501096608633" lon="13.749116126662267"><ele>274.0</ele><time>2026-04-11T12:15:51.953Z</time></trkpt><trkpt lat="45.81490293515938" lon="13.749188549481921"><ele>273.0</ele><time>2026-04-11T12:15:52.953Z</time></trkpt><trkpt lat="45.814795918699076" lon="13.749242053691427"><ele>272.0</ele><time>2026-04-11T12:15:53.953Z</time></trkpt><trkpt lat="45.81469350505936" lon="13.749322825065821"><ele>271.0</ele><time>2026-04-11T12:15:54.953Z</time></trkpt><trkpt lat="45.81456468960485" lon="13.749452009517164"><ele>271.0</ele><time>2026-04-11T12:15:55.953Z</time></trkpt><trkpt lat="45.81443844345862" lon="13.749616126424657"><ele>271.0</ele><time>2026-04-11T12:15:56.953Z</time></trkpt><trkpt lat="45.814337244505225" lon="13.749779861811513"><ele>271.0</ele><time>2026-04-11T12:15:57.953Z</time></trkpt><trkpt lat="45.81423558462169" lon="13.749965773080818"><ele>269.5</ele><time>2026-04-11T12:15:58.953Z</time></trkpt><trkpt lat="45.8141403868717" lon="13.750143881567475"><ele>268.0</ele><time>2026-04-11T12:15:59.953Z</time></trkpt><trkpt lat="45.814058658319986" lon="13.75032263545459"><ele>266.5</ele><time>2026-04-11T12:16:00.953Z</time></trkpt><trkpt lat="45.81400983545635" lon="13.75051316585689"><ele>265.0</ele><time>2026-04-11T12:16:01.953Z</time></trkpt><trkpt lat="45.81397173999616" lon="13.750696431943103"><ele>264.5</ele><time>2026-04-11T12:16:02.953Z</time></trkpt><trkpt lat="45.813924319437575" lon="13.750875245033459"><ele>264.0</ele><time>2026-04-11T12:16:03.953Z</time></trkpt><trkpt lat="45.81390575160649" lon="13.751067842990947"><ele>263.5</ele><time>2026-04-11T12:16:04.953Z</time></trkpt><trkpt lat="45.813863354543344" lon="13.751263283077087"><ele>263.0</ele><time>2026-04-11T12:16:05.953Z</time></trkpt><trkpt lat="45.81380938613106" lon="13.751446500630374"><ele>262.25</ele><time>2026-04-11T12:16:06.953Z</time></trkpt><trkpt lat="45.81373134283261" lon="13.751616076531013"><ele>261.5</ele><time>2026-04-11T12:16:07.953Z</time></trkpt><trkpt lat="45.81361667666009" lon="13.751746266503364"><ele>260.75</ele><time>2026-04-11T12:16:08.953Z</time></trkpt><trkpt lat="45.813506591728455" lon="13.75189427791898"><ele>260.0</ele><time>2026-04-11T12:16:09.953Z</time></trkpt><trkpt lat="45.813397660019504" lon="13.752036659031395"><ele>259.25</ele><time>2026-04-11T12:16:10.953Z</time></trkpt><trkpt lat="45.81329818278048" lon="13.752183949569485"><ele>258.5</ele><time>2026-04-11T12:16:11.953Z</time></trkpt><trkpt lat="45.813202601446505" lon="13.752305093013804"><ele>257.75</ele><time>2026-04-11T12:16:12.953Z</time></trkpt><trkpt lat="45.813127765112554" lon="13.752396691567187"><ele>257.0</ele><time>2026-04-11T12:16:13.953Z</time></trkpt><trkpt lat="45.81305273013553" lon="13.7524395988672"><ele>257.0</ele><time>2026-04-11T12:16:14.953Z</time></trkpt><trkpt lat="45.81299156452295" lon="13.75249469260646"><ele>257.0</ele><time>2026-04-11T12:16:15.953Z</time></trkpt><trkpt lat="45.8129917159315" lon="13.75267582125331"><ele>257.0</ele><time>2026-04-11T12:16:16.953Z</time></trkpt><trkpt lat="45.8129578722697" lon="13.752783290390791"><ele>257.0</ele><time>2026-04-11T12:16:17.953Z</time></trkpt><trkpt lat="45.812922636355765" lon="13.752904258964962"><ele>257.0</ele><time>2026-04-11T12:16:18.953Z</time></trkpt><trkpt lat="45.81288050119476" lon="13.753033996583898"><ele>256.4</ele><time>2026-04-11T12:16:19.953Z</time></trkpt><trkpt lat="45.812863338212196" lon="13.753170381287008"><ele>255.79999999999998</ele><time>2026-04-11T12:16:20.953Z</time></trkpt><trkpt lat="45.81282183499757" lon="13.753316100001271"><ele>255.2</ele><time>2026-04-11T12:16:21.953Z</time></trkpt><trkpt lat="45.812783053985484" lon="13.753473354970986"><ele>254.6</ele><time>2026-04-11T12:16:22.953Z</time></trkpt><trkpt lat="45.81273708376927" lon="13.753632195036746"><ele>254.0</ele><time>2026-04-11T12:16:23.953Z</time></trkpt><trkpt lat="45.81269598941631" lon="13.753802787043968"><ele>253.25</ele><time>2026-04-11T12:16:24.953Z</time></trkpt><trkpt lat="45.8126557091156" lon="13.753989865055221"><ele>252.5</ele><time>2026-04-11T12:16:25.953Z</time></trkpt><trkpt lat="45.8126006889068" lon="13.754154529034496"><ele>251.75</ele><time>2026-04-11T12:16:26.953Z</time></trkpt><trkpt lat="45.81257184721687" lon="13.754344927431328"><ele>251.0</ele><time>2026-04-11T12:16:27.953Z</time></trkpt><trkpt lat="45.81253386573179" lon="13.754529147212482"><ele>250.75</ele><time>2026-04-11T12:16:28.953Z</time></trkpt><trkpt lat="45.81249600768693" lon="13.754710218714186"><ele>250.5</ele><time>2026-04-11T12:16:29.953Z</time></trkpt><trkpt lat="45.81244681811135" lon="13.75488519918231"><ele>250.25</ele><time>2026-04-11T12:16:30.953Z</time></trkpt><trkpt lat="45.81241357979868" lon="13.755111242401364"><ele>250.0</ele><time>2026-04-11T12:16:31.953Z</time></trkpt><trkpt lat="45.81238157028198" lon="13.755302161230203"><ele>250.0</ele><time>2026-04-11T12:16:32.953Z</time></trkpt><trkpt lat="45.812343561024846" lon="13.755492069545602"><ele>250.0</ele><time>2026-04-11T12:16:33.953Z</time></trkpt><trkpt lat="45.8123050162115" lon="13.755685432140659"><ele>250.0</ele><time>2026-04-11T12:16:34.953Z</time></trkpt><trkpt lat="45.812270195945445" lon="13.755886916514815"><ele>250.0</ele><time>2026-04-11T12:16:35.953Z</time></trkpt><trkpt lat="45.81223182788286" lon="13.756085908307563"><ele>250.25</ele><time>2026-04-11T12:16:36.953Z</time></trkpt><trkpt lat="45.81221229077628" lon="13.75630148025474"><ele>250.5</ele><time>2026-04-11T12:16:37.953Z</time></trkpt><trkpt lat="45.81217809107113" lon="13.75648739300133"><ele>250.75</ele><time>2026-04-11T12:16:38.953Z</time></trkpt><trkpt lat="45.81214452165434" lon="13.756675367348775"><ele>251.0</ele><time>2026-04-11T12:16:39.953Z</time></trkpt><trkpt lat="45.81213196580441" lon="13.756862598955856"><ele>250.5</ele><time>2026-04-11T12:16:40.953Z</time></trkpt><trkpt lat="45.81209462262397" lon="13.75704511169892"><ele>250.0</ele><time>2026-04-11T12:16:41.953Z</time></trkpt><trkpt lat="45.81208777763331" lon="13.757223624085228"><ele>249.5</ele><time>2026-04-11T12:16:42.953Z</time></trkpt><trkpt lat="45.81208892763763" lon="13.757406593348293"><ele>249.0</ele><time>2026-04-11T12:16:43.953Z</time></trkpt><trkpt lat="45.812061723528764" lon="13.757591303150114"><ele>249.25</ele><time>2026-04-11T12:16:44.953Z</time></trkpt><trkpt lat="45.8120664614154" lon="13.757770115323247"><ele>249.5</ele><time>2026-04-11T12:16:45.953Z</time></trkpt><trkpt lat="45.81205176338636" lon="13.757943160875653"><ele>249.75</ele><time>2026-04-11T12:16:46.953Z</time></trkpt><trkpt lat="45.81204100424403" lon="13.758109373416323"><ele>250.0</ele><time>2026-04-11T12:16:47.953Z</time></trkpt><trkpt lat="45.81201047401044" lon="13.758262291761964"><ele>250.0</ele><time>2026-04-11T12:16:48.953Z</time></trkpt><trkpt lat="45.81197438493685" lon="13.758410151035159"><ele>250.0</ele><time>2026-04-11T12:16:49.953Z</time></trkpt><trkpt lat="45.81193337531105" lon="13.758552868037029"><ele>250.0</ele><time>2026-04-11T12:16:50.953Z</time></trkpt><trkpt lat="45.81189978344553" lon="13.75873195697187"><ele>250.0</ele><time>2026-04-11T12:16:51.953Z</time></trkpt><trkpt lat="45.811848478463055" lon="13.758903458163495"><ele>249.75</ele><time>2026-04-11T12:16:52.954Z</time></trkpt><trkpt lat="45.81179488695061" lon="13.759064118346817"><ele>249.5</ele><time>2026-04-11T12:16:53.953Z</time></trkpt><trkpt lat="45.81175128818073" lon="13.759225593551696"><ele>249.25</ele><time>2026-04-11T12:16:54.953Z</time></trkpt><trkpt lat="45.81175160780438" lon="13.759379364670243"><ele>249.0</ele><time>2026-04-11T12:16:55.954Z</time></trkpt><trkpt lat="45.81173699539357" lon="13.759518507521465"><ele>248.75</ele><time>2026-04-11T12:16:56.954Z</time></trkpt><trkpt lat="45.8117541652653" lon="13.759680777146853"><ele>248.5</ele><time>2026-04-11T12:16:57.954Z</time></trkpt><trkpt lat="45.81176372087329" lon="13.759858213323078"><ele>248.25</ele><time>2026-04-11T12:16:58.953Z</time></trkpt><trkpt lat="45.81175355002683" lon="13.76003501439843"><ele>248.0</ele><time>2026-04-11T12:16:59.953Z</time></trkpt><trkpt lat="45.811761221146774" lon="13.760235642127427"><ele>247.5</ele><time>2026-04-11T12:17:00.953Z</time></trkpt><trkpt lat="45.81178755421767" lon="13.760438399810743"><ele>247.0</ele><time>2026-04-11T12:17:01.954Z</time></trkpt><trkpt lat="45.81178952620054" lon="13.760648219726365"><ele>246.5</ele><time>2026-04-11T12:17:02.953Z</time></trkpt><trkpt lat="45.811771134549865" lon="13.760862569961365"><ele>246.0</ele><time>2026-04-11T12:17:03.953Z</time></trkpt><trkpt lat="45.81175184074522" lon="13.761067487659421"><ele>244.75</ele><time>2026-04-11T12:17:04.954Z</time></trkpt><trkpt lat="45.81172792481" lon="13.76127188749159"><ele>243.5</ele><time>2026-04-11T12:17:05.954Z</time></trkpt><trkpt lat="45.81171109021444" lon="13.761454626555203"><ele>242.25</ele><time>2026-04-11T12:17:06.953Z</time></trkpt><trkpt lat="45.81169104529786" lon="13.761654613593043"><ele>241.0</ele><time>2026-04-11T12:17:07.953Z</time></trkpt><trkpt lat="45.81167626007523" lon="13.761861447643119"><ele>240.75</ele><time>2026-04-11T12:17:08.953Z</time></trkpt><trkpt lat="45.81163844454689" lon="13.76206481505214"><ele>240.5</ele><time>2026-04-11T12:17:09.953Z</time></trkpt><trkpt lat="45.811615404258795" lon="13.762269382878122"><ele>240.25</ele><time>2026-04-11T12:17:10.953Z</time></trkpt><trkpt lat="45.81159027040766" lon="13.762473868876054"><ele>240.0</ele><time>2026-04-11T12:17:11.953Z</time></trkpt><trkpt lat="45.81157600508999" lon="13.762661193159959"><ele>239.0</ele><time>2026-04-11T12:17:12.953Z</time></trkpt><trkpt lat="45.81153187382424" lon="13.762823803016039"><ele>238.0</ele><time>2026-04-11T12:17:13.953Z</time></trkpt><trkpt lat="45.811466702197436" lon="13.762966475633446"><ele>237.0</ele><time>2026-04-11T12:17:14.953Z</time></trkpt><trkpt lat="45.81138839220194" lon="13.763083094138283"><ele>236.0</ele><time>2026-04-11T12:17:15.953Z</time></trkpt><trkpt lat="45.81129307745358" lon="13.763221627285255"><ele>236.0</ele><time>2026-04-11T12:17:16.953Z</time></trkpt><trkpt lat="45.8112020997303" lon="13.763354133292722"><ele>236.0</ele><time>2026-04-11T12:17:17.953Z</time></trkpt><trkpt lat="45.81111196554797" lon="13.763503715695546"><ele>236.0</ele><time>2026-04-11T12:17:18.953Z</time></trkpt><trkpt lat="45.81104209579691" lon="13.763644399824132"><ele>236.0</ele><time>2026-04-11T12:17:19.953Z</time></trkpt><trkpt lat="45.8109918437587" lon="13.76381458559554"><ele>235.0</ele><time>2026-04-11T12:17:20.953Z</time></trkpt><trkpt lat="45.8109560285513" lon="13.76398998860276"><ele>234.0</ele><time>2026-04-11T12:17:21.953Z</time></trkpt><trkpt lat="45.81091329732441" lon="13.764175444942428"><ele>233.0</ele><time>2026-04-11T12:17:22.953Z</time></trkpt><trkpt lat="45.81086093683004" lon="13.764379278866587"><ele>232.0</ele><time>2026-04-11T12:17:23.953Z</time></trkpt><trkpt lat="45.810809682442276" lon="13.764604284728941"><ele>230.66666666666666</ele><time>2026-04-11T12:17:24.953Z</time></trkpt><trkpt lat="45.810750505816245" lon="13.764838026812543"><ele>229.33333333333331</ele><time>2026-04-11T12:17:25.953Z</time></trkpt><trkpt lat="45.81069047506528" lon="13.765079548954223"><ele>228.0</ele><time>2026-04-11T12:17:26.953Z</time></trkpt><trkpt lat="45.810631090535175" lon="13.765329937073867"><ele>226.66666666666669</ele><time>2026-04-11T12:17:27.953Z</time></trkpt><trkpt lat="45.81059539856621" lon="13.76556856357862"><ele>225.33333333333334</ele><time>2026-04-11T12:17:28.953Z</time></trkpt><trkpt lat="45.81056101752744" lon="13.765795912065892"><ele>224.0</ele><time>2026-04-11T12:17:29.953Z</time></trkpt><trkpt lat="45.81051544694127" lon="13.766024483107378"><ele>222.66666666666669</ele><time>2026-04-11T12:17:30.953Z</time></trkpt><trkpt lat="45.81047789560145" lon="13.76624828615382"><ele>221.33333333333331</ele><time>2026-04-11T12:17:31.953Z</time></trkpt><trkpt lat="45.81044191452011" lon="13.766476758306387"><ele>220.0</ele><time>2026-04-11T12:17:32.953Z</time></trkpt><trkpt lat="45.8103962728277" lon="13.766702091967334"><ele>218.33333333333331</ele><time>2026-04-11T12:17:33.953Z</time></trkpt><trkpt lat="45.810356857229834" lon="13.766919501869891"><ele>216.66666666666669</ele><time>2026-04-11T12:17:34.953Z</time></trkpt><trkpt lat="45.81031297337613" lon="13.767147349863485"><ele>215.0</ele><time>2026-04-11T12:17:35.953Z</time></trkpt><trkpt lat="45.81026894274393" lon="13.76737155276479"><ele>215.0</ele><time>2026-04-11T12:17:36.953Z</time></trkpt><trkpt lat="45.81022465123925" lon="13.767588586588701"><ele>215.0</ele><time>2026-04-11T12:17:37.953Z</time></trkpt><trkpt lat="45.81018793528125" lon="13.767800890040629"><ele>215.0</ele><time>2026-04-11T12:17:38.953Z</time></trkpt><trkpt lat="45.81012559996142" lon="13.767986845811865"><ele>215.0</ele><time>2026-04-11T12:17:39.953Z</time></trkpt><trkpt lat="45.81004203625346" lon="13.768143232660398"><ele>215.0</ele><time>2026-04-11T12:17:40.953Z</time></trkpt><trkpt lat="45.80993759171167" lon="13.768288217696172"><ele>215.0</ele><time>2026-04-11T12:17:41.953Z</time></trkpt><trkpt lat="45.80983300302908" lon="13.768439144626257"><ele>215.0</ele><time>2026-04-11T12:17:42.953Z</time></trkpt><trkpt lat="45.809727253865674" lon="13.76859878355841"><ele>215.0</ele><time>2026-04-11T12:17:43.953Z</time></trkpt><trkpt lat="45.80961705717791" lon="13.768752548650808"><ele>215.0</ele><time>2026-04-11T12:17:44.953Z</time></trkpt><trkpt lat="45.809494150261756" lon="13.768931999955981"><ele>215.0</ele><time>2026-04-11T12:17:45.953Z</time></trkpt><trkpt lat="45.80939044537391" lon="13.769116136534247"><ele>214.66666666666669</ele><time>2026-04-11T12:17:46.953Z</time></trkpt><trkpt lat="45.8092919552751" lon="13.769280926064196"><ele>214.33333333333331</ele><time>2026-04-11T12:17:47.953Z</time></trkpt><trkpt lat="45.809187634427126" lon="13.769434617780867"><ele>214.0</ele><time>2026-04-11T12:17:48.953Z</time></trkpt><trkpt lat="45.809104926243485" lon="13.769631915019563"><ele>214.0</ele><time>2026-04-11T12:17:49.953Z</time></trkpt><trkpt lat="45.80901775883318" lon="13.769847215402574"><ele>214.0</ele><time>2026-04-11T12:17:50.953Z</time></trkpt><trkpt lat="45.808930027781535" lon="13.770072821370585"><ele>214.0</ele><time>2026-04-11T12:17:51.953Z</time></trkpt><trkpt lat="45.808836345803726" lon="13.770269965901202"><ele>213.33333333333331</ele><time>2026-04-11T12:17:52.953Z</time></trkpt><trkpt lat="45.80875594583651" lon="13.77046216988191"><ele>212.66666666666669</ele><time>2026-04-11T12:17:53.953Z</time></trkpt><trkpt lat="45.8086736330281" lon="13.770645856025498"><ele>212.0</ele><time>2026-04-11T12:17:54.953Z</time></trkpt><trkpt lat="45.80858703459965" lon="13.770810486636275"><ele>212.0</ele><time>2026-04-11T12:17:55.953Z</time></trkpt><trkpt lat="45.80850039873676" lon="13.770966771368983"><ele>212.0</ele><time>2026-04-11T12:17:56.953Z</time></trkpt><trkpt lat="45.80837664924649" lon="13.771059478669933"><ele>212.0</ele><time>2026-04-11T12:17:57.953Z</time></trkpt><trkpt lat="45.80824665732809" lon="13.771183022315192"><ele>212.0</ele><time>2026-04-11T12:17:58.953Z</time></trkpt><trkpt lat="45.80812015765295" lon="13.771308909715339"><ele>212.33333333333334</ele><time>2026-04-11T12:17:59.953Z</time></trkpt><trkpt lat="45.807983962366414" lon="13.771438350799993"><ele>212.66666666666669</ele><time>2026-04-11T12:18:00.953Z</time></trkpt><trkpt lat="45.80784459531745" lon="13.771564331647022"><ele>213.0</ele><time>2026-04-11T12:18:01.953Z</time></trkpt><trkpt lat="45.80770558313281" lon="13.771680657441923"><ele>213.66666666666669</ele><time>2026-04-11T12:18:02.953Z</time></trkpt><trkpt lat="45.80755545378416" lon="13.77181123554009"><ele>214.33333333333334</ele><time>2026-04-11T12:18:03.953Z</time></trkpt><trkpt lat="45.8074065854813" lon="13.771956137388353"><ele>215.0</ele><time>2026-04-11T12:18:04.953Z</time></trkpt><trkpt lat="45.807271612576024" lon="13.772093701484625"><ele>215.0</ele><time>2026-04-11T12:18:05.953Z</time></trkpt><trkpt lat="45.80714193932607" lon="13.772228845582728"><ele>215.0</ele><time>2026-04-11T12:18:06.953Z</time></trkpt><trkpt lat="45.807005571428796" lon="13.772367386709695"><ele>215.0</ele><time>2026-04-11T12:18:07.953Z</time></trkpt><trkpt lat="45.80687335114966" lon="13.772499606948175"><ele>215.25</ele><time>2026-04-11T12:18:08.953Z</time></trkpt><trkpt lat="45.80675650781526" lon="13.772616517342401"><ele>215.5</ele><time>2026-04-11T12:18:09.953Z</time></trkpt><trkpt lat="45.80663217755122" lon="13.772735199524814"><ele>215.75</ele><time>2026-04-11T12:18:10.953Z</time></trkpt><trkpt lat="45.80650855885522" lon="13.772826343392914"><ele>216.0</ele><time>2026-04-11T12:18:11.953Z</time></trkpt><trkpt lat="45.80639215967121" lon="13.772892458352757"><ele>217.20000000000002</ele><time>2026-04-11T12:18:12.953Z</time></trkpt><trkpt lat="45.80628379171029" lon="13.772936092119952"><ele>218.40000000000003</ele><time>2026-04-11T12:18:13.953Z</time></trkpt><trkpt lat="45.8061784805375" lon="13.772966317498597"><ele>219.6</ele><time>2026-04-11T12:18:14.953Z</time></trkpt><trkpt lat="45.806070529753605" lon="13.77299561759433"><ele>220.8</ele><time>2026-04-11T12:18:15.953Z</time></trkpt><trkpt lat="45.80595676569838" lon="13.773030296374946"><ele>222.0</ele><time>2026-04-11T12:18:16.953Z</time></trkpt><trkpt lat="45.80582660090109" lon="13.773086073304757"><ele>224.0</ele><time>2026-04-11T12:18:17.953Z</time></trkpt><trkpt lat="45.805689094607985" lon="13.773165567732764"><ele>226.0</ele><time>2026-04-11T12:18:18.953Z</time></trkpt><trkpt lat="45.805549500446695" lon="13.7732644537294"><ele>228.0</ele><time>2026-04-11T12:18:19.953Z</time></trkpt><trkpt lat="45.805414547257044" lon="13.773361826517176"><ele>228.0</ele><time>2026-04-11T12:18:20.953Z</time></trkpt><trkpt lat="45.80528421820677" lon="13.773466181289438"><ele>228.0</ele><time>2026-04-11T12:18:21.953Z</time></trkpt><trkpt lat="45.80516917749851" lon="13.773573630414296"><ele>228.0</ele><time>2026-04-11T12:18:22.953Z</time></trkpt><trkpt lat="45.80506977355126" lon="13.77369317889148"><ele>228.0</ele><time>2026-04-11T12:18:23.953Z</time></trkpt><trkpt lat="45.80498984082837" lon="13.773834429637553"><ele>230.33333333333331</ele><time>2026-04-11T12:18:24.953Z</time></trkpt><trkpt lat="45.80489796894115" lon="13.773987381213281"><ele>232.66666666666666</ele><time>2026-04-11T12:18:25.953Z</time></trkpt><trkpt lat="45.804802388536544" lon="13.774155756546943"><ele>235.0</ele><time>2026-04-11T12:18:26.953Z</time></trkpt><trkpt lat="45.80469664303944" lon="13.774327313528294"><ele>238.0</ele><time>2026-04-11T12:18:27.953Z</time></trkpt><trkpt lat="45.80459625351601" lon="13.774518960684036"><ele>241.0</ele><time>2026-04-11T12:18:28.952Z</time></trkpt><trkpt lat="45.80450721456042" lon="13.774720930688433"><ele>244.0</ele><time>2026-04-11T12:18:29.952Z</time></trkpt><trkpt lat="45.80442523974242" lon="13.77490618631626"><ele>245.0</ele><time>2026-04-11T12:18:30.952Z</time></trkpt><trkpt lat="45.80423723250561" lon="13.775236454644132"><ele>246.0</ele><time>2026-04-11T12:18:32.952Z</time></trkpt><trkpt lat="45.80413211225623" lon="13.775413219288906"><ele>246.0</ele><time>2026-04-11T12:18:33.952Z</time></trkpt><trkpt lat="45.80403933111649" lon="13.775591555731829"><ele>246.0</ele><time>2026-04-11T12:18:34.952Z</time></trkpt><trkpt lat="45.80395609808119" lon="13.77575595877058"><ele>246.0</ele><time>2026-04-11T12:18:35.952Z</time></trkpt><trkpt lat="45.80388099967828" lon="13.775933812352195"><ele>246.0</ele><time>2026-04-11T12:18:36.952Z</time></trkpt><trkpt lat="45.803808564189076" lon="13.776087576424768"><ele>247.0</ele><time>2026-04-11T12:18:37.952Z</time></trkpt><trkpt lat="45.80373953980301" lon="13.77623907109204"><ele>248.0</ele><time>2026-04-11T12:18:38.952Z</time></trkpt><trkpt lat="45.8036514500392" lon="13.776369885022637"><ele>249.0</ele><time>2026-04-11T12:18:39.952Z</time></trkpt><trkpt lat="45.80356519958901" lon="13.776498702963462"><ele>250.0</ele><time>2026-04-11T12:18:40.952Z</time></trkpt><trkpt lat="45.803477940918526" lon="13.776618777339536"><ele>250.0</ele><time>2026-04-11T12:18:41.952Z</time></trkpt><trkpt lat="45.80340106190207" lon="13.776750136821768"><ele>250.0</ele><time>2026-04-11T12:18:42.952Z</time></trkpt><trkpt lat="45.80332680168595" lon="13.776877268760973"><ele>250.0</ele><time>2026-04-11T12:18:43.952Z</time></trkpt><trkpt lat="45.80325867559886" lon="13.776994453425173"><ele>250.0</ele><time>2026-04-11T12:18:44.952Z</time></trkpt><trkpt lat="45.80320211308224" lon="13.77712930803716"><ele>249.5</ele><time>2026-04-11T12:18:45.952Z</time></trkpt><trkpt lat="45.80312862770717" lon="13.7772557132515"><ele>249.0</ele><time>2026-04-11T12:18:46.952Z</time></trkpt><trkpt lat="45.803051178075336" lon="13.777388447831708"><ele>248.5</ele><time>2026-04-11T12:18:47.952Z</time></trkpt><trkpt lat="45.80298924337967" lon="13.777546081451554"><ele>248.0</ele><time>2026-04-11T12:18:48.952Z</time></trkpt><trkpt lat="45.802960015772975" lon="13.777726335306413"><ele>248.0</ele><time>2026-04-11T12:18:49.952Z</time></trkpt><trkpt lat="45.80293188153828" lon="13.777894967044578"><ele>248.0</ele><time>2026-04-11T12:18:50.952Z</time></trkpt><trkpt lat="45.80294454183258" lon="13.77805708951897"><ele>248.0</ele><time>2026-04-11T12:18:51.952Z</time></trkpt><trkpt lat="45.80294776428504" lon="13.778230122876804"><ele>248.0</ele><time>2026-04-11T12:18:52.952Z</time></trkpt><trkpt lat="45.80295686432515" lon="13.778427881878892"><ele>249.25</ele><time>2026-04-11T12:18:53.952Z</time></trkpt><trkpt lat="45.80300006086761" lon="13.778620871290768"><ele>250.5</ele><time>2026-04-11T12:18:54.952Z</time></trkpt><trkpt lat="45.80303564113586" lon="13.778800690044665"><ele>251.75</ele><time>2026-04-11T12:18:55.952Z</time></trkpt><trkpt lat="45.803068085831484" lon="13.778965968436344"><ele>253.0</ele><time>2026-04-11T12:18:56.952Z</time></trkpt><trkpt lat="45.80309712814661" lon="13.779111273063178"><ele>252.99999999999997</ele><time>2026-04-11T12:18:57.952Z</time></trkpt><trkpt lat="45.803101893670224" lon="13.779243895104715"><ele>253.0</ele><time>2026-04-11T12:18:58.953Z</time></trkpt><trkpt lat="45.80311806350727" lon="13.779358462836749"><ele>253.0</ele><time>2026-04-11T12:18:59.953Z</time></trkpt><trkpt lat="45.80309897125305" lon="13.779469076624185"><ele>253.0</ele><time>2026-04-11T12:19:00.953Z</time></trkpt><trkpt lat="45.803076561157596" lon="13.779584548470922"><ele>252.99999999999997</ele><time>2026-04-11T12:19:01.952Z</time></trkpt><trkpt lat="45.80305278339488" lon="13.77973430521741"><ele>253.0</ele><time>2026-04-11T12:19:02.953Z</time></trkpt><trkpt lat="45.80301382108129" lon="13.779900118431241"><ele>253.0</ele><time>2026-04-11T12:19:03.953Z</time></trkpt><trkpt lat="45.8029757274042" lon="13.780095800385034"><ele>253.0</ele><time>2026-04-11T12:19:04.952Z</time></trkpt><trkpt lat="45.80293527025192" lon="13.78028795806705"><ele>253.0</ele><time>2026-04-11T12:19:05.953Z</time></trkpt><trkpt lat="45.80290937981709" lon="13.780465493425481"><ele>253.0</ele><time>2026-04-11T12:19:06.953Z</time></trkpt><trkpt lat="45.802892151609534" lon="13.780648041137374"><ele>253.0</ele><time>2026-04-11T12:19:07.953Z</time></trkpt><trkpt lat="45.802895251921115" lon="13.780839587355304"><ele>253.0</ele><time>2026-04-11T12:19:08.953Z</time></trkpt><trkpt lat="45.80290795439446" lon="13.781033107329742"><ele>253.0</ele><time>2026-04-11T12:19:09.953Z</time></trkpt><trkpt lat="45.80293362535345" lon="13.781225561403938"><ele>253.0</ele><time>2026-04-11T12:19:10.952Z</time></trkpt><trkpt lat="45.8029762752594" lon="13.781475840671229"><ele>253.33333333333331</ele><time>2026-04-11T12:19:11.953Z</time></trkpt><trkpt lat="45.803010980188695" lon="13.781729668296375"><ele>253.66666666666669</ele><time>2026-04-11T12:19:12.953Z</time></trkpt><trkpt lat="45.803047854301944" lon="13.781962056525652"><ele>254.0</ele><time>2026-04-11T12:19:13.953Z</time></trkpt><trkpt lat="45.80308002231629" lon="13.782186401884305"><ele>255.5</ele><time>2026-04-11T12:19:14.953Z</time></trkpt><trkpt lat="45.80310932911223" lon="13.782406227888961"><ele>257.0</ele><time>2026-04-11T12:19:15.953Z</time></trkpt><trkpt lat="45.80314549139465" lon="13.782584566288302"><ele>258.5</ele><time>2026-04-11T12:19:16.953Z</time></trkpt><trkpt lat="45.803191659404035" lon="13.78273429380845"><ele>260.0</ele><time>2026-04-11T12:19:17.953Z</time></trkpt><trkpt lat="45.80322547952665" lon="13.782874922487755"><ele>261.1666666666667</ele><time>2026-04-11T12:19:18.953Z</time></trkpt><trkpt lat="45.80324642201251" lon="13.78300408469488"><ele>262.33333333333337</ele><time>2026-04-11T12:19:19.953Z</time></trkpt><trkpt lat="45.803249064546755" lon="13.78314134565983"><ele>263.5</ele><time>2026-04-11T12:19:20.953Z</time></trkpt><trkpt lat="45.80324552939142" lon="13.783247249957638"><ele>264.6666666666667</ele><time>2026-04-11T12:19:21.953Z</time></trkpt><trkpt lat="45.80323464009355" lon="13.783336645162915"><ele>265.8333333333333</ele><time>2026-04-11T12:19:23.953Z</time></trkpt><trkpt lat="45.80319569462305" lon="13.783444434433886"><ele>267.0</ele><time>2026-04-11T12:19:26.953Z</time></trkpt><trkpt lat="45.803183771591456" lon="13.783624309615181"><ele>267.8333333333333</ele><time>2026-04-11T12:19:28.953Z</time></trkpt><trkpt lat="45.8032024851864" lon="13.783743130131105"><ele>268.6666666666667</ele><time>2026-04-11T12:19:29.953Z</time></trkpt><trkpt lat="45.8032130622706" lon="13.783856724669556"><ele>269.5</ele><time>2026-04-11T12:19:30.953Z</time></trkpt><trkpt lat="45.803214551421114" lon="13.783982029750035"><ele>270.33333333333337</ele><time>2026-04-11T12:19:31.953Z</time></trkpt><trkpt lat="45.80320663157318" lon="13.784122170611264"><ele>271.1666666666667</ele><time>2026-04-11T12:19:32.953Z</time></trkpt><trkpt lat="45.80319744372332" lon="13.78424183863714"><ele>272.0</ele><time>2026-04-11T12:19:33.953Z</time></trkpt><trkpt lat="45.803186891578456" lon="13.784337260928492"><ele>272.5</ele><time>2026-04-11T12:19:34.953Z</time></trkpt><trkpt lat="45.803186620951735" lon="13.784469521298302"><ele>273.0</ele><time>2026-04-11T12:19:36.953Z</time></trkpt><trkpt lat="45.80323460195798" lon="13.784563357432623"><ele>273.5</ele><time>2026-04-11T12:19:38.953Z</time></trkpt><trkpt lat="45.80325416929775" lon="13.784701105870107"><ele>274.0</ele><time>2026-04-11T12:19:40.953Z</time></trkpt><trkpt lat="45.80325988503153" lon="13.784810468428539"><ele>274.5</ele><time>2026-04-11T12:19:41.953Z</time></trkpt><trkpt lat="45.803257486208665" lon="13.784905581843127"><ele>275.0</ele><time>2026-04-11T12:19:42.953Z</time></trkpt><trkpt lat="45.80330140967417" lon="13.785023055672665"><ele>275.0</ele><time>2026-04-11T12:19:43.953Z</time></trkpt><trkpt lat="45.80334550822348" lon="13.785138677177535"><ele>275.0</ele><time>2026-04-11T12:19:44.953Z</time></trkpt><trkpt lat="45.803384927833406" lon="13.785231066978824"><ele>275.0</ele><time>2026-04-11T12:19:45.953Z</time></trkpt><trkpt lat="45.803441347265895" lon="13.785338709535528"><ele>275.0</ele><time>2026-04-11T12:19:46.952Z</time></trkpt><trkpt lat="45.80348404744282" lon="13.78545200355214"><ele>275.0</ele><time>2026-04-11T12:19:47.952Z</time></trkpt><trkpt lat="45.80352713974009" lon="13.785562206726256"><ele>275.0</ele><time>2026-04-11T12:19:48.952Z</time></trkpt><trkpt lat="45.803560037976034" lon="13.785691713518327"><ele>275.75</ele><time>2026-04-11T12:19:49.952Z</time></trkpt><trkpt lat="45.80358093411322" lon="13.785849491122244"><ele>276.5</ele><time>2026-04-11T12:19:50.952Z</time></trkpt><trkpt lat="45.803612102471824" lon="13.786036693965563"><ele>277.25</ele><time>2026-04-11T12:19:51.952Z</time></trkpt><trkpt lat="45.80364729869373" lon="13.786251803362825"><ele>278.0</ele><time>2026-04-11T12:19:52.952Z</time></trkpt><trkpt lat="45.803684349625364" lon="13.786440233060056"><ele>278.0</ele><time>2026-04-11T12:19:53.952Z</time></trkpt><trkpt lat="45.803727465791106" lon="13.78660340579458"><ele>278.0</ele><time>2026-04-11T12:19:54.952Z</time></trkpt><trkpt lat="45.80377250843112" lon="13.786735935286726"><ele>278.0</ele><time>2026-04-11T12:19:55.952Z</time></trkpt><trkpt lat="45.80381419611746" lon="13.786829840244687"><ele>278.0</ele><time>2026-04-11T12:19:56.952Z</time></trkpt><trkpt lat="45.80385095450034" lon="13.786914881037184"><ele>278.0</ele><time>2026-04-11T12:19:57.952Z</time></trkpt><trkpt lat="45.80387751598688" lon="13.787099234817981"><ele>277.4</ele><time>2026-04-11T12:19:59.952Z</time></trkpt><trkpt lat="45.80381894606038" lon="13.787243384283215"><ele>276.8</ele><time>2026-04-11T12:20:01.952Z</time></trkpt><trkpt lat="45.80372234126758" lon="13.787354744561467"><ele>276.2</ele><time>2026-04-11T12:20:03.952Z</time></trkpt><trkpt lat="45.8036842932293" lon="13.787438726275763"><ele>275.6</ele><time>2026-04-11T12:20:04.952Z</time></trkpt><trkpt lat="45.80360017129164" lon="13.787526446233773"><ele>275.0</ele><time>2026-04-11T12:20:05.952Z</time></trkpt><trkpt lat="45.80353941946185" lon="13.787655182427255"><ele>275.75</ele><time>2026-04-11T12:20:06.952Z</time></trkpt><trkpt lat="45.80347158395323" lon="13.787773087153136"><ele>276.5</ele><time>2026-04-11T12:20:07.952Z</time></trkpt><trkpt lat="45.80340863142823" lon="13.787917150480595"><ele>277.25</ele><time>2026-04-11T12:20:08.952Z</time></trkpt><trkpt lat="45.80334608141987" lon="13.788079001656754"><ele>278.0</ele><time>2026-04-11T12:20:09.952Z</time></trkpt><trkpt lat="45.803292490412666" lon="13.78826232021905"><ele>278.0</ele><time>2026-04-11T12:20:10.952Z</time></trkpt><trkpt lat="45.80323363215544" lon="13.78846315970909"><ele>278.0</ele><time>2026-04-11T12:20:11.952Z</time></trkpt><trkpt lat="45.80318089675539" lon="13.788631872832347"><ele>278.0</ele><time>2026-04-11T12:20:12.952Z</time></trkpt><trkpt lat="45.803136904111014" lon="13.788779930482328"><ele>278.0</ele><time>2026-04-11T12:20:13.952Z</time></trkpt><trkpt lat="45.80309177914388" lon="13.788942736764573"><ele>277.8</ele><time>2026-04-11T12:20:14.952Z</time></trkpt><trkpt lat="45.8030433683342" lon="13.789093537238207"><ele>277.6</ele><time>2026-04-11T12:20:15.952Z</time></trkpt><trkpt lat="45.802998075941765" lon="13.7892400358678"><ele>277.4</ele><time>2026-04-11T12:20:16.952Z</time></trkpt><trkpt lat="45.80291628872257" lon="13.789348687780553"><ele>277.2</ele><time>2026-04-11T12:20:17.952Z</time></trkpt><trkpt lat="45.80286645191836" lon="13.789465321286457"><ele>277.0</ele><time>2026-04-11T12:20:18.952Z</time></trkpt><trkpt lat="45.802813097794946" lon="13.789571758873052"><ele>277.0</ele><time>2026-04-11T12:20:19.952Z</time></trkpt><trkpt lat="45.80274781815266" lon="13.78966530744334"><ele>277.0</ele><time>2026-04-11T12:20:20.952Z</time></trkpt><trkpt lat="45.8026695940242" lon="13.789756213883154"><ele>277.0</ele><time>2026-04-11T12:20:21.952Z</time></trkpt><trkpt lat="45.802580602009115" lon="13.789852162704129"><ele>277.0</ele><time>2026-04-11T12:20:22.952Z</time></trkpt><trkpt lat="45.80249223192555" lon="13.789979115477593"><ele>277.0</ele><time>2026-04-11T12:20:23.952Z</time></trkpt><trkpt lat="45.80238525063062" lon="13.790087242471799"><ele>277.75</ele><time>2026-04-11T12:20:24.952Z</time></trkpt><trkpt lat="45.8022806192294" lon="13.790207163550418"><ele>278.5</ele><time>2026-04-11T12:20:25.952Z</time></trkpt><trkpt lat="45.80218813285712" lon="13.790321905084625"><ele>279.25</ele><time>2026-04-11T12:20:26.952Z</time></trkpt><trkpt lat="45.802108077236944" lon="13.790457268623394"><ele>280.0</ele><time>2026-04-11T12:20:27.952Z</time></trkpt><trkpt lat="45.80202447014946" lon="13.790610235086106"><ele>280.0</ele><time>2026-04-11T12:20:28.952Z</time></trkpt><trkpt lat="45.801959677704616" lon="13.79076696857766"><ele>280.0</ele><time>2026-04-11T12:20:29.952Z</time></trkpt><trkpt lat="45.80188440978825" lon="13.790942753129782"><ele>280.0</ele><time>2026-04-11T12:20:30.952Z</time></trkpt><trkpt lat="45.80181299936303" lon="13.791118260358951"><ele>280.0</ele><time>2026-04-11T12:20:31.952Z</time></trkpt><trkpt lat="45.80173045935237" lon="13.791263592200803"><ele>280.5</ele><time>2026-04-11T12:20:32.952Z</time></trkpt><trkpt lat="45.801656264338625" lon="13.791409927702123"><ele>281.0</ele><time>2026-04-11T12:20:33.952Z</time></trkpt><trkpt lat="45.80158643086813" lon="13.791555077630552"><ele>281.5</ele><time>2026-04-11T12:20:34.952Z</time></trkpt><trkpt lat="45.8014837637986" lon="13.79164819065519"><ele>282.0</ele><time>2026-04-11T12:20:35.952Z</time></trkpt><trkpt lat="45.80137989314062" lon="13.791731558567623"><ele>282.0</ele><time>2026-04-11T12:20:36.952Z</time></trkpt><trkpt lat="45.8012774508033" lon="13.791834891751504"><ele>282.0</ele><time>2026-04-11T12:20:37.952Z</time></trkpt><trkpt lat="45.80115687074341" lon="13.791975700947033"><ele>282.0</ele><time>2026-04-11T12:20:38.952Z</time></trkpt><trkpt lat="45.80103417704709" lon="13.792099053263733"><ele>282.0</ele><time>2026-04-11T12:20:39.952Z</time></trkpt><trkpt lat="45.80090945201456" lon="13.79222722566984"><ele>280.6666666666667</ele><time>2026-04-11T12:20:40.952Z</time></trkpt><trkpt lat="45.80077515528745" lon="13.79236439418751"><ele>279.33333333333337</ele><time>2026-04-11T12:20:41.952Z</time></trkpt><trkpt lat="45.80062633927144" lon="13.792481110532481"><ele>278.0</ele><time>2026-04-11T12:20:42.952Z</time></trkpt><trkpt lat="45.80048434791086" lon="13.792614878021922"><ele>277.6666666666667</ele><time>2026-04-11T12:20:43.952Z</time></trkpt><trkpt lat="45.80035119990155" lon="13.792748520424139"><ele>277.3333333333333</ele><time>2026-04-11T12:20:44.952Z</time></trkpt><trkpt lat="45.80022889025493" lon="13.79287489595757"><ele>277.0</ele><time>2026-04-11T12:20:45.952Z</time></trkpt><trkpt lat="45.80011521172648" lon="13.792998525924867"><ele>277.0</ele><time>2026-04-11T12:20:46.952Z</time></trkpt><trkpt lat="45.80000499651349" lon="13.793130930340602"><ele>277.0</ele><time>2026-04-11T12:20:47.952Z</time></trkpt><trkpt lat="45.79990902038884" lon="13.793288440878813"><ele>277.0</ele><time>2026-04-11T12:20:48.952Z</time></trkpt><trkpt lat="45.79980207666965" lon="13.793459262062441"><ele>278.0</ele><time>2026-04-11T12:20:49.952Z</time></trkpt><trkpt lat="45.79970292821123" lon="13.793631665975342"><ele>279.0</ele><time>2026-04-11T12:20:50.952Z</time></trkpt><trkpt lat="45.79958770184607" lon="13.793792565258006"><ele>280.0</ele><time>2026-04-11T12:20:51.952Z</time></trkpt><trkpt lat="45.7995023740607" lon="13.793968916889359"><ele>280.0</ele><time>2026-04-11T12:20:52.952Z</time></trkpt><trkpt lat="45.79940556065014" lon="13.794131701077271"><ele>280.0</ele><time>2026-04-11T12:20:53.952Z</time></trkpt><trkpt lat="45.799303040401036" lon="13.79429653527492"><ele>280.0</ele><time>2026-04-11T12:20:54.952Z</time></trkpt><trkpt lat="45.799199053403456" lon="13.794468179729359"><ele>279.0</ele><time>2026-04-11T12:20:55.952Z</time></trkpt><trkpt lat="45.79908000683991" lon="13.794632914783874"><ele>278.0</ele><time>2026-04-11T12:20:56.952Z</time></trkpt><trkpt lat="45.79896944177902" lon="13.794816886650139"><ele>277.0</ele><time>2026-04-11T12:20:57.952Z</time></trkpt><trkpt lat="45.798857494557645" lon="13.795003158383777"><ele>277.0</ele><time>2026-04-11T12:20:58.952Z</time></trkpt><trkpt lat="45.79874531500622" lon="13.79518922847094"><ele>277.0</ele><time>2026-04-11T12:20:59.952Z</time></trkpt><trkpt lat="45.79863007171137" lon="13.79538021794607"><ele>277.0</ele><time>2026-04-11T12:21:00.952Z</time></trkpt><trkpt lat="45.79851213231854" lon="13.795575675663281"><ele>275.3333333333333</ele><time>2026-04-11T12:21:01.952Z</time></trkpt><trkpt lat="45.79839880378952" lon="13.79576514469469"><ele>273.6666666666667</ele><time>2026-04-11T12:21:02.952Z</time></trkpt><trkpt lat="45.79828317379779" lon="13.79596911401424"><ele>272.0</ele><time>2026-04-11T12:21:03.952Z</time></trkpt><trkpt lat="45.798183049760105" lon="13.79617877922315"><ele>272.0</ele><time>2026-04-11T12:21:04.951Z</time></trkpt><trkpt lat="45.79805638416661" lon="13.796345668809264"><ele>272.0</ele><time>2026-04-11T12:21:05.951Z</time></trkpt><trkpt lat="45.7979589145559" lon="13.79651575069016"><ele>272.0</ele><time>2026-04-11T12:21:06.951Z</time></trkpt><trkpt lat="45.79786918206511" lon="13.7966723314567"><ele>272.0</ele><time>2026-04-11T12:21:07.951Z</time></trkpt><trkpt lat="45.79779717751958" lon="13.796831217014425"><ele>272.0</ele><time>2026-04-11T12:21:08.951Z</time></trkpt><trkpt lat="45.79769880847134" lon="13.796964107744955"><ele>272.0</ele><time>2026-04-11T12:21:09.951Z</time></trkpt><trkpt lat="45.79760475311243" lon="13.7971149635416"><ele>272.0</ele><time>2026-04-11T12:21:10.951Z</time></trkpt><trkpt lat="45.797513836271705" lon="13.797260785227353"><ele>271.25</ele><time>2026-04-11T12:21:11.952Z</time></trkpt><trkpt lat="45.797424404160985" lon="13.797404225691709"><ele>270.5</ele><time>2026-04-11T12:21:12.952Z</time></trkpt><trkpt lat="45.79733319163763" lon="13.797548051054953"><ele>269.75</ele><time>2026-04-11T12:21:13.951Z</time></trkpt><trkpt lat="45.79723712247068" lon="13.797699248585952"><ele>269.0</ele><time>2026-04-11T12:21:14.952Z</time></trkpt><trkpt lat="45.797148484309616" lon="13.79785119091935"><ele>269.0</ele><time>2026-04-11T12:21:15.952Z</time></trkpt><trkpt lat="45.79705660261353" lon="13.798015798818914"><ele>269.0</ele><time>2026-04-11T12:21:16.951Z</time></trkpt><trkpt lat="45.796956542372946" lon="13.798195936275722"><ele>269.0</ele><time>2026-04-11T12:21:17.951Z</time></trkpt><trkpt lat="45.79685421520597" lon="13.798379692855258"><ele>268.0</ele><time>2026-04-11T12:21:18.951Z</time></trkpt><trkpt lat="45.796738563798364" lon="13.798577952347358"><ele>267.0</ele><time>2026-04-11T12:21:19.951Z</time></trkpt><trkpt lat="45.79662609606679" lon="13.7987644490519"><ele>266.0</ele><time>2026-04-11T12:21:20.951Z</time></trkpt><trkpt lat="45.7965192628707" lon="13.798944312869201"><ele>266.0</ele><time>2026-04-11T12:21:21.951Z</time></trkpt><trkpt lat="45.79642725242768" lon="13.799133410065286"><ele>266.0</ele><time>2026-04-11T12:21:22.951Z</time></trkpt><trkpt lat="45.796322411540636" lon="13.799312084590122"><ele>266.0</ele><time>2026-04-11T12:21:23.951Z</time></trkpt><trkpt lat="45.79621456404868" lon="13.79949451911161"><ele>266.0</ele><time>2026-04-11T12:21:24.951Z</time></trkpt><trkpt lat="45.79610869497372" lon="13.799672321473667"><ele>266.0</ele><time>2026-04-11T12:21:25.951Z</time></trkpt><trkpt lat="45.79599461589238" lon="13.799855797071436"><ele>266.0</ele><time>2026-04-11T12:21:26.951Z</time></trkpt><trkpt lat="45.79588633949753" lon="13.800044184902399"><ele>266.0</ele><time>2026-04-11T12:21:27.951Z</time></trkpt><trkpt lat="45.79575976372792" lon="13.80022058500653"><ele>266.0</ele><time>2026-04-11T12:21:28.951Z</time></trkpt><trkpt lat="45.795643250199674" lon="13.800404899796456"><ele>266.0</ele><time>2026-04-11T12:21:29.951Z</time></trkpt><trkpt lat="45.79553052072428" lon="13.800585021525709"><ele>266.0</ele><time>2026-04-11T12:21:30.951Z</time></trkpt><trkpt lat="45.795422268070354" lon="13.800760148002853"><ele>266.0</ele><time>2026-04-11T12:21:31.951Z</time></trkpt><trkpt lat="45.79531491276009" lon="13.800938393976502"><ele>266.0</ele><time>2026-04-11T12:21:32.951Z</time></trkpt><trkpt lat="45.79521481470292" lon="13.80111181047002"><ele>264.33333333333337</ele><time>2026-04-11T12:21:33.951Z</time></trkpt><trkpt lat="45.795125776860175" lon="13.801295389117056"><ele>262.6666666666667</ele><time>2026-04-11T12:21:34.951Z</time></trkpt><trkpt lat="45.79502681949667" lon="13.801458752268285"><ele>261.0</ele><time>2026-04-11T12:21:35.951Z</time></trkpt><trkpt lat="45.79493646184094" lon="13.801624720358719"><ele>261.0</ele><time>2026-04-11T12:21:36.951Z</time></trkpt><trkpt lat="45.79485774145658" lon="13.801778285233295"><ele>261.0</ele><time>2026-04-11T12:21:37.951Z</time></trkpt><trkpt lat="45.794788339200736" lon="13.801930730269959"><ele>261.0</ele><time>2026-04-11T12:21:38.951Z</time></trkpt><trkpt lat="45.79476093625979" lon="13.802095329737895"><ele>261.0</ele><time>2026-04-11T12:21:39.951Z</time></trkpt><trkpt lat="45.79473238130708" lon="13.80224935065714"><ele>260.8333333333333</ele><time>2026-04-11T12:21:40.951Z</time></trkpt><trkpt lat="45.79471856793481" lon="13.802405746270532"><ele>260.6666666666667</ele><time>2026-04-11T12:21:41.951Z</time></trkpt><trkpt lat="45.79468809937586" lon="13.802522622269553"><ele>260.5</ele><time>2026-04-11T12:21:42.951Z</time></trkpt><trkpt lat="45.794674102288006" lon="13.802611277151689"><ele>260.33333333333337</ele><time>2026-04-11T12:21:43.951Z</time></trkpt><trkpt lat="45.794653770065295" lon="13.80270153748556"><ele>260.1666666666667</ele><time>2026-04-11T12:21:45.951Z</time></trkpt><trkpt lat="45.79463529459818" lon="13.802805564043526"><ele>260.0</ele><time>2026-04-11T12:21:48.951Z</time></trkpt><trkpt lat="45.79461680969638" lon="13.802932495262157"><ele>259.83333333333337</ele><time>2026-04-11T12:21:50.951Z</time></trkpt><trkpt lat="45.79460121838439" lon="13.803023218623931"><ele>259.6666666666667</ele><time>2026-04-11T12:21:51.951Z</time></trkpt><trkpt lat="45.794562871980936" lon="13.803174501171782"><ele>259.5</ele><time>2026-04-11T12:21:53.951Z</time></trkpt><trkpt lat="45.79452694516659" lon="13.803326164565178"><ele>259.3333333333333</ele><time>2026-04-11T12:21:55.951Z</time></trkpt><trkpt lat="45.7945052470542" lon="13.803415162427271"><ele>259.16666666666663</ele><time>2026-04-11T12:21:56.951Z</time></trkpt><trkpt lat="45.79448257210649" lon="13.803502928935583"><ele>259.0</ele><time>2026-04-11T12:21:57.951Z</time></trkpt><trkpt lat="45.79446008170848" lon="13.803595956185568"><ele>258.66666666666663</ele><time>2026-04-11T12:21:58.951Z</time></trkpt><trkpt lat="45.79444393505607" lon="13.80369882090454"><ele>258.3333333333333</ele><time>2026-04-11T12:21:59.951Z</time></trkpt><trkpt lat="45.794418111001995" lon="13.803812389959061"><ele>258.0</ele><time>2026-04-11T12:22:00.951Z</time></trkpt><trkpt lat="45.794399261670286" lon="13.80392647238581"><ele>257.6666666666667</ele><time>2026-04-11T12:22:01.951Z</time></trkpt><trkpt lat="45.79438228505581" lon="13.804041542798993"><ele>257.33333333333337</ele><time>2026-04-11T12:22:02.951Z</time></trkpt><trkpt lat="45.794357508247145" lon="13.80417422595264"><ele>257.0</ele><time>2026-04-11T12:22:03.951Z</time></trkpt><trkpt lat="45.79432356085751" lon="13.804317490157695"><ele>256.4</ele><time>2026-04-11T12:22:04.951Z</time></trkpt><trkpt lat="45.79428794890494" lon="13.804454020704016"><ele>255.79999999999998</ele><time>2026-04-11T12:22:05.951Z</time></trkpt><trkpt lat="45.794250856585975" lon="13.804586506216685"><ele>255.2</ele><time>2026-04-11T12:22:06.951Z</time></trkpt><trkpt lat="45.79420549236109" lon="13.804716356144377"><ele>254.6</ele><time>2026-04-11T12:22:07.951Z</time></trkpt><trkpt lat="45.79415646571655" lon="13.804843381747268"><ele>254.0</ele><time>2026-04-11T12:22:08.951Z</time></trkpt><trkpt lat="45.79410009004649" lon="13.804953205117775"><ele>254.0</ele><time>2026-04-11T12:22:09.951Z</time></trkpt><trkpt lat="45.794029466588384" lon="13.805060910180126"><ele>253.99999999999997</ele><time>2026-04-11T12:22:10.951Z</time></trkpt><trkpt lat="45.793950709196444" lon="13.805177509394083"><ele>253.99999999999997</ele><time>2026-04-11T12:22:11.951Z</time></trkpt><trkpt lat="45.79386773764351" lon="13.805288342565172"><ele>254.0</ele><time>2026-04-11T12:22:12.951Z</time></trkpt><trkpt lat="45.79377755783665" lon="13.805389044750129"><ele>254.0</ele><time>2026-04-11T12:22:13.951Z</time></trkpt><trkpt lat="45.793681436220396" lon="13.805477891605147"><ele>254.2</ele><time>2026-04-11T12:22:14.951Z</time></trkpt><trkpt lat="45.793587092805204" lon="13.805562995534471"><ele>254.39999999999998</ele><time>2026-04-11T12:22:15.951Z</time></trkpt><trkpt lat="45.79349314364171" lon="13.805642680299885"><ele>254.6</ele><time>2026-04-11T12:22:16.951Z</time></trkpt><trkpt lat="45.793404341719565" lon="13.805737174927746"><ele>254.8</ele><time>2026-04-11T12:22:17.951Z</time></trkpt><trkpt lat="45.7933072030702" lon="13.80581608623441"><ele>255.0</ele><time>2026-04-11T12:22:18.951Z</time></trkpt><trkpt lat="45.79320570961181" lon="13.805893703094922"><ele>254.5</ele><time>2026-04-11T12:22:19.951Z</time></trkpt><trkpt lat="45.793085018420385" lon="13.805948363917699"><ele>254.0</ele><time>2026-04-11T12:22:20.951Z</time></trkpt><trkpt lat="45.79297220561547" lon="13.806006409613797"><ele>253.5</ele><time>2026-04-11T12:22:21.951Z</time></trkpt><trkpt lat="45.792854617852136" lon="13.806061316323353"><ele>253.0</ele><time>2026-04-11T12:22:22.951Z</time></trkpt><trkpt lat="45.79273565020737" lon="13.80611596377115"><ele>252.75</ele><time>2026-04-11T12:22:23.951Z</time></trkpt><trkpt lat="45.792613209885005" lon="13.806172238466381"><ele>252.5</ele><time>2026-04-11T12:22:24.951Z</time></trkpt><trkpt lat="45.7924900224355" lon="13.806233768897258"><ele>252.25</ele><time>2026-04-11T12:22:25.951Z</time></trkpt><trkpt lat="45.7923743354799" lon="13.80629155312553"><ele>252.0</ele><time>2026-04-11T12:22:26.951Z</time></trkpt><trkpt lat="45.79225603013245" lon="13.806355636738042"><ele>252.0</ele><time>2026-04-11T12:22:27.951Z</time></trkpt><trkpt lat="45.7921442163658" lon="13.806416566592432"><ele>252.0</ele><time>2026-04-11T12:22:28.951Z</time></trkpt><trkpt lat="45.79203135539184" lon="13.806476974220475"><ele>252.0</ele><time>2026-04-11T12:22:29.951Z</time></trkpt><trkpt lat="45.791921012767894" lon="13.806529949530663"><ele>252.0</ele><time>2026-04-11T12:22:30.951Z</time></trkpt><trkpt lat="45.791808366581016" lon="13.806583828961235"><ele>252.75</ele><time>2026-04-11T12:22:31.951Z</time></trkpt><trkpt lat="45.791690451426255" lon="13.806640285471904"><ele>253.5</ele><time>2026-04-11T12:22:32.951Z</time></trkpt><trkpt lat="45.79156893392118" lon="13.806698466840604"><ele>254.25</ele><time>2026-04-11T12:22:33.951Z</time></trkpt><trkpt lat="45.79145517783547" lon="13.80675293207078"><ele>255.0</ele><time>2026-04-11T12:22:34.951Z</time></trkpt><trkpt lat="45.79134510649578" lon="13.806805633111187"><ele>255.25</ele><time>2026-04-11T12:22:35.951Z</time></trkpt><trkpt lat="45.791237330116" lon="13.806857235398057"><ele>255.5</ele><time>2026-04-11T12:22:36.951Z</time></trkpt><trkpt lat="45.79113645424903" lon="13.80690615589742"><ele>255.75</ele><time>2026-04-11T12:22:37.951Z</time></trkpt><trkpt lat="45.791009679337044" lon="13.806967792046482"><ele>256.0</ele><time>2026-04-11T12:22:38.951Z</time></trkpt><trkpt lat="45.79089536228404" lon="13.807024256045446"><ele>256.5</ele><time>2026-04-11T12:22:39.951Z</time></trkpt><trkpt lat="45.790775104075664" lon="13.807085017536858"><ele>257.0</ele><time>2026-04-11T12:22:40.951Z</time></trkpt><trkpt lat="45.79066300094243" lon="13.80714330263816"><ele>257.5</ele><time>2026-04-11T12:22:41.951Z</time></trkpt><trkpt lat="45.79055537074426" lon="13.807201201968388"><ele>258.0</ele><time>2026-04-11T12:22:42.95Z</time></trkpt><trkpt lat="45.790444974594266" lon="13.807282466532186"><ele>258.0</ele><time>2026-04-11T12:22:43.95Z</time></trkpt><trkpt lat="45.79032952463261" lon="13.807335362807658"><ele>258.0</ele><time>2026-04-11T12:22:44.95Z</time></trkpt><trkpt lat="45.79021352956886" lon="13.807397969904375"><ele>258.0</ele><time>2026-04-11T12:22:45.95Z</time></trkpt><trkpt lat="45.79009090046679" lon="13.807465903240852"><ele>258.0</ele><time>2026-04-11T12:22:46.95Z</time></trkpt><trkpt lat="45.78996226559707" lon="13.80752552407768"><ele>258.0</ele><time>2026-04-11T12:22:47.95Z</time></trkpt><trkpt lat="45.789837996734455" lon="13.807586139295879"><ele>258.0</ele><time>2026-04-11T12:22:48.95Z</time></trkpt><trkpt lat="45.78972221737864" lon="13.807640243374715"><ele>258.0</ele><time>2026-04-11T12:22:49.95Z</time></trkpt><trkpt lat="45.789614550312514" lon="13.807690437718934"><ele>258.0</ele><time>2026-04-11T12:22:50.95Z</time></trkpt><trkpt lat="45.78952360804716" lon="13.807762602511982"><ele>258.0</ele><time>2026-04-11T12:22:51.95Z</time></trkpt><trkpt lat="45.78945095620527" lon="13.807838167999256"><ele>258.0</ele><time>2026-04-11T12:22:52.95Z</time></trkpt><trkpt lat="45.78937058640867" lon="13.807927071138447"><ele>258.0</ele><time>2026-04-11T12:22:53.95Z</time></trkpt><trkpt lat="45.789295118732404" lon="13.808017454672576"><ele>258.0</ele><time>2026-04-11T12:22:54.95Z</time></trkpt><trkpt lat="45.78920784648694" lon="13.808096358223194"><ele>258.0</ele><time>2026-04-11T12:22:55.95Z</time></trkpt><trkpt lat="45.789109930051964" lon="13.80820902709677"><ele>260.25</ele><time>2026-04-11T12:22:56.95Z</time></trkpt><trkpt lat="45.78900503821532" lon="13.808336696585389"><ele>262.5</ele><time>2026-04-11T12:22:57.95Z</time></trkpt><trkpt lat="45.788896140143756" lon="13.808485005338493"><ele>264.75</ele><time>2026-04-11T12:22:58.95Z</time></trkpt><trkpt lat="45.78879093217777" lon="13.808630193261335"><ele>267.0</ele><time>2026-04-11T12:22:59.95Z</time></trkpt><trkpt lat="45.78868555252591" lon="13.80875913002154"><ele>267.0</ele><time>2026-04-11T12:23:00.95Z</time></trkpt><trkpt lat="45.78860532945316" lon="13.80890447220079"><ele>267.0</ele><time>2026-04-11T12:23:01.95Z</time></trkpt><trkpt lat="45.78850653679747" lon="13.809012789267054"><ele>267.0</ele><time>2026-04-11T12:23:02.95Z</time></trkpt><trkpt lat="45.78840093223921" lon="13.80911222416318"><ele>267.0</ele><time>2026-04-11T12:23:03.95Z</time></trkpt><trkpt lat="45.78828341179039" lon="13.809229799549868"><ele>268.75</ele><time>2026-04-11T12:23:04.95Z</time></trkpt><trkpt lat="45.78816233982824" lon="13.809335695084053"><ele>270.5</ele><time>2026-04-11T12:23:05.95Z</time></trkpt><trkpt lat="45.78802471444804" lon="13.809427874583227"><ele>272.25</ele><time>2026-04-11T12:23:06.95Z</time></trkpt><trkpt lat="45.78789623703062" lon="13.809533992019633"><ele>274.0</ele><time>2026-04-11T12:23:07.95Z</time></trkpt><trkpt lat="45.78778084164642" lon="13.809633136071685"><ele>273.5</ele><time>2026-04-11T12:23:08.95Z</time></trkpt><trkpt lat="45.78767049993772" lon="13.809724280687414"><ele>273.0</ele><time>2026-04-11T12:23:09.95Z</time></trkpt><trkpt lat="45.787549911628496" lon="13.809807494024131"><ele>272.5</ele><time>2026-04-11T12:23:10.95Z</time></trkpt><trkpt lat="45.78743886679128" lon="13.809894878360698"><ele>272.0</ele><time>2026-04-11T12:23:11.95Z</time></trkpt><trkpt lat="45.78731989526861" lon="13.809988205113491"><ele>272.0</ele><time>2026-04-11T12:23:12.95Z</time></trkpt><trkpt lat="45.787193666953115" lon="13.810077659148009"><ele>272.0</ele><time>2026-04-11T12:23:13.951Z</time></trkpt><trkpt lat="45.787050874355444" lon="13.810178917616058"><ele>272.0</ele><time>2026-04-11T12:23:14.951Z</time></trkpt><trkpt lat="45.786917488422034" lon="13.810273505626103"><ele>272.0</ele><time>2026-04-11T12:23:15.951Z</time></trkpt><trkpt lat="45.78678163889858" lon="13.810369840539401"><ele>270.75</ele><time>2026-04-11T12:23:16.95Z</time></trkpt><trkpt lat="45.78665466518822" lon="13.810471541646717"><ele>269.5</ele><time>2026-04-11T12:23:17.95Z</time></trkpt><trkpt lat="45.78653300244591" lon="13.81054785919287"><ele>268.25</ele><time>2026-04-11T12:23:18.95Z</time></trkpt><trkpt lat="45.78638678361719" lon="13.810618503467387"><ele>267.0</ele><time>2026-04-11T12:23:19.95Z</time></trkpt><trkpt lat="45.786251123666844" lon="13.810719008286998"><ele>267.0</ele><time>2026-04-11T12:23:20.951Z</time></trkpt><trkpt lat="45.78612551988811" lon="13.810840465357368"><ele>267.0</ele><time>2026-04-11T12:23:21.951Z</time></trkpt><trkpt lat="45.785988775307665" lon="13.810927732187478"><ele>267.0</ele><time>2026-04-11T12:23:22.95Z</time></trkpt><trkpt lat="45.78584499775664" lon="13.811031644983759"><ele>266.0</ele><time>2026-04-11T12:23:23.951Z</time></trkpt><trkpt lat="45.785716391698074" lon="13.811131424375922"><ele>265.0</ele><time>2026-04-11T12:23:24.951Z</time></trkpt><trkpt lat="45.78557822315267" lon="13.81123840821212"><ele>264.0</ele><time>2026-04-11T12:23:25.951Z</time></trkpt><trkpt lat="45.78545204547256" lon="13.811335042865672"><ele>263.0</ele><time>2026-04-11T12:23:26.951Z</time></trkpt><trkpt lat="45.785331829312035" lon="13.811427111995403"><ele>263.0</ele><time>2026-04-11T12:23:27.951Z</time></trkpt><trkpt lat="45.78521296494491" lon="13.811519745977224"><ele>263.0</ele><time>2026-04-11T12:23:28.951Z</time></trkpt><trkpt lat="45.78511780583853" lon="13.811621072853196"><ele>263.0</ele><time>2026-04-11T12:23:29.951Z</time></trkpt><trkpt lat="45.78500888482736" lon="13.811710276159129"><ele>263.0</ele><time>2026-04-11T12:23:30.951Z</time></trkpt><trkpt lat="45.7849014641946" lon="13.811801441639403"><ele>262.6666666666667</ele><time>2026-04-11T12:23:31.951Z</time></trkpt><trkpt lat="45.78476780299647" lon="13.811930083385366"><ele>262.3333333333333</ele><time>2026-04-11T12:23:32.951Z</time></trkpt><trkpt lat="45.78463803224581" lon="13.812065133592803"><ele>262.0</ele><time>2026-04-11T12:23:33.951Z</time></trkpt><trkpt lat="45.7845046036408" lon="13.812197459216243"><ele>262.0</ele><time>2026-04-11T12:23:34.951Z</time></trkpt><trkpt lat="45.78438375539095" lon="13.812319615787748"><ele>262.0</ele><time>2026-04-11T12:23:35.951Z</time></trkpt><trkpt lat="45.784265993149" lon="13.812417011219326"><ele>262.0</ele><time>2026-04-11T12:23:36.951Z</time></trkpt><trkpt lat="45.78416047553832" lon="13.81256936114833"><ele>262.0</ele><time>2026-04-11T12:23:37.951Z</time></trkpt><trkpt lat="45.78404479057284" lon="13.812671914215024"><ele>261.8</ele><time>2026-04-11T12:23:38.951Z</time></trkpt><trkpt lat="45.78396279388744" lon="13.81276579660941"><ele>261.6</ele><time>2026-04-11T12:23:39.951Z</time></trkpt><trkpt lat="45.783880044742695" lon="13.812852173571015"><ele>261.40000000000003</ele><time>2026-04-11T12:23:40.951Z</time></trkpt><trkpt lat="45.783787518781764" lon="13.812929831031273"><ele>261.2</ele><time>2026-04-11T12:23:41.951Z</time></trkpt><trkpt lat="45.78369528185693" lon="13.813004373876836"><ele>261.0</ele><time>2026-04-11T12:23:42.951Z</time></trkpt><trkpt lat="45.783594866608105" lon="13.81307197818889"><ele>260.5</ele><time>2026-04-11T12:23:43.951Z</time></trkpt><trkpt lat="45.78348076898596" lon="13.813120109529178"><ele>260.0</ele><time>2026-04-11T12:23:44.951Z</time></trkpt><trkpt lat="45.78336065743141" lon="13.813156672477286"><ele>259.5</ele><time>2026-04-11T12:23:45.951Z</time></trkpt><trkpt lat="45.7832348407564" lon="13.81317138964945"><ele>259.0</ele><time>2026-04-11T12:23:46.951Z</time></trkpt><trkpt lat="45.78311310711882" lon="13.81318716886212"><ele>259.0</ele><time>2026-04-11T12:23:47.951Z</time></trkpt><trkpt lat="45.78299124039579" lon="13.813210922428201"><ele>259.0</ele><time>2026-04-11T12:23:48.951Z</time></trkpt><trkpt lat="45.782882765967194" lon="13.813256925149139"><ele>259.0</ele><time>2026-04-11T12:23:49.951Z</time></trkpt><trkpt lat="45.7827715255582" lon="13.81330010508566"><ele>259.0</ele><time>2026-04-11T12:23:50.951Z</time></trkpt><trkpt lat="45.782675749408504" lon="13.81338181030589"><ele>259.0</ele><time>2026-04-11T12:23:51.951Z</time></trkpt><trkpt lat="45.78260444254295" lon="13.813473824023713"><ele>259.0</ele><time>2026-04-11T12:23:52.951Z</time></trkpt><trkpt lat="45.7825368742259" lon="13.813604682273255"><ele>259.0</ele><time>2026-04-11T12:23:53.951Z</time></trkpt><trkpt lat="45.78246839860322" lon="13.813731949414878"><ele>259.0</ele><time>2026-04-11T12:23:54.951Z</time></trkpt><trkpt lat="45.78239220174161" lon="13.813861135405931"><ele>259.0</ele><time>2026-04-11T12:23:55.951Z</time></trkpt><trkpt lat="45.78231943935311" lon="13.814004976253782"><ele>259.59999999999997</ele><time>2026-04-11T12:23:56.951Z</time></trkpt><trkpt lat="45.7822399480973" lon="13.814145233957673"><ele>260.2</ele><time>2026-04-11T12:23:57.951Z</time></trkpt><trkpt lat="45.78217040016015" lon="13.81428182881935"><ele>260.79999999999995</ele><time>2026-04-11T12:23:58.951Z</time></trkpt><trkpt lat="45.78208151389208" lon="13.814364251605678"><ele>261.4</ele><time>2026-04-11T12:23:59.951Z</time></trkpt><trkpt lat="45.78200143283146" lon="13.814445658894112"><ele>262.0</ele><time>2026-04-11T12:24:00.951Z</time></trkpt><trkpt lat="45.78190766386555" lon="13.814522426434841"><ele>262.0</ele><time>2026-04-11T12:24:01.951Z</time></trkpt><trkpt lat="45.781813697372584" lon="13.814614046803136"><ele>262.0</ele><time>2026-04-11T12:24:02.951Z</time></trkpt><trkpt lat="45.781682099208844" lon="13.814685045129496"><ele>262.0</ele><time>2026-04-11T12:24:03.951Z</time></trkpt><trkpt lat="45.7815325154639" lon="13.814739515543344"><ele>262.0</ele><time>2026-04-11T12:24:04.951Z</time></trkpt><trkpt lat="45.78137429720525" lon="13.814813911747583"><ele>262.0</ele><time>2026-04-11T12:24:05.951Z</time></trkpt><trkpt lat="45.781214073019704" lon="13.814887461702627"><ele>262.0</ele><time>2026-04-11T12:24:06.951Z</time></trkpt><trkpt lat="45.781065516741315" lon="13.814961915189924"><ele>262.0</ele><time>2026-04-11T12:24:07.951Z</time></trkpt><trkpt lat="45.78091158050864" lon="13.815027416460786"><ele>262.3333333333333</ele><time>2026-04-11T12:24:08.951Z</time></trkpt><trkpt lat="45.78076561441804" lon="13.815102860958568"><ele>262.6666666666667</ele><time>2026-04-11T12:24:09.951Z</time></trkpt><trkpt lat="45.78062557817049" lon="13.815184552078367"><ele>263.0</ele><time>2026-04-11T12:24:10.951Z</time></trkpt><trkpt lat="45.78049540971733" lon="13.815288328103042"><ele>263.5</ele><time>2026-04-11T12:24:11.951Z</time></trkpt><trkpt lat="45.78035623492061" lon="13.81536393870596"><ele>264.0</ele><time>2026-04-11T12:24:12.951Z</time></trkpt><trkpt lat="45.780245038805624" lon="13.815457510443691"><ele>264.5</ele><time>2026-04-11T12:24:13.951Z</time></trkpt><trkpt lat="45.7801190935562" lon="13.815544572965504"><ele>265.0</ele><time>2026-04-11T12:24:14.951Z</time></trkpt><trkpt lat="45.77999930960121" lon="13.81561531612387"><ele>265.4</ele><time>2026-04-11T12:24:15.951Z</time></trkpt><trkpt lat="45.77991357533248" lon="13.815690337032416"><ele>265.8</ele><time>2026-04-11T12:24:16.951Z</time></trkpt><trkpt lat="45.77984066484192" lon="13.815743531311712"><ele>266.2</ele><time>2026-04-11T12:24:17.951Z</time></trkpt><trkpt lat="45.779785568294095" lon="13.815794182278735"><ele>266.6</ele><time>2026-04-11T12:24:18.951Z</time></trkpt><trkpt lat="45.779709706318926" lon="13.815878041469315"><ele>267.0</ele><time>2026-04-11T12:24:20.95Z</time></trkpt><trkpt lat="45.779623961513295" lon="13.815974599891995"><ele>268.0</ele><time>2026-04-11T12:24:22.95Z</time></trkpt><trkpt lat="45.779573125272435" lon="13.81602951616176"><ele>269.0</ele><time>2026-04-11T12:24:23.95Z</time></trkpt><trkpt lat="45.77950732388043" lon="13.816080474945979"><ele>270.0</ele><time>2026-04-11T12:24:24.95Z</time></trkpt><trkpt lat="45.77944941482897" lon="13.816184092859285"><ele>271.0</ele><time>2026-04-11T12:24:25.95Z</time></trkpt><trkpt lat="45.77936792117332" lon="13.816302565901614"><ele>272.0</ele><time>2026-04-11T12:24:26.95Z</time></trkpt><trkpt lat="45.7793041451333" lon="13.816446464117691"><ele>272.25</ele><time>2026-04-11T12:24:27.95Z</time></trkpt><trkpt lat="45.7792354696782" lon="13.816586121593874"><ele>272.5</ele><time>2026-04-11T12:24:28.95Z</time></trkpt><trkpt lat="45.779177509760366" lon="13.816718718284982"><ele>272.75</ele><time>2026-04-11T12:24:29.95Z</time></trkpt><trkpt lat="45.77912437528535" lon="13.816858870670412"><ele>273.0</ele><time>2026-04-11T12:24:30.95Z</time></trkpt><trkpt lat="45.77906062242888" lon="13.816999264660721"><ele>273.25</ele><time>2026-04-11T12:24:31.95Z</time></trkpt><trkpt lat="45.7789999840559" lon="13.81713707082759"><ele>273.5</ele><time>2026-04-11T12:24:32.95Z</time></trkpt><trkpt lat="45.77894263057517" lon="13.81729793502479"><ele>273.75</ele><time>2026-04-11T12:24:33.95Z</time></trkpt><trkpt lat="45.7788884242377" lon="13.817488184295708"><ele>274.0</ele><time>2026-04-11T12:24:34.95Z</time></trkpt><trkpt lat="45.77882998891943" lon="13.817687109175049"><ele>274.25</ele><time>2026-04-11T12:24:35.95Z</time></trkpt><trkpt lat="45.77876620696545" lon="13.817871626773984"><ele>274.5</ele><time>2026-04-11T12:24:36.95Z</time></trkpt><trkpt lat="45.77871046794007" lon="13.818047324948818"><ele>274.75</ele><time>2026-04-11T12:24:37.95Z</time></trkpt><trkpt lat="45.77863128111555" lon="13.818196078087263"><ele>275.0</ele><time>2026-04-11T12:24:38.95Z</time></trkpt><trkpt lat="45.77856735320361" lon="13.81836200380936"><ele>275.0</ele><time>2026-04-11T12:24:39.95Z</time></trkpt><trkpt lat="45.77851823103688" lon="13.818550641527391"><ele>275.0</ele><time>2026-04-11T12:24:40.95Z</time></trkpt><trkpt lat="45.77848488310947" lon="13.818718656824762"><ele>275.0</ele><time>2026-04-11T12:24:41.95Z</time></trkpt><trkpt lat="45.77844672292642" lon="13.818873050889453"><ele>275.0</ele><time>2026-04-11T12:24:42.95Z</time></trkpt><trkpt lat="45.77838798143557" lon="13.818998694598154"><ele>274.4</ele><time>2026-04-11T12:24:43.95Z</time></trkpt><trkpt lat="45.778334568409115" lon="13.819087680430052"><ele>273.8</ele><time>2026-04-11T12:24:44.95Z</time></trkpt><trkpt lat="45.778269823746214" lon="13.819155754652808"><ele>273.2</ele><time>2026-04-11T12:24:45.95Z</time></trkpt><trkpt lat="45.77821628045233" lon="13.819248168771523"><ele>272.6</ele><time>2026-04-11T12:24:46.95Z</time></trkpt><trkpt lat="45.778132046692456" lon="13.819336024494298"><ele>272.0</ele><time>2026-04-11T12:24:47.95Z</time></trkpt><trkpt lat="45.77802425533102" lon="13.819422020540195"><ele>272.0</ele><time>2026-04-11T12:24:48.95Z</time></trkpt><trkpt lat="45.77792309708132" lon="13.819508814868863"><ele>272.0</ele><time>2026-04-11T12:24:49.95Z</time></trkpt><trkpt lat="45.777812760328885" lon="13.819600699724495"><ele>272.0</ele><time>2026-04-11T12:24:50.95Z</time></trkpt><trkpt lat="45.77771001356925" lon="13.819710831732115"><ele>272.0</ele><time>2026-04-11T12:24:51.95Z</time></trkpt><trkpt lat="45.77760521808273" lon="13.819815457869296"><ele>272.75</ele><time>2026-04-11T12:24:52.95Z</time></trkpt><trkpt lat="45.777496391424506" lon="13.819915757889255"><ele>273.5</ele><time>2026-04-11T12:24:53.95Z</time></trkpt><trkpt lat="45.77740148217428" lon="13.82000942668946"><ele>274.25</ele><time>2026-04-11T12:24:54.95Z</time></trkpt><trkpt lat="45.77731719817722" lon="13.820145220650767"><ele>275.0</ele><time>2026-04-11T12:24:55.95Z</time></trkpt><trkpt lat="45.77723550330011" lon="13.820278235612003"><ele>275.0</ele><time>2026-04-11T12:24:56.95Z</time></trkpt><trkpt lat="45.777168811746" lon="13.820404530377282"><ele>275.0</ele><time>2026-04-11T12:24:57.95Z</time></trkpt><trkpt lat="45.777100329220914" lon="13.820505114581012"><ele>275.0</ele><time>2026-04-11T12:24:58.95Z</time></trkpt><trkpt lat="45.77705146407279" lon="13.820632554037022"><ele>275.0</ele><time>2026-04-11T12:24:59.95Z</time></trkpt><trkpt lat="45.77699350446332" lon="13.820783715068854"><ele>275.0</ele><time>2026-04-11T12:25:00.95Z</time></trkpt><trkpt lat="45.776945703012174" lon="13.820945885110508"><ele>274.75</ele><time>2026-04-11T12:25:01.95Z</time></trkpt><trkpt lat="45.776869663772935" lon="13.821116459903939"><ele>274.5</ele><time>2026-04-11T12:25:02.95Z</time></trkpt><trkpt lat="45.77680342633568" lon="13.821323530503225"><ele>274.25</ele><time>2026-04-11T12:25:03.95Z</time></trkpt><trkpt lat="45.77674576311532" lon="13.821508842279771"><ele>274.0</ele><time>2026-04-11T12:25:04.95Z</time></trkpt><trkpt lat="45.77669380006823" lon="13.821663298516768"><ele>276.0</ele><time>2026-04-11T12:25:05.95Z</time></trkpt><trkpt lat="45.7766439094914" lon="13.82179274057507"><ele>278.0</ele><time>2026-04-11T12:25:06.95Z</time></trkpt><trkpt lat="45.776594919743474" lon="13.821897593562161"><ele>280.0</ele><time>2026-04-11T12:25:07.95Z</time></trkpt><trkpt lat="45.77654561650068" lon="13.821981301609227"><ele>282.0</ele><time>2026-04-11T12:25:08.95Z</time></trkpt><trkpt lat="45.77649107895452" lon="13.822063220491849"><ele>284.0</ele><time>2026-04-11T12:25:09.95Z</time></trkpt><trkpt lat="45.77639323079068" lon="13.822164281232062"><ele>284.0</ele><time>2026-04-11T12:25:10.95Z</time></trkpt><trkpt lat="45.77628913487837" lon="13.822299978947122"><ele>284.0</ele><time>2026-04-11T12:25:11.95Z</time></trkpt><trkpt lat="45.77618703624124" lon="13.822413606378957"><ele>284.0</ele><time>2026-04-11T12:25:12.95Z</time></trkpt><trkpt lat="45.77608507883088" lon="13.82253195869909"><ele>284.0</ele><time>2026-04-11T12:25:13.95Z</time></trkpt><trkpt lat="45.775989405574606" lon="13.82265572798665"><ele>284.75</ele><time>2026-04-11T12:25:14.95Z</time></trkpt><trkpt lat="45.77590158941347" lon="13.822800132715141"><ele>285.5</ele><time>2026-04-11T12:25:15.95Z</time></trkpt><trkpt lat="45.77579552225277" lon="13.82295830971812"><ele>286.25</ele><time>2026-04-11T12:25:16.949Z</time></trkpt><trkpt lat="45.77570094352328" lon="13.823069080579806"><ele>287.0</ele><time>2026-04-11T12:25:17.95Z</time></trkpt><trkpt lat="45.775613480249156" lon="13.823184149641015"><ele>287.0</ele><time>2026-04-11T12:25:18.95Z</time></trkpt><trkpt lat="45.7755290960522" lon="13.823293548345683"><ele>287.0</ele><time>2026-04-11T12:25:19.95Z</time></trkpt><trkpt lat="45.775443888670175" lon="13.823399481154274"><ele>287.0</ele><time>2026-04-11T12:25:20.95Z</time></trkpt><trkpt lat="45.77535963207993" lon="13.823507063418132"><ele>287.0</ele><time>2026-04-11T12:25:21.95Z</time></trkpt><trkpt lat="45.775273296598634" lon="13.823617299727065"><ele>287.5</ele><time>2026-04-11T12:25:22.95Z</time></trkpt><trkpt lat="45.77519295207121" lon="13.8237506860456"><ele>288.0</ele><time>2026-04-11T12:25:23.95Z</time></trkpt><trkpt lat="45.775095538989426" lon="13.82387064635655"><ele>288.5</ele><time>2026-04-11T12:25:24.95Z</time></trkpt><trkpt lat="45.774998915447135" lon="13.823970100796023"><ele>289.0</ele><time>2026-04-11T12:25:25.95Z</time></trkpt><trkpt lat="45.77493141179321" lon="13.824085886196299"><ele>289.0</ele><time>2026-04-11T12:25:26.949Z</time></trkpt><trkpt lat="45.77485821273292" lon="13.824190264079403"><ele>289.0</ele><time>2026-04-11T12:25:27.949Z</time></trkpt><trkpt lat="45.77478897245137" lon="13.824296294495126"><ele>289.0</ele><time>2026-04-11T12:25:28.95Z</time></trkpt><trkpt lat="45.77471831421294" lon="13.824369368494299"><ele>289.0</ele><time>2026-04-11T12:25:29.95Z</time></trkpt><trkpt lat="45.77464776634449" lon="13.824478867217644"><ele>289.0</ele><time>2026-04-11T12:25:30.95Z</time></trkpt><trkpt lat="45.77460765841994" lon="13.82462375275871"><ele>288.59999999999997</ele><time>2026-04-11T12:25:31.95Z</time></trkpt><trkpt lat="45.7745729312627" lon="13.824756362092868"><ele>288.2</ele><time>2026-04-11T12:25:32.95Z</time></trkpt><trkpt lat="45.774538806447374" lon="13.824862190687575"><ele>287.79999999999995</ele><time>2026-04-11T12:25:33.95Z</time></trkpt><trkpt lat="45.77450547506226" lon="13.824954139502955"><ele>287.4</ele><time>2026-04-11T12:25:34.95Z</time></trkpt><trkpt lat="45.774443579455344" lon="13.82507208355078"><ele>287.0</ele><time>2026-04-11T12:25:36.95Z</time></trkpt><trkpt lat="45.774394009971516" lon="13.825214489265571"><ele>287.33333333333337</ele><time>2026-04-11T12:25:38.95Z</time></trkpt><trkpt lat="45.77433726694369" lon="13.82527143586447"><ele>287.6666666666667</ele><time>2026-04-11T12:25:39.95Z</time></trkpt><trkpt lat="45.77427753390647" lon="13.825319502311196"><ele>288.0</ele><time>2026-04-11T12:25:40.95Z</time></trkpt><trkpt lat="45.774220315713244" lon="13.825361586663425"><ele>288.3333333333333</ele><time>2026-04-11T12:25:41.95Z</time></trkpt><trkpt lat="45.774125707077985" lon="13.825464166924402"><ele>288.66666666666663</ele><time>2026-04-11T12:25:43.95Z</time></trkpt><trkpt lat="45.774126478336726" lon="13.82559190386027"><ele>289.0</ele><time>2026-04-11T12:25:45.95Z</time></trkpt><trkpt lat="45.77418622135191" lon="13.825696155319077"><ele>289.0</ele><time>2026-04-11T12:25:47.95Z</time></trkpt><trkpt lat="45.77428090908109" lon="13.825827838071639"><ele>289.0</ele><time>2026-04-11T12:25:49.95Z</time></trkpt><trkpt lat="45.774313161300185" lon="13.825912631766567"><ele>289.0</ele><time>2026-04-11T12:25:50.95Z</time></trkpt><trkpt lat="45.774347040197384" lon="13.826000823033176"><ele>289.0</ele><time>2026-04-11T12:25:51.949Z</time></trkpt><trkpt lat="45.77439826066598" lon="13.826172549044061"><ele>289.0</ele><time>2026-04-11T12:25:53.949Z</time></trkpt><trkpt lat="45.77442874880732" lon="13.826257578399444"><ele>288.57142857142856</ele><time>2026-04-11T12:25:54.949Z</time></trkpt><trkpt lat="45.774455176606324" lon="13.826347464570455"><ele>288.1428571428571</ele><time>2026-04-11T12:25:55.949Z</time></trkpt><trkpt lat="45.774479711594424" lon="13.82644053318719"><ele>287.71428571428567</ele><time>2026-04-11T12:25:56.949Z</time></trkpt><trkpt lat="45.77450823261626" lon="13.826537604582517"><ele>287.2857142857143</ele><time>2026-04-11T12:25:57.949Z</time></trkpt><trkpt lat="45.77454135344441" lon="13.826622485889121"><ele>286.85714285714283</ele><time>2026-04-11T12:25:58.949Z</time></trkpt><trkpt lat="45.77457077670326" lon="13.826719230304262"><ele>286.4285714285714</ele><time>2026-04-11T12:25:59.949Z</time></trkpt><trkpt lat="45.77460298925626" lon="13.826817509805796"><ele>286.0</ele><time>2026-04-11T12:26:00.949Z</time></trkpt><trkpt lat="45.77463926743358" lon="13.826903492927883"><ele>285.40000000000003</ele><time>2026-04-11T12:26:01.949Z</time></trkpt><trkpt lat="45.774680264872345" lon="13.826997283406305"><ele>284.8</ele><time>2026-04-11T12:26:02.949Z</time></trkpt><trkpt lat="45.77471695970005" lon="13.827078527396015"><ele>284.20000000000005</ele><time>2026-04-11T12:26:03.949Z</time></trkpt><trkpt lat="45.774761385495786" lon="13.827163409898882"><ele>283.6</ele><time>2026-04-11T12:26:04.949Z</time></trkpt><trkpt lat="45.774815184005774" lon="13.827294787744918"><ele>283.0</ele><time>2026-04-11T12:26:06.949Z</time></trkpt><trkpt lat="45.774897951093685" lon="13.827449648267999"><ele>283.0</ele><time>2026-04-11T12:26:08.949Z</time></trkpt><trkpt lat="45.77499513889033" lon="13.827537176342148"><ele>283.0</ele><time>2026-04-11T12:26:09.949Z</time></trkpt><trkpt lat="45.77511472465586" lon="13.827656748138043"><ele>283.0</ele><time>2026-04-11T12:26:10.949Z</time></trkpt><trkpt lat="45.775228859847836" lon="13.827773361591262"><ele>283.0</ele><time>2026-04-11T12:26:11.949Z</time></trkpt><trkpt lat="45.775342545050954" lon="13.827887584217498"><ele>281.0</ele><time>2026-04-11T12:26:12.949Z</time></trkpt><trkpt lat="45.775468573530596" lon="13.828029026600948"><ele>279.0</ele><time>2026-04-11T12:26:13.949Z</time></trkpt><trkpt lat="45.77558864582877" lon="13.828210707444445"><ele>277.0</ele><time>2026-04-11T12:26:14.949Z</time></trkpt><trkpt lat="45.77569677454873" lon="13.828410669330978"><ele>276.3333333333333</ele><time>2026-04-11T12:26:15.949Z</time></trkpt><trkpt lat="45.775798088000904" lon="13.828594330156614"><ele>275.6666666666667</ele><time>2026-04-11T12:26:16.949Z</time></trkpt><trkpt lat="45.77591062388212" lon="13.82875344612676"><ele>275.0</ele><time>2026-04-11T12:26:17.949Z</time></trkpt><trkpt lat="45.77604372482483" lon="13.828896746499975"><ele>275.0</ele><time>2026-04-11T12:26:18.949Z</time></trkpt><trkpt lat="45.77619017149064" lon="13.829036362967788"><ele>275.0</ele><time>2026-04-11T12:26:19.949Z</time></trkpt><trkpt lat="45.776339901767834" lon="13.829163648388887"><ele>275.0</ele><time>2026-04-11T12:26:20.949Z</time></trkpt><trkpt lat="45.776479839596824" lon="13.829300660392233"><ele>273.33333333333337</ele><time>2026-04-11T12:26:21.949Z</time></trkpt><trkpt lat="45.776595815762676" lon="13.82945612201799"><ele>271.6666666666667</ele><time>2026-04-11T12:26:22.949Z</time></trkpt><trkpt lat="45.77672800699155" lon="13.829583310713518"><ele>270.0</ele><time>2026-04-11T12:26:23.949Z</time></trkpt><trkpt lat="45.776859407929926" lon="13.829709738993412"><ele>270.0</ele><time>2026-04-11T12:26:24.949Z</time></trkpt><trkpt lat="45.776995631472786" lon="13.82984080697239"><ele>270.0</ele><time>2026-04-11T12:26:25.949Z</time></trkpt><trkpt lat="45.77712545291183" lon="13.829965715673172"><ele>270.0</ele><time>2026-04-11T12:26:26.949Z</time></trkpt><trkpt lat="45.77727000073772" lon="13.830082916669497"><ele>270.0</ele><time>2026-04-11T12:26:27.949Z</time></trkpt><trkpt lat="45.777405423035454" lon="13.83022684780721"><ele>270.0</ele><time>2026-04-11T12:26:28.949Z</time></trkpt><trkpt lat="45.7775413870925" lon="13.830392175032454"><ele>270.0</ele><time>2026-04-11T12:26:29.949Z</time></trkpt><trkpt lat="45.77764036468767" lon="13.830600784451425"><ele>271.3333333333333</ele><time>2026-04-11T12:26:30.949Z</time></trkpt><trkpt lat="45.77774375842969" lon="13.83081677378423"><ele>272.66666666666663</ele><time>2026-04-11T12:26:31.949Z</time></trkpt><trkpt lat="45.777845012731596" lon="13.831029892800812"><ele>274.0</ele><time>2026-04-11T12:26:32.949Z</time></trkpt><trkpt lat="45.77796234272526" lon="13.831226197920538"><ele>274.0</ele><time>2026-04-11T12:26:33.949Z</time></trkpt><trkpt lat="45.778086100326334" lon="13.831427289514382"><ele>274.0</ele><time>2026-04-11T12:26:34.949Z</time></trkpt><trkpt lat="45.778239789334684" lon="13.831617712446645"><ele>274.0</ele><time>2026-04-11T12:26:35.949Z</time></trkpt><trkpt lat="45.778378374194716" lon="13.831821055011284"><ele>274.3333333333333</ele><time>2026-04-11T12:26:36.949Z</time></trkpt><trkpt lat="45.778518311657876" lon="13.831992162916556"><ele>274.6666666666667</ele><time>2026-04-11T12:26:37.949Z</time></trkpt><trkpt lat="45.77865168845552" lon="13.832154723001056"><ele>275.0</ele><time>2026-04-11T12:26:38.949Z</time></trkpt><trkpt lat="45.77879048347093" lon="13.832280967153968"><ele>275.0</ele><time>2026-04-11T12:26:39.949Z</time></trkpt><trkpt lat="45.77893193180681" lon="13.832398410243405"><ele>275.0</ele><time>2026-04-11T12:26:40.949Z</time></trkpt><trkpt lat="45.779092141578204" lon="13.832491430328917"><ele>275.0</ele><time>2026-04-11T12:26:41.949Z</time></trkpt><trkpt lat="45.77925867036403" lon="13.83255975465118"><ele>276.0</ele><time>2026-04-11T12:26:42.949Z</time></trkpt><trkpt lat="45.77943055324189" lon="13.832613461440985"><ele>277.0</ele><time>2026-04-11T12:26:43.949Z</time></trkpt><trkpt lat="45.779599040011554" lon="13.832661288548826"><ele>278.0</ele><time>2026-04-11T12:26:44.949Z</time></trkpt><trkpt lat="45.77976499288754" lon="13.832688432079967"><ele>278.0</ele><time>2026-04-11T12:26:45.949Z</time></trkpt><trkpt lat="45.77993852898959" lon="13.83269203953469"><ele>278.0</ele><time>2026-04-11T12:26:46.949Z</time></trkpt><trkpt lat="45.78009946042924" lon="13.832686314521602"><ele>278.0</ele><time>2026-04-11T12:26:47.949Z</time></trkpt><trkpt lat="45.78026370740022" lon="13.832676636888717"><ele>279.33333333333337</ele><time>2026-04-11T12:26:48.949Z</time></trkpt><trkpt lat="45.78042372007625" lon="13.832671866638664"><ele>280.6666666666667</ele><time>2026-04-11T12:26:49.949Z</time></trkpt><trkpt lat="45.78057286571033" lon="13.83266813878902"><ele>282.0</ele><time>2026-04-11T12:26:50.949Z</time></trkpt><trkpt lat="45.78071952016306" lon="13.832678077696556"><ele>282.0</ele><time>2026-04-11T12:26:51.949Z</time></trkpt><trkpt lat="45.78086610821234" lon="13.832702982607818"><ele>282.0</ele><time>2026-04-11T12:26:52.949Z</time></trkpt><trkpt lat="45.781000423989596" lon="13.83275377849691"><ele>282.0</ele><time>2026-04-11T12:26:53.949Z</time></trkpt><trkpt lat="45.78110346765452" lon="13.832868728388958"><ele>282.0</ele><time>2026-04-11T12:26:54.949Z</time></trkpt><trkpt lat="45.78119530761278" lon="13.833007500432295"><ele>281.75</ele><time>2026-04-11T12:26:55.949Z</time></trkpt><trkpt lat="45.781258046757216" lon="13.833170407385635"><ele>281.5</ele><time>2026-04-11T12:26:56.949Z</time></trkpt><trkpt lat="45.781302050562154" lon="13.833341869982968"><ele>281.25</ele><time>2026-04-11T12:26:57.949Z</time></trkpt><trkpt lat="45.781354491870005" lon="13.83349228886308"><ele>281.0</ele><time>2026-04-11T12:26:58.949Z</time></trkpt><trkpt lat="45.78139376568308" lon="13.833634005172414"><ele>281.0</ele><time>2026-04-11T12:26:59.949Z</time></trkpt><trkpt lat="45.78145360855042" lon="13.833746376988573"><ele>281.0</ele><time>2026-04-11T12:27:00.949Z</time></trkpt><trkpt lat="45.781512708789194" lon="13.833823532010339"><ele>281.0</ele><time>2026-04-11T12:27:01.949Z</time></trkpt><trkpt lat="45.78157694861571" lon="13.833837638922605"><ele>281.0</ele><time>2026-04-11T12:27:02.949Z</time></trkpt><trkpt lat="45.781624642950085" lon="13.833906785654394"><ele>281.0</ele><time>2026-04-11T12:27:05.949Z</time></trkpt><trkpt lat="45.78160164922463" lon="13.83399716534558"><ele>281.0</ele><time>2026-04-11T12:27:07.949Z</time></trkpt><trkpt lat="45.78155954267239" lon="13.834099988794984"><ele>281.0</ele><time>2026-04-11T12:27:09.949Z</time></trkpt><trkpt lat="45.78153102705835" lon="13.834252669588299"><ele>281.0</ele><time>2026-04-11T12:27:11.949Z</time></trkpt><trkpt lat="45.78151140169381" lon="13.834344809923875"><ele>281.0</ele><time>2026-04-11T12:27:12.949Z</time></trkpt><trkpt lat="45.78150461652207" lon="13.834508657711071"><ele>281.0</ele><time>2026-04-11T12:27:14.948Z</time></trkpt><trkpt lat="45.78154628819384" lon="13.83466507345998"><ele>281.0</ele><time>2026-04-11T12:27:16.948Z</time></trkpt><trkpt lat="45.78153062664426" lon="13.834814024232582"><ele>281.0</ele><time>2026-04-11T12:27:18.948Z</time></trkpt><trkpt lat="45.781510542499205" lon="13.834957289217684"><ele>281.0</ele><time>2026-04-11T12:27:20.948Z</time></trkpt><trkpt lat="45.78142927139662" lon="13.835107099913468"><ele>281.0</ele><time>2026-04-11T12:27:22.948Z</time></trkpt><trkpt lat="45.781384722991156" lon="13.835197953340565"><ele>281.0</ele><time>2026-04-11T12:27:23.948Z</time></trkpt><trkpt lat="45.78133376511971" lon="13.835295321992954"><ele>281.0</ele><time>2026-04-11T12:27:24.948Z</time></trkpt><trkpt lat="45.781275968792315" lon="13.835397261243248"><ele>280.83333333333337</ele><time>2026-04-11T12:27:25.949Z</time></trkpt><trkpt lat="45.78121789661005" lon="13.835491758678407"><ele>280.6666666666667</ele><time>2026-04-11T12:27:26.948Z</time></trkpt><trkpt lat="45.78116018645507" lon="13.835596551662535"><ele>280.5</ele><time>2026-04-11T12:27:27.948Z</time></trkpt><trkpt lat="45.781102085801486" lon="13.835700233955984"><ele>280.3333333333333</ele><time>2026-04-11T12:27:28.949Z</time></trkpt><trkpt lat="45.781053011773686" lon="13.835786496856732"><ele>280.16666666666663</ele><time>2026-04-11T12:27:29.948Z</time></trkpt><trkpt lat="45.78099632059014" lon="13.835886586710945"><ele>280.0</ele><time>2026-04-11T12:27:30.948Z</time></trkpt><trkpt lat="45.78092655410309" lon="13.83596880277771"><ele>279.4</ele><time>2026-04-11T12:27:31.948Z</time></trkpt><trkpt lat="45.78084701480496" lon="13.836043497989133"><ele>278.8</ele><time>2026-04-11T12:27:32.948Z</time></trkpt><trkpt lat="45.78074910522422" lon="13.836091057083577"><ele>278.2</ele><time>2026-04-11T12:27:33.948Z</time></trkpt><trkpt lat="45.780640678621864" lon="13.836127186057208"><ele>277.6</ele><time>2026-04-11T12:27:34.948Z</time></trkpt><trkpt lat="45.78054559571465" lon="13.836180655618584"><ele>277.0</ele><time>2026-04-11T12:27:35.948Z</time></trkpt><trkpt lat="45.78047925226423" lon="13.836240730757932"><ele>277.0</ele><time>2026-04-11T12:27:36.948Z</time></trkpt><trkpt lat="45.78043679593314" lon="13.836321909193975"><ele>277.0</ele><time>2026-04-11T12:27:37.948Z</time></trkpt><trkpt lat="45.78040284005611" lon="13.836433559203508"><ele>277.0</ele><time>2026-04-11T12:27:38.948Z</time></trkpt><trkpt lat="45.780384718614464" lon="13.836542431697085"><ele>277.0</ele><time>2026-04-11T12:27:39.948Z</time></trkpt><trkpt lat="45.780352747877096" lon="13.836646585005369"><ele>277.0</ele><time>2026-04-11T12:27:40.948Z</time></trkpt><trkpt lat="45.78034660549254" lon="13.83674829589145"><ele>277.0</ele><time>2026-04-11T12:27:41.948Z</time></trkpt><trkpt lat="45.78036214433434" lon="13.836930879068225"><ele>276.8</ele><time>2026-04-11T12:27:43.948Z</time></trkpt><trkpt lat="45.78039292757297" lon="13.837024662735933"><ele>276.6</ele><time>2026-04-11T12:27:44.948Z</time></trkpt><trkpt lat="45.7804665127754" lon="13.837165697330061"><ele>276.40000000000003</ele><time>2026-04-11T12:27:46.948Z</time></trkpt><trkpt lat="45.78049477979975" lon="13.837293337883965"><ele>276.2</ele><time>2026-04-11T12:27:48.948Z</time></trkpt><trkpt lat="45.78048549851085" lon="13.837456076854615"><ele>276.0</ele><time>2026-04-11T12:27:50.948Z</time></trkpt><trkpt lat="45.78046492824227" lon="13.837555406069466"><ele>276.0</ele><time>2026-04-11T12:27:51.948Z</time></trkpt><trkpt lat="45.78043591856927" lon="13.837667304864143"><ele>276.0</ele><time>2026-04-11T12:27:52.948Z</time></trkpt><trkpt lat="45.78041055831984" lon="13.837785684441005"><ele>276.0</ele><time>2026-04-11T12:27:53.948Z</time></trkpt><trkpt lat="45.78039580364121" lon="13.837894376861072"><ele>276.0</ele><time>2026-04-11T12:27:54.948Z</time></trkpt><trkpt lat="45.7803710646689" lon="13.838001600675462"><ele>276.0</ele><time>2026-04-11T12:27:55.948Z</time></trkpt><trkpt lat="45.780338209540346" lon="13.838106827542676"><ele>276.0</ele><time>2026-04-11T12:27:56.948Z</time></trkpt><trkpt lat="45.780293100862316" lon="13.838228444231936"><ele>276.0</ele><time>2026-04-11T12:27:57.948Z</time></trkpt><trkpt lat="45.78024540396768" lon="13.838360529482324"><ele>276.0</ele><time>2026-04-11T12:27:58.948Z</time></trkpt><trkpt lat="45.78018687809791" lon="13.838497297885537"><ele>276.0</ele><time>2026-04-11T12:27:59.948Z</time></trkpt><trkpt lat="45.780125373636096" lon="13.838650473394853"><ele>276.0</ele><time>2026-04-11T12:28:00.948Z</time></trkpt><trkpt lat="45.780071179368846" lon="13.838769635758608"><ele>276.0</ele><time>2026-04-11T12:28:01.948Z</time></trkpt><trkpt lat="45.78001918273381" lon="13.83891824982078"><ele>275.2</ele><time>2026-04-11T12:28:02.948Z</time></trkpt><trkpt lat="45.77998082757972" lon="13.83903934868731"><ele>274.40000000000003</ele><time>2026-04-11T12:28:03.948Z</time></trkpt><trkpt lat="45.77993343544515" lon="13.839150531810262"><ele>273.6</ele><time>2026-04-11T12:28:04.948Z</time></trkpt><trkpt lat="45.77986832023897" lon="13.839248814494054"><ele>272.8</ele><time>2026-04-11T12:28:05.948Z</time></trkpt><trkpt lat="45.77983278737726" lon="13.83939569971749"><ele>272.0</ele><time>2026-04-11T12:28:06.948Z</time></trkpt><trkpt lat="45.779762629368655" lon="13.839465653470452"><ele>272.0</ele><time>2026-04-11T12:28:07.948Z</time></trkpt><trkpt lat="45.779699089164396" lon="13.839509512367945"><ele>272.0</ele><time>2026-04-11T12:28:08.948Z</time></trkpt><trkpt lat="45.77964152568228" lon="13.839546739198738"><ele>272.0</ele><time>2026-04-11T12:28:09.948Z</time></trkpt><trkpt lat="45.77957273037054" lon="13.839588785468308"><ele>272.0</ele><time>2026-04-11T12:28:10.948Z</time></trkpt><trkpt lat="45.77950091286131" lon="13.839632678405405"><ele>272.0</ele><time>2026-04-11T12:28:11.948Z</time></trkpt><trkpt lat="45.77940602865427" lon="13.839716167569383"><ele>272.0</ele><time>2026-04-11T12:28:13.948Z</time></trkpt><trkpt lat="45.779352827557766" lon="13.839786838395131"><ele>272.6</ele><time>2026-04-11T12:28:14.948Z</time></trkpt><trkpt lat="45.77930096108545" lon="13.839887495562738"><ele>273.2</ele><time>2026-04-11T12:28:15.948Z</time></trkpt><trkpt lat="45.779268388389596" lon="13.840009817938274"><ele>273.8</ele><time>2026-04-11T12:28:16.948Z</time></trkpt><trkpt lat="45.77922777198544" lon="13.840132309422604"><ele>274.4</ele><time>2026-04-11T12:28:17.948Z</time></trkpt><trkpt lat="45.779192767889406" lon="13.840257400564795"><ele>275.0</ele><time>2026-04-11T12:28:18.948Z</time></trkpt><trkpt lat="45.77916114578723" lon="13.840378782568607"><ele>275.0</ele><time>2026-04-11T12:28:19.948Z</time></trkpt><trkpt lat="45.779137596642514" lon="13.840505676810192"><ele>275.0</ele><time>2026-04-11T12:28:20.947Z</time></trkpt><trkpt lat="45.77912495558152" lon="13.840632132554571"><ele>275.0</ele><time>2026-04-11T12:28:21.947Z</time></trkpt><trkpt lat="45.77911908792049" lon="13.840761532003802"><ele>275.0</ele><time>2026-04-11T12:28:22.947Z</time></trkpt><trkpt lat="45.7791230865015" lon="13.840931835125343"><ele>275.0</ele><time>2026-04-11T12:28:23.947Z</time></trkpt><trkpt lat="45.77911254452099" lon="13.841080723140797"><ele>275.6666666666667</ele><time>2026-04-11T12:28:24.947Z</time></trkpt><trkpt lat="45.77910214108001" lon="13.841218682407103"><ele>276.33333333333337</ele><time>2026-04-11T12:28:25.947Z</time></trkpt><trkpt lat="45.77907655290547" lon="13.84133376098527"><ele>277.0</ele><time>2026-04-11T12:28:26.947Z</time></trkpt><trkpt lat="45.77903976770019" lon="13.841438716399857"><ele>277.6666666666667</ele><time>2026-04-11T12:28:27.947Z</time></trkpt><trkpt lat="45.7790169472063" lon="13.841530055632985"><ele>278.3333333333333</ele><time>2026-04-11T12:28:28.947Z</time></trkpt><trkpt lat="45.77898968636868" lon="13.841613890412548"><ele>279.0</ele><time>2026-04-11T12:28:29.947Z</time></trkpt><trkpt lat="45.778971653254445" lon="13.841711719931451"><ele>279.0</ele><time>2026-04-11T12:28:30.947Z</time></trkpt><trkpt lat="45.77895518106202" lon="13.841804502766966"><ele>279.0</ele><time>2026-04-11T12:28:31.947Z</time></trkpt><trkpt lat="45.778944050484455" lon="13.841904675486694"><ele>279.0</ele><time>2026-04-11T12:28:32.947Z</time></trkpt><trkpt lat="45.778908053704825" lon="13.842029860959869"><ele>279.0</ele><time>2026-04-11T12:28:34.947Z</time></trkpt><trkpt lat="45.77886968840799" lon="13.842129470796378"><ele>279.0</ele><time>2026-04-11T12:28:36.947Z</time></trkpt><trkpt lat="45.778835069609045" lon="13.842256140270386"><ele>279.0</ele><time>2026-04-11T12:28:38.947Z</time></trkpt><trkpt lat="45.77881355103498" lon="13.842370370197335"><ele>279.0</ele><time>2026-04-11T12:28:40.947Z</time></trkpt><trkpt lat="45.7787814425511" lon="13.842482097978102"><ele>279.0</ele><time>2026-04-11T12:28:42.947Z</time></trkpt><trkpt lat="45.77875401426402" lon="13.84258664084146"><ele>279.0</ele><time>2026-04-11T12:28:44.947Z</time></trkpt><trkpt lat="45.778682576175456" lon="13.842750811725626"><ele>279.0</ele><time>2026-04-11T12:28:46.947Z</time></trkpt><trkpt lat="45.778645364399715" lon="13.842823761905809"><ele>279.0</ele><time>2026-04-11T12:28:47.947Z</time></trkpt><trkpt lat="45.77856660104101" lon="13.842922508702536"><ele>278.5</ele><time>2026-04-11T12:28:49.947Z</time></trkpt><trkpt lat="45.778493020843214" lon="13.843018794255256"><ele>278.0</ele><time>2026-04-11T12:28:51.947Z</time></trkpt><trkpt lat="45.778407247830316" lon="13.843075599689566"><ele>277.5</ele><time>2026-04-11T12:28:53.947Z</time></trkpt><trkpt lat="45.77833176648243" lon="13.843140930840367"><ele>277.0</ele><time>2026-04-11T12:28:55.947Z</time></trkpt><trkpt lat="45.778321460659996" lon="13.843254912171638"><ele>276.5</ele><time>2026-04-11T12:28:57.947Z</time></trkpt><trkpt lat="45.77832681471234" lon="13.843345098115394"><ele>276.0</ele><time>2026-04-11T12:28:59.947Z</time></trkpt><trkpt lat="45.7783821765949" lon="13.843442867185153"><ele>276.3333333333333</ele><time>2026-04-11T12:29:01.947Z</time></trkpt><trkpt lat="45.77847367533449" lon="13.84354890698637"><ele>276.6666666666667</ele><time>2026-04-11T12:29:03.947Z</time></trkpt><trkpt lat="45.77851751162526" lon="13.843621225379389"><ele>277.0</ele><time>2026-04-11T12:29:04.947Z</time></trkpt><trkpt lat="45.77857308676379" lon="13.843713008406862"><ele>277.33333333333337</ele><time>2026-04-11T12:29:05.947Z</time></trkpt><trkpt lat="45.778630854361225" lon="13.843796021445575"><ele>277.6666666666667</ele><time>2026-04-11T12:29:06.947Z</time></trkpt><trkpt lat="45.77868736037226" lon="13.84389936782522"><ele>278.0</ele><time>2026-04-11T12:29:07.947Z</time></trkpt><trkpt lat="45.77874608887635" lon="13.844004194778863"><ele>278.0</ele><time>2026-04-11T12:29:08.947Z</time></trkpt><trkpt lat="45.77879310717576" lon="13.844118424321415"><ele>278.0</ele><time>2026-04-11T12:29:09.947Z</time></trkpt><trkpt lat="45.77883680046391" lon="13.844205904983008"><ele>278.0</ele><time>2026-04-11T12:29:10.947Z</time></trkpt><trkpt lat="45.77889084521645" lon="13.84436595629502"><ele>278.0</ele><time>2026-04-11T12:29:12.947Z</time></trkpt><trkpt lat="45.77892199554068" lon="13.844480688009346"><ele>278.0</ele><time>2026-04-11T12:29:13.947Z</time></trkpt><trkpt lat="45.778943536697625" lon="13.844576628220674"><ele>278.0</ele><time>2026-04-11T12:29:14.947Z</time></trkpt><trkpt lat="45.77895755195017" lon="13.844667605622904"><ele>278.1666666666667</ele><time>2026-04-11T12:29:15.947Z</time></trkpt><trkpt lat="45.778983363471454" lon="13.844759452176532"><ele>278.33333333333337</ele><time>2026-04-11T12:29:16.947Z</time></trkpt><trkpt lat="45.77903295704359" lon="13.844843681429843"><ele>278.5</ele><time>2026-04-11T12:29:17.947Z</time></trkpt><trkpt lat="45.77909443463314" lon="13.844922353043467"><ele>278.6666666666667</ele><time>2026-04-11T12:29:18.947Z</time></trkpt><trkpt lat="45.7791351474126" lon="13.845020846184477"><ele>278.8333333333333</ele><time>2026-04-11T12:29:19.947Z</time></trkpt><trkpt lat="45.779192822918645" lon="13.845131064783255"><ele>279.0</ele><time>2026-04-11T12:29:20.947Z</time></trkpt><trkpt lat="45.77924124317729" lon="13.845254287402412"><ele>279.0</ele><time>2026-04-11T12:29:21.947Z</time></trkpt><trkpt lat="45.77928845877555" lon="13.845397895222538"><ele>279.0</ele><time>2026-04-11T12:29:22.947Z</time></trkpt><trkpt lat="45.77934693623299" lon="13.845558127081032"><ele>279.0</ele><time>2026-04-11T12:29:23.947Z</time></trkpt><trkpt lat="45.77940558620836" lon="13.845714357895599"><ele>279.0</ele><time>2026-04-11T12:29:24.947Z</time></trkpt><trkpt lat="45.779462064846605" lon="13.845838437620733"><ele>279.3333333333333</ele><time>2026-04-11T12:29:25.947Z</time></trkpt><trkpt lat="45.779502826955394" lon="13.845937487398256"><ele>279.6666666666667</ele><time>2026-04-11T12:29:26.947Z</time></trkpt><trkpt lat="45.77955586358984" lon="13.846066809397778"><ele>280.0</ele><time>2026-04-11T12:29:28.947Z</time></trkpt><trkpt lat="45.77958006569995" lon="13.846164895172185"><ele>280.33333333333337</ele><time>2026-04-11T12:29:30.947Z</time></trkpt><trkpt lat="45.779613918331606" lon="13.846261294958325"><ele>280.6666666666667</ele><time>2026-04-11T12:29:31.947Z</time></trkpt><trkpt lat="45.77966003767543" lon="13.846352334247612"><ele>281.0</ele><time>2026-04-11T12:29:32.947Z</time></trkpt><trkpt lat="45.77970479303633" lon="13.846444331747577"><ele>281.0</ele><time>2026-04-11T12:29:33.947Z</time></trkpt><trkpt lat="45.77973961404331" lon="13.846543189789934"><ele>281.0</ele><time>2026-04-11T12:29:34.947Z</time></trkpt><trkpt lat="45.779770488188746" lon="13.84664408891917"><ele>281.0</ele><time>2026-04-11T12:29:35.947Z</time></trkpt><trkpt lat="45.77980109360843" lon="13.846766871449852"><ele>281.0</ele><time>2026-04-11T12:29:36.947Z</time></trkpt><trkpt lat="45.77982551408737" lon="13.846918479953368"><ele>281.0</ele><time>2026-04-11T12:29:37.947Z</time></trkpt><trkpt lat="45.7798468197587" lon="13.847061005316963"><ele>281.6666666666667</ele><time>2026-04-11T12:29:38.946Z</time></trkpt><trkpt lat="45.77987853631638" lon="13.847183918254832"><ele>282.33333333333337</ele><time>2026-04-11T12:29:39.946Z</time></trkpt><trkpt lat="45.77991598625044" lon="13.847305657565329"><ele>283.0</ele><time>2026-04-11T12:29:40.947Z</time></trkpt><trkpt lat="45.77997586266738" lon="13.847412203924206"><ele>283.6666666666667</ele><time>2026-04-11T12:29:41.947Z</time></trkpt><trkpt lat="45.780023836719124" lon="13.847489469673802"><ele>284.3333333333333</ele><time>2026-04-11T12:29:42.947Z</time></trkpt><trkpt lat="45.78005746638253" lon="13.847576840091236"><ele>285.0</ele><time>2026-04-11T12:29:43.947Z</time></trkpt><trkpt lat="45.78008233240082" lon="13.847759706750177"><ele>286.6</ele><time>2026-04-11T12:29:45.947Z</time></trkpt><trkpt lat="45.78003119266803" lon="13.847856187754894"><ele>288.2</ele><time>2026-04-11T12:29:47.947Z</time></trkpt><trkpt lat="45.77995927391656" lon="13.848014546312854"><ele>289.8</ele><time>2026-04-11T12:29:49.947Z</time></trkpt><trkpt lat="45.77991220365585" lon="13.84809981383759"><ele>291.4</ele><time>2026-04-11T12:29:50.947Z</time></trkpt><trkpt lat="45.77987298994331" lon="13.848223815679246"><ele>293.0</ele><time>2026-04-11T12:29:52.947Z</time></trkpt><trkpt lat="45.77985979774554" lon="13.848362078615212"><ele>294.0</ele><time>2026-04-11T12:29:54.947Z</time></trkpt><trkpt lat="45.77983996339069" lon="13.848530543747279"><ele>295.0</ele><time>2026-04-11T12:29:56.947Z</time></trkpt><trkpt lat="45.77984475312749" lon="13.848629503126917"><ele>296.0</ele><time>2026-04-11T12:29:57.947Z</time></trkpt><trkpt lat="45.77985113040605" lon="13.848731789519658"><ele>297.0</ele><time>2026-04-11T12:29:58.947Z</time></trkpt><trkpt lat="45.77983262238853" lon="13.848840981824418"><ele>298.0</ele><time>2026-04-11T12:30:00.947Z</time></trkpt><trkpt lat="45.779809461690725" lon="13.848926378541224"><ele>299.0</ele><time>2026-04-11T12:30:02.947Z</time></trkpt><trkpt lat="45.77981302377633" lon="13.849040348648645"><ele>299.0</ele><time>2026-04-11T12:30:05.947Z</time></trkpt><trkpt lat="45.779787807388516" lon="13.84919636205335"><ele>299.0</ele><time>2026-04-11T12:30:07.947Z</time></trkpt><trkpt lat="45.779764432129625" lon="13.84931002535695"><ele>299.0</ele><time>2026-04-11T12:30:08.947Z</time></trkpt><trkpt lat="45.77972995587071" lon="13.849446184424966"><ele>299.0</ele><time>2026-04-11T12:30:10.947Z</time></trkpt><trkpt lat="45.779708436471445" lon="13.849578367145922"><ele>299.0</ele><time>2026-04-11T12:30:13.947Z</time></trkpt><trkpt lat="45.77972459210611" lon="13.849743044627665"><ele>298.5</ele><time>2026-04-11T12:30:15.947Z</time></trkpt><trkpt lat="45.77974655744651" lon="13.849852832006482"><ele>298.0</ele><time>2026-04-11T12:30:16.947Z</time></trkpt><trkpt lat="45.77978663134145" lon="13.849938878210192"><ele>297.5</ele><time>2026-04-11T12:30:17.947Z</time></trkpt><trkpt lat="45.77981954934004" lon="13.85002982133047"><ele>297.0</ele><time>2026-04-11T12:30:18.947Z</time></trkpt><trkpt lat="45.779842096654676" lon="13.850181458031969"><ele>296.5</ele><time>2026-04-11T12:30:20.947Z</time></trkpt><trkpt lat="45.7798557894244" lon="13.850343630672386"><ele>296.0</ele><time>2026-04-11T12:30:22.947Z</time></trkpt><trkpt lat="45.77984570333178" lon="13.850497899676958"><ele>295.5</ele><time>2026-04-11T12:30:24.947Z</time></trkpt><trkpt lat="45.779881336188566" lon="13.850574742807122"><ele>295.0</ele><time>2026-04-11T12:30:25.947Z</time></trkpt><trkpt lat="45.779905471616395" lon="13.850660142534004"><ele>294.5</ele><time>2026-04-11T12:30:26.947Z</time></trkpt><trkpt lat="45.77996167901659" lon="13.850774511781482"><ele>294.0</ele><time>2026-04-11T12:30:27.947Z</time></trkpt><trkpt lat="45.780024247608544" lon="13.85090980983723"><ele>293.5</ele><time>2026-04-11T12:30:28.947Z</time></trkpt><trkpt lat="45.78007131978453" lon="13.851036899247443"><ele>293.0</ele><time>2026-04-11T12:30:29.947Z</time></trkpt><trkpt lat="45.780106837322954" lon="13.851148609013354"><ele>293.0</ele><time>2026-04-11T12:30:30.947Z</time></trkpt><trkpt lat="45.78012834015391" lon="13.851237073614163"><ele>293.0</ele><time>2026-04-11T12:30:31.947Z</time></trkpt><trkpt lat="45.78014168901121" lon="13.851394844929725"><ele>293.0</ele><time>2026-04-11T12:30:33.947Z</time></trkpt><trkpt lat="45.78012445894443" lon="13.851585283287875"><ele>293.0</ele><time>2026-04-11T12:30:35.947Z</time></trkpt><trkpt lat="45.780084187616055" lon="13.851696896638387"><ele>293.0</ele><time>2026-04-11T12:30:36.947Z</time></trkpt><trkpt lat="45.780032714759805" lon="13.851786793287655"><ele>293.33333333333337</ele><time>2026-04-11T12:30:38.947Z</time></trkpt><trkpt lat="45.779967374072385" lon="13.851809528449051"><ele>293.6666666666667</ele><time>2026-04-11T12:30:39.947Z</time></trkpt><trkpt lat="45.779891357613096" lon="13.851873337855345"><ele>294.0</ele><time>2026-04-11T12:30:40.947Z</time></trkpt><trkpt lat="45.77983502781472" lon="13.85197375378766"><ele>294.3333333333333</ele><time>2026-04-11T12:30:41.947Z</time></trkpt><trkpt lat="45.779803229892046" lon="13.852063756229263"><ele>294.66666666666663</ele><time>2026-04-11T12:30:42.947Z</time></trkpt><trkpt lat="45.779772970938275" lon="13.852179592512593"><ele>295.0</ele><time>2026-04-11T12:30:43.947Z</time></trkpt><trkpt lat="45.77975004012236" lon="13.852326303749326"><ele>295.0</ele><time>2026-04-11T12:30:45.947Z</time></trkpt><trkpt lat="45.77972851311339" lon="13.852490214157209"><ele>295.0</ele><time>2026-04-11T12:30:47.947Z</time></trkpt><trkpt lat="45.779729367246354" lon="13.852592835445355"><ele>295.0</ele><time>2026-04-11T12:30:48.947Z</time></trkpt><trkpt lat="45.77970715930276" lon="13.852748837358906"><ele>295.0</ele><time>2026-04-11T12:30:50.946Z</time></trkpt><trkpt lat="45.77963227549222" lon="13.852906277073988"><ele>295.0</ele><time>2026-04-11T12:30:52.946Z</time></trkpt><trkpt lat="45.77958743084797" lon="13.852983098641394"><ele>295.2</ele><time>2026-04-11T12:30:53.946Z</time></trkpt><trkpt lat="45.779498714915476" lon="13.853024246448168"><ele>295.4</ele><time>2026-04-11T12:30:55.946Z</time></trkpt><trkpt lat="45.77942233541376" lon="13.853089507759732"><ele>295.6</ele><time>2026-04-11T12:30:57.946Z</time></trkpt><trkpt lat="45.77939836275606" lon="13.853211153999009"><ele>295.8</ele><time>2026-04-11T12:30:59.946Z</time></trkpt><trkpt lat="45.77941344797543" lon="13.85341585649431"><ele>296.0</ele><time>2026-04-11T12:31:01.946Z</time></trkpt><trkpt lat="45.7794299579824" lon="13.853506484873192"><ele>296.0</ele><time>2026-04-11T12:31:02.946Z</time></trkpt><trkpt lat="45.779459943986424" lon="13.853654445471197"><ele>296.0</ele><time>2026-04-11T12:31:04.946Z</time></trkpt><trkpt lat="45.77945656010015" lon="13.853778832200764"><ele>296.0</ele><time>2026-04-11T12:31:06.946Z</time></trkpt><trkpt lat="45.77944309283448" lon="13.853924290695932"><ele>296.0</ele><time>2026-04-11T12:31:08.946Z</time></trkpt><trkpt lat="45.779397439433005" lon="13.854047415242002"><ele>296.0</ele><time>2026-04-11T12:31:10.946Z</time></trkpt><trkpt lat="45.77937978999378" lon="13.854145047480593"><ele>296.2</ele><time>2026-04-11T12:31:11.946Z</time></trkpt><trkpt lat="45.7793873832442" lon="13.854295375914269"><ele>296.40000000000003</ele><time>2026-04-11T12:31:13.946Z</time></trkpt><trkpt lat="45.77940277284674" lon="13.854445969715274"><ele>296.6</ele><time>2026-04-11T12:31:15.946Z</time></trkpt><trkpt lat="45.77940207447398" lon="13.85453775780644"><ele>296.8</ele><time>2026-04-11T12:31:16.946Z</time></trkpt><trkpt lat="45.77936770360794" lon="13.854702473778486"><ele>297.0</ele><time>2026-04-11T12:31:18.946Z</time></trkpt><trkpt lat="45.779302414736215" lon="13.854880774242117"><ele>297.0</ele><time>2026-04-11T12:31:20.946Z</time></trkpt><trkpt lat="45.77927838487648" lon="13.854973462486452"><ele>297.0</ele><time>2026-04-11T12:31:21.946Z</time></trkpt><trkpt lat="45.779256238742214" lon="13.855085546652957"><ele>297.0</ele><time>2026-04-11T12:31:22.946Z</time></trkpt><trkpt lat="45.77925233138012" lon="13.855191310443262"><ele>297.0</ele><time>2026-04-11T12:31:23.946Z</time></trkpt><trkpt lat="45.77925898027106" lon="13.85529165188696"><ele>297.0</ele><time>2026-04-11T12:31:24.946Z</time></trkpt><trkpt lat="45.77926846590351" lon="13.85538615527228"><ele>297.0</ele><time>2026-04-11T12:31:25.946Z</time></trkpt><trkpt lat="45.779325950681084" lon="13.855526439464464"><ele>297.1666666666667</ele><time>2026-04-11T12:31:27.946Z</time></trkpt><trkpt lat="45.77938657734137" lon="13.85557734900918"><ele>297.3333333333333</ele><time>2026-04-11T12:31:28.946Z</time></trkpt><trkpt lat="45.77950507927638" lon="13.855634044983713"><ele>297.5</ele><time>2026-04-11T12:31:30.946Z</time></trkpt><trkpt lat="45.77956371330174" lon="13.855667335946354"><ele>297.66666666666663</ele><time>2026-04-11T12:31:31.946Z</time></trkpt><trkpt lat="45.779601794049896" lon="13.85574089409905"><ele>297.8333333333333</ele><time>2026-04-11T12:31:34.945Z</time></trkpt><trkpt lat="45.77958599018522" lon="13.855849780315378"><ele>298.0</ele><time>2026-04-11T12:31:43.945Z</time></trkpt><trkpt lat="45.77951299574174" lon="13.855916115301104"><ele>298.3333333333333</ele><time>2026-04-11T12:31:45.945Z</time></trkpt><trkpt lat="45.77943134652325" lon="13.856023276423745"><ele>298.66666666666663</ele><time>2026-04-11T12:31:47.944Z</time></trkpt><trkpt lat="45.7793407853003" lon="13.856146369241625"><ele>299.0</ele><time>2026-04-11T12:31:49.944Z</time></trkpt><trkpt lat="45.779288944339335" lon="13.856225686604384"><ele>299.3333333333333</ele><time>2026-04-11T12:31:50.944Z</time></trkpt><trkpt lat="45.779239869181374" lon="13.856284986854329"><ele>299.6666666666667</ele><time>2026-04-11T12:31:51.944Z</time></trkpt><trkpt lat="45.77918364127694" lon="13.85633074492156"><ele>300.0</ele><time>2026-04-11T12:31:52.944Z</time></trkpt><trkpt lat="45.77907828342753" lon="13.856388138714875"><ele>300.0</ele><time>2026-04-11T12:31:54.944Z</time></trkpt><trkpt lat="45.77897050824573" lon="13.856428541667805"><ele>300.0</ele><time>2026-04-11T12:31:56.944Z</time></trkpt><trkpt lat="45.77886512815557" lon="13.856482087344485"><ele>300.0</ele><time>2026-04-11T12:31:58.944Z</time></trkpt><trkpt lat="45.77880240406881" lon="13.856523960624674"><ele>300.0</ele><time>2026-04-11T12:31:59.944Z</time></trkpt><trkpt lat="45.77874329884163" lon="13.856559609557653"><ele>300.0</ele><time>2026-04-11T12:32:00.944Z</time></trkpt><trkpt lat="45.778671861733955" lon="13.856598294014118"><ele>300.0</ele><time>2026-04-11T12:32:01.944Z</time></trkpt><trkpt lat="45.77860800425104" lon="13.856629557256344"><ele>300.0</ele><time>2026-04-11T12:32:02.944Z</time></trkpt><trkpt lat="45.778525120962264" lon="13.856667799062084"><ele>300.0</ele><time>2026-04-11T12:32:03.944Z</time></trkpt><trkpt lat="45.77844616034044" lon="13.856682417937433"><ele>300.0</ele><time>2026-04-11T12:32:04.944Z</time></trkpt><trkpt lat="45.77837175617334" lon="13.856716168077687"><ele>300.0</ele><time>2026-04-11T12:32:05.944Z</time></trkpt><trkpt lat="45.778291932585205" lon="13.85675785111162"><ele>300.0</ele><time>2026-04-11T12:32:06.944Z</time></trkpt><trkpt lat="45.778233218667424" lon="13.856795012556843"><ele>300.0</ele><time>2026-04-11T12:32:07.944Z</time></trkpt><trkpt lat="45.77815918813289" lon="13.856844542311569"><ele>300.0</ele><time>2026-04-11T12:32:08.944Z</time></trkpt><trkpt lat="45.77808234895278" lon="13.856870270106278"><ele>300.0</ele><time>2026-04-11T12:32:09.944Z</time></trkpt><trkpt lat="45.77800943094637" lon="13.856901961320364"><ele>300.0</ele><time>2026-04-11T12:32:10.944Z</time></trkpt><trkpt lat="45.77793211757412" lon="13.85693562572625"><ele>300.0</ele><time>2026-04-11T12:32:11.944Z</time></trkpt><trkpt lat="45.77786413900231" lon="13.856997106001533"><ele>300.0</ele><time>2026-04-11T12:32:12.944Z</time></trkpt><trkpt lat="45.77781302259792" lon="13.857066953024182"><ele>300.0</ele><time>2026-04-11T12:32:13.944Z</time></trkpt><trkpt lat="45.77777298662819" lon="13.857138865662263"><ele>300.0</ele><time>2026-04-11T12:32:14.944Z</time></trkpt><trkpt lat="45.77772230581606" lon="13.85727489988502"><ele>300.0</ele><time>2026-04-11T12:32:16.944Z</time></trkpt><trkpt lat="45.777695442136576" lon="13.857411899562846"><ele>300.0</ele><time>2026-04-11T12:32:18.944Z</time></trkpt><trkpt lat="45.777671829785206" lon="13.857499480938777"><ele>300.0</ele><time>2026-04-11T12:32:19.944Z</time></trkpt><trkpt lat="45.777635006214936" lon="13.857612578287071"><ele>300.0</ele><time>2026-04-11T12:32:21.944Z</time></trkpt><trkpt lat="45.777607252380704" lon="13.857734576333709"><ele>300.0</ele><time>2026-04-11T12:32:23.944Z</time></trkpt><trkpt lat="45.777549342639816" lon="13.857894051761829"><ele>299.2</ele><time>2026-04-11T12:32:25.944Z</time></trkpt><trkpt lat="45.77746833215563" lon="13.857985152701268"><ele>298.4</ele><time>2026-04-11T12:32:27.944Z</time></trkpt><trkpt lat="45.77734835809193" lon="13.858056251859281"><ele>297.6</ele><time>2026-04-11T12:32:29.944Z</time></trkpt><trkpt lat="45.77727412164613" lon="13.858090348108135"><ele>296.8</ele><time>2026-04-11T12:32:30.944Z</time></trkpt><trkpt lat="45.77720127636187" lon="13.85811661925045"><ele>296.0</ele><time>2026-04-11T12:32:31.944Z</time></trkpt><trkpt lat="45.77712478688953" lon="13.85814212481793"><ele>296.0</ele><time>2026-04-11T12:32:32.944Z</time></trkpt><trkpt lat="45.777060691169" lon="13.858169017186635"><ele>296.0</ele><time>2026-04-11T12:32:33.944Z</time></trkpt><trkpt lat="45.77699664339728" lon="13.858193343424738"><ele>296.0</ele><time>2026-04-11T12:32:34.944Z</time></trkpt><trkpt lat="45.77688044480194" lon="13.85820969600405"><ele>296.0</ele><time>2026-04-11T12:32:36.944Z</time></trkpt><trkpt lat="45.77680631551623" lon="13.858197013532825"><ele>296.0</ele><time>2026-04-11T12:32:37.944Z</time></trkpt><trkpt lat="45.7767244952698" lon="13.858179006355329"><ele>296.0</ele><time>2026-04-11T12:32:38.944Z</time></trkpt><trkpt lat="45.776633399868196" lon="13.858158544429811"><ele>295.0</ele><time>2026-04-11T12:32:39.944Z</time></trkpt><trkpt lat="45.77656055434836" lon="13.858140155833938"><ele>294.0</ele><time>2026-04-11T12:32:40.944Z</time></trkpt><trkpt lat="45.77649662190362" lon="13.858125872199532"><ele>293.0</ele><time>2026-04-11T12:32:41.944Z</time></trkpt><trkpt lat="45.77637653670471" lon="13.858169391267069"><ele>292.0</ele><time>2026-04-11T12:32:43.944Z</time></trkpt><trkpt lat="45.77630615079766" lon="13.858238184860463"><ele>291.0</ele><time>2026-04-11T12:32:44.944Z</time></trkpt><trkpt lat="45.77623450903038" lon="13.858302008683182"><ele>290.0</ele><time>2026-04-11T12:32:45.944Z</time></trkpt><trkpt lat="45.776169431484185" lon="13.858343411619822"><ele>290.0</ele><time>2026-04-11T12:32:46.944Z</time></trkpt><trkpt lat="45.77609858535191" lon="13.858377049497806"><ele>290.0</ele><time>2026-04-11T12:32:47.944Z</time></trkpt><trkpt lat="45.77603313546054" lon="13.85843284034287"><ele>290.0</ele><time>2026-04-11T12:32:48.944Z</time></trkpt><trkpt lat="45.775964262424196" lon="13.858493389712205"><ele>290.0</ele><time>2026-04-11T12:32:49.944Z</time></trkpt><trkpt lat="45.775889620420195" lon="13.858575523200336"><ele>290.0</ele><time>2026-04-11T12:32:50.944Z</time></trkpt><trkpt lat="45.77581213313448" lon="13.858666908138355"><ele>290.0</ele><time>2026-04-11T12:32:51.944Z</time></trkpt><trkpt lat="45.77573049079938" lon="13.858752343758772"><ele>288.5</ele><time>2026-04-11T12:32:52.944Z</time></trkpt><trkpt lat="45.775660171300906" lon="13.858838551961226"><ele>287.0</ele><time>2026-04-11T12:32:53.944Z</time></trkpt><trkpt lat="45.775592083433395" lon="13.858928703186542"><ele>285.5</ele><time>2026-04-11T12:32:54.944Z</time></trkpt><trkpt lat="45.77553415522298" lon="13.85901770261924"><ele>284.0</ele><time>2026-04-11T12:32:55.943Z</time></trkpt><trkpt lat="45.77547545665416" lon="13.859106552433067"><ele>282.5</ele><time>2026-04-11T12:32:56.943Z</time></trkpt><trkpt lat="45.77542448232403" lon="13.859189950059573"><ele>281.0</ele><time>2026-04-11T12:32:57.943Z</time></trkpt><trkpt lat="45.77537489690328" lon="13.859266243676679"><ele>281.28571428571433</ele><time>2026-04-11T12:32:58.943Z</time></trkpt><trkpt lat="45.77531277069058" lon="13.859325859447749"><ele>281.57142857142856</ele><time>2026-04-11T12:32:59.943Z</time></trkpt><trkpt lat="45.77525443908253" lon="13.859383184729724"><ele>281.8571428571429</ele><time>2026-04-11T12:33:00.943Z</time></trkpt><trkpt lat="45.77517930960064" lon="13.859439828261964"><ele>282.14285714285717</ele><time>2026-04-11T12:33:01.943Z</time></trkpt><trkpt lat="45.77511473282232" lon="13.859488786954003"><ele>282.42857142857144</ele><time>2026-04-11T12:33:02.943Z</time></trkpt><trkpt lat="45.775039726592034" lon="13.85952169060539"><ele>282.7142857142857</ele><time>2026-04-11T12:33:04.943Z</time></trkpt><trkpt lat="45.77497818077241" lon="13.859486292868276"><ele>283.0</ele><time>2026-04-11T12:33:06.943Z</time></trkpt><trkpt lat="45.77489305753311" lon="13.859484321776977"><ele>283.0</ele><time>2026-04-11T12:33:08.943Z</time></trkpt><trkpt lat="45.774791729386145" lon="13.859472898514278"><ele>283.0</ele><time>2026-04-11T12:33:10.943Z</time></trkpt><trkpt lat="45.77472150263589" lon="13.85945576238283"><ele>283.0</ele><time>2026-04-11T12:33:12.943Z</time></trkpt><trkpt lat="45.77464738889073" lon="13.859519290988063"><ele>283.0</ele><time>2026-04-11T12:33:14.943Z</time></trkpt><trkpt lat="45.77458995747497" lon="13.859610604872879"><ele>283.0</ele><time>2026-04-11T12:33:16.943Z</time></trkpt><trkpt lat="45.77452284413043" lon="13.859760566401004"><ele>283.0</ele><time>2026-04-11T12:33:18.943Z</time></trkpt><trkpt lat="45.77448640735113" lon="13.859937354687279"><ele>283.0</ele><time>2026-04-11T12:33:20.943Z</time></trkpt><trkpt lat="45.774468219375045" lon="13.860040007085116"><ele>283.0</ele><time>2026-04-11T12:33:21.943Z</time></trkpt><trkpt lat="45.774468966169565" lon="13.860272375658099"><ele>283.0</ele><time>2026-04-11T12:33:23.943Z</time></trkpt><trkpt lat="45.774473760752834" lon="13.860431832120213"><ele>283.3333333333333</ele><time>2026-04-11T12:33:24.943Z</time></trkpt><trkpt lat="45.77447369730935" lon="13.860577431559195"><ele>283.66666666666663</ele><time>2026-04-11T12:33:25.943Z</time></trkpt><trkpt lat="45.77448206258147" lon="13.860702559231257"><ele>284.0</ele><time>2026-04-11T12:33:26.943Z</time></trkpt><trkpt lat="45.774484536693635" lon="13.860822367985305"><ele>284.3333333333333</ele><time>2026-04-11T12:33:27.943Z</time></trkpt><trkpt lat="45.77449623238554" lon="13.860931302516935"><ele>284.6666666666667</ele><time>2026-04-11T12:33:28.943Z</time></trkpt><trkpt lat="45.77450817370452" lon="13.861040841528354"><ele>285.0</ele><time>2026-04-11T12:33:29.943Z</time></trkpt><trkpt lat="45.77450493014878" lon="13.861136821628355"><ele>286.0</ele><time>2026-04-11T12:33:30.943Z</time></trkpt><trkpt lat="45.77451926651692" lon="13.861258249235489"><ele>287.0</ele><time>2026-04-11T12:33:31.943Z</time></trkpt><trkpt lat="45.77454811280036" lon="13.861383970480283"><ele>288.0</ele><time>2026-04-11T12:33:32.943Z</time></trkpt><trkpt lat="45.77460250546404" lon="13.861506119671128"><ele>289.0</ele><time>2026-04-11T12:33:33.943Z</time></trkpt><trkpt lat="45.77462599364404" lon="13.861622919550866"><ele>290.0</ele><time>2026-04-11T12:33:34.943Z</time></trkpt><trkpt lat="45.77464735100869" lon="13.861737451259966"><ele>291.0</ele><time>2026-04-11T12:33:35.943Z</time></trkpt><trkpt lat="45.77468106736666" lon="13.861853603952646"><ele>292.40000000000003</ele><time>2026-04-11T12:33:36.943Z</time></trkpt><trkpt lat="45.774727875297685" lon="13.861983098830274"><ele>293.8</ele><time>2026-04-11T12:33:37.943Z</time></trkpt><trkpt lat="45.774772075410645" lon="13.86212157611307"><ele>295.20000000000005</ele><time>2026-04-11T12:33:38.943Z</time></trkpt><trkpt lat="45.77481636772073" lon="13.862256302080572"><ele>296.6</ele><time>2026-04-11T12:33:39.943Z</time></trkpt><trkpt lat="45.77485937901359" lon="13.862384923947923"><ele>298.0</ele><time>2026-04-11T12:33:40.943Z</time></trkpt><trkpt lat="45.774905114761346" lon="13.862506875928025"><ele>298.5</ele><time>2026-04-11T12:33:41.942Z</time></trkpt><trkpt lat="45.774950202928004" lon="13.86263247523464"><ele>299.0</ele><time>2026-04-11T12:33:42.942Z</time></trkpt><trkpt lat="45.77498490363479" lon="13.86275186474849"><ele>299.5</ele><time>2026-04-11T12:33:43.942Z</time></trkpt><trkpt lat="45.775038081956566" lon="13.862846363586563"><ele>300.0</ele><time>2026-04-11T12:33:44.943Z</time></trkpt><trkpt lat="45.775088283339116" lon="13.862953710031269"><ele>300.5</ele><time>2026-04-11T12:33:45.943Z</time></trkpt><trkpt lat="45.77513877614541" lon="13.863041973066682"><ele>301.0</ele><time>2026-04-11T12:33:46.943Z</time></trkpt><trkpt lat="45.775193371857654" lon="13.863139945874808"><ele>301.0</ele><time>2026-04-11T12:33:47.942Z</time></trkpt><trkpt lat="45.77522275799563" lon="13.863224126040953"><ele>301.0</ele><time>2026-04-11T12:33:48.942Z</time></trkpt><trkpt lat="45.77525627886719" lon="13.86331818152802"><ele>301.0</ele><time>2026-04-11T12:33:49.942Z</time></trkpt><trkpt lat="45.775293884504165" lon="13.86343358852214"><ele>301.0</ele><time>2026-04-11T12:33:50.943Z</time></trkpt><trkpt lat="45.77533166167886" lon="13.863576376334994"><ele>301.0</ele><time>2026-04-11T12:33:51.943Z</time></trkpt><trkpt lat="45.77538405226383" lon="13.863719376879434"><ele>301.0</ele><time>2026-04-11T12:33:52.942Z</time></trkpt><trkpt lat="45.775425862281466" lon="13.86385990384179"><ele>302.40000000000003</ele><time>2026-04-11T12:33:53.943Z</time></trkpt><trkpt lat="45.77546825509539" lon="13.863979953852333"><ele>303.8</ele><time>2026-04-11T12:33:54.942Z</time></trkpt><trkpt lat="45.77551043877737" lon="13.86408255094362"><ele>305.20000000000005</ele><time>2026-04-11T12:33:55.942Z</time></trkpt><trkpt lat="45.775527525459864" lon="13.864236665422823"><ele>306.6</ele><time>2026-04-11T12:33:56.942Z</time></trkpt><trkpt lat="45.77553170828401" lon="13.864381399080006"><ele>308.0</ele><time>2026-04-11T12:33:57.942Z</time></trkpt><trkpt lat="45.77554388910734" lon="13.86450841061146"><ele>309.33333333333337</ele><time>2026-04-11T12:33:58.942Z</time></trkpt><trkpt lat="45.775551156749515" lon="13.864611508988508"><ele>310.6666666666667</ele><time>2026-04-11T12:33:59.942Z</time></trkpt><trkpt lat="45.775580487301056" lon="13.864691614572315"><ele>312.0</ele><time>2026-04-11T12:34:00.942Z</time></trkpt><trkpt lat="45.775602497693484" lon="13.864784270468824"><ele>313.3333333333333</ele><time>2026-04-11T12:34:01.942Z</time></trkpt><trkpt lat="45.77560751852737" lon="13.864878503622439"><ele>314.66666666666663</ele><time>2026-04-11T12:34:02.942Z</time></trkpt><trkpt lat="45.77559704841822" lon="13.864969139931219"><ele>316.0</ele><time>2026-04-11T12:34:03.942Z</time></trkpt><trkpt lat="45.77561795444664" lon="13.865230126003457"><ele>316.8333333333333</ele><time>2026-04-11T12:34:05.942Z</time></trkpt><trkpt lat="45.77563814913434" lon="13.865341952511995"><ele>317.66666666666663</ele><time>2026-04-11T12:34:06.942Z</time></trkpt><trkpt lat="45.77569664622406" lon="13.86542597364032"><ele>318.5</ele><time>2026-04-11T12:34:07.942Z</time></trkpt><trkpt lat="45.77575431854086" lon="13.865529374284979"><ele>319.3333333333333</ele><time>2026-04-11T12:34:08.942Z</time></trkpt><trkpt lat="45.77579625387988" lon="13.865626822387798"><ele>320.1666666666667</ele><time>2026-04-11T12:34:09.942Z</time></trkpt><trkpt lat="45.77581773493783" lon="13.865765576381932"><ele>321.0</ele><time>2026-04-11T12:34:10.942Z</time></trkpt><trkpt lat="45.77583066613608" lon="13.865878582483273"><ele>322.1666666666667</ele><time>2026-04-11T12:34:11.942Z</time></trkpt><trkpt lat="45.775848616519134" lon="13.865997121975454"><ele>323.3333333333333</ele><time>2026-04-11T12:34:12.942Z</time></trkpt><trkpt lat="45.77586499800744" lon="13.866119147399445"><ele>324.5</ele><time>2026-04-11T12:34:13.942Z</time></trkpt><trkpt lat="45.775890607248286" lon="13.866229531752959"><ele>325.66666666666663</ele><time>2026-04-11T12:34:14.942Z</time></trkpt><trkpt lat="45.775916373827556" lon="13.866332350912192"><ele>326.8333333333333</ele><time>2026-04-11T12:34:15.942Z</time></trkpt><trkpt lat="45.775922546636025" lon="13.866463607242459"><ele>328.0</ele><time>2026-04-11T12:34:16.942Z</time></trkpt><trkpt lat="45.77591736504785" lon="13.866597892322867"><ele>328.0</ele><time>2026-04-11T12:34:17.942Z</time></trkpt><trkpt lat="45.77592031370133" lon="13.866717856478711"><ele>328.0</ele><time>2026-04-11T12:34:18.942Z</time></trkpt><trkpt lat="45.775935707879185" lon="13.866827289024473"><ele>328.0</ele><time>2026-04-11T12:34:19.942Z</time></trkpt><trkpt lat="45.775961469002425" lon="13.866941292929985"><ele>328.0</ele><time>2026-04-11T12:34:20.942Z</time></trkpt><trkpt lat="45.77597896575592" lon="13.86704845484592"><ele>328.0</ele><time>2026-04-11T12:34:21.942Z</time></trkpt><trkpt lat="45.77599911482758" lon="13.867164704075588"><ele>328.0</ele><time>2026-04-11T12:34:22.942Z</time></trkpt><trkpt lat="45.77603816861564" lon="13.867299552879443"><ele>328.59999999999997</ele><time>2026-04-11T12:34:24.942Z</time></trkpt><trkpt lat="45.776116388833294" lon="13.867389605181893"><ele>329.2</ele><time>2026-04-11T12:34:26.942Z</time></trkpt><trkpt lat="45.776178036836136" lon="13.867444922806564"><ele>329.8</ele><time>2026-04-11T12:34:27.942Z</time></trkpt><trkpt lat="45.77625419905675" lon="13.867521577447635"><ele>330.4</ele><time>2026-04-11T12:34:28.942Z</time></trkpt><trkpt lat="45.776333315500885" lon="13.867602576802957"><ele>331.0</ele><time>2026-04-11T12:34:29.942Z</time></trkpt><trkpt lat="45.776427147079765" lon="13.867675896383199"><ele>331.5</ele><time>2026-04-11T12:34:30.942Z</time></trkpt><trkpt lat="45.77651331275163" lon="13.867748422365912"><ele>332.0</ele><time>2026-04-11T12:34:31.942Z</time></trkpt><trkpt lat="45.776589852549115" lon="13.86782024254885"><ele>332.5</ele><time>2026-04-11T12:34:32.942Z</time></trkpt><trkpt lat="45.77666332113181" lon="13.86789374624236"><ele>333.0</ele><time>2026-04-11T12:34:33.942Z</time></trkpt><trkpt lat="45.77672698137372" lon="13.867966060116052"><ele>333.5</ele><time>2026-04-11T12:34:34.942Z</time></trkpt><trkpt lat="45.77677732269454" lon="13.868048837488006"><ele>334.0</ele><time>2026-04-11T12:34:35.942Z</time></trkpt><trkpt lat="45.77682128709587" lon="13.868144840732723"><ele>335.66666666666663</ele><time>2026-04-11T12:34:36.942Z</time></trkpt><trkpt lat="45.776854314215946" lon="13.868248412148878"><ele>337.3333333333333</ele><time>2026-04-11T12:34:37.942Z</time></trkpt><trkpt lat="45.77686958530788" lon="13.86834931821594"><ele>339.0</ele><time>2026-04-11T12:34:38.942Z</time></trkpt><trkpt lat="45.77685331802104" lon="13.868473709862265"><ele>340.6666666666667</ele><time>2026-04-11T12:34:39.942Z</time></trkpt><trkpt lat="45.776858763067246" lon="13.868620652837116"><ele>342.33333333333337</ele><time>2026-04-11T12:34:40.942Z</time></trkpt><trkpt lat="45.77688162037247" lon="13.8687634143618"><ele>344.0</ele><time>2026-04-11T12:34:41.942Z</time></trkpt><trkpt lat="45.776900125117734" lon="13.868891368010859"><ele>343.83333333333337</ele><time>2026-04-11T12:34:42.942Z</time></trkpt><trkpt lat="45.77690267186829" lon="13.868998013973023"><ele>343.6666666666667</ele><time>2026-04-11T12:34:43.942Z</time></trkpt><trkpt lat="45.77687875350026" lon="13.869120123313293"><ele>343.5</ele><time>2026-04-11T12:34:44.942Z</time></trkpt><trkpt lat="45.77684593361241" lon="13.869254445347398"><ele>343.3333333333333</ele><time>2026-04-11T12:34:46.942Z</time></trkpt><trkpt lat="45.77681845934552" lon="13.869365331303682"><ele>343.16666666666663</ele><time>2026-04-11T12:34:48.942Z</time></trkpt><trkpt lat="45.77679250654652" lon="13.86944934451187"><ele>343.0</ele><time>2026-04-11T12:34:49.942Z</time></trkpt><trkpt lat="45.77674817457418" lon="13.869541402698733"><ele>343.0</ele><time>2026-04-11T12:34:50.942Z</time></trkpt><trkpt lat="45.77667828997747" lon="13.869662594513011"><ele>343.0</ele><time>2026-04-11T12:34:51.942Z</time></trkpt><trkpt lat="45.77658869330147" lon="13.869807854245424"><ele>343.0</ele><time>2026-04-11T12:34:52.942Z</time></trkpt><trkpt lat="45.7765117770395" lon="13.869931253005454"><ele>343.0</ele><time>2026-04-11T12:34:53.942Z</time></trkpt><trkpt lat="45.776445321000274" lon="13.870052711606471"><ele>343.16666666666663</ele><time>2026-04-11T12:34:54.942Z</time></trkpt><trkpt lat="45.77639946981334" lon="13.870165642004476"><ele>343.3333333333333</ele><time>2026-04-11T12:34:55.942Z</time></trkpt><trkpt lat="45.77637681169817" lon="13.870266162455016"><ele>343.5</ele><time>2026-04-11T12:34:56.942Z</time></trkpt><trkpt lat="45.776369386656235" lon="13.870394817466991"><ele>343.6666666666667</ele><time>2026-04-11T12:34:58.942Z</time></trkpt><trkpt lat="45.776381118888345" lon="13.870485755459267"><ele>343.83333333333337</ele><time>2026-04-11T12:35:01.942Z</time></trkpt><trkpt lat="45.77632074758065" lon="13.870553995312653"><ele>344.0</ele><time>2026-04-11T12:36:25.941Z</time></trkpt><trkpt lat="45.77625682908231" lon="13.870543398106005"><ele>344.0</ele><time>2026-04-11T12:36:27.941Z</time></trkpt><trkpt lat="45.77616967312946" lon="13.870566244761186"><ele>344.0</ele><time>2026-04-11T12:36:29.941Z</time></trkpt><trkpt lat="45.776099152305136" lon="13.87061804976017"><ele>344.0</ele><time>2026-04-11T12:36:30.941Z</time></trkpt><trkpt lat="45.77601408481344" lon="13.870695285703185"><ele>344.0</ele><time>2026-04-11T12:36:31.941Z</time></trkpt><trkpt lat="45.775917138232174" lon="13.870804811046673"><ele>344.0</ele><time>2026-04-11T12:36:32.941Z</time></trkpt><trkpt lat="45.77581370431514" lon="13.870883705137485"><ele>343.5</ele><time>2026-04-11T12:36:33.941Z</time></trkpt><trkpt lat="45.775730530983495" lon="13.871010795372602"><ele>343.0</ele><time>2026-04-11T12:36:34.941Z</time></trkpt><trkpt lat="45.77562358566125" lon="13.871111125324598"><ele>342.5</ele><time>2026-04-11T12:36:35.941Z</time></trkpt><trkpt lat="45.77551769502397" lon="13.871234883715289"><ele>342.0</ele><time>2026-04-11T12:36:36.941Z</time></trkpt><trkpt lat="45.77539818095267" lon="13.871373871232072"><ele>342.0</ele><time>2026-04-11T12:36:37.941Z</time></trkpt><trkpt lat="45.775272581224066" lon="13.87148829839192"><ele>342.0</ele><time>2026-04-11T12:36:38.941Z</time></trkpt><trkpt lat="45.775153269764566" lon="13.871595828102304"><ele>342.0</ele><time>2026-04-11T12:36:39.941Z</time></trkpt><trkpt lat="45.775027141276595" lon="13.871717248634232"><ele>342.0</ele><time>2026-04-11T12:36:40.941Z</time></trkpt><trkpt lat="45.77489851710632" lon="13.871844327428516"><ele>340.0</ele><time>2026-04-11T12:36:41.941Z</time></trkpt><trkpt lat="45.774767126824706" lon="13.872002127855497"><ele>338.0</ele><time>2026-04-11T12:36:42.941Z</time></trkpt><trkpt lat="45.77462464359428" lon="13.872160471299276"><ele>336.0</ele><time>2026-04-11T12:36:43.941Z</time></trkpt><trkpt lat="45.77450943341615" lon="13.87234147520903"><ele>336.0</ele><time>2026-04-11T12:36:44.941Z</time></trkpt><trkpt lat="45.774397605881575" lon="13.872503266953872"><ele>336.0</ele><time>2026-04-11T12:36:45.941Z</time></trkpt><trkpt lat="45.77429442932496" lon="13.872673934982432"><ele>336.0</ele><time>2026-04-11T12:36:46.941Z</time></trkpt><trkpt lat="45.774200713451926" lon="13.872841425195428"><ele>336.5</ele><time>2026-04-11T12:36:47.941Z</time></trkpt><trkpt lat="45.774137412238844" lon="13.873006947565965"><ele>337.0</ele><time>2026-04-11T12:36:48.94Z</time></trkpt><trkpt lat="45.77405518073805" lon="13.873177064536138"><ele>337.5</ele><time>2026-04-11T12:36:49.94Z</time></trkpt><trkpt lat="45.773979058879554" lon="13.873347872044702"><ele>338.0</ele><time>2026-04-11T12:36:50.94Z</time></trkpt><trkpt lat="45.773900224195756" lon="13.873522939739164"><ele>338.33333333333337</ele><time>2026-04-11T12:36:51.94Z</time></trkpt><trkpt lat="45.77381785692482" lon="13.873701952910407"><ele>338.6666666666667</ele><time>2026-04-11T12:36:52.94Z</time></trkpt><trkpt lat="45.77373117256399" lon="13.873904704010313"><ele>339.0</ele><time>2026-04-11T12:36:53.94Z</time></trkpt><trkpt lat="45.77364183255034" lon="13.874116639484251"><ele>339.0</ele><time>2026-04-11T12:36:54.94Z</time></trkpt><trkpt lat="45.7735441587346" lon="13.874330126718"><ele>339.0</ele><time>2026-04-11T12:36:55.94Z</time></trkpt><trkpt lat="45.77343179001096" lon="13.874537839110925"><ele>339.0</ele><time>2026-04-11T12:36:56.94Z</time></trkpt><trkpt lat="45.773305321466815" lon="13.874733032277701"><ele>339.0</ele><time>2026-04-11T12:36:57.94Z</time></trkpt><trkpt lat="45.77318229868381" lon="13.874962331762747"><ele>339.0</ele><time>2026-04-11T12:36:58.94Z</time></trkpt><trkpt lat="45.77306990886025" lon="13.875191750901022"><ele>339.0</ele><time>2026-04-11T12:36:59.94Z</time></trkpt><trkpt lat="45.77297569875019" lon="13.875450648850958"><ele>339.0</ele><time>2026-04-11T12:37:00.94Z</time></trkpt><trkpt lat="45.77287496677407" lon="13.8757039695074"><ele>339.0</ele><time>2026-04-11T12:37:01.94Z</time></trkpt><trkpt lat="45.7727734884245" lon="13.87591363360412"><ele>339.0</ele><time>2026-04-11T12:37:02.94Z</time></trkpt><trkpt lat="45.77267574063103" lon="13.8761397674382"><ele>337.3333333333333</ele><time>2026-04-11T12:37:03.94Z</time></trkpt><trkpt lat="45.77257967617193" lon="13.876365094746378"><ele>335.66666666666663</ele><time>2026-04-11T12:37:04.94Z</time></trkpt><trkpt lat="45.772488346936434" lon="13.876576320982787"><ele>334.0</ele><time>2026-04-11T12:37:05.94Z</time></trkpt><trkpt lat="45.77239325453648" lon="13.87676423734799"><ele>336.0</ele><time>2026-04-11T12:37:06.94Z</time></trkpt><trkpt lat="45.77226956796192" lon="13.876940342182333"><ele>338.0</ele><time>2026-04-11T12:37:07.94Z</time></trkpt><trkpt lat="45.772147327762546" lon="13.877121708668314"><ele>340.0</ele><time>2026-04-11T12:37:08.94Z</time></trkpt><trkpt lat="45.77202192406245" lon="13.877305911553496"><ele>340.0</ele><time>2026-04-11T12:37:09.94Z</time></trkpt><trkpt lat="45.771883701510674" lon="13.877496781078847"><ele>340.0</ele><time>2026-04-11T12:37:10.94Z</time></trkpt><trkpt lat="45.7717490564502" lon="13.877678282327992"><ele>340.0</ele><time>2026-04-11T12:37:11.94Z</time></trkpt><trkpt lat="45.77160385982121" lon="13.87786517121352"><ele>337.66666666666663</ele><time>2026-04-11T12:37:12.94Z</time></trkpt><trkpt lat="45.77147032145813" lon="13.878038133064251"><ele>335.3333333333333</ele><time>2026-04-11T12:37:13.94Z</time></trkpt><trkpt lat="45.77135293117305" lon="13.878242844134354"><ele>333.0</ele><time>2026-04-11T12:37:14.94Z</time></trkpt><trkpt lat="45.771244611491284" lon="13.878459630745262"><ele>333.0</ele><time>2026-04-11T12:37:15.94Z</time></trkpt><trkpt lat="45.77114516454772" lon="13.878676475504825"><ele>333.0</ele><time>2026-04-11T12:37:16.94Z</time></trkpt><trkpt lat="45.77105815845288" lon="13.878904002716624"><ele>333.0</ele><time>2026-04-11T12:37:17.94Z</time></trkpt><trkpt lat="45.770959127715145" lon="13.879102892788392"><ele>330.0</ele><time>2026-04-11T12:37:18.94Z</time></trkpt><trkpt lat="45.77082790245344" lon="13.879249369147312"><ele>327.0</ele><time>2026-04-11T12:37:19.94Z</time></trkpt><trkpt lat="45.77068789636482" lon="13.879354170407762"><ele>324.0</ele><time>2026-04-11T12:37:20.94Z</time></trkpt><trkpt lat="45.7705449165847" lon="13.87941620207294"><ele>324.0</ele><time>2026-04-11T12:37:21.94Z</time></trkpt><trkpt lat="45.77039665351753" lon="13.879421315733566"><ele>324.0</ele><time>2026-04-11T12:37:22.94Z</time></trkpt><trkpt lat="45.77024026747957" lon="13.879390481838806"><ele>324.0</ele><time>2026-04-11T12:37:23.94Z</time></trkpt><trkpt lat="45.770091458184204" lon="13.879325515034543"><ele>323.3333333333333</ele><time>2026-04-11T12:37:24.94Z</time></trkpt><trkpt lat="45.76993178917098" lon="13.879269137027881"><ele>322.66666666666663</ele><time>2026-04-11T12:37:25.94Z</time></trkpt><trkpt lat="45.76977849934435" lon="13.87920795284653"><ele>322.0</ele><time>2026-04-11T12:37:26.94Z</time></trkpt><trkpt lat="45.76962039535554" lon="13.879221075459093"><ele>322.0</ele><time>2026-04-11T12:37:27.94Z</time></trkpt><trkpt lat="45.76946406824335" lon="13.87928879215244"><ele>322.0</ele><time>2026-04-11T12:37:28.94Z</time></trkpt><trkpt lat="45.76931722481005" lon="13.879398563806527"><ele>322.0</ele><time>2026-04-11T12:37:29.94Z</time></trkpt><trkpt lat="45.76916700441905" lon="13.879520246604983"><ele>323.0</ele><time>2026-04-11T12:37:30.94Z</time></trkpt><trkpt lat="45.769020115914" lon="13.879617199208695"><ele>324.0</ele><time>2026-04-11T12:37:31.94Z</time></trkpt><trkpt lat="45.76885595304236" lon="13.879697458928428"><ele>325.0</ele><time>2026-04-11T12:37:32.94Z</time></trkpt><trkpt lat="45.768687892066346" lon="13.87975164835666"><ele>325.0</ele><time>2026-04-11T12:37:33.94Z</time></trkpt><trkpt lat="45.76854813513977" lon="13.879878150408683"><ele>325.0</ele><time>2026-04-11T12:37:34.94Z</time></trkpt><trkpt lat="45.768407229569746" lon="13.880016161504576"><ele>325.0</ele><time>2026-04-11T12:37:35.94Z</time></trkpt><trkpt lat="45.768274023022165" lon="13.880190088944538"><ele>322.66666666666663</ele><time>2026-04-11T12:37:36.94Z</time></trkpt><trkpt lat="45.76814149039201" lon="13.880352667795028"><ele>320.3333333333333</ele><time>2026-04-11T12:37:37.94Z</time></trkpt><trkpt lat="45.767994872794674" lon="13.880463205440963"><ele>318.0</ele><time>2026-04-11T12:37:38.94Z</time></trkpt><trkpt lat="45.76785469437208" lon="13.88058711646339"><ele>318.0</ele><time>2026-04-11T12:37:39.94Z</time></trkpt><trkpt lat="45.76772667094452" lon="13.880698590710022"><ele>318.0</ele><time>2026-04-11T12:37:40.94Z</time></trkpt><trkpt lat="45.76759927447454" lon="13.880809518920254"><ele>318.0</ele><time>2026-04-11T12:37:41.94Z</time></trkpt><trkpt lat="45.767472580549004" lon="13.880918167995492"><ele>318.0</ele><time>2026-04-11T12:37:42.94Z</time></trkpt><trkpt lat="45.76735162084771" lon="13.88102093554305"><ele>318.5</ele><time>2026-04-11T12:37:43.94Z</time></trkpt><trkpt lat="45.76724688820725" lon="13.881123627816073"><ele>319.0</ele><time>2026-04-11T12:37:44.94Z</time></trkpt><trkpt lat="45.76713751169506" lon="13.881222476876523"><ele>319.5</ele><time>2026-04-11T12:37:45.94Z</time></trkpt><trkpt lat="45.767027560496956" lon="13.881299928938864"><ele>320.0</ele><time>2026-04-11T12:37:46.94Z</time></trkpt><trkpt lat="45.76693308077313" lon="13.881383541782522"><ele>321.0</ele><time>2026-04-11T12:37:47.94Z</time></trkpt><trkpt lat="45.76684617591039" lon="13.881471788548627"><ele>322.0</ele><time>2026-04-11T12:37:48.94Z</time></trkpt><trkpt lat="45.76678099149526" lon="13.88158228286215"><ele>323.0</ele><time>2026-04-11T12:37:49.94Z</time></trkpt><trkpt lat="45.766716997238674" lon="13.881672155853568"><ele>324.0</ele><time>2026-04-11T12:37:50.94Z</time></trkpt><trkpt lat="45.766678777960415" lon="13.881745263148947"><ele>325.0</ele><time>2026-04-11T12:37:51.94Z</time></trkpt><trkpt lat="45.76664821013134" lon="13.881856340198519"><ele>326.0</ele><time>2026-04-11T12:37:53.94Z</time></trkpt><trkpt lat="45.7666385465633" lon="13.881960179062574"><ele>326.5</ele><time>2026-04-11T12:38:05.941Z</time></trkpt><trkpt lat="45.76661541935014" lon="13.882123272053141"><ele>327.0</ele><time>2026-04-11T12:38:07.941Z</time></trkpt><trkpt lat="45.766606774306105" lon="13.882285735514357"><ele>327.5</ele><time>2026-04-11T12:38:09.941Z</time></trkpt><trkpt lat="45.766492191691185" lon="13.882335511294986"><ele>328.0</ele><time>2026-04-11T12:38:10.941Z</time></trkpt><trkpt lat="45.76641292063056" lon="13.882426404266424"><ele>328.0</ele><time>2026-04-11T12:38:11.941Z</time></trkpt><trkpt lat="45.76633610098891" lon="13.882535027872633"><ele>328.0</ele><time>2026-04-11T12:38:12.941Z</time></trkpt><trkpt lat="45.76625645243675" lon="13.882633129078457"><ele>328.0</ele><time>2026-04-11T12:38:13.941Z</time></trkpt><trkpt lat="45.76618913266607" lon="13.882753024592782"><ele>328.0</ele><time>2026-04-11T12:38:14.941Z</time></trkpt><trkpt lat="45.76614069939134" lon="13.882903112593159"><ele>328.0</ele><time>2026-04-11T12:38:15.941Z</time></trkpt><trkpt lat="45.76611017835284" lon="13.88308791239949"><ele>327.59999999999997</ele><time>2026-04-11T12:38:16.941Z</time></trkpt><trkpt lat="45.76608874024618" lon="13.883255126378371"><ele>327.2</ele><time>2026-04-11T12:38:17.941Z</time></trkpt><trkpt lat="45.76604487143179" lon="13.883376756551565"><ele>326.8</ele><time>2026-04-11T12:38:18.941Z</time></trkpt><trkpt lat="45.76598080228675" lon="13.88347855483265"><ele>326.4</ele><time>2026-04-11T12:38:19.941Z</time></trkpt><trkpt lat="45.7659129283546" lon="13.883554954063976"><ele>326.0</ele><time>2026-04-11T12:38:20.941Z</time></trkpt><trkpt lat="45.76583356190161" lon="13.883585391595538"><ele>326.0</ele><time>2026-04-11T12:38:21.941Z</time></trkpt><trkpt lat="45.76575155135596" lon="13.88364925501578"><ele>326.0</ele><time>2026-04-11T12:38:23.941Z</time></trkpt><trkpt lat="45.76565774916851" lon="13.883580143032379"><ele>326.0</ele><time>2026-04-11T12:38:25.941Z</time></trkpt><trkpt lat="45.76559726838096" lon="13.883543468807755"><ele>326.0</ele><time>2026-04-11T12:38:26.941Z</time></trkpt><trkpt lat="45.765483452726116" lon="13.883479939522603"><ele>326.0</ele><time>2026-04-11T12:38:28.941Z</time></trkpt><trkpt lat="45.7653674977154" lon="13.883427254673004"><ele>326.4</ele><time>2026-04-11T12:38:30.941Z</time></trkpt><trkpt lat="45.765299150036505" lon="13.883380804533388"><ele>326.8</ele><time>2026-04-11T12:38:31.941Z</time></trkpt><trkpt lat="45.76520351302981" lon="13.883323242699925"><ele>327.2</ele><time>2026-04-11T12:38:33.941Z</time></trkpt><trkpt lat="45.76510965845335" lon="13.883407313413963"><ele>327.59999999999997</ele><time>2026-04-11T12:38:35.941Z</time></trkpt><trkpt lat="45.76507183944646" lon="13.883538250025262"><ele>328.0</ele><time>2026-04-11T12:38:37.941Z</time></trkpt><trkpt lat="45.765047169644156" lon="13.883724492514423"><ele>327.3333333333333</ele><time>2026-04-11T12:38:39.941Z</time></trkpt><trkpt lat="45.76501737416186" lon="13.883855804432399"><ele>326.66666666666663</ele><time>2026-04-11T12:38:40.941Z</time></trkpt><trkpt lat="45.765001956617866" lon="13.883980857021"><ele>326.0</ele><time>2026-04-11T12:38:41.941Z</time></trkpt><trkpt lat="45.764988728965434" lon="13.884084356336379"><ele>325.3333333333333</ele><time>2026-04-11T12:38:42.941Z</time></trkpt><trkpt lat="45.76497284691331" lon="13.884199070031068"><ele>324.6666666666667</ele><time>2026-04-11T12:38:43.941Z</time></trkpt><trkpt lat="45.764945434019964" lon="13.884294318249072"><ele>324.0</ele><time>2026-04-11T12:38:44.941Z</time></trkpt><trkpt lat="45.76491990667222" lon="13.884386235908757"><ele>324.0</ele><time>2026-04-11T12:38:45.941Z</time></trkpt><trkpt lat="45.76488932042606" lon="13.884563558040664"><ele>324.0</ele><time>2026-04-11T12:38:47.941Z</time></trkpt><trkpt lat="45.764880542256016" lon="13.884678185611108"><ele>324.0</ele><time>2026-04-11T12:38:48.941Z</time></trkpt><trkpt lat="45.76485987168459" lon="13.884806711239868"><ele>324.0</ele><time>2026-04-11T12:38:49.941Z</time></trkpt><trkpt lat="45.764846543827694" lon="13.884943498211884"><ele>324.0</ele><time>2026-04-11T12:38:50.941Z</time></trkpt><trkpt lat="45.76482551692071" lon="13.885092643031454"><ele>323.8333333333333</ele><time>2026-04-11T12:38:51.941Z</time></trkpt><trkpt lat="45.76479242240004" lon="13.885235810808457"><ele>323.6666666666667</ele><time>2026-04-11T12:38:52.941Z</time></trkpt><trkpt lat="45.76475178252702" lon="13.885356694519782"><ele>323.5</ele><time>2026-04-11T12:38:53.941Z</time></trkpt><trkpt lat="45.76471247380444" lon="13.885468280463728"><ele>323.33333333333337</ele><time>2026-04-11T12:38:54.941Z</time></trkpt><trkpt lat="45.764669842171074" lon="13.885567367793717"><ele>323.1666666666667</ele><time>2026-04-11T12:38:55.941Z</time></trkpt><trkpt lat="45.764616752697954" lon="13.88565275761545"><ele>323.0</ele><time>2026-04-11T12:38:56.941Z</time></trkpt><trkpt lat="45.764563091419426" lon="13.885739913359409"><ele>323.0</ele><time>2026-04-11T12:38:57.941Z</time></trkpt><trkpt lat="45.76450507030241" lon="13.885835100060312"><ele>323.0</ele><time>2026-04-11T12:38:58.941Z</time></trkpt><trkpt lat="45.76444529677171" lon="13.88593761874309"><ele>323.0</ele><time>2026-04-11T12:38:59.941Z</time></trkpt><trkpt lat="45.76438670127422" lon="13.886028511402792"><ele>323.0</ele><time>2026-04-11T12:39:00.941Z</time></trkpt><trkpt lat="45.764328789207866" lon="13.886100197982575"><ele>323.0</ele><time>2026-04-11T12:39:01.941Z</time></trkpt><trkpt lat="45.76426347345041" lon="13.886145242784984"><ele>323.0</ele><time>2026-04-11T12:39:02.941Z</time></trkpt><trkpt lat="45.76418663245809" lon="13.88615933027118"><ele>321.59999999999997</ele><time>2026-04-11T12:39:03.941Z</time></trkpt><trkpt lat="45.76409371710096" lon="13.886153882397855"><ele>320.2</ele><time>2026-04-11T12:39:04.941Z</time></trkpt><trkpt lat="45.763994610091096" lon="13.886166444263692"><ele>318.8</ele><time>2026-04-11T12:39:05.941Z</time></trkpt><trkpt lat="45.76390021779387" lon="13.88619570241585"><ele>317.4</ele><time>2026-04-11T12:39:06.941Z</time></trkpt><trkpt lat="45.76381269451024" lon="13.886242720790118"><ele>316.0</ele><time>2026-04-11T12:39:07.941Z</time></trkpt><trkpt lat="45.76373998023985" lon="13.886323549183432"><ele>316.0</ele><time>2026-04-11T12:39:08.941Z</time></trkpt><trkpt lat="45.76367204162208" lon="13.886416276358656"><ele>316.0</ele><time>2026-04-11T12:39:09.941Z</time></trkpt><trkpt lat="45.763593963687796" lon="13.88650193563806"><ele>316.0</ele><time>2026-04-11T12:39:10.941Z</time></trkpt><trkpt lat="45.76351345591917" lon="13.886581899522888"><ele>316.0</ele><time>2026-04-11T12:39:11.941Z</time></trkpt><trkpt lat="45.76344798726726" lon="13.886661725124602"><ele>316.0</ele><time>2026-04-11T12:39:12.941Z</time></trkpt><trkpt lat="45.76337690911036" lon="13.88673955458055"><ele>316.5</ele><time>2026-04-11T12:39:13.941Z</time></trkpt><trkpt lat="45.76329661083995" lon="13.886808841101924"><ele>317.0</ele><time>2026-04-11T12:39:14.941Z</time></trkpt><trkpt lat="45.76321777865132" lon="13.8868564280814"><ele>317.5</ele><time>2026-04-11T12:39:15.941Z</time></trkpt><trkpt lat="45.76313979591632" lon="13.886881220941426"><ele>318.0</ele><time>2026-04-11T12:39:16.941Z</time></trkpt><trkpt lat="45.76306490064214" lon="13.886891397928068"><ele>318.5</ele><time>2026-04-11T12:39:17.941Z</time></trkpt><trkpt lat="45.76299655067273" lon="13.886897623149288"><ele>319.0</ele><time>2026-04-11T12:39:18.941Z</time></trkpt><trkpt lat="45.76292475476259" lon="13.886911843751092"><ele>319.0</ele><time>2026-04-11T12:39:19.941Z</time></trkpt><trkpt lat="45.76283572553372" lon="13.88691814647288"><ele>319.0</ele><time>2026-04-11T12:39:20.941Z</time></trkpt><trkpt lat="45.76274465451484" lon="13.886920079153496"><ele>319.0</ele><time>2026-04-11T12:39:21.941Z</time></trkpt><trkpt lat="45.76263231453323" lon="13.886938107956363"><ele>319.0</ele><time>2026-04-11T12:39:22.941Z</time></trkpt><trkpt lat="45.762517565821724" lon="13.886972594230448"><ele>319.0</ele><time>2026-04-11T12:39:23.941Z</time></trkpt><trkpt lat="45.762406101102584" lon="13.887015598511645"><ele>318.0</ele><time>2026-04-11T12:39:24.941Z</time></trkpt><trkpt lat="45.762291620946684" lon="13.887096320512018"><ele>317.0</ele><time>2026-04-11T12:39:25.941Z</time></trkpt><trkpt lat="45.76218210749437" lon="13.887192632379868"><ele>316.0</ele><time>2026-04-11T12:39:26.941Z</time></trkpt><trkpt lat="45.76207959756622" lon="13.887304827791738"><ele>315.0</ele><time>2026-04-11T12:39:27.941Z</time></trkpt><trkpt lat="45.76199142860282" lon="13.887414554037298"><ele>315.0</ele><time>2026-04-11T12:39:28.941Z</time></trkpt><trkpt lat="45.761912912875296" lon="13.887511508233468"><ele>315.0</ele><time>2026-04-11T12:39:29.941Z</time></trkpt><trkpt lat="45.76183918137263" lon="13.887590512118416"><ele>315.0</ele><time>2026-04-11T12:39:30.941Z</time></trkpt><trkpt lat="45.76176446368198" lon="13.887666515398136"><ele>315.0</ele><time>2026-04-11T12:39:31.941Z</time></trkpt><trkpt lat="45.76167752577805" lon="13.887742521462602"><ele>315.0</ele><time>2026-04-11T12:39:32.941Z</time></trkpt><trkpt lat="45.76158887745925" lon="13.887806042435688"><ele>316.0</ele><time>2026-04-11T12:39:33.941Z</time></trkpt><trkpt lat="45.76149588541466" lon="13.887874828306135"><ele>317.0</ele><time>2026-04-11T12:39:34.941Z</time></trkpt><trkpt lat="45.76141761341176" lon="13.887924562896767"><ele>318.0</ele><time>2026-04-11T12:39:35.941Z</time></trkpt><trkpt lat="45.76135008011614" lon="13.887970663583765"><ele>319.0</ele><time>2026-04-11T12:39:36.941Z</time></trkpt><trkpt lat="45.7612898793585" lon="13.888018237600653"><ele>320.0</ele><time>2026-04-11T12:39:37.941Z</time></trkpt><trkpt lat="45.76123432133005" lon="13.888075979222439"><ele>321.0</ele><time>2026-04-11T12:39:38.941Z</time></trkpt><trkpt lat="45.761167702888216" lon="13.888151426432133"><ele>321.0</ele><time>2026-04-11T12:39:39.941Z</time></trkpt><trkpt lat="45.76110542228443" lon="13.888247169817173"><ele>321.0</ele><time>2026-04-11T12:39:40.941Z</time></trkpt><trkpt lat="45.761041837037936" lon="13.88834363775285"><ele>321.0</ele><time>2026-04-11T12:39:41.941Z</time></trkpt><trkpt lat="45.76097695654266" lon="13.888448759193016"><ele>321.0</ele><time>2026-04-11T12:39:42.941Z</time></trkpt><trkpt lat="45.7608894213531" lon="13.888561660490346"><ele>321.0</ele><time>2026-04-11T12:39:43.941Z</time></trkpt><trkpt lat="45.76080806342703" lon="13.888679948265864"><ele>321.75</ele><time>2026-04-11T12:39:44.941Z</time></trkpt><trkpt lat="45.76073240108829" lon="13.888797446050939"><ele>322.5</ele><time>2026-04-11T12:39:45.941Z</time></trkpt><trkpt lat="45.76065542676697" lon="13.888915320609462"><ele>323.25</ele><time>2026-04-11T12:39:46.941Z</time></trkpt><trkpt lat="45.76057252054489" lon="13.88903257312551"><ele>324.0</ele><time>2026-04-11T12:39:47.941Z</time></trkpt><trkpt lat="45.76047277633116" lon="13.889162469925909"><ele>323.6</ele><time>2026-04-11T12:39:48.941Z</time></trkpt><trkpt lat="45.76039647551669" lon="13.88927080877966"><ele>323.2</ele><time>2026-04-11T12:39:49.941Z</time></trkpt><trkpt lat="45.7603079725078" lon="13.889362572776907"><ele>322.8</ele><time>2026-04-11T12:39:50.941Z</time></trkpt><trkpt lat="45.76022107162377" lon="13.889469220157592"><ele>322.40000000000003</ele><time>2026-04-11T12:39:51.941Z</time></trkpt><trkpt lat="45.76012833952661" lon="13.889546173764229"><ele>322.0</ele><time>2026-04-11T12:39:52.941Z</time></trkpt><trkpt lat="45.76003817387371" lon="13.889621269462664"><ele>323.3333333333333</ele><time>2026-04-11T12:39:53.941Z</time></trkpt><trkpt lat="45.75995806853235" lon="13.889690125824673"><ele>324.66666666666663</ele><time>2026-04-11T12:39:54.941Z</time></trkpt><trkpt lat="45.75988997375889" lon="13.889767345945732"><ele>326.0</ele><time>2026-04-11T12:39:55.941Z</time></trkpt><trkpt lat="45.75982268604373" lon="13.88981020715154"><ele>327.3333333333333</ele><time>2026-04-11T12:39:56.941Z</time></trkpt><trkpt lat="45.75971615349584" lon="13.88981940810626"><ele>328.6666666666667</ele><time>2026-04-11T12:39:58.941Z</time></trkpt><trkpt lat="45.75965241818089" lon="13.889832333374008"><ele>330.0</ele><time>2026-04-11T12:39:59.94Z</time></trkpt><trkpt lat="45.75957287541982" lon="13.88982869388594"><ele>330.0</ele><time>2026-04-11T12:40:00.94Z</time></trkpt><trkpt lat="45.759487428917126" lon="13.889837343946926"><ele>330.0</ele><time>2026-04-11T12:40:01.941Z</time></trkpt><trkpt lat="45.7593768862126" lon="13.889815204415076"><ele>330.0</ele><time>2026-04-11T12:40:03.94Z</time></trkpt><trkpt lat="45.759292446996206" lon="13.88968400113124"><ele>330.0</ele><time>2026-04-11T12:40:05.94Z</time></trkpt><trkpt lat="45.75927401567512" lon="13.889582903347964"><ele>330.0</ele><time>2026-04-11T12:40:06.94Z</time></trkpt><trkpt lat="45.75925075963046" lon="13.889453701289757"><ele>331.1666666666667</ele><time>2026-04-11T12:40:07.941Z</time></trkpt><trkpt lat="45.75922577411934" lon="13.889310515322968"><ele>332.3333333333333</ele><time>2026-04-11T12:40:08.94Z</time></trkpt><trkpt lat="45.759199254009886" lon="13.889183070721266"><ele>333.5</ele><time>2026-04-11T12:40:09.94Z</time></trkpt><trkpt lat="45.75916316004905" lon="13.889093717137609"><ele>334.66666666666663</ele><time>2026-04-11T12:40:10.94Z</time></trkpt><trkpt lat="45.759112609932174" lon="13.889038284409292"><ele>335.8333333333333</ele><time>2026-04-11T12:40:11.941Z</time></trkpt><trkpt lat="45.75904641702176" lon="13.888980022876112"><ele>337.0</ele><time>2026-04-11T12:40:12.941Z</time></trkpt><trkpt lat="45.75894474443356" lon="13.888923346499933"><ele>337.20000000000005</ele><time>2026-04-11T12:40:13.94Z</time></trkpt><trkpt lat="45.758842207894446" lon="13.888858854231172"><ele>337.4</ele><time>2026-04-11T12:40:14.94Z</time></trkpt><trkpt lat="45.75874410297601" lon="13.888809268634457"><ele>337.6</ele><time>2026-04-11T12:40:15.94Z</time></trkpt><trkpt lat="45.758646046649034" lon="13.88877499128643"><ele>337.79999999999995</ele><time>2026-04-11T12:40:16.94Z</time></trkpt><trkpt lat="45.75853978180956" lon="13.888741966478928"><ele>338.0</ele><time>2026-04-11T12:40:17.94Z</time></trkpt><trkpt lat="45.758436139687" lon="13.888702090528595"><ele>338.1666666666667</ele><time>2026-04-11T12:40:18.94Z</time></trkpt><trkpt lat="45.75834439323089" lon="13.888656177567064"><ele>338.33333333333337</ele><time>2026-04-11T12:40:19.94Z</time></trkpt><trkpt lat="45.75825344661618" lon="13.888620285956913"><ele>338.5</ele><time>2026-04-11T12:40:20.94Z</time></trkpt><trkpt lat="45.75817294000643" lon="13.888607124622547"><ele>338.6666666666667</ele><time>2026-04-11T12:40:21.94Z</time></trkpt><trkpt lat="45.758088478531164" lon="13.888676231456968"><ele>338.8333333333333</ele><time>2026-04-11T12:40:23.94Z</time></trkpt><trkpt lat="45.75806076029007" lon="13.888759228419605"><ele>339.0</ele><time>2026-04-11T12:40:24.94Z</time></trkpt><trkpt lat="45.758022353222984" lon="13.888865379424079"><ele>339.0</ele><time>2026-04-11T12:40:25.94Z</time></trkpt><trkpt lat="45.757960336318874" lon="13.888971945997234"><ele>339.0</ele><time>2026-04-11T12:40:26.94Z</time></trkpt><trkpt lat="45.757891956459666" lon="13.889055376149821"><ele>339.0</ele><time>2026-04-11T12:40:27.94Z</time></trkpt><trkpt lat="45.75783118071237" lon="13.889101949393112"><ele>339.0</ele><time>2026-04-11T12:40:28.94Z</time></trkpt><trkpt lat="45.75776438623258" lon="13.889124065745758"><ele>339.0</ele><time>2026-04-11T12:40:29.94Z</time></trkpt><trkpt lat="45.75762775284391" lon="13.889144022896426"><ele>339.4</ele><time>2026-04-11T12:40:31.94Z</time></trkpt><trkpt lat="45.75749395783898" lon="13.88911823633619"><ele>339.79999999999995</ele><time>2026-04-11T12:40:33.94Z</time></trkpt><trkpt lat="45.75741954931066" lon="13.889081020353844"><ele>340.20000000000005</ele><time>2026-04-11T12:40:34.94Z</time></trkpt><trkpt lat="45.75733142992115" lon="13.88904334793398"><ele>340.6</ele><time>2026-04-11T12:40:35.94Z</time></trkpt><trkpt lat="45.757201588842634" lon="13.888996296504967"><ele>341.0</ele><time>2026-04-11T12:40:37.94Z</time></trkpt><trkpt lat="45.75711905294763" lon="13.88900885026433"><ele>341.0</ele><time>2026-04-11T12:40:38.94Z</time></trkpt><trkpt lat="45.757023189870445" lon="13.889076955172397"><ele>341.0</ele><time>2026-04-11T12:40:39.94Z</time></trkpt><trkpt lat="45.75692472289541" lon="13.889140092140725"><ele>341.0</ele><time>2026-04-11T12:40:40.94Z</time></trkpt><trkpt lat="45.75682411611688" lon="13.889213246972695"><ele>341.0</ele><time>2026-04-11T12:40:41.94Z</time></trkpt><trkpt lat="45.756729700209554" lon="13.889269995166398"><ele>341.0</ele><time>2026-04-11T12:40:42.94Z</time></trkpt><trkpt lat="45.7566587645472" lon="13.889312301864898"><ele>342.0</ele><time>2026-04-11T12:40:43.94Z</time></trkpt><trkpt lat="45.75659180669072" lon="13.889351487374565"><ele>343.0</ele><time>2026-04-11T12:40:44.94Z</time></trkpt><trkpt lat="45.75653029479179" lon="13.88937529022711"><ele>344.0</ele><time>2026-04-11T12:40:45.94Z</time></trkpt><trkpt lat="45.75639686815987" lon="13.889405300696426"><ele>345.0</ele><time>2026-04-11T12:40:47.94Z</time></trkpt><trkpt lat="45.756287296850935" lon="13.889385939662922"><ele>346.0</ele><time>2026-04-11T12:40:48.94Z</time></trkpt><trkpt lat="45.75620066689459" lon="13.88935300068311"><ele>346.0</ele><time>2026-04-11T12:40:49.94Z</time></trkpt><trkpt lat="45.75609195773672" lon="13.88930878243138"><ele>346.0</ele><time>2026-04-11T12:40:51.94Z</time></trkpt><trkpt lat="45.756052497454085" lon="13.889238459357788"><ele>346.0</ele><time>2026-04-11T12:40:52.94Z</time></trkpt><trkpt lat="45.75600713291163" lon="13.889165551767071"><ele>346.0</ele><time>2026-04-11T12:40:53.94Z</time></trkpt><trkpt lat="45.755967848243635" lon="13.8890648993666"><ele>346.0</ele><time>2026-04-11T12:40:54.94Z</time></trkpt><trkpt lat="45.75592701388786" lon="13.8889636408006"><ele>346.0</ele><time>2026-04-11T12:40:55.94Z</time></trkpt><trkpt lat="45.755876552129465" lon="13.88884456619597"><ele>346.20000000000005</ele><time>2026-04-11T12:40:56.94Z</time></trkpt><trkpt lat="45.75581589525265" lon="13.888731590749886"><ele>346.40000000000003</ele><time>2026-04-11T12:40:57.94Z</time></trkpt><trkpt lat="45.75574845625559" lon="13.888621893616985"><ele>346.6</ele><time>2026-04-11T12:40:58.94Z</time></trkpt><trkpt lat="45.75566632987645" lon="13.88849791546182"><ele>346.8</ele><time>2026-04-11T12:40:59.94Z</time></trkpt><trkpt lat="45.75560213449765" lon="13.888373502858359"><ele>347.0</ele><time>2026-04-11T12:41:00.94Z</time></trkpt><trkpt lat="45.755535631091995" lon="13.888262208028628"><ele>347.20000000000005</ele><time>2026-04-11T12:41:01.94Z</time></trkpt><trkpt lat="45.75548479952747" lon="13.888167396874495"><ele>347.4</ele><time>2026-04-11T12:41:02.94Z</time></trkpt><trkpt lat="45.75544211701837" lon="13.888092372030194"><ele>347.6</ele><time>2026-04-11T12:41:03.94Z</time></trkpt><trkpt lat="45.75536003385824" lon="13.887962475549802"><ele>347.79999999999995</ele><time>2026-04-11T12:41:05.94Z</time></trkpt><trkpt lat="45.75530386593012" lon="13.887896177060522"><ele>348.0</ele><time>2026-04-11T12:41:06.94Z</time></trkpt><trkpt lat="45.75519898106638" lon="13.887881618426533"><ele>348.0</ele><time>2026-04-11T12:41:08.94Z</time></trkpt><trkpt lat="45.755074525688904" lon="13.888009194518146"><ele>348.0</ele><time>2026-04-11T12:41:10.94Z</time></trkpt><trkpt lat="45.754970123932004" lon="13.888122050812925"><ele>348.0</ele><time>2026-04-11T12:41:11.94Z</time></trkpt><trkpt lat="45.754855562414654" lon="13.888241166453883"><ele>348.0</ele><time>2026-04-11T12:41:12.94Z</time></trkpt><trkpt lat="45.75474146603344" lon="13.888341008397386"><ele>347.0</ele><time>2026-04-11T12:41:13.94Z</time></trkpt><trkpt lat="45.75462226518107" lon="13.888428637011408"><ele>346.0</ele><time>2026-04-11T12:41:14.94Z</time></trkpt><trkpt lat="45.75448653800862" lon="13.888513099324832"><ele>345.0</ele><time>2026-04-11T12:41:15.94Z</time></trkpt><trkpt lat="45.75434876460336" lon="13.888580895751003"><ele>344.0</ele><time>2026-04-11T12:41:16.94Z</time></trkpt><trkpt lat="45.75421175612493" lon="13.888642640192106"><ele>343.25</ele><time>2026-04-11T12:41:17.94Z</time></trkpt><trkpt lat="45.754076502464365" lon="13.888690745587088"><ele>342.5</ele><time>2026-04-11T12:41:18.94Z</time></trkpt><trkpt lat="45.75394320620138" lon="13.888723093018095"><ele>341.75</ele><time>2026-04-11T12:41:19.94Z</time></trkpt><trkpt lat="45.753812638386975" lon="13.888735829879938"><ele>341.0</ele><time>2026-04-11T12:41:20.94Z</time></trkpt><trkpt lat="45.753688158037114" lon="13.888686543124336"><ele>341.0</ele><time>2026-04-11T12:41:21.94Z</time></trkpt><trkpt lat="45.7535581833258" lon="13.888666029713987"><ele>341.0</ele><time>2026-04-11T12:41:22.94Z</time></trkpt><trkpt lat="45.75343926877765" lon="13.888643340295319"><ele>341.0</ele><time>2026-04-11T12:41:23.94Z</time></trkpt><trkpt lat="45.753314427545504" lon="13.88861746097149"><ele>341.0</ele><time>2026-04-11T12:41:24.94Z</time></trkpt><trkpt lat="45.75319223046671" lon="13.888603241866138"><ele>340.0</ele><time>2026-04-11T12:41:25.94Z</time></trkpt><trkpt lat="45.75305316601353" lon="13.888662841536213"><ele>339.0</ele><time>2026-04-11T12:41:26.94Z</time></trkpt><trkpt lat="45.75290958467296" lon="13.888729118201761"><ele>338.0</ele><time>2026-04-11T12:41:27.94Z</time></trkpt><trkpt lat="45.7527568326842" lon="13.88877883935596"><ele>337.75</ele><time>2026-04-11T12:41:28.94Z</time></trkpt><trkpt lat="45.75262764877018" lon="13.888851610139621"><ele>337.5</ele><time>2026-04-11T12:41:29.94Z</time></trkpt><trkpt lat="45.75250103096696" lon="13.888928574917387"><ele>337.25</ele><time>2026-04-11T12:41:30.94Z</time></trkpt><trkpt lat="45.7523652227947" lon="13.88900977062016"><ele>337.0</ele><time>2026-04-11T12:41:31.94Z</time></trkpt><trkpt lat="45.75222321263813" lon="13.889090470368409"><ele>337.0</ele><time>2026-04-11T12:41:32.94Z</time></trkpt><trkpt lat="45.75208263549374" lon="13.889188160882973"><ele>337.0</ele><time>2026-04-11T12:41:33.94Z</time></trkpt><trkpt lat="45.7519310260052" lon="13.889267761087636"><ele>337.0</ele><time>2026-04-11T12:41:34.94Z</time></trkpt><trkpt lat="45.75178877103847" lon="13.889343858028614"><ele>335.0</ele><time>2026-04-11T12:41:35.94Z</time></trkpt><trkpt lat="45.75161969801438" lon="13.88938230526773"><ele>333.0</ele><time>2026-04-11T12:41:36.94Z</time></trkpt><trkpt lat="45.751464075623645" lon="13.889454714122824"><ele>331.0</ele><time>2026-04-11T12:41:37.94Z</time></trkpt><trkpt lat="45.751303342207315" lon="13.889516120580904"><ele>331.0</ele><time>2026-04-11T12:41:38.94Z</time></trkpt><trkpt lat="45.75114412986868" lon="13.889588871647351"><ele>331.0</ele><time>2026-04-11T12:41:39.939Z</time></trkpt><trkpt lat="45.75098510781437" lon="13.88964087959891"><ele>331.0</ele><time>2026-04-11T12:41:40.939Z</time></trkpt><trkpt lat="45.75084861363198" lon="13.889709126333898"><ele>330.5</ele><time>2026-04-11T12:41:41.939Z</time></trkpt><trkpt lat="45.75070443919357" lon="13.88978012809424"><ele>330.0</ele><time>2026-04-11T12:41:42.939Z</time></trkpt><trkpt lat="45.75057057779186" lon="13.889837740803793"><ele>329.5</ele><time>2026-04-11T12:41:43.939Z</time></trkpt><trkpt lat="45.75042700660328" lon="13.889915396824774"><ele>329.0</ele><time>2026-04-11T12:41:44.939Z</time></trkpt><trkpt lat="45.75027344479666" lon="13.889959326365107"><ele>328.6666666666667</ele><time>2026-04-11T12:41:45.939Z</time></trkpt><trkpt lat="45.75012423299824" lon="13.890018530879122"><ele>328.3333333333333</ele><time>2026-04-11T12:41:46.939Z</time></trkpt><trkpt lat="45.7499631881948" lon="13.890043923492678"><ele>328.0</ele><time>2026-04-11T12:41:47.939Z</time></trkpt><trkpt lat="45.749801038380895" lon="13.890086284430188"><ele>329.0</ele><time>2026-04-11T12:41:48.939Z</time></trkpt><trkpt lat="45.74965110381211" lon="13.890147003938951"><ele>330.0</ele><time>2026-04-11T12:41:49.939Z</time></trkpt><trkpt lat="45.74949358347197" lon="13.890163946475598"><ele>331.0</ele><time>2026-04-11T12:41:50.939Z</time></trkpt><trkpt lat="45.749339906267544" lon="13.890224085809791"><ele>332.0</ele><time>2026-04-11T12:41:51.939Z</time></trkpt><trkpt lat="45.749180163273" lon="13.890252974061042"><ele>333.0</ele><time>2026-04-11T12:41:52.939Z</time></trkpt><trkpt lat="45.74903154491761" lon="13.890332742895596"><ele>334.0</ele><time>2026-04-11T12:41:53.939Z</time></trkpt><trkpt lat="45.748879779594354" lon="13.890368552416003"><ele>334.0</ele><time>2026-04-11T12:41:54.939Z</time></trkpt><trkpt lat="45.74874723142199" lon="13.890424682641822"><ele>334.0</ele><time>2026-04-11T12:41:55.939Z</time></trkpt><trkpt lat="45.74863201863409" lon="13.890507790882278"><ele>334.0</ele><time>2026-04-11T12:41:56.939Z</time></trkpt><trkpt lat="45.74854900856391" lon="13.890641411618555"><ele>334.0</ele><time>2026-04-11T12:41:57.939Z</time></trkpt><trkpt lat="45.748465883967974" lon="13.890798022416401"><ele>332.3333333333333</ele><time>2026-04-11T12:41:58.939Z</time></trkpt><trkpt lat="45.74836915049153" lon="13.890951476178302"><ele>330.6666666666667</ele><time>2026-04-11T12:41:59.939Z</time></trkpt><trkpt lat="45.74827596239249" lon="13.891128598515959"><ele>329.0</ele><time>2026-04-11T12:42:00.939Z</time></trkpt><trkpt lat="45.74819211733918" lon="13.891327367817755"><ele>329.0</ele><time>2026-04-11T12:42:01.939Z</time></trkpt><trkpt lat="45.748109326753834" lon="13.891528600388186"><ele>329.0</ele><time>2026-04-11T12:42:02.939Z</time></trkpt><trkpt lat="45.74804207111113" lon="13.891751598972427"><ele>329.0</ele><time>2026-04-11T12:42:03.939Z</time></trkpt><trkpt lat="45.747976117823896" lon="13.89196492913816"><ele>329.6666666666667</ele><time>2026-04-11T12:42:04.939Z</time></trkpt><trkpt lat="45.74788535993521" lon="13.892140637099978"><ele>330.3333333333333</ele><time>2026-04-11T12:42:05.939Z</time></trkpt><trkpt lat="45.74779749877954" lon="13.892316779043405"><ele>331.0</ele><time>2026-04-11T12:42:06.939Z</time></trkpt><trkpt lat="45.74759196826001" lon="13.892602289089595"><ele>329.25</ele><time>2026-04-11T12:42:08.938Z</time></trkpt><trkpt lat="45.747467896052626" lon="13.892696889747826"><ele>327.5</ele><time>2026-04-11T12:42:09.938Z</time></trkpt><trkpt lat="45.74734235697707" lon="13.892781185214005"><ele>325.75</ele><time>2026-04-11T12:42:10.938Z</time></trkpt><trkpt lat="45.74723272267681" lon="13.892908622645443"><ele>324.0</ele><time>2026-04-11T12:42:11.938Z</time></trkpt><trkpt lat="45.74711899544751" lon="13.893057805519273"><ele>324.0</ele><time>2026-04-11T12:42:12.938Z</time></trkpt><trkpt lat="45.74701526918975" lon="13.8932219060005"><ele>324.0</ele><time>2026-04-11T12:42:13.938Z</time></trkpt><trkpt lat="45.74691162658187" lon="13.89337522642943"><ele>324.0</ele><time>2026-04-11T12:42:14.939Z</time></trkpt><trkpt lat="45.74680986533344" lon="13.893520929333034"><ele>324.0</ele><time>2026-04-11T12:42:15.939Z</time></trkpt><trkpt lat="45.74671844406155" lon="13.89366989830575"><ele>328.0</ele><time>2026-04-11T12:42:16.939Z</time></trkpt><trkpt lat="45.74666017733742" lon="13.893833231095462"><ele>332.0</ele><time>2026-04-11T12:42:17.938Z</time></trkpt><trkpt lat="45.746638441855296" lon="13.894034173080644"><ele>336.0</ele><time>2026-04-11T12:42:18.938Z</time></trkpt><trkpt lat="45.74661233602121" lon="13.894230984848091"><ele>340.0</ele><time>2026-04-11T12:42:19.938Z</time></trkpt><trkpt lat="45.7465954232207" lon="13.8944096191135"><ele>341.75</ele><time>2026-04-11T12:42:20.938Z</time></trkpt><trkpt lat="45.74655828292856" lon="13.894591750318881"><ele>343.5</ele><time>2026-04-11T12:42:21.938Z</time></trkpt><trkpt lat="45.74652574748239" lon="13.894774626077597"><ele>345.25</ele><time>2026-04-11T12:42:22.938Z</time></trkpt><trkpt lat="45.7465046527612" lon="13.894956098545759"><ele>347.0</ele><time>2026-04-11T12:42:23.938Z</time></trkpt><trkpt lat="45.746483973232536" lon="13.89515076652095"><ele>348.25</ele><time>2026-04-11T12:42:24.938Z</time></trkpt><trkpt lat="45.74647216191686" lon="13.895333998314394"><ele>349.5</ele><time>2026-04-11T12:42:25.938Z</time></trkpt><trkpt lat="45.746462171771796" lon="13.895520610277678"><ele>350.75</ele><time>2026-04-11T12:42:26.938Z</time></trkpt><trkpt lat="45.746446413536276" lon="13.89569396481819"><ele>352.0</ele><time>2026-04-11T12:42:27.938Z</time></trkpt><trkpt lat="45.74643735282988" lon="13.895856942260657"><ele>353.20000000000005</ele><time>2026-04-11T12:42:28.938Z</time></trkpt><trkpt lat="45.746440179198984" lon="13.896014145295053"><ele>354.4</ele><time>2026-04-11T12:42:29.938Z</time></trkpt><trkpt lat="45.74646102100808" lon="13.896164460064911"><ele>355.6</ele><time>2026-04-11T12:42:30.938Z</time></trkpt><trkpt lat="45.7464891765433" lon="13.896305282962569"><ele>356.79999999999995</ele><time>2026-04-11T12:42:31.938Z</time></trkpt><trkpt lat="45.74650899874895" lon="13.896442809101806"><ele>358.0</ele><time>2026-04-11T12:42:32.938Z</time></trkpt><trkpt lat="45.746511321721826" lon="13.896589202258966"><ele>358.0</ele><time>2026-04-11T12:42:33.938Z</time></trkpt><trkpt lat="45.74648528547485" lon="13.896741748898668"><ele>358.0</ele><time>2026-04-11T12:42:34.938Z</time></trkpt><trkpt lat="45.74647049279269" lon="13.8969102645974"><ele>358.0</ele><time>2026-04-11T12:42:35.938Z</time></trkpt><trkpt lat="45.746448119982354" lon="13.89709053355701"><ele>358.0</ele><time>2026-04-11T12:42:36.938Z</time></trkpt><trkpt lat="45.74643238438964" lon="13.897267626844217"><ele>358.25</ele><time>2026-04-11T12:42:37.938Z</time></trkpt><trkpt lat="45.74641655237897" lon="13.897442787058132"><ele>358.5</ele><time>2026-04-11T12:42:38.938Z</time></trkpt><trkpt lat="45.74639800752708" lon="13.897627804688828"><ele>358.75</ele><time>2026-04-11T12:42:39.938Z</time></trkpt><trkpt lat="45.74637064447101" lon="13.89780130683286"><ele>359.0</ele><time>2026-04-11T12:42:40.938Z</time></trkpt><trkpt lat="45.746288033611336" lon="13.89788613132739"><ele>358.5</ele><time>2026-04-11T12:42:41.938Z</time></trkpt><trkpt lat="45.74628248605411" lon="13.897985535623851"><ele>358.0</ele><time>2026-04-11T12:42:43.938Z</time></trkpt><trkpt lat="45.74624471321587" lon="13.898088991403469"><ele>357.5</ele><time>2026-04-11T12:42:45.938Z</time></trkpt><trkpt lat="45.7462225036451" lon="13.89817850730972"><ele>357.0</ele><time>2026-04-11T12:42:46.938Z</time></trkpt><trkpt lat="45.74620266712321" lon="13.898284410081784"><ele>356.5</ele><time>2026-04-11T12:42:47.938Z</time></trkpt><trkpt lat="45.746201548682755" lon="13.898391893155386"><ele>356.0</ele><time>2026-04-11T12:42:48.938Z</time></trkpt><trkpt lat="45.74616523924312" lon="13.898581057800582"><ele>356.0</ele><time>2026-04-11T12:42:50.938Z</time></trkpt><trkpt lat="45.74614974284515" lon="13.898697052110498"><ele>356.0</ele><time>2026-04-11T12:42:51.938Z</time></trkpt><trkpt lat="45.74613445413562" lon="13.898804262367959"><ele>356.0</ele><time>2026-04-11T12:42:52.938Z</time></trkpt><trkpt lat="45.74610315680086" lon="13.898970560592181"><ele>356.0</ele><time>2026-04-11T12:42:54.938Z</time></trkpt><trkpt lat="45.746091222356476" lon="13.899127612267664"><ele>356.0</ele><time>2026-04-11T12:42:56.938Z</time></trkpt><trkpt lat="45.746088022735194" lon="13.899299530807589"><ele>355.33333333333337</ele><time>2026-04-11T12:42:58.938Z</time></trkpt><trkpt lat="45.74605471573578" lon="13.899398543075149"><ele>354.6666666666667</ele><time>2026-04-11T12:42:59.938Z</time></trkpt><trkpt lat="45.74602908043046" lon="13.899512565348497"><ele>354.0</ele><time>2026-04-11T12:43:00.938Z</time></trkpt><trkpt lat="45.74599687539766" lon="13.899639287600936"><ele>353.3333333333333</ele><time>2026-04-11T12:43:01.938Z</time></trkpt><trkpt lat="45.745974145432044" lon="13.899767816766666"><ele>352.66666666666663</ele><time>2026-04-11T12:43:02.938Z</time></trkpt><trkpt lat="45.74596182425194" lon="13.899903728625757"><ele>352.0</ele><time>2026-04-11T12:43:03.938Z</time></trkpt><trkpt lat="45.74595151688666" lon="13.900050292520401"><ele>351.16666666666663</ele><time>2026-04-11T12:43:04.938Z</time></trkpt><trkpt lat="45.74594659488971" lon="13.900199619926978"><ele>350.3333333333333</ele><time>2026-04-11T12:43:05.938Z</time></trkpt><trkpt lat="45.745942293345564" lon="13.900330265424497"><ele>349.5</ele><time>2026-04-11T12:43:06.938Z</time></trkpt><trkpt lat="45.74593151144581" lon="13.900456783582522"><ele>348.6666666666667</ele><time>2026-04-11T12:43:07.938Z</time></trkpt><trkpt lat="45.745907634978614" lon="13.900568487674661"><ele>347.83333333333337</ele><time>2026-04-11T12:43:08.938Z</time></trkpt><trkpt lat="45.74587361844833" lon="13.900672735296164"><ele>347.0</ele><time>2026-04-11T12:43:09.938Z</time></trkpt><trkpt lat="45.74583558709948" lon="13.900788437072464"><ele>347.0</ele><time>2026-04-11T12:43:10.938Z</time></trkpt><trkpt lat="45.745799540270546" lon="13.900909694757056"><ele>347.0</ele><time>2026-04-11T12:43:11.938Z</time></trkpt><trkpt lat="45.74578131312056" lon="13.901011736175345"><ele>347.0</ele><time>2026-04-11T12:43:12.938Z</time></trkpt><trkpt lat="45.74579286203367" lon="13.901124639768677"><ele>347.0</ele><time>2026-04-11T12:43:14.938Z</time></trkpt><trkpt lat="45.74577833462453" lon="13.901302226145317"><ele>347.0</ele><time>2026-04-11T12:43:16.937Z</time></trkpt><trkpt lat="45.74577243237148" lon="13.901403382075031"><ele>347.0</ele><time>2026-04-11T12:43:17.937Z</time></trkpt><trkpt lat="45.745766004117606" lon="13.901538159511189"><ele>347.0</ele><time>2026-04-11T12:43:18.937Z</time></trkpt><trkpt lat="45.74575382922599" lon="13.901667075076626"><ele>347.0</ele><time>2026-04-11T12:43:19.937Z</time></trkpt><trkpt lat="45.745763837369346" lon="13.901796660632982"><ele>347.0</ele><time>2026-04-11T12:43:20.937Z</time></trkpt><trkpt lat="45.74577625527287" lon="13.901911347171678"><ele>347.0</ele><time>2026-04-11T12:43:21.937Z</time></trkpt><trkpt lat="45.74577907263156" lon="13.902004911027959"><ele>347.0</ele><time>2026-04-11T12:43:22.937Z</time></trkpt><trkpt lat="45.74576608489725" lon="13.90211216409231"><ele>347.0</ele><time>2026-04-11T12:43:23.937Z</time></trkpt><trkpt lat="45.74575360466208" lon="13.902210294618001"><ele>347.33333333333337</ele><time>2026-04-11T12:43:24.937Z</time></trkpt><trkpt lat="45.74573949485967" lon="13.902343688262777"><ele>347.6666666666667</ele><time>2026-04-11T12:43:25.937Z</time></trkpt><trkpt lat="45.74572379508652" lon="13.902474059391762"><ele>348.0</ele><time>2026-04-11T12:43:26.937Z</time></trkpt><trkpt lat="45.74572267368312" lon="13.902608455547325"><ele>348.3333333333333</ele><time>2026-04-11T12:43:27.937Z</time></trkpt><trkpt lat="45.745716034934496" lon="13.90273082074709"><ele>348.66666666666663</ele><time>2026-04-11T12:43:28.937Z</time></trkpt><trkpt lat="45.745682655553345" lon="13.902834037016683"><ele>349.0</ele><time>2026-04-11T12:43:29.937Z</time></trkpt><trkpt lat="45.7456555071079" lon="13.902917509541583"><ele>349.0</ele><time>2026-04-11T12:43:30.937Z</time></trkpt><trkpt lat="45.74563658074214" lon="13.903071085722672"><ele>349.0</ele><time>2026-04-11T12:43:32.937Z</time></trkpt><trkpt lat="45.745671856291146" lon="13.903160085882746"><ele>349.0</ele><time>2026-04-11T12:43:33.937Z</time></trkpt><trkpt lat="45.745715457167144" lon="13.903262609425294"><ele>349.0</ele><time>2026-04-11T12:43:34.937Z</time></trkpt><trkpt lat="45.74573301710474" lon="13.903396711892295"><ele>349.0</ele><time>2026-04-11T12:43:35.937Z</time></trkpt><trkpt lat="45.745753080454925" lon="13.90352780074988"><ele>349.0</ele><time>2026-04-11T12:43:36.937Z</time></trkpt><trkpt lat="45.74576047954514" lon="13.903664395339765"><ele>349.0</ele><time>2026-04-11T12:43:37.937Z</time></trkpt><trkpt lat="45.74576586039442" lon="13.903791333836864"><ele>349.0</ele><time>2026-04-11T12:43:38.937Z</time></trkpt><trkpt lat="45.74577998986421" lon="13.90390538451545"><ele>349.0</ele><time>2026-04-11T12:43:39.937Z</time></trkpt><trkpt lat="45.74579605553817" lon="13.90402995573413"><ele>349.0</ele><time>2026-04-11T12:43:40.937Z</time></trkpt><trkpt lat="45.74581499969507" lon="13.904144834393893"><ele>349.0</ele><time>2026-04-11T12:43:41.937Z</time></trkpt><trkpt lat="45.745838046090135" lon="13.904262918352032"><ele>349.0</ele><time>2026-04-11T12:43:42.937Z</time></trkpt><trkpt lat="45.74586307930902" lon="13.904390775465206"><ele>349.0</ele><time>2026-04-11T12:43:43.937Z</time></trkpt><trkpt lat="45.74590091778692" lon="13.904527170495744"><ele>349.0</ele><time>2026-04-11T12:43:44.937Z</time></trkpt><trkpt lat="45.745925659462664" lon="13.904669473915195"><ele>349.0</ele><time>2026-04-11T12:43:45.937Z</time></trkpt><trkpt lat="45.745940821506814" lon="13.904801217874795"><ele>349.0</ele><time>2026-04-11T12:43:46.937Z</time></trkpt><trkpt lat="45.745937490346044" lon="13.904910229121242"><ele>349.0</ele><time>2026-04-11T12:43:47.937Z</time></trkpt><trkpt lat="45.74593201703234" lon="13.905024009252541"><ele>349.0</ele><time>2026-04-11T12:43:48.937Z</time></trkpt><trkpt lat="45.74593502416249" lon="13.905149648861729"><ele>349.0</ele><time>2026-04-11T12:43:49.937Z</time></trkpt><trkpt lat="45.74594369976112" lon="13.905263401284579"><ele>349.0</ele><time>2026-04-11T12:43:50.937Z</time></trkpt><trkpt lat="45.74594910898545" lon="13.90536199298436"><ele>349.0</ele><time>2026-04-11T12:43:51.937Z</time></trkpt><trkpt lat="45.74595888268542" lon="13.905451273654002"><ele>349.0</ele><time>2026-04-11T12:43:52.937Z</time></trkpt><trkpt lat="45.74595723741702" lon="13.90556013024052"><ele>349.0</ele><time>2026-04-11T12:43:53.937Z</time></trkpt><trkpt lat="45.74596666307719" lon="13.905667609838307"><ele>349.0</ele><time>2026-04-11T12:43:54.937Z</time></trkpt><trkpt lat="45.74597012173491" lon="13.90576030282548"><ele>349.0</ele><time>2026-04-11T12:43:55.937Z</time></trkpt><trkpt lat="45.746002799768846" lon="13.905920125383723"><ele>349.0</ele><time>2026-04-11T12:43:57.937Z</time></trkpt><trkpt lat="45.74605660368476" lon="13.906050390865063"><ele>349.0</ele><time>2026-04-11T12:43:59.937Z</time></trkpt><trkpt lat="45.74613979921383" lon="13.90611891804068"><ele>348.79999999999995</ele><time>2026-04-11T12:44:01.937Z</time></trkpt><trkpt lat="45.74616172072107" lon="13.906248873166595"><ele>348.59999999999997</ele><time>2026-04-11T12:44:03.937Z</time></trkpt><trkpt lat="45.74616436635882" lon="13.906377690229366"><ele>348.4</ele><time>2026-04-11T12:44:05.937Z</time></trkpt><trkpt lat="45.74617817187357" lon="13.906467776112486"><ele>348.2</ele><time>2026-04-11T12:44:06.937Z</time></trkpt><trkpt lat="45.746195356816706" lon="13.906665117130547"><ele>348.0</ele><time>2026-04-11T12:44:08.937Z</time></trkpt><trkpt lat="45.74619630434408" lon="13.906765259232547"><ele>349.0</ele><time>2026-04-11T12:44:09.937Z</time></trkpt><trkpt lat="45.74619402539629" lon="13.906870414759858"><ele>350.0</ele><time>2026-04-11T12:44:10.937Z</time></trkpt><trkpt lat="45.74619462849269" lon="13.906968531863647"><ele>351.0</ele><time>2026-04-11T12:44:11.937Z</time></trkpt><trkpt lat="45.746204038746434" lon="13.907063911625777"><ele>352.0</ele><time>2026-04-11T12:44:12.937Z</time></trkpt><trkpt lat="45.74620456045572" lon="13.907177944544085"><ele>353.0</ele><time>2026-04-11T12:44:13.937Z</time></trkpt><trkpt lat="45.74619637700299" lon="13.907296045423015"><ele>354.0</ele><time>2026-04-11T12:44:14.937Z</time></trkpt><trkpt lat="45.74618398395616" lon="13.907413750248276"><ele>354.0</ele><time>2026-04-11T12:44:15.937Z</time></trkpt><trkpt lat="45.74617066445148" lon="13.907516301962401"><ele>354.0</ele><time>2026-04-11T12:44:16.937Z</time></trkpt><trkpt lat="45.74615413361271" lon="13.907720711099707"><ele>354.0</ele><time>2026-04-11T12:44:18.937Z</time></trkpt><trkpt lat="45.74614771001438" lon="13.907812685090612"><ele>354.0</ele><time>2026-04-11T12:44:19.937Z</time></trkpt><trkpt lat="45.7461263531643" lon="13.907900174466356"><ele>354.0</ele><time>2026-04-11T12:44:20.937Z</time></trkpt><trkpt lat="45.7460983630799" lon="13.907987135562662"><ele>354.0</ele><time>2026-04-11T12:44:21.937Z</time></trkpt><trkpt lat="45.74605772888505" lon="13.908070338930978"><ele>354.79999999999995</ele><time>2026-04-11T12:44:22.937Z</time></trkpt><trkpt lat="45.74599569600624" lon="13.908189929009954"><ele>355.59999999999997</ele><time>2026-04-11T12:44:24.937Z</time></trkpt><trkpt lat="45.74593685363146" lon="13.90830757013218"><ele>356.4</ele><time>2026-04-11T12:44:26.937Z</time></trkpt><trkpt lat="45.745983138379984" lon="13.908477457405471"><ele>357.2</ele><time>2026-04-11T12:44:28.937Z</time></trkpt><trkpt lat="45.74591031518343" lon="13.908509279506953"><ele>358.0</ele><time>2026-04-11T12:44:29.937Z</time></trkpt><trkpt lat="45.74594841895093" lon="13.908657721113162"><ele>358.16666666666663</ele><time>2026-04-11T12:44:31.937Z</time></trkpt><trkpt lat="45.74591309104389" lon="13.90877633019189"><ele>358.3333333333333</ele><time>2026-04-11T12:44:33.937Z</time></trkpt><trkpt lat="45.745886996137614" lon="13.908862619251108"><ele>358.5</ele><time>2026-04-11T12:44:34.937Z</time></trkpt><trkpt lat="45.745882034496546" lon="13.908990111382938"><ele>358.6666666666667</ele><time>2026-04-11T12:44:35.937Z</time></trkpt><trkpt lat="45.745866966629045" lon="13.909104319042209"><ele>358.83333333333337</ele><time>2026-04-11T12:44:36.937Z</time></trkpt><trkpt lat="45.74583669539044" lon="13.909202354821844"><ele>359.0</ele><time>2026-04-11T12:44:37.937Z</time></trkpt><trkpt lat="45.745801467131514" lon="13.909321403751568"><ele>359.0</ele><time>2026-04-11T12:44:38.937Z</time></trkpt><trkpt lat="45.74576495991822" lon="13.90946218395482"><ele>359.0</ele><time>2026-04-11T12:44:39.937Z</time></trkpt><trkpt lat="45.74573220084265" lon="13.90960105365348"><ele>359.0</ele><time>2026-04-11T12:44:40.937Z</time></trkpt><trkpt lat="45.74569767016285" lon="13.909722549436257"><ele>359.0</ele><time>2026-04-11T12:44:41.937Z</time></trkpt><trkpt lat="45.74566001966349" lon="13.909828168159358"><ele>359.0</ele><time>2026-04-11T12:44:42.937Z</time></trkpt><trkpt lat="45.74562566621736" lon="13.909930995888354"><ele>359.0</ele><time>2026-04-11T12:44:43.937Z</time></trkpt><trkpt lat="45.74559678681195" lon="13.910033683717705"><ele>359.0</ele><time>2026-04-11T12:44:44.937Z</time></trkpt><trkpt lat="45.74557057895279" lon="13.91016129707662"><ele>359.0</ele><time>2026-04-11T12:44:45.937Z</time></trkpt><trkpt lat="45.74555065152124" lon="13.910286375176803"><ele>359.0</ele><time>2026-04-11T12:44:46.937Z</time></trkpt><trkpt lat="45.74553923450314" lon="13.910392694651168"><ele>359.0</ele><time>2026-04-11T12:44:47.937Z</time></trkpt><trkpt lat="45.745544864570476" lon="13.910517524171988"><ele>359.0</ele><time>2026-04-11T12:44:48.937Z</time></trkpt><trkpt lat="45.745564910923136" lon="13.910646661465627"><ele>359.0</ele><time>2026-04-11T12:44:49.937Z</time></trkpt><trkpt lat="45.74556063463375" lon="13.910777076569135"><ele>359.0</ele><time>2026-04-11T12:44:50.937Z</time></trkpt><trkpt lat="45.74553322490083" lon="13.910926025473302"><ele>359.0</ele><time>2026-04-11T12:44:51.937Z</time></trkpt><trkpt lat="45.745498784773694" lon="13.911091913886679"><ele>359.0</ele><time>2026-04-11T12:44:52.937Z</time></trkpt><trkpt lat="45.745468676466835" lon="13.911235889637167"><ele>359.0</ele><time>2026-04-11T12:44:53.937Z</time></trkpt><trkpt lat="45.74544300642722" lon="13.9113854488656"><ele>358.4</ele><time>2026-04-11T12:44:54.937Z</time></trkpt><trkpt lat="45.74540994979963" lon="13.911520923028188"><ele>357.79999999999995</ele><time>2026-04-11T12:44:55.937Z</time></trkpt><trkpt lat="45.74537950318988" lon="13.91166316276777"><ele>357.20000000000005</ele><time>2026-04-11T12:44:56.937Z</time></trkpt><trkpt lat="45.745350230345224" lon="13.911805080746943"><ele>356.6</ele><time>2026-04-11T12:44:57.937Z</time></trkpt><trkpt lat="45.745327006857885" lon="13.91194720257276"><ele>356.0</ele><time>2026-04-11T12:44:58.937Z</time></trkpt><trkpt lat="45.745307927648675" lon="13.912105605217715"><ele>356.0</ele><time>2026-04-11T12:44:59.937Z</time></trkpt><trkpt lat="45.74529081265695" lon="13.912254899546996"><ele>356.0</ele><time>2026-04-11T12:45:00.937Z</time></trkpt><trkpt lat="45.745287577381944" lon="13.912387117748684"><ele>356.0</ele><time>2026-04-11T12:45:01.937Z</time></trkpt><trkpt lat="45.74527698283685" lon="13.91253769300727"><ele>356.0</ele><time>2026-04-11T12:45:02.937Z</time></trkpt><trkpt lat="45.74526947891561" lon="13.912686638144562"><ele>356.0</ele><time>2026-04-11T12:45:03.937Z</time></trkpt><trkpt lat="45.7452502115469" lon="13.912822416944312"><ele>356.5</ele><time>2026-04-11T12:45:04.937Z</time></trkpt><trkpt lat="45.74526101948356" lon="13.912947115310967"><ele>357.0</ele><time>2026-04-11T12:45:05.937Z</time></trkpt><trkpt lat="45.74525935254246" lon="13.913065109658486"><ele>357.5</ele><time>2026-04-11T12:45:06.937Z</time></trkpt><trkpt lat="45.74525032302183" lon="13.913176555670246"><ele>358.0</ele><time>2026-04-11T12:45:07.937Z</time></trkpt><trkpt lat="45.745244019761564" lon="13.913301779281237"><ele>358.5</ele><time>2026-04-11T12:45:08.937Z</time></trkpt><trkpt lat="45.745244964384206" lon="13.913412999888548"><ele>359.0</ele><time>2026-04-11T12:45:09.937Z</time></trkpt><trkpt lat="45.7452277310949" lon="13.913532822896832"><ele>360.0</ele><time>2026-04-11T12:45:10.937Z</time></trkpt><trkpt lat="45.74522061874422" lon="13.913664834288024"><ele>361.0</ele><time>2026-04-11T12:45:11.937Z</time></trkpt><trkpt lat="45.74520799858929" lon="13.91381114676603"><ele>362.0</ele><time>2026-04-11T12:45:12.937Z</time></trkpt><trkpt lat="45.745194248225204" lon="13.91393815541538"><ele>363.0</ele><time>2026-04-11T12:45:13.937Z</time></trkpt><trkpt lat="45.74518006410183" lon="13.914062908401174"><ele>364.0</ele><time>2026-04-11T12:45:14.937Z</time></trkpt><trkpt lat="45.745184752104954" lon="13.914174348683742"><ele>364.79999999999995</ele><time>2026-04-11T12:45:15.937Z</time></trkpt><trkpt lat="45.74516065600388" lon="13.914308077640642"><ele>365.59999999999997</ele><time>2026-04-11T12:45:16.937Z</time></trkpt><trkpt lat="45.74513571181178" lon="13.914435022816566"><ele>366.4</ele><time>2026-04-11T12:45:17.937Z</time></trkpt><trkpt lat="45.74512092210237" lon="13.914562220954018"><ele>367.2</ele><time>2026-04-11T12:45:18.937Z</time></trkpt><trkpt lat="45.745116446632196" lon="13.914684199841693"><ele>368.0</ele><time>2026-04-11T12:45:19.937Z</time></trkpt><trkpt lat="45.745120331419656" lon="13.914823853601435"><ele>368.0</ele><time>2026-04-11T12:45:20.937Z</time></trkpt><trkpt lat="45.745138585601346" lon="13.9149608230942"><ele>368.0</ele><time>2026-04-11T12:45:21.937Z</time></trkpt><trkpt lat="45.74516021305955" lon="13.91511041398154"><ele>368.0</ele><time>2026-04-11T12:45:22.937Z</time></trkpt><trkpt lat="45.745185362365405" lon="13.915260340924062"><ele>368.0</ele><time>2026-04-11T12:45:23.937Z</time></trkpt><trkpt lat="45.74519656133351" lon="13.915383498357697"><ele>368.0</ele><time>2026-04-11T12:45:24.937Z</time></trkpt><trkpt lat="45.74519494018474" lon="13.91550633305862"><ele>368.0</ele><time>2026-04-11T12:45:25.937Z</time></trkpt><trkpt lat="45.74518999465255" lon="13.91562638490384"><ele>368.0</ele><time>2026-04-11T12:45:26.937Z</time></trkpt><trkpt lat="45.745183631442984" lon="13.915770265895242"><ele>368.0</ele><time>2026-04-11T12:45:27.937Z</time></trkpt><trkpt lat="45.745170348726916" lon="13.915932431458208"><ele>368.0</ele><time>2026-04-11T12:45:28.937Z</time></trkpt><trkpt lat="45.745169609876214" lon="13.916095736123635"><ele>368.0</ele><time>2026-04-11T12:45:29.937Z</time></trkpt><trkpt lat="45.7451687870827" lon="13.916254650849043"><ele>368.0</ele><time>2026-04-11T12:45:30.937Z</time></trkpt><trkpt lat="45.745172995510536" lon="13.916400212811475"><ele>368.0</ele><time>2026-04-11T12:45:31.937Z</time></trkpt><trkpt lat="45.74517112301371" lon="13.91652639662328"><ele>368.0</ele><time>2026-04-11T12:45:32.936Z</time></trkpt><trkpt lat="45.745164895452895" lon="13.916647198200648"><ele>368.0</ele><time>2026-04-11T12:45:33.936Z</time></trkpt><trkpt lat="45.745160468326425" lon="13.91677715155169"><ele>368.0</ele><time>2026-04-11T12:45:34.936Z</time></trkpt><trkpt lat="45.745143688239324" lon="13.916902687370769"><ele>367.33333333333337</ele><time>2026-04-11T12:45:35.936Z</time></trkpt><trkpt lat="45.74515740437077" lon="13.917034307953115"><ele>366.6666666666667</ele><time>2026-04-11T12:45:36.936Z</time></trkpt><trkpt lat="45.745157358507036" lon="13.91714926374519"><ele>366.0</ele><time>2026-04-11T12:45:37.936Z</time></trkpt><trkpt lat="45.74514991204581" lon="13.917255348410274"><ele>365.3333333333333</ele><time>2026-04-11T12:45:38.936Z</time></trkpt><trkpt lat="45.74513899381065" lon="13.917393305088384"><ele>364.66666666666663</ele><time>2026-04-11T12:45:40.936Z</time></trkpt><trkpt lat="45.74512477730546" lon="13.91751186467128"><ele>364.0</ele><time>2026-04-11T12:45:42.936Z</time></trkpt><trkpt lat="45.74510089837165" lon="13.917638195627323"><ele>363.3333333333333</ele><time>2026-04-11T12:45:44.936Z</time></trkpt><trkpt lat="45.74509147375624" lon="13.917728014398007"><ele>362.66666666666663</ele><time>2026-04-11T12:45:45.936Z</time></trkpt><trkpt lat="45.74504975752477" lon="13.917816034429617"><ele>362.0</ele><time>2026-04-11T12:45:47.936Z</time></trkpt><trkpt lat="45.74501462487984" lon="13.917968463970102"><ele>361.3333333333333</ele><time>2026-04-11T12:45:49.936Z</time></trkpt><trkpt lat="45.744979680224006" lon="13.918128082559367"><ele>360.6666666666667</ele><time>2026-04-11T12:45:51.936Z</time></trkpt><trkpt lat="45.744950547641075" lon="13.918225913007277"><ele>360.0</ele><time>2026-04-11T12:45:52.936Z</time></trkpt><trkpt lat="45.74491727678825" lon="13.918331789396468"><ele>359.5</ele><time>2026-04-11T12:45:53.936Z</time></trkpt><trkpt lat="45.74487764687319" lon="13.918433187546814"><ele>359.0</ele><time>2026-04-11T12:45:54.936Z</time></trkpt><trkpt lat="45.744846471148996" lon="13.91852090188791"><ele>358.5</ele><time>2026-04-11T12:45:55.936Z</time></trkpt><trkpt lat="45.74481742495684" lon="13.918612838848093"><ele>358.0</ele><time>2026-04-11T12:45:56.936Z</time></trkpt><trkpt lat="45.74478797322711" lon="13.91873662696535"><ele>357.5</ele><time>2026-04-11T12:45:58.936Z</time></trkpt><trkpt lat="45.74475704789134" lon="13.91882881084447"><ele>357.0</ele><time>2026-04-11T12:45:59.936Z</time></trkpt><trkpt lat="45.7447522197092" lon="13.91892501146837"><ele>357.0</ele><time>2026-04-11T12:46:00.936Z</time></trkpt><trkpt lat="45.74475127982071" lon="13.919093794833799"><ele>357.0</ele><time>2026-04-11T12:46:02.936Z</time></trkpt><trkpt lat="45.744715199353216" lon="13.919206016895899"><ele>357.0</ele><time>2026-04-11T12:46:03.936Z</time></trkpt><trkpt lat="45.74469557764667" lon="13.919296869958341"><ele>357.0</ele><time>2026-04-11T12:46:04.936Z</time></trkpt><trkpt lat="45.74467655131855" lon="13.919439435258022"><ele>357.0</ele><time>2026-04-11T12:46:06.936Z</time></trkpt><trkpt lat="45.74463068396088" lon="13.919553427876254"><ele>354.8</ele><time>2026-04-11T12:46:07.936Z</time></trkpt><trkpt lat="45.74458120625209" lon="13.9196604177103"><ele>352.6</ele><time>2026-04-11T12:46:08.936Z</time></trkpt><trkpt lat="45.744537168229186" lon="13.919751284496142"><ele>350.40000000000003</ele><time>2026-04-11T12:46:09.936Z</time></trkpt><trkpt lat="45.74448056089631" lon="13.919879403697236"><ele>348.20000000000005</ele><time>2026-04-11T12:46:10.936Z</time></trkpt><trkpt lat="45.74443459415366" lon="13.920001093934001"><ele>346.0</ele><time>2026-04-11T12:46:11.936Z</time></trkpt><trkpt lat="45.74440177899833" lon="13.920125315807512"><ele>345.8</ele><time>2026-04-11T12:46:12.936Z</time></trkpt><trkpt lat="45.74439351783348" lon="13.920245536367998"><ele>345.6</ele><time>2026-04-11T12:46:13.936Z</time></trkpt><trkpt lat="45.74437930419348" lon="13.920400827783965"><ele>345.4</ele><time>2026-04-11T12:46:14.936Z</time></trkpt><trkpt lat="45.74435941686563" lon="13.920527340842822"><ele>345.2</ele><time>2026-04-11T12:46:15.936Z</time></trkpt><trkpt lat="45.74433923116435" lon="13.920660942206881"><ele>345.0</ele><time>2026-04-11T12:46:16.936Z</time></trkpt><trkpt lat="45.74431624380418" lon="13.920814970958334"><ele>344.8333333333333</ele><time>2026-04-11T12:46:17.936Z</time></trkpt><trkpt lat="45.74429706379066" lon="13.920956105199403"><ele>344.6666666666667</ele><time>2026-04-11T12:46:18.936Z</time></trkpt><trkpt lat="45.74427783217081" lon="13.921096220521099"><ele>344.5</ele><time>2026-04-11T12:46:19.936Z</time></trkpt><trkpt lat="45.74426381725626" lon="13.921218560708759"><ele>344.33333333333337</ele><time>2026-04-11T12:46:20.936Z</time></trkpt><trkpt lat="45.74424312041136" lon="13.921325122684907"><ele>344.1666666666667</ele><time>2026-04-11T12:46:21.936Z</time></trkpt><trkpt lat="45.74421669413057" lon="13.921415523388408"><ele>344.0</ele><time>2026-04-11T12:46:22.936Z</time></trkpt><trkpt lat="45.74413736963347" lon="13.921582027051222"><ele>344.0</ele><time>2026-04-11T12:46:24.936Z</time></trkpt><trkpt lat="45.74409392068715" lon="13.921662633066898"><ele>344.0</ele><time>2026-04-11T12:46:25.935Z</time></trkpt><trkpt lat="45.74404369023175" lon="13.921730029944376"><ele>344.0</ele><time>2026-04-11T12:46:26.935Z</time></trkpt><trkpt lat="45.74399135704629" lon="13.921799161686875"><ele>344.0</ele><time>2026-04-11T12:46:27.935Z</time></trkpt><trkpt lat="45.74393131360155" lon="13.921889671648225"><ele>344.0</ele><time>2026-04-11T12:46:28.936Z</time></trkpt><trkpt lat="45.74386093556234" lon="13.921982385011338"><ele>344.0</ele><time>2026-04-11T12:46:29.936Z</time></trkpt><trkpt lat="45.743804508279894" lon="13.922064165029456"><ele>344.0</ele><time>2026-04-11T12:46:30.936Z</time></trkpt><trkpt lat="45.7437532005899" lon="13.922147318680206"><ele>344.0</ele><time>2026-04-11T12:46:31.936Z</time></trkpt><trkpt lat="45.74370872643758" lon="13.922229781986955"><ele>344.0</ele><time>2026-04-11T12:46:32.936Z</time></trkpt><trkpt lat="45.74364824621601" lon="13.922294089673718"><ele>344.0</ele><time>2026-04-11T12:46:33.936Z</time></trkpt><trkpt lat="45.74358335748889" lon="13.922325767210033"><ele>344.0</ele><time>2026-04-11T12:46:34.936Z</time></trkpt><trkpt lat="45.74351516553203" lon="13.9223728034833"><ele>344.0</ele><time>2026-04-11T12:46:35.936Z</time></trkpt><trkpt lat="45.743423130070354" lon="13.922428682788327"><ele>343.83333333333337</ele><time>2026-04-11T12:46:36.936Z</time></trkpt><trkpt lat="45.743348283654896" lon="13.922503156784723"><ele>343.6666666666667</ele><time>2026-04-11T12:46:37.936Z</time></trkpt><trkpt lat="45.74328396061729" lon="13.922598239044998"><ele>343.5</ele><time>2026-04-11T12:46:38.936Z</time></trkpt><trkpt lat="45.7432263465224" lon="13.922684777300667"><ele>343.3333333333333</ele><time>2026-04-11T12:46:39.936Z</time></trkpt><trkpt lat="45.74317743050679" lon="13.922788308387215"><ele>343.16666666666663</ele><time>2026-04-11T12:46:40.936Z</time></trkpt><trkpt lat="45.743132952511345" lon="13.922904422841713"><ele>343.0</ele><time>2026-04-11T12:46:41.935Z</time></trkpt><trkpt lat="45.74310490705433" lon="13.923049489407141"><ele>343.4</ele><time>2026-04-11T12:46:42.935Z</time></trkpt><trkpt lat="45.74307491355267" lon="13.923194779535082"><ele>343.79999999999995</ele><time>2026-04-11T12:46:43.935Z</time></trkpt><trkpt lat="45.74303805345505" lon="13.923292919746839"><ele>344.2</ele><time>2026-04-11T12:46:44.935Z</time></trkpt><trkpt lat="45.7430063715417" lon="13.923404189358807"><ele>344.6</ele><time>2026-04-11T12:46:45.935Z</time></trkpt><trkpt lat="45.742989843170534" lon="13.923531178823085"><ele>345.0</ele><time>2026-04-11T12:46:46.935Z</time></trkpt><trkpt lat="45.74297518414374" lon="13.92368806820361"><ele>345.5</ele><time>2026-04-11T12:46:47.935Z</time></trkpt><trkpt lat="45.742935524057586" lon="13.923827242537408"><ele>346.0</ele><time>2026-04-11T12:46:48.935Z</time></trkpt><trkpt lat="45.74289915339338" lon="13.923975216649445"><ele>346.5</ele><time>2026-04-11T12:46:49.935Z</time></trkpt><trkpt lat="45.74285302342799" lon="13.924128151053809"><ele>347.0</ele><time>2026-04-11T12:46:50.935Z</time></trkpt><trkpt lat="45.74280292763071" lon="13.92429041110646"><ele>347.0</ele><time>2026-04-11T12:46:51.935Z</time></trkpt><trkpt lat="45.74275128454679" lon="13.924444545250328"><ele>347.0</ele><time>2026-04-11T12:46:52.935Z</time></trkpt><trkpt lat="45.742710311748446" lon="13.924580178391029"><ele>347.0</ele><time>2026-04-11T12:46:53.935Z</time></trkpt><trkpt lat="45.742684610117934" lon="13.92468316897975"><ele>347.0</ele><time>2026-04-11T12:46:54.935Z</time></trkpt><trkpt lat="45.74267116624013" lon="13.924792380094853"><ele>347.0</ele><time>2026-04-11T12:46:56.935Z</time></trkpt><trkpt lat="45.74246834327798" lon="13.924806881722523"><ele>347.0</ele><time>2026-04-11T12:46:59.935Z</time></trkpt><trkpt lat="45.74239262094779" lon="13.924802531936793"><ele>347.0</ele><time>2026-04-11T12:47:00.935Z</time></trkpt><trkpt lat="45.74230689688184" lon="13.924799946769133"><ele>347.0</ele><time>2026-04-11T12:47:01.935Z</time></trkpt><trkpt lat="45.74224244852907" lon="13.924798022348105"><ele>347.0</ele><time>2026-04-11T12:47:02.935Z</time></trkpt><trkpt lat="45.74216694977777" lon="13.924835100509474"><ele>347.0</ele><time>2026-04-11T12:47:04.935Z</time></trkpt><trkpt lat="45.74209777503071" lon="13.924972391346015"><ele>347.0</ele><time>2026-04-11T12:47:06.935Z</time></trkpt><trkpt lat="45.74205878644635" lon="13.925068805987232"><ele>347.5</ele><time>2026-04-11T12:47:07.935Z</time></trkpt><trkpt lat="45.7420060808824" lon="13.92516799745742"><ele>348.0</ele><time>2026-04-11T12:47:08.935Z</time></trkpt><trkpt lat="45.74195625993106" lon="13.925271568779502"><ele>348.5</ele><time>2026-04-11T12:47:09.935Z</time></trkpt><trkpt lat="45.74190504930135" lon="13.925365536208945"><ele>349.0</ele><time>2026-04-11T12:47:10.935Z</time></trkpt><trkpt lat="45.74186188950624" lon="13.925444854666287"><ele>349.5</ele><time>2026-04-11T12:47:11.935Z</time></trkpt><trkpt lat="45.74181068739032" lon="13.925527514007335"><ele>350.0</ele><time>2026-04-11T12:47:12.935Z</time></trkpt><trkpt lat="45.741757567410396" lon="13.925606988544379"><ele>350.0</ele><time>2026-04-11T12:47:13.935Z</time></trkpt><trkpt lat="45.74169615909484" lon="13.925675713207509"><ele>350.0</ele><time>2026-04-11T12:47:14.935Z</time></trkpt><trkpt lat="45.74163701966338" lon="13.925739432964281"><ele>350.0</ele><time>2026-04-11T12:47:15.935Z</time></trkpt><trkpt lat="45.74157130108006" lon="13.925785698592644"><ele>350.0</ele><time>2026-04-11T12:47:16.935Z</time></trkpt><trkpt lat="45.74148349174757" lon="13.925786057963347"><ele>350.0</ele><time>2026-04-11T12:47:18.935Z</time></trkpt><trkpt lat="45.74138068458669" lon="13.925710143406356"><ele>350.0</ele><time>2026-04-11T12:47:20.935Z</time></trkpt><trkpt lat="45.74132791198174" lon="13.925654002661524"><ele>350.0</ele><time>2026-04-11T12:47:21.935Z</time></trkpt><trkpt lat="45.741276858474706" lon="13.925554748012049"><ele>350.0</ele><time>2026-04-11T12:47:22.935Z</time></trkpt><trkpt lat="45.74121911795951" lon="13.925448708987725"><ele>350.0</ele><time>2026-04-11T12:47:23.935Z</time></trkpt><trkpt lat="45.74115101871091" lon="13.925334170881111"><ele>350.0</ele><time>2026-04-11T12:47:24.935Z</time></trkpt><trkpt lat="45.741084883688984" lon="13.925226549319321"><ele>350.0</ele><time>2026-04-11T12:47:25.935Z</time></trkpt><trkpt lat="45.74101726772735" lon="13.925134120408595"><ele>349.4</ele><time>2026-04-11T12:47:26.935Z</time></trkpt><trkpt lat="45.74095864500932" lon="13.925051738967788"><ele>348.8</ele><time>2026-04-11T12:47:27.935Z</time></trkpt><trkpt lat="45.74084467171063" lon="13.925035679436597"><ele>348.20000000000005</ele><time>2026-04-11T12:47:29.935Z</time></trkpt><trkpt lat="45.7407664263466" lon="13.925090419404361"><ele>347.6</ele><time>2026-04-11T12:47:30.935Z</time></trkpt><trkpt lat="45.74066517829089" lon="13.925151810312773"><ele>347.0</ele><time>2026-04-11T12:47:31.935Z</time></trkpt><trkpt lat="45.740559779516445" lon="13.925212793529777"><ele>347.0</ele><time>2026-04-11T12:47:32.935Z</time></trkpt><trkpt lat="45.740441053011125" lon="13.925267785380704"><ele>347.0</ele><time>2026-04-11T12:47:33.935Z</time></trkpt><trkpt lat="45.7403060956652" lon="13.925334767752343"><ele>347.0</ele><time>2026-04-11T12:47:34.935Z</time></trkpt><trkpt lat="45.74018079960034" lon="13.925393664816596"><ele>347.0</ele><time>2026-04-11T12:47:35.935Z</time></trkpt><trkpt lat="45.740060805096775" lon="13.925463528426658"><ele>346.0</ele><time>2026-04-11T12:47:36.935Z</time></trkpt><trkpt lat="45.73994418949703" lon="13.925518354581152"><ele>345.0</ele><time>2026-04-11T12:47:37.935Z</time></trkpt><trkpt lat="45.73983070919836" lon="13.925585333639129"><ele>344.0</ele><time>2026-04-11T12:47:38.935Z</time></trkpt><trkpt lat="45.739720826639754" lon="13.925639452415728"><ele>343.0</ele><time>2026-04-11T12:47:39.935Z</time></trkpt><trkpt lat="45.73961599870647" lon="13.925686869107613"><ele>343.0</ele><time>2026-04-11T12:47:40.935Z</time></trkpt><trkpt lat="45.739527585616955" lon="13.925732908501047"><ele>343.0</ele><time>2026-04-11T12:47:41.935Z</time></trkpt><trkpt lat="45.73947186564318" lon="13.925790431449911"><ele>343.0</ele><time>2026-04-11T12:47:42.935Z</time></trkpt><trkpt lat="45.73945911110146" lon="13.925895497698"><ele>343.0</ele><time>2026-04-11T12:47:43.935Z</time></trkpt><trkpt lat="45.73946374690673" lon="13.92601975247493"><ele>343.0</ele><time>2026-04-11T12:47:44.935Z</time></trkpt><trkpt lat="45.73950490499901" lon="13.926143176668946"><ele>343.0</ele><time>2026-04-11T12:47:45.935Z</time></trkpt><trkpt lat="45.739542124921314" lon="13.926273656272311"><ele>343.59999999999997</ele><time>2026-04-11T12:47:46.935Z</time></trkpt><trkpt lat="45.73957489934882" lon="13.926414185372112"><ele>344.2</ele><time>2026-04-11T12:47:47.935Z</time></trkpt><trkpt lat="45.73960654203467" lon="13.926550734663957"><ele>344.8</ele><time>2026-04-11T12:47:48.935Z</time></trkpt><trkpt lat="45.73963418730074" lon="13.926666816137416"><ele>345.4</ele><time>2026-04-11T12:47:49.935Z</time></trkpt><trkpt lat="45.73963773749171" lon="13.926780276245529"><ele>346.0</ele><time>2026-04-11T12:47:50.935Z</time></trkpt><trkpt lat="45.739533486075025" lon="13.926888264124123"><ele>346.6</ele><time>2026-04-11T12:47:52.935Z</time></trkpt><trkpt lat="45.73945420524029" lon="13.92697739316364"><ele>347.20000000000005</ele><time>2026-04-11T12:47:53.935Z</time></trkpt><trkpt lat="45.739369605830234" lon="13.927084883885612"><ele>347.79999999999995</ele><time>2026-04-11T12:47:54.935Z</time></trkpt><trkpt lat="45.73930945132697" lon="13.927198085089119"><ele>348.4</ele><time>2026-04-11T12:47:55.935Z</time></trkpt><trkpt lat="45.73925357478283" lon="13.927283620184511"><ele>349.0</ele><time>2026-04-11T12:47:56.935Z</time></trkpt><trkpt lat="45.73921575584175" lon="13.927365499768493"><ele>349.0</ele><time>2026-04-11T12:47:57.935Z</time></trkpt><trkpt lat="45.739204307524766" lon="13.92748418061187"><ele>349.0</ele><time>2026-04-11T12:47:58.935Z</time></trkpt><trkpt lat="45.73921828342427" lon="13.927622662980784"><ele>349.0</ele><time>2026-04-11T12:47:59.935Z</time></trkpt><trkpt lat="45.73921750436173" lon="13.927751781050132"><ele>349.0</ele><time>2026-04-11T12:48:00.935Z</time></trkpt><trkpt lat="45.7392187848645" lon="13.927844345873488"><ele>349.0</ele><time>2026-04-11T12:48:01.935Z</time></trkpt><trkpt lat="45.73916961729576" lon="13.927934154674244"><ele>349.0</ele><time>2026-04-11T12:48:04.935Z</time></trkpt><trkpt lat="45.73904643808985" lon="13.927976098179695"><ele>349.5</ele><time>2026-04-11T12:48:06.935Z</time></trkpt><trkpt lat="45.73897813759693" lon="13.928000605113473"><ele>350.0</ele><time>2026-04-11T12:48:07.934Z</time></trkpt><trkpt lat="45.73889134357116" lon="13.928030453300966"><ele>350.5</ele><time>2026-04-11T12:48:08.934Z</time></trkpt><trkpt lat="45.73881926847974" lon="13.928072471430028"><ele>351.0</ele><time>2026-04-11T12:48:09.934Z</time></trkpt><trkpt lat="45.73874512088278" lon="13.928105388133714"><ele>351.5</ele><time>2026-04-11T12:48:10.934Z</time></trkpt><trkpt lat="45.73867834517188" lon="13.928103734387989"><ele>352.0</ele><time>2026-04-11T12:48:11.934Z</time></trkpt><trkpt lat="45.73859952178644" lon="13.92804900127722"><ele>351.5</ele><time>2026-04-11T12:48:13.934Z</time></trkpt><trkpt lat="45.73853516474256" lon="13.928040677958247"><ele>351.0</ele><time>2026-04-11T12:48:15.934Z</time></trkpt><trkpt lat="45.73845718361007" lon="13.92803093324724"><ele>350.5</ele><time>2026-04-11T12:48:18.934Z</time></trkpt><trkpt lat="45.738377475893806" lon="13.928048191561409"><ele>350.0</ele><time>2026-04-11T12:48:20.934Z</time></trkpt><trkpt lat="45.73829711413405" lon="13.92806796986622"><ele>349.5</ele><time>2026-04-11T12:48:22.934Z</time></trkpt><trkpt lat="45.73821781055266" lon="13.928035084537994"><ele>349.0</ele><time>2026-04-11T12:48:25.934Z</time></trkpt><trkpt lat="45.73814796900223" lon="13.928018447572894"><ele>349.0</ele><time>2026-04-11T12:48:27.934Z</time></trkpt><trkpt lat="45.738080561591914" lon="13.928062960739771"><ele>349.0</ele><time>2026-04-11T12:48:30.934Z</time></trkpt><trkpt lat="45.7380115231434" lon="13.928122341072683"><ele>349.0</ele><time>2026-04-11T12:48:35.934Z</time></trkpt><trkpt lat="45.73793712584534" lon="13.928182571209822"><ele>349.0</ele><time>2026-04-11T12:48:37.934Z</time></trkpt><trkpt lat="45.737916306239136" lon="13.928326952550368"><ele>349.0</ele><time>2026-04-11T12:48:39.934Z</time></trkpt><trkpt lat="45.73794355417011" lon="13.928439944937981"><ele>349.0</ele><time>2026-04-11T12:48:40.934Z</time></trkpt><trkpt lat="45.73796088841239" lon="13.928572947401111"><ele>349.5</ele><time>2026-04-11T12:48:41.934Z</time></trkpt><trkpt lat="45.737972801759476" lon="13.928686518258834"><ele>350.0</ele><time>2026-04-11T12:48:42.934Z</time></trkpt><trkpt lat="45.737960464999176" lon="13.92877921923634"><ele>350.5</ele><time>2026-04-11T12:48:43.934Z</time></trkpt><trkpt lat="45.73793142146545" lon="13.928866251232968"><ele>351.0</ele><time>2026-04-11T12:48:44.934Z</time></trkpt><trkpt lat="45.73789554442112" lon="13.928959753686497"><ele>351.5</ele><time>2026-04-11T12:48:45.934Z</time></trkpt><trkpt lat="45.73786062750232" lon="13.929048683962417"><ele>352.0</ele><time>2026-04-11T12:48:46.934Z</time></trkpt><trkpt lat="45.73776430646511" lon="13.92913396097367"><ele>352.0</ele><time>2026-04-11T12:48:48.934Z</time></trkpt><trkpt lat="45.73766090095914" lon="13.929212167452647"><ele>352.0</ele><time>2026-04-11T12:48:50.934Z</time></trkpt><trkpt lat="45.7376179517906" lon="13.92929924613507"><ele>352.0</ele><time>2026-04-11T12:48:51.934Z</time></trkpt><trkpt lat="45.73758586692816" lon="13.929389715882461"><ele>352.0</ele><time>2026-04-11T12:48:52.934Z</time></trkpt><trkpt lat="45.73751163600176" lon="13.929507310882038"><ele>352.0</ele><time>2026-04-11T12:48:54.934Z</time></trkpt><trkpt lat="45.73744564047105" lon="13.929568270737295"><ele>352.6</ele><time>2026-04-11T12:48:56.934Z</time></trkpt><trkpt lat="45.73735912897549" lon="13.929652626230286"><ele>353.20000000000005</ele><time>2026-04-11T12:48:58.934Z</time></trkpt><trkpt lat="45.7372900544885" lon="13.92966294062499"><ele>353.8</ele><time>2026-04-11T12:49:00.934Z</time></trkpt><trkpt lat="45.73726157620196" lon="13.929526446657745"><ele>354.4</ele><time>2026-04-11T12:49:02.934Z</time></trkpt><trkpt lat="45.737227660317" lon="13.929337568898914"><ele>355.0</ele><time>2026-04-11T12:49:04.934Z</time></trkpt><trkpt lat="45.73717373174099" lon="13.929229832525177"><ele>354.66666666666663</ele><time>2026-04-11T12:49:05.934Z</time></trkpt><trkpt lat="45.737121750291834" lon="13.92916078347428"><ele>354.3333333333333</ele><time>2026-04-11T12:49:06.934Z</time></trkpt><trkpt lat="45.73706482244087" lon="13.929109130004793"><ele>354.0</ele><time>2026-04-11T12:49:08.934Z</time></trkpt><trkpt lat="45.73700783396262" lon="13.929058242556447"><ele>353.6666666666667</ele><time>2026-04-11T12:49:10.934Z</time></trkpt><trkpt lat="45.736923799696285" lon="13.929074039366691"><ele>353.33333333333337</ele><time>2026-04-11T12:49:12.934Z</time></trkpt><trkpt lat="45.7368523730263" lon="13.929152269668844"><ele>353.0</ele><time>2026-04-11T12:49:14.934Z</time></trkpt><trkpt lat="45.736777731282835" lon="13.92929701445753"><ele>353.0</ele><time>2026-04-11T12:49:16.934Z</time></trkpt><trkpt lat="45.73673606984592" lon="13.929368985823963"><ele>353.0</ele><time>2026-04-11T12:49:17.934Z</time></trkpt><trkpt lat="45.73669756177652" lon="13.929450039489172"><ele>353.0</ele><time>2026-04-11T12:49:18.934Z</time></trkpt><trkpt lat="45.73664757458617" lon="13.929537373739343"><ele>353.0</ele><time>2026-04-11T12:49:19.934Z</time></trkpt><trkpt lat="45.736600859469654" lon="13.929624623157302"><ele>353.0</ele><time>2026-04-11T12:49:20.934Z</time></trkpt><trkpt lat="45.73655004690578" lon="13.929714853091477"><ele>353.0</ele><time>2026-04-11T12:49:21.934Z</time></trkpt><trkpt lat="45.73650118082462" lon="13.929806427215679"><ele>353.0</ele><time>2026-04-11T12:49:22.934Z</time></trkpt><trkpt lat="45.73645033668587" lon="13.92990396526737"><ele>353.0</ele><time>2026-04-11T12:49:23.934Z</time></trkpt><trkpt lat="45.73640366063665" lon="13.929989431817821"><ele>353.0</ele><time>2026-04-11T12:49:24.934Z</time></trkpt><trkpt lat="45.73635418451865" lon="13.930060229628817"><ele>353.0</ele><time>2026-04-11T12:49:25.934Z</time></trkpt><trkpt lat="45.73628986537417" lon="13.930137617080407"><ele>353.0</ele><time>2026-04-11T12:49:26.934Z</time></trkpt><trkpt lat="45.736215320422076" lon="13.930211465032526"><ele>353.0</ele><time>2026-04-11T12:49:27.934Z</time></trkpt><trkpt lat="45.73612704940504" lon="13.930271974735192"><ele>354.1666666666667</ele><time>2026-04-11T12:49:28.934Z</time></trkpt><trkpt lat="45.73604368147904" lon="13.930325612687108"><ele>355.33333333333337</ele><time>2026-04-11T12:49:29.934Z</time></trkpt><trkpt lat="45.735959890289394" lon="13.93035937407863"><ele>356.5</ele><time>2026-04-11T12:49:30.934Z</time></trkpt><trkpt lat="45.73588436872034" lon="13.930393318853275"><ele>357.6666666666667</ele><time>2026-04-11T12:49:31.934Z</time></trkpt><trkpt lat="45.73579384939478" lon="13.930439753573804"><ele>358.8333333333333</ele><time>2026-04-11T12:49:32.934Z</time></trkpt><trkpt lat="45.735710965695404" lon="13.930477786198864"><ele>360.0</ele><time>2026-04-11T12:49:33.934Z</time></trkpt><trkpt lat="45.73563676012628" lon="13.930518547802881"><ele>360.0</ele><time>2026-04-11T12:49:34.934Z</time></trkpt><trkpt lat="45.735566157502184" lon="13.9305633020744"><ele>360.0</ele><time>2026-04-11T12:49:35.934Z</time></trkpt><trkpt lat="45.735496759291316" lon="13.930618005361522"><ele>360.0</ele><time>2026-04-11T12:49:36.934Z</time></trkpt><trkpt lat="45.73542264045809" lon="13.930670454088208"><ele>360.0</ele><time>2026-04-11T12:49:37.934Z</time></trkpt><trkpt lat="45.73534423507344" lon="13.930723673308973"><ele>360.0</ele><time>2026-04-11T12:49:38.933Z</time></trkpt><trkpt lat="45.735257186543365" lon="13.930776896955916"><ele>360.0</ele><time>2026-04-11T12:49:39.933Z</time></trkpt><trkpt lat="45.73518095930374" lon="13.930834536873911"><ele>361.6666666666667</ele><time>2026-04-11T12:49:40.933Z</time></trkpt><trkpt lat="45.735104309206065" lon="13.930899749721135"><ele>363.3333333333333</ele><time>2026-04-11T12:49:41.933Z</time></trkpt><trkpt lat="45.73505049817065" lon="13.930969596322342"><ele>365.0</ele><time>2026-04-11T12:49:42.933Z</time></trkpt><trkpt lat="45.735004900390564" lon="13.931051774315032"><ele>366.66666666666663</ele><time>2026-04-11T12:49:43.933Z</time></trkpt><trkpt lat="45.73497450961755" lon="13.931138545284625"><ele>368.3333333333333</ele><time>2026-04-11T12:49:44.933Z</time></trkpt><trkpt lat="45.73495652744754" lon="13.931245826449262"><ele>370.0</ele><time>2026-04-11T12:49:45.933Z</time></trkpt><trkpt lat="45.73494727997407" lon="13.931372654724811"><ele>369.99999999999994</ele><time>2026-04-11T12:49:46.933Z</time></trkpt><trkpt lat="45.7349136780458" lon="13.931479079638502"><ele>370.0</ele><time>2026-04-11T12:49:47.933Z</time></trkpt><trkpt lat="45.734901724500126" lon="13.931568969602454"><ele>370.0</ele><time>2026-04-11T12:49:48.933Z</time></trkpt><trkpt lat="45.73487498687032" lon="13.931652631775032"><ele>370.0</ele><time>2026-04-11T12:49:49.933Z</time></trkpt><trkpt lat="45.73484895271415" lon="13.931745684784605"><ele>370.0</ele><time>2026-04-11T12:49:50.933Z</time></trkpt><trkpt lat="45.73480136773389" lon="13.931844383626695"><ele>369.99999999999994</ele><time>2026-04-11T12:49:52.933Z</time></trkpt><trkpt lat="45.73473290657719" lon="13.931886551404736"><ele>370.0</ele><time>2026-04-11T12:49:54.933Z</time></trkpt><trkpt lat="45.73463163776255" lon="13.931966074553216"><ele>371.2</ele><time>2026-04-11T12:49:56.933Z</time></trkpt><trkpt lat="45.73455653593668" lon="13.932016116788809"><ele>372.4</ele><time>2026-04-11T12:49:57.933Z</time></trkpt><trkpt lat="45.734506418234055" lon="13.93207100144378"><ele>373.6</ele><time>2026-04-11T12:49:58.933Z</time></trkpt><trkpt lat="45.734427989783754" lon="13.932100848854107"><ele>374.8</ele><time>2026-04-11T12:49:59.933Z</time></trkpt><trkpt lat="45.734286957588104" lon="13.932119098726423"><ele>376.0</ele><time>2026-04-11T12:50:01.933Z</time></trkpt><trkpt lat="45.73419362082212" lon="13.932118378342738"><ele>377.20000000000005</ele><time>2026-04-11T12:50:02.933Z</time></trkpt><trkpt lat="45.73408922497149" lon="13.932090234895858"><ele>378.40000000000003</ele><time>2026-04-11T12:50:03.933Z</time></trkpt><trkpt lat="45.73397564158705" lon="13.932065424416537"><ele>379.6</ele><time>2026-04-11T12:50:04.933Z</time></trkpt><trkpt lat="45.733863561771926" lon="13.93204737394021"><ele>380.8</ele><time>2026-04-11T12:50:05.933Z</time></trkpt><trkpt lat="45.733753813566274" lon="13.932028102083352"><ele>382.0</ele><time>2026-04-11T12:50:06.933Z</time></trkpt><trkpt lat="45.733661666830685" lon="13.932010310657956"><ele>382.0</ele><time>2026-04-11T12:50:07.933Z</time></trkpt><trkpt lat="45.73355705545694" lon="13.931982806483624"><ele>382.0</ele><time>2026-04-11T12:50:08.933Z</time></trkpt><trkpt lat="45.73344452739662" lon="13.931953384785047"><ele>382.0</ele><time>2026-04-11T12:50:09.933Z</time></trkpt><trkpt lat="45.73333041717697" lon="13.931930397454037"><ele>382.0</ele><time>2026-04-11T12:50:10.933Z</time></trkpt><trkpt lat="45.73322243382077" lon="13.93189196599102"><ele>382.0</ele><time>2026-04-11T12:50:11.933Z</time></trkpt><trkpt lat="45.733108516904856" lon="13.931843453391929"><ele>382.5</ele><time>2026-04-11T12:50:12.933Z</time></trkpt><trkpt lat="45.73300193759939" lon="13.931793662020292"><ele>383.0</ele><time>2026-04-11T12:50:13.933Z</time></trkpt><trkpt lat="45.73287753312058" lon="13.931734982099098"><ele>383.5</ele><time>2026-04-11T12:50:14.933Z</time></trkpt><trkpt lat="45.732773519255225" lon="13.931666166479523"><ele>384.0</ele><time>2026-04-11T12:50:15.933Z</time></trkpt><trkpt lat="45.73266667632888" lon="13.931611899770568"><ele>386.2</ele><time>2026-04-11T12:50:16.933Z</time></trkpt><trkpt lat="45.732576785394215" lon="13.931547616385389"><ele>388.4</ele><time>2026-04-11T12:50:17.933Z</time></trkpt><trkpt lat="45.73247546599584" lon="13.931465687668702"><ele>390.6</ele><time>2026-04-11T12:50:18.933Z</time></trkpt><trkpt lat="45.732381869113226" lon="13.931373087164545"><ele>392.8</ele><time>2026-04-11T12:50:19.933Z</time></trkpt><trkpt lat="45.73228952868357" lon="13.931281394485547"><ele>395.0</ele><time>2026-04-11T12:50:20.933Z</time></trkpt><trkpt lat="45.732194530349545" lon="13.931200015400922"><ele>395.0</ele><time>2026-04-11T12:50:21.933Z</time></trkpt><trkpt lat="45.732140554929956" lon="13.931082563129838"><ele>395.0</ele><time>2026-04-11T12:50:22.933Z</time></trkpt><trkpt lat="45.73207310458002" lon="13.9310119203384"><ele>395.0</ele><time>2026-04-11T12:50:23.933Z</time></trkpt><trkpt lat="45.73199523953004" lon="13.930935009744532"><ele>395.0</ele><time>2026-04-11T12:50:25.933Z</time></trkpt><trkpt lat="45.731839462384094" lon="13.93110502217017"><ele>397.6</ele><time>2026-04-11T12:50:30.932Z</time></trkpt><trkpt lat="45.73177530446795" lon="13.93124912965305"><ele>400.2</ele><time>2026-04-11T12:50:32.932Z</time></trkpt><trkpt lat="45.73174355085195" lon="13.93142628875932"><ele>402.79999999999995</ele><time>2026-04-11T12:50:34.932Z</time></trkpt><trkpt lat="45.7317354314491" lon="13.931542557255797"><ele>405.4</ele><time>2026-04-11T12:50:35.932Z</time></trkpt><trkpt lat="45.73172518135249" lon="13.931675403105391"><ele>408.0</ele><time>2026-04-11T12:50:36.933Z</time></trkpt><trkpt lat="45.73172783848739" lon="13.931834379288551"><ele>408.79999999999995</ele><time>2026-04-11T12:50:37.932Z</time></trkpt><trkpt lat="45.73173251654747" lon="13.931986074148888"><ele>409.6</ele><time>2026-04-11T12:50:38.932Z</time></trkpt><trkpt lat="45.731726278454595" lon="13.93213419438724"><ele>410.4</ele><time>2026-04-11T12:50:39.933Z</time></trkpt><trkpt lat="45.731712321186464" lon="13.932302134269465"><ele>411.20000000000005</ele><time>2026-04-11T12:50:40.933Z</time></trkpt><trkpt lat="45.73170311053834" lon="13.932456717350325"><ele>412.0</ele><time>2026-04-11T12:50:41.933Z</time></trkpt><trkpt lat="45.73167745338734" lon="13.932613600350129"><ele>412.6666666666667</ele><time>2026-04-11T12:50:42.933Z</time></trkpt><trkpt lat="45.73165006049983" lon="13.932750800436681"><ele>413.33333333333337</ele><time>2026-04-11T12:50:43.933Z</time></trkpt><trkpt lat="45.73163140703532" lon="13.93286598432098"><ele>414.0</ele><time>2026-04-11T12:50:44.933Z</time></trkpt><trkpt lat="45.7316255088178" lon="13.932983547574976"><ele>414.66666666666663</ele><time>2026-04-11T12:50:45.933Z</time></trkpt><trkpt lat="45.73161583642461" lon="13.933087668097757"><ele>415.3333333333333</ele><time>2026-04-11T12:50:46.933Z</time></trkpt><trkpt lat="45.73159407838959" lon="13.933188312137839"><ele>416.0</ele><time>2026-04-11T12:50:47.933Z</time></trkpt><trkpt lat="45.7315677678744" lon="13.93327245389569"><ele>415.99999999999994</ele><time>2026-04-11T12:50:48.933Z</time></trkpt><trkpt lat="45.73152446442117" lon="13.933367110786872"><ele>416.0</ele><time>2026-04-11T12:50:49.933Z</time></trkpt><trkpt lat="45.73146314091699" lon="13.933474320125649"><ele>416.0</ele><time>2026-04-11T12:50:50.933Z</time></trkpt><trkpt lat="45.73141657507337" lon="13.933562422543517"><ele>416.0</ele><time>2026-04-11T12:50:51.933Z</time></trkpt><trkpt lat="45.731353223547856" lon="13.933658782393977"><ele>415.99999999999994</ele><time>2026-04-11T12:50:53.933Z</time></trkpt><trkpt lat="45.731260758671525" lon="13.933694162518044"><ele>416.0</ele><time>2026-04-11T12:50:55.933Z</time></trkpt><trkpt lat="45.731090871033565" lon="13.933717063495623"><ele>419.25</ele><time>2026-04-11T12:50:57.933Z</time></trkpt><trkpt lat="45.73098894186314" lon="13.933711680157638"><ele>422.5</ele><time>2026-04-11T12:50:58.933Z</time></trkpt><trkpt lat="45.73087370164521" lon="13.933703709652665"><ele>425.75</ele><time>2026-04-11T12:50:59.933Z</time></trkpt><trkpt lat="45.730738185333266" lon="13.933704681894294"><ele>429.0</ele><time>2026-04-11T12:51:00.933Z</time></trkpt><trkpt lat="45.73060479947982" lon="13.933740594226128"><ele>429.0</ele><time>2026-04-11T12:51:01.933Z</time></trkpt><trkpt lat="45.73048704134891" lon="13.933790847479054"><ele>429.0</ele><time>2026-04-11T12:51:02.933Z</time></trkpt><trkpt lat="45.73038404552287" lon="13.933849500897324"><ele>429.0</ele><time>2026-04-11T12:51:03.933Z</time></trkpt><trkpt lat="45.7302621932599" lon="13.933904214791724"><ele>429.0</ele><time>2026-04-11T12:51:04.933Z</time></trkpt><trkpt lat="45.73013016199201" lon="13.933930399552708"><ele>429.5</ele><time>2026-04-11T12:51:05.933Z</time></trkpt><trkpt lat="45.73000634111418" lon="13.93394676474678"><ele>430.0</ele><time>2026-04-11T12:51:06.933Z</time></trkpt><trkpt lat="45.72986787878753" lon="13.933941191706674"><ele>430.5</ele><time>2026-04-11T12:51:07.933Z</time></trkpt><trkpt lat="45.72973377738088" lon="13.933970372734448"><ele>431.0</ele><time>2026-04-11T12:51:08.933Z</time></trkpt><trkpt lat="45.72963148281157" lon="13.934006277707011"><ele>431.0</ele><time>2026-04-11T12:51:09.933Z</time></trkpt><trkpt lat="45.72950843316298" lon="13.934052138927346"><ele>431.0</ele><time>2026-04-11T12:51:10.932Z</time></trkpt><trkpt lat="45.729402133121255" lon="13.934102722978404"><ele>431.0</ele><time>2026-04-11T12:51:11.932Z</time></trkpt><trkpt lat="45.729303897443444" lon="13.934152964774764"><ele>431.0</ele><time>2026-04-11T12:51:12.932Z</time></trkpt><trkpt lat="45.729219495974924" lon="13.934201513363888"><ele>431.0</ele><time>2026-04-11T12:51:13.932Z</time></trkpt><trkpt lat="45.72912397759954" lon="13.934265435712424"><ele>433.0</ele><time>2026-04-11T12:51:14.932Z</time></trkpt><trkpt lat="45.72902388512052" lon="13.934346467986174"><ele>435.0</ele><time>2026-04-11T12:51:15.932Z</time></trkpt><trkpt lat="45.7289025828262" lon="13.934420936168394"><ele>437.0</ele><time>2026-04-11T12:51:16.932Z</time></trkpt><trkpt lat="45.72876675562849" lon="13.934494518169819"><ele>439.0</ele><time>2026-04-11T12:51:17.932Z</time></trkpt><trkpt lat="45.72862793025128" lon="13.934590712705466"><ele>439.5</ele><time>2026-04-11T12:51:18.932Z</time></trkpt><trkpt lat="45.72850845872908" lon="13.934705082423761"><ele>440.0</ele><time>2026-04-11T12:51:19.932Z</time></trkpt><trkpt lat="45.72840877830966" lon="13.934809169091988"><ele>440.5</ele><time>2026-04-11T12:51:20.932Z</time></trkpt><trkpt lat="45.72832554704898" lon="13.934902981863443"><ele>441.0</ele><time>2026-04-11T12:51:21.932Z</time></trkpt><trkpt lat="45.72823311901447" lon="13.934977440262168"><ele>442.0</ele><time>2026-04-11T12:51:22.932Z</time></trkpt><trkpt lat="45.728117441424594" lon="13.935057661735152"><ele>443.0</ele><time>2026-04-11T12:51:23.932Z</time></trkpt><trkpt lat="45.72799240322278" lon="13.935124885467124"><ele>444.0</ele><time>2026-04-11T12:51:24.932Z</time></trkpt><trkpt lat="45.727854613409804" lon="13.935203786466408"><ele>445.0</ele><time>2026-04-11T12:51:25.932Z</time></trkpt><trkpt lat="45.72770957847335" lon="13.93529992241367"><ele>446.33333333333337</ele><time>2026-04-11T12:51:26.932Z</time></trkpt><trkpt lat="45.727575686471845" lon="13.935386063763264"><ele>447.66666666666663</ele><time>2026-04-11T12:51:27.932Z</time></trkpt><trkpt lat="45.72743029315728" lon="13.935477620967239"><ele>449.0</ele><time>2026-04-11T12:51:28.932Z</time></trkpt><trkpt lat="45.72730125525603" lon="13.93558084769335"><ele>449.0</ele><time>2026-04-11T12:51:29.932Z</time></trkpt><trkpt lat="45.72716223705756" lon="13.935688985995707"><ele>449.0</ele><time>2026-04-11T12:51:30.932Z</time></trkpt><trkpt lat="45.72703479842848" lon="13.935790677115541"><ele>449.0</ele><time>2026-04-11T12:51:31.932Z</time></trkpt><trkpt lat="45.72690616483558" lon="13.93589336732481"><ele>452.0</ele><time>2026-04-11T12:51:32.932Z</time></trkpt><trkpt lat="45.726772511166146" lon="13.936012176794563"><ele>455.0</ele><time>2026-04-11T12:51:33.932Z</time></trkpt><trkpt lat="45.72663161274602" lon="13.936128231278582"><ele>458.0</ele><time>2026-04-11T12:51:34.932Z</time></trkpt><trkpt lat="45.72646819733695" lon="13.936261252493967"><ele>458.0</ele><time>2026-04-11T12:51:35.932Z</time></trkpt><trkpt lat="45.72629865628273" lon="13.936380568816935"><ele>458.0</ele><time>2026-04-11T12:51:36.932Z</time></trkpt><trkpt lat="45.72616450335715" lon="13.936490137544755"><ele>458.0</ele><time>2026-04-11T12:51:37.932Z</time></trkpt><trkpt lat="45.72603960068782" lon="13.936592821740787"><ele>456.75</ele><time>2026-04-11T12:51:38.932Z</time></trkpt><trkpt lat="45.72591428670397" lon="13.936690212945178"><ele>455.5</ele><time>2026-04-11T12:51:39.932Z</time></trkpt><trkpt lat="45.72579879317157" lon="13.936794366568073"><ele>454.25</ele><time>2026-04-11T12:51:40.932Z</time></trkpt><trkpt lat="45.725671472771424" lon="13.936889579615066"><ele>453.0</ele><time>2026-04-11T12:51:41.932Z</time></trkpt><trkpt lat="45.725542508699874" lon="13.936970242095592"><ele>454.66666666666663</ele><time>2026-04-11T12:51:42.932Z</time></trkpt><trkpt lat="45.72539590743668" lon="13.937047666361314"><ele>456.3333333333333</ele><time>2026-04-11T12:51:43.932Z</time></trkpt><trkpt lat="45.72525328974432" lon="13.937119629519346"><ele>458.0</ele><time>2026-04-11T12:51:44.932Z</time></trkpt><trkpt lat="45.72510815339432" lon="13.937198914477296"><ele>458.0</ele><time>2026-04-11T12:51:45.932Z</time></trkpt><trkpt lat="45.724972805967575" lon="13.937263172673617"><ele>458.0</ele><time>2026-04-11T12:51:46.932Z</time></trkpt><trkpt lat="45.72483959185203" lon="13.937314883064364"><ele>458.0</ele><time>2026-04-11T12:51:47.932Z</time></trkpt><trkpt lat="45.72471082959467" lon="13.937360851694386"><ele>458.0</ele><time>2026-04-11T12:51:48.932Z</time></trkpt><trkpt lat="45.72457386858144" lon="13.937403192601737"><ele>458.0</ele><time>2026-04-11T12:51:49.932Z</time></trkpt><trkpt lat="45.7244144728321" lon="13.93743421055029"><ele>458.0</ele><time>2026-04-11T12:51:50.932Z</time></trkpt><trkpt lat="45.72422986144138" lon="13.937450019020863"><ele>458.0</ele><time>2026-04-11T12:51:51.932Z</time></trkpt><trkpt lat="45.72403939325959" lon="13.93750190885861"><ele>462.3333333333333</ele><time>2026-04-11T12:51:52.932Z</time></trkpt><trkpt lat="45.723849219186754" lon="13.9375543519152"><ele>466.66666666666663</ele><time>2026-04-11T12:51:53.932Z</time></trkpt><trkpt lat="45.72366541906572" lon="13.937606937519588"><ele>471.0</ele><time>2026-04-11T12:51:54.932Z</time></trkpt><trkpt lat="45.72349421802865" lon="13.937652822284265"><ele>471.0</ele><time>2026-04-11T12:51:55.932Z</time></trkpt><trkpt lat="45.723332191790064" lon="13.93770044185172"><ele>471.0</ele><time>2026-04-11T12:51:56.932Z</time></trkpt><trkpt lat="45.72318897125519" lon="13.937738364032361"><ele>471.0</ele><time>2026-04-11T12:51:57.932Z</time></trkpt><trkpt lat="45.723024898577286" lon="13.937786858023758"><ele>471.0</ele><time>2026-04-11T12:51:58.932Z</time></trkpt><trkpt lat="45.7228685041934" lon="13.93783517296001"><ele>471.0</ele><time>2026-04-11T12:51:59.932Z</time></trkpt><trkpt lat="45.72271172759315" lon="13.937876286491992"><ele>471.0</ele><time>2026-04-11T12:52:00.932Z</time></trkpt><trkpt lat="45.72257538359131" lon="13.937907507010749"><ele>470.75</ele><time>2026-04-11T12:52:01.932Z</time></trkpt><trkpt lat="45.72244590268317" lon="13.937946568359271"><ele>470.5</ele><time>2026-04-11T12:52:02.932Z</time></trkpt><trkpt lat="45.72232578469734" lon="13.937986209181416"><ele>470.25</ele><time>2026-04-11T12:52:03.932Z</time></trkpt><trkpt lat="45.722223882476634" lon="13.938031833153488"><ele>470.0</ele><time>2026-04-11T12:52:04.932Z</time></trkpt><trkpt lat="45.72212750486872" lon="13.938089535700216"><ele>470.0</ele><time>2026-04-11T12:52:05.932Z</time></trkpt><trkpt lat="45.72203505817147" lon="13.938151946752452"><ele>470.0</ele><time>2026-04-11T12:52:06.932Z</time></trkpt><trkpt lat="45.72196123741624" lon="13.93825009393537"><ele>470.0</ele><time>2026-04-11T12:52:07.932Z</time></trkpt><trkpt lat="45.72188696834255" lon="13.93834860068635"><ele>470.0</ele><time>2026-04-11T12:52:08.932Z</time></trkpt><trkpt lat="45.7218214435738" lon="13.938434819180657"><ele>470.0</ele><time>2026-04-11T12:52:09.932Z</time></trkpt><trkpt lat="45.72176044083978" lon="13.938511451626095"><ele>468.0</ele><time>2026-04-11T12:52:10.932Z</time></trkpt><trkpt lat="45.721676912531294" lon="13.938590802321956"><ele>466.0</ele><time>2026-04-11T12:52:11.932Z</time></trkpt><trkpt lat="45.72159195161311" lon="13.938649819503153"><ele>464.0</ele><time>2026-04-11T12:52:12.932Z</time></trkpt><trkpt lat="45.72150158440658" lon="13.93870983933237"><ele>462.0</ele><time>2026-04-11T12:52:13.932Z</time></trkpt><trkpt lat="45.72141673349407" lon="13.93876337759615"><ele>460.0</ele><time>2026-04-11T12:52:14.932Z</time></trkpt><trkpt lat="45.72133866316484" lon="13.938825205200663"><ele>460.00000000000006</ele><time>2026-04-11T12:52:15.932Z</time></trkpt><trkpt lat="45.721265016352994" lon="13.938888400683336"><ele>460.0</ele><time>2026-04-11T12:52:16.932Z</time></trkpt><trkpt lat="45.72119145142107" lon="13.938951111113212"><ele>460.0</ele><time>2026-04-11T12:52:17.932Z</time></trkpt><trkpt lat="45.72110993855885" lon="13.939011963183397"><ele>460.0</ele><time>2026-04-11T12:52:18.932Z</time></trkpt><trkpt lat="45.721033721241675" lon="13.939062681416335"><ele>460.00000000000006</ele><time>2026-04-11T12:52:19.932Z</time></trkpt><trkpt lat="45.720965497823755" lon="13.939119295543739"><ele>460.0</ele><time>2026-04-11T12:52:20.932Z</time></trkpt><trkpt lat="45.72090377342913" lon="13.939178065112927"><ele>457.2</ele><time>2026-04-11T12:52:21.932Z</time></trkpt><trkpt lat="45.72085125567927" lon="13.93925533279975"><ele>454.4</ele><time>2026-04-11T12:52:22.932Z</time></trkpt><trkpt lat="45.72079396530227" lon="13.939358694261175"><ele>451.6</ele><time>2026-04-11T12:52:23.932Z</time></trkpt><trkpt lat="45.720743794482395" lon="13.939461112069289"><ele>448.8</ele><time>2026-04-11T12:52:24.932Z</time></trkpt><trkpt lat="45.720688851334195" lon="13.93960684572523"><ele>446.0</ele><time>2026-04-11T12:52:25.932Z</time></trkpt><trkpt lat="45.72061893620004" lon="13.939753548531778"><ele>446.0</ele><time>2026-04-11T12:52:26.932Z</time></trkpt><trkpt lat="45.72054424701953" lon="13.939882638981327"><ele>446.0</ele><time>2026-04-11T12:52:27.932Z</time></trkpt><trkpt lat="45.720475778183264" lon="13.940008008029352"><ele>446.0</ele><time>2026-04-11T12:52:28.932Z</time></trkpt><trkpt lat="45.72039456602402" lon="13.940137026884848"><ele>446.0</ele><time>2026-04-11T12:52:29.932Z</time></trkpt><trkpt lat="45.72030994445841" lon="13.940270716490716"><ele>443.5</ele><time>2026-04-11T12:52:30.932Z</time></trkpt><trkpt lat="45.720223701220924" lon="13.940420540960474"><ele>441.0</ele><time>2026-04-11T12:52:31.932Z</time></trkpt><trkpt lat="45.72014004958514" lon="13.940581510840646"><ele>438.5</ele><time>2026-04-11T12:52:32.932Z</time></trkpt><trkpt lat="45.72005177175012" lon="13.940744785034802"><ele>436.0</ele><time>2026-04-11T12:52:33.932Z</time></trkpt><trkpt lat="45.719964284694946" lon="13.940886641881958"><ele>435.5</ele><time>2026-04-11T12:52:34.931Z</time></trkpt><trkpt lat="45.71986449627353" lon="13.941026050808375"><ele>435.0</ele><time>2026-04-11T12:52:35.931Z</time></trkpt><trkpt lat="45.719760423418684" lon="13.94117128118956"><ele>434.5</ele><time>2026-04-11T12:52:36.931Z</time></trkpt><trkpt lat="45.71965482949417" lon="13.941305681863744"><ele>434.0</ele><time>2026-04-11T12:52:37.931Z</time></trkpt><trkpt lat="45.719564665149136" lon="13.94142544326508"><ele>434.0</ele><time>2026-04-11T12:52:38.931Z</time></trkpt><trkpt lat="45.71947103000328" lon="13.94155107530663"><ele>434.0</ele><time>2026-04-11T12:52:39.931Z</time></trkpt><trkpt lat="45.719384768415004" lon="13.941657851574234"><ele>434.0</ele><time>2026-04-11T12:52:40.931Z</time></trkpt><trkpt lat="45.719297532911646" lon="13.941751276844386"><ele>434.0</ele><time>2026-04-11T12:52:41.931Z</time></trkpt><trkpt lat="45.71920166002331" lon="13.94183206822437"><ele>432.5</ele><time>2026-04-11T12:52:42.931Z</time></trkpt><trkpt lat="45.71909225355637" lon="13.941915422275754"><ele>431.0</ele><time>2026-04-11T12:52:43.932Z</time></trkpt><trkpt lat="45.71897868470979" lon="13.942011605151043"><ele>429.5</ele><time>2026-04-11T12:52:44.932Z</time></trkpt><trkpt lat="45.71887263016343" lon="13.942118417136054"><ele>428.0</ele><time>2026-04-11T12:52:45.931Z</time></trkpt><trkpt lat="45.71874838681961" lon="13.942277519872835"><ele>428.0</ele><time>2026-04-11T12:52:46.931Z</time></trkpt><trkpt lat="45.71863375337142" lon="13.942423478824539"><ele>428.0</ele><time>2026-04-11T12:52:47.931Z</time></trkpt><trkpt lat="45.7185217303099" lon="13.942542852684888"><ele>428.0</ele><time>2026-04-11T12:52:48.931Z</time></trkpt><trkpt lat="45.71841364488848" lon="13.942657960462835"><ele>428.0</ele><time>2026-04-11T12:52:49.931Z</time></trkpt><trkpt lat="45.718310150357986" lon="13.942767886708147"><ele>428.0</ele><time>2026-04-11T12:52:50.931Z</time></trkpt><trkpt lat="45.718216660488324" lon="13.942858937576332"><ele>427.99999999999994</ele><time>2026-04-11T12:52:51.931Z</time></trkpt><trkpt lat="45.71813416114726" lon="13.94292462296855"><ele>427.99999999999994</ele><time>2026-04-11T12:52:52.931Z</time></trkpt><trkpt lat="45.71804393857765" lon="13.94299006792149"><ele>428.0</ele><time>2026-04-11T12:52:53.931Z</time></trkpt><trkpt lat="45.71796749239146" lon="13.943057481112639"><ele>428.0</ele><time>2026-04-11T12:52:54.931Z</time></trkpt><trkpt lat="45.71789706946412" lon="13.943140847816744"><ele>428.0</ele><time>2026-04-11T12:52:55.931Z</time></trkpt><trkpt lat="45.71784189791236" lon="13.943239307852211"><ele>427.99999999999994</ele><time>2026-04-11T12:52:56.931Z</time></trkpt><trkpt lat="45.717810014327" lon="13.943351176225384"><ele>427.99999999999994</ele><time>2026-04-11T12:52:57.931Z</time></trkpt><trkpt lat="45.7178021064067" lon="13.943463189688172"><ele>428.0</ele><time>2026-04-11T12:52:58.931Z</time></trkpt><trkpt lat="45.71780393996891" lon="13.943612575262433"><ele>428.0</ele><time>2026-04-11T12:52:59.931Z</time></trkpt><trkpt lat="45.717779183118445" lon="13.943745778107866"><ele>428.0</ele><time>2026-04-11T12:53:00.931Z</time></trkpt><trkpt lat="45.71772431807285" lon="13.943858925911593"><ele>427.99999999999994</ele><time>2026-04-11T12:53:01.931Z</time></trkpt><trkpt lat="45.717661736307356" lon="13.943968739849733"><ele>427.99999999999994</ele><time>2026-04-11T12:53:02.931Z</time></trkpt><trkpt lat="45.71756894900906" lon="13.944078969442023"><ele>428.0</ele><time>2026-04-11T12:53:03.931Z</time></trkpt><trkpt lat="45.717474732946634" lon="13.944201259947972"><ele>428.0</ele><time>2026-04-11T12:53:04.931Z</time></trkpt><trkpt lat="45.717380080094884" lon="13.944327747724566"><ele>428.2</ele><time>2026-04-11T12:53:05.931Z</time></trkpt><trkpt lat="45.7172949151378" lon="13.944437056878812"><ele>428.4</ele><time>2026-04-11T12:53:06.931Z</time></trkpt><trkpt lat="45.71721414557414" lon="13.94454065383804"><ele>428.59999999999997</ele><time>2026-04-11T12:53:07.931Z</time></trkpt><trkpt lat="45.71714342787837" lon="13.944639992730778"><ele>428.79999999999995</ele><time>2026-04-11T12:53:08.931Z</time></trkpt><trkpt lat="45.71706334767519" lon="13.944732757459898"><ele>429.0</ele><time>2026-04-11T12:53:09.931Z</time></trkpt><trkpt lat="45.716964775080754" lon="13.94480817921566"><ele>429.0</ele><time>2026-04-11T12:53:10.931Z</time></trkpt><trkpt lat="45.71688763606381" lon="13.94489373806657"><ele>429.0</ele><time>2026-04-11T12:53:11.931Z</time></trkpt><trkpt lat="45.71679884825442" lon="13.945025971759817"><ele>429.0</ele><time>2026-04-11T12:53:12.931Z</time></trkpt><trkpt lat="45.716722539579294" lon="13.945171888624053"><ele>429.0</ele><time>2026-04-11T12:53:13.931Z</time></trkpt><trkpt lat="45.716647047973574" lon="13.945329617981509"><ele>429.2</ele><time>2026-04-11T12:53:14.931Z</time></trkpt><trkpt lat="45.716569990097184" lon="13.945462668770922"><ele>429.4</ele><time>2026-04-11T12:53:15.931Z</time></trkpt><trkpt lat="45.716506398440806" lon="13.945567610270853"><ele>429.6</ele><time>2026-04-11T12:53:16.931Z</time></trkpt><trkpt lat="45.71645454385089" lon="13.94563904424378"><ele>429.8</ele><time>2026-04-11T12:53:17.931Z</time></trkpt><trkpt lat="45.71639324479338" lon="13.945730095789056"><ele>430.0</ele><time>2026-04-11T12:53:19.931Z</time></trkpt><trkpt lat="45.71632238135003" lon="13.945767282970246"><ele>430.0</ele><time>2026-04-11T12:53:27.931Z</time></trkpt><trkpt lat="45.71619683737456" lon="13.945808355506713"><ele>430.0</ele><time>2026-04-11T12:53:29.931Z</time></trkpt><trkpt lat="45.716104318372444" lon="13.945858430599559"><ele>430.0</ele><time>2026-04-11T12:53:30.931Z</time></trkpt><trkpt lat="45.71602915013595" lon="13.945941055437789"><ele>430.0</ele><time>2026-04-11T12:53:31.931Z</time></trkpt><trkpt lat="45.715993514498805" lon="13.946075338511779"><ele>430.0</ele><time>2026-04-11T12:53:32.931Z</time></trkpt><trkpt lat="45.71593038491356" lon="13.946180087985606"><ele>429.00000000000006</ele><time>2026-04-11T12:53:33.931Z</time></trkpt><trkpt lat="45.71588547103157" lon="13.946279461228716"><ele>428.0</ele><time>2026-04-11T12:53:34.931Z</time></trkpt><trkpt lat="45.7158225307047" lon="13.946366917448096"><ele>427.0</ele><time>2026-04-11T12:53:35.931Z</time></trkpt><trkpt lat="45.71579977363607" lon="13.946492374507951"><ele>426.0</ele><time>2026-04-11T12:53:36.931Z</time></trkpt><trkpt lat="45.71578627554362" lon="13.946616499155057"><ele>425.00000000000006</ele><time>2026-04-11T12:53:37.931Z</time></trkpt><trkpt lat="45.71578174301567" lon="13.94672623053544"><ele>424.0</ele><time>2026-04-11T12:53:39.931Z</time></trkpt><trkpt lat="45.71568114100221" lon="13.946684250768957"><ele>423.6</ele><time>2026-04-11T12:53:41.931Z</time></trkpt><trkpt lat="45.7156147862542" lon="13.946655184942301"><ele>423.2</ele><time>2026-04-11T12:53:42.931Z</time></trkpt><trkpt lat="45.71553015198065" lon="13.94661360359702"><ele>422.8</ele><time>2026-04-11T12:53:43.93Z</time></trkpt><trkpt lat="45.715430061402884" lon="13.946559955200216"><ele>422.40000000000003</ele><time>2026-04-11T12:53:44.93Z</time></trkpt><trkpt lat="45.715304898060495" lon="13.946509089172904"><ele>422.0</ele><time>2026-04-11T12:53:45.93Z</time></trkpt><trkpt lat="45.715169896657926" lon="13.946453788488553"><ele>419.0</ele><time>2026-04-11T12:53:46.93Z</time></trkpt><trkpt lat="45.71504564715559" lon="13.946348417629098"><ele>416.0</ele><time>2026-04-11T12:53:47.93Z</time></trkpt><trkpt lat="45.71492864313781" lon="13.946236769456561"><ele>413.0</ele><time>2026-04-11T12:53:48.93Z</time></trkpt><trkpt lat="45.71480939943874" lon="13.946123595353498"><ele>410.0</ele><time>2026-04-11T12:53:49.93Z</time></trkpt><trkpt lat="45.71467871243174" lon="13.946030941151854"><ele>410.0</ele><time>2026-04-11T12:53:50.93Z</time></trkpt><trkpt lat="45.71453748311157" lon="13.945990022520261"><ele>410.0</ele><time>2026-04-11T12:53:51.93Z</time></trkpt><trkpt lat="45.714399700765334" lon="13.945979240131228"><ele>410.0</ele><time>2026-04-11T12:53:52.931Z</time></trkpt><trkpt lat="45.714275609551514" lon="13.946015220598587"><ele>410.0</ele><time>2026-04-11T12:53:53.931Z</time></trkpt><trkpt lat="45.7141470262232" lon="13.946097127387587"><ele>409.75</ele><time>2026-04-11T12:53:54.931Z</time></trkpt><trkpt lat="45.714020912363" lon="13.946188000414905"><ele>409.5</ele><time>2026-04-11T12:53:55.932Z</time></trkpt><trkpt lat="45.71391653732317" lon="13.946303967071495"><ele>409.25</ele><time>2026-04-11T12:53:56.932Z</time></trkpt><trkpt lat="45.713810582807035" lon="13.946412685288285"><ele>409.0</ele><time>2026-04-11T12:53:57.932Z</time></trkpt><trkpt lat="45.713717202650265" lon="13.946501458305743"><ele>409.0</ele><time>2026-04-11T12:53:58.933Z</time></trkpt><trkpt lat="45.71360721775578" lon="13.946551628744611"><ele>409.0</ele><time>2026-04-11T12:53:59.933Z</time></trkpt><trkpt lat="45.713488356812476" lon="13.946569234732227"><ele>409.0</ele><time>2026-04-11T12:54:00.933Z</time></trkpt><trkpt lat="45.713365166527794" lon="13.94657238349881"><ele>409.0</ele><time>2026-04-11T12:54:01.933Z</time></trkpt><trkpt lat="45.713240241450976" lon="13.94655191576139"><ele>409.75</ele><time>2026-04-11T12:54:02.934Z</time></trkpt><trkpt lat="45.713109092752106" lon="13.946522962080811"><ele>410.5</ele><time>2026-04-11T12:54:03.934Z</time></trkpt><trkpt lat="45.712978306510344" lon="13.946480016023159"><ele>411.25</ele><time>2026-04-11T12:54:04.934Z</time></trkpt><trkpt lat="45.712844576072136" lon="13.946445789903043"><ele>412.0</ele><time>2026-04-11T12:54:05.934Z</time></trkpt><trkpt lat="45.712717588593236" lon="13.946408670353314"><ele>412.25</ele><time>2026-04-11T12:54:06.934Z</time></trkpt><trkpt lat="45.71259306436678" lon="13.946350765198137"><ele>412.5</ele><time>2026-04-11T12:54:07.934Z</time></trkpt><trkpt lat="45.71246908555215" lon="13.946299963761756"><ele>412.75</ele><time>2026-04-11T12:54:08.935Z</time></trkpt><trkpt lat="45.71234613826114" lon="13.946244229210592"><ele>413.0</ele><time>2026-04-11T12:54:09.935Z</time></trkpt><trkpt lat="45.712227951401744" lon="13.946201054880374"><ele>412.99999999999994</ele><time>2026-04-11T12:54:10.935Z</time></trkpt><trkpt lat="45.71212344560194" lon="13.946186800838353"><ele>413.0</ele><time>2026-04-11T12:54:11.935Z</time></trkpt><trkpt lat="45.712061240564914" lon="13.946166570596775"><ele>413.0</ele><time>2026-04-11T12:54:12.935Z</time></trkpt><trkpt lat="45.71199162272292" lon="13.94612909098261"><ele>413.0</ele><time>2026-04-11T12:54:14.935Z</time></trkpt><trkpt lat="45.71192786228757" lon="13.946101734536171"><ele>412.99999999999994</ele><time>2026-04-11T12:54:16.935Z</time></trkpt><trkpt lat="45.71183933695823" lon="13.946077133976631"><ele>413.0</ele><time>2026-04-11T12:54:19.936Z</time></trkpt><trkpt lat="45.71177355532385" lon="13.946124055137068"><ele>413.0</ele><time>2026-04-11T12:54:23.936Z</time></trkpt><trkpt lat="45.71184068861235" lon="13.946157664140811"><ele>413.0</ele><time>2026-04-11T12:54:26.936Z</time></trkpt><trkpt lat="45.71196195656956" lon="13.946140955401988"><ele>413.0</ele><time>2026-04-11T12:54:28.936Z</time></trkpt><trkpt lat="45.71205437431315" lon="13.946206134287868"><ele>413.0</ele><time>2026-04-11T12:54:30.936Z</time></trkpt><trkpt lat="45.71209264829342" lon="13.946319092660536"><ele>413.0</ele><time>2026-04-11T12:54:34.936Z</time></trkpt><trkpt lat="45.712000573516455" lon="13.946401122988364"><ele>411.59999999999997</ele><time>2026-04-11T12:54:36.936Z</time></trkpt><trkpt lat="45.711893867692886" lon="13.946511123495915"><ele>410.2</ele><time>2026-04-11T12:54:38.936Z</time></trkpt><trkpt lat="45.71180840815246" lon="13.946625139795414"><ele>408.8</ele><time>2026-04-11T12:54:40.936Z</time></trkpt><trkpt lat="45.71176166194322" lon="13.946686548778665"><ele>407.4</ele><time>2026-04-11T12:54:41.936Z</time></trkpt><trkpt lat="45.71167929601021" lon="13.946780983649315"><ele>406.0</ele><time>2026-04-11T12:54:43.937Z</time></trkpt><trkpt lat="45.711641047978" lon="13.946852960898934"><ele>405.20000000000005</ele><time>2026-04-11T12:54:45.936Z</time></trkpt><trkpt lat="45.711648640412676" lon="13.946944618391901"><ele>404.40000000000003</ele><time>2026-04-11T12:54:47.936Z</time></trkpt><trkpt lat="45.71168622997414" lon="13.94709766851285"><ele>403.6</ele><time>2026-04-11T12:54:49.936Z</time></trkpt><trkpt lat="45.71173045827158" lon="13.94720117928734"><ele>402.8</ele><time>2026-04-11T12:54:50.936Z</time></trkpt><trkpt lat="45.711772081752486" lon="13.947317775573799"><ele>402.0</ele><time>2026-04-11T12:54:51.936Z</time></trkpt><trkpt lat="45.71182875080136" lon="13.947431220404834"><ele>401.6</ele><time>2026-04-11T12:54:52.936Z</time></trkpt><trkpt lat="45.71187532468419" lon="13.947552661058584"><ele>401.20000000000005</ele><time>2026-04-11T12:54:53.936Z</time></trkpt><trkpt lat="45.71190841053866" lon="13.947690564776135"><ele>400.8</ele><time>2026-04-11T12:54:54.936Z</time></trkpt><trkpt lat="45.71193815148909" lon="13.947847359359761"><ele>400.4</ele><time>2026-04-11T12:54:55.936Z</time></trkpt><trkpt lat="45.711963853506" lon="13.948011533300193"><ele>400.0</ele><time>2026-04-11T12:54:56.936Z</time></trkpt><trkpt lat="45.711992190315094" lon="13.948194739284046"><ele>401.0</ele><time>2026-04-11T12:54:57.936Z</time></trkpt><trkpt lat="45.71199668280905" lon="13.948382150974231"><ele>402.0</ele><time>2026-04-11T12:54:58.936Z</time></trkpt><trkpt lat="45.71201975202598" lon="13.948576802209558"><ele>403.0</ele><time>2026-04-11T12:54:59.936Z</time></trkpt><trkpt lat="45.71202929799875" lon="13.948754529820878"><ele>404.0</ele><time>2026-04-11T12:55:00.936Z</time></trkpt><trkpt lat="45.71203674717045" lon="13.948919357058115"><ele>404.0</ele><time>2026-04-11T12:55:01.936Z</time></trkpt><trkpt lat="45.71203794451859" lon="13.949069077427858"><ele>404.0</ele><time>2026-04-11T12:55:02.936Z</time></trkpt><trkpt lat="45.71202698051012" lon="13.949217781629793"><ele>404.0</ele><time>2026-04-11T12:55:03.936Z</time></trkpt><trkpt lat="45.71201308774954" lon="13.949385615463319"><ele>404.0</ele><time>2026-04-11T12:55:04.936Z</time></trkpt><trkpt lat="45.711982554113206" lon="13.949579280599105"><ele>404.25</ele><time>2026-04-11T12:55:05.936Z</time></trkpt><trkpt lat="45.711957496214325" lon="13.949776006812064"><ele>404.5</ele><time>2026-04-11T12:55:06.936Z</time></trkpt><trkpt lat="45.711929597375004" lon="13.94995738560103"><ele>404.75</ele><time>2026-04-11T12:55:07.936Z</time></trkpt><trkpt lat="45.71191236389597" lon="13.950137556515086"><ele>405.0</ele><time>2026-04-11T12:55:08.936Z</time></trkpt><trkpt lat="45.71191468032174" lon="13.950322933426294"><ele>405.5</ele><time>2026-04-11T12:55:09.936Z</time></trkpt><trkpt lat="45.71191659456781" lon="13.950543748453555"><ele>406.0</ele><time>2026-04-11T12:55:10.936Z</time></trkpt><trkpt lat="45.711917958285234" lon="13.950751007755386"><ele>406.5</ele><time>2026-04-11T12:55:11.936Z</time></trkpt><trkpt lat="45.71191963910144" lon="13.95095775812077"><ele>407.0</ele><time>2026-04-11T12:55:12.936Z</time></trkpt><trkpt lat="45.71193173897027" lon="13.951141517681608"><ele>408.0</ele><time>2026-04-11T12:55:13.936Z</time></trkpt><trkpt lat="45.711933010569794" lon="13.951329564191807"><ele>409.0</ele><time>2026-04-11T12:55:14.936Z</time></trkpt><trkpt lat="45.711930758303374" lon="13.95151271341852"><ele>410.0</ele><time>2026-04-11T12:55:15.936Z</time></trkpt><trkpt lat="45.71192843580734" lon="13.951698436594153"><ele>411.0</ele><time>2026-04-11T12:55:16.936Z</time></trkpt><trkpt lat="45.71193660234418" lon="13.951876563399004"><ele>412.25</ele><time>2026-04-11T12:55:17.936Z</time></trkpt><trkpt lat="45.71194623694259" lon="13.952056436028794"><ele>413.5</ele><time>2026-04-11T12:55:18.936Z</time></trkpt><trkpt lat="45.7119604901831" lon="13.95222185224192"><ele>414.75</ele><time>2026-04-11T12:55:19.936Z</time></trkpt><trkpt lat="45.71197888240122" lon="13.952396290733368"><ele>416.0</ele><time>2026-04-11T12:55:20.936Z</time></trkpt><trkpt lat="45.712018301218585" lon="13.952562742989059"><ele>416.8</ele><time>2026-04-11T12:55:21.936Z</time></trkpt><trkpt lat="45.71204414816239" lon="13.952731131114879"><ele>417.6</ele><time>2026-04-11T12:55:22.936Z</time></trkpt><trkpt lat="45.712053989119276" lon="13.95289022646602"><ele>418.4</ele><time>2026-04-11T12:55:23.936Z</time></trkpt><trkpt lat="45.712074185326834" lon="13.953018238571758"><ele>419.2</ele><time>2026-04-11T12:55:24.936Z</time></trkpt><trkpt lat="45.7120790707155" lon="13.953116770733063"><ele>420.0</ele><time>2026-04-11T12:55:25.936Z</time></trkpt><trkpt lat="45.712073935451095" lon="13.953216921111167"><ele>420.0</ele><time>2026-04-11T12:55:26.936Z</time></trkpt><trkpt lat="45.712046009739105" lon="13.953323091994188"><ele>420.0</ele><time>2026-04-11T12:55:27.936Z</time></trkpt><trkpt lat="45.71201950923213" lon="13.953450092070664"><ele>420.0</ele><time>2026-04-11T12:55:28.936Z</time></trkpt><trkpt lat="45.712023505273" lon="13.953621111313675"><ele>420.0</ele><time>2026-04-11T12:55:29.936Z</time></trkpt><trkpt lat="45.71202827607817" lon="13.953742258519974"><ele>420.0</ele><time>2026-04-11T12:55:30.936Z</time></trkpt><trkpt lat="45.71203380291807" lon="13.953882603982159"><ele>420.75</ele><time>2026-04-11T12:55:31.936Z</time></trkpt><trkpt lat="45.712039773526556" lon="13.954034218277416"><ele>421.5</ele><time>2026-04-11T12:55:32.936Z</time></trkpt><trkpt lat="45.712044966990106" lon="13.954193128214122"><ele>422.25</ele><time>2026-04-11T12:55:33.936Z</time></trkpt><trkpt lat="45.71206623650086" lon="13.954359783881854"><ele>423.0</ele><time>2026-04-11T12:55:34.936Z</time></trkpt><trkpt lat="45.712067139037636" lon="13.95452335846679"><ele>424.0</ele><time>2026-04-11T12:55:35.936Z</time></trkpt><trkpt lat="45.71206987275221" lon="13.954678750266151"><ele>425.0</ele><time>2026-04-11T12:55:36.936Z</time></trkpt><trkpt lat="45.71206918973628" lon="13.954828847983343"><ele>425.99999999999994</ele><time>2026-04-11T12:55:37.936Z</time></trkpt><trkpt lat="45.712070983447354" lon="13.954971582888204"><ele>427.0</ele><time>2026-04-11T12:55:38.936Z</time></trkpt><trkpt lat="45.71205887151556" lon="13.95510568425664"><ele>428.0</ele><time>2026-04-11T12:55:39.936Z</time></trkpt><trkpt lat="45.71205974849464" lon="13.955243985689638"><ele>428.75</ele><time>2026-04-11T12:55:40.936Z</time></trkpt><trkpt lat="45.71206086740005" lon="13.955420440254555"><ele>429.5</ele><time>2026-04-11T12:55:41.936Z</time></trkpt><trkpt lat="45.71207858578344" lon="13.955618729263382"><ele>430.25</ele><time>2026-04-11T12:55:42.936Z</time></trkpt><trkpt lat="45.71207412443303" lon="13.955792857132398"><ele>431.0</ele><time>2026-04-11T12:55:43.936Z</time></trkpt><trkpt lat="45.712077599783846" lon="13.95597931155784"><ele>431.20000000000005</ele><time>2026-04-11T12:55:44.936Z</time></trkpt><trkpt lat="45.712078276043584" lon="13.956163719128872"><ele>431.40000000000003</ele><time>2026-04-11T12:55:45.936Z</time></trkpt><trkpt lat="45.712078747482266" lon="13.956335042890887"><ele>431.6</ele><time>2026-04-11T12:55:46.936Z</time></trkpt><trkpt lat="45.712076863097145" lon="13.956469222387108"><ele>431.8</ele><time>2026-04-11T12:55:47.936Z</time></trkpt><trkpt lat="45.71205102737019" lon="13.956592966256117"><ele>432.0</ele><time>2026-04-11T12:55:48.936Z</time></trkpt><trkpt lat="45.71202678329315" lon="13.956705642927178"><ele>432.20000000000005</ele><time>2026-04-11T12:55:49.936Z</time></trkpt><trkpt lat="45.711979802256906" lon="13.956819615040095"><ele>432.40000000000003</ele><time>2026-04-11T12:55:50.936Z</time></trkpt><trkpt lat="45.711928843591785" lon="13.956930313961816"><ele>432.59999999999997</ele><time>2026-04-11T12:55:51.936Z</time></trkpt><trkpt lat="45.71185373494311" lon="13.957061303804709"><ele>432.79999999999995</ele><time>2026-04-11T12:55:52.936Z</time></trkpt><trkpt lat="45.711771859369996" lon="13.957212742380108"><ele>433.0</ele><time>2026-04-11T12:55:53.936Z</time></trkpt><trkpt lat="45.71171734743232" lon="13.957358698797568"><ele>434.25</ele><time>2026-04-11T12:55:54.936Z</time></trkpt><trkpt lat="45.711667409085756" lon="13.957529310599329"><ele>435.5</ele><time>2026-04-11T12:55:55.936Z</time></trkpt><trkpt lat="45.71163443085094" lon="13.95770403977195"><ele>436.75</ele><time>2026-04-11T12:55:56.936Z</time></trkpt><trkpt lat="45.711606419182466" lon="13.957871300361631"><ele>438.0</ele><time>2026-04-11T12:55:57.936Z</time></trkpt><trkpt lat="45.71159777208406" lon="13.958065260014052"><ele>439.0</ele><time>2026-04-11T12:55:58.936Z</time></trkpt><trkpt lat="45.71159377491574" lon="13.95822706891439"><ele>440.0</ele><time>2026-04-11T12:55:59.936Z</time></trkpt><trkpt lat="45.71159377025018" lon="13.958389355019902"><ele>441.0</ele><time>2026-04-11T12:56:00.936Z</time></trkpt><trkpt lat="45.71160439044435" lon="13.958554016939312"><ele>442.0</ele><time>2026-04-11T12:56:01.936Z</time></trkpt><trkpt lat="45.71162214451874" lon="13.9587272440169"><ele>443.25</ele><time>2026-04-11T12:56:02.936Z</time></trkpt><trkpt lat="45.71164691839591" lon="13.958900592464726"><ele>444.5</ele><time>2026-04-11T12:56:03.936Z</time></trkpt><trkpt lat="45.71167128744205" lon="13.959081174643556"><ele>445.75</ele><time>2026-04-11T12:56:04.936Z</time></trkpt><trkpt lat="45.711707694189705" lon="13.959276623012022"><ele>447.0</ele><time>2026-04-11T12:56:05.936Z</time></trkpt><trkpt lat="45.711743350939216" lon="13.959466069859802"><ele>448.25</ele><time>2026-04-11T12:56:06.936Z</time></trkpt><trkpt lat="45.711774571163666" lon="13.959646940340393"><ele>449.5</ele><time>2026-04-11T12:56:07.936Z</time></trkpt><trkpt lat="45.711813548176224" lon="13.959825480613647"><ele>450.75</ele><time>2026-04-11T12:56:08.936Z</time></trkpt><trkpt lat="45.711855560898194" lon="13.960011857355582"><ele>452.0</ele><time>2026-04-11T12:56:09.936Z</time></trkpt><trkpt lat="45.71189774635672" lon="13.960189986738339"><ele>454.75</ele><time>2026-04-11T12:56:10.936Z</time></trkpt><trkpt lat="45.71192565298865" lon="13.960361968449227"><ele>457.5</ele><time>2026-04-11T12:56:11.936Z</time></trkpt><trkpt lat="45.7119821901383" lon="13.960526518960778"><ele>460.25</ele><time>2026-04-11T12:56:12.936Z</time></trkpt><trkpt lat="45.712023923430145" lon="13.960696587765385"><ele>463.0</ele><time>2026-04-11T12:56:13.936Z</time></trkpt><trkpt lat="45.7120655508234" lon="13.960871845024007"><ele>463.75</ele><time>2026-04-11T12:56:14.936Z</time></trkpt><trkpt lat="45.71211260911758" lon="13.961046732634037"><ele>464.5</ele><time>2026-04-11T12:56:15.936Z</time></trkpt><trkpt lat="45.71215160188256" lon="13.961220780055315"><ele>465.25</ele><time>2026-04-11T12:56:16.936Z</time></trkpt><trkpt lat="45.712183119172686" lon="13.961406060775456"><ele>466.0</ele><time>2026-04-11T12:56:17.936Z</time></trkpt><trkpt lat="45.71220465924107" lon="13.961581190853256"><ele>467.5</ele><time>2026-04-11T12:56:18.936Z</time></trkpt><trkpt lat="45.712234533398664" lon="13.961777929941736"><ele>469.0</ele><time>2026-04-11T12:56:19.936Z</time></trkpt><trkpt lat="45.71225068882066" lon="13.961965490573155"><ele>470.5</ele><time>2026-04-11T12:56:20.936Z</time></trkpt><trkpt lat="45.712284077133475" lon="13.962148917288271"><ele>472.0</ele><time>2026-04-11T12:56:21.936Z</time></trkpt><trkpt lat="45.71230570324158" lon="13.962333299985845"><ele>472.0</ele><time>2026-04-11T12:56:22.936Z</time></trkpt><trkpt lat="45.71232677719386" lon="13.962508959846513"><ele>472.0</ele><time>2026-04-11T12:56:23.936Z</time></trkpt><trkpt lat="45.712346737837535" lon="13.962688441398898"><ele>472.0</ele><time>2026-04-11T12:56:24.936Z</time></trkpt><trkpt lat="45.712358577398184" lon="13.96289039112985"><ele>472.0</ele><time>2026-04-11T12:56:25.936Z</time></trkpt><trkpt lat="45.71236606894185" lon="13.963092585574026"><ele>473.0</ele><time>2026-04-11T12:56:26.936Z</time></trkpt><trkpt lat="45.71237599067089" lon="13.963298336253017"><ele>474.0</ele><time>2026-04-11T12:56:27.936Z</time></trkpt><trkpt lat="45.71239746241591" lon="13.963480504472793"><ele>475.0</ele><time>2026-04-11T12:56:28.936Z</time></trkpt><trkpt lat="45.712403462643536" lon="13.963640678397546"><ele>476.0</ele><time>2026-04-11T12:56:29.936Z</time></trkpt><trkpt lat="45.71242331946586" lon="13.963796654548908"><ele>477.0</ele><time>2026-04-11T12:56:30.936Z</time></trkpt><trkpt lat="45.71241689439552" lon="13.963946140771263"><ele>478.0</ele><time>2026-04-11T12:56:31.935Z</time></trkpt><trkpt lat="45.712410507292496" lon="13.964114375777855"><ele>479.0</ele><time>2026-04-11T12:56:32.935Z</time></trkpt><trkpt lat="45.71239166927869" lon="13.964290916688357"><ele>480.0</ele><time>2026-04-11T12:56:33.935Z</time></trkpt><trkpt lat="45.71237080240642" lon="13.964481469362811"><ele>480.75</ele><time>2026-04-11T12:56:34.935Z</time></trkpt><trkpt lat="45.712338720687555" lon="13.964667917903531"><ele>481.5</ele><time>2026-04-11T12:56:35.935Z</time></trkpt><trkpt lat="45.71229857858406" lon="13.964862437458551"><ele>482.25</ele><time>2026-04-11T12:56:36.935Z</time></trkpt><trkpt lat="45.71225739375016" lon="13.965043908110973"><ele>483.0</ele><time>2026-04-11T12:56:37.935Z</time></trkpt><trkpt lat="45.71221452668278" lon="13.965239928264843"><ele>484.25</ele><time>2026-04-11T12:56:38.935Z</time></trkpt><trkpt lat="45.71217639277882" lon="13.965452405981846"><ele>485.5</ele><time>2026-04-11T12:56:39.935Z</time></trkpt><trkpt lat="45.712135882517416" lon="13.965641625834271"><ele>486.75</ele><time>2026-04-11T12:56:40.935Z</time></trkpt><trkpt lat="45.712087990158295" lon="13.96582960185211"><ele>488.0</ele><time>2026-04-11T12:56:41.935Z</time></trkpt><trkpt lat="45.71203824153018" lon="13.96602540106765"><ele>487.5</ele><time>2026-04-11T12:56:42.935Z</time></trkpt><trkpt lat="45.71198577705083" lon="13.96620025735007"><ele>487.0</ele><time>2026-04-11T12:56:43.935Z</time></trkpt><trkpt lat="45.7119330896281" lon="13.966359527960769"><ele>486.5</ele><time>2026-04-11T12:56:44.935Z</time></trkpt><trkpt lat="45.71188656894994" lon="13.966513877256013"><ele>486.0</ele><time>2026-04-11T12:56:45.936Z</time></trkpt><trkpt lat="45.71184354239168" lon="13.966674847817771"><ele>487.25</ele><time>2026-04-11T12:56:46.935Z</time></trkpt><trkpt lat="45.711792706384465" lon="13.96685067678317"><ele>488.5</ele><time>2026-04-11T12:56:47.935Z</time></trkpt><trkpt lat="45.711755955841156" lon="13.967030982649861"><ele>489.75</ele><time>2026-04-11T12:56:48.935Z</time></trkpt><trkpt lat="45.71172069725175" lon="13.967180069590961"><ele>491.0</ele><time>2026-04-11T12:56:49.935Z</time></trkpt><trkpt lat="45.711671785972975" lon="13.967328874439694"><ele>491.0</ele><time>2026-04-11T12:56:50.935Z</time></trkpt><trkpt lat="45.71162566152116" lon="13.967465752799548"><ele>491.0</ele><time>2026-04-11T12:56:51.936Z</time></trkpt><trkpt lat="45.711561051800196" lon="13.967617671648659"><ele>491.0</ele><time>2026-04-11T12:56:52.935Z</time></trkpt><trkpt lat="45.71150464053836" lon="13.96775183373403"><ele>491.0</ele><time>2026-04-11T12:56:53.935Z</time></trkpt><trkpt lat="45.71142682584035" lon="13.96789469592795"><ele>493.25</ele><time>2026-04-11T12:56:54.935Z</time></trkpt><trkpt lat="45.71136199864614" lon="13.968060592674364"><ele>495.5</ele><time>2026-04-11T12:56:55.935Z</time></trkpt><trkpt lat="45.71131517794018" lon="13.968216914652341"><ele>497.75</ele><time>2026-04-11T12:56:56.935Z</time></trkpt><trkpt lat="45.71126656871451" lon="13.96838019430033"><ele>500.0</ele><time>2026-04-11T12:56:57.935Z</time></trkpt><trkpt lat="45.71123548910142" lon="13.9685566083969"><ele>501.0</ele><time>2026-04-11T12:56:58.935Z</time></trkpt><trkpt lat="45.71120371422349" lon="13.968731843432042"><ele>502.0</ele><time>2026-04-11T12:56:59.935Z</time></trkpt><trkpt lat="45.71118255810022" lon="13.968924790149915"><ele>503.0</ele><time>2026-04-11T12:57:00.935Z</time></trkpt><trkpt lat="45.711152176930405" lon="13.969100421960572"><ele>504.0</ele><time>2026-04-11T12:57:01.935Z</time></trkpt><trkpt lat="45.71112322718036" lon="13.969259426943324"><ele>504.5</ele><time>2026-04-11T12:57:02.935Z</time></trkpt><trkpt lat="45.711088108682766" lon="13.969435864271073"><ele>505.0</ele><time>2026-04-11T12:57:03.935Z</time></trkpt><trkpt lat="45.71105188164229" lon="13.969629998669891"><ele>505.5</ele><time>2026-04-11T12:57:04.935Z</time></trkpt><trkpt lat="45.71101521243617" lon="13.969775659893621"><ele>506.0</ele><time>2026-04-11T12:57:05.935Z</time></trkpt><trkpt lat="45.7109793514788" lon="13.969927532074696"><ele>506.3333333333333</ele><time>2026-04-11T12:57:06.935Z</time></trkpt><trkpt lat="45.71094700772202" lon="13.970059852287543"><ele>506.66666666666663</ele><time>2026-04-11T12:57:07.935Z</time></trkpt><trkpt lat="45.71091047526803" lon="13.970139154864713"><ele>507.0</ele><time>2026-04-11T12:57:08.935Z</time></trkpt><trkpt lat="45.710852450240516" lon="13.970206195455187"><ele>507.33333333333337</ele><time>2026-04-11T12:57:09.935Z</time></trkpt><trkpt lat="45.71079249498358" lon="13.970295872833265"><ele>507.6666666666667</ele><time>2026-04-11T12:57:10.935Z</time></trkpt><trkpt lat="45.71072387695066" lon="13.970385882129037"><ele>508.0</ele><time>2026-04-11T12:57:11.935Z</time></trkpt><trkpt lat="45.71062297218818" lon="13.970510324780559"><ele>508.0</ele><time>2026-04-11T12:57:12.935Z</time></trkpt><trkpt lat="45.71051880415917" lon="13.970620640461044"><ele>508.0</ele><time>2026-04-11T12:57:13.934Z</time></trkpt><trkpt lat="45.71040934397742" lon="13.970780520951596"><ele>508.0</ele><time>2026-04-11T12:57:14.934Z</time></trkpt><trkpt lat="45.710315243783974" lon="13.97094501179014"><ele>508.0</ele><time>2026-04-11T12:57:15.934Z</time></trkpt><trkpt lat="45.71020210556211" lon="13.971147008371258"><ele>508.0</ele><time>2026-04-11T12:57:16.934Z</time></trkpt><trkpt lat="45.710118960299404" lon="13.971319482714252"><ele>508.0</ele><time>2026-04-11T12:57:17.934Z</time></trkpt><trkpt lat="45.71001460107309" lon="13.971483285039099"><ele>508.0</ele><time>2026-04-11T12:57:18.934Z</time></trkpt><trkpt lat="45.70991699474117" lon="13.97164609243183"><ele>509.25</ele><time>2026-04-11T12:57:19.934Z</time></trkpt><trkpt lat="45.70981805264725" lon="13.971803636790641"><ele>510.5</ele><time>2026-04-11T12:57:20.934Z</time></trkpt><trkpt lat="45.70972758748501" lon="13.971953003067183"><ele>511.75</ele><time>2026-04-11T12:57:21.934Z</time></trkpt><trkpt lat="45.70964969034276" lon="13.972081302188315"><ele>513.0</ele><time>2026-04-11T12:57:22.934Z</time></trkpt><trkpt lat="45.70955794519251" lon="13.9721820419084"><ele>513.0</ele><time>2026-04-11T12:57:23.934Z</time></trkpt><trkpt lat="45.7094664519008" lon="13.972285090581034"><ele>513.0</ele><time>2026-04-11T12:57:24.934Z</time></trkpt><trkpt lat="45.7093604446042" lon="13.972393237114346"><ele>513.0</ele><time>2026-04-11T12:57:25.934Z</time></trkpt><trkpt lat="45.709257395654966" lon="13.972483266376926"><ele>513.0</ele><time>2026-04-11T12:57:26.934Z</time></trkpt><trkpt lat="45.70914180072235" lon="13.972564294383103"><ele>516.75</ele><time>2026-04-11T12:57:27.934Z</time></trkpt><trkpt lat="45.709031679070094" lon="13.972649365916807"><ele>520.5</ele><time>2026-04-11T12:57:28.934Z</time></trkpt><trkpt lat="45.70892168587045" lon="13.97272771515702"><ele>524.25</ele><time>2026-04-11T12:57:29.934Z</time></trkpt><trkpt lat="45.70883221301513" lon="13.972830332636512"><ele>528.0</ele><time>2026-04-11T12:57:30.934Z</time></trkpt><trkpt lat="45.708748714032915" lon="13.972955952763613"><ele>528.0</ele><time>2026-04-11T12:57:31.934Z</time></trkpt><trkpt lat="45.708676266622525" lon="13.973077436491874"><ele>528.0</ele><time>2026-04-11T12:57:32.934Z</time></trkpt><trkpt lat="45.70861843023873" lon="13.97320999250778"><ele>528.0</ele><time>2026-04-11T12:57:33.934Z</time></trkpt><trkpt lat="45.708561795367785" lon="13.973386668519359"><ele>528.0</ele><time>2026-04-11T12:57:34.934Z</time></trkpt><trkpt lat="45.70852647450385" lon="13.97355082854342"><ele>529.0</ele><time>2026-04-11T12:57:35.934Z</time></trkpt><trkpt lat="45.70848349817321" lon="13.973758963123219"><ele>530.0</ele><time>2026-04-11T12:57:36.934Z</time></trkpt><trkpt lat="45.70843222618855" lon="13.973965614812172"><ele>531.0</ele><time>2026-04-11T12:57:37.934Z</time></trkpt><trkpt lat="45.70839136156639" lon="13.974160262478314"><ele>532.0</ele><time>2026-04-11T12:57:38.934Z</time></trkpt><trkpt lat="45.70835992393105" lon="13.974353972476312"><ele>533.25</ele><time>2026-04-11T12:57:39.934Z</time></trkpt><trkpt lat="45.70832323717454" lon="13.974549517578774"><ele>534.5</ele><time>2026-04-11T12:57:40.934Z</time></trkpt><trkpt lat="45.70828987986119" lon="13.97472863061117"><ele>535.75</ele><time>2026-04-11T12:57:41.934Z</time></trkpt><trkpt lat="45.70825868597248" lon="13.974912733874996"><ele>537.0</ele><time>2026-04-11T12:57:42.934Z</time></trkpt><trkpt lat="45.708252304253804" lon="13.97508621091514"><ele>538.2</ele><time>2026-04-11T12:57:43.934Z</time></trkpt><trkpt lat="45.708250705558534" lon="13.975258836521665"><ele>539.4000000000001</ele><time>2026-04-11T12:57:44.934Z</time></trkpt><trkpt lat="45.70825737737472" lon="13.975417570110775"><ele>540.5999999999999</ele><time>2026-04-11T12:57:45.934Z</time></trkpt><trkpt lat="45.70826279695637" lon="13.975546511024639"><ele>541.8</ele><time>2026-04-11T12:57:46.934Z</time></trkpt><trkpt lat="45.70823685378285" lon="13.975667701720194"><ele>543.0</ele><time>2026-04-11T12:57:47.934Z</time></trkpt><trkpt lat="45.70820143561227" lon="13.975776497696748"><ele>544.0</ele><time>2026-04-11T12:57:48.934Z</time></trkpt><trkpt lat="45.70813776313282" lon="13.975872580795972"><ele>545.0</ele><time>2026-04-11T12:57:49.934Z</time></trkpt><trkpt lat="45.70806974358724" lon="13.975972146107898"><ele>546.0</ele><time>2026-04-11T12:57:50.934Z</time></trkpt><trkpt lat="45.70799258457158" lon="13.976085089552821"><ele>547.0</ele><time>2026-04-11T12:57:51.934Z</time></trkpt><trkpt lat="45.7079401768101" lon="13.976228874590143"><ele>548.0</ele><time>2026-04-11T12:57:52.934Z</time></trkpt><trkpt lat="45.70788838283577" lon="13.976374554810292"><ele>548.0</ele><time>2026-04-11T12:57:53.934Z</time></trkpt><trkpt lat="45.70784901470197" lon="13.976528218067653"><ele>548.0</ele><time>2026-04-11T12:57:54.934Z</time></trkpt><trkpt lat="45.70783029225491" lon="13.9767096526624"><ele>548.0</ele><time>2026-04-11T12:57:55.934Z</time></trkpt><trkpt lat="45.70780198360966" lon="13.97688237863175"><ele>548.0</ele><time>2026-04-11T12:57:56.934Z</time></trkpt><trkpt lat="45.707766797482606" lon="13.977031405255596"><ele>549.0</ele><time>2026-04-11T12:57:57.934Z</time></trkpt><trkpt lat="45.70769442592458" lon="13.97717677112765"><ele>550.0</ele><time>2026-04-11T12:57:58.934Z</time></trkpt><trkpt lat="45.707614243401665" lon="13.977294492684079"><ele>551.0</ele><time>2026-04-11T12:57:59.934Z</time></trkpt><trkpt lat="45.7075417188481" lon="13.977429502469032"><ele>552.0</ele><time>2026-04-11T12:58:00.934Z</time></trkpt><trkpt lat="45.70744921972148" lon="13.977608827166954"><ele>553.5</ele><time>2026-04-11T12:58:01.934Z</time></trkpt><trkpt lat="45.70735032826197" lon="13.977765095099256"><ele>555.0</ele><time>2026-04-11T12:58:02.934Z</time></trkpt><trkpt lat="45.70728988998158" lon="13.977909385170024"><ele>556.5</ele><time>2026-04-11T12:58:03.934Z</time></trkpt><trkpt lat="45.707209888386735" lon="13.978058813700319"><ele>558.0</ele><time>2026-04-11T12:58:04.934Z</time></trkpt><trkpt lat="45.70712088982553" lon="13.97821739700758"><ele>558.25</ele><time>2026-04-11T12:58:05.934Z</time></trkpt><trkpt lat="45.70705504456175" lon="13.978382558074788"><ele>558.5</ele><time>2026-04-11T12:58:06.934Z</time></trkpt><trkpt lat="45.70699622958128" lon="13.978538940041142"><ele>558.75</ele><time>2026-04-11T12:58:07.934Z</time></trkpt><trkpt lat="45.706935149928455" lon="13.978709767601819"><ele>559.0</ele><time>2026-04-11T12:58:08.934Z</time></trkpt><trkpt lat="45.706889070265035" lon="13.978889934385668"><ele>559.0</ele><time>2026-04-11T12:58:09.934Z</time></trkpt><trkpt lat="45.70686349418716" lon="13.979088066390045"><ele>559.0</ele><time>2026-04-11T12:58:10.934Z</time></trkpt><trkpt lat="45.70682819572782" lon="13.979287048634461"><ele>559.0</ele><time>2026-04-11T12:58:11.934Z</time></trkpt><trkpt lat="45.706803421834074" lon="13.979467696781816"><ele>559.0</ele><time>2026-04-11T12:58:12.934Z</time></trkpt><trkpt lat="45.7067742496466" lon="13.979661705333267"><ele>559.75</ele><time>2026-04-11T12:58:13.934Z</time></trkpt><trkpt lat="45.70675533570656" lon="13.979839256243793"><ele>560.5</ele><time>2026-04-11T12:58:14.934Z</time></trkpt><trkpt lat="45.70670605267064" lon="13.980022560208251"><ele>561.25</ele><time>2026-04-11T12:58:15.934Z</time></trkpt><trkpt lat="45.706694671092784" lon="13.980216646010684"><ele>562.0</ele><time>2026-04-11T12:58:16.934Z</time></trkpt><trkpt lat="45.706684219746364" lon="13.980375354451727"><ele>564.25</ele><time>2026-04-11T12:58:17.934Z</time></trkpt><trkpt lat="45.70667559750535" lon="13.980519374052474"><ele>566.5</ele><time>2026-04-11T12:58:18.934Z</time></trkpt><trkpt lat="45.70665939289679" lon="13.980679983725253"><ele>568.75</ele><time>2026-04-11T12:58:19.934Z</time></trkpt><trkpt lat="45.70661819661638" lon="13.980853233977935"><ele>571.0</ele><time>2026-04-11T12:58:20.934Z</time></trkpt><trkpt lat="45.706562659969165" lon="13.981052450909388"><ele>572.0</ele><time>2026-04-11T12:58:21.934Z</time></trkpt><trkpt lat="45.706513580442305" lon="13.981225133382878"><ele>573.0</ele><time>2026-04-11T12:58:22.934Z</time></trkpt><trkpt lat="45.706438048353256" lon="13.981369331011853"><ele>574.0</ele><time>2026-04-11T12:58:23.934Z</time></trkpt><trkpt lat="45.706346283591465" lon="13.981510212455607"><ele>575.0</ele><time>2026-04-11T12:58:24.934Z</time></trkpt><trkpt lat="45.70625404867725" lon="13.981651501507127"><ele>575.75</ele><time>2026-04-11T12:58:25.934Z</time></trkpt><trkpt lat="45.70616500798714" lon="13.981797815191374"><ele>576.5</ele><time>2026-04-11T12:58:26.934Z</time></trkpt><trkpt lat="45.706100294287104" lon="13.981959436515673"><ele>577.25</ele><time>2026-04-11T12:58:27.934Z</time></trkpt><trkpt lat="45.70602000539776" lon="13.982098369060822"><ele>578.0</ele><time>2026-04-11T12:58:28.934Z</time></trkpt><trkpt lat="45.70592924855715" lon="13.98224170960219"><ele>577.0</ele><time>2026-04-11T12:58:29.934Z</time></trkpt><trkpt lat="45.70582985879945" lon="13.982393931528293"><ele>576.0</ele><time>2026-04-11T12:58:30.934Z</time></trkpt><trkpt lat="45.705712255110015" lon="13.982532328462609"><ele>575.0</ele><time>2026-04-11T12:58:31.934Z</time></trkpt><trkpt lat="45.70558364077571" lon="13.98266935152506"><ele>575.0</ele><time>2026-04-11T12:58:32.934Z</time></trkpt><trkpt lat="45.7054645875003" lon="13.982804349662004"><ele>575.0</ele><time>2026-04-11T12:58:33.934Z</time></trkpt><trkpt lat="45.70535937765642" lon="13.982925767508101"><ele>575.0</ele><time>2026-04-11T12:58:34.934Z</time></trkpt><trkpt lat="45.70525240970859" lon="13.983051483025166"><ele>575.0</ele><time>2026-04-11T12:58:35.934Z</time></trkpt><trkpt lat="45.70516626739413" lon="13.983166737084519"><ele>571.75</ele><time>2026-04-11T12:58:36.934Z</time></trkpt><trkpt lat="45.705095461178864" lon="13.98329392634481"><ele>568.5</ele><time>2026-04-11T12:58:37.934Z</time></trkpt><trkpt lat="45.70502290608929" lon="13.983421226640688"><ele>565.25</ele><time>2026-04-11T12:58:38.934Z</time></trkpt><trkpt lat="45.70495722614156" lon="13.983556111157625"><ele>562.0</ele><time>2026-04-11T12:58:39.934Z</time></trkpt><trkpt lat="45.70489335141281" lon="13.983704056474226"><ele>561.2</ele><time>2026-04-11T12:58:40.934Z</time></trkpt><trkpt lat="45.70483720638721" lon="13.983841057079704"><ele>560.4000000000001</ele><time>2026-04-11T12:58:41.934Z</time></trkpt><trkpt lat="45.70478628677449" lon="13.983987803412258"><ele>559.5999999999999</ele><time>2026-04-11T12:58:42.934Z</time></trkpt><trkpt lat="45.70473845701328" lon="13.98411889861442"><ele>558.8</ele><time>2026-04-11T12:58:43.934Z</time></trkpt><trkpt lat="45.70469161218789" lon="13.984247294223094"><ele>558.0</ele><time>2026-04-11T12:58:44.934Z</time></trkpt><trkpt lat="45.704638691524835" lon="13.984380854789418"><ele>557.1999999999999</ele><time>2026-04-11T12:58:45.934Z</time></trkpt><trkpt lat="45.70457611865794" lon="13.98449328429292"><ele>556.4</ele><time>2026-04-11T12:58:46.934Z</time></trkpt><trkpt lat="45.70450890598296" lon="13.984599879753022"><ele>555.5999999999999</ele><time>2026-04-11T12:58:47.934Z</time></trkpt><trkpt lat="45.70443013119303" lon="13.984672338387321"><ele>554.8</ele><time>2026-04-11T12:58:48.933Z</time></trkpt><trkpt lat="45.704348588144484" lon="13.984735063008904"><ele>554.0</ele><time>2026-04-11T12:58:49.933Z</time></trkpt><trkpt lat="45.7042587755042" lon="13.984801330699112"><ele>554.0</ele><time>2026-04-11T12:58:50.933Z</time></trkpt><trkpt lat="45.70417062848718" lon="13.984857192341517"><ele>554.0</ele><time>2026-04-11T12:58:51.934Z</time></trkpt><trkpt lat="45.704069196906794" lon="13.98491266340747"><ele>554.0</ele><time>2026-04-11T12:58:52.934Z</time></trkpt><trkpt lat="45.70397329554018" lon="13.984951491392524"><ele>554.0</ele><time>2026-04-11T12:58:53.934Z</time></trkpt><trkpt lat="45.7038404907028" lon="13.984980845537653"><ele>554.0</ele><time>2026-04-11T12:58:54.934Z</time></trkpt><trkpt lat="45.70371555591936" lon="13.984994025772346"><ele>554.0</ele><time>2026-04-11T12:58:55.934Z</time></trkpt><trkpt lat="45.703588176409724" lon="13.984996946796338"><ele>554.0</ele><time>2026-04-11T12:58:56.934Z</time></trkpt><trkpt lat="45.70346160683822" lon="13.985005036143015"><ele>554.0</ele><time>2026-04-11T12:58:57.934Z</time></trkpt><trkpt lat="45.70333488416229" lon="13.985000935676617"><ele>554.0</ele><time>2026-04-11T12:58:58.934Z</time></trkpt><trkpt lat="45.703205471038345" lon="13.985014159644614"><ele>555.0</ele><time>2026-04-11T12:58:59.934Z</time></trkpt><trkpt lat="45.7030637234302" lon="13.985032414212387"><ele>556.0</ele><time>2026-04-11T12:59:00.934Z</time></trkpt><trkpt lat="45.70292595509757" lon="13.985020334493061"><ele>557.0</ele><time>2026-04-11T12:59:01.934Z</time></trkpt><trkpt lat="45.70279893274006" lon="13.98506229105158"><ele>558.0</ele><time>2026-04-11T12:59:02.934Z</time></trkpt><trkpt lat="45.702672929194904" lon="13.98509056765353"><ele>554.75</ele><time>2026-04-11T12:59:03.934Z</time></trkpt><trkpt lat="45.702536983191834" lon="13.985117455306067"><ele>551.5</ele><time>2026-04-11T12:59:04.934Z</time></trkpt><trkpt lat="45.70239369869638" lon="13.985144074050806"><ele>548.25</ele><time>2026-04-11T12:59:05.934Z</time></trkpt><trkpt lat="45.702268204096036" lon="13.98516821117969"><ele>545.0</ele><time>2026-04-11T12:59:06.934Z</time></trkpt><trkpt lat="45.702117151948784" lon="13.985197682874823"><ele>545.0</ele><time>2026-04-11T12:59:07.934Z</time></trkpt><trkpt lat="45.701976885139885" lon="13.985193726833566"><ele>545.0</ele><time>2026-04-11T12:59:08.934Z</time></trkpt><trkpt lat="45.701861488851044" lon="13.985198519073327"><ele>545.0</ele><time>2026-04-11T12:59:09.934Z</time></trkpt><trkpt lat="45.70173410647367" lon="13.985199888424724"><ele>545.0</ele><time>2026-04-11T12:59:10.934Z</time></trkpt><trkpt lat="45.701625980208284" lon="13.985202407189762"><ele>543.2</ele><time>2026-04-11T12:59:11.934Z</time></trkpt><trkpt lat="45.7015160915037" lon="13.985206802464086"><ele>541.4</ele><time>2026-04-11T12:59:12.934Z</time></trkpt><trkpt lat="45.70140582049858" lon="13.985220414823043"><ele>539.6</ele><time>2026-04-11T12:59:13.934Z</time></trkpt><trkpt lat="45.70128928857764" lon="13.985232793008374"><ele>537.8</ele><time>2026-04-11T12:59:14.934Z</time></trkpt><trkpt lat="45.701194798654534" lon="13.98519936400744"><ele>536.0</ele><time>2026-04-11T12:59:15.934Z</time></trkpt><trkpt lat="45.7011021919184" lon="13.985168665760597"><ele>533.0</ele><time>2026-04-11T12:59:16.934Z</time></trkpt><trkpt lat="45.70100111656114" lon="13.985118428250857"><ele>530.0</ele><time>2026-04-11T12:59:17.934Z</time></trkpt><trkpt lat="45.7009142613151" lon="13.985099230089471"><ele>527.0</ele><time>2026-04-11T12:59:18.934Z</time></trkpt><trkpt lat="45.700836752256336" lon="13.985043026611843"><ele>524.0</ele><time>2026-04-11T12:59:19.934Z</time></trkpt><trkpt lat="45.700748514098024" lon="13.984973597058877"><ele>521.0</ele><time>2026-04-11T12:59:20.934Z</time></trkpt><trkpt lat="45.70065284877178" lon="13.984920722951253"><ele>520.6</ele><time>2026-04-11T12:59:21.934Z</time></trkpt><trkpt lat="45.7005563155739" lon="13.984878021061208"><ele>520.2</ele><time>2026-04-11T12:59:22.934Z</time></trkpt><trkpt lat="45.70045285098089" lon="13.984839331713316"><ele>519.8</ele><time>2026-04-11T12:59:23.934Z</time></trkpt><trkpt lat="45.700333380095095" lon="13.9848083720672"><ele>519.4</ele><time>2026-04-11T12:59:24.934Z</time></trkpt><trkpt lat="45.70022229879461" lon="13.984800961765226"><ele>519.0</ele><time>2026-04-11T12:59:25.934Z</time></trkpt><trkpt lat="45.70012878182051" lon="13.98480626606875"><ele>517.0</ele><time>2026-04-11T12:59:26.934Z</time></trkpt><trkpt lat="45.700050165309776" lon="13.98482375471392"><ele>515.0</ele><time>2026-04-11T12:59:27.934Z</time></trkpt><trkpt lat="45.699980420179486" lon="13.984854620810792"><ele>513.0</ele><time>2026-04-11T12:59:28.934Z</time></trkpt><trkpt lat="45.69989665274882" lon="13.984898154664194"><ele>511.0</ele><time>2026-04-11T12:59:29.934Z</time></trkpt><trkpt lat="45.69983084411077" lon="13.984936094763924"><ele>509.0</ele><time>2026-04-11T12:59:30.934Z</time></trkpt><trkpt lat="45.699770576443946" lon="13.984901538653522"><ele>507.0</ele><time>2026-04-11T12:59:31.934Z</time></trkpt><trkpt lat="45.69969093243639" lon="13.98487827817227"><ele>507.0</ele><time>2026-04-11T12:59:33.934Z</time></trkpt><trkpt lat="45.69968001304066" lon="13.984705995733606"><ele>507.00000000000006</ele><time>2026-04-11T12:59:35.934Z</time></trkpt><trkpt lat="45.69966217077872" lon="13.984618948131791"><ele>507.00000000000006</ele><time>2026-04-11T12:59:37.934Z</time></trkpt><trkpt lat="45.69960040769602" lon="13.98454020630005"><ele>507.0</ele><time>2026-04-11T12:59:39.934Z</time></trkpt><trkpt lat="45.69950059166593" lon="13.984483577450298"><ele>507.0</ele><time>2026-04-11T12:59:41.934Z</time></trkpt><trkpt lat="45.69939491728673" lon="13.984464704490009"><ele>505.3333333333333</ele><time>2026-04-11T12:59:43.934Z</time></trkpt><trkpt lat="45.69930093579189" lon="13.984415153526859"><ele>503.66666666666663</ele><time>2026-04-11T12:59:45.934Z</time></trkpt><trkpt lat="45.699253084938476" lon="13.984356069548845"><ele>502.0</ele><time>2026-04-11T12:59:47.934Z</time></trkpt><trkpt lat="45.69921389179061" lon="13.98427874445851"><ele>500.3333333333333</ele><time>2026-04-11T12:59:51.933Z</time></trkpt><trkpt lat="45.69917899151098" lon="13.984200359864351"><ele>498.66666666666663</ele><time>2026-04-11T12:59:55.933Z</time></trkpt><trkpt lat="45.69918472487508" lon="13.984328161241965"><ele>497.0</ele><time>2026-04-11T12:59:59.933Z</time></trkpt><trkpt lat="45.69930159609026" lon="13.984406295401504"><ele>496.99999999999994</ele><time>2026-04-11T13:00:01.933Z</time></trkpt><trkpt lat="45.699360535518046" lon="13.984441491656144"><ele>497.0</ele><time>2026-04-11T13:00:02.933Z</time></trkpt><trkpt lat="45.69947045336136" lon="13.984494278459824"><ele>497.0</ele><time>2026-04-11T13:00:04.933Z</time></trkpt><trkpt lat="45.69955808216339" lon="13.984504598864701"><ele>497.0</ele><time>2026-04-11T13:00:06.933Z</time></trkpt><trkpt lat="45.69963163149901" lon="13.984491327748838"><ele>496.99999999999994</ele><time>2026-04-11T13:00:08.933Z</time></trkpt><trkpt lat="45.699699941372025" lon="13.984423163776786"><ele>497.0</ele><time>2026-04-11T13:00:10.933Z</time></trkpt><trkpt lat="45.69974132357602" lon="13.984284195608218"><ele>498.66666666666663</ele><time>2026-04-11T13:00:12.933Z</time></trkpt><trkpt lat="45.69975784274451" lon="13.984189104972502"><ele>500.3333333333333</ele><time>2026-04-11T13:00:13.933Z</time></trkpt><trkpt lat="45.69980891297673" lon="13.984020972149338"><ele>502.0</ele><time>2026-04-11T13:00:15.933Z</time></trkpt><trkpt lat="45.69984368256687" lon="13.9839371124341"><ele>503.66666666666663</ele><time>2026-04-11T13:00:16.933Z</time></trkpt><trkpt lat="45.699884285212924" lon="13.983844361506664"><ele>505.3333333333333</ele><time>2026-04-11T13:00:17.933Z</time></trkpt><trkpt lat="45.69992427904521" lon="13.983770448098282"><ele>507.0</ele><time>2026-04-11T13:00:18.933Z</time></trkpt><trkpt lat="45.69994753390624" lon="13.983684859414911"><ele>507.20000000000005</ele><time>2026-04-11T13:00:19.933Z</time></trkpt><trkpt lat="45.69999228587963" lon="13.98352580545709"><ele>507.40000000000003</ele><time>2026-04-11T13:00:21.933Z</time></trkpt><trkpt lat="45.700023135094646" lon="13.983440793895749"><ele>507.59999999999997</ele><time>2026-04-11T13:00:22.933Z</time></trkpt><trkpt lat="45.700097398525756" lon="13.983300071466347"><ele>507.79999999999995</ele><time>2026-04-11T13:00:24.933Z</time></trkpt><trkpt lat="45.700192260809985" lon="13.983201596603747"><ele>508.0</ele><time>2026-04-11T13:00:26.933Z</time></trkpt><trkpt lat="45.700240366148996" lon="13.98304371119733"><ele>506.83333333333337</ele><time>2026-04-11T13:00:28.933Z</time></trkpt><trkpt lat="45.70024789591014" lon="13.982937020258936"><ele>505.6666666666667</ele><time>2026-04-11T13:00:29.933Z</time></trkpt><trkpt lat="45.70025440815623" lon="13.98281825682013"><ele>504.5</ele><time>2026-04-11T13:00:30.933Z</time></trkpt><trkpt lat="45.700262242655675" lon="13.982712601480316"><ele>503.33333333333337</ele><time>2026-04-11T13:00:31.933Z</time></trkpt><trkpt lat="45.70027239595938" lon="13.98258309234781"><ele>502.1666666666667</ele><time>2026-04-11T13:00:32.933Z</time></trkpt><trkpt lat="45.700277896364014" lon="13.982458802733031"><ele>501.0</ele><time>2026-04-11T13:00:33.933Z</time></trkpt><trkpt lat="45.700248598938195" lon="13.9823383965563"><ele>499.20000000000005</ele><time>2026-04-11T13:00:34.933Z</time></trkpt><trkpt lat="45.70023323246956" lon="13.982213184029948"><ele>497.40000000000003</ele><time>2026-04-11T13:00:35.933Z</time></trkpt><trkpt lat="45.70020487336935" lon="13.98207431945392"><ele>495.6</ele><time>2026-04-11T13:00:36.933Z</time></trkpt><trkpt lat="45.70017384363457" lon="13.98194167418538"><ele>493.8</ele><time>2026-04-11T13:00:37.933Z</time></trkpt><trkpt lat="45.70013619254658" lon="13.98181347738073"><ele>492.0</ele><time>2026-04-11T13:00:38.933Z</time></trkpt><trkpt lat="45.700107817533485" lon="13.981688928037379"><ele>491.0</ele><time>2026-04-11T13:00:39.933Z</time></trkpt><trkpt lat="45.70008660895071" lon="13.98157743477982"><ele>490.00000000000006</ele><time>2026-04-11T13:00:40.933Z</time></trkpt><trkpt lat="45.70010056860346" lon="13.98143014072481"><ele>489.00000000000006</ele><time>2026-04-11T13:00:42.933Z</time></trkpt><trkpt lat="45.70015241514216" lon="13.981361254495694"><ele>488.0</ele><time>2026-04-11T13:00:44.933Z</time></trkpt><trkpt lat="45.70022883115438" lon="13.981195348323228"><ele>487.0</ele><time>2026-04-11T13:00:46.933Z</time></trkpt><trkpt lat="45.70026923973343" lon="13.981082114823655"><ele>487.00000000000006</ele><time>2026-04-11T13:00:47.933Z</time></trkpt><trkpt lat="45.70026352250339" lon="13.980968316653525"><ele>487.0</ele><time>2026-04-11T13:00:48.933Z</time></trkpt><trkpt lat="45.70025412872081" lon="13.980854125707408"><ele>487.0</ele><time>2026-04-11T13:00:49.933Z</time></trkpt><trkpt lat="45.700226169484836" lon="13.980772004752001"><ele>487.0</ele><time>2026-04-11T13:00:50.933Z</time></trkpt><trkpt lat="45.70019577203487" lon="13.980681108805147"><ele>487.00000000000006</ele><time>2026-04-11T13:00:51.933Z</time></trkpt><trkpt lat="45.7001568559061" lon="13.980565704493912"><ele>487.0</ele><time>2026-04-11T13:00:52.933Z</time></trkpt><trkpt lat="45.70010087009325" lon="13.980424145120491"><ele>486.42857142857144</ele><time>2026-04-11T13:00:54.933Z</time></trkpt><trkpt lat="45.7000772931111" lon="13.98033480375267"><ele>485.85714285714283</ele><time>2026-04-11T13:00:55.933Z</time></trkpt><trkpt lat="45.70005958789094" lon="13.980246321010823"><ele>485.2857142857143</ele><time>2026-04-11T13:00:56.933Z</time></trkpt><trkpt lat="45.70005144698164" lon="13.980142187315382"><ele>484.7142857142857</ele><time>2026-04-11T13:00:57.933Z</time></trkpt><trkpt lat="45.7000455819874" lon="13.980043601979657"><ele>484.1428571428571</ele><time>2026-04-11T13:00:58.933Z</time></trkpt><trkpt lat="45.70005333823918" lon="13.979920836958533"><ele>483.57142857142856</ele><time>2026-04-11T13:00:59.933Z</time></trkpt><trkpt lat="45.70005522595073" lon="13.979819951871137"><ele>483.0</ele><time>2026-04-11T13:01:00.933Z</time></trkpt><trkpt lat="45.70005371071206" lon="13.97971627986208"><ele>482.5</ele><time>2026-04-11T13:01:01.933Z</time></trkpt><trkpt lat="45.7000528197402" lon="13.979620991883161"><ele>482.0</ele><time>2026-04-11T13:01:02.933Z</time></trkpt><trkpt lat="45.70005384500345" lon="13.97951965109514"><ele>481.5</ele><time>2026-04-11T13:01:03.933Z</time></trkpt><trkpt lat="45.7000617305894" lon="13.979353423774468"><ele>481.0</ele><time>2026-04-11T13:01:05.933Z</time></trkpt><trkpt lat="45.70007807834262" lon="13.97918348332376"><ele>480.5</ele><time>2026-04-11T13:01:07.933Z</time></trkpt><trkpt lat="45.70007134422168" lon="13.979089021834874"><ele>480.0</ele><time>2026-04-11T13:01:08.933Z</time></trkpt><trkpt lat="45.700068958843524" lon="13.978986232027882"><ele>478.3333333333333</ele><time>2026-04-11T13:01:09.933Z</time></trkpt><trkpt lat="45.70007235972795" lon="13.978880177360839"><ele>476.66666666666663</ele><time>2026-04-11T13:01:10.934Z</time></trkpt><trkpt lat="45.70007180697189" lon="13.97877262774206"><ele>475.0</ele><time>2026-04-11T13:01:11.934Z</time></trkpt><trkpt lat="45.70006361967237" lon="13.978652286287947"><ele>473.3333333333333</ele><time>2026-04-11T13:01:12.934Z</time></trkpt><trkpt lat="45.700044117333995" lon="13.978531595657817"><ele>471.66666666666663</ele><time>2026-04-11T13:01:13.933Z</time></trkpt><trkpt lat="45.70001754727464" lon="13.978417375716965"><ele>470.0</ele><time>2026-04-11T13:01:14.933Z</time></trkpt><trkpt lat="45.699993290599885" lon="13.978288976464"><ele>469.8333333333333</ele><time>2026-04-11T13:01:15.933Z</time></trkpt><trkpt lat="45.699984512239325" lon="13.978172983301453"><ele>469.66666666666663</ele><time>2026-04-11T13:01:16.933Z</time></trkpt><trkpt lat="45.699970528974866" lon="13.978062850533219"><ele>469.5</ele><time>2026-04-11T13:01:17.933Z</time></trkpt><trkpt lat="45.69996260149236" lon="13.977955649976927"><ele>469.33333333333337</ele><time>2026-04-11T13:01:18.933Z</time></trkpt><trkpt lat="45.699948193939434" lon="13.977843563602802"><ele>469.1666666666667</ele><time>2026-04-11T13:01:19.933Z</time></trkpt><trkpt lat="45.699935244293044" lon="13.977737315452915"><ele>469.0</ele><time>2026-04-11T13:01:20.933Z</time></trkpt><trkpt lat="45.69991163042315" lon="13.977634468727404"><ele>469.00000000000006</ele><time>2026-04-11T13:01:21.933Z</time></trkpt><trkpt lat="45.69989107766919" lon="13.977538342797459"><ele>469.0</ele><time>2026-04-11T13:01:22.933Z</time></trkpt><trkpt lat="45.699862037956734" lon="13.977430663058088"><ele>469.0</ele><time>2026-04-11T13:01:23.933Z</time></trkpt><trkpt lat="45.69983268690779" lon="13.977340670784692"><ele>469.0</ele><time>2026-04-11T13:01:24.933Z</time></trkpt><trkpt lat="45.699805383679795" lon="13.977229379404024"><ele>469.00000000000006</ele><time>2026-04-11T13:01:25.933Z</time></trkpt><trkpt lat="45.69978065446171" lon="13.977130653235038"><ele>469.0</ele><time>2026-04-11T13:01:26.933Z</time></trkpt><trkpt lat="45.699752794684116" lon="13.977017624995488"><ele>468.0</ele><time>2026-04-11T13:01:27.933Z</time></trkpt><trkpt lat="45.699702749414946" lon="13.976829240126337"><ele>467.0</ele><time>2026-04-11T13:01:29.933Z</time></trkpt><trkpt lat="45.699667226214686" lon="13.976719422393609"><ele>466.0</ele><time>2026-04-11T13:01:30.933Z</time></trkpt><trkpt lat="45.699637127021134" lon="13.97663169783558"><ele>465.0</ele><time>2026-04-11T13:01:31.933Z</time></trkpt><trkpt lat="45.69960718182552" lon="13.97652538428669"><ele>464.0</ele><time>2026-04-11T13:01:32.933Z</time></trkpt><trkpt lat="45.69958380052972" lon="13.976419876069"><ele>463.2</ele><time>2026-04-11T13:01:33.933Z</time></trkpt><trkpt lat="45.699559099605956" lon="13.97632283642083"><ele>462.4</ele><time>2026-04-11T13:01:34.933Z</time></trkpt><trkpt lat="45.69953900844228" lon="13.976224075556706"><ele>461.6</ele><time>2026-04-11T13:01:35.933Z</time></trkpt><trkpt lat="45.69951216542189" lon="13.976041845600806"><ele>460.8</ele><time>2026-04-11T13:01:37.933Z</time></trkpt><trkpt lat="45.699505645655606" lon="13.97585643523511"><ele>460.0</ele><time>2026-04-11T13:01:39.933Z</time></trkpt><trkpt lat="45.69950746682349" lon="13.975763614328917"><ele>459.50000000000006</ele><time>2026-04-11T13:01:40.933Z</time></trkpt><trkpt lat="45.699510923712616" lon="13.975663954203954"><ele>459.0</ele><time>2026-04-11T13:01:41.933Z</time></trkpt><trkpt lat="45.69951625231063" lon="13.975554270045855"><ele>458.5</ele><time>2026-04-11T13:01:42.933Z</time></trkpt><trkpt lat="45.6995249713753" lon="13.975433881225252"><ele>458.0</ele><time>2026-04-11T13:01:43.933Z</time></trkpt><trkpt lat="45.69953101937708" lon="13.97530063122133"><ele>457.50000000000006</ele><time>2026-04-11T13:01:44.933Z</time></trkpt><trkpt lat="45.69952933467269" lon="13.975176860279419"><ele>457.0</ele><time>2026-04-11T13:01:45.933Z</time></trkpt><trkpt lat="45.699518455632706" lon="13.975049687956504"><ele>455.8</ele><time>2026-04-11T13:01:46.933Z</time></trkpt><trkpt lat="45.69950569505196" lon="13.974935369047515"><ele>454.6</ele><time>2026-04-11T13:01:47.933Z</time></trkpt><trkpt lat="45.69949644610185" lon="13.97479775191235"><ele>453.40000000000003</ele><time>2026-04-11T13:01:48.933Z</time></trkpt><trkpt lat="45.69948844608797" lon="13.974663389123963"><ele>452.20000000000005</ele><time>2026-04-11T13:01:49.933Z</time></trkpt><trkpt lat="45.69948247950775" lon="13.974520559266363"><ele>451.0</ele><time>2026-04-11T13:01:50.933Z</time></trkpt><trkpt lat="45.69948102650694" lon="13.97439221218129"><ele>451.00000000000006</ele><time>2026-04-11T13:01:51.933Z</time></trkpt><trkpt lat="45.699481426681864" lon="13.974261195576634"><ele>451.0</ele><time>2026-04-11T13:01:52.933Z</time></trkpt><trkpt lat="45.69947940857528" lon="13.974130737663087"><ele>451.0</ele><time>2026-04-11T13:01:53.933Z</time></trkpt><trkpt lat="45.69948618083098" lon="13.974015466125033"><ele>451.0</ele><time>2026-04-11T13:01:54.933Z</time></trkpt><trkpt lat="45.6994950711172" lon="13.973906837268359"><ele>451.00000000000006</ele><time>2026-04-11T13:01:55.933Z</time></trkpt><trkpt lat="45.69950708331154" lon="13.973790571089825"><ele>451.0</ele><time>2026-04-11T13:01:56.933Z</time></trkpt><trkpt lat="45.6995059536829" lon="13.973688538389132"><ele>450.8</ele><time>2026-04-11T13:01:57.933Z</time></trkpt><trkpt lat="45.69949728144836" lon="13.973556579124068"><ele>450.6</ele><time>2026-04-11T13:01:58.933Z</time></trkpt><trkpt lat="45.69947862294524" lon="13.973460248823926"><ele>450.4</ele><time>2026-04-11T13:01:59.933Z</time></trkpt><trkpt lat="45.699456240273925" lon="13.973335622352286"><ele>450.2</ele><time>2026-04-11T13:02:00.933Z</time></trkpt><trkpt lat="45.69942269967683" lon="13.973199809883083"><ele>450.0</ele><time>2026-04-11T13:02:01.933Z</time></trkpt><trkpt lat="45.69938263632148" lon="13.97305750853855"><ele>448.8</ele><time>2026-04-11T13:02:02.933Z</time></trkpt><trkpt lat="45.69934615427551" lon="13.972926079380414"><ele>447.6</ele><time>2026-04-11T13:02:03.933Z</time></trkpt><trkpt lat="45.69930510483133" lon="13.972808838216764"><ele>446.4</ele><time>2026-04-11T13:02:04.933Z</time></trkpt><trkpt lat="45.69927862512935" lon="13.97268834007639"><ele>445.2</ele><time>2026-04-11T13:02:05.933Z</time></trkpt><trkpt lat="45.69923677092627" lon="13.97258933083902"><ele>444.0</ele><time>2026-04-11T13:02:06.933Z</time></trkpt><trkpt lat="45.69915328770901" lon="13.972468734074793"><ele>443.8333333333333</ele><time>2026-04-11T13:02:08.933Z</time></trkpt><trkpt lat="45.699030376754386" lon="13.972394549223425"><ele>443.66666666666663</ele><time>2026-04-11T13:02:10.933Z</time></trkpt><trkpt lat="45.69895290378527" lon="13.972376638617646"><ele>443.5</ele><time>2026-04-11T13:02:11.933Z</time></trkpt><trkpt lat="45.69887940627616" lon="13.972355480723035"><ele>443.3333333333333</ele><time>2026-04-11T13:02:12.933Z</time></trkpt><trkpt lat="45.69880963262182" lon="13.972330029628772"><ele>443.16666666666663</ele><time>2026-04-11T13:02:13.933Z</time></trkpt><trkpt lat="45.698751679035446" lon="13.97228031269673"><ele>443.0</ele><time>2026-04-11T13:02:14.933Z</time></trkpt><trkpt lat="45.69870023950916" lon="13.972222243584932"><ele>442.99999999999994</ele><time>2026-04-11T13:02:15.933Z</time></trkpt><trkpt lat="45.69866034550297" lon="13.972141394338614"><ele>443.0</ele><time>2026-04-11T13:02:16.933Z</time></trkpt><trkpt lat="45.69861007614358" lon="13.97206260298452"><ele>443.0</ele><time>2026-04-11T13:02:17.933Z</time></trkpt><trkpt lat="45.69855527313557" lon="13.971999026492059"><ele>443.0</ele><time>2026-04-11T13:02:18.933Z</time></trkpt><trkpt lat="45.69849871935041" lon="13.971942346906513"><ele>442.99999999999994</ele><time>2026-04-11T13:02:19.933Z</time></trkpt><trkpt lat="45.698417103868316" lon="13.971871218276476"><ele>443.0</ele><time>2026-04-11T13:02:20.933Z</time></trkpt><trkpt lat="45.698326851436505" lon="13.971815320414496"><ele>442.3333333333333</ele><time>2026-04-11T13:02:21.933Z</time></trkpt><trkpt lat="45.69824191263001" lon="13.971769028784351"><ele>441.66666666666663</ele><time>2026-04-11T13:02:22.933Z</time></trkpt><trkpt lat="45.698161554911046" lon="13.97172174032626"><ele>441.0</ele><time>2026-04-11T13:02:23.933Z</time></trkpt><trkpt lat="45.69807542935265" lon="13.971688394264298"><ele>440.33333333333337</ele><time>2026-04-11T13:02:24.933Z</time></trkpt><trkpt lat="45.69799429800201" lon="13.971659122865303"><ele>439.6666666666667</ele><time>2026-04-11T13:02:25.933Z</time></trkpt><trkpt lat="45.69791173052196" lon="13.97163501079484"><ele>439.0</ele><time>2026-04-11T13:02:26.933Z</time></trkpt><trkpt lat="45.69783509106811" lon="13.971582418478446"><ele>437.6666666666667</ele><time>2026-04-11T13:02:27.933Z</time></trkpt><trkpt lat="45.697750482339764" lon="13.971550869963943"><ele>436.33333333333337</ele><time>2026-04-11T13:02:28.933Z</time></trkpt><trkpt lat="45.6976499420756" lon="13.971526192103722"><ele>435.0</ele><time>2026-04-11T13:02:29.933Z</time></trkpt><trkpt lat="45.69756879790784" lon="13.971519282715073"><ele>433.66666666666663</ele><time>2026-04-11T13:02:30.933Z</time></trkpt><trkpt lat="45.69748764164987" lon="13.971508386641124"><ele>432.3333333333333</ele><time>2026-04-11T13:02:31.933Z</time></trkpt><trkpt lat="45.6974116490962" lon="13.97148009072193"><ele>431.0</ele><time>2026-04-11T13:02:32.933Z</time></trkpt><trkpt lat="45.69734534492449" lon="13.97143568484042"><ele>430.99999999999994</ele><time>2026-04-11T13:02:33.933Z</time></trkpt><trkpt lat="45.69727291196345" lon="13.971372371734"><ele>431.0</ele><time>2026-04-11T13:02:34.933Z</time></trkpt><trkpt lat="45.69720459679834" lon="13.971289832068345"><ele>431.0</ele><time>2026-04-11T13:02:35.933Z</time></trkpt><trkpt lat="45.6971463261133" lon="13.971232925468556"><ele>431.0</ele><time>2026-04-11T13:02:36.933Z</time></trkpt><trkpt lat="45.69707152429782" lon="13.971190754676504"><ele>430.99999999999994</ele><time>2026-04-11T13:02:37.933Z</time></trkpt><trkpt lat="45.696996700253244" lon="13.971156205281494"><ele>431.0</ele><time>2026-04-11T13:02:38.933Z</time></trkpt><trkpt lat="45.69691503301636" lon="13.971103983001786"><ele>429.75</ele><time>2026-04-11T13:02:39.933Z</time></trkpt><trkpt lat="45.69682856194668" lon="13.971020599111146"><ele>428.5</ele><time>2026-04-11T13:02:40.933Z</time></trkpt><trkpt lat="45.696739166735284" lon="13.970909996430892"><ele>427.25</ele><time>2026-04-11T13:02:41.933Z</time></trkpt><trkpt lat="45.696647360779075" lon="13.97079071195643"><ele>426.0</ele><time>2026-04-11T13:02:42.933Z</time></trkpt><trkpt lat="45.696553628068834" lon="13.970692725346005"><ele>426.0</ele><time>2026-04-11T13:02:43.933Z</time></trkpt><trkpt lat="45.69644538922753" lon="13.97059615246212"><ele>426.0</ele><time>2026-04-11T13:02:44.933Z</time></trkpt><trkpt lat="45.696374047802294" lon="13.970513908330963"><ele>426.0</ele><time>2026-04-11T13:02:45.933Z</time></trkpt><trkpt lat="45.69630356341397" lon="13.97044112038939"><ele>426.0</ele><time>2026-04-11T13:02:46.933Z</time></trkpt><trkpt lat="45.69625540299857" lon="13.970356049933002"><ele>426.0</ele><time>2026-04-11T13:02:47.933Z</time></trkpt><trkpt lat="45.69626670589231" lon="13.970209496595222"><ele>426.0</ele><time>2026-04-11T13:02:48.932Z</time></trkpt><trkpt lat="45.69624099314295" lon="13.970053472530365"><ele>426.0</ele><time>2026-04-11T13:02:49.932Z</time></trkpt><trkpt lat="45.69621059171954" lon="13.969873749621945"><ele>426.0</ele><time>2026-04-11T13:02:50.932Z</time></trkpt><trkpt lat="45.69616612495292" lon="13.969693312659397"><ele>426.0</ele><time>2026-04-11T13:02:51.932Z</time></trkpt><trkpt lat="45.69614921329291" lon="13.969523263333182"><ele>425.75</ele><time>2026-04-11T13:02:52.932Z</time></trkpt><trkpt lat="45.69612038593193" lon="13.969357655392095"><ele>425.5</ele><time>2026-04-11T13:02:53.932Z</time></trkpt><trkpt lat="45.69609195996688" lon="13.969191738269007"><ele>425.25</ele><time>2026-04-11T13:02:54.932Z</time></trkpt><trkpt lat="45.696064081349476" lon="13.96901691271497"><ele>425.0</ele><time>2026-04-11T13:02:55.932Z</time></trkpt><trkpt lat="45.69604099950576" lon="13.96885354043116"><ele>424.0</ele><time>2026-04-11T13:02:56.932Z</time></trkpt><trkpt lat="45.696009876812354" lon="13.968695443477852"><ele>423.0</ele><time>2026-04-11T13:02:57.932Z</time></trkpt><trkpt lat="45.69599493185418" lon="13.968532551391096"><ele>422.0</ele><time>2026-04-11T13:02:58.932Z</time></trkpt><trkpt lat="45.69600434561101" lon="13.968353873555841"><ele>421.0</ele><time>2026-04-11T13:02:59.932Z</time></trkpt><trkpt lat="45.69600969390821" lon="13.968158693783018"><ele>420.5</ele><time>2026-04-11T13:03:00.932Z</time></trkpt><trkpt lat="45.69600121559439" lon="13.967965981384635"><ele>420.0</ele><time>2026-04-11T13:03:01.932Z</time></trkpt><trkpt lat="45.6960065979097" lon="13.967779317111711"><ele>419.5</ele><time>2026-04-11T13:03:02.932Z</time></trkpt><trkpt lat="45.696012839814166" lon="13.9675932470633"><ele>419.0</ele><time>2026-04-11T13:03:03.933Z</time></trkpt><trkpt lat="45.69603447593999" lon="13.967414019541208"><ele>419.25</ele><time>2026-04-11T13:03:04.933Z</time></trkpt><trkpt lat="45.69606294002006" lon="13.967197148783638"><ele>419.5</ele><time>2026-04-11T13:03:05.933Z</time></trkpt><trkpt lat="45.69606402614555" lon="13.96697527744618"><ele>419.75</ele><time>2026-04-11T13:03:06.933Z</time></trkpt><trkpt lat="45.69608899918676" lon="13.966788312985429"><ele>420.0</ele><time>2026-04-11T13:03:07.933Z</time></trkpt><trkpt lat="45.69609661941105" lon="13.96658155038255"><ele>420.25</ele><time>2026-04-11T13:03:08.933Z</time></trkpt><trkpt lat="45.69609684298405" lon="13.966370199400572"><ele>420.5</ele><time>2026-04-11T13:03:09.933Z</time></trkpt><trkpt lat="45.69608849323724" lon="13.966194158671405"><ele>420.75</ele><time>2026-04-11T13:03:10.933Z</time></trkpt><trkpt lat="45.696067850047854" lon="13.966029182202572"><ele>421.0</ele><time>2026-04-11T13:03:11.933Z</time></trkpt><trkpt lat="45.696068956924734" lon="13.96589047694804"><ele>419.8</ele><time>2026-04-11T13:03:12.933Z</time></trkpt><trkpt lat="45.69606274276431" lon="13.965756987714638"><ele>418.6</ele><time>2026-04-11T13:03:13.933Z</time></trkpt><trkpt lat="45.696053896833604" lon="13.965612122749812"><ele>417.4</ele><time>2026-04-11T13:03:14.933Z</time></trkpt><trkpt lat="45.6960378964518" lon="13.965486787484977"><ele>416.2</ele><time>2026-04-11T13:03:15.933Z</time></trkpt><trkpt lat="45.69601461974694" lon="13.965368336341054"><ele>415.0</ele><time>2026-04-11T13:03:16.933Z</time></trkpt><trkpt lat="45.69596620362494" lon="13.965269408680099"><ele>415.0</ele><time>2026-04-11T13:03:17.933Z</time></trkpt><trkpt lat="45.695913186141304" lon="13.965187802950998"><ele>415.0</ele><time>2026-04-11T13:03:18.933Z</time></trkpt><trkpt lat="45.69583239489103" lon="13.96512066147271"><ele>415.0</ele><time>2026-04-11T13:03:19.933Z</time></trkpt><trkpt lat="45.695728195305456" lon="13.965051564419698"><ele>415.0</ele><time>2026-04-11T13:03:20.933Z</time></trkpt><trkpt lat="45.695641046071465" lon="13.964994837983427"><ele>415.0</ele><time>2026-04-11T13:03:21.933Z</time></trkpt><trkpt lat="45.69555924473354" lon="13.964941204576867"><ele>415.00000000000006</ele><time>2026-04-11T13:03:22.933Z</time></trkpt><trkpt lat="45.69548072499562" lon="13.964877081271672"><ele>415.0</ele><time>2026-04-11T13:03:23.933Z</time></trkpt><trkpt lat="45.69540514565159" lon="13.96481348504232"><ele>415.0</ele><time>2026-04-11T13:03:24.933Z</time></trkpt><trkpt lat="45.695341987951764" lon="13.964828043845644"><ele>415.0</ele><time>2026-04-11T13:03:28.933Z</time></trkpt><trkpt lat="45.695294497622896" lon="13.964913223573532"><ele>415.00000000000006</ele><time>2026-04-11T13:03:30.933Z</time></trkpt><trkpt lat="45.69525618703231" lon="13.965062399930574"><ele>415.0</ele><time>2026-04-11T13:03:32.933Z</time></trkpt><trkpt lat="45.69522801457241" lon="13.96514782152859"><ele>415.00000000000006</ele><time>2026-04-11T13:03:33.933Z</time></trkpt><trkpt lat="45.695198105071235" lon="13.965241235553052"><ele>415.0</ele><time>2026-04-11T13:03:34.933Z</time></trkpt><trkpt lat="45.69517051669958" lon="13.965337443233842"><ele>415.0</ele><time>2026-04-11T13:03:35.933Z</time></trkpt><trkpt lat="45.695141596076" lon="13.965431187085885"><ele>415.0</ele><time>2026-04-11T13:03:36.933Z</time></trkpt><trkpt lat="45.69511166238476" lon="13.965529157400864"><ele>415.00000000000006</ele><time>2026-04-11T13:03:37.933Z</time></trkpt><trkpt lat="45.695085162897044" lon="13.965626079778664"><ele>415.0</ele><time>2026-04-11T13:03:38.933Z</time></trkpt><trkpt lat="45.69504710827177" lon="13.965784523317284"><ele>415.2</ele><time>2026-04-11T13:03:40.933Z</time></trkpt><trkpt lat="45.69500278579697" lon="13.9659443877013"><ele>415.4</ele><time>2026-04-11T13:03:42.933Z</time></trkpt><trkpt lat="45.69497750771922" lon="13.9660336875857"><ele>415.6</ele><time>2026-04-11T13:03:43.933Z</time></trkpt><trkpt lat="45.69495075884335" lon="13.96612657805009"><ele>415.8</ele><time>2026-04-11T13:03:44.933Z</time></trkpt><trkpt lat="45.6949062960356" lon="13.966272726801412"><ele>416.0</ele><time>2026-04-11T13:03:46.932Z</time></trkpt><trkpt lat="45.69486510889338" lon="13.966433431191684"><ele>416.0</ele><time>2026-04-11T13:03:48.932Z</time></trkpt><trkpt lat="45.69481337150213" lon="13.966594209782093"><ele>416.0</ele><time>2026-04-11T13:03:50.932Z</time></trkpt><trkpt lat="45.69478485198526" lon="13.966684226294193"><ele>416.0</ele><time>2026-04-11T13:03:51.932Z</time></trkpt><trkpt lat="45.69483719512999" lon="13.966822657885217"><ele>416.0</ele><time>2026-04-11T13:03:52.932Z</time></trkpt><trkpt lat="45.694721857288734" lon="13.966880296669022"><ele>416.0</ele><time>2026-04-11T13:03:53.932Z</time></trkpt><trkpt lat="45.69469006912556" lon="13.966990288503508"><ele>416.16666666666663</ele><time>2026-04-11T13:03:54.932Z</time></trkpt><trkpt lat="45.69464863889328" lon="13.967100156189765"><ele>416.3333333333333</ele><time>2026-04-11T13:03:55.932Z</time></trkpt><trkpt lat="45.694621868070556" lon="13.967196327309816"><ele>416.5</ele><time>2026-04-11T13:03:56.932Z</time></trkpt><trkpt lat="45.69459219072302" lon="13.967297661039808"><ele>416.66666666666663</ele><time>2026-04-11T13:03:57.932Z</time></trkpt><trkpt lat="45.69455391250404" lon="13.967430847727984"><ele>416.8333333333333</ele><time>2026-04-11T13:03:58.932Z</time></trkpt><trkpt lat="45.69452533063092" lon="13.967554991636998"><ele>417.0</ele><time>2026-04-11T13:03:59.932Z</time></trkpt><trkpt lat="45.694494564140825" lon="13.9676660141573"><ele>417.5</ele><time>2026-04-11T13:04:00.932Z</time></trkpt><trkpt lat="45.69445691844902" lon="13.967776802714175"><ele>418.0</ele><time>2026-04-11T13:04:01.932Z</time></trkpt><trkpt lat="45.694437389474714" lon="13.967867675303806"><ele>418.5</ele><time>2026-04-11T13:04:02.932Z</time></trkpt><trkpt lat="45.69439640727745" lon="13.967953606292657"><ele>419.0</ele><time>2026-04-11T13:04:03.932Z</time></trkpt><trkpt lat="45.69435741752978" lon="13.968074220631681"><ele>419.5</ele><time>2026-04-11T13:04:04.932Z</time></trkpt><trkpt lat="45.69431714825101" lon="13.968194984279043"><ele>420.0</ele><time>2026-04-11T13:04:05.932Z</time></trkpt><trkpt lat="45.6942723523931" lon="13.968314748897347"><ele>420.2</ele><time>2026-04-11T13:04:06.932Z</time></trkpt><trkpt lat="45.694227136492124" lon="13.96843018302882"><ele>420.4</ele><time>2026-04-11T13:04:07.932Z</time></trkpt><trkpt lat="45.694173818916646" lon="13.968552211381624"><ele>420.6</ele><time>2026-04-11T13:04:08.932Z</time></trkpt><trkpt lat="45.694121820083666" lon="13.96867295058699"><ele>420.8</ele><time>2026-04-11T13:04:09.932Z</time></trkpt><trkpt lat="45.69408223407912" lon="13.968780932426126"><ele>421.0</ele><time>2026-04-11T13:04:10.932Z</time></trkpt><trkpt lat="45.69404655069832" lon="13.96887395490351"><ele>421.00000000000006</ele><time>2026-04-11T13:04:11.932Z</time></trkpt><trkpt lat="45.69401300751904" lon="13.96895259695627"><ele>421.0</ele><time>2026-04-11T13:04:12.932Z</time></trkpt><trkpt lat="45.69395383240463" lon="13.96904890925237"><ele>421.0</ele><time>2026-04-11T13:04:14.932Z</time></trkpt><trkpt lat="45.69386516982914" lon="13.969094611371519"><ele>421.0</ele><time>2026-04-11T13:04:16.932Z</time></trkpt><trkpt lat="45.69376956722079" lon="13.969164987100417"><ele>421.00000000000006</ele><time>2026-04-11T13:04:18.932Z</time></trkpt><trkpt lat="45.69372292654753" lon="13.969251633829753"><ele>421.0</ele><time>2026-04-11T13:04:19.932Z</time></trkpt><trkpt lat="45.69367056449606" lon="13.969355931478885"><ele>421.5</ele><time>2026-04-11T13:04:20.932Z</time></trkpt><trkpt lat="45.69360717136382" lon="13.969499934237415"><ele>422.0</ele><time>2026-04-11T13:04:21.932Z</time></trkpt><trkpt lat="45.69354256447044" lon="13.969644515385783"><ele>422.5</ele><time>2026-04-11T13:04:22.932Z</time></trkpt><trkpt lat="45.693473156437086" lon="13.969790120998669"><ele>423.0</ele><time>2026-04-11T13:04:23.932Z</time></trkpt><trkpt lat="45.69340667911487" lon="13.96991165731108"><ele>424.2</ele><time>2026-04-11T13:04:24.932Z</time></trkpt><trkpt lat="45.69335256431384" lon="13.970043413198756"><ele>425.4</ele><time>2026-04-11T13:04:25.932Z</time></trkpt><trkpt lat="45.69329491669995" lon="13.970186021236913"><ele>426.59999999999997</ele><time>2026-04-11T13:04:26.932Z</time></trkpt><trkpt lat="45.6932397567708" lon="13.970327991758163"><ele>427.79999999999995</ele><time>2026-04-11T13:04:27.932Z</time></trkpt><trkpt lat="45.693188428008305" lon="13.970454160947353"><ele>429.0</ele><time>2026-04-11T13:04:28.932Z</time></trkpt><trkpt lat="45.693138632863395" lon="13.970567994013786"><ele>429.0</ele><time>2026-04-11T13:04:29.932Z</time></trkpt><trkpt lat="45.693087171015335" lon="13.970676199578207"><ele>429.0</ele><time>2026-04-11T13:04:30.932Z</time></trkpt><trkpt lat="45.69304097434532" lon="13.970774221526252"><ele>429.0</ele><time>2026-04-11T13:04:31.932Z</time></trkpt><trkpt lat="45.69299345989481" lon="13.970853000985604"><ele>429.0</ele><time>2026-04-11T13:04:32.932Z</time></trkpt><trkpt lat="45.69292500838491" lon="13.970932773756427"><ele>429.0</ele><time>2026-04-11T13:04:33.932Z</time></trkpt><trkpt lat="45.69285613490442" lon="13.971026990927461"><ele>429.0</ele><time>2026-04-11T13:04:34.932Z</time></trkpt><trkpt lat="45.69278765459332" lon="13.971115900534299"><ele>428.8333333333333</ele><time>2026-04-11T13:04:35.932Z</time></trkpt><trkpt lat="45.69272382440939" lon="13.971188319152521"><ele>428.66666666666663</ele><time>2026-04-11T13:04:36.932Z</time></trkpt><trkpt lat="45.69265506115111" lon="13.97127053469357"><ele>428.5</ele><time>2026-04-11T13:04:37.932Z</time></trkpt><trkpt lat="45.69260893545858" lon="13.971358000747914"><ele>428.3333333333333</ele><time>2026-04-11T13:04:38.932Z</time></trkpt><trkpt lat="45.69258127938022" lon="13.971452257777809"><ele>428.16666666666663</ele><time>2026-04-11T13:04:39.932Z</time></trkpt><trkpt lat="45.69255280549056" lon="13.971572343880714"><ele>428.0</ele><time>2026-04-11T13:04:40.932Z</time></trkpt><trkpt lat="45.69251507012971" lon="13.97171001180865"><ele>427.99999999999994</ele><time>2026-04-11T13:04:41.932Z</time></trkpt><trkpt lat="45.69247912287754" lon="13.971853222411736"><ele>428.0</ele><time>2026-04-11T13:04:42.932Z</time></trkpt><trkpt lat="45.692446523964925" lon="13.971975224729961"><ele>428.0</ele><time>2026-04-11T13:04:43.932Z</time></trkpt><trkpt lat="45.69240098276114" lon="13.972068626479789"><ele>428.0</ele><time>2026-04-11T13:04:44.932Z</time></trkpt><trkpt lat="45.692340382901904" lon="13.972132760141132"><ele>427.99999999999994</ele><time>2026-04-11T13:04:45.932Z</time></trkpt><trkpt lat="45.6922708414758" lon="13.972183575684006"><ele>428.0</ele><time>2026-04-11T13:04:46.932Z</time></trkpt><trkpt lat="45.692185677785915" lon="13.972222337978137"><ele>427.99999999999994</ele><time>2026-04-11T13:04:47.932Z</time></trkpt><trkpt lat="45.69210215406077" lon="13.972229972983987"><ele>428.0</ele><time>2026-04-11T13:04:48.932Z</time></trkpt><trkpt lat="45.69202190463881" lon="13.972218210148753"><ele>428.0</ele><time>2026-04-11T13:04:49.932Z</time></trkpt><trkpt lat="45.69195299046911" lon="13.972175031517539"><ele>428.0</ele><time>2026-04-11T13:04:50.932Z</time></trkpt><trkpt lat="45.691881045058786" lon="13.972106932466291"><ele>427.99999999999994</ele><time>2026-04-11T13:04:51.932Z</time></trkpt><trkpt lat="45.691812184348066" lon="13.972030702139064"><ele>428.0</ele><time>2026-04-11T13:04:52.932Z</time></trkpt><trkpt lat="45.691736495189254" lon="13.971953701092849"><ele>428.16666666666663</ele><time>2026-04-11T13:04:53.932Z</time></trkpt><trkpt lat="45.691672523554075" lon="13.971892106478098"><ele>428.3333333333333</ele><time>2026-04-11T13:04:54.932Z</time></trkpt><trkpt lat="45.69159195478965" lon="13.971856399285782"><ele>428.5</ele><time>2026-04-11T13:04:55.932Z</time></trkpt><trkpt lat="45.691504199704255" lon="13.97184566805669"><ele>428.66666666666663</ele><time>2026-04-11T13:04:56.932Z</time></trkpt><trkpt lat="45.691401881310675" lon="13.971842002922282"><ele>428.8333333333333</ele><time>2026-04-11T13:04:57.932Z</time></trkpt><trkpt lat="45.69130600843512" lon="13.971836770261303"><ele>429.0</ele><time>2026-04-11T13:04:58.932Z</time></trkpt><trkpt lat="45.69120297074333" lon="13.971817480910671"><ele>429.0</ele><time>2026-04-11T13:04:59.932Z</time></trkpt><trkpt lat="45.69110655918894" lon="13.971789927929056"><ele>429.0</ele><time>2026-04-11T13:05:00.932Z</time></trkpt><trkpt lat="45.69102167935502" lon="13.971754692544375"><ele>429.0</ele><time>2026-04-11T13:05:01.932Z</time></trkpt><trkpt lat="45.69092853911127" lon="13.971768167099393"><ele>429.0</ele><time>2026-04-11T13:05:02.932Z</time></trkpt><trkpt lat="45.690830012529574" lon="13.97179861275367"><ele>429.0</ele><time>2026-04-11T13:05:03.932Z</time></trkpt><trkpt lat="45.690719405207645" lon="13.97183233309406"><ele>428.4</ele><time>2026-04-11T13:05:04.932Z</time></trkpt><trkpt lat="45.69061116866759" lon="13.97184069279413"><ele>427.79999999999995</ele><time>2026-04-11T13:05:05.932Z</time></trkpt><trkpt lat="45.69049857990183" lon="13.971826099036686"><ele>427.20000000000005</ele><time>2026-04-11T13:05:06.932Z</time></trkpt><trkpt lat="45.69041350500961" lon="13.97173582614451"><ele>426.6</ele><time>2026-04-11T13:05:07.932Z</time></trkpt><trkpt lat="45.690334941316394" lon="13.971681590948412"><ele>426.0</ele><time>2026-04-11T13:05:08.932Z</time></trkpt><trkpt lat="45.69025826488357" lon="13.97161336008669"><ele>425.0</ele><time>2026-04-11T13:05:09.932Z</time></trkpt><trkpt lat="45.69017857687343" lon="13.97154816660392"><ele>424.0</ele><time>2026-04-11T13:05:10.933Z</time></trkpt><trkpt lat="45.69003894767106" lon="13.971595237473592"><ele>423.0</ele><time>2026-04-11T13:05:11.933Z</time></trkpt><trkpt lat="45.68991753931844" lon="13.971514901981958"><ele>422.0</ele><time>2026-04-11T13:05:12.933Z</time></trkpt><trkpt lat="45.6897680476231" lon="13.9714357514267"><ele>422.0</ele><time>2026-04-11T13:05:13.932Z</time></trkpt><trkpt lat="45.68961248104184" lon="13.971400124291298"><ele>422.0</ele><time>2026-04-11T13:05:14.932Z</time></trkpt><trkpt lat="45.68946285223836" lon="13.971368024878966"><ele>422.0</ele><time>2026-04-11T13:05:15.932Z</time></trkpt><trkpt lat="45.68930613700149" lon="13.97133919842594"><ele>421.66666666666663</ele><time>2026-04-11T13:05:16.933Z</time></trkpt><trkpt lat="45.68913656692166" lon="13.971380672598759"><ele>421.33333333333337</ele><time>2026-04-11T13:05:17.932Z</time></trkpt><trkpt lat="45.68896527538596" lon="13.97140302131275"><ele>421.0</ele><time>2026-04-11T13:05:18.932Z</time></trkpt><trkpt lat="45.6888042075538" lon="13.971399044572129"><ele>421.0</ele><time>2026-04-11T13:05:19.933Z</time></trkpt><trkpt lat="45.68864282037887" lon="13.971394368230424"><ele>421.0</ele><time>2026-04-11T13:05:20.933Z</time></trkpt><trkpt lat="45.688482007974" lon="13.971371950619194"><ele>421.0</ele><time>2026-04-11T13:05:21.932Z</time></trkpt><trkpt lat="45.68832148487419" lon="13.971338473178939"><ele>421.5</ele><time>2026-04-11T13:05:22.932Z</time></trkpt><trkpt lat="45.688171831761444" lon="13.97130575249478"><ele>422.0</ele><time>2026-04-11T13:05:23.932Z</time></trkpt><trkpt lat="45.68803038556907" lon="13.97130219797703"><ele>422.5</ele><time>2026-04-11T13:05:24.932Z</time></trkpt><trkpt lat="45.687898776860806" lon="13.971312085067359"><ele>423.0</ele><time>2026-04-11T13:05:25.932Z</time></trkpt><trkpt lat="45.687775494294385" lon="13.971349785172201"><ele>424.75</ele><time>2026-04-11T13:05:26.932Z</time></trkpt><trkpt lat="45.687669715760414" lon="13.97142427318412"><ele>426.5</ele><time>2026-04-11T13:05:27.932Z</time></trkpt><trkpt lat="45.68754419447767" lon="13.971475012738583"><ele>428.25</ele><time>2026-04-11T13:05:28.932Z</time></trkpt><trkpt lat="45.687427969645945" lon="13.971522582489781"><ele>430.0</ele><time>2026-04-11T13:05:29.932Z</time></trkpt><trkpt lat="45.68730086531038" lon="13.971547532620757"><ele>430.0</ele><time>2026-04-11T13:05:30.932Z</time></trkpt><trkpt lat="45.687156249256866" lon="13.971568865875309"><ele>430.0</ele><time>2026-04-11T13:05:31.932Z</time></trkpt><trkpt lat="45.68700928371492" lon="13.971629752662007"><ele>430.0</ele><time>2026-04-11T13:05:32.932Z</time></trkpt><trkpt lat="45.68684913849325" lon="13.971697114896898"><ele>430.75</ele><time>2026-04-11T13:05:33.932Z</time></trkpt><trkpt lat="45.686688338255294" lon="13.971733839517682"><ele>431.5</ele><time>2026-04-11T13:05:34.932Z</time></trkpt><trkpt lat="45.68655178403179" lon="13.971748896496575"><ele>432.25</ele><time>2026-04-11T13:05:35.932Z</time></trkpt><trkpt lat="45.6864265677334" lon="13.971731611519152"><ele>433.0</ele><time>2026-04-11T13:05:36.932Z</time></trkpt><trkpt lat="45.686306670305044" lon="13.971725177697872"><ele>433.0</ele><time>2026-04-11T13:05:37.932Z</time></trkpt><trkpt lat="45.686212201411905" lon="13.971698033944874"><ele>432.99999999999994</ele><time>2026-04-11T13:05:38.932Z</time></trkpt><trkpt lat="45.68614056505231" lon="13.971656008192971"><ele>432.99999999999994</ele><time>2026-04-11T13:05:40.932Z</time></trkpt><trkpt lat="45.68609032453895" lon="13.9717738525356"><ele>433.0</ele><time>2026-04-11T13:05:53.932Z</time></trkpt><trkpt lat="45.68606929282033" lon="13.971924747627323"><ele>433.0</ele><time>2026-04-11T13:05:55.932Z</time></trkpt><trkpt lat="45.68605823101344" lon="13.97204986257109"><ele>433.25</ele><time>2026-04-11T13:05:56.932Z</time></trkpt><trkpt lat="45.686060069444856" lon="13.972185591319164"><ele>433.5</ele><time>2026-04-11T13:05:57.932Z</time></trkpt><trkpt lat="45.686073886445385" lon="13.972350101046011"><ele>433.75</ele><time>2026-04-11T13:05:58.932Z</time></trkpt><trkpt lat="45.68608995694457" lon="13.972549210099256"><ele>434.0</ele><time>2026-04-11T13:05:59.932Z</time></trkpt><trkpt lat="45.68610274702205" lon="13.972732301551478"><ele>435.0</ele><time>2026-04-11T13:06:00.932Z</time></trkpt><trkpt lat="45.686104969004184" lon="13.972928335946763"><ele>436.0</ele><time>2026-04-11T13:06:01.932Z</time></trkpt><trkpt lat="45.68606743371607" lon="13.973133261275311"><ele>437.0</ele><time>2026-04-11T13:06:02.932Z</time></trkpt><trkpt lat="45.68600857752777" lon="13.97332871350916"><ele>438.0</ele><time>2026-04-11T13:06:03.932Z</time></trkpt><trkpt lat="45.68593445685559" lon="13.973492851301653"><ele>438.79999999999995</ele><time>2026-04-11T13:06:04.932Z</time></trkpt><trkpt lat="45.68585582351342" lon="13.973608020395353"><ele>439.59999999999997</ele><time>2026-04-11T13:06:05.932Z</time></trkpt><trkpt lat="45.68575995501229" lon="13.973686705731428"><ele>440.40000000000003</ele><time>2026-04-11T13:06:06.932Z</time></trkpt><trkpt lat="45.68564843360641" lon="13.973680597909683"><ele>441.20000000000005</ele><time>2026-04-11T13:06:07.932Z</time></trkpt><trkpt lat="45.68556162358812" lon="13.973645573733089"><ele>442.0</ele><time>2026-04-11T13:06:08.932Z</time></trkpt><trkpt lat="45.68550264701993" lon="13.973608435051954"><ele>442.0</ele><time>2026-04-11T13:06:09.932Z</time></trkpt><trkpt lat="45.685437253624116" lon="13.97350348988289"><ele>442.00000000000006</ele><time>2026-04-11T13:06:11.932Z</time></trkpt><trkpt lat="45.685381810961054" lon="13.973415157015278"><ele>442.00000000000006</ele><time>2026-04-11T13:06:13.932Z</time></trkpt><trkpt lat="45.685309358302334" lon="13.973299519516974"><ele>442.0</ele><time>2026-04-11T13:06:15.931Z</time></trkpt><trkpt lat="45.68525882051644" lon="13.973206707983671"><ele>442.0</ele><time>2026-04-11T13:06:16.931Z</time></trkpt><trkpt lat="45.68521251642072" lon="13.9731103993476"><ele>441.1666666666667</ele><time>2026-04-11T13:06:17.931Z</time></trkpt><trkpt lat="45.68516303290765" lon="13.973026738689938"><ele>440.33333333333337</ele><time>2026-04-11T13:06:18.931Z</time></trkpt><trkpt lat="45.68512300263129" lon="13.972941715321383"><ele>439.5</ele><time>2026-04-11T13:06:19.931Z</time></trkpt><trkpt lat="45.68508413087067" lon="13.972860839675358"><ele>438.66666666666663</ele><time>2026-04-11T13:06:20.931Z</time></trkpt><trkpt lat="45.685031331356925" lon="13.972728634095256"><ele>437.8333333333333</ele><time>2026-04-11T13:06:22.931Z</time></trkpt><trkpt lat="45.68497421203976" lon="13.972607338806599"><ele>437.0</ele><time>2026-04-11T13:06:24.931Z</time></trkpt><trkpt lat="45.68490440575502" lon="13.97248363890845"><ele>436.8</ele><time>2026-04-11T13:06:26.931Z</time></trkpt><trkpt lat="45.68484123940064" lon="13.972342126336319"><ele>436.6</ele><time>2026-04-11T13:06:28.931Z</time></trkpt><trkpt lat="45.68475709821627" lon="13.972212501617795"><ele>436.40000000000003</ele><time>2026-04-11T13:06:30.931Z</time></trkpt><trkpt lat="45.68470880065591" lon="13.972142265196995"><ele>436.20000000000005</ele><time>2026-04-11T13:06:31.931Z</time></trkpt><trkpt lat="45.6846504770027" lon="13.972070753957487"><ele>436.0</ele><time>2026-04-11T13:06:32.931Z</time></trkpt><trkpt lat="45.68460004130443" lon="13.971995050809324"><ele>436.0</ele><time>2026-04-11T13:06:33.931Z</time></trkpt><trkpt lat="45.6845387394839" lon="13.971913943229968"><ele>436.0</ele><time>2026-04-11T13:06:34.931Z</time></trkpt><trkpt lat="45.6844970357192" lon="13.97182502380446"><ele>436.0</ele><time>2026-04-11T13:06:35.931Z</time></trkpt><trkpt lat="45.684444556236535" lon="13.971761939646761"><ele>436.0</ele><time>2026-04-11T13:06:36.931Z</time></trkpt><trkpt lat="45.68436598153285" lon="13.971634735991392"><ele>436.0</ele><time>2026-04-11T13:06:38.931Z</time></trkpt><trkpt lat="45.68428537001402" lon="13.971503058249011"><ele>436.2857142857143</ele><time>2026-04-11T13:06:40.931Z</time></trkpt><trkpt lat="45.68425042497376" lon="13.971423767558317"><ele>436.57142857142856</ele><time>2026-04-11T13:06:41.931Z</time></trkpt><trkpt lat="45.684210338342986" lon="13.97134336731284"><ele>436.8571428571429</ele><time>2026-04-11T13:06:42.931Z</time></trkpt><trkpt lat="45.684173035062564" lon="13.971261710420862"><ele>437.1428571428571</ele><time>2026-04-11T13:06:43.931Z</time></trkpt><trkpt lat="45.684126076886294" lon="13.971180107030886"><ele>437.4285714285714</ele><time>2026-04-11T13:06:44.931Z</time></trkpt><trkpt lat="45.6840751498578" lon="13.971106143890514"><ele>437.7142857142857</ele><time>2026-04-11T13:06:45.931Z</time></trkpt><trkpt lat="45.6840322156474" lon="13.971038318452255"><ele>438.0</ele><time>2026-04-11T13:06:46.931Z</time></trkpt><trkpt lat="45.683977846714185" lon="13.970989376563594"><ele>438.0</ele><time>2026-04-11T13:06:47.931Z</time></trkpt><trkpt lat="45.68388740469243" lon="13.970862293241067"><ele>438.0</ele><time>2026-04-11T13:06:49.931Z</time></trkpt><trkpt lat="45.68383942956935" lon="13.970790457122973"><ele>438.0</ele><time>2026-04-11T13:06:50.931Z</time></trkpt><trkpt lat="45.6837878549099" lon="13.970722442469738"><ele>438.0</ele><time>2026-04-11T13:06:51.931Z</time></trkpt><trkpt lat="45.68372676699423" lon="13.970654249701749"><ele>438.0</ele><time>2026-04-11T13:06:52.931Z</time></trkpt><trkpt lat="45.683661238273245" lon="13.97058179061782"><ele>438.0</ele><time>2026-04-11T13:06:53.931Z</time></trkpt><trkpt lat="45.683591261003734" lon="13.970504185978466"><ele>438.0</ele><time>2026-04-11T13:06:54.931Z</time></trkpt><trkpt lat="45.68351844864354" lon="13.970414402046393"><ele>437.99999999999994</ele><time>2026-04-11T13:06:55.931Z</time></trkpt><trkpt lat="45.683449732394195" lon="13.970314934196422"><ele>437.99999999999994</ele><time>2026-04-11T13:06:56.931Z</time></trkpt><trkpt lat="45.68337401449583" lon="13.970224531659122"><ele>438.0</ele><time>2026-04-11T13:06:57.931Z</time></trkpt><trkpt lat="45.68331690770351" lon="13.970122773751424"><ele>438.0</ele><time>2026-04-11T13:06:58.931Z</time></trkpt><trkpt lat="45.68325557789347" lon="13.97002811028166"><ele>438.4</ele><time>2026-04-11T13:06:59.931Z</time></trkpt><trkpt lat="45.683188347881575" lon="13.969973185926593"><ele>438.79999999999995</ele><time>2026-04-11T13:07:00.931Z</time></trkpt><trkpt lat="45.68311075164312" lon="13.969904425691034"><ele>439.2</ele><time>2026-04-11T13:07:02.931Z</time></trkpt><trkpt lat="45.68301818785054" lon="13.969854106889091"><ele>439.6</ele><time>2026-04-11T13:07:04.931Z</time></trkpt><trkpt lat="45.68292350715934" lon="13.969769173359824"><ele>440.0</ele><time>2026-04-11T13:07:06.931Z</time></trkpt><trkpt lat="45.68284922340212" lon="13.969717732539811"><ele>440.0</ele><time>2026-04-11T13:07:07.931Z</time></trkpt><trkpt lat="45.682763834087076" lon="13.969666387114092"><ele>440.0</ele><time>2026-04-11T13:07:08.931Z</time></trkpt><trkpt lat="45.682668413931346" lon="13.969626503603331"><ele>440.0</ele><time>2026-04-11T13:07:09.931Z</time></trkpt><trkpt lat="45.68256388166586" lon="13.969584898261992"><ele>440.0</ele><time>2026-04-11T13:07:10.931Z</time></trkpt><trkpt lat="45.68247302304673" lon="13.969532430517777"><ele>440.0</ele><time>2026-04-11T13:07:11.931Z</time></trkpt><trkpt lat="45.68235701572384" lon="13.969473146655593"><ele>440.0</ele><time>2026-04-11T13:07:12.931Z</time></trkpt><trkpt lat="45.68224031293689" lon="13.969416786612992"><ele>440.0</ele><time>2026-04-11T13:07:13.931Z</time></trkpt><trkpt lat="45.682132366469" lon="13.969354852657691"><ele>440.0</ele><time>2026-04-11T13:07:14.931Z</time></trkpt><trkpt lat="45.68203023774392" lon="13.96928310755939"><ele>440.0</ele><time>2026-04-11T13:07:15.932Z</time></trkpt><trkpt lat="45.681931818715334" lon="13.969180974124406"><ele>439.25</ele><time>2026-04-11T13:07:16.932Z</time></trkpt><trkpt lat="45.68183872524704" lon="13.96909094663151"><ele>438.5</ele><time>2026-04-11T13:07:17.932Z</time></trkpt><trkpt lat="45.681736094841355" lon="13.96898812245326"><ele>437.75</ele><time>2026-04-11T13:07:18.932Z</time></trkpt><trkpt lat="45.681638747079724" lon="13.968904182836365"><ele>437.0</ele><time>2026-04-11T13:07:19.933Z</time></trkpt><trkpt lat="45.68153886575977" lon="13.968837070700918"><ele>436.99999999999994</ele><time>2026-04-11T13:07:20.933Z</time></trkpt><trkpt lat="45.68145078339328" lon="13.968804995433022"><ele>437.0</ele><time>2026-04-11T13:07:21.932Z</time></trkpt><trkpt lat="45.68138285284392" lon="13.968819601916524"><ele>437.0</ele><time>2026-04-11T13:07:22.932Z</time></trkpt><trkpt lat="45.681328098096934" lon="13.968878398082008"><ele>437.0</ele><time>2026-04-11T13:07:23.932Z</time></trkpt><trkpt lat="45.68131307627357" lon="13.968973692445612"><ele>436.99999999999994</ele><time>2026-04-11T13:07:24.932Z</time></trkpt><trkpt lat="45.68130913439264" lon="13.969077028017436"><ele>437.0</ele><time>2026-04-11T13:07:25.932Z</time></trkpt><trkpt lat="45.68131025005698" lon="13.969196752379675"><ele>437.40000000000003</ele><time>2026-04-11T13:07:26.932Z</time></trkpt><trkpt lat="45.681310319049224" lon="13.969339635919138"><ele>437.80000000000007</ele><time>2026-04-11T13:07:27.932Z</time></trkpt><trkpt lat="45.68129011057091" lon="13.96950118072095"><ele>438.2</ele><time>2026-04-11T13:07:28.933Z</time></trkpt><trkpt lat="45.68126324972983" lon="13.969656223905057"><ele>438.6</ele><time>2026-04-11T13:07:29.932Z</time></trkpt><trkpt lat="45.68121383919971" lon="13.969807117636744"><ele>439.0</ele><time>2026-04-11T13:07:30.932Z</time></trkpt><trkpt lat="45.68113962802007" lon="13.969955468506319"><ele>438.75</ele><time>2026-04-11T13:07:31.932Z</time></trkpt><trkpt lat="45.681060385421965" lon="13.97008943640903"><ele>438.5</ele><time>2026-04-11T13:07:32.932Z</time></trkpt><trkpt lat="45.68096666357782" lon="13.970212652123141"><ele>438.25</ele><time>2026-04-11T13:07:33.932Z</time></trkpt><trkpt lat="45.68086770725003" lon="13.97031999162125"><ele>438.0</ele><time>2026-04-11T13:07:34.932Z</time></trkpt><trkpt lat="45.680745536605954" lon="13.97039562091195"><ele>438.0</ele><time>2026-04-11T13:07:35.932Z</time></trkpt><trkpt lat="45.68062385288282" lon="13.97044555702853"><ele>438.0</ele><time>2026-04-11T13:07:36.932Z</time></trkpt><trkpt lat="45.68050795677037" lon="13.970461697206236"><ele>438.0</ele><time>2026-04-11T13:07:37.932Z</time></trkpt><trkpt lat="45.680376265819724" lon="13.97048957018128"><ele>438.0</ele><time>2026-04-11T13:07:38.932Z</time></trkpt><trkpt lat="45.68025328480066" lon="13.97049865359633"><ele>438.79999999999995</ele><time>2026-04-11T13:07:39.932Z</time></trkpt><trkpt lat="45.68013800685176" lon="13.970514057157416"><ele>439.59999999999997</ele><time>2026-04-11T13:07:40.932Z</time></trkpt><trkpt lat="45.68002582056015" lon="13.970529547397916"><ele>440.40000000000003</ele><time>2026-04-11T13:07:41.932Z</time></trkpt><trkpt lat="45.67992549068741" lon="13.970519198904254"><ele>441.20000000000005</ele><time>2026-04-11T13:07:42.932Z</time></trkpt><trkpt lat="45.67983268808626" lon="13.970478853145812"><ele>442.0</ele><time>2026-04-11T13:07:43.932Z</time></trkpt><trkpt lat="45.67975125229826" lon="13.970434702788875"><ele>442.00000000000006</ele><time>2026-04-11T13:07:44.932Z</time></trkpt><trkpt lat="45.679690164854414" lon="13.970342720694909"><ele>442.0</ele><time>2026-04-11T13:07:45.932Z</time></trkpt><trkpt lat="45.67961830354695" lon="13.970324553480786"><ele>442.0</ele><time>2026-04-11T13:07:46.932Z</time></trkpt><trkpt lat="45.679535275700154" lon="13.970352563456627"><ele>442.0</ele><time>2026-04-11T13:07:47.932Z</time></trkpt><trkpt lat="45.67947450034932" lon="13.970417681179818"><ele>442.00000000000006</ele><time>2026-04-11T13:07:48.932Z</time></trkpt><trkpt lat="45.67944365986145" lon="13.970515796443744"><ele>442.0</ele><time>2026-04-11T13:07:49.932Z</time></trkpt><trkpt lat="45.679458308606314" lon="13.970748367671433"><ele>442.0</ele><time>2026-04-11T13:07:51.932Z</time></trkpt><trkpt lat="45.679458924508786" lon="13.970885846721687"><ele>442.00000000000006</ele><time>2026-04-11T13:07:52.932Z</time></trkpt><trkpt lat="45.679427081646885" lon="13.971018326389721"><ele>442.00000000000006</ele><time>2026-04-11T13:07:53.932Z</time></trkpt><trkpt lat="45.67935979054838" lon="13.971141642861062"><ele>442.0</ele><time>2026-04-11T13:07:54.932Z</time></trkpt><trkpt lat="45.6792983651207" lon="13.971248108427572"><ele>442.0</ele><time>2026-04-11T13:07:55.932Z</time></trkpt><trkpt lat="45.67925032634872" lon="13.971358092240397"><ele>442.0</ele><time>2026-04-11T13:07:56.932Z</time></trkpt><trkpt lat="45.6791857569966" lon="13.971458738831412"><ele>442.00000000000006</ele><time>2026-04-11T13:07:57.932Z</time></trkpt><trkpt lat="45.67911428306165" lon="13.97151379523248"><ele>442.00000000000006</ele><time>2026-04-11T13:07:58.932Z</time></trkpt><trkpt lat="45.67902766635025" lon="13.971514228854925"><ele>442.0</ele><time>2026-04-11T13:07:59.932Z</time></trkpt><trkpt lat="45.678940541132505" lon="13.971435818848807"><ele>442.0</ele><time>2026-04-11T13:08:00.932Z</time></trkpt><trkpt lat="45.678842864078135" lon="13.971328712956383"><ele>442.0</ele><time>2026-04-11T13:08:01.932Z</time></trkpt><trkpt lat="45.67875055811784" lon="13.9712247217752"><ele>442.0</ele><time>2026-04-11T13:08:02.932Z</time></trkpt><trkpt lat="45.67865586769808" lon="13.971118371983763"><ele>442.0</ele><time>2026-04-11T13:08:03.932Z</time></trkpt><trkpt lat="45.678544310017614" lon="13.97099927749073"><ele>442.0</ele><time>2026-04-11T13:08:04.932Z</time></trkpt><trkpt lat="45.67842582983421" lon="13.970865864323553"><ele>442.6666666666667</ele><time>2026-04-11T13:08:05.932Z</time></trkpt><trkpt lat="45.6783047277736" lon="13.970725092755739"><ele>443.33333333333337</ele><time>2026-04-11T13:08:06.932Z</time></trkpt><trkpt lat="45.678188660798114" lon="13.97058438193322"><ele>444.0</ele><time>2026-04-11T13:08:07.932Z</time></trkpt><trkpt lat="45.678073207044804" lon="13.970438153647958"><ele>444.0</ele><time>2026-04-11T13:08:08.932Z</time></trkpt><trkpt lat="45.67794717282649" lon="13.970289975432038"><ele>444.0</ele><time>2026-04-11T13:08:09.932Z</time></trkpt><trkpt lat="45.67781036406322" lon="13.970138479046344"><ele>444.0</ele><time>2026-04-11T13:08:10.932Z</time></trkpt><trkpt lat="45.67767277411328" lon="13.969983377282555"><ele>444.0</ele><time>2026-04-11T13:08:11.932Z</time></trkpt><trkpt lat="45.67753446922041" lon="13.969808444026821"><ele>444.0</ele><time>2026-04-11T13:08:12.932Z</time></trkpt><trkpt lat="45.677404730174295" lon="13.969651569897763"><ele>444.0</ele><time>2026-04-11T13:08:13.932Z</time></trkpt><trkpt lat="45.67726621515076" lon="13.969490265816727"><ele>444.0</ele><time>2026-04-11T13:08:14.932Z</time></trkpt><trkpt lat="45.67712473119674" lon="13.969347688985648"><ele>444.0</ele><time>2026-04-11T13:08:15.932Z</time></trkpt><trkpt lat="45.676993655805994" lon="13.969194684455552"><ele>444.0</ele><time>2026-04-11T13:08:16.932Z</time></trkpt><trkpt lat="45.6768474350585" lon="13.969042468116426"><ele>446.0</ele><time>2026-04-11T13:08:17.932Z</time></trkpt><trkpt lat="45.67669849723646" lon="13.9688930769027"><ele>448.0</ele><time>2026-04-11T13:08:18.932Z</time></trkpt><trkpt lat="45.67654836302231" lon="13.968745121201911"><ele>450.0</ele><time>2026-04-11T13:08:19.932Z</time></trkpt><trkpt lat="45.676391473678606" lon="13.96860630646012"><ele>450.0</ele><time>2026-04-11T13:08:20.932Z</time></trkpt><trkpt lat="45.67623198629995" lon="13.968472290357784"><ele>450.0</ele><time>2026-04-11T13:08:21.932Z</time></trkpt><trkpt lat="45.67605467045628" lon="13.968341793590696"><ele>450.0</ele><time>2026-04-11T13:08:22.932Z</time></trkpt><trkpt lat="45.675879388613154" lon="13.968211059205107"><ele>450.0</ele><time>2026-04-11T13:08:23.932Z</time></trkpt><trkpt lat="45.675708430288395" lon="13.968082706996594"><ele>450.0</ele><time>2026-04-11T13:08:24.932Z</time></trkpt><trkpt lat="45.675524752003945" lon="13.967963722800379"><ele>450.0</ele><time>2026-04-11T13:08:25.932Z</time></trkpt><trkpt lat="45.67533643216209" lon="13.96785849174075"><ele>452.0</ele><time>2026-04-11T13:08:26.932Z</time></trkpt><trkpt lat="45.675148948585964" lon="13.967760849833306"><ele>454.0</ele><time>2026-04-11T13:08:27.932Z</time></trkpt><trkpt lat="45.674952341400534" lon="13.967672985651266"><ele>456.0</ele><time>2026-04-11T13:08:28.932Z</time></trkpt><trkpt lat="45.674756347118475" lon="13.967590638007973"><ele>456.0</ele><time>2026-04-11T13:08:29.932Z</time></trkpt><trkpt lat="45.67456227264159" lon="13.967522020424434"><ele>456.0</ele><time>2026-04-11T13:08:30.932Z</time></trkpt><trkpt lat="45.67436696295586" lon="13.967458309390324"><ele>456.0</ele><time>2026-04-11T13:08:31.932Z</time></trkpt><trkpt lat="45.67416919754204" lon="13.967406117683858"><ele>457.33333333333337</ele><time>2026-04-11T13:08:32.932Z</time></trkpt><trkpt lat="45.67397566415259" lon="13.967366263545406"><ele>458.6666666666667</ele><time>2026-04-11T13:08:33.932Z</time></trkpt><trkpt lat="45.67378406081444" lon="13.96733306103324"><ele>460.0</ele><time>2026-04-11T13:08:34.932Z</time></trkpt><trkpt lat="45.673582528440456" lon="13.96731191279767"><ele>461.0</ele><time>2026-04-11T13:08:35.932Z</time></trkpt><trkpt lat="45.673388800390086" lon="13.96728642404842"><ele>462.0</ele><time>2026-04-11T13:08:36.932Z</time></trkpt><trkpt lat="45.67319742173831" lon="13.96727814993814"><ele>463.0</ele><time>2026-04-11T13:08:37.932Z</time></trkpt><trkpt lat="45.673004146569035" lon="13.967284442592302"><ele>463.0</ele><time>2026-04-11T13:08:38.932Z</time></trkpt><trkpt lat="45.67280892360576" lon="13.967301483995984"><ele>463.0</ele><time>2026-04-11T13:08:39.932Z</time></trkpt><trkpt lat="45.67261402509668" lon="13.967321073497532"><ele>463.0</ele><time>2026-04-11T13:08:40.932Z</time></trkpt><trkpt lat="45.672425598630596" lon="13.967355256727323"><ele>463.75</ele><time>2026-04-11T13:08:41.932Z</time></trkpt><trkpt lat="45.67225695168003" lon="13.967406714405563"><ele>464.5</ele><time>2026-04-11T13:08:42.932Z</time></trkpt><trkpt lat="45.672117579697876" lon="13.967457028683384"><ele>465.25</ele><time>2026-04-11T13:08:43.932Z</time></trkpt><trkpt lat="45.67200462726143" lon="13.96751422768452"><ele>466.0</ele><time>2026-04-11T13:08:44.932Z</time></trkpt><trkpt lat="45.6719070454957" lon="13.967574203867988"><ele>466.0</ele><time>2026-04-11T13:08:45.932Z</time></trkpt><trkpt lat="45.671821400550904" lon="13.967611595556622"><ele>466.0</ele><time>2026-04-11T13:08:46.932Z</time></trkpt><trkpt lat="45.671730320902924" lon="13.967643428515423"><ele>466.0</ele><time>2026-04-11T13:08:47.932Z</time></trkpt><trkpt lat="45.6716385772015" lon="13.967673294381742"><ele>466.0</ele><time>2026-04-11T13:08:48.932Z</time></trkpt><trkpt lat="45.67154640463897" lon="13.967675246979514"><ele>466.0</ele><time>2026-04-11T13:08:49.932Z</time></trkpt><trkpt lat="45.67146501293685" lon="13.967671173215216"><ele>466.0</ele><time>2026-04-11T13:08:50.932Z</time></trkpt><trkpt lat="45.6713999257906" lon="13.967706639890595"><ele>466.0</ele><time>2026-04-11T13:08:51.932Z</time></trkpt><trkpt lat="45.67135402319282" lon="13.967794307628482"><ele>466.0</ele><time>2026-04-11T13:08:52.932Z</time></trkpt><trkpt lat="45.6713237666596" lon="13.967917849397748"><ele>466.0</ele><time>2026-04-11T13:08:53.932Z</time></trkpt><trkpt lat="45.67129971938443" lon="13.968055164198818"><ele>466.0</ele><time>2026-04-11T13:08:54.932Z</time></trkpt><trkpt lat="45.671239216314184" lon="13.968198391495093"><ele>466.0</ele><time>2026-04-11T13:08:55.932Z</time></trkpt><trkpt lat="45.67114993306033" lon="13.96833834655268"><ele>466.0</ele><time>2026-04-11T13:08:56.932Z</time></trkpt><trkpt lat="45.67105146539693" lon="13.968501173127184"><ele>466.0</ele><time>2026-04-11T13:08:57.932Z</time></trkpt><trkpt lat="45.670948629930464" lon="13.968688632873084"><ele>466.0</ele><time>2026-04-11T13:08:58.932Z</time></trkpt><trkpt lat="45.67085258197756" lon="13.968877678055213"><ele>462.0</ele><time>2026-04-11T13:08:59.932Z</time></trkpt><trkpt lat="45.67075358287808" lon="13.969078531437315"><ele>458.0</ele><time>2026-04-11T13:09:00.932Z</time></trkpt><trkpt lat="45.67064585668237" lon="13.969278813646175"><ele>454.0</ele><time>2026-04-11T13:09:01.932Z</time></trkpt><trkpt lat="45.67052400338495" lon="13.969484663335175"><ele>451.6666666666667</ele><time>2026-04-11T13:09:02.932Z</time></trkpt><trkpt lat="45.67037748348065" lon="13.96967372392933"><ele>449.33333333333337</ele><time>2026-04-11T13:09:03.932Z</time></trkpt><trkpt lat="45.670221960015965" lon="13.969857078876785"><ele>447.0</ele><time>2026-04-11T13:09:04.932Z</time></trkpt><trkpt lat="45.67004800171045" lon="13.970015183968247"><ele>444.33333333333337</ele><time>2026-04-11T13:09:05.931Z</time></trkpt><trkpt lat="45.669864919179254" lon="13.970158274799514"><ele>441.6666666666667</ele><time>2026-04-11T13:09:06.931Z</time></trkpt><trkpt lat="45.669666884531516" lon="13.970271074781072"><ele>439.0</ele><time>2026-04-11T13:09:07.931Z</time></trkpt><trkpt lat="45.66946156228393" lon="13.970356816441672"><ele>443.33333333333337</ele><time>2026-04-11T13:09:08.931Z</time></trkpt><trkpt lat="45.669240913530224" lon="13.970425412410414"><ele>447.66666666666663</ele><time>2026-04-11T13:09:09.931Z</time></trkpt><trkpt lat="45.66903216655459" lon="13.970499302646097"><ele>452.0</ele><time>2026-04-11T13:09:10.931Z</time></trkpt><trkpt lat="45.66883903365797" lon="13.970546832331951"><ele>452.0</ele><time>2026-04-11T13:09:11.931Z</time></trkpt><trkpt lat="45.668642364831996" lon="13.97061117202989"><ele>452.0</ele><time>2026-04-11T13:09:12.931Z</time></trkpt><trkpt lat="45.66844519240055" lon="13.970686129819132"><ele>452.0</ele><time>2026-04-11T13:09:13.931Z</time></trkpt><trkpt lat="45.66826229530478" lon="13.970799304703649"><ele>452.3333333333333</ele><time>2026-04-11T13:09:14.931Z</time></trkpt><trkpt lat="45.6680745094678" lon="13.970941717074215"><ele>452.66666666666663</ele><time>2026-04-11T13:09:15.931Z</time></trkpt><trkpt lat="45.66789072085423" lon="13.97111322568122"><ele>453.0</ele><time>2026-04-11T13:09:16.931Z</time></trkpt><trkpt lat="45.66770932228585" lon="13.971284156785947"><ele>452.33333333333337</ele><time>2026-04-11T13:09:17.931Z</time></trkpt><trkpt lat="45.667540965484314" lon="13.97147232352538"><ele>451.6666666666667</ele><time>2026-04-11T13:09:18.931Z</time></trkpt><trkpt lat="45.667362569912164" lon="13.971647477963192"><ele>451.0</ele><time>2026-04-11T13:09:19.931Z</time></trkpt><trkpt lat="45.66718418102598" lon="13.971809445827219"><ele>450.6666666666667</ele><time>2026-04-11T13:09:20.931Z</time></trkpt><trkpt lat="45.66698874292444" lon="13.971942348240841"><ele>450.33333333333337</ele><time>2026-04-11T13:09:21.932Z</time></trkpt><trkpt lat="45.66679528050485" lon="13.972061618534054"><ele>450.0</ele><time>2026-04-11T13:09:22.931Z</time></trkpt><trkpt lat="45.66659677553256" lon="13.972163412806182"><ele>450.0</ele><time>2026-04-11T13:09:23.931Z</time></trkpt><trkpt lat="45.66639421862325" lon="13.972250247622027"><ele>450.0</ele><time>2026-04-11T13:09:24.931Z</time></trkpt><trkpt lat="45.66619257258442" lon="13.972321950660378"><ele>450.0</ele><time>2026-04-11T13:09:25.931Z</time></trkpt><trkpt lat="45.665991881435424" lon="13.972381379196884"><ele>450.0</ele><time>2026-04-11T13:09:26.931Z</time></trkpt><trkpt lat="45.665799688963915" lon="13.972428620793616"><ele>450.0</ele><time>2026-04-11T13:09:27.932Z</time></trkpt><trkpt lat="45.66561574099429" lon="13.972477190528483"><ele>450.0</ele><time>2026-04-11T13:09:28.931Z</time></trkpt><trkpt lat="45.66543911018077" lon="13.972525657457837"><ele>449.0</ele><time>2026-04-11T13:09:29.931Z</time></trkpt><trkpt lat="45.66526725610122" lon="13.972577451923364"><ele>448.0</ele><time>2026-04-11T13:09:30.932Z</time></trkpt><trkpt lat="45.66509674443416" lon="13.972635530132756"><ele>447.0</ele><time>2026-04-11T13:09:31.931Z</time></trkpt><trkpt lat="45.66493093224427" lon="13.972700360066032"><ele>447.0</ele><time>2026-04-11T13:09:32.931Z</time></trkpt><trkpt lat="45.664759013416536" lon="13.972787122414633"><ele>447.0</ele><time>2026-04-11T13:09:33.932Z</time></trkpt><trkpt lat="45.664595801550874" lon="13.972876402667428"><ele>447.0</ele><time>2026-04-11T13:09:34.932Z</time></trkpt><trkpt lat="45.66443930016795" lon="13.97296884147185"><ele>448.0</ele><time>2026-04-11T13:09:35.932Z</time></trkpt><trkpt lat="45.66427928574398" lon="13.973053860851083"><ele>449.0</ele><time>2026-04-11T13:09:36.932Z</time></trkpt><trkpt lat="45.66413559748412" lon="13.97314811393199"><ele>450.0</ele><time>2026-04-11T13:09:37.932Z</time></trkpt><trkpt lat="45.66400647764198" lon="13.97325665659578"><ele>449.6</ele><time>2026-04-11T13:09:38.932Z</time></trkpt><trkpt lat="45.6638879788116" lon="13.973361792631076"><ele>449.2</ele><time>2026-04-11T13:09:39.932Z</time></trkpt><trkpt lat="45.663784010889124" lon="13.973468026846497"><ele>448.79999999999995</ele><time>2026-04-11T13:09:40.932Z</time></trkpt><trkpt lat="45.663719807888185" lon="13.973545939803953"><ele>448.4</ele><time>2026-04-11T13:09:41.932Z</time></trkpt><trkpt lat="45.663652435563364" lon="13.973558720567418"><ele>448.0</ele><time>2026-04-11T13:09:43.932Z</time></trkpt><trkpt lat="45.66362034490663" lon="13.973392211645619"><ele>448.4</ele><time>2026-04-11T13:09:46.932Z</time></trkpt><trkpt lat="45.66366623104197" lon="13.973253896707364"><ele>448.79999999999995</ele><time>2026-04-11T13:09:48.932Z</time></trkpt><trkpt lat="45.663703569227685" lon="13.973162602573426"><ele>449.2</ele><time>2026-04-11T13:09:49.932Z</time></trkpt><trkpt lat="45.66377356610777" lon="13.973092464609918"><ele>449.6</ele><time>2026-04-11T13:09:50.932Z</time></trkpt><trkpt lat="45.663853926516666" lon="13.973027994273568"><ele>450.0</ele><time>2026-04-11T13:09:51.932Z</time></trkpt><trkpt lat="45.66394913909045" lon="13.97296608223448"><ele>450.0</ele><time>2026-04-11T13:09:52.932Z</time></trkpt><trkpt lat="45.664021142567954" lon="13.972872954230146"><ele>450.0</ele><time>2026-04-11T13:09:53.932Z</time></trkpt><trkpt lat="45.664087636916896" lon="13.972750525116487"><ele>450.0</ele><time>2026-04-11T13:09:54.933Z</time></trkpt><trkpt lat="45.66413964484262" lon="13.972604723575099"><ele>450.0</ele><time>2026-04-11T13:09:55.933Z</time></trkpt><trkpt lat="45.664174832799596" lon="13.972454219843979"><ele>450.0</ele><time>2026-04-11T13:09:56.933Z</time></trkpt><trkpt lat="45.66418891600864" lon="13.972298466837097"><ele>450.25</ele><time>2026-04-11T13:09:57.934Z</time></trkpt><trkpt lat="45.664192896179344" lon="13.972126379455961"><ele>450.5</ele><time>2026-04-11T13:09:58.934Z</time></trkpt><trkpt lat="45.66417163706921" lon="13.971937304450304"><ele>450.75</ele><time>2026-04-11T13:09:59.934Z</time></trkpt><trkpt lat="45.664125047807396" lon="13.971745727169282"><ele>451.0</ele><time>2026-04-11T13:10:00.935Z</time></trkpt><trkpt lat="45.66407007285349" lon="13.971536695876408"><ele>451.5</ele><time>2026-04-11T13:10:01.935Z</time></trkpt><trkpt lat="45.6640100160777" lon="13.971339723492045"><ele>452.0</ele><time>2026-04-11T13:10:02.935Z</time></trkpt><trkpt lat="45.663951190669984" lon="13.971165237466563"><ele>452.5</ele><time>2026-04-11T13:10:03.935Z</time></trkpt><trkpt lat="45.66388594523793" lon="13.970987838946803"><ele>453.0</ele><time>2026-04-11T13:10:04.935Z</time></trkpt><trkpt lat="45.663820385636946" lon="13.970809882653834"><ele>454.0</ele><time>2026-04-11T13:10:05.936Z</time></trkpt><trkpt lat="45.663780496079745" lon="13.970617444954952"><ele>455.0</ele><time>2026-04-11T13:10:06.936Z</time></trkpt><trkpt lat="45.66377791654073" lon="13.970419675299324"><ele>456.0</ele><time>2026-04-11T13:10:07.936Z</time></trkpt><trkpt lat="45.66378591394474" lon="13.970217980338436"><ele>457.0</ele><time>2026-04-11T13:10:08.936Z</time></trkpt><trkpt lat="45.66380666003463" lon="13.970013457507424"><ele>457.6666666666667</ele><time>2026-04-11T13:10:09.936Z</time></trkpt><trkpt lat="45.66384070219776" lon="13.969787930220543"><ele>458.33333333333337</ele><time>2026-04-11T13:10:10.936Z</time></trkpt><trkpt lat="45.66387478030342" lon="13.969551436465755"><ele>459.0</ele><time>2026-04-11T13:10:11.936Z</time></trkpt><trkpt lat="45.66391048806528" lon="13.969302187695774"><ele>458.66666666666663</ele><time>2026-04-11T13:10:12.937Z</time></trkpt><trkpt lat="45.663949123210045" lon="13.969030980631969"><ele>458.3333333333333</ele><time>2026-04-11T13:10:13.937Z</time></trkpt><trkpt lat="45.66398537438663" lon="13.968762614667144"><ele>458.0</ele><time>2026-04-11T13:10:14.937Z</time></trkpt><trkpt lat="45.66401577063417" lon="13.968528396434332"><ele>457.75</ele><time>2026-04-11T13:10:15.937Z</time></trkpt><trkpt lat="45.66403487766073" lon="13.968310520178365"><ele>457.5</ele><time>2026-04-11T13:10:16.937Z</time></trkpt><trkpt lat="45.66402771729205" lon="13.96810602637618"><ele>457.25</ele><time>2026-04-11T13:10:17.937Z</time></trkpt><trkpt lat="45.6639932494313" lon="13.967914208770429"><ele>457.0</ele><time>2026-04-11T13:10:18.937Z</time></trkpt><trkpt lat="45.66392639616607" lon="13.967713186928025"><ele>457.0</ele><time>2026-04-11T13:10:19.937Z</time></trkpt><trkpt lat="45.66381743857323" lon="13.967535965466876"><ele>457.0</ele><time>2026-04-11T13:10:20.937Z</time></trkpt><trkpt lat="45.663713571102654" lon="13.967377292319647"><ele>457.0</ele><time>2026-04-11T13:10:21.937Z</time></trkpt><trkpt lat="45.663618642969126" lon="13.967214845658523"><ele>459.25</ele><time>2026-04-11T13:10:22.937Z</time></trkpt><trkpt lat="45.663539267389986" lon="13.967054239583494"><ele>461.5</ele><time>2026-04-11T13:10:23.937Z</time></trkpt><trkpt lat="45.66348040142372" lon="13.966870762685172"><ele>463.75</ele><time>2026-04-11T13:10:24.937Z</time></trkpt><trkpt lat="45.663448912318266" lon="13.966666867495634"><ele>466.0</ele><time>2026-04-11T13:10:25.937Z</time></trkpt><trkpt lat="45.6634776047423" lon="13.966459715641307"><ele>466.33333333333337</ele><time>2026-04-11T13:10:26.938Z</time></trkpt><trkpt lat="45.66351481587097" lon="13.966231898292733"><ele>466.66666666666663</ele><time>2026-04-11T13:10:27.938Z</time></trkpt><trkpt lat="45.66355269676261" lon="13.966004443222245"><ele>467.0</ele><time>2026-04-11T13:10:28.938Z</time></trkpt><trkpt lat="45.663613904090084" lon="13.965800383223769"><ele>467.0</ele><time>2026-04-11T13:10:29.938Z</time></trkpt><trkpt lat="45.663674020016636" lon="13.965575758324244"><ele>467.0</ele><time>2026-04-11T13:10:30.938Z</time></trkpt><trkpt lat="45.663691043739" lon="13.965344228740886"><ele>467.0</ele><time>2026-04-11T13:10:31.938Z</time></trkpt><trkpt lat="45.66367259737313" lon="13.96515133579791"><ele>467.0</ele><time>2026-04-11T13:10:32.938Z</time></trkpt><trkpt lat="45.66362669328239" lon="13.96497039667762"><ele>467.0</ele><time>2026-04-11T13:10:33.938Z</time></trkpt><trkpt lat="45.66356210661517" lon="13.964807889354367"><ele>467.0</ele><time>2026-04-11T13:10:34.938Z</time></trkpt><trkpt lat="45.66346120855293" lon="13.964667058580094"><ele>467.0</ele><time>2026-04-11T13:10:35.938Z</time></trkpt><trkpt lat="45.663356905826504" lon="13.964522503394367"><ele>467.0</ele><time>2026-04-11T13:10:36.938Z</time></trkpt><trkpt lat="45.663273170019636" lon="13.964350591050836"><ele>467.0</ele><time>2026-04-11T13:10:37.938Z</time></trkpt><trkpt lat="45.663204010946046" lon="13.964179226337714"><ele>467.0</ele><time>2026-04-11T13:10:38.938Z</time></trkpt><trkpt lat="45.66314567661018" lon="13.96400664453638"><ele>467.0</ele><time>2026-04-11T13:10:39.938Z</time></trkpt><trkpt lat="45.66309457525531" lon="13.963836997161566"><ele>467.25</ele><time>2026-04-11T13:10:40.938Z</time></trkpt><trkpt lat="45.663046559469684" lon="13.963659936983925"><ele>467.5</ele><time>2026-04-11T13:10:41.938Z</time></trkpt><trkpt lat="45.66300116633247" lon="13.963480443612443"><ele>467.75</ele><time>2026-04-11T13:10:42.938Z</time></trkpt><trkpt lat="45.6629589028404" lon="13.963298421915713"><ele>468.0</ele><time>2026-04-11T13:10:43.938Z</time></trkpt><trkpt lat="45.66289859382875" lon="13.963102740859561"><ele>468.25</ele><time>2026-04-11T13:10:44.938Z</time></trkpt><trkpt lat="45.662865274517785" lon="13.962909711009646"><ele>468.5</ele><time>2026-04-11T13:10:45.938Z</time></trkpt><trkpt lat="45.662820289436006" lon="13.962705224229174"><ele>468.75</ele><time>2026-04-11T13:10:46.938Z</time></trkpt><trkpt lat="45.66278662026666" lon="13.962505271222696"><ele>469.0</ele><time>2026-04-11T13:10:47.938Z</time></trkpt><trkpt lat="45.66273937658455" lon="13.962305602849282"><ele>469.75</ele><time>2026-04-11T13:10:48.938Z</time></trkpt><trkpt lat="45.66269437525532" lon="13.962118010504012"><ele>470.5</ele><time>2026-04-11T13:10:49.938Z</time></trkpt><trkpt lat="45.66267271740066" lon="13.961947802355148"><ele>471.25</ele><time>2026-04-11T13:10:50.938Z</time></trkpt><trkpt lat="45.662635584180286" lon="13.961779944955284"><ele>472.0</ele><time>2026-04-11T13:10:51.938Z</time></trkpt><trkpt lat="45.66259844689964" lon="13.96161206908907"><ele>472.75</ele><time>2026-04-11T13:10:52.938Z</time></trkpt><trkpt lat="45.66256117033178" lon="13.961443563441303"><ele>473.5</ele><time>2026-04-11T13:10:53.938Z</time></trkpt><trkpt lat="45.66252337557894" lon="13.961284514516905"><ele>474.25</ele><time>2026-04-11T13:10:54.938Z</time></trkpt><trkpt lat="45.662506641800505" lon="13.961127121662797"><ele>475.0</ele><time>2026-04-11T13:10:55.938Z</time></trkpt><trkpt lat="45.662489635212054" lon="13.960963942082234"><ele>475.5</ele><time>2026-04-11T13:10:56.938Z</time></trkpt><trkpt lat="45.66247918719385" lon="13.960790908594955"><ele>476.0</ele><time>2026-04-11T13:10:57.938Z</time></trkpt><trkpt lat="45.662477516914755" lon="13.960630311238859"><ele>476.5</ele><time>2026-04-11T13:10:58.938Z</time></trkpt><trkpt lat="45.662465589700126" lon="13.960458724588014"><ele>477.0</ele><time>2026-04-11T13:10:59.938Z</time></trkpt><trkpt lat="45.662455830051094" lon="13.960264733408932"><ele>477.0</ele><time>2026-04-11T13:11:00.938Z</time></trkpt><trkpt lat="45.66244880397041" lon="13.960076111774505"><ele>477.0</ele><time>2026-04-11T13:11:01.938Z</time></trkpt><trkpt lat="45.66243530718119" lon="13.959886637745717"><ele>477.0</ele><time>2026-04-11T13:11:02.938Z</time></trkpt><trkpt lat="45.662427038789744" lon="13.959702390262295"><ele>477.0</ele><time>2026-04-11T13:11:03.938Z</time></trkpt><trkpt lat="45.662430439462426" lon="13.95950543459158"><ele>477.66666666666663</ele><time>2026-04-11T13:11:04.938Z</time></trkpt><trkpt lat="45.66243715860699" lon="13.95928685431304"><ele>478.3333333333333</ele><time>2026-04-11T13:11:05.938Z</time></trkpt><trkpt lat="45.66246176452467" lon="13.959070818280006"><ele>479.0</ele><time>2026-04-11T13:11:06.938Z</time></trkpt><trkpt lat="45.66249943446389" lon="13.958848216321895"><ele>479.5</ele><time>2026-04-11T13:11:07.938Z</time></trkpt><trkpt lat="45.66253309902771" lon="13.958619319481013"><ele>480.0</ele><time>2026-04-11T13:11:08.938Z</time></trkpt><trkpt lat="45.66258993702077" lon="13.958432984506388"><ele>480.5</ele><time>2026-04-11T13:11:09.938Z</time></trkpt><trkpt lat="45.66265035013301" lon="13.958247156822294"><ele>481.0</ele><time>2026-04-11T13:11:10.938Z</time></trkpt><trkpt lat="45.66272473266481" lon="13.958041282871376"><ele>477.6666666666667</ele><time>2026-04-11T13:11:11.938Z</time></trkpt><trkpt lat="45.66280013286638" lon="13.957834520515092"><ele>474.33333333333337</ele><time>2026-04-11T13:11:12.938Z</time></trkpt><trkpt lat="45.66287437504772" lon="13.957639582036704"><ele>471.0</ele><time>2026-04-11T13:11:13.938Z</time></trkpt><trkpt lat="45.662940748270636" lon="13.957440819594899"><ele>471.0</ele><time>2026-04-11T13:11:14.938Z</time></trkpt><trkpt lat="45.662984454570164" lon="13.957242575924441"><ele>471.0</ele><time>2026-04-11T13:11:15.938Z</time></trkpt><trkpt lat="45.66300153002986" lon="13.957054837694079"><ele>471.0</ele><time>2026-04-11T13:11:16.938Z</time></trkpt><trkpt lat="45.66300379111908" lon="13.956853861744673"><ele>471.0</ele><time>2026-04-11T13:11:17.938Z</time></trkpt><trkpt lat="45.66299659448971" lon="13.956650499934918"><ele>471.25</ele><time>2026-04-11T13:11:18.938Z</time></trkpt><trkpt lat="45.66299478472113" lon="13.956430838802968"><ele>471.5</ele><time>2026-04-11T13:11:19.938Z</time></trkpt><trkpt lat="45.66297572541639" lon="13.95622119706124"><ele>471.75</ele><time>2026-04-11T13:11:20.938Z</time></trkpt><trkpt lat="45.66295213900315" lon="13.95602329144467"><ele>472.0</ele><time>2026-04-11T13:11:21.938Z</time></trkpt><trkpt lat="45.662938767902084" lon="13.955833086008651"><ele>473.40000000000003</ele><time>2026-04-11T13:11:22.938Z</time></trkpt><trkpt lat="45.66290524360748" lon="13.955654831713419"><ele>474.80000000000007</ele><time>2026-04-11T13:11:23.938Z</time></trkpt><trkpt lat="45.662869809965365" lon="13.955520567553707"><ele>476.2</ele><time>2026-04-11T13:11:24.938Z</time></trkpt><trkpt lat="45.66283660939443" lon="13.95540768493497"><ele>477.6</ele><time>2026-04-11T13:11:25.938Z</time></trkpt><trkpt lat="45.66279088699196" lon="13.955267489582365"><ele>479.0</ele><time>2026-04-11T13:11:27.939Z</time></trkpt><trkpt lat="45.66274780522437" lon="13.955195293538324"><ele>479.0</ele><time>2026-04-11T13:11:29.939Z</time></trkpt><trkpt lat="45.6627062845263" lon="13.95511870046683"><ele>479.0</ele><time>2026-04-11T13:15:38.94Z</time></trkpt><trkpt lat="45.66263423242685" lon="13.955163840384436"><ele>479.0</ele><time>2026-04-11T13:15:41.94Z</time></trkpt><trkpt lat="45.66258157695338" lon="13.955216904697679"><ele>479.0</ele><time>2026-04-11T13:15:43.94Z</time></trkpt><trkpt lat="45.662489771013945" lon="13.955283450515633"><ele>479.0</ele><time>2026-04-11T13:15:45.94Z</time></trkpt><trkpt lat="45.66235310962024" lon="13.955358773198439"><ele>479.0</ele><time>2026-04-11T13:15:47.94Z</time></trkpt><trkpt lat="45.66228417533828" lon="13.95539433909358"><ele>479.0</ele><time>2026-04-11T13:15:48.94Z</time></trkpt><trkpt lat="45.66220863306909" lon="13.955430674636796"><ele>479.0</ele><time>2026-04-11T13:15:49.94Z</time></trkpt><trkpt lat="45.66213687843943" lon="13.95546854051113"><ele>479.0</ele><time>2026-04-11T13:15:50.94Z</time></trkpt><trkpt lat="45.66207568008856" lon="13.955497497257126"><ele>479.0</ele><time>2026-04-11T13:15:51.94Z</time></trkpt><trkpt lat="45.66201023223471" lon="13.955498757816041"><ele>479.0</ele><time>2026-04-11T13:15:52.94Z</time></trkpt><trkpt lat="45.66194297217174" lon="13.955500701716181"><ele>479.0</ele><time>2026-04-11T13:15:53.94Z</time></trkpt><trkpt lat="45.66187916153527" lon="13.955475683757937"><ele>481.6</ele><time>2026-04-11T13:15:54.94Z</time></trkpt><trkpt lat="45.661795669144546" lon="13.955453712166046"><ele>484.2</ele><time>2026-04-11T13:15:55.94Z</time></trkpt><trkpt lat="45.66169877192613" lon="13.955425363109727"><ele>486.80000000000007</ele><time>2026-04-11T13:15:56.94Z</time></trkpt><trkpt lat="45.661574095758475" lon="13.955412722716998"><ele>489.40000000000003</ele><time>2026-04-11T13:15:57.94Z</time></trkpt><trkpt lat="45.66149017018185" lon="13.955414262668967"><ele>492.0</ele><time>2026-04-11T13:15:58.94Z</time></trkpt><trkpt lat="45.66141164516018" lon="13.955418006339542"><ele>492.0</ele><time>2026-04-11T13:15:59.94Z</time></trkpt><trkpt lat="45.66133584972451" lon="13.955424761656461"><ele>492.0</ele><time>2026-04-11T13:16:00.94Z</time></trkpt><trkpt lat="45.66126046979246" lon="13.955435306207308"><ele>492.0</ele><time>2026-04-11T13:16:01.94Z</time></trkpt><trkpt lat="45.661194037981" lon="13.955446000027262"><ele>492.0</ele><time>2026-04-11T13:16:02.94Z</time></trkpt><trkpt lat="45.66107025962645" lon="13.955420874702035"><ele>492.0</ele><time>2026-04-11T13:16:04.94Z</time></trkpt><trkpt lat="45.66101038026512" lon="13.955386685396105"><ele>492.0</ele><time>2026-04-11T13:16:05.94Z</time></trkpt><trkpt lat="45.66095687613821" lon="13.955326249004159"><ele>492.0</ele><time>2026-04-11T13:16:06.94Z</time></trkpt><trkpt lat="45.66090591398014" lon="13.955268740553894"><ele>492.0</ele><time>2026-04-11T13:16:07.94Z</time></trkpt><trkpt lat="45.660855775006404" lon="13.955168127319146"><ele>492.0</ele><time>2026-04-11T13:16:08.94Z</time></trkpt><trkpt lat="45.66081943820891" lon="13.95505055949409"><ele>492.0</ele><time>2026-04-11T13:16:09.94Z</time></trkpt><trkpt lat="45.660779743789035" lon="13.954943302897698"><ele>492.0</ele><time>2026-04-11T13:16:10.94Z</time></trkpt><trkpt lat="45.66074165907606" lon="13.954823419042286"><ele>492.0</ele><time>2026-04-11T13:16:11.94Z</time></trkpt><trkpt lat="45.660695497853055" lon="13.954709282779769"><ele>489.5</ele><time>2026-04-11T13:16:12.94Z</time></trkpt><trkpt lat="45.660620999502434" lon="13.95456959824667"><ele>487.0</ele><time>2026-04-11T13:16:13.94Z</time></trkpt><trkpt lat="45.660539659759074" lon="13.954442709448138"><ele>484.5</ele><time>2026-04-11T13:16:14.94Z</time></trkpt><trkpt lat="45.66046973933618" lon="13.954321692876269"><ele>482.0</ele><time>2026-04-11T13:16:15.94Z</time></trkpt><trkpt lat="45.6603991893982" lon="13.954192738155191"><ele>480.0</ele><time>2026-04-11T13:16:16.94Z</time></trkpt><trkpt lat="45.66032446621032" lon="13.954068006293829"><ele>478.0</ele><time>2026-04-11T13:16:17.94Z</time></trkpt><trkpt lat="45.66025765110427" lon="13.953941822986591"><ele>476.0</ele><time>2026-04-11T13:16:18.94Z</time></trkpt><trkpt lat="45.6601811869245" lon="13.953804169452074"><ele>474.0</ele><time>2026-04-11T13:16:19.94Z</time></trkpt><trkpt lat="45.660108724855206" lon="13.953676304956055"><ele>473.4</ele><time>2026-04-11T13:16:20.94Z</time></trkpt><trkpt lat="45.66004456300586" lon="13.95356551759721"><ele>472.79999999999995</ele><time>2026-04-11T13:16:21.94Z</time></trkpt><trkpt lat="45.65997760609888" lon="13.953452736432371"><ele>472.20000000000005</ele><time>2026-04-11T13:16:22.94Z</time></trkpt><trkpt lat="45.65991364311421" lon="13.953364526678035"><ele>471.6</ele><time>2026-04-11T13:16:23.94Z</time></trkpt><trkpt lat="45.65985352607745" lon="13.953287145760982"><ele>471.0</ele><time>2026-04-11T13:16:24.94Z</time></trkpt><trkpt lat="45.65974396853534" lon="13.95321330251953"><ele>470.4</ele><time>2026-04-11T13:16:26.94Z</time></trkpt><trkpt lat="45.65968098324756" lon="13.953222280517648"><ele>469.8</ele><time>2026-04-11T13:16:27.94Z</time></trkpt><trkpt lat="45.659539833389" lon="13.953275017752425"><ele>469.19999999999993</ele><time>2026-04-11T13:16:29.94Z</time></trkpt><trkpt lat="45.65944324547733" lon="13.953315221796442"><ele>468.59999999999997</ele><time>2026-04-11T13:16:30.94Z</time></trkpt><trkpt lat="45.65933738531071" lon="13.953356787420256"><ele>468.0</ele><time>2026-04-11T13:16:31.94Z</time></trkpt><trkpt lat="45.65922351252196" lon="13.953404126492783"><ele>468.0</ele><time>2026-04-11T13:16:32.94Z</time></trkpt><trkpt lat="45.659135848334294" lon="13.953466766016208"><ele>467.99999999999994</ele><time>2026-04-11T13:16:33.94Z</time></trkpt><trkpt lat="45.65905151091792" lon="13.953534805143386"><ele>467.99999999999994</ele><time>2026-04-11T13:16:34.94Z</time></trkpt><trkpt lat="45.65896807570581" lon="13.95358121298454"><ele>468.0</ele><time>2026-04-11T13:16:35.94Z</time></trkpt><trkpt lat="45.65890443516176" lon="13.953618263562598"><ele>468.0</ele><time>2026-04-11T13:16:36.94Z</time></trkpt><trkpt lat="45.6587695189352" lon="13.953620595123564"><ele>468.0</ele><time>2026-04-11T13:16:38.94Z</time></trkpt><trkpt lat="45.65869625070737" lon="13.95362166469738"><ele>468.0</ele><time>2026-04-11T13:16:39.94Z</time></trkpt><trkpt lat="45.65859450282304" lon="13.953601537260672"><ele>468.0</ele><time>2026-04-11T13:16:40.94Z</time></trkpt><trkpt lat="45.65838033235811" lon="13.953598955328538"><ele>468.0</ele><time>2026-04-11T13:16:42.94Z</time></trkpt><trkpt lat="45.65826560222595" lon="13.9535894655362"><ele>468.1666666666667</ele><time>2026-04-11T13:16:43.94Z</time></trkpt><trkpt lat="45.658163352728685" lon="13.95358888195614"><ele>468.33333333333337</ele><time>2026-04-11T13:16:44.94Z</time></trkpt><trkpt lat="45.65807623553573" lon="13.953584939019844"><ele>468.5</ele><time>2026-04-11T13:16:45.94Z</time></trkpt><trkpt lat="45.65799956062745" lon="13.953591962481358"><ele>468.6666666666667</ele><time>2026-04-11T13:16:46.94Z</time></trkpt><trkpt lat="45.657921698785664" lon="13.953579551273833"><ele>468.83333333333337</ele><time>2026-04-11T13:16:47.94Z</time></trkpt><trkpt lat="45.657829215889315" lon="13.953570238503996"><ele>469.0</ele><time>2026-04-11T13:16:48.94Z</time></trkpt><trkpt lat="45.6577169708276" lon="13.953558749033878"><ele>468.0</ele><time>2026-04-11T13:16:49.94Z</time></trkpt><trkpt lat="45.657600487992404" lon="13.95354278508552"><ele>467.0</ele><time>2026-04-11T13:16:50.94Z</time></trkpt><trkpt lat="45.65750040155977" lon="13.953511000448488"><ele>466.0</ele><time>2026-04-11T13:16:51.94Z</time></trkpt><trkpt lat="45.65737112614852" lon="13.953482069877207"><ele>465.0</ele><time>2026-04-11T13:16:52.94Z</time></trkpt><trkpt lat="45.65723525792693" lon="13.953441093326653"><ele>465.0</ele><time>2026-04-11T13:16:53.94Z</time></trkpt><trkpt lat="45.65709508650972" lon="13.953409105093884"><ele>465.0</ele><time>2026-04-11T13:16:54.94Z</time></trkpt><trkpt lat="45.65694563269973" lon="13.953362442523897"><ele>465.0</ele><time>2026-04-11T13:16:55.94Z</time></trkpt><trkpt lat="45.65679028131527" lon="13.9533155708183"><ele>464.0</ele><time>2026-04-11T13:16:56.94Z</time></trkpt><trkpt lat="45.65663135098428" lon="13.95327666576255"><ele>463.0</ele><time>2026-04-11T13:16:57.94Z</time></trkpt><trkpt lat="45.65646569499983" lon="13.953236959641618"><ele>462.0</ele><time>2026-04-11T13:16:58.94Z</time></trkpt><trkpt lat="45.65631715289135" lon="13.953204943937164"><ele>462.0</ele><time>2026-04-11T13:16:59.94Z</time></trkpt><trkpt lat="45.65618674522743" lon="13.953183842015466"><ele>462.0</ele><time>2026-04-11T13:17:00.94Z</time></trkpt><trkpt lat="45.65605404835025" lon="13.953159758715591"><ele>462.0</ele><time>2026-04-11T13:17:01.94Z</time></trkpt><trkpt lat="45.65592210406239" lon="13.953131733152315"><ele>462.0</ele><time>2026-04-11T13:17:02.94Z</time></trkpt><trkpt lat="45.65579119638794" lon="13.953113296530166"><ele>462.25</ele><time>2026-04-11T13:17:03.94Z</time></trkpt><trkpt lat="45.655645592725115" lon="13.953096546484447"><ele>462.5</ele><time>2026-04-11T13:17:04.94Z</time></trkpt><trkpt lat="45.65551366572201" lon="13.953080439172075"><ele>462.75</ele><time>2026-04-11T13:17:05.94Z</time></trkpt><trkpt lat="45.65540211326722" lon="13.953088828061375"><ele>463.0</ele><time>2026-04-11T13:17:06.94Z</time></trkpt><trkpt lat="45.655292705837745" lon="13.953110427081612"><ele>463.33333333333337</ele><time>2026-04-11T13:17:07.94Z</time></trkpt><trkpt lat="45.65519834216848" lon="13.953134835255433"><ele>463.6666666666667</ele><time>2026-04-11T13:17:08.94Z</time></trkpt><trkpt lat="45.655109584701364" lon="13.953158341677812"><ele>464.0</ele><time>2026-04-11T13:17:09.94Z</time></trkpt><trkpt lat="45.65503885230872" lon="13.953180410802121"><ele>464.33333333333337</ele><time>2026-04-11T13:17:10.94Z</time></trkpt><trkpt lat="45.65497375887214" lon="13.953195839367403"><ele>464.6666666666667</ele><time>2026-04-11T13:17:11.94Z</time></trkpt><trkpt lat="45.65491357838991" lon="13.95316158787536"><ele>465.0</ele><time>2026-04-11T13:17:13.94Z</time></trkpt><trkpt lat="45.6548749535681" lon="13.953049003934403"><ele>465.0</ele><time>2026-04-11T13:17:17.94Z</time></trkpt><trkpt lat="45.65479009541013" lon="13.953034582928515"><ele>465.0</ele><time>2026-04-11T13:17:22.94Z</time></trkpt><trkpt lat="45.65469145277552" lon="13.953093237091979"><ele>465.0</ele><time>2026-04-11T13:17:24.94Z</time></trkpt><trkpt lat="45.654598799688074" lon="13.953167976765773"><ele>465.0</ele><time>2026-04-11T13:17:26.94Z</time></trkpt><trkpt lat="45.65453340721312" lon="13.953205806939668"><ele>465.0</ele><time>2026-04-11T13:17:27.939Z</time></trkpt><trkpt lat="45.65446158626446" lon="13.953262758925824"><ele>466.0</ele><time>2026-04-11T13:17:28.939Z</time></trkpt><trkpt lat="45.654384612821026" lon="13.953322580895586"><ele>467.0</ele><time>2026-04-11T13:17:29.939Z</time></trkpt><trkpt lat="45.65431505573089" lon="13.953371755114162"><ele>468.0</ele><time>2026-04-11T13:17:30.939Z</time></trkpt><trkpt lat="45.654247263190875" lon="13.95343784221008"><ele>469.0</ele><time>2026-04-11T13:17:31.939Z</time></trkpt><trkpt lat="45.65414348830646" lon="13.953526478514918"><ele>470.0</ele><time>2026-04-11T13:17:33.939Z</time></trkpt><trkpt lat="45.65408141867657" lon="13.953582713246725"><ele>471.0</ele><time>2026-04-11T13:17:34.939Z</time></trkpt><trkpt lat="45.654006518954894" lon="13.953646767646983"><ele>471.4</ele><time>2026-04-11T13:17:36.939Z</time></trkpt><trkpt lat="45.65389402134077" lon="13.953719990732287"><ele>471.8</ele><time>2026-04-11T13:17:38.939Z</time></trkpt><trkpt lat="45.65382541341201" lon="13.953671890630813"><ele>472.19999999999993</ele><time>2026-04-11T13:17:40.939Z</time></trkpt><trkpt lat="45.653756060102666" lon="13.953620693775932"><ele>472.59999999999997</ele><time>2026-04-11T13:17:41.939Z</time></trkpt><trkpt lat="45.653643183415895" lon="13.953550671402393"><ele>473.0</ele><time>2026-04-11T13:17:43.939Z</time></trkpt><trkpt lat="45.653568103352804" lon="13.95351602291688"><ele>473.8333333333333</ele><time>2026-04-11T13:17:44.94Z</time></trkpt><trkpt lat="45.65350228396213" lon="13.953489987229359"><ele>474.66666666666663</ele><time>2026-04-11T13:17:45.94Z</time></trkpt><trkpt lat="45.653387880251934" lon="13.95343646057056"><ele>475.5</ele><time>2026-04-11T13:17:47.94Z</time></trkpt><trkpt lat="45.6533243277158" lon="13.953419118943128"><ele>476.33333333333337</ele><time>2026-04-11T13:17:48.941Z</time></trkpt><trkpt lat="45.653261681536115" lon="13.95340242697236"><ele>477.1666666666667</ele><time>2026-04-11T13:17:49.941Z</time></trkpt><trkpt lat="45.65318391896252" lon="13.953388473399292"><ele>478.0</ele><time>2026-04-11T13:17:50.94Z</time></trkpt><trkpt lat="45.653115680072816" lon="13.953372397575599"><ele>478.00000000000006</ele><time>2026-04-11T13:17:51.94Z</time></trkpt><trkpt lat="45.653056077394304" lon="13.953338405570248"><ele>478.0</ele><time>2026-04-11T13:17:52.94Z</time></trkpt><trkpt lat="45.652987417210745" lon="13.953295016827433"><ele>478.0</ele><time>2026-04-11T13:17:53.94Z</time></trkpt><trkpt lat="45.65292261713286" lon="13.953248589887236"><ele>478.0</ele><time>2026-04-11T13:17:54.94Z</time></trkpt><trkpt lat="45.652856885586026" lon="13.95319405739727"><ele>478.00000000000006</ele><time>2026-04-11T13:17:55.94Z</time></trkpt><trkpt lat="45.652756273512104" lon="13.953139789830695"><ele>478.0</ele><time>2026-04-11T13:17:57.94Z</time></trkpt><trkpt lat="45.65265614142245" lon="13.953065438148998"><ele>478.59999999999997</ele><time>2026-04-11T13:17:59.94Z</time></trkpt><trkpt lat="45.6525823449245" lon="13.953028280114474"><ele>479.19999999999993</ele><time>2026-04-11T13:18:01.94Z</time></trkpt><trkpt lat="45.65250113069944" lon="13.953013499064738"><ele>479.8</ele><time>2026-04-11T13:18:03.94Z</time></trkpt><trkpt lat="45.6523804015821" lon="13.953005793080926"><ele>480.4</ele><time>2026-04-11T13:18:05.94Z</time></trkpt><trkpt lat="45.65227105468505" lon="13.952974940134641"><ele>481.0</ele><time>2026-04-11T13:18:07.94Z</time></trkpt><trkpt lat="45.65215915990267" lon="13.952948577531167"><ele>481.00000000000006</ele><time>2026-04-11T13:18:09.94Z</time></trkpt><trkpt lat="45.6520845433379" lon="13.952923890026867"><ele>481.0</ele><time>2026-04-11T13:18:11.94Z</time></trkpt><trkpt lat="45.65200766912071" lon="13.952946420786953"><ele>481.0</ele><time>2026-04-11T13:18:13.94Z</time></trkpt><trkpt lat="45.651895374686966" lon="13.95300181895026"><ele>481.0</ele><time>2026-04-11T13:18:15.94Z</time></trkpt><trkpt lat="45.65182094579305" lon="13.953004445145387"><ele>481.00000000000006</ele><time>2026-04-11T13:18:16.94Z</time></trkpt><trkpt lat="45.65173447381426" lon="13.953024631054692"><ele>481.0</ele><time>2026-04-11T13:18:18.94Z</time></trkpt><trkpt lat="45.65165202095201" lon="13.95305831862839"><ele>481.50000000000006</ele><time>2026-04-11T13:18:21.94Z</time></trkpt><trkpt lat="45.65155654611076" lon="13.953115472532582"><ele>482.0</ele><time>2026-04-11T13:18:24.94Z</time></trkpt><trkpt lat="45.65145774376642" lon="13.953155732858777"><ele>482.5</ele><time>2026-04-11T13:18:27.94Z</time></trkpt><trkpt lat="45.65138415279991" lon="13.953128792177996"><ele>483.0</ele><time>2026-04-11T13:18:30.94Z</time></trkpt><trkpt lat="45.651303278042576" lon="13.953112632211518"><ele>483.50000000000006</ele><time>2026-04-11T13:18:32.94Z</time></trkpt><trkpt lat="45.65123040819666" lon="13.953094413984974"><ele>484.0</ele><time>2026-04-11T13:18:34.939Z</time></trkpt><trkpt lat="45.65114578704375" lon="13.953045586816712"><ele>484.83333333333337</ele><time>2026-04-11T13:18:36.939Z</time></trkpt><trkpt lat="45.651120094742" lon="13.952919145310918"><ele>485.6666666666667</ele><time>2026-04-11T13:18:39.939Z</time></trkpt><trkpt lat="45.65106495850251" lon="13.95282835296146"><ele>486.5</ele><time>2026-04-11T13:18:41.939Z</time></trkpt><trkpt lat="45.650999696335546" lon="13.95277646482542"><ele>487.33333333333337</ele><time>2026-04-11T13:18:43.939Z</time></trkpt><trkpt lat="45.650928561068106" lon="13.952761142730369"><ele>488.1666666666667</ele><time>2026-04-11T13:18:45.939Z</time></trkpt><trkpt lat="45.650838377955374" lon="13.952766926219589"><ele>489.0</ele><time>2026-04-11T13:18:47.939Z</time></trkpt><trkpt lat="45.65073241118654" lon="13.952736865116588"><ele>489.0</ele><time>2026-04-11T13:18:49.939Z</time></trkpt><trkpt lat="45.65066557175497" lon="13.952721238430062"><ele>489.0</ele><time>2026-04-11T13:18:50.939Z</time></trkpt><trkpt lat="45.650591265188886" lon="13.952698863245743"><ele>489.0</ele><time>2026-04-11T13:18:51.939Z</time></trkpt><trkpt lat="45.650471448598154" lon="13.952672510652109"><ele>489.0</ele><time>2026-04-11T13:18:53.939Z</time></trkpt><trkpt lat="45.65041047398057" lon="13.952633954251224"><ele>489.0</ele><time>2026-04-11T13:18:54.939Z</time></trkpt><trkpt lat="45.65031816505864" lon="13.952534284470747"><ele>489.0</ele><time>2026-04-11T13:18:56.939Z</time></trkpt><trkpt lat="45.65025483874409" lon="13.95247058768342"><ele>489.6</ele><time>2026-04-11T13:18:57.939Z</time></trkpt><trkpt lat="45.650185761883044" lon="13.952380639430123"><ele>490.2</ele><time>2026-04-11T13:18:59.939Z</time></trkpt><trkpt lat="45.65011272212595" lon="13.952350349667197"><ele>490.80000000000007</ele><time>2026-04-11T13:19:01.939Z</time></trkpt><trkpt lat="45.65004371700418" lon="13.952341969543882"><ele>491.40000000000003</ele><time>2026-04-11T13:19:02.939Z</time></trkpt><trkpt lat="45.64995301787312" lon="13.952339941562043"><ele>492.0</ele><time>2026-04-11T13:19:03.939Z</time></trkpt><trkpt lat="45.6497978355381" lon="13.952380157599968"><ele>492.0</ele><time>2026-04-11T13:19:05.939Z</time></trkpt><trkpt lat="45.64969487307914" lon="13.952419027643183"><ele>492.00000000000006</ele><time>2026-04-11T13:19:07.939Z</time></trkpt><trkpt lat="45.64961897183725" lon="13.952494865408196"><ele>492.00000000000006</ele><time>2026-04-11T13:19:10.939Z</time></trkpt><trkpt lat="45.64952643183219" lon="13.952530070270832"><ele>492.0</ele><time>2026-04-11T13:19:12.939Z</time></trkpt><trkpt lat="45.649449391135164" lon="13.952520255435772"><ele>492.0</ele><time>2026-04-11T13:19:15.939Z</time></trkpt><trkpt lat="45.64936985930567" lon="13.952461026023704"><ele>493.6</ele><time>2026-04-11T13:19:17.939Z</time></trkpt><trkpt lat="45.64931077208861" lon="13.95239413825456"><ele>495.20000000000005</ele><time>2026-04-11T13:19:18.939Z</time></trkpt><trkpt lat="45.64921525397383" lon="13.95231139809305"><ele>496.8</ele><time>2026-04-11T13:19:20.939Z</time></trkpt><trkpt lat="45.649134418252736" lon="13.952241823787558"><ele>498.4</ele><time>2026-04-11T13:19:22.939Z</time></trkpt><trkpt lat="45.64903791250838" lon="13.952173466233225"><ele>500.0</ele><time>2026-04-11T13:19:24.939Z</time></trkpt><trkpt lat="45.64894857302247" lon="13.952130678608782"><ele>499.99999999999994</ele><time>2026-04-11T13:19:26.939Z</time></trkpt><trkpt lat="45.64886715095715" lon="13.952050006374431"><ele>500.0</ele><time>2026-04-11T13:19:28.939Z</time></trkpt><trkpt lat="45.64881492852155" lon="13.951933263903683"><ele>500.0</ele><time>2026-04-11T13:19:30.939Z</time></trkpt><trkpt lat="45.648756674785325" lon="13.951870209776224"><ele>500.0</ele><time>2026-04-11T13:19:31.939Z</time></trkpt><trkpt lat="45.64869541031391" lon="13.951780766224536"><ele>499.99999999999994</ele><time>2026-04-11T13:19:32.939Z</time></trkpt><trkpt lat="45.648646180941114" lon="13.951709832242688"><ele>500.0</ele><time>2026-04-11T13:19:33.939Z</time></trkpt><trkpt lat="45.64853178210701" lon="13.95161207466329"><ele>501.16666666666663</ele><time>2026-04-11T13:19:35.939Z</time></trkpt><trkpt lat="45.64847008834382" lon="13.951587734185164"><ele>502.3333333333333</ele><time>2026-04-11T13:19:36.939Z</time></trkpt><trkpt lat="45.64839669697985" lon="13.951571360081422"><ele>503.5</ele><time>2026-04-11T13:19:37.939Z</time></trkpt><trkpt lat="45.64831296258804" lon="13.951565657623911"><ele>504.66666666666663</ele><time>2026-04-11T13:19:38.939Z</time></trkpt><trkpt lat="45.6482117375486" lon="13.951548143284754"><ele>505.8333333333333</ele><time>2026-04-11T13:19:39.939Z</time></trkpt><trkpt lat="45.64813228119538" lon="13.951529910753642"><ele>507.0</ele><time>2026-04-11T13:19:40.939Z</time></trkpt><trkpt lat="45.64806491623789" lon="13.951512896314364"><ele>507.0</ele><time>2026-04-11T13:19:41.939Z</time></trkpt><trkpt lat="45.647942760274965" lon="13.951481314384658"><ele>507.0</ele><time>2026-04-11T13:19:43.939Z</time></trkpt><trkpt lat="45.647872586405136" lon="13.951443945057044"><ele>507.0</ele><time>2026-04-11T13:19:44.939Z</time></trkpt><trkpt lat="45.647806021265396" lon="13.95142906579869"><ele>507.0</ele><time>2026-04-11T13:19:45.939Z</time></trkpt><trkpt lat="45.64773925669249" lon="13.95140176313825"><ele>507.0</ele><time>2026-04-11T13:19:46.939Z</time></trkpt><trkpt lat="45.647663697384154" lon="13.951318569972447"><ele>507.0</ele><time>2026-04-11T13:19:48.939Z</time></trkpt><trkpt lat="45.64763779625608" lon="13.95123153673503"><ele>508.6</ele><time>2026-04-11T13:19:49.939Z</time></trkpt><trkpt lat="45.6475633710156" lon="13.95115189136227"><ele>510.20000000000005</ele><time>2026-04-11T13:19:50.941Z</time></trkpt><trkpt lat="45.647515762478456" lon="13.95106398375369"><ele>511.8</ele><time>2026-04-11T13:19:51.941Z</time></trkpt><trkpt lat="45.647392205518116" lon="13.950954587743523"><ele>513.4</ele><time>2026-04-11T13:19:53.941Z</time></trkpt><trkpt lat="45.64733765199935" lon="13.95090197033595"><ele>515.0</ele><time>2026-04-11T13:19:54.941Z</time></trkpt><trkpt lat="45.647219281784366" lon="13.95078697869019"><ele>515.2</ele><time>2026-04-11T13:19:56.941Z</time></trkpt><trkpt lat="45.647161171354945" lon="13.950722969354212"><ele>515.4</ele><time>2026-04-11T13:19:57.941Z</time></trkpt><trkpt lat="45.64708182392015" lon="13.950647086542752"><ele>515.6</ele><time>2026-04-11T13:19:59.941Z</time></trkpt><trkpt lat="45.64695430872315" lon="13.950566081803816"><ele>515.8</ele><time>2026-04-11T13:20:01.941Z</time></trkpt><trkpt lat="45.64688672267978" lon="13.950524210671961"><ele>516.0</ele><time>2026-04-11T13:20:02.941Z</time></trkpt><trkpt lat="45.64680458297086" lon="13.950483527748974"><ele>517.8</ele><time>2026-04-11T13:20:03.941Z</time></trkpt><trkpt lat="45.646728726106346" lon="13.950439422524196"><ele>519.6</ele><time>2026-04-11T13:20:04.941Z</time></trkpt><trkpt lat="45.64665851857854" lon="13.950386229155173"><ele>521.4</ele><time>2026-04-11T13:20:05.941Z</time></trkpt><trkpt lat="45.64654321999373" lon="13.950314339696973"><ele>523.2</ele><time>2026-04-11T13:20:07.941Z</time></trkpt><trkpt lat="45.646468365535284" lon="13.950225660572814"><ele>525.0</ele><time>2026-04-11T13:20:08.941Z</time></trkpt><trkpt lat="45.646384337166985" lon="13.95017439074659"><ele>525.0</ele><time>2026-04-11T13:20:09.941Z</time></trkpt><trkpt lat="45.64632617060162" lon="13.950106895183822"><ele>525.0</ele><time>2026-04-11T13:20:10.941Z</time></trkpt><trkpt lat="45.64623813296083" lon="13.95002304413511"><ele>525.0</ele><time>2026-04-11T13:20:12.941Z</time></trkpt><trkpt lat="45.64617583269158" lon="13.949911080240446"><ele>525.0</ele><time>2026-04-11T13:20:15.941Z</time></trkpt><trkpt lat="45.646138142824775" lon="13.949788262241933"><ele>525.0</ele><time>2026-04-11T13:20:17.941Z</time></trkpt><trkpt lat="45.646080271811904" lon="13.949673138288423"><ele>526.0</ele><time>2026-04-11T13:20:19.941Z</time></trkpt><trkpt lat="45.64605951749346" lon="13.949542595162894"><ele>527.0</ele><time>2026-04-11T13:20:21.941Z</time></trkpt><trkpt lat="45.64602892008029" lon="13.949402414072642"><ele>528.0</ele><time>2026-04-11T13:20:23.941Z</time></trkpt><trkpt lat="45.64595325989689" lon="13.949311587066887"><ele>529.0</ele><time>2026-04-11T13:20:25.941Z</time></trkpt><trkpt lat="45.645891143386734" lon="13.949280261985635"><ele>530.0</ele><time>2026-04-11T13:20:26.941Z</time></trkpt><trkpt lat="45.645823465481584" lon="13.949223961059039"><ele>531.0</ele><time>2026-04-11T13:20:27.941Z</time></trkpt><trkpt lat="45.6457538717096" lon="13.949174409720626"><ele>531.0</ele><time>2026-04-11T13:20:28.941Z</time></trkpt><trkpt lat="45.645694840604435" lon="13.949129301568036"><ele>531.0</ele><time>2026-04-11T13:20:29.941Z</time></trkpt><trkpt lat="45.645609623612025" lon="13.949064499585035"><ele>531.0</ele><time>2026-04-11T13:20:31.941Z</time></trkpt><trkpt lat="45.64555622915151" lon="13.948997042122075"><ele>531.0</ele><time>2026-04-11T13:20:33.941Z</time></trkpt><trkpt lat="45.64549798697945" lon="13.948881771598792"><ele>531.0</ele><time>2026-04-11T13:20:56.94Z</time></trkpt><trkpt lat="45.645441562487655" lon="13.948819680392797"><ele>531.0</ele><time>2026-04-11T13:20:58.94Z</time></trkpt><trkpt lat="45.64538071689636" lon="13.948779544319008"><ele>531.0</ele><time>2026-04-11T13:20:59.94Z</time></trkpt><trkpt lat="45.64532543690971" lon="13.948726581355881"><ele>531.0</ele><time>2026-04-11T13:21:00.94Z</time></trkpt><trkpt lat="45.64525158434637" lon="13.948636276214522"><ele>531.0</ele><time>2026-04-11T13:21:02.94Z</time></trkpt><trkpt lat="45.64523960439728" lon="13.948484192071085"><ele>531.0</ele><time>2026-04-11T13:21:04.94Z</time></trkpt><trkpt lat="45.6452267898484" lon="13.948379310277362"><ele>531.0</ele><time>2026-04-11T13:21:05.94Z</time></trkpt><trkpt lat="45.64521290563581" lon="13.948244150122353"><ele>531.0</ele><time>2026-04-11T13:21:06.94Z</time></trkpt><trkpt lat="45.64520097760016" lon="13.948140983612166"><ele>532.1666666666666</ele><time>2026-04-11T13:21:07.94Z</time></trkpt><trkpt lat="45.64516910160724" lon="13.94802260808143"><ele>533.3333333333334</ele><time>2026-04-11T13:21:09.94Z</time></trkpt><trkpt lat="45.645119154634685" lon="13.947911663678962"><ele>534.5</ele><time>2026-04-11T13:21:11.94Z</time></trkpt><trkpt lat="45.645039511756615" lon="13.947815137850363"><ele>535.6666666666667</ele><time>2026-04-11T13:21:13.94Z</time></trkpt><trkpt lat="45.644976728892594" lon="13.947780946478446"><ele>536.8333333333334</ele><time>2026-04-11T13:21:14.94Z</time></trkpt><trkpt lat="45.64490778913363" lon="13.94771726487781"><ele>538.0</ele><time>2026-04-11T13:21:15.94Z</time></trkpt><trkpt lat="45.64483288005614" lon="13.947669616193952"><ele>538.0</ele><time>2026-04-11T13:21:17.94Z</time></trkpt><trkpt lat="45.644767048697446" lon="13.947566568426046"><ele>538.0</ele><time>2026-04-11T13:21:19.94Z</time></trkpt><trkpt lat="45.64470482415855" lon="13.947416382208287"><ele>538.0</ele><time>2026-04-11T13:21:21.94Z</time></trkpt><trkpt lat="45.644661408371405" lon="13.947330948649615"><ele>538.0</ele><time>2026-04-11T13:21:22.94Z</time></trkpt><trkpt lat="45.64460692956016" lon="13.94721516188284"><ele>538.0</ele><time>2026-04-11T13:21:24.94Z</time></trkpt><trkpt lat="45.64455828899017" lon="13.947141537620631"><ele>539.0</ele><time>2026-04-11T13:21:25.94Z</time></trkpt><trkpt lat="45.64449594535691" lon="13.947045037183376"><ele>540.0</ele><time>2026-04-11T13:21:27.94Z</time></trkpt><trkpt lat="45.64444395716479" lon="13.94689824142157"><ele>541.0</ele><time>2026-04-11T13:21:29.94Z</time></trkpt><trkpt lat="45.64435054813972" lon="13.946826757662976"><ele>542.0</ele><time>2026-04-11T13:21:31.94Z</time></trkpt><trkpt lat="45.64423956659872" lon="13.946832734978885"><ele>543.0</ele><time>2026-04-11T13:21:33.94Z</time></trkpt><trkpt lat="45.64417197223809" lon="13.946807580078506"><ele>544.0</ele><time>2026-04-11T13:21:34.94Z</time></trkpt><trkpt lat="45.64404463708344" lon="13.946833814527727"><ele>545.0</ele><time>2026-04-11T13:21:36.94Z</time></trkpt><trkpt lat="45.643965215962915" lon="13.94676538075527"><ele>546.0</ele><time>2026-04-11T13:21:38.94Z</time></trkpt><trkpt lat="45.643897618624514" lon="13.94668713979875"><ele>547.0</ele><time>2026-04-11T13:21:40.94Z</time></trkpt><trkpt lat="45.643845268794855" lon="13.94661531757338"><ele>548.0</ele><time>2026-04-11T13:21:41.94Z</time></trkpt><trkpt lat="45.64380069722078" lon="13.946539318266877"><ele>548.1666666666666</ele><time>2026-04-11T13:21:42.94Z</time></trkpt><trkpt lat="45.6436969524047" lon="13.94650003764072"><ele>548.3333333333333</ele><time>2026-04-11T13:21:44.94Z</time></trkpt><trkpt lat="45.64363727161866" lon="13.946455291765677"><ele>548.5</ele><time>2026-04-11T13:21:45.94Z</time></trkpt><trkpt lat="45.64358071640823" lon="13.946390430256887"><ele>548.6666666666666</ele><time>2026-04-11T13:21:47.94Z</time></trkpt><trkpt lat="45.643529109307934" lon="13.946317178075162"><ele>548.8333333333334</ele><time>2026-04-11T13:21:48.94Z</time></trkpt><trkpt lat="45.64350789566607" lon="13.946224673891455"><ele>549.0</ele><time>2026-04-11T13:21:49.94Z</time></trkpt><trkpt lat="45.643478701452146" lon="13.94613213027457"><ele>550.1666666666666</ele><time>2026-04-11T13:21:50.94Z</time></trkpt><trkpt lat="45.64344939743296" lon="13.946029199761254"><ele>551.3333333333334</ele><time>2026-04-11T13:21:51.94Z</time></trkpt><trkpt lat="45.64341652454022" lon="13.945950926054774"><ele>552.5</ele><time>2026-04-11T13:21:52.94Z</time></trkpt><trkpt lat="45.64338149591154" lon="13.945873974124254"><ele>553.6666666666667</ele><time>2026-04-11T13:21:53.94Z</time></trkpt><trkpt lat="45.64333328576952" lon="13.945786181152993"><ele>554.8333333333334</ele><time>2026-04-11T13:21:54.94Z</time></trkpt><trkpt lat="45.64324821382886" lon="13.945689562727644"><ele>556.0</ele><time>2026-04-11T13:21:56.942Z</time></trkpt><trkpt lat="45.6431950157075" lon="13.945633973519755"><ele>556.8</ele><time>2026-04-11T13:21:57.941Z</time></trkpt><trkpt lat="45.64307895477213" lon="13.945549379817997"><ele>557.6</ele><time>2026-04-11T13:21:59.941Z</time></trkpt><trkpt lat="45.642993898560164" lon="13.945479621550147"><ele>558.4</ele><time>2026-04-11T13:22:00.941Z</time></trkpt><trkpt lat="45.642916112210955" lon="13.94535509188994"><ele>559.2</ele><time>2026-04-11T13:22:02.941Z</time></trkpt><trkpt lat="45.64285303874395" lon="13.945287882542646"><ele>560.0</ele><time>2026-04-11T13:22:03.941Z</time></trkpt><trkpt lat="45.64281243531626" lon="13.945195253420891"><ele>560.8333333333333</ele><time>2026-04-11T13:22:04.941Z</time></trkpt><trkpt lat="45.64276210859305" lon="13.94512398763598"><ele>561.6666666666666</ele><time>2026-04-11T13:22:05.942Z</time></trkpt><trkpt lat="45.642709146096635" lon="13.945054896885873"><ele>562.5</ele><time>2026-04-11T13:22:06.941Z</time></trkpt><trkpt lat="45.64265931284147" lon="13.944981442969848"><ele>563.3333333333334</ele><time>2026-04-11T13:22:07.941Z</time></trkpt><trkpt lat="45.64262745599004" lon="13.944833506342283"><ele>564.1666666666667</ele><time>2026-04-11T13:22:09.941Z</time></trkpt><trkpt lat="45.642615363542895" lon="13.944733783969685"><ele>565.0</ele><time>2026-04-11T13:22:10.941Z</time></trkpt><trkpt lat="45.642592620008465" lon="13.944558668158944"><ele>565.0</ele><time>2026-04-11T13:22:12.941Z</time></trkpt><trkpt lat="45.642573168152" lon="13.944470100271026"><ele>565.0</ele><time>2026-04-11T13:22:14.941Z</time></trkpt><trkpt lat="45.64249334045975" lon="13.944425001193238"><ele>565.0</ele><time>2026-04-11T13:22:17.941Z</time></trkpt><trkpt lat="45.64240304491225" lon="13.944425078034197"><ele>565.0</ele><time>2026-04-11T13:22:19.941Z</time></trkpt><trkpt lat="45.64230221112687" lon="13.944438376255695"><ele>565.0</ele><time>2026-04-11T13:22:21.941Z</time></trkpt><trkpt lat="45.642216028272955" lon="13.944430955221346"><ele>565.0</ele><time>2026-04-11T13:22:23.941Z</time></trkpt><trkpt lat="45.64213115457714" lon="13.944400122867782"><ele>565.0</ele><time>2026-04-11T13:22:25.941Z</time></trkpt><trkpt lat="45.642023202924726" lon="13.944384199944965"><ele>565.0</ele><time>2026-04-11T13:22:27.941Z</time></trkpt><trkpt lat="45.64189565705969" lon="13.944345123157737"><ele>565.0</ele><time>2026-04-11T13:22:29.941Z</time></trkpt><trkpt lat="45.64178549247406" lon="13.9443368650868"><ele>565.0</ele><time>2026-04-11T13:22:31.941Z</time></trkpt><trkpt lat="45.64164977241409" lon="13.944349363894254"><ele>566.1666666666667</ele><time>2026-04-11T13:22:33.941Z</time></trkpt><trkpt lat="45.641543257335556" lon="13.944351372368928"><ele>567.3333333333334</ele><time>2026-04-11T13:22:35.941Z</time></trkpt><trkpt lat="45.64143463577181" lon="13.944372053492499"><ele>568.5</ele><time>2026-04-11T13:22:37.941Z</time></trkpt><trkpt lat="45.64134076405283" lon="13.944392928096454"><ele>569.6666666666666</ele><time>2026-04-11T13:22:39.941Z</time></trkpt><trkpt lat="45.6412724410134" lon="13.944412571560248"><ele>570.8333333333333</ele><time>2026-04-11T13:22:40.941Z</time></trkpt><trkpt lat="45.641210832482315" lon="13.944433503846785"><ele>572.0</ele><time>2026-04-11T13:22:41.941Z</time></trkpt><trkpt lat="45.6410880322421" lon="13.944418818545945"><ele>575.2</ele><time>2026-04-11T13:22:43.941Z</time></trkpt><trkpt lat="45.64102068833682" lon="13.944403078458139"><ele>578.4000000000001</ele><time>2026-04-11T13:22:44.941Z</time></trkpt><trkpt lat="45.64090322311765" lon="13.944367126403165"><ele>581.5999999999999</ele><time>2026-04-11T13:22:46.941Z</time></trkpt><trkpt lat="45.640781871899655" lon="13.944321454250247"><ele>584.8</ele><time>2026-04-11T13:22:48.941Z</time></trkpt><trkpt lat="45.64070794807261" lon="13.944310133679915"><ele>588.0</ele><time>2026-04-11T13:22:49.941Z</time></trkpt><trkpt lat="45.64058977757932" lon="13.944231245174144"><ele>588.6666666666666</ele><time>2026-04-11T13:22:51.941Z</time></trkpt><trkpt lat="45.64052241828481" lon="13.944186014348508"><ele>589.3333333333334</ele><time>2026-04-11T13:22:52.941Z</time></trkpt><trkpt lat="45.64044905835533" lon="13.944146697662903"><ele>590.0</ele><time>2026-04-11T13:22:53.941Z</time></trkpt><trkpt lat="45.640374317304854" lon="13.944126575091039"><ele>590.6666666666667</ele><time>2026-04-11T13:22:54.941Z</time></trkpt><trkpt lat="45.640289381485694" lon="13.94407945574301"><ele>591.3333333333334</ele><time>2026-04-11T13:22:55.941Z</time></trkpt><trkpt lat="45.640230245194864" lon="13.944030840211681"><ele>592.0</ele><time>2026-04-11T13:22:56.941Z</time></trkpt><trkpt lat="45.64015374025496" lon="13.943985698425013"><ele>593.2</ele><time>2026-04-11T13:22:57.941Z</time></trkpt><trkpt lat="45.64008007020069" lon="13.94393795085305"><ele>594.4000000000001</ele><time>2026-04-11T13:22:58.941Z</time></trkpt><trkpt lat="45.63998014542012" lon="13.943866436080535"><ele>595.5999999999999</ele><time>2026-04-11T13:23:00.941Z</time></trkpt><trkpt lat="45.639918215483334" lon="13.9437922496153"><ele>596.8</ele><time>2026-04-11T13:23:01.941Z</time></trkpt><trkpt lat="45.639854138974755" lon="13.943743469221333"><ele>598.0</ele><time>2026-04-11T13:23:02.941Z</time></trkpt><trkpt lat="45.6397549116326" lon="13.943680865907341"><ele>598.0</ele><time>2026-04-11T13:23:04.941Z</time></trkpt><trkpt lat="45.63968323903986" lon="13.943586885853591"><ele>598.0</ele><time>2026-04-11T13:23:06.941Z</time></trkpt><trkpt lat="45.63963397632731" lon="13.943488088653883"><ele>598.0</ele><time>2026-04-11T13:23:08.941Z</time></trkpt><trkpt lat="45.63955751148241" lon="13.943397591672335"><ele>598.0</ele><time>2026-04-11T13:23:10.941Z</time></trkpt><trkpt lat="45.63948821463674" lon="13.943296981180708"><ele>598.0</ele><time>2026-04-11T13:23:12.941Z</time></trkpt><trkpt lat="45.63941840024702" lon="13.943153301799235"><ele>601.4</ele><time>2026-04-11T13:23:14.941Z</time></trkpt><trkpt lat="45.639338082372085" lon="13.94303363188229"><ele>604.8</ele><time>2026-04-11T13:23:16.941Z</time></trkpt><trkpt lat="45.639287848638055" lon="13.94292670098573"><ele>608.2</ele><time>2026-04-11T13:23:18.941Z</time></trkpt><trkpt lat="45.6392335552914" lon="13.942793022400314"><ele>611.6</ele><time>2026-04-11T13:23:20.94Z</time></trkpt><trkpt lat="45.639178944692844" lon="13.942714122089123"><ele>615.0</ele><time>2026-04-11T13:23:22.94Z</time></trkpt><trkpt lat="45.639132848708556" lon="13.942638759177282"><ele>615.0</ele><time>2026-04-11T13:23:23.94Z</time></trkpt><trkpt lat="45.63908426372049" lon="13.942555153325568"><ele>615.0</ele><time>2026-04-11T13:23:24.94Z</time></trkpt><trkpt lat="45.63903278803521" lon="13.942498393642222"><ele>615.0</ele><time>2026-04-11T13:23:25.94Z</time></trkpt><trkpt lat="45.638979954063124" lon="13.942430778098279"><ele>615.0</ele><time>2026-04-11T13:23:26.94Z</time></trkpt><trkpt lat="45.638936194300285" lon="13.942365435082644"><ele>615.0</ele><time>2026-04-11T13:23:27.94Z</time></trkpt><trkpt lat="45.638878155711446" lon="13.94228542936322"><ele>615.0</ele><time>2026-04-11T13:23:28.94Z</time></trkpt><trkpt lat="45.6388170963999" lon="13.9421978084415"><ele>615.0</ele><time>2026-04-11T13:23:29.94Z</time></trkpt><trkpt lat="45.638761828437445" lon="13.942097487342812"><ele>616.1666666666666</ele><time>2026-04-11T13:23:31.94Z</time></trkpt><trkpt lat="45.63872004302979" lon="13.94199191451471"><ele>617.3333333333334</ele><time>2026-04-11T13:23:33.94Z</time></trkpt><trkpt lat="45.638673624204316" lon="13.941917293353328"><ele>618.5</ele><time>2026-04-11T13:23:34.94Z</time></trkpt><trkpt lat="45.63865538331486" lon="13.941824883259795"><ele>619.6666666666667</ele><time>2026-04-11T13:23:35.94Z</time></trkpt><trkpt lat="45.63863888331841" lon="13.941660125513886"><ele>620.8333333333334</ele><time>2026-04-11T13:23:37.94Z</time></trkpt><trkpt lat="45.63862140993994" lon="13.941516411259167"><ele>622.0</ele><time>2026-04-11T13:23:39.94Z</time></trkpt><trkpt lat="45.6386137434746" lon="13.941414999525993"><ele>624.4</ele><time>2026-04-11T13:23:40.94Z</time></trkpt><trkpt lat="45.63859541581828" lon="13.94128260396942"><ele>626.8000000000001</ele><time>2026-04-11T13:23:42.94Z</time></trkpt><trkpt lat="45.638589085464766" lon="13.94110509773855"><ele>629.2</ele><time>2026-04-11T13:23:44.94Z</time></trkpt><trkpt lat="45.638579173737156" lon="13.94101560797833"><ele>631.6</ele><time>2026-04-11T13:23:45.94Z</time></trkpt><trkpt lat="45.63854733299623" lon="13.94092215643395"><ele>634.0</ele><time>2026-04-11T13:23:46.94Z</time></trkpt><trkpt lat="45.63849440400877" lon="13.940773077079026"><ele>634.6666666666667</ele><time>2026-04-11T13:23:48.94Z</time></trkpt><trkpt lat="45.63846582284038" lon="13.940668753188225"><ele>635.3333333333334</ele><time>2026-04-11T13:23:49.94Z</time></trkpt><trkpt lat="45.638458767596205" lon="13.940553746378551"><ele>636.0</ele><time>2026-04-11T13:23:50.94Z</time></trkpt><trkpt lat="45.63845908991344" lon="13.94044704456798"><ele>636.6666666666666</ele><time>2026-04-11T13:23:51.94Z</time></trkpt><trkpt lat="45.6384614644924" lon="13.940319686528703"><ele>637.3333333333333</ele><time>2026-04-11T13:23:52.94Z</time></trkpt><trkpt lat="45.63846057415033" lon="13.940207149404875"><ele>638.0</ele><time>2026-04-11T13:23:53.94Z</time></trkpt><trkpt lat="45.63846125298654" lon="13.940087459952275"><ele>639.0</ele><time>2026-04-11T13:23:54.94Z</time></trkpt><trkpt lat="45.63844937285293" lon="13.939955968736502"><ele>640.0</ele><time>2026-04-11T13:23:55.94Z</time></trkpt><trkpt lat="45.63843997905108" lon="13.939841202767166"><ele>641.0</ele><time>2026-04-11T13:23:56.94Z</time></trkpt><trkpt lat="45.63842650811143" lon="13.939716995725085"><ele>642.0</ele><time>2026-04-11T13:23:57.94Z</time></trkpt><trkpt lat="45.63842065682805" lon="13.939604130448867"><ele>643.0</ele><time>2026-04-11T13:23:58.94Z</time></trkpt><trkpt lat="45.63841108153865" lon="13.939493149353067"><ele>644.0</ele><time>2026-04-11T13:23:59.94Z</time></trkpt><trkpt lat="45.638413952713705" lon="13.93927480934221"><ele>644.8000000000001</ele><time>2026-04-11T13:24:01.94Z</time></trkpt><trkpt lat="45.63841929049518" lon="13.93913431712609"><ele>645.6</ele><time>2026-04-11T13:24:02.942Z</time></trkpt><trkpt lat="45.638423040379884" lon="13.938996872593403"><ele>646.4</ele><time>2026-04-11T13:24:03.942Z</time></trkpt><trkpt lat="45.63840878377583" lon="13.938858253431393"><ele>647.2</ele><time>2026-04-11T13:24:04.942Z</time></trkpt><trkpt lat="45.63838293070882" lon="13.938747752019394"><ele>648.0</ele><time>2026-04-11T13:24:05.942Z</time></trkpt><trkpt lat="45.63835420652902" lon="13.93861789679773"><ele>648.0</ele><time>2026-04-11T13:24:06.942Z</time></trkpt><trkpt lat="45.638325708108724" lon="13.938480117269963"><ele>648.0</ele><time>2026-04-11T13:24:07.942Z</time></trkpt><trkpt lat="45.63827997763615" lon="13.938320144168454"><ele>648.0</ele><time>2026-04-11T13:24:08.942Z</time></trkpt><trkpt lat="45.63822407465305" lon="13.938164013732608"><ele>648.0</ele><time>2026-04-11T13:24:09.942Z</time></trkpt><trkpt lat="45.63817670777682" lon="13.938012692806478"><ele>649.0</ele><time>2026-04-11T13:24:10.942Z</time></trkpt><trkpt lat="45.638124884095" lon="13.937874834550852"><ele>650.0</ele><time>2026-04-11T13:24:11.942Z</time></trkpt><trkpt lat="45.63807828661216" lon="13.937747032672862"><ele>651.0</ele><time>2026-04-11T13:24:12.941Z</time></trkpt><trkpt lat="45.638024134173996" lon="13.937634702540711"><ele>652.0</ele><time>2026-04-11T13:24:13.941Z</time></trkpt><trkpt lat="45.637965290082526" lon="13.937512912129298"><ele>653.0</ele><time>2026-04-11T13:24:14.942Z</time></trkpt><trkpt lat="45.637897808621474" lon="13.937361742550152"><ele>654.4</ele><time>2026-04-11T13:24:15.942Z</time></trkpt><trkpt lat="45.637837092359504" lon="13.937221830364747"><ele>655.8</ele><time>2026-04-11T13:24:16.942Z</time></trkpt><trkpt lat="45.637787571959706" lon="13.9370697786252"><ele>657.2</ele><time>2026-04-11T13:24:17.942Z</time></trkpt><trkpt lat="45.637758583568385" lon="13.936969270860592"><ele>658.6</ele><time>2026-04-11T13:24:18.942Z</time></trkpt><trkpt lat="45.637715789796154" lon="13.936880689297437"><ele>660.0</ele><time>2026-04-11T13:24:19.942Z</time></trkpt><trkpt lat="45.63766676127853" lon="13.936780108563271"><ele>660.5</ele><time>2026-04-11T13:24:20.942Z</time></trkpt><trkpt lat="45.63763070011897" lon="13.936673910704613"><ele>661.0</ele><time>2026-04-11T13:24:21.942Z</time></trkpt><trkpt lat="45.637579394178175" lon="13.936582493453441"><ele>661.5</ele><time>2026-04-11T13:24:22.942Z</time></trkpt><trkpt lat="45.6375220571755" lon="13.936478363517157"><ele>662.0</ele><time>2026-04-11T13:24:23.942Z</time></trkpt><trkpt lat="45.637470977982716" lon="13.936399848348382"><ele>662.5</ele><time>2026-04-11T13:24:24.942Z</time></trkpt><trkpt lat="45.63740368111157" lon="13.936340539542721"><ele>663.0</ele><time>2026-04-11T13:24:25.942Z</time></trkpt><trkpt lat="45.63734301192004" lon="13.936310241112512"><ele>662.9999999999999</ele><time>2026-04-11T13:24:26.942Z</time></trkpt><trkpt lat="45.63727264274386" lon="13.936329596118568"><ele>663.0</ele><time>2026-04-11T13:24:28.942Z</time></trkpt><trkpt lat="45.63720678689268" lon="13.936366854408343"><ele>663.0</ele><time>2026-04-11T13:25:40.947Z</time></trkpt><trkpt lat="45.637137329461545" lon="13.936468113836643"><ele>663.0</ele><time>2026-04-11T13:25:42.947Z</time></trkpt><trkpt lat="45.6370846216258" lon="13.93652183786315"><ele>663.0</ele><time>2026-04-11T13:25:43.947Z</time></trkpt><trkpt lat="45.63703222477352" lon="13.936582852714931"><ele>662.9999999999999</ele><time>2026-04-11T13:25:44.947Z</time></trkpt><trkpt lat="45.636969134866526" lon="13.936636484608105"><ele>663.0</ele><time>2026-04-11T13:25:45.947Z</time></trkpt><trkpt lat="45.636889238287075" lon="13.936717015483215"><ele>664.8</ele><time>2026-04-11T13:25:46.947Z</time></trkpt><trkpt lat="45.63680881602841" lon="13.936795624094293"><ele>666.5999999999999</ele><time>2026-04-11T13:25:47.947Z</time></trkpt><trkpt lat="45.63673130504139" lon="13.93687240748358"><ele>668.4000000000001</ele><time>2026-04-11T13:25:48.947Z</time></trkpt><trkpt lat="45.63664723731018" lon="13.936948593010973"><ele>670.2</ele><time>2026-04-11T13:25:49.947Z</time></trkpt><trkpt lat="45.636565608109194" lon="13.937034876938537"><ele>672.0</ele><time>2026-04-11T13:25:50.947Z</time></trkpt><trkpt lat="45.636483538542485" lon="13.937112449686058"><ele>672.0</ele><time>2026-04-11T13:25:51.947Z</time></trkpt><trkpt lat="45.63639004372435" lon="13.937179665683047"><ele>672.0</ele><time>2026-04-11T13:25:52.947Z</time></trkpt><trkpt lat="45.636288835504836" lon="13.937251147922874"><ele>672.0</ele><time>2026-04-11T13:25:53.947Z</time></trkpt><trkpt lat="45.636191027427465" lon="13.93732278130236"><ele>672.0</ele><time>2026-04-11T13:25:54.947Z</time></trkpt><trkpt lat="45.63608425049877" lon="13.937411963401715"><ele>671.8</ele><time>2026-04-11T13:25:55.947Z</time></trkpt><trkpt lat="45.63599495372936" lon="13.937489213718463"><ele>671.6</ele><time>2026-04-11T13:25:56.947Z</time></trkpt><trkpt lat="45.63589741479713" lon="13.937576906064555"><ele>671.4</ele><time>2026-04-11T13:25:57.947Z</time></trkpt><trkpt lat="45.63580148987816" lon="13.937646336666848"><ele>671.1999999999999</ele><time>2026-04-11T13:25:58.947Z</time></trkpt><trkpt lat="45.63571458793709" lon="13.937715960898565"><ele>671.0</ele><time>2026-04-11T13:25:59.947Z</time></trkpt><trkpt lat="45.63561989182595" lon="13.937790683600888"><ele>671.0</ele><time>2026-04-11T13:26:00.947Z</time></trkpt><trkpt lat="45.63551591922012" lon="13.937855403636085"><ele>671.0</ele><time>2026-04-11T13:26:01.947Z</time></trkpt><trkpt lat="45.63542393794477" lon="13.937902135109523"><ele>671.0</ele><time>2026-04-11T13:26:02.947Z</time></trkpt><trkpt lat="45.63531310760801" lon="13.937964421601595"><ele>671.0</ele><time>2026-04-11T13:26:03.947Z</time></trkpt><trkpt lat="45.63520755292264" lon="13.938021653825205"><ele>671.0</ele><time>2026-04-11T13:26:04.947Z</time></trkpt><trkpt lat="45.635081121201225" lon="13.938035867229205"><ele>668.8</ele><time>2026-04-11T13:26:05.947Z</time></trkpt><trkpt lat="45.63498034971898" lon="13.938081303457114"><ele>666.5999999999999</ele><time>2026-04-11T13:26:06.947Z</time></trkpt><trkpt lat="45.63489152027241" lon="13.938120993991715"><ele>664.4</ele><time>2026-04-11T13:26:07.947Z</time></trkpt><trkpt lat="45.634790979967" lon="13.938165498746537"><ele>662.2</ele><time>2026-04-11T13:26:08.949Z</time></trkpt><trkpt lat="45.63470325985024" lon="13.938204328572247"><ele>660.0</ele><time>2026-04-11T13:26:09.949Z</time></trkpt><trkpt lat="45.63460858556529" lon="13.938245644138975"><ele>660.0</ele><time>2026-04-11T13:26:10.949Z</time></trkpt><trkpt lat="45.63451587788219" lon="13.938308691755504"><ele>660.0</ele><time>2026-04-11T13:26:11.949Z</time></trkpt><trkpt lat="45.63443170163978" lon="13.93834133401065"><ele>660.0</ele><time>2026-04-11T13:26:12.948Z</time></trkpt><trkpt lat="45.63434249134553" lon="13.93837820937155"><ele>660.0</ele><time>2026-04-11T13:26:13.948Z</time></trkpt><trkpt lat="45.63425406265317" lon="13.938421316359356"><ele>660.0</ele><time>2026-04-11T13:26:14.949Z</time></trkpt><trkpt lat="45.63416153600375" lon="13.938432176902724"><ele>660.0</ele><time>2026-04-11T13:26:15.948Z</time></trkpt><trkpt lat="45.63406983484279" lon="13.938451106667065"><ele>660.0</ele><time>2026-04-11T13:26:16.948Z</time></trkpt><trkpt lat="45.63396199806308" lon="13.938457339510105"><ele>660.0</ele><time>2026-04-11T13:26:17.948Z</time></trkpt><trkpt lat="45.63387444394868" lon="13.938449170687704"><ele>660.0</ele><time>2026-04-11T13:26:18.949Z</time></trkpt><trkpt lat="45.63377703843884" lon="13.938438941576162"><ele>660.0</ele><time>2026-04-11T13:26:19.949Z</time></trkpt><trkpt lat="45.63367981986891" lon="13.938453839896951"><ele>658.4</ele><time>2026-04-11T13:26:20.948Z</time></trkpt><trkpt lat="45.63358187660252" lon="13.938455635571954"><ele>656.8</ele><time>2026-04-11T13:26:21.948Z</time></trkpt><trkpt lat="45.63347845074494" lon="13.938445059021683"><ele>655.2</ele><time>2026-04-11T13:26:22.948Z</time></trkpt><trkpt lat="45.633374910350994" lon="13.938466398798655"><ele>653.6</ele><time>2026-04-11T13:26:23.948Z</time></trkpt><trkpt lat="45.63328083256525" lon="13.938502579335838"><ele>652.0</ele><time>2026-04-11T13:26:24.948Z</time></trkpt><trkpt lat="45.63316946221469" lon="13.938563965839567"><ele>652.0</ele><time>2026-04-11T13:26:25.948Z</time></trkpt><trkpt lat="45.63306440210167" lon="13.938664647024204"><ele>652.0</ele><time>2026-04-11T13:26:26.948Z</time></trkpt><trkpt lat="45.63296449584348" lon="13.938742750325266"><ele>652.0</ele><time>2026-04-11T13:26:27.948Z</time></trkpt><trkpt lat="45.63286898395496" lon="13.938819175704646"><ele>652.0</ele><time>2026-04-11T13:26:28.948Z</time></trkpt><trkpt lat="45.63277691889823" lon="13.938888607918756"><ele>649.0</ele><time>2026-04-11T13:26:29.948Z</time></trkpt><trkpt lat="45.63268345506073" lon="13.938950185951583"><ele>646.0</ele><time>2026-04-11T13:26:30.948Z</time></trkpt><trkpt lat="45.63259152039197" lon="13.93901137550766"><ele>643.0</ele><time>2026-04-11T13:26:31.948Z</time></trkpt><trkpt lat="45.63248215763404" lon="13.9390901133501"><ele>640.0</ele><time>2026-04-11T13:26:32.948Z</time></trkpt><trkpt lat="45.6323695292534" lon="13.93915954221092"><ele>637.0</ele><time>2026-04-11T13:26:33.948Z</time></trkpt><trkpt lat="45.632243659573405" lon="13.939212997136359"><ele>637.0</ele><time>2026-04-11T13:26:34.948Z</time></trkpt><trkpt lat="45.632134491322674" lon="13.939313322320656"><ele>637.0</ele><time>2026-04-11T13:26:35.948Z</time></trkpt><trkpt lat="45.63201582871182" lon="13.939393153747144"><ele>637.0</ele><time>2026-04-11T13:26:36.948Z</time></trkpt><trkpt lat="45.63190879841423" lon="13.939465818015423"><ele>637.0</ele><time>2026-04-11T13:26:37.948Z</time></trkpt><trkpt lat="45.63181665947577" lon="13.939536421167594"><ele>637.0</ele><time>2026-04-11T13:26:38.948Z</time></trkpt><trkpt lat="45.63171433424012" lon="13.939622789655305"><ele>637.0</ele><time>2026-04-11T13:26:39.948Z</time></trkpt><trkpt lat="45.63161825331079" lon="13.939703305174728"><ele>637.0</ele><time>2026-04-11T13:26:40.948Z</time></trkpt><trkpt lat="45.631508948302454" lon="13.939764953009373"><ele>637.0</ele><time>2026-04-11T13:26:41.948Z</time></trkpt><trkpt lat="45.63141402398687" lon="13.939884815899461"><ele>637.0</ele><time>2026-04-11T13:26:42.948Z</time></trkpt><trkpt lat="45.631311828925554" lon="13.93997503369666"><ele>637.0</ele><time>2026-04-11T13:26:43.948Z</time></trkpt><trkpt lat="45.63120722105359" lon="13.94006296950729"><ele>637.0</ele><time>2026-04-11T13:26:44.948Z</time></trkpt><trkpt lat="45.631126986433145" lon="13.940138103566321"><ele>637.0</ele><time>2026-04-11T13:26:45.948Z</time></trkpt><trkpt lat="45.63102488529467" lon="13.940197979236046"><ele>637.0</ele><time>2026-04-11T13:26:46.948Z</time></trkpt><trkpt lat="45.630912637735925" lon="13.940285386169634"><ele>636.0</ele><time>2026-04-11T13:26:47.948Z</time></trkpt><trkpt lat="45.630809218557076" lon="13.940359871974737"><ele>635.0</ele><time>2026-04-11T13:26:48.948Z</time></trkpt><trkpt lat="45.63071440603848" lon="13.94042404015807"><ele>634.0</ele><time>2026-04-11T13:26:49.948Z</time></trkpt><trkpt lat="45.630624212625236" lon="13.940480881373452"><ele>633.0</ele><time>2026-04-11T13:26:50.948Z</time></trkpt><trkpt lat="45.630532411878484" lon="13.940532764587394"><ele>632.0</ele><time>2026-04-11T13:26:51.948Z</time></trkpt><trkpt lat="45.630415213089336" lon="13.94060654792875"><ele>629.0</ele><time>2026-04-11T13:26:52.948Z</time></trkpt><trkpt lat="45.630279613703735" lon="13.940679392242991"><ele>626.0</ele><time>2026-04-11T13:26:53.948Z</time></trkpt><trkpt lat="45.630125957909556" lon="13.940727190694206"><ele>623.0</ele><time>2026-04-11T13:26:54.948Z</time></trkpt><trkpt lat="45.62997985562475" lon="13.940803659316373"><ele>625.75</ele><time>2026-04-11T13:26:55.948Z</time></trkpt><trkpt lat="45.62986148267637" lon="13.940893834511348"><ele>628.5</ele><time>2026-04-11T13:26:56.948Z</time></trkpt><trkpt lat="45.6297390715074" lon="13.940954317476708"><ele>631.25</ele><time>2026-04-11T13:26:57.948Z</time></trkpt><trkpt lat="45.62962533946405" lon="13.941029623121569"><ele>634.0</ele><time>2026-04-11T13:26:58.948Z</time></trkpt><trkpt lat="45.62950719935796" lon="13.941090676821261"><ele>631.75</ele><time>2026-04-11T13:26:59.948Z</time></trkpt><trkpt lat="45.62939467083997" lon="13.941175509855444"><ele>629.5</ele><time>2026-04-11T13:27:00.948Z</time></trkpt><trkpt lat="45.62928955880576" lon="13.941233546390729"><ele>627.25</ele><time>2026-04-11T13:27:01.948Z</time></trkpt><trkpt lat="45.62916804356055" lon="13.941304287553026"><ele>625.0</ele><time>2026-04-11T13:27:02.948Z</time></trkpt><trkpt lat="45.62905885493667" lon="13.941391148528062"><ele>625.0</ele><time>2026-04-11T13:27:03.948Z</time></trkpt><trkpt lat="45.62894851671418" lon="13.94147889927693"><ele>625.0</ele><time>2026-04-11T13:27:04.948Z</time></trkpt><trkpt lat="45.628837927284614" lon="13.941593004449494"><ele>625.0</ele><time>2026-04-11T13:27:05.948Z</time></trkpt><trkpt lat="45.62872576501969" lon="13.941719721406463"><ele>625.0</ele><time>2026-04-11T13:27:06.948Z</time></trkpt><trkpt lat="45.62861665823391" lon="13.941850658385938"><ele>624.4</ele><time>2026-04-11T13:27:07.948Z</time></trkpt><trkpt lat="45.628534389057" lon="13.941951622949931"><ele>623.8</ele><time>2026-04-11T13:27:08.948Z</time></trkpt><trkpt lat="45.6284405005345" lon="13.942009174282601"><ele>623.2</ele><time>2026-04-11T13:27:09.948Z</time></trkpt><trkpt lat="45.628343935275836" lon="13.942081997485532"><ele>622.6</ele><time>2026-04-11T13:27:10.948Z</time></trkpt><trkpt lat="45.62826585163313" lon="13.94213261237788"><ele>622.0</ele><time>2026-04-11T13:27:11.948Z</time></trkpt><trkpt lat="45.628178853473976" lon="13.942181532312357"><ele>622.0</ele><time>2026-04-11T13:27:12.948Z</time></trkpt><trkpt lat="45.62810143812587" lon="13.942252577162101"><ele>622.0</ele><time>2026-04-11T13:27:13.948Z</time></trkpt><trkpt lat="45.62800807723324" lon="13.942306573403716"><ele>622.0</ele><time>2026-04-11T13:27:14.948Z</time></trkpt><trkpt lat="45.62794583286022" lon="13.942341524336728"><ele>622.0</ele><time>2026-04-11T13:27:15.948Z</time></trkpt><trkpt lat="45.62787681831739" lon="13.942340093732161"><ele>622.0</ele><time>2026-04-11T13:27:16.948Z</time></trkpt><trkpt lat="45.62780476824138" lon="13.942368044378364"><ele>622.0</ele><time>2026-04-11T13:27:17.948Z</time></trkpt><trkpt lat="45.62772429279558" lon="13.942339313568011"><ele>622.6</ele><time>2026-04-11T13:27:18.948Z</time></trkpt><trkpt lat="45.6276375901468" lon="13.942291295114616"><ele>623.2</ele><time>2026-04-11T13:27:19.948Z</time></trkpt><trkpt lat="45.62755496817545" lon="13.942199722386714"><ele>623.8</ele><time>2026-04-11T13:27:20.948Z</time></trkpt><trkpt lat="45.62746938020323" lon="13.942129177812"><ele>624.4</ele><time>2026-04-11T13:27:21.948Z</time></trkpt><trkpt lat="45.62741142445174" lon="13.942052324502043"><ele>625.0</ele><time>2026-04-11T13:27:22.948Z</time></trkpt><trkpt lat="45.627352147970015" lon="13.941974458872489"><ele>625.0</ele><time>2026-04-11T13:27:23.948Z</time></trkpt><trkpt lat="45.627308347669754" lon="13.94188886050643"><ele>625.0</ele><time>2026-04-11T13:27:24.948Z</time></trkpt><trkpt lat="45.62726396114714" lon="13.941762735150975"><ele>625.0</ele><time>2026-04-11T13:27:25.948Z</time></trkpt><trkpt lat="45.62720688944483" lon="13.941603649381435"><ele>625.0</ele><time>2026-04-11T13:27:26.948Z</time></trkpt><trkpt lat="45.62717813822721" lon="13.941420713516994"><ele>625.0</ele><time>2026-04-11T13:27:27.948Z</time></trkpt><trkpt lat="45.62715478019101" lon="13.941257390755732"><ele>624.4</ele><time>2026-04-11T13:27:28.948Z</time></trkpt><trkpt lat="45.62714154466449" lon="13.941115407992202"><ele>623.8</ele><time>2026-04-11T13:27:29.948Z</time></trkpt><trkpt lat="45.62710644309365" lon="13.940976316088392"><ele>623.2</ele><time>2026-04-11T13:27:30.948Z</time></trkpt><trkpt lat="45.62705028409177" lon="13.940844308960187"><ele>622.6</ele><time>2026-04-11T13:27:31.948Z</time></trkpt><trkpt lat="45.62702403786625" lon="13.940678700594088"><ele>622.0</ele><time>2026-04-11T13:27:32.948Z</time></trkpt><trkpt lat="45.62699700484348" lon="13.94053265040396"><ele>625.5</ele><time>2026-04-11T13:27:33.948Z</time></trkpt><trkpt lat="45.626956886857556" lon="13.940364622358262"><ele>629.0</ele><time>2026-04-11T13:27:34.948Z</time></trkpt><trkpt lat="45.62689237481374" lon="13.940185270871583"><ele>632.5</ele><time>2026-04-11T13:27:35.948Z</time></trkpt><trkpt lat="45.6268576253348" lon="13.939995538510757"><ele>636.0</ele><time>2026-04-11T13:27:36.948Z</time></trkpt><trkpt lat="45.62680670233915" lon="13.939817087529518"><ele>636.0</ele><time>2026-04-11T13:27:37.948Z</time></trkpt><trkpt lat="45.62674526705044" lon="13.939627575018921"><ele>636.0</ele><time>2026-04-11T13:27:38.948Z</time></trkpt><trkpt lat="45.62667992213519" lon="13.93946607807855"><ele>636.0</ele><time>2026-04-11T13:27:39.948Z</time></trkpt><trkpt lat="45.62664163818713" lon="13.939298601929558"><ele>636.0</ele><time>2026-04-11T13:27:40.948Z</time></trkpt><trkpt lat="45.62658736276286" lon="13.939141477443599"><ele>635.0</ele><time>2026-04-11T13:27:41.948Z</time></trkpt><trkpt lat="45.62652264559451" lon="13.938998148433203"><ele>634.0</ele><time>2026-04-11T13:27:42.948Z</time></trkpt><trkpt lat="45.626465794006485" lon="13.938823076238291"><ele>633.0</ele><time>2026-04-11T13:27:43.948Z</time></trkpt><trkpt lat="45.62641178164438" lon="13.938688751322479"><ele>632.0</ele><time>2026-04-11T13:27:44.948Z</time></trkpt><trkpt lat="45.62634783019523" lon="13.938545716814678"><ele>632.0</ele><time>2026-04-11T13:27:45.948Z</time></trkpt><trkpt lat="45.6262870179866" lon="13.93842165817875"><ele>632.0</ele><time>2026-04-11T13:27:46.948Z</time></trkpt><trkpt lat="45.626227997374244" lon="13.938310645007432"><ele>632.0</ele><time>2026-04-11T13:27:47.948Z</time></trkpt><trkpt lat="45.62615367323054" lon="13.93823220683668"><ele>632.0</ele><time>2026-04-11T13:27:48.948Z</time></trkpt><trkpt lat="45.62607641550282" lon="13.938168615123274"><ele>632.0</ele><time>2026-04-11T13:27:49.948Z</time></trkpt><trkpt lat="45.62599113212753" lon="13.938120026014596"><ele>631.5</ele><time>2026-04-11T13:27:50.948Z</time></trkpt><trkpt lat="45.62589505471888" lon="13.93810120376241"><ele>631.0</ele><time>2026-04-11T13:27:51.948Z</time></trkpt><trkpt lat="45.62576758162792" lon="13.938108366936751"><ele>630.5</ele><time>2026-04-11T13:27:52.948Z</time></trkpt><trkpt lat="45.62561823128349" lon="13.938119252542283"><ele>630.0</ele><time>2026-04-11T13:27:53.948Z</time></trkpt><trkpt lat="45.625505238503905" lon="13.93815101853341"><ele>630.0</ele><time>2026-04-11T13:27:54.948Z</time></trkpt><trkpt lat="45.625404042954656" lon="13.938149565153312"><ele>630.0</ele><time>2026-04-11T13:27:55.948Z</time></trkpt><trkpt lat="45.625317547923096" lon="13.93816387776615"><ele>630.0</ele><time>2026-04-11T13:27:56.948Z</time></trkpt><trkpt lat="45.62521017011436" lon="13.938200161074814"><ele>630.0</ele><time>2026-04-11T13:27:57.948Z</time></trkpt><trkpt lat="45.62509910990213" lon="13.938171907547455"><ele>630.0</ele><time>2026-04-11T13:27:58.948Z</time></trkpt><trkpt lat="45.624975012517915" lon="13.93813218479753"><ele>629.6666666666666</ele><time>2026-04-11T13:27:59.948Z</time></trkpt><trkpt lat="45.62485254799465" lon="13.938004966475422"><ele>629.3333333333333</ele><time>2026-04-11T13:28:00.947Z</time></trkpt><trkpt lat="45.62470445547867" lon="13.937879880211046"><ele>629.0</ele><time>2026-04-11T13:28:01.947Z</time></trkpt><trkpt lat="45.62458110495222" lon="13.937767875456544"><ele>630.25</ele><time>2026-04-11T13:28:02.947Z</time></trkpt><trkpt lat="45.624464151148175" lon="13.937649031675328"><ele>631.5</ele><time>2026-04-11T13:28:03.947Z</time></trkpt><trkpt lat="45.62436319660703" lon="13.937518040449202"><ele>632.75</ele><time>2026-04-11T13:28:04.947Z</time></trkpt><trkpt lat="45.62425794823865" lon="13.937355420284181"><ele>634.0</ele><time>2026-04-11T13:28:05.947Z</time></trkpt><trkpt lat="45.624166801330944" lon="13.93719814661257"><ele>634.0</ele><time>2026-04-11T13:28:06.947Z</time></trkpt><trkpt lat="45.62406973077373" lon="13.937074586843451"><ele>634.0</ele><time>2026-04-11T13:28:07.947Z</time></trkpt><trkpt lat="45.62396081143508" lon="13.936945622337308"><ele>634.0</ele><time>2026-04-11T13:28:08.947Z</time></trkpt><trkpt lat="45.623898693678434" lon="13.93680841676913"><ele>634.0</ele><time>2026-04-11T13:28:09.947Z</time></trkpt><trkpt lat="45.62382557902423" lon="13.936685451160992"><ele>634.5</ele><time>2026-04-11T13:28:10.947Z</time></trkpt><trkpt lat="45.62373801478206" lon="13.936571820065764"><ele>635.0</ele><time>2026-04-11T13:28:11.947Z</time></trkpt><trkpt lat="45.62362991134655" lon="13.936453479641413"><ele>635.5</ele><time>2026-04-11T13:28:12.947Z</time></trkpt><trkpt lat="45.623487515676715" lon="13.936328611550161"><ele>636.0</ele><time>2026-04-11T13:28:13.947Z</time></trkpt><trkpt lat="45.623366293182755" lon="13.936235938515416"><ele>636.0</ele><time>2026-04-11T13:28:14.95Z</time></trkpt><trkpt lat="45.62323616195454" lon="13.936143777879664"><ele>636.0</ele><time>2026-04-11T13:28:15.95Z</time></trkpt><trkpt lat="45.62311316374543" lon="13.936054954194953"><ele>636.0</ele><time>2026-04-11T13:28:16.95Z</time></trkpt><trkpt lat="45.62300357442745" lon="13.935952747578144"><ele>636.0</ele><time>2026-04-11T13:28:17.949Z</time></trkpt><trkpt lat="45.622892561017046" lon="13.935871757841532"><ele>636.0</ele><time>2026-04-11T13:28:18.95Z</time></trkpt><trkpt lat="45.62278139886085" lon="13.935792001300321"><ele>636.0</ele><time>2026-04-11T13:28:19.95Z</time></trkpt><trkpt lat="45.62268503075697" lon="13.935722714297853"><ele>636.0</ele><time>2026-04-11T13:28:20.949Z</time></trkpt><trkpt lat="45.62256956567595" lon="13.93563869461317"><ele>636.0</ele><time>2026-04-11T13:28:21.949Z</time></trkpt><trkpt lat="45.622464187662175" lon="13.935558811124503"><ele>636.0</ele><time>2026-04-11T13:28:22.949Z</time></trkpt><trkpt lat="45.6223745761712" lon="13.935485986086011"><ele>636.0</ele><time>2026-04-11T13:28:23.949Z</time></trkpt><trkpt lat="45.62227670695265" lon="13.93540677463052"><ele>636.0</ele><time>2026-04-11T13:28:24.949Z</time></trkpt><trkpt lat="45.6221771738016" lon="13.935345858383883"><ele>636.0</ele><time>2026-04-11T13:28:25.949Z</time></trkpt><trkpt lat="45.62210794709994" lon="13.935236724533079"><ele>636.0</ele><time>2026-04-11T13:28:26.949Z</time></trkpt><trkpt lat="45.62203966474761" lon="13.935142605006089"><ele>636.0</ele><time>2026-04-11T13:28:27.949Z</time></trkpt><trkpt lat="45.6219890818485" lon="13.935000292489704"><ele>636.0</ele><time>2026-04-11T13:28:28.949Z</time></trkpt><trkpt lat="45.621959647045834" lon="13.934775013656594"><ele>636.0</ele><time>2026-04-11T13:28:29.949Z</time></trkpt><trkpt lat="45.62192569107278" lon="13.934531825475881"><ele>636.0</ele><time>2026-04-11T13:28:30.949Z</time></trkpt><trkpt lat="45.621875325567466" lon="13.93431257699666"><ele>635.5</ele><time>2026-04-11T13:28:31.949Z</time></trkpt><trkpt lat="45.62183191016045" lon="13.934134868497997"><ele>635.0</ele><time>2026-04-11T13:28:32.949Z</time></trkpt><trkpt lat="45.62179148876943" lon="13.933942466835566"><ele>634.5</ele><time>2026-04-11T13:28:33.949Z</time></trkpt><trkpt lat="45.621753645342025" lon="13.933794253453877"><ele>634.0</ele><time>2026-04-11T13:28:34.949Z</time></trkpt><trkpt lat="45.621717155120535" lon="13.93366722359782"><ele>634.0</ele><time>2026-04-11T13:28:35.949Z</time></trkpt><trkpt lat="45.621662678740314" lon="13.933524118685623"><ele>634.0</ele><time>2026-04-11T13:28:36.949Z</time></trkpt><trkpt lat="45.621611988792175" lon="13.933365800454037"><ele>634.0</ele><time>2026-04-11T13:28:37.949Z</time></trkpt><trkpt lat="45.62150260061133" lon="13.93318994995981"><ele>634.0</ele><time>2026-04-11T13:28:38.949Z</time></trkpt><trkpt lat="45.621402657794754" lon="13.933021314840182"><ele>633.5</ele><time>2026-04-11T13:28:39.949Z</time></trkpt><trkpt lat="45.62131194918409" lon="13.932828429821145"><ele>633.0</ele><time>2026-04-11T13:28:40.949Z</time></trkpt><trkpt lat="45.62124913146905" lon="13.93267906239734"><ele>632.5</ele><time>2026-04-11T13:28:41.949Z</time></trkpt><trkpt lat="45.621177954927106" lon="13.93254964200947"><ele>632.0</ele><time>2026-04-11T13:28:42.949Z</time></trkpt><trkpt lat="45.62113101235176" lon="13.932396858799745"><ele>633.0</ele><time>2026-04-11T13:28:43.949Z</time></trkpt><trkpt lat="45.62109562486584" lon="13.932260133003853"><ele>634.0</ele><time>2026-04-11T13:28:44.949Z</time></trkpt><trkpt lat="45.62107182417571" lon="13.932107254692365"><ele>635.0</ele><time>2026-04-11T13:28:45.949Z</time></trkpt><trkpt lat="45.62104893178229" lon="13.931966663682633"><ele>636.0</ele><time>2026-04-11T13:28:46.949Z</time></trkpt><trkpt lat="45.62106279166253" lon="13.93182054573751"><ele>637.0</ele><time>2026-04-11T13:28:47.949Z</time></trkpt><trkpt lat="45.62108069038457" lon="13.931669659837997"><ele>637.0</ele><time>2026-04-11T13:28:48.949Z</time></trkpt><trkpt lat="45.62110681018754" lon="13.931536826572836"><ele>637.0</ele><time>2026-04-11T13:28:49.949Z</time></trkpt><trkpt lat="45.621128593529725" lon="13.931398297680648"><ele>637.0</ele><time>2026-04-11T13:28:50.949Z</time></trkpt><trkpt lat="45.62113151897744" lon="13.931262076279257"><ele>637.0</ele><time>2026-04-11T13:28:51.949Z</time></trkpt><trkpt lat="45.62111779079425" lon="13.931119137873726"><ele>637.0</ele><time>2026-04-11T13:28:52.949Z</time></trkpt><trkpt lat="45.62108404570403" lon="13.930980766937346"><ele>634.6666666666667</ele><time>2026-04-11T13:28:53.949Z</time></trkpt><trkpt lat="45.621040956755984" lon="13.9308738260539"><ele>632.3333333333334</ele><time>2026-04-11T13:28:54.949Z</time></trkpt><trkpt lat="45.62100582532693" lon="13.930795329593014"><ele>630.0</ele><time>2026-04-11T13:28:55.949Z</time></trkpt><trkpt lat="45.62095325215045" lon="13.930741444105756"><ele>627.6666666666666</ele><time>2026-04-11T13:28:56.949Z</time></trkpt><trkpt lat="45.62087346877898" lon="13.930705303381211"><ele>625.3333333333333</ele><time>2026-04-11T13:28:57.949Z</time></trkpt><trkpt lat="45.6207719969754" lon="13.930697176541605"><ele>623.0</ele><time>2026-04-11T13:28:58.949Z</time></trkpt><trkpt lat="45.62070636073988" lon="13.93069017946847"><ele>623.0</ele><time>2026-04-11T13:28:59.949Z</time></trkpt><trkpt lat="45.62064330387407" lon="13.930759958096914"><ele>623.0</ele><time>2026-04-11T13:29:00.949Z</time></trkpt><trkpt lat="45.62053183754167" lon="13.930704540129925"><ele>623.0</ele><time>2026-04-11T13:29:02.949Z</time></trkpt><trkpt lat="45.620469378570256" lon="13.930560512859111"><ele>623.0</ele><time>2026-04-11T13:29:04.949Z</time></trkpt><trkpt lat="45.62050896027165" lon="13.930428769646264"><ele>623.0</ele><time>2026-04-11T13:29:06.949Z</time></trkpt><trkpt lat="45.620551553249655" lon="13.930341041400858"><ele>623.0</ele><time>2026-04-11T13:29:07.949Z</time></trkpt><trkpt lat="45.62060843642508" lon="13.930217264371173"><ele>623.0</ele><time>2026-04-11T13:29:08.949Z</time></trkpt><trkpt lat="45.620672444938585" lon="13.930108202015075"><ele>623.0</ele><time>2026-04-11T13:29:09.949Z</time></trkpt><trkpt lat="45.62073831965926" lon="13.930003210258176"><ele>623.0</ele><time>2026-04-11T13:29:10.949Z</time></trkpt><trkpt lat="45.62076968464733" lon="13.929844646010942"><ele>623.0</ele><time>2026-04-11T13:29:11.949Z</time></trkpt><trkpt lat="45.62080231028084" lon="13.92970180237674"><ele>622.4</ele><time>2026-04-11T13:29:12.949Z</time></trkpt><trkpt lat="45.620845079592854" lon="13.92957977354425"><ele>621.8</ele><time>2026-04-11T13:29:13.948Z</time></trkpt><trkpt lat="45.62090901094205" lon="13.929461897846483"><ele>621.2</ele><time>2026-04-11T13:29:14.948Z</time></trkpt><trkpt lat="45.62096713597025" lon="13.9293392667858"><ele>620.6</ele><time>2026-04-11T13:29:15.948Z</time></trkpt><trkpt lat="45.62102053591981" lon="13.929188807129577"><ele>620.0</ele><time>2026-04-11T13:29:16.948Z</time></trkpt><trkpt lat="45.62106928233883" lon="13.929061798834773"><ele>621.75</ele><time>2026-04-11T13:29:17.948Z</time></trkpt><trkpt lat="45.62113776532484" lon="13.928935791419974"><ele>623.5</ele><time>2026-04-11T13:29:18.948Z</time></trkpt><trkpt lat="45.62120603791952" lon="13.928778678108007"><ele>625.25</ele><time>2026-04-11T13:29:19.948Z</time></trkpt><trkpt lat="45.62124553848496" lon="13.928580147972772"><ele>627.0</ele><time>2026-04-11T13:29:20.948Z</time></trkpt><trkpt lat="45.62128788082654" lon="13.928398235333377"><ele>623.2</ele><time>2026-04-11T13:29:21.948Z</time></trkpt><trkpt lat="45.62131300446093" lon="13.928270507694782"><ele>619.4000000000001</ele><time>2026-04-11T13:29:22.948Z</time></trkpt><trkpt lat="45.62135545779786" lon="13.928144268862123"><ele>615.5999999999999</ele><time>2026-04-11T13:29:23.948Z</time></trkpt><trkpt lat="45.62138425493896" lon="13.928014381531135"><ele>611.8</ele><time>2026-04-11T13:29:24.948Z</time></trkpt><trkpt lat="45.62141007001668" lon="13.927858103179469"><ele>608.0</ele><time>2026-04-11T13:29:25.948Z</time></trkpt><trkpt lat="45.62142633981927" lon="13.927659349756745"><ele>607.6</ele><time>2026-04-11T13:29:26.948Z</time></trkpt><trkpt lat="45.62141849392967" lon="13.92748914384567"><ele>607.1999999999999</ele><time>2026-04-11T13:29:27.948Z</time></trkpt><trkpt lat="45.62139690992851" lon="13.927333910842298"><ele>606.8</ele><time>2026-04-11T13:29:28.948Z</time></trkpt><trkpt lat="45.62137818084066" lon="13.927201846291176"><ele>606.4</ele><time>2026-04-11T13:29:29.948Z</time></trkpt><trkpt lat="45.621345896172784" lon="13.927041521024769"><ele>606.0</ele><time>2026-04-11T13:29:30.948Z</time></trkpt><trkpt lat="45.621314835234664" lon="13.926908387043612"><ele>606.0</ele><time>2026-04-11T13:29:31.948Z</time></trkpt><trkpt lat="45.6212848557258" lon="13.92679232464049"><ele>606.0</ele><time>2026-04-11T13:29:32.948Z</time></trkpt><trkpt lat="45.62126025373403" lon="13.926705001069893"><ele>606.0</ele><time>2026-04-11T13:29:33.948Z</time></trkpt><trkpt lat="45.6212143946915" lon="13.926605822890169"><ele>606.0</ele><time>2026-04-11T13:29:34.948Z</time></trkpt><trkpt lat="45.62116316067547" lon="13.92643868678506"><ele>606.0</ele><time>2026-04-11T13:29:35.948Z</time></trkpt><trkpt lat="45.6211144797957" lon="13.926284046201491"><ele>605.8</ele><time>2026-04-11T13:29:36.948Z</time></trkpt><trkpt lat="45.62105980432877" lon="13.92616306444093"><ele>605.6</ele><time>2026-04-11T13:29:37.948Z</time></trkpt><trkpt lat="45.62100317931871" lon="13.926055635382728"><ele>605.4</ele><time>2026-04-11T13:29:38.948Z</time></trkpt><trkpt lat="45.6209337811707" lon="13.925917694798327"><ele>605.2</ele><time>2026-04-11T13:29:39.948Z</time></trkpt><trkpt lat="45.62086919041602" lon="13.925758752838423"><ele>605.0</ele><time>2026-04-11T13:29:40.948Z</time></trkpt><trkpt lat="45.62079511497742" lon="13.925602102304584"><ele>605.0</ele><time>2026-04-11T13:29:41.948Z</time></trkpt><trkpt lat="45.62072739638205" lon="13.925469894161473"><ele>605.0</ele><time>2026-04-11T13:29:42.948Z</time></trkpt><trkpt lat="45.62064870376008" lon="13.925302697629448"><ele>605.0</ele><time>2026-04-11T13:29:43.948Z</time></trkpt><trkpt lat="45.620586636070506" lon="13.925148791507723"><ele>605.0</ele><time>2026-04-11T13:29:44.948Z</time></trkpt><trkpt lat="45.62052373280827" lon="13.924988766247766"><ele>607.0</ele><time>2026-04-11T13:29:45.948Z</time></trkpt><trkpt lat="45.62045729234921" lon="13.924821062658596"><ele>609.0</ele><time>2026-04-11T13:29:46.948Z</time></trkpt><trkpt lat="45.62036945804983" lon="13.924641302415907"><ele>611.0</ele><time>2026-04-11T13:29:47.948Z</time></trkpt><trkpt lat="45.62029377519533" lon="13.924489756130125"><ele>613.0</ele><time>2026-04-11T13:29:48.948Z</time></trkpt><trkpt lat="45.62019604688985" lon="13.9243349652175"><ele>608.75</ele><time>2026-04-11T13:29:49.948Z</time></trkpt><trkpt lat="45.62012488995739" lon="13.924175013282378"><ele>604.5</ele><time>2026-04-11T13:29:50.948Z</time></trkpt><trkpt lat="45.62005378146268" lon="13.924036282420435"><ele>600.25</ele><time>2026-04-11T13:29:51.948Z</time></trkpt><trkpt lat="45.61997887069495" lon="13.923893717832101"><ele>596.0</ele><time>2026-04-11T13:29:52.948Z</time></trkpt><trkpt lat="45.61991724198047" lon="13.923760888162779"><ele>596.0</ele><time>2026-04-11T13:29:53.948Z</time></trkpt><trkpt lat="45.61986043499249" lon="13.923608891536485"><ele>596.0</ele><time>2026-04-11T13:29:54.948Z</time></trkpt><trkpt lat="45.619799464930146" lon="13.923469746634042"><ele>596.0</ele><time>2026-04-11T13:29:55.948Z</time></trkpt><trkpt lat="45.619744795038436" lon="13.923335734439556"><ele>596.0</ele><time>2026-04-11T13:29:56.948Z</time></trkpt><trkpt lat="45.619682425443095" lon="13.923208611949184"><ele>595.6</ele><time>2026-04-11T13:29:57.948Z</time></trkpt><trkpt lat="45.61962817377146" lon="13.923080107642702"><ele>595.2</ele><time>2026-04-11T13:29:58.948Z</time></trkpt><trkpt lat="45.61958187231055" lon="13.922966655357794"><ele>594.8</ele><time>2026-04-11T13:29:59.948Z</time></trkpt><trkpt lat="45.619524718445035" lon="13.922859719054317"><ele>594.4</ele><time>2026-04-11T13:30:00.948Z</time></trkpt><trkpt lat="45.61948444436709" lon="13.922745292419421"><ele>594.0</ele><time>2026-04-11T13:30:01.948Z</time></trkpt><trkpt lat="45.61941375925307" lon="13.922633542588104"><ele>591.8</ele><time>2026-04-11T13:30:02.948Z</time></trkpt><trkpt lat="45.61932892351959" lon="13.922525653872691"><ele>589.5999999999999</ele><time>2026-04-11T13:30:03.948Z</time></trkpt><trkpt lat="45.61924271965483" lon="13.922436142995453"><ele>587.4</ele><time>2026-04-11T13:30:04.948Z</time></trkpt><trkpt lat="45.619150157300645" lon="13.922384972361234"><ele>585.1999999999999</ele><time>2026-04-11T13:30:05.948Z</time></trkpt><trkpt lat="45.61906389583849" lon="13.922295444159163"><ele>583.0</ele><time>2026-04-11T13:30:06.948Z</time></trkpt><trkpt lat="45.61897048512006" lon="13.922233742161065"><ele>583.0</ele><time>2026-04-11T13:30:07.948Z</time></trkpt><trkpt lat="45.6188478015669" lon="13.922165704139461"><ele>583.0</ele><time>2026-04-11T13:30:08.948Z</time></trkpt><trkpt lat="45.61874217226188" lon="13.922073471802765"><ele>583.0</ele><time>2026-04-11T13:30:09.948Z</time></trkpt><trkpt lat="45.61864474929867" lon="13.922015758377352"><ele>583.0</ele><time>2026-04-11T13:30:10.948Z</time></trkpt><trkpt lat="45.61852005949528" lon="13.921944681050773"><ele>583.6</ele><time>2026-04-11T13:30:11.948Z</time></trkpt><trkpt lat="45.618406627910964" lon="13.92190740214437"><ele>584.1999999999999</ele><time>2026-04-11T13:30:12.948Z</time></trkpt><trkpt lat="45.61832024281132" lon="13.921858658112479"><ele>584.8</ele><time>2026-04-11T13:30:13.948Z</time></trkpt><trkpt lat="45.61823419149491" lon="13.92180126878636"><ele>585.4</ele><time>2026-04-11T13:30:14.948Z</time></trkpt><trkpt lat="45.61811694459616" lon="13.92173782757773"><ele>586.0</ele><time>2026-04-11T13:30:15.948Z</time></trkpt><trkpt lat="45.61799126145429" lon="13.92169200799026"><ele>582.8</ele><time>2026-04-11T13:30:16.948Z</time></trkpt><trkpt lat="45.61788700795804" lon="13.921651454783554"><ele>579.6</ele><time>2026-04-11T13:30:17.948Z</time></trkpt><trkpt lat="45.61778227801735" lon="13.921599564081585"><ele>576.4</ele><time>2026-04-11T13:30:18.948Z</time></trkpt><trkpt lat="45.61768344358804" lon="13.921568579281399"><ele>573.2</ele><time>2026-04-11T13:30:19.948Z</time></trkpt><trkpt lat="45.61758247749192" lon="13.921503053726292"><ele>570.0</ele><time>2026-04-11T13:30:20.95Z</time></trkpt><trkpt lat="45.617465292869326" lon="13.921461275905196"><ele>570.0</ele><time>2026-04-11T13:30:21.95Z</time></trkpt><trkpt lat="45.61735982663023" lon="13.921433596575802"><ele>570.0</ele><time>2026-04-11T13:30:22.95Z</time></trkpt><trkpt lat="45.61727595527254" lon="13.921424173710093"><ele>570.0</ele><time>2026-04-11T13:30:23.95Z</time></trkpt><trkpt lat="45.61720411083309" lon="13.92142431796984"><ele>570.0</ele><time>2026-04-11T13:30:24.949Z</time></trkpt><trkpt lat="45.61713321263819" lon="13.921421252571728"><ele>570.0</ele><time>2026-04-11T13:30:25.949Z</time></trkpt><trkpt lat="45.61706066633234" lon="13.921385954256744"><ele>570.0</ele><time>2026-04-11T13:30:26.95Z</time></trkpt><trkpt lat="45.6169602216972" lon="13.921312769633653"><ele>570.25</ele><time>2026-04-11T13:30:27.95Z</time></trkpt><trkpt lat="45.61685982878733" lon="13.921222183969599"><ele>570.5</ele><time>2026-04-11T13:30:28.95Z</time></trkpt><trkpt lat="45.61676571411222" lon="13.921123949204352"><ele>570.75</ele><time>2026-04-11T13:30:29.95Z</time></trkpt><trkpt lat="45.61665170441999" lon="13.92106612091849"><ele>571.0</ele><time>2026-04-11T13:30:30.95Z</time></trkpt><trkpt lat="45.61653989987858" lon="13.921003756717731"><ele>571.0</ele><time>2026-04-11T13:30:31.949Z</time></trkpt><trkpt lat="45.61644057798695" lon="13.920957799170422"><ele>571.0</ele><time>2026-04-11T13:30:32.949Z</time></trkpt><trkpt lat="45.61633574966453" lon="13.920914071583397"><ele>571.0</ele><time>2026-04-11T13:30:33.95Z</time></trkpt><trkpt lat="45.616232630064644" lon="13.92087499055746"><ele>571.0</ele><time>2026-04-11T13:30:34.95Z</time></trkpt><trkpt lat="45.61610608606753" lon="13.920810072200709"><ele>567.25</ele><time>2026-04-11T13:30:35.95Z</time></trkpt><trkpt lat="45.615969446994555" lon="13.920752320685722"><ele>563.5</ele><time>2026-04-11T13:30:36.95Z</time></trkpt><trkpt lat="45.615840074237724" lon="13.920719686126706"><ele>559.75</ele><time>2026-04-11T13:30:37.95Z</time></trkpt><trkpt lat="45.615711468813394" lon="13.920669765210752"><ele>556.0</ele><time>2026-04-11T13:30:38.95Z</time></trkpt><trkpt lat="45.615605644548076" lon="13.920619629991718"><ele>556.0</ele><time>2026-04-11T13:30:39.95Z</time></trkpt><trkpt lat="45.615508278867885" lon="13.920592549320128"><ele>556.0</ele><time>2026-04-11T13:30:40.95Z</time></trkpt><trkpt lat="45.615386223115145" lon="13.920559166407186"><ele>556.0</ele><time>2026-04-11T13:30:41.95Z</time></trkpt><trkpt lat="45.61527336385422" lon="13.920515890467707"><ele>556.0</ele><time>2026-04-11T13:30:42.95Z</time></trkpt><trkpt lat="45.61516080632632" lon="13.920507506758456"><ele>555.0</ele><time>2026-04-11T13:30:43.95Z</time></trkpt><trkpt lat="45.615070786255146" lon="13.920503962854813"><ele>554.0</ele><time>2026-04-11T13:30:44.95Z</time></trkpt><trkpt lat="45.61499232382642" lon="13.920500873945834"><ele>553.0</ele><time>2026-04-11T13:30:45.95Z</time></trkpt><trkpt lat="45.6148761859403" lon="13.920496301834614"><ele>552.0</ele><time>2026-04-11T13:30:46.95Z</time></trkpt><trkpt lat="45.61480096907223" lon="13.920491858378915"><ele>551.0</ele><time>2026-04-11T13:30:47.95Z</time></trkpt><trkpt lat="45.614707645686735" lon="13.920485238135832"><ele>551.0</ele><time>2026-04-11T13:30:48.95Z</time></trkpt><trkpt lat="45.61462936033829" lon="13.920477293932267"><ele>551.0</ele><time>2026-04-11T13:30:49.95Z</time></trkpt><trkpt lat="45.61454002603646" lon="13.920462697143321"><ele>551.0</ele><time>2026-04-11T13:30:50.95Z</time></trkpt><trkpt lat="45.61442920038826" lon="13.920440458440764"><ele>551.0</ele><time>2026-04-11T13:30:51.95Z</time></trkpt><trkpt lat="45.61431074285562" lon="13.920400337887298"><ele>551.0</ele><time>2026-04-11T13:30:52.95Z</time></trkpt><trkpt lat="45.61420060591406" lon="13.920388160580586"><ele>550.3333333333333</ele><time>2026-04-11T13:30:53.95Z</time></trkpt><trkpt lat="45.614092654224216" lon="13.92036441345049"><ele>549.6666666666666</ele><time>2026-04-11T13:30:54.95Z</time></trkpt><trkpt lat="45.61399222764118" lon="13.92034046625132"><ele>549.0</ele><time>2026-04-11T13:30:55.95Z</time></trkpt><trkpt lat="45.61392143356244" lon="13.92033378341735"><ele>548.3333333333334</ele><time>2026-04-11T13:30:56.95Z</time></trkpt><trkpt lat="45.613849919910045" lon="13.920327188933808"><ele>547.6666666666667</ele><time>2026-04-11T13:30:57.95Z</time></trkpt><trkpt lat="45.61378833041568" lon="13.920295412559405"><ele>547.0</ele><time>2026-04-11T13:30:58.95Z</time></trkpt><trkpt lat="45.61371353735968" lon="13.920259857032159"><ele>547.0</ele><time>2026-04-11T13:30:59.95Z</time></trkpt><trkpt lat="45.61365805219259" lon="13.920186321148204"><ele>547.0</ele><time>2026-04-11T13:31:00.95Z</time></trkpt><trkpt lat="45.61359707324425" lon="13.920073539770158"><ele>547.0</ele><time>2026-04-11T13:31:01.95Z</time></trkpt><trkpt lat="45.6135332487392" lon="13.919968561758852"><ele>547.0</ele><time>2026-04-11T13:31:02.95Z</time></trkpt><trkpt lat="45.613446890523605" lon="13.91986495573453"><ele>547.0</ele><time>2026-04-11T13:31:03.95Z</time></trkpt><trkpt lat="45.61335004884504" lon="13.91977816403861"><ele>543.8000000000001</ele><time>2026-04-11T13:31:04.95Z</time></trkpt><trkpt lat="45.613265773028104" lon="13.919684987112394"><ele>540.6</ele><time>2026-04-11T13:31:05.95Z</time></trkpt><trkpt lat="45.613202505322974" lon="13.919609907034149"><ele>537.4000000000001</ele><time>2026-04-11T13:31:06.95Z</time></trkpt><trkpt lat="45.61310037773422" lon="13.919546537699679"><ele>534.2</ele><time>2026-04-11T13:31:08.95Z</time></trkpt><trkpt lat="45.61300483673956" lon="13.919583083383882"><ele>531.0</ele><time>2026-04-11T13:31:10.95Z</time></trkpt><trkpt lat="45.61294064732411" lon="13.919704934807298"><ele>531.0</ele><time>2026-04-11T13:31:12.95Z</time></trkpt><trkpt lat="45.612903523248434" lon="13.919873401021949"><ele>531.0</ele><time>2026-04-11T13:31:14.95Z</time></trkpt><trkpt lat="45.61286924900536" lon="13.919999825745242"><ele>531.0</ele><time>2026-04-11T13:31:15.95Z</time></trkpt><trkpt lat="45.612811568680314" lon="13.920159875095775"><ele>531.0</ele><time>2026-04-11T13:31:16.95Z</time></trkpt><trkpt lat="45.61276036040142" lon="13.920324758900065"><ele>530.75</ele><time>2026-04-11T13:31:17.95Z</time></trkpt><trkpt lat="45.61270731132142" lon="13.920479334653622"><ele>530.5</ele><time>2026-04-11T13:31:18.95Z</time></trkpt><trkpt lat="45.61265959649827" lon="13.920645502450178"><ele>530.25</ele><time>2026-04-11T13:31:19.95Z</time></trkpt><trkpt lat="45.61260068944302" lon="13.92081187897799"><ele>530.0</ele><time>2026-04-11T13:31:20.95Z</time></trkpt><trkpt lat="45.612536559145234" lon="13.92095119032059"><ele>530.8</ele><time>2026-04-11T13:31:21.95Z</time></trkpt><trkpt lat="45.612477974299274" lon="13.921086517797834"><ele>531.6</ele><time>2026-04-11T13:31:22.95Z</time></trkpt><trkpt lat="45.612428521898565" lon="13.92122340383082"><ele>532.4</ele><time>2026-04-11T13:31:23.95Z</time></trkpt><trkpt lat="45.61238393281193" lon="13.921347306581522"><ele>533.2</ele><time>2026-04-11T13:31:24.95Z</time></trkpt><trkpt lat="45.61232111367227" lon="13.921459422112182"><ele>534.0</ele><time>2026-04-11T13:31:25.95Z</time></trkpt><trkpt lat="45.61225205469288" lon="13.921576601053099"><ele>534.0</ele><time>2026-04-11T13:31:26.95Z</time></trkpt><trkpt lat="45.61216745910102" lon="13.921681081404992"><ele>534.0</ele><time>2026-04-11T13:31:27.95Z</time></trkpt><trkpt lat="45.61207923669428" lon="13.921796253689712"><ele>534.0</ele><time>2026-04-11T13:31:28.95Z</time></trkpt><trkpt lat="45.61198147307373" lon="13.921933136081178"><ele>534.0</ele><time>2026-04-11T13:31:29.95Z</time></trkpt><trkpt lat="45.61187033134686" lon="13.922048008740603"><ele>531.75</ele><time>2026-04-11T13:31:30.95Z</time></trkpt><trkpt lat="45.61176903348277" lon="13.922179292152851"><ele>529.5</ele><time>2026-04-11T13:31:31.95Z</time></trkpt><trkpt lat="45.611666913212915" lon="13.922274549723577"><ele>527.25</ele><time>2026-04-11T13:31:32.95Z</time></trkpt><trkpt lat="45.611558362121784" lon="13.922369206482461"><ele>525.0</ele><time>2026-04-11T13:31:33.95Z</time></trkpt><trkpt lat="45.61145043795068" lon="13.92244699787889"><ele>525.0</ele><time>2026-04-11T13:31:34.95Z</time></trkpt><trkpt lat="45.611327834458" lon="13.922506149192905"><ele>525.0</ele><time>2026-04-11T13:31:35.95Z</time></trkpt><trkpt lat="45.61121216162792" lon="13.922594875625805"><ele>525.0</ele><time>2026-04-11T13:31:36.95Z</time></trkpt><trkpt lat="45.61110116223479" lon="13.922664214073793"><ele>525.0</ele><time>2026-04-11T13:31:37.95Z</time></trkpt><trkpt lat="45.61098481448736" lon="13.922730515246311"><ele>524.25</ele><time>2026-04-11T13:31:38.95Z</time></trkpt><trkpt lat="45.61086921048746" lon="13.92283927393756"><ele>523.5</ele><time>2026-04-11T13:31:39.95Z</time></trkpt><trkpt lat="45.61077003123143" lon="13.922973559407442"><ele>522.75</ele><time>2026-04-11T13:31:40.95Z</time></trkpt><trkpt lat="45.61066247871992" lon="13.9231160572354"><ele>522.0</ele><time>2026-04-11T13:31:41.95Z</time></trkpt><trkpt lat="45.61058358678628" lon="13.923240356685627"><ele>522.0</ele><time>2026-04-11T13:31:42.95Z</time></trkpt><trkpt lat="45.61051106662781" lon="13.923360788045022"><ele>522.0</ele><time>2026-04-11T13:31:43.95Z</time></trkpt><trkpt lat="45.61044701790535" lon="13.923462670590142"><ele>522.0</ele><time>2026-04-11T13:31:44.95Z</time></trkpt><trkpt lat="45.61039270912412" lon="13.923558805523784"><ele>522.0</ele><time>2026-04-11T13:31:45.95Z</time></trkpt><trkpt lat="45.610337967806814" lon="13.923642028936838"><ele>522.0</ele><time>2026-04-11T13:31:46.95Z</time></trkpt><trkpt lat="45.610297451316626" lon="13.923711753167282"><ele>522.0</ele><time>2026-04-11T13:31:47.95Z</time></trkpt><trkpt lat="45.6102642366015" lon="13.923797143250095"><ele>520.8333333333334</ele><time>2026-04-11T13:31:48.95Z</time></trkpt><trkpt lat="45.610214594465795" lon="13.923879540370176"><ele>519.6666666666666</ele><time>2026-04-11T13:31:49.95Z</time></trkpt><trkpt lat="45.610170585166316" lon="13.923982302579772"><ele>518.5</ele><time>2026-04-11T13:31:51.95Z</time></trkpt><trkpt lat="45.61013911671422" lon="13.924089732196325"><ele>517.3333333333333</ele><time>2026-04-11T13:32:24.949Z</time></trkpt><trkpt lat="45.61005635713428" lon="13.924098241021248"><ele>516.1666666666666</ele><time>2026-04-11T13:32:26.95Z</time></trkpt><trkpt lat="45.60998421918131" lon="13.924017584406506"><ele>515.0</ele><time>2026-04-11T13:32:28.95Z</time></trkpt><trkpt lat="45.60991994757745" lon="13.924059187290796"><ele>515.0</ele><time>2026-04-11T13:32:30.95Z</time></trkpt><trkpt lat="45.609859783266074" lon="13.924099864469188"><ele>515.0</ele><time>2026-04-11T13:32:31.95Z</time></trkpt><trkpt lat="45.60978685148826" lon="13.924164281463899"><ele>515.0</ele><time>2026-04-11T13:32:32.95Z</time></trkpt><trkpt lat="45.60969306764647" lon="13.92420897229326"><ele>515.0</ele><time>2026-04-11T13:32:33.95Z</time></trkpt><trkpt lat="45.609606351377124" lon="13.92430959325168"><ele>515.0</ele><time>2026-04-11T13:32:34.951Z</time></trkpt><trkpt lat="45.609500837727964" lon="13.924400847679445"><ele>515.2</ele><time>2026-04-11T13:32:35.951Z</time></trkpt><trkpt lat="45.60939904604687" lon="13.92450153713531"><ele>515.4</ele><time>2026-04-11T13:32:36.951Z</time></trkpt><trkpt lat="45.60930549665042" lon="13.92459790776535"><ele>515.6</ele><time>2026-04-11T13:32:37.951Z</time></trkpt><trkpt lat="45.60922503790773" lon="13.92468154994568"><ele>515.8</ele><time>2026-04-11T13:32:38.95Z</time></trkpt><trkpt lat="45.60914801927011" lon="13.924747716721242"><ele>516.0</ele><time>2026-04-11T13:32:39.95Z</time></trkpt><trkpt lat="45.609066006545184" lon="13.92483046272849"><ele>516.0</ele><time>2026-04-11T13:32:40.95Z</time></trkpt><trkpt lat="45.608998644386" lon="13.92490120597267"><ele>516.0</ele><time>2026-04-11T13:32:41.95Z</time></trkpt><trkpt lat="45.60894577592016" lon="13.924956839200922"><ele>516.0</ele><time>2026-04-11T13:32:42.95Z</time></trkpt><trkpt lat="45.608898333804774" lon="13.925017997280378"><ele>516.0</ele><time>2026-04-11T13:32:43.95Z</time></trkpt><trkpt lat="45.60883694509067" lon="13.925073261402645"><ele>516.0</ele><time>2026-04-11T13:32:44.95Z</time></trkpt><trkpt lat="45.60873788661287" lon="13.925189592717238"><ele>516.0</ele><time>2026-04-11T13:32:46.95Z</time></trkpt><trkpt lat="45.608638909742645" lon="13.925328833885864"><ele>515.5</ele><time>2026-04-11T13:32:48.95Z</time></trkpt><trkpt lat="45.608580926129434" lon="13.925416187027468"><ele>515.0</ele><time>2026-04-11T13:32:49.95Z</time></trkpt><trkpt lat="45.60852717525526" lon="13.925497164917513"><ele>514.5</ele><time>2026-04-11T13:32:50.95Z</time></trkpt><trkpt lat="45.60847466771343" lon="13.92557833329848"><ele>514.0</ele><time>2026-04-11T13:32:51.95Z</time></trkpt><trkpt lat="45.6084241149996" lon="13.925657466730545"><ele>513.5</ele><time>2026-04-11T13:32:52.95Z</time></trkpt><trkpt lat="45.60837620865314" lon="13.925736568937461"><ele>513.0</ele><time>2026-04-11T13:32:53.95Z</time></trkpt><trkpt lat="45.60833099979747" lon="13.925826487397856"><ele>511.6666666666667</ele><time>2026-04-11T13:32:54.95Z</time></trkpt><trkpt lat="45.608271397484664" lon="13.925901526772794"><ele>510.33333333333337</ele><time>2026-04-11T13:32:55.95Z</time></trkpt><trkpt lat="45.60820031310235" lon="13.925960635065605"><ele>509.0</ele><time>2026-04-11T13:32:56.95Z</time></trkpt><trkpt lat="45.60813964945902" lon="13.926021559702653"><ele>507.6666666666667</ele><time>2026-04-11T13:32:57.95Z</time></trkpt><trkpt lat="45.60807829970885" lon="13.926087704464441"><ele>506.33333333333337</ele><time>2026-04-11T13:32:58.95Z</time></trkpt><trkpt lat="45.60800083102193" lon="13.926189687641536"><ele>505.0</ele><time>2026-04-11T13:32:59.95Z</time></trkpt><trkpt lat="45.607930751016504" lon="13.926300776624482"><ele>505.0</ele><time>2026-04-11T13:33:00.95Z</time></trkpt><trkpt lat="45.60785468610463" lon="13.92638767990812"><ele>505.0</ele><time>2026-04-11T13:33:01.95Z</time></trkpt><trkpt lat="45.607780089342484" lon="13.926455125450271"><ele>505.0</ele><time>2026-04-11T13:33:02.95Z</time></trkpt><trkpt lat="45.60769957856783" lon="13.926523197918668"><ele>505.0</ele><time>2026-04-11T13:33:03.95Z</time></trkpt><trkpt lat="45.607618216676016" lon="13.926574590015264"><ele>505.0</ele><time>2026-04-11T13:33:04.95Z</time></trkpt><trkpt lat="45.607551277708666" lon="13.926647236540614"><ele>503.6</ele><time>2026-04-11T13:33:05.95Z</time></trkpt><trkpt lat="45.60747494964345" lon="13.926748714470364"><ele>502.2</ele><time>2026-04-11T13:33:06.95Z</time></trkpt><trkpt lat="45.60738784282818" lon="13.926853285016206"><ele>500.79999999999995</ele><time>2026-04-11T13:33:07.95Z</time></trkpt><trkpt lat="45.60729864465168" lon="13.926936179662325"><ele>499.4</ele><time>2026-04-11T13:33:08.95Z</time></trkpt><trkpt lat="45.60720980773502" lon="13.927018495940015"><ele>498.0</ele><time>2026-04-11T13:33:09.95Z</time></trkpt><trkpt lat="45.60712919670073" lon="13.927098567682984"><ele>498.0</ele><time>2026-04-11T13:33:10.95Z</time></trkpt><trkpt lat="45.607059049972776" lon="13.92719120132121"><ele>497.99999999999994</ele><time>2026-04-11T13:33:11.95Z</time></trkpt><trkpt lat="45.60700012599658" lon="13.927262500250437"><ele>497.99999999999994</ele><time>2026-04-11T13:33:12.95Z</time></trkpt><trkpt lat="45.60691816155775" lon="13.927325127364437"><ele>498.0</ele><time>2026-04-11T13:33:13.95Z</time></trkpt><trkpt lat="45.60684408595142" lon="13.927400840414476"><ele>498.0</ele><time>2026-04-11T13:33:14.95Z</time></trkpt><trkpt lat="45.60676615350996" lon="13.927475648261002"><ele>498.5</ele><time>2026-04-11T13:33:15.95Z</time></trkpt><trkpt lat="45.60668950990185" lon="13.927554847208233"><ele>499.0</ele><time>2026-04-11T13:33:16.95Z</time></trkpt><trkpt lat="45.606627492163305" lon="13.927637093352038"><ele>499.5</ele><time>2026-04-11T13:33:17.95Z</time></trkpt><trkpt lat="45.60657255721198" lon="13.927713456110995"><ele>500.0</ele><time>2026-04-11T13:33:18.95Z</time></trkpt><trkpt lat="45.60650189349834" lon="13.927766019966747"><ele>500.5</ele><time>2026-04-11T13:33:19.95Z</time></trkpt><trkpt lat="45.60642778813281" lon="13.927754138613198"><ele>501.0</ele><time>2026-04-11T13:33:20.95Z</time></trkpt><trkpt lat="45.60635732179795" lon="13.927781939541426"><ele>500.0</ele><time>2026-04-11T13:33:21.95Z</time></trkpt><trkpt lat="45.60628684934766" lon="13.927754094828074"><ele>499.0</ele><time>2026-04-11T13:33:22.95Z</time></trkpt><trkpt lat="45.60620450334548" lon="13.927732111426838"><ele>498.0</ele><time>2026-04-11T13:33:23.95Z</time></trkpt><trkpt lat="45.606105113090535" lon="13.927702920259632"><ele>497.0</ele><time>2026-04-11T13:33:24.95Z</time></trkpt><trkpt lat="45.606013791376114" lon="13.927678318387473"><ele>496.0</ele><time>2026-04-11T13:33:25.95Z</time></trkpt><trkpt lat="45.605920189889254" lon="13.9276546316268"><ele>495.0</ele><time>2026-04-11T13:33:26.95Z</time></trkpt><trkpt lat="45.60581984087961" lon="13.927622736804464"><ele>494.8</ele><time>2026-04-11T13:33:27.95Z</time></trkpt><trkpt lat="45.60572396351131" lon="13.92758322804987"><ele>494.6</ele><time>2026-04-11T13:33:28.95Z</time></trkpt><trkpt lat="45.605613947939254" lon="13.927552221439566"><ele>494.4</ele><time>2026-04-11T13:33:29.95Z</time></trkpt><trkpt lat="45.6054990363357" lon="13.927527302763751"><ele>494.2</ele><time>2026-04-11T13:33:30.95Z</time></trkpt><trkpt lat="45.60538899212899" lon="13.92750645446777"><ele>494.0</ele><time>2026-04-11T13:33:31.95Z</time></trkpt><trkpt lat="45.60526359971884" lon="13.927497569105698"><ele>496.5</ele><time>2026-04-11T13:33:32.95Z</time></trkpt><trkpt lat="45.60513453461149" lon="13.927494305156623"><ele>499.0</ele><time>2026-04-11T13:33:33.95Z</time></trkpt><trkpt lat="45.605016677133555" lon="13.927481003037975"><ele>501.5</ele><time>2026-04-11T13:33:34.95Z</time></trkpt><trkpt lat="45.60490668549153" lon="13.927462559061809"><ele>504.0</ele><time>2026-04-11T13:33:35.95Z</time></trkpt><trkpt lat="45.604806977997896" lon="13.927448255725633"><ele>504.0</ele><time>2026-04-11T13:33:36.95Z</time></trkpt><trkpt lat="45.604712410186224" lon="13.92744064821696"><ele>504.0</ele><time>2026-04-11T13:33:37.95Z</time></trkpt><trkpt lat="45.60462215867861" lon="13.927443271512193"><ele>504.0</ele><time>2026-04-11T13:33:38.95Z</time></trkpt><trkpt lat="45.60452688598941" lon="13.92743902349764"><ele>504.0</ele><time>2026-04-11T13:33:39.95Z</time></trkpt><trkpt lat="45.604431840869225" lon="13.927437637736807"><ele>504.0</ele><time>2026-04-11T13:33:40.95Z</time></trkpt><trkpt lat="45.60432467471336" lon="13.927439975939325"><ele>503.0</ele><time>2026-04-11T13:33:41.95Z</time></trkpt><trkpt lat="45.60421655160117" lon="13.927450018034635"><ele>502.0</ele><time>2026-04-11T13:33:42.95Z</time></trkpt><trkpt lat="45.60412348999446" lon="13.92745467901785"><ele>501.0</ele><time>2026-04-11T13:33:43.95Z</time></trkpt><trkpt lat="45.604029793373506" lon="13.927463540217182"><ele>500.0</ele><time>2026-04-11T13:33:44.95Z</time></trkpt><trkpt lat="45.60394318544526" lon="13.927477432551905"><ele>499.0</ele><time>2026-04-11T13:33:45.95Z</time></trkpt><trkpt lat="45.60385486996678" lon="13.927490700396321"><ele>499.00000000000006</ele><time>2026-04-11T13:33:46.95Z</time></trkpt><trkpt lat="45.60376837694147" lon="13.927518067770066"><ele>499.0</ele><time>2026-04-11T13:33:47.95Z</time></trkpt><trkpt lat="45.60369072310115" lon="13.927532658381908"><ele>499.0</ele><time>2026-04-11T13:33:48.95Z</time></trkpt><trkpt lat="45.60360963835208" lon="13.927534115683796"><ele>499.0</ele><time>2026-04-11T13:33:49.95Z</time></trkpt><trkpt lat="45.603544375048095" lon="13.927551427635887"><ele>499.00000000000006</ele><time>2026-04-11T13:33:50.95Z</time></trkpt><trkpt lat="45.60347508443841" lon="13.927567898633155"><ele>499.0</ele><time>2026-04-11T13:33:51.95Z</time></trkpt><trkpt lat="45.60340840204281" lon="13.927593074113721"><ele>496.83333333333337</ele><time>2026-04-11T13:33:52.95Z</time></trkpt><trkpt lat="45.603342803133266" lon="13.927599448547591"><ele>494.6666666666667</ele><time>2026-04-11T13:33:53.95Z</time></trkpt><trkpt lat="45.603218602980455" lon="13.9276299845562"><ele>492.5</ele><time>2026-04-11T13:33:55.95Z</time></trkpt><trkpt lat="45.60315531213728" lon="13.927646771176533"><ele>490.33333333333337</ele><time>2026-04-11T13:33:56.95Z</time></trkpt><trkpt lat="45.60309125205415" lon="13.92766015036314"><ele>488.1666666666667</ele><time>2026-04-11T13:33:57.95Z</time></trkpt><trkpt lat="45.603024276971055" lon="13.927671103965796"><ele>486.0</ele><time>2026-04-11T13:33:58.95Z</time></trkpt><trkpt lat="45.60296175454425" lon="13.927686968338332"><ele>486.0</ele><time>2026-04-11T13:33:59.95Z</time></trkpt><trkpt lat="45.60289567711567" lon="13.927730477399596"><ele>486.0</ele><time>2026-04-11T13:34:00.95Z</time></trkpt><trkpt lat="45.60281839208666" lon="13.927770506967795"><ele>486.0</ele><time>2026-04-11T13:34:01.95Z</time></trkpt><trkpt lat="45.602743338636756" lon="13.92778934548164"><ele>486.0</ele><time>2026-04-11T13:34:02.95Z</time></trkpt><trkpt lat="45.602667682860044" lon="13.92780328236474"><ele>486.0</ele><time>2026-04-11T13:34:03.949Z</time></trkpt><trkpt lat="45.60259550847667" lon="13.927818777620544"><ele>486.0</ele><time>2026-04-11T13:34:04.949Z</time></trkpt><trkpt lat="45.60253139553991" lon="13.927838320723897"><ele>486.0</ele><time>2026-04-11T13:34:05.949Z</time></trkpt><trkpt lat="45.602410835709364" lon="13.92788074516644"><ele>484.6666666666667</ele><time>2026-04-11T13:34:07.949Z</time></trkpt><trkpt lat="45.60234808495404" lon="13.927896142945382"><ele>483.33333333333337</ele><time>2026-04-11T13:34:08.949Z</time></trkpt><trkpt lat="45.60227275551658" lon="13.92789320549966"><ele>482.0</ele><time>2026-04-11T13:34:09.949Z</time></trkpt><trkpt lat="45.60220681981272" lon="13.927874083261454"><ele>480.6666666666667</ele><time>2026-04-11T13:34:10.949Z</time></trkpt><trkpt lat="45.602142304886804" lon="13.927837645783077"><ele>479.33333333333337</ele><time>2026-04-11T13:34:11.949Z</time></trkpt><trkpt lat="45.60206118499426" lon="13.927777837055286"><ele>478.0</ele><time>2026-04-11T13:34:12.949Z</time></trkpt><trkpt lat="45.60197253687124" lon="13.927688636820044"><ele>477.59999999999997</ele><time>2026-04-11T13:34:13.949Z</time></trkpt><trkpt lat="45.601877376050986" lon="13.927583297521966"><ele>477.19999999999993</ele><time>2026-04-11T13:34:14.949Z</time></trkpt><trkpt lat="45.601794774374504" lon="13.927476589680989"><ele>476.8</ele><time>2026-04-11T13:34:15.949Z</time></trkpt><trkpt lat="45.601703795404504" lon="13.927392658151302"><ele>476.4</ele><time>2026-04-11T13:34:16.949Z</time></trkpt><trkpt lat="45.60162407402752" lon="13.927306809321067"><ele>476.0</ele><time>2026-04-11T13:34:17.949Z</time></trkpt><trkpt lat="45.60155512818061" lon="13.927229311201824"><ele>476.0</ele><time>2026-04-11T13:34:18.949Z</time></trkpt><trkpt lat="45.601482175800825" lon="13.927152683313778"><ele>476.0</ele><time>2026-04-11T13:34:19.949Z</time></trkpt><trkpt lat="45.60141458697554" lon="13.927065878014709"><ele>476.0</ele><time>2026-04-11T13:34:20.949Z</time></trkpt><trkpt lat="45.601353510949515" lon="13.92697375965004"><ele>476.0</ele><time>2026-04-11T13:34:21.949Z</time></trkpt><trkpt lat="45.601291256127766" lon="13.926874279113907"><ele>476.0</ele><time>2026-04-11T13:34:22.949Z</time></trkpt><trkpt lat="45.601252325822216" lon="13.92674281833677"><ele>477.20000000000005</ele><time>2026-04-11T13:34:23.949Z</time></trkpt><trkpt lat="45.60120241053557" lon="13.926633141962105"><ele>478.40000000000003</ele><time>2026-04-11T13:34:24.949Z</time></trkpt><trkpt lat="45.60115898271361" lon="13.926538031044096"><ele>479.6</ele><time>2026-04-11T13:34:25.949Z</time></trkpt><trkpt lat="45.60109753680337" lon="13.926451656662604"><ele>480.8</ele><time>2026-04-11T13:34:27.949Z</time></trkpt><trkpt lat="45.600976010609536" lon="13.926507626918484"><ele>482.0</ele><time>2026-04-11T13:34:33.95Z</time></trkpt><trkpt lat="45.600936580682315" lon="13.926591685165954"><ele>479.40000000000003</ele><time>2026-04-11T13:34:34.95Z</time></trkpt><trkpt lat="45.600893042644124" lon="13.92668192825359"><ele>476.80000000000007</ele><time>2026-04-11T13:34:35.951Z</time></trkpt><trkpt lat="45.600838050202626" lon="13.926782900555274"><ele>474.2</ele><time>2026-04-11T13:34:36.951Z</time></trkpt><trkpt lat="45.6007820570516" lon="13.926900961042275"><ele>471.6</ele><time>2026-04-11T13:34:37.951Z</time></trkpt><trkpt lat="45.60073783002559" lon="13.927034453187247"><ele>469.0</ele><time>2026-04-11T13:34:38.95Z</time></trkpt><trkpt lat="45.6007054636403" lon="13.927150961990955"><ele>469.0</ele><time>2026-04-11T13:34:39.95Z</time></trkpt><trkpt lat="45.600654180878095" lon="13.927259914947216"><ele>469.0</ele><time>2026-04-11T13:34:40.951Z</time></trkpt><trkpt lat="45.60058841754684" lon="13.927329980268004"><ele>469.0</ele><time>2026-04-11T13:34:41.95Z</time></trkpt><trkpt lat="45.600530440382684" lon="13.927372172293994"><ele>469.0</ele><time>2026-04-11T13:34:42.95Z</time></trkpt><trkpt lat="45.6004290273625" lon="13.927455624002606"><ele>469.0</ele><time>2026-04-11T13:34:44.95Z</time></trkpt><trkpt lat="45.60040764986364" lon="13.927598511062836"><ele>469.2</ele><time>2026-04-11T13:34:46.95Z</time></trkpt><trkpt lat="45.60045760763032" lon="13.92775782163189"><ele>469.4</ele><time>2026-04-11T13:34:48.95Z</time></trkpt><trkpt lat="45.60047349052083" lon="13.927851983684231"><ele>469.6</ele><time>2026-04-11T13:34:49.95Z</time></trkpt><trkpt lat="45.60045859609563" lon="13.92796512124537"><ele>469.8</ele><time>2026-04-11T13:34:50.95Z</time></trkpt><trkpt lat="45.60042681146231" lon="13.928081190873066"><ele>470.0</ele><time>2026-04-11T13:34:51.95Z</time></trkpt><trkpt lat="45.600362351431095" lon="13.928180832823264"><ele>469.25</ele><time>2026-04-11T13:34:52.95Z</time></trkpt><trkpt lat="45.60026306004299" lon="13.92826737471794"><ele>468.5</ele><time>2026-04-11T13:34:53.95Z</time></trkpt><trkpt lat="45.600148256422855" lon="13.928327826997503"><ele>467.75</ele><time>2026-04-11T13:34:54.95Z</time></trkpt><trkpt lat="45.6000216282178" lon="13.928385708293996"><ele>467.0</ele><time>2026-04-11T13:34:55.95Z</time></trkpt><trkpt lat="45.59988542829559" lon="13.928442754380477"><ele>469.0</ele><time>2026-04-11T13:34:56.95Z</time></trkpt><trkpt lat="45.59958505009543" lon="13.928571583487305"><ele>471.0</ele><time>2026-04-11T13:34:58.95Z</time></trkpt><trkpt lat="45.59942786135175" lon="13.928624948460696"><ele>471.0</ele><time>2026-04-11T13:34:59.95Z</time></trkpt><trkpt lat="45.59925239263326" lon="13.928671188182124"><ele>471.0</ele><time>2026-04-11T13:35:00.95Z</time></trkpt><trkpt lat="45.59907228948694" lon="13.928698017953234"><ele>471.0</ele><time>2026-04-11T13:35:01.95Z</time></trkpt><trkpt lat="45.59888611980064" lon="13.928711146169222"><ele>471.0</ele><time>2026-04-11T13:35:02.95Z</time></trkpt><trkpt lat="45.5987046933145" lon="13.92869475824847"><ele>471.0</ele><time>2026-04-11T13:35:03.95Z</time></trkpt><trkpt lat="45.59853464590776" lon="13.928670733099048"><ele>471.0</ele><time>2026-04-11T13:35:04.95Z</time></trkpt><trkpt lat="45.59838153255263" lon="13.92864645587825"><ele>469.66666666666663</ele><time>2026-04-11T13:35:05.95Z</time></trkpt><trkpt lat="45.59821723493794" lon="13.92861874754036"><ele>468.3333333333333</ele><time>2026-04-11T13:35:06.95Z</time></trkpt><trkpt lat="45.59805300386794" lon="13.928595760323203"><ele>467.0</ele><time>2026-04-11T13:35:07.95Z</time></trkpt><trkpt lat="45.597872484859" lon="13.928564841397916"><ele>467.3333333333333</ele><time>2026-04-11T13:35:08.95Z</time></trkpt><trkpt lat="45.59768928074272" lon="13.928538116933582"><ele>467.66666666666663</ele><time>2026-04-11T13:35:09.95Z</time></trkpt><trkpt lat="45.597495485906016" lon="13.928527237822701"><ele>468.0</ele><time>2026-04-11T13:35:10.95Z</time></trkpt><trkpt lat="45.59732020425745" lon="13.928527930426027"><ele>468.0</ele><time>2026-04-11T13:35:11.95Z</time></trkpt><trkpt lat="45.59712407248888" lon="13.928536829460482"><ele>468.0</ele><time>2026-04-11T13:35:12.95Z</time></trkpt><trkpt lat="45.59693156304579" lon="13.928565617871557"><ele>468.0</ele><time>2026-04-11T13:35:13.95Z</time></trkpt><trkpt lat="45.59674445588682" lon="13.928588224133174"><ele>467.66666666666663</ele><time>2026-04-11T13:35:14.95Z</time></trkpt><trkpt lat="45.59654896269593" lon="13.928621066058668"><ele>467.3333333333333</ele><time>2026-04-11T13:35:15.95Z</time></trkpt><trkpt lat="45.59635967312267" lon="13.928653311535879"><ele>467.0</ele><time>2026-04-11T13:35:16.95Z</time></trkpt><trkpt lat="45.596173688435485" lon="13.928675309138539"><ele>467.0</ele><time>2026-04-11T13:35:17.95Z</time></trkpt><trkpt lat="45.59598952975927" lon="13.928700658582702"><ele>467.0</ele><time>2026-04-11T13:35:18.95Z</time></trkpt><trkpt lat="45.59579615127843" lon="13.928714557742092"><ele>467.0</ele><time>2026-04-11T13:35:19.95Z</time></trkpt><trkpt lat="45.59561745987035" lon="13.928752766770955"><ele>467.0</ele><time>2026-04-11T13:35:20.95Z</time></trkpt><trkpt lat="45.59543644603948" lon="13.928782453081807"><ele>467.0</ele><time>2026-04-11T13:35:21.95Z</time></trkpt><trkpt lat="45.595271283723264" lon="13.928823014326547"><ele>467.0</ele><time>2026-04-11T13:35:22.95Z</time></trkpt><trkpt lat="45.595091437168506" lon="13.92884728114156"><ele>465.3333333333333</ele><time>2026-04-11T13:35:23.95Z</time></trkpt><trkpt lat="45.59491564656775" lon="13.928881703883706"><ele>463.66666666666663</ele><time>2026-04-11T13:35:24.95Z</time></trkpt><trkpt lat="45.59473960167442" lon="13.928916754672455"><ele>462.0</ele><time>2026-04-11T13:35:25.95Z</time></trkpt><trkpt lat="45.59456263626495" lon="13.92894628789167"><ele>460.0</ele><time>2026-04-11T13:35:26.95Z</time></trkpt><trkpt lat="45.5943827333274" lon="13.92897702239488"><ele>458.0</ele><time>2026-04-11T13:35:27.95Z</time></trkpt><trkpt lat="45.59420522029536" lon="13.92901122050554"><ele>456.0</ele><time>2026-04-11T13:35:28.95Z</time></trkpt><trkpt lat="45.5940131972476" lon="13.92903670681317"><ele>456.0</ele><time>2026-04-11T13:35:29.95Z</time></trkpt><trkpt lat="45.59382021164848" lon="13.929059724347802"><ele>456.0</ele><time>2026-04-11T13:35:30.95Z</time></trkpt><trkpt lat="45.59362771999759" lon="13.929086179440096"><ele>456.0</ele><time>2026-04-11T13:35:31.95Z</time></trkpt><trkpt lat="45.59343759134779" lon="13.929126245257569"><ele>455.33333333333337</ele><time>2026-04-11T13:35:32.95Z</time></trkpt><trkpt lat="45.5932426495761" lon="13.92915777901927"><ele>454.6666666666667</ele><time>2026-04-11T13:35:33.95Z</time></trkpt><trkpt lat="45.59304613658215" lon="13.929190193236282"><ele>454.0</ele><time>2026-04-11T13:35:34.95Z</time></trkpt><trkpt lat="45.59284938098268" lon="13.929224061365433"><ele>459.33333333333337</ele><time>2026-04-11T13:35:35.95Z</time></trkpt><trkpt lat="45.59264861701903" lon="13.929251893386681"><ele>464.66666666666663</ele><time>2026-04-11T13:35:36.95Z</time></trkpt><trkpt lat="45.59245371574763" lon="13.929282108034041"><ele>470.0</ele><time>2026-04-11T13:35:37.95Z</time></trkpt><trkpt lat="45.59224660023486" lon="13.929307118227234"><ele>470.0</ele><time>2026-04-11T13:35:38.95Z</time></trkpt><trkpt lat="45.59205091971318" lon="13.92934049387748"><ele>470.0</ele><time>2026-04-11T13:35:39.95Z</time></trkpt><trkpt lat="45.591854470970986" lon="13.929379789722818"><ele>470.0</ele><time>2026-04-11T13:35:40.95Z</time></trkpt><trkpt lat="45.59165469326418" lon="13.929418734048493"><ele>469.3333333333333</ele><time>2026-04-11T13:35:41.95Z</time></trkpt><trkpt lat="45.591453819506356" lon="13.929436836773295"><ele>468.66666666666663</ele><time>2026-04-11T13:35:42.95Z</time></trkpt><trkpt lat="45.59125253888006" lon="13.929458648762612"><ele>468.0</ele><time>2026-04-11T13:35:43.95Z</time></trkpt><trkpt lat="45.591052776768116" lon="13.929473728557307"><ele>466.33333333333337</ele><time>2026-04-11T13:35:44.95Z</time></trkpt><trkpt lat="45.59085459949154" lon="13.929469699740094"><ele>464.6666666666667</ele><time>2026-04-11T13:35:45.95Z</time></trkpt><trkpt lat="45.590651363486245" lon="13.929450737825624"><ele>463.0</ele><time>2026-04-11T13:35:46.95Z</time></trkpt><trkpt lat="45.590451610202244" lon="13.929408956532702"><ele>461.0</ele><time>2026-04-11T13:35:47.95Z</time></trkpt><trkpt lat="45.59025976409902" lon="13.9293616410458"><ele>459.0</ele><time>2026-04-11T13:35:48.95Z</time></trkpt><trkpt lat="45.59006893996191" lon="13.929299360636834"><ele>457.0</ele><time>2026-04-11T13:35:49.95Z</time></trkpt><trkpt lat="45.589883017923334" lon="13.929233431330369"><ele>453.0</ele><time>2026-04-11T13:35:50.95Z</time></trkpt><trkpt lat="45.5897035053027" lon="13.929155473980888"><ele>449.0</ele><time>2026-04-11T13:35:51.95Z</time></trkpt><trkpt lat="45.5895268933983" lon="13.929077373785606"><ele>445.0</ele><time>2026-04-11T13:35:52.95Z</time></trkpt><trkpt lat="45.589345862303695" lon="13.928991853698875"><ele>444.6666666666667</ele><time>2026-04-11T13:35:53.95Z</time></trkpt><trkpt lat="45.589163272454044" lon="13.928923944640717"><ele>444.33333333333337</ele><time>2026-04-11T13:35:54.95Z</time></trkpt><trkpt lat="45.58897073664021" lon="13.928875746399179"><ele>444.0</ele><time>2026-04-11T13:35:55.95Z</time></trkpt><trkpt lat="45.58877864150449" lon="13.928832238669342"><ele>445.0</ele><time>2026-04-11T13:35:56.95Z</time></trkpt><trkpt lat="45.588579633308534" lon="13.928814299031968"><ele>446.0</ele><time>2026-04-11T13:35:57.95Z</time></trkpt><trkpt lat="45.58836915948105" lon="13.928818752179332"><ele>447.0</ele><time>2026-04-11T13:35:58.95Z</time></trkpt><trkpt lat="45.58816660722532" lon="13.928848484444854"><ele>447.0</ele><time>2026-04-11T13:35:59.95Z</time></trkpt><trkpt lat="45.58796340534459" lon="13.928881921253097"><ele>447.0</ele><time>2026-04-11T13:36:00.95Z</time></trkpt><trkpt lat="45.58776081224797" lon="13.92892729494388"><ele>447.0</ele><time>2026-04-11T13:36:01.95Z</time></trkpt><trkpt lat="45.58757831741778" lon="13.928976702035937"><ele>444.66666666666663</ele><time>2026-04-11T13:36:02.95Z</time></trkpt><trkpt lat="45.58740430564632" lon="13.929024705718101"><ele>442.3333333333333</ele><time>2026-04-11T13:36:03.95Z</time></trkpt><trkpt lat="45.58723831847351" lon="13.929050771288857"><ele>440.0</ele><time>2026-04-11T13:36:04.95Z</time></trkpt><trkpt lat="45.58712175961892" lon="13.929090757827199"><ele>440.0</ele><time>2026-04-11T13:36:05.95Z</time></trkpt><trkpt lat="45.58703424051147" lon="13.92910344873427"><ele>440.0</ele><time>2026-04-11T13:36:06.95Z</time></trkpt><trkpt lat="45.58695495296446" lon="13.929122564494987"><ele>440.0</ele><time>2026-04-11T13:36:07.95Z</time></trkpt><trkpt lat="45.58688815969547" lon="13.92913508681231"><ele>440.0</ele><time>2026-04-11T13:36:08.95Z</time></trkpt><trkpt lat="45.586881474945244" lon="13.929381386545865"><ele>440.0</ele><time>2026-04-11T13:36:09.95Z</time></trkpt><trkpt lat="45.586791671155616" lon="13.92945104778113"><ele>443.75</ele><time>2026-04-11T13:36:10.95Z</time></trkpt><trkpt lat="45.58666487648261" lon="13.92947550360389"><ele>447.5</ele><time>2026-04-11T13:36:11.95Z</time></trkpt><trkpt lat="45.58654625665525" lon="13.929517801907151"><ele>451.25</ele><time>2026-04-11T13:36:12.95Z</time></trkpt><trkpt lat="45.586423743512746" lon="13.929595915181796"><ele>455.0</ele><time>2026-04-11T13:36:13.95Z</time></trkpt><trkpt lat="45.586287631828014" lon="13.929683599219713"><ele>450.66666666666663</ele><time>2026-04-11T13:36:14.95Z</time></trkpt><trkpt lat="45.58614310937002" lon="13.929789303394356"><ele>446.33333333333337</ele><time>2026-04-11T13:36:15.95Z</time></trkpt><trkpt lat="45.5860126852606" lon="13.929903726286245"><ele>442.0</ele><time>2026-04-11T13:36:16.95Z</time></trkpt><trkpt lat="45.58587660735721" lon="13.929983767662895"><ele>449.0</ele><time>2026-04-11T13:36:17.95Z</time></trkpt><trkpt lat="45.58572829297022" lon="13.930075263268325"><ele>456.0</ele><time>2026-04-11T13:36:18.95Z</time></trkpt><trkpt lat="45.58558996159649" lon="13.930175316407759"><ele>463.0</ele><time>2026-04-11T13:36:19.95Z</time></trkpt><trkpt lat="45.58544102453961" lon="13.93028564525874"><ele>458.6666666666667</ele><time>2026-04-11T13:36:20.95Z</time></trkpt><trkpt lat="45.585282829491526" lon="13.930411249831591"><ele>454.33333333333337</ele><time>2026-04-11T13:36:21.95Z</time></trkpt><trkpt lat="45.5851226990865" lon="13.930534396050865"><ele>450.0</ele><time>2026-04-11T13:36:22.95Z</time></trkpt><trkpt lat="45.58495519042079" lon="13.930677278461685"><ele>450.0</ele><time>2026-04-11T13:36:23.95Z</time></trkpt><trkpt lat="45.58478235415534" lon="13.93079536303951"><ele>450.0</ele><time>2026-04-11T13:36:24.95Z</time></trkpt><trkpt lat="45.58461118269238" lon="13.930901294616397"><ele>450.0</ele><time>2026-04-11T13:36:25.95Z</time></trkpt><trkpt lat="45.584439331358055" lon="13.930998213475254"><ele>453.33333333333337</ele><time>2026-04-11T13:36:26.95Z</time></trkpt><trkpt lat="45.58426351107018" lon="13.931102708570222"><ele>456.6666666666667</ele><time>2026-04-11T13:36:27.95Z</time></trkpt><trkpt lat="45.584089269235236" lon="13.931217568517203"><ele>460.0</ele><time>2026-04-11T13:36:28.95Z</time></trkpt><trkpt lat="45.58391613336421" lon="13.931317910866369"><ele>460.0</ele><time>2026-04-11T13:36:29.95Z</time></trkpt><trkpt lat="45.58374758525792" lon="13.931427766044985"><ele>460.0</ele><time>2026-04-11T13:36:30.95Z</time></trkpt><trkpt lat="45.583569090040015" lon="13.931531878943183"><ele>460.0</ele><time>2026-04-11T13:36:31.95Z</time></trkpt><trkpt lat="45.583389702084936" lon="13.931625389886968"><ele>461.6666666666667</ele><time>2026-04-11T13:36:32.95Z</time></trkpt><trkpt lat="45.58321203782989" lon="13.931700677016073"><ele>463.33333333333337</ele><time>2026-04-11T13:36:33.95Z</time></trkpt><trkpt lat="45.583021602528085" lon="13.931761527938946"><ele>465.0</ele><time>2026-04-11T13:36:34.95Z</time></trkpt><trkpt lat="45.582843468249784" lon="13.931840497999248"><ele>465.0</ele><time>2026-04-11T13:36:35.95Z</time></trkpt><trkpt lat="45.58265565209081" lon="13.93192930453518"><ele>465.0</ele><time>2026-04-11T13:36:36.95Z</time></trkpt><trkpt lat="45.58248059263708" lon="13.932011383231359"><ele>465.0</ele><time>2026-04-11T13:36:37.951Z</time></trkpt><trkpt lat="45.582293766942" lon="13.932101155599637"><ele>465.0</ele><time>2026-04-11T13:36:38.951Z</time></trkpt><trkpt lat="45.582119573683926" lon="13.932202293007972"><ele>465.0</ele><time>2026-04-11T13:36:39.951Z</time></trkpt><trkpt lat="45.58194219618013" lon="13.932300822948195"><ele>465.0</ele><time>2026-04-11T13:36:40.951Z</time></trkpt><trkpt lat="45.58177640705363" lon="13.93240047762948"><ele>463.0</ele><time>2026-04-11T13:36:41.951Z</time></trkpt><trkpt lat="45.58161301626202" lon="13.932502752978019"><ele>461.0</ele><time>2026-04-11T13:36:42.951Z</time></trkpt><trkpt lat="45.581444797143575" lon="13.932610230245452"><ele>459.0</ele><time>2026-04-11T13:36:43.95Z</time></trkpt><trkpt lat="45.58128358021146" lon="13.932722165482424"><ele>461.66666666666663</ele><time>2026-04-11T13:36:44.951Z</time></trkpt><trkpt lat="45.58113450005222" lon="13.932850434724052"><ele>464.3333333333333</ele><time>2026-04-11T13:36:45.951Z</time></trkpt><trkpt lat="45.5809743676314" lon="13.93295706800519"><ele>467.0</ele><time>2026-04-11T13:36:46.951Z</time></trkpt><trkpt lat="45.58081860991458" lon="13.93306157780504"><ele>467.0</ele><time>2026-04-11T13:36:47.95Z</time></trkpt><trkpt lat="45.58064981579206" lon="13.933173753758465"><ele>467.0</ele><time>2026-04-11T13:36:48.95Z</time></trkpt><trkpt lat="45.580473504314156" lon="13.933268015102422"><ele>467.0</ele><time>2026-04-11T13:36:49.951Z</time></trkpt><trkpt lat="45.580298548235234" lon="13.93336998682354"><ele>471.3333333333333</ele><time>2026-04-11T13:36:50.951Z</time></trkpt><trkpt lat="45.58012134751751" lon="13.933471412801662"><ele>475.66666666666663</ele><time>2026-04-11T13:36:51.951Z</time></trkpt><trkpt lat="45.579942847728184" lon="13.933564880022299"><ele>480.0</ele><time>2026-04-11T13:36:52.951Z</time></trkpt><trkpt lat="45.57976114447477" lon="13.933661463380986"><ele>480.0</ele><time>2026-04-11T13:36:53.95Z</time></trkpt><trkpt lat="45.579583498467656" lon="13.93376180290148"><ele>480.0</ele><time>2026-04-11T13:36:54.95Z</time></trkpt><trkpt lat="45.57940601017658" lon="13.933874144205818"><ele>480.0</ele><time>2026-04-11T13:36:55.95Z</time></trkpt><trkpt lat="45.579216777802216" lon="13.933987028236237"><ele>483.33333333333337</ele><time>2026-04-11T13:36:56.95Z</time></trkpt><trkpt lat="45.57903951129686" lon="13.93413909148766"><ele>486.6666666666667</ele><time>2026-04-11T13:36:57.95Z</time></trkpt><trkpt lat="45.57886399678942" lon="13.934270197927814"><ele>490.0</ele><time>2026-04-11T13:36:58.95Z</time></trkpt><trkpt lat="45.57868723107396" lon="13.934399103185438"><ele>486.0</ele><time>2026-04-11T13:36:59.95Z</time></trkpt><trkpt lat="45.57850483326389" lon="13.934534017835162"><ele>482.0</ele><time>2026-04-11T13:37:00.95Z</time></trkpt><trkpt lat="45.57832396954159" lon="13.934679314109824"><ele>478.0</ele><time>2026-04-11T13:37:01.95Z</time></trkpt><trkpt lat="45.57815249374682" lon="13.934821228420775"><ele>478.0</ele><time>2026-04-11T13:37:02.95Z</time></trkpt><trkpt lat="45.57797177778083" lon="13.934956831595509"><ele>478.0</ele><time>2026-04-11T13:37:03.95Z</time></trkpt><trkpt lat="45.57777900660794" lon="13.93506668343621"><ele>478.0</ele><time>2026-04-11T13:37:04.95Z</time></trkpt><trkpt lat="45.57761225575153" lon="13.935168282329196"><ele>481.6666666666667</ele><time>2026-04-11T13:37:05.95Z</time></trkpt><trkpt lat="45.57742831907529" lon="13.935257687062284"><ele>485.33333333333337</ele><time>2026-04-11T13:37:06.95Z</time></trkpt><trkpt lat="45.577250924757145" lon="13.935337578538563"><ele>489.0</ele><time>2026-04-11T13:37:07.95Z</time></trkpt><trkpt lat="45.57707505341127" lon="13.93543591708167"><ele>485.33333333333337</ele><time>2026-04-11T13:37:08.95Z</time></trkpt><trkpt lat="45.57690295412386" lon="13.935541137484028"><ele>481.6666666666667</ele><time>2026-04-11T13:37:09.95Z</time></trkpt><trkpt lat="45.5767251764321" lon="13.935665262587438"><ele>478.0</ele><time>2026-04-11T13:37:10.95Z</time></trkpt><trkpt lat="45.57656751745133" lon="13.935825070713232"><ele>479.33333333333337</ele><time>2026-04-11T13:37:11.95Z</time></trkpt><trkpt lat="45.57639861371471" lon="13.93599077467523"><ele>480.66666666666663</ele><time>2026-04-11T13:37:12.95Z</time></trkpt><trkpt lat="45.57624840511676" lon="13.936176668698366"><ele>482.0</ele><time>2026-04-11T13:37:13.95Z</time></trkpt><trkpt lat="45.57607560771846" lon="13.936330476493879"><ele>482.0</ele><time>2026-04-11T13:37:14.95Z</time></trkpt><trkpt lat="45.57590481532056" lon="13.936431822211786"><ele>482.0</ele><time>2026-04-11T13:37:15.95Z</time></trkpt><trkpt lat="45.57574781774928" lon="13.936504551030652"><ele>482.0</ele><time>2026-04-11T13:37:16.95Z</time></trkpt><trkpt lat="45.575598451552544" lon="13.936558699631695"><ele>482.0</ele><time>2026-04-11T13:37:17.95Z</time></trkpt><trkpt lat="45.575452153056965" lon="13.93663374035755"><ele>482.0</ele><time>2026-04-11T13:37:18.95Z</time></trkpt><trkpt lat="45.57530306870891" lon="13.936714884646534"><ele>482.0</ele><time>2026-04-11T13:37:19.95Z</time></trkpt><trkpt lat="45.57516401900153" lon="13.936801278170666"><ele>485.0</ele><time>2026-04-11T13:37:20.95Z</time></trkpt><trkpt lat="45.575018400495985" lon="13.936829179518407"><ele>488.0</ele><time>2026-04-11T13:37:21.95Z</time></trkpt><trkpt lat="45.57488209484849" lon="13.936847396581786"><ele>491.0</ele><time>2026-04-11T13:37:22.95Z</time></trkpt><trkpt lat="45.574749950254414" lon="13.936852064121458"><ele>494.0</ele><time>2026-04-11T13:37:23.95Z</time></trkpt><trkpt lat="45.57464658562636" lon="13.936878257040867"><ele>493.99999999999994</ele><time>2026-04-11T13:37:24.95Z</time></trkpt><trkpt lat="45.57455185113536" lon="13.936859618938557"><ele>494.0</ele><time>2026-04-11T13:37:25.95Z</time></trkpt><trkpt lat="45.57446682042434" lon="13.936853834292005"><ele>494.0</ele><time>2026-04-11T13:37:26.95Z</time></trkpt><trkpt lat="45.574380234416054" lon="13.936845904366388"><ele>494.0</ele><time>2026-04-11T13:37:27.95Z</time></trkpt><trkpt lat="45.57429939664136" lon="13.93687269567607"><ele>493.99999999999994</ele><time>2026-04-11T13:37:28.95Z</time></trkpt><trkpt lat="45.57421544109424" lon="13.93694480138455"><ele>494.0</ele><time>2026-04-11T13:37:29.95Z</time></trkpt><trkpt lat="45.574101849484926" lon="13.937055183364786"><ele>491.75</ele><time>2026-04-11T13:37:30.95Z</time></trkpt><trkpt lat="45.573991545557014" lon="13.937176075816241"><ele>489.5</ele><time>2026-04-11T13:37:31.95Z</time></trkpt><trkpt lat="45.57387638592392" lon="13.937296548870115"><ele>487.25</ele><time>2026-04-11T13:37:32.95Z</time></trkpt><trkpt lat="45.573767870059406" lon="13.937417901917875"><ele>485.0</ele><time>2026-04-11T13:37:33.95Z</time></trkpt><trkpt lat="45.57364251074942" lon="13.937520956650731"><ele>483.0</ele><time>2026-04-11T13:37:34.95Z</time></trkpt><trkpt lat="45.57353397771607" lon="13.93764500714325"><ele>481.0</ele><time>2026-04-11T13:37:35.95Z</time></trkpt><trkpt lat="45.57342361436279" lon="13.937757922739019"><ele>479.0</ele><time>2026-04-11T13:37:36.95Z</time></trkpt><trkpt lat="45.573321003476856" lon="13.937876230430662"><ele>477.0</ele><time>2026-04-11T13:37:37.95Z</time></trkpt><trkpt lat="45.57325035607728" lon="13.937962029345577"><ele>477.0</ele><time>2026-04-11T13:37:38.95Z</time></trkpt><trkpt lat="45.57318567662619" lon="13.938066585624881"><ele>477.0</ele><time>2026-04-11T13:37:39.95Z</time></trkpt><trkpt lat="45.57311039953588" lon="13.93816921616789"><ele>477.0</ele><time>2026-04-11T13:37:40.95Z</time></trkpt><trkpt lat="45.572936101420275" lon="13.938340668468962"><ele>477.0</ele><time>2026-04-11T13:37:42.95Z</time></trkpt><trkpt lat="45.57285668841807" lon="13.938435716818537"><ele>478.0</ele><time>2026-04-11T13:37:43.95Z</time></trkpt><trkpt lat="45.572771317597834" lon="13.938524886625842"><ele>479.00000000000006</ele><time>2026-04-11T13:37:44.95Z</time></trkpt><trkpt lat="45.57269102502747" lon="13.938601001828712"><ele>480.00000000000006</ele><time>2026-04-11T13:37:45.95Z</time></trkpt><trkpt lat="45.572611094634254" lon="13.9386712870616"><ele>481.0</ele><time>2026-04-11T13:37:46.95Z</time></trkpt><trkpt lat="45.57252544506306" lon="13.938702323711261"><ele>482.0</ele><time>2026-04-11T13:37:47.95Z</time></trkpt><trkpt lat="45.57243899530242" lon="13.938708038001716"><ele>482.0</ele><time>2026-04-11T13:37:48.95Z</time></trkpt><trkpt lat="45.57235463901173" lon="13.938675896109512"><ele>482.00000000000006</ele><time>2026-04-11T13:37:49.95Z</time></trkpt><trkpt lat="45.57227169243162" lon="13.93865437079736"><ele>482.00000000000006</ele><time>2026-04-11T13:37:50.95Z</time></trkpt><trkpt lat="45.572176791849486" lon="13.938631112690985"><ele>482.0</ele><time>2026-04-11T13:37:51.95Z</time></trkpt><trkpt lat="45.57207379814906" lon="13.938608564181745"><ele>482.0</ele><time>2026-04-11T13:37:52.95Z</time></trkpt><trkpt lat="45.571968473147415" lon="13.938600484995815"><ele>479.40000000000003</ele><time>2026-04-11T13:37:53.95Z</time></trkpt><trkpt lat="45.57187078216142" lon="13.938602330406171"><ele>476.80000000000007</ele><time>2026-04-11T13:37:54.95Z</time></trkpt><trkpt lat="45.57176351517317" lon="13.938603778511325"><ele>474.2</ele><time>2026-04-11T13:37:55.95Z</time></trkpt><trkpt lat="45.571670504588376" lon="13.9386042470441"><ele>471.6</ele><time>2026-04-11T13:37:56.95Z</time></trkpt><trkpt lat="45.571586246012004" lon="13.938608035785746"><ele>469.0</ele><time>2026-04-11T13:37:57.95Z</time></trkpt><trkpt lat="45.571515030078054" lon="13.938600631888983"><ele>469.0</ele><time>2026-04-11T13:38:00.95Z</time></trkpt><trkpt lat="45.571451340904275" lon="13.938615519320443"><ele>469.0</ele><time>2026-04-11T13:38:03.95Z</time></trkpt><trkpt lat="45.57139523403374" lon="13.938699007559455"><ele>469.0</ele><time>2026-04-11T13:38:05.95Z</time></trkpt><trkpt lat="45.571331863559394" lon="13.938810295413871"><ele>469.0</ele><time>2026-04-11T13:38:07.95Z</time></trkpt><trkpt lat="45.571258483141044" lon="13.938862630361395"><ele>469.0</ele><time>2026-04-11T13:38:09.95Z</time></trkpt><trkpt lat="45.57111179405664" lon="13.938915855732848"><ele>468.83333333333337</ele><time>2026-04-11T13:38:11.95Z</time></trkpt><trkpt lat="45.571067093959584" lon="13.939001277773958"><ele>468.6666666666667</ele><time>2026-04-11T13:38:12.95Z</time></trkpt><trkpt lat="45.57100676313208" lon="13.939083378553734"><ele>468.5</ele><time>2026-04-11T13:38:13.95Z</time></trkpt><trkpt lat="45.570937604036914" lon="13.939174277563124"><ele>468.33333333333337</ele><time>2026-04-11T13:38:14.95Z</time></trkpt><trkpt lat="45.570862150024524" lon="13.939257591734663"><ele>468.1666666666667</ele><time>2026-04-11T13:38:15.95Z</time></trkpt><trkpt lat="45.570786955978576" lon="13.939351242665206"><ele>468.0</ele><time>2026-04-11T13:38:16.95Z</time></trkpt><trkpt lat="45.57069843927751" lon="13.939442680602257"><ele>469.5</ele><time>2026-04-11T13:38:17.95Z</time></trkpt><trkpt lat="45.57061375120674" lon="13.939514003628918"><ele>471.0</ele><time>2026-04-11T13:38:18.95Z</time></trkpt><trkpt lat="45.57054794264188" lon="13.93957546801419"><ele>472.5</ele><time>2026-04-11T13:38:19.95Z</time></trkpt><trkpt lat="45.570483658058265" lon="13.939645517290298"><ele>474.0</ele><time>2026-04-11T13:38:20.95Z</time></trkpt><trkpt lat="45.570422294805134" lon="13.939714791148084"><ele>475.5</ele><time>2026-04-11T13:38:21.95Z</time></trkpt><trkpt lat="45.57035031680596" lon="13.9398039800306"><ele>477.0</ele><time>2026-04-11T13:38:22.95Z</time></trkpt><trkpt lat="45.570284180600034" lon="13.939893286698823"><ele>477.0</ele><time>2026-04-11T13:38:23.95Z</time></trkpt><trkpt lat="45.57023584937724" lon="13.939991412332303"><ele>477.0</ele><time>2026-04-11T13:38:24.95Z</time></trkpt><trkpt lat="45.57018669169513" lon="13.940087842011957"><ele>477.0</ele><time>2026-04-11T13:38:25.95Z</time></trkpt><trkpt lat="45.570147786338794" lon="13.94016860718066"><ele>477.0</ele><time>2026-04-11T13:38:26.95Z</time></trkpt><trkpt lat="45.57009517399376" lon="13.94023037793123"><ele>477.0</ele><time>2026-04-11T13:38:27.95Z</time></trkpt><trkpt lat="45.57003968225956" lon="13.940305216822962"><ele>477.0</ele><time>2026-04-11T13:38:28.95Z</time></trkpt><trkpt lat="45.56996132938906" lon="13.940372045477037"><ele>479.0</ele><time>2026-04-11T13:38:29.95Z</time></trkpt><trkpt lat="45.569881856182505" lon="13.940435449403884"><ele>481.00000000000006</ele><time>2026-04-11T13:38:30.95Z</time></trkpt><trkpt lat="45.56979679904546" lon="13.940511244656687"><ele>483.00000000000006</ele><time>2026-04-11T13:38:31.95Z</time></trkpt><trkpt lat="45.569718166391084" lon="13.940575847376628"><ele>485.0</ele><time>2026-04-11T13:38:32.95Z</time></trkpt><trkpt lat="45.569627040946415" lon="13.940657538913806"><ele>487.0</ele><time>2026-04-11T13:38:33.95Z</time></trkpt><trkpt lat="45.56954357219964" lon="13.940742068971549"><ele>485.0</ele><time>2026-04-11T13:38:34.95Z</time></trkpt><trkpt lat="45.56945023227216" lon="13.940778116446445"><ele>483.00000000000006</ele><time>2026-04-11T13:38:35.95Z</time></trkpt><trkpt lat="45.56936109063787" lon="13.940817724962047"><ele>481.00000000000006</ele><time>2026-04-11T13:38:36.95Z</time></trkpt><trkpt lat="45.569282387687075" lon="13.940864076588142"><ele>479.0</ele><time>2026-04-11T13:38:37.95Z</time></trkpt><trkpt lat="45.56919347211259" lon="13.940871746062745"><ele>477.0</ele><time>2026-04-11T13:38:38.95Z</time></trkpt><trkpt lat="45.569104778949324" lon="13.94088117883651"><ele>477.0</ele><time>2026-04-11T13:38:39.95Z</time></trkpt><trkpt lat="45.56900101329103" lon="13.940873906092722"><ele>477.00000000000006</ele><time>2026-04-11T13:38:40.95Z</time></trkpt><trkpt lat="45.568883966564925" lon="13.940856362819204"><ele>477.00000000000006</ele><time>2026-04-11T13:38:41.95Z</time></trkpt><trkpt lat="45.568770252391" lon="13.940825529783407"><ele>477.0</ele><time>2026-04-11T13:38:42.952Z</time></trkpt><trkpt lat="45.56866888262467" lon="13.940778915942023"><ele>477.0</ele><time>2026-04-11T13:38:43.951Z</time></trkpt><trkpt lat="45.56855728078033" lon="13.940752417666365"><ele>475.6</ele><time>2026-04-11T13:38:44.951Z</time></trkpt><trkpt lat="45.56845463012568" lon="13.940753114352685"><ele>474.20000000000005</ele><time>2026-04-11T13:38:45.951Z</time></trkpt><trkpt lat="45.56836547203532" lon="13.94078931894652"><ele>472.8</ele><time>2026-04-11T13:38:46.951Z</time></trkpt><trkpt lat="45.56828401806892" lon="13.940843397705553"><ele>471.4</ele><time>2026-04-11T13:38:47.951Z</time></trkpt><trkpt lat="45.56818406070347" lon="13.940904158424363"><ele>470.0</ele><time>2026-04-11T13:38:48.952Z</time></trkpt><trkpt lat="45.56807628438323" lon="13.940974321806983"><ele>473.0</ele><time>2026-04-11T13:38:49.951Z</time></trkpt><trkpt lat="45.56796040526558" lon="13.941041217955906"><ele>476.0</ele><time>2026-04-11T13:38:50.951Z</time></trkpt><trkpt lat="45.56783975913175" lon="13.94110514629878"><ele>479.0</ele><time>2026-04-11T13:38:51.951Z</time></trkpt><trkpt lat="45.567728135869345" lon="13.941170276605249"><ele>482.0</ele><time>2026-04-11T13:38:52.952Z</time></trkpt><trkpt lat="45.56762953266311" lon="13.941215688399135"><ele>482.0</ele><time>2026-04-11T13:38:53.952Z</time></trkpt><trkpt lat="45.567540714576396" lon="13.941283308510974"><ele>482.0</ele><time>2026-04-11T13:38:54.952Z</time></trkpt><trkpt lat="45.567453141600076" lon="13.941381274863863"><ele>482.0</ele><time>2026-04-11T13:38:55.951Z</time></trkpt><trkpt lat="45.56734904004449" lon="13.941481856106057"><ele>482.0</ele><time>2026-04-11T13:38:56.951Z</time></trkpt><trkpt lat="45.56724332224182" lon="13.941574515303856"><ele>482.0</ele><time>2026-04-11T13:38:57.951Z</time></trkpt><trkpt lat="45.56712379616614" lon="13.941659759893673"><ele>482.0</ele><time>2026-04-11T13:38:58.951Z</time></trkpt><trkpt lat="45.56700927735218" lon="13.941727856251356"><ele>482.0</ele><time>2026-04-11T13:38:59.951Z</time></trkpt><trkpt lat="45.56688807802964" lon="13.941777141503753"><ele>482.0</ele><time>2026-04-11T13:39:00.951Z</time></trkpt><trkpt lat="45.56676300117634" lon="13.941801957373883"><ele>486.0</ele><time>2026-04-11T13:39:01.951Z</time></trkpt><trkpt lat="45.56664773716127" lon="13.941816667349624"><ele>490.0</ele><time>2026-04-11T13:39:02.951Z</time></trkpt><trkpt lat="45.56651559817531" lon="13.941808586955627"><ele>494.0</ele><time>2026-04-11T13:39:03.951Z</time></trkpt><trkpt lat="45.566388042787224" lon="13.94179425559166"><ele>498.0</ele><time>2026-04-11T13:39:04.951Z</time></trkpt><trkpt lat="45.566266752761464" lon="13.941805228938373"><ele>498.2</ele><time>2026-04-11T13:39:05.951Z</time></trkpt><trkpt lat="45.56616133697719" lon="13.941881624768424"><ele>498.4</ele><time>2026-04-11T13:39:06.951Z</time></trkpt><trkpt lat="45.566056351594895" lon="13.941908456270427"><ele>498.59999999999997</ele><time>2026-04-11T13:39:07.951Z</time></trkpt><trkpt lat="45.56595247256723" lon="13.941947777173802"><ele>498.79999999999995</ele><time>2026-04-11T13:39:08.951Z</time></trkpt><trkpt lat="45.56586446341279" lon="13.941980708664014"><ele>499.0</ele><time>2026-04-11T13:39:09.951Z</time></trkpt><trkpt lat="45.56577765794745" lon="13.942009036068264"><ele>499.00000000000006</ele><time>2026-04-11T13:39:10.951Z</time></trkpt><trkpt lat="45.56571284570862" lon="13.942005342273426"><ele>499.0</ele><time>2026-04-11T13:39:11.951Z</time></trkpt><trkpt lat="45.56561547758459" lon="13.941939260408526"><ele>499.0</ele><time>2026-04-11T13:39:13.951Z</time></trkpt><trkpt lat="45.56560673043118" lon="13.941786151109126"><ele>499.0</ele><time>2026-04-11T13:39:14.951Z</time></trkpt><trkpt lat="45.56554956092881" lon="13.94171446782832"><ele>499.00000000000006</ele><time>2026-04-11T13:39:15.951Z</time></trkpt><trkpt lat="45.56548892281591" lon="13.94163696110185"><ele>499.0</ele><time>2026-04-11T13:39:16.951Z</time></trkpt><trkpt lat="45.56541272333551" lon="13.941562413797202"><ele>498.2</ele><time>2026-04-11T13:39:17.951Z</time></trkpt><trkpt lat="45.565331955747304" lon="13.941508034222492"><ele>497.4</ele><time>2026-04-11T13:39:18.951Z</time></trkpt><trkpt lat="45.565253312250064" lon="13.941451904030021"><ele>496.6</ele><time>2026-04-11T13:39:19.951Z</time></trkpt><trkpt lat="45.56517382273766" lon="13.94140193811468"><ele>495.8</ele><time>2026-04-11T13:39:20.951Z</time></trkpt><trkpt lat="45.56509182982824" lon="13.94135591766135"><ele>495.0</ele><time>2026-04-11T13:39:21.951Z</time></trkpt><trkpt lat="45.56499539672134" lon="13.941319782869613"><ele>495.0</ele><time>2026-04-11T13:39:22.951Z</time></trkpt><trkpt lat="45.564902935620765" lon="13.941293023222702"><ele>495.0</ele><time>2026-04-11T13:39:23.951Z</time></trkpt><trkpt lat="45.56481062235427" lon="13.941276892305007"><ele>495.0</ele><time>2026-04-11T13:39:24.95Z</time></trkpt><trkpt lat="45.56472736650233" lon="13.941264997508712"><ele>495.0</ele><time>2026-04-11T13:39:25.95Z</time></trkpt><trkpt lat="45.56463754703864" lon="13.941270663896283"><ele>495.0</ele><time>2026-04-11T13:39:26.95Z</time></trkpt><trkpt lat="45.56454336694918" lon="13.941275901522395"><ele>494.8</ele><time>2026-04-11T13:39:27.95Z</time></trkpt><trkpt lat="45.5644544483168" lon="13.941280716502341"><ele>494.6</ele><time>2026-04-11T13:39:28.95Z</time></trkpt><trkpt lat="45.564369331476684" lon="13.941272189252407"><ele>494.4</ele><time>2026-04-11T13:39:29.95Z</time></trkpt><trkpt lat="45.564279917978205" lon="13.941236514452903"><ele>494.2</ele><time>2026-04-11T13:39:30.95Z</time></trkpt><trkpt lat="45.5641855523806" lon="13.941196317845169"><ele>494.0</ele><time>2026-04-11T13:39:31.95Z</time></trkpt><trkpt lat="45.564088519208376" lon="13.941169186188205"><ele>494.0</ele><time>2026-04-11T13:39:32.95Z</time></trkpt><trkpt lat="45.563984499226585" lon="13.941150398032832"><ele>494.0</ele><time>2026-04-11T13:39:33.95Z</time></trkpt><trkpt lat="45.56389145898397" lon="13.941208543817767"><ele>494.0</ele><time>2026-04-11T13:39:34.95Z</time></trkpt><trkpt lat="45.563774591639856" lon="13.941229197664347"><ele>494.0</ele><time>2026-04-11T13:39:35.95Z</time></trkpt><trkpt lat="45.56365665177905" lon="13.941303153516404"><ele>493.25</ele><time>2026-04-11T13:39:36.95Z</time></trkpt><trkpt lat="45.56353830570619" lon="13.941356891675657"><ele>492.5</ele><time>2026-04-11T13:39:37.95Z</time></trkpt><trkpt lat="45.56342632407748" lon="13.94142271676725"><ele>491.75</ele><time>2026-04-11T13:39:38.95Z</time></trkpt><trkpt lat="45.56331910195948" lon="13.941493929601535"><ele>491.0</ele><time>2026-04-11T13:39:39.95Z</time></trkpt><trkpt lat="45.56320289040638" lon="13.94154778467997"><ele>491.0</ele><time>2026-04-11T13:39:40.95Z</time></trkpt><trkpt lat="45.5630838078153" lon="13.94158158814202"><ele>491.0</ele><time>2026-04-11T13:39:41.95Z</time></trkpt><trkpt lat="45.56296734859823" lon="13.941629485060473"><ele>491.0</ele><time>2026-04-11T13:39:42.95Z</time></trkpt><trkpt lat="45.56285280495478" lon="13.941684507426954"><ele>491.0</ele><time>2026-04-11T13:39:43.95Z</time></trkpt><trkpt lat="45.562746386293185" lon="13.941743392765995"><ele>491.75</ele><time>2026-04-11T13:39:44.95Z</time></trkpt><trkpt lat="45.56264092982205" lon="13.941795934459298"><ele>492.5</ele><time>2026-04-11T13:39:45.95Z</time></trkpt><trkpt lat="45.56252804039309" lon="13.94183560338445"><ele>493.25</ele><time>2026-04-11T13:39:46.95Z</time></trkpt><trkpt lat="45.56240978412305" lon="13.941860067202818"><ele>494.0</ele><time>2026-04-11T13:39:47.95Z</time></trkpt><trkpt lat="45.562282373400485" lon="13.941878336007068"><ele>494.0</ele><time>2026-04-11T13:39:48.95Z</time></trkpt><trkpt lat="45.56215179717486" lon="13.941894923577689"><ele>494.0</ele><time>2026-04-11T13:39:49.95Z</time></trkpt><trkpt lat="45.56201677626687" lon="13.941953652168245"><ele>494.0</ele><time>2026-04-11T13:39:50.95Z</time></trkpt><trkpt lat="45.5618859983126" lon="13.94202574171567"><ele>494.0</ele><time>2026-04-11T13:39:51.95Z</time></trkpt><trkpt lat="45.56175862534543" lon="13.942079614504378"><ele>493.4</ele><time>2026-04-11T13:39:52.95Z</time></trkpt><trkpt lat="45.56164300931653" lon="13.942129425791931"><ele>492.79999999999995</ele><time>2026-04-11T13:39:53.95Z</time></trkpt><trkpt lat="45.56154309693051" lon="13.942163808192541"><ele>492.20000000000005</ele><time>2026-04-11T13:39:54.95Z</time></trkpt><trkpt lat="45.56144101067475" lon="13.94216311381068"><ele>491.6</ele><time>2026-04-11T13:39:55.95Z</time></trkpt><trkpt lat="45.56133043157413" lon="13.942131336941523"><ele>491.0</ele><time>2026-04-11T13:39:56.95Z</time></trkpt><trkpt lat="45.56120082726384" lon="13.942080369449219"><ele>491.20000000000005</ele><time>2026-04-11T13:39:57.95Z</time></trkpt><trkpt lat="45.56106810373625" lon="13.9420378157522"><ele>491.40000000000003</ele><time>2026-04-11T13:39:58.95Z</time></trkpt><trkpt lat="45.56095519990567" lon="13.941999816357448"><ele>491.6</ele><time>2026-04-11T13:39:59.95Z</time></trkpt><trkpt lat="45.56085923408178" lon="13.941964719677882"><ele>491.8</ele><time>2026-04-11T13:40:00.95Z</time></trkpt><trkpt lat="45.56079088121257" lon="13.941937325482808"><ele>492.0</ele><time>2026-04-11T13:40:01.95Z</time></trkpt><trkpt lat="45.56069324804283" lon="13.9419740530871"><ele>492.0</ele><time>2026-04-11T13:40:03.95Z</time></trkpt><trkpt lat="45.56062825065709" lon="13.942095477616295"><ele>492.00000000000006</ele><time>2026-04-11T13:40:05.95Z</time></trkpt><trkpt lat="45.56057199885185" lon="13.942235839172065"><ele>492.00000000000006</ele><time>2026-04-11T13:40:07.95Z</time></trkpt><trkpt lat="45.56051964467836" lon="13.942306535974136"><ele>492.0</ele><time>2026-04-11T13:40:08.95Z</time></trkpt><trkpt lat="45.560448842322714" lon="13.942335658321433"><ele>492.0</ele><time>2026-04-11T13:40:09.95Z</time></trkpt><trkpt lat="45.560353290604894" lon="13.942371921463915"><ele>491.40000000000003</ele><time>2026-04-11T13:40:10.95Z</time></trkpt><trkpt lat="45.56025492558376" lon="13.942415486990193"><ele>490.80000000000007</ele><time>2026-04-11T13:40:11.95Z</time></trkpt><trkpt lat="45.560154112787636" lon="13.942478568993797"><ele>490.2</ele><time>2026-04-11T13:40:12.95Z</time></trkpt><trkpt lat="45.56005684034122" lon="13.942551563524342"><ele>489.6</ele><time>2026-04-11T13:40:13.95Z</time></trkpt><trkpt lat="45.559955060561315" lon="13.94262543004485"><ele>489.0</ele><time>2026-04-11T13:40:14.95Z</time></trkpt><trkpt lat="45.55985116419191" lon="13.94268737202473"><ele>489.75</ele><time>2026-04-11T13:40:15.95Z</time></trkpt><trkpt lat="45.55974463993322" lon="13.942739199983164"><ele>490.5</ele><time>2026-04-11T13:40:16.95Z</time></trkpt><trkpt lat="45.55963460711388" lon="13.942792518089613"><ele>491.25</ele><time>2026-04-11T13:40:17.95Z</time></trkpt><trkpt lat="45.559531992087535" lon="13.942848372476234"><ele>492.0</ele><time>2026-04-11T13:40:18.95Z</time></trkpt><trkpt lat="45.559428863916" lon="13.942916854213347"><ele>492.0</ele><time>2026-04-11T13:40:19.95Z</time></trkpt><trkpt lat="45.55934416401494" lon="13.943017626628329"><ele>492.0</ele><time>2026-04-11T13:40:20.95Z</time></trkpt><trkpt lat="45.55924434857017" lon="13.943108333993917"><ele>492.0</ele><time>2026-04-11T13:40:21.95Z</time></trkpt><trkpt lat="45.55912238174232" lon="13.943170220320528"><ele>492.0</ele><time>2026-04-11T13:40:22.95Z</time></trkpt><trkpt lat="45.559013151369335" lon="13.943276168723287"><ele>492.0</ele><time>2026-04-11T13:40:23.95Z</time></trkpt><trkpt lat="45.55888779401039" lon="13.943372891753745"><ele>492.0</ele><time>2026-04-11T13:40:24.95Z</time></trkpt><trkpt lat="45.55875358812232" lon="13.943435029039632"><ele>492.0</ele><time>2026-04-11T13:40:25.95Z</time></trkpt><trkpt lat="45.5586235180801" lon="13.943504566517447"><ele>492.0</ele><time>2026-04-11T13:40:26.95Z</time></trkpt><trkpt lat="45.55850868540752" lon="13.94356473393496"><ele>492.75</ele><time>2026-04-11T13:40:27.95Z</time></trkpt><trkpt lat="45.55837772944265" lon="13.943624071182818"><ele>493.5</ele><time>2026-04-11T13:40:28.95Z</time></trkpt><trkpt lat="45.55825901317523" lon="13.943675073503732"><ele>494.25</ele><time>2026-04-11T13:40:29.95Z</time></trkpt><trkpt lat="45.55815567811187" lon="13.943755370033031"><ele>495.0</ele><time>2026-04-11T13:40:30.95Z</time></trkpt><trkpt lat="45.5580486535035" lon="13.94382045752655"><ele>495.0</ele><time>2026-04-11T13:40:31.95Z</time></trkpt><trkpt lat="45.55794266193189" lon="13.943899285220514"><ele>495.0</ele><time>2026-04-11T13:40:32.95Z</time></trkpt><trkpt lat="45.55781707625545" lon="13.943968886178133"><ele>495.0</ele><time>2026-04-11T13:40:33.95Z</time></trkpt><trkpt lat="45.5577189554049" lon="13.944074533696837"><ele>495.0</ele><time>2026-04-11T13:40:34.95Z</time></trkpt><trkpt lat="45.5576226113833" lon="13.944157291988551"><ele>495.0</ele><time>2026-04-11T13:40:35.95Z</time></trkpt><trkpt lat="45.55752044734195" lon="13.944246706166444"><ele>495.0</ele><time>2026-04-11T13:40:36.95Z</time></trkpt><trkpt lat="45.55740364096831" lon="13.94434994270928"><ele>495.0</ele><time>2026-04-11T13:40:37.95Z</time></trkpt><trkpt lat="45.55727398839229" lon="13.944434051110417"><ele>495.0</ele><time>2026-04-11T13:40:38.95Z</time></trkpt><trkpt lat="45.55714617201698" lon="13.944542833006357"><ele>493.75</ele><time>2026-04-11T13:40:39.95Z</time></trkpt><trkpt lat="45.557032316519084" lon="13.944666329444063"><ele>492.5</ele><time>2026-04-11T13:40:40.95Z</time></trkpt><trkpt lat="45.55690279409547" lon="13.944782952368703"><ele>491.25</ele><time>2026-04-11T13:40:41.95Z</time></trkpt><trkpt lat="45.55676534880259" lon="13.944875366031994"><ele>490.0</ele><time>2026-04-11T13:40:42.95Z</time></trkpt><trkpt lat="45.556642008764086" lon="13.94500443319936"><ele>491.5</ele><time>2026-04-11T13:40:43.95Z</time></trkpt><trkpt lat="45.55650615095437" lon="13.945093724578774"><ele>493.0</ele><time>2026-04-11T13:40:44.95Z</time></trkpt><trkpt lat="45.55638319664834" lon="13.94519492902753"><ele>494.5</ele><time>2026-04-11T13:40:45.95Z</time></trkpt><trkpt lat="45.55626552558518" lon="13.945266597261382"><ele>496.0</ele><time>2026-04-11T13:40:46.95Z</time></trkpt><trkpt lat="45.55614736483335" lon="13.945302957406414"><ele>496.0</ele><time>2026-04-11T13:40:47.95Z</time></trkpt><trkpt lat="45.55603811558783" lon="13.9453460824695"><ele>496.0</ele><time>2026-04-11T13:40:48.952Z</time></trkpt><trkpt lat="45.5559292680274" lon="13.945379642592204"><ele>496.0</ele><time>2026-04-11T13:40:49.952Z</time></trkpt><trkpt lat="45.555817613067276" lon="13.945399919089853"><ele>496.0</ele><time>2026-04-11T13:40:50.952Z</time></trkpt><trkpt lat="45.55570676440051" lon="13.945402537050818"><ele>496.0</ele><time>2026-04-11T13:40:51.952Z</time></trkpt><trkpt lat="45.55560002703043" lon="13.94539598937619"><ele>496.0</ele><time>2026-04-11T13:40:52.952Z</time></trkpt><trkpt lat="45.555466689938996" lon="13.945388422303846"><ele>496.0</ele><time>2026-04-11T13:40:53.952Z</time></trkpt><trkpt lat="45.555313171381876" lon="13.94538619565196"><ele>496.0</ele><time>2026-04-11T13:40:54.952Z</time></trkpt><trkpt lat="45.5551770739045" lon="13.945381511814258"><ele>496.0</ele><time>2026-04-11T13:40:55.952Z</time></trkpt><trkpt lat="45.55506395990054" lon="13.945383008550163"><ele>495.83333333333337</ele><time>2026-04-11T13:40:56.952Z</time></trkpt><trkpt lat="45.55497845238353" lon="13.945352841667868"><ele>495.6666666666667</ele><time>2026-04-11T13:40:57.952Z</time></trkpt><trkpt lat="45.554895518209506" lon="13.94534168103108"><ele>495.5</ele><time>2026-04-11T13:40:58.952Z</time></trkpt><trkpt lat="45.55482274025162" lon="13.945329646182175"><ele>495.33333333333337</ele><time>2026-04-11T13:40:59.952Z</time></trkpt><trkpt lat="45.554757653585504" lon="13.945316483809869"><ele>495.1666666666667</ele><time>2026-04-11T13:41:00.953Z</time></trkpt><trkpt lat="45.55469302050556" lon="13.945300239434346"><ele>495.0</ele><time>2026-04-11T13:41:01.953Z</time></trkpt><trkpt lat="45.554616432700406" lon="13.945278300458058"><ele>495.0</ele><time>2026-04-11T13:41:02.953Z</time></trkpt><trkpt lat="45.5545458784993" lon="13.945258089841193"><ele>495.0</ele><time>2026-04-11T13:41:03.953Z</time></trkpt><trkpt lat="45.554467774484046" lon="13.945235716541745"><ele>495.0</ele><time>2026-04-11T13:41:04.953Z</time></trkpt><trkpt lat="45.55436434759964" lon="13.94520950569209"><ele>495.0</ele><time>2026-04-11T13:41:05.953Z</time></trkpt><trkpt lat="45.554264549329815" lon="13.945181844804498"><ele>495.0</ele><time>2026-04-11T13:41:06.953Z</time></trkpt><trkpt lat="45.554137151324895" lon="13.945151677683375"><ele>495.5</ele><time>2026-04-11T13:41:07.954Z</time></trkpt><trkpt lat="45.55400340082434" lon="13.945139315773844"><ele>496.0</ele><time>2026-04-11T13:41:08.954Z</time></trkpt><trkpt lat="45.553890855198546" lon="13.945129990837659"><ele>496.5</ele><time>2026-04-11T13:41:09.954Z</time></trkpt><trkpt lat="45.55377693494325" lon="13.94512216383596"><ele>497.0</ele><time>2026-04-11T13:41:10.954Z</time></trkpt><trkpt lat="45.55365889596322" lon="13.945115724508259"><ele>497.0</ele><time>2026-04-11T13:41:11.954Z</time></trkpt><trkpt lat="45.553553112545586" lon="13.945120205804841"><ele>497.0</ele><time>2026-04-11T13:41:12.954Z</time></trkpt><trkpt lat="45.55343842431127" lon="13.945129839150367"><ele>497.0</ele><time>2026-04-11T13:41:13.954Z</time></trkpt><trkpt lat="45.5533224449974" lon="13.945128425492895"><ele>497.0</ele><time>2026-04-11T13:41:14.954Z</time></trkpt><trkpt lat="45.55320858731061" lon="13.94513167209541"><ele>497.0</ele><time>2026-04-11T13:41:15.954Z</time></trkpt><trkpt lat="45.55307929438254" lon="13.945112105592115"><ele>497.0</ele><time>2026-04-11T13:41:16.954Z</time></trkpt><trkpt lat="45.552941034322515" lon="13.94511806422496"><ele>497.0</ele><time>2026-04-11T13:41:17.955Z</time></trkpt><trkpt lat="45.55279128142745" lon="13.945096565291836"><ele>497.0</ele><time>2026-04-11T13:41:18.955Z</time></trkpt><trkpt lat="45.55264036715107" lon="13.945089348364213"><ele>497.0</ele><time>2026-04-11T13:41:19.955Z</time></trkpt><trkpt lat="45.55250811790186" lon="13.94509765775382"><ele>497.0</ele><time>2026-04-11T13:41:20.955Z</time></trkpt><trkpt lat="45.55239044953387" lon="13.94504820559844"><ele>497.0</ele><time>2026-04-11T13:41:21.955Z</time></trkpt><trkpt lat="45.55226167228394" lon="13.94502249339321"><ele>497.0</ele><time>2026-04-11T13:41:22.955Z</time></trkpt><trkpt lat="45.552138575131565" lon="13.94500352492842"><ele>495.0</ele><time>2026-04-11T13:41:23.955Z</time></trkpt><trkpt lat="45.55202581927994" lon="13.944995417487338"><ele>493.0</ele><time>2026-04-11T13:41:24.955Z</time></trkpt><trkpt lat="45.55190145901619" lon="13.94500653835197"><ele>491.0</ele><time>2026-04-11T13:41:25.955Z</time></trkpt><trkpt lat="45.55176303652076" lon="13.944987196007462"><ele>489.0</ele><time>2026-04-11T13:41:26.955Z</time></trkpt><trkpt lat="45.55162704616511" lon="13.944993718859553"><ele>489.0</ele><time>2026-04-11T13:41:27.955Z</time></trkpt><trkpt lat="45.55148868693787" lon="13.944976088227897"><ele>489.0</ele><time>2026-04-11T13:41:28.955Z</time></trkpt><trkpt lat="45.55137012946369" lon="13.944952350345629"><ele>489.0</ele><time>2026-04-11T13:41:29.955Z</time></trkpt><trkpt lat="45.551229206195174" lon="13.944933898023681"><ele>489.0</ele><time>2026-04-11T13:41:30.955Z</time></trkpt><trkpt lat="45.55106942909296" lon="13.944930297607561"><ele>488.33333333333337</ele><time>2026-04-11T13:41:31.955Z</time></trkpt><trkpt lat="45.5509200554619" lon="13.944926962990008"><ele>487.6666666666667</ele><time>2026-04-11T13:41:32.955Z</time></trkpt><trkpt lat="45.55077566585285" lon="13.94489740731324"><ele>487.0</ele><time>2026-04-11T13:41:33.955Z</time></trkpt><trkpt lat="45.550619237680955" lon="13.944867575313046"><ele>487.0</ele><time>2026-04-11T13:41:34.955Z</time></trkpt><trkpt lat="45.55045328161064" lon="13.944848174441027"><ele>487.0</ele><time>2026-04-11T13:41:35.955Z</time></trkpt><trkpt lat="45.55028506306183" lon="13.944836683916312"><ele>487.0</ele><time>2026-04-11T13:41:36.955Z</time></trkpt><trkpt lat="45.55009952124228" lon="13.944839896343932"><ele>486.6666666666667</ele><time>2026-04-11T13:41:37.955Z</time></trkpt><trkpt lat="45.54988864660704" lon="13.944832828642346"><ele>486.33333333333337</ele><time>2026-04-11T13:41:38.955Z</time></trkpt><trkpt lat="45.54971853545402" lon="13.944822988480965"><ele>486.0</ele><time>2026-04-11T13:41:39.955Z</time></trkpt><trkpt lat="45.5495626103684" lon="13.944795165997212"><ele>485.75</ele><time>2026-04-11T13:41:40.955Z</time></trkpt><trkpt lat="45.5494107917242" lon="13.944784326232579"><ele>485.5</ele><time>2026-04-11T13:41:41.955Z</time></trkpt><trkpt lat="45.54927856110706" lon="13.944795598103125"><ele>485.25</ele><time>2026-04-11T13:41:42.955Z</time></trkpt><trkpt lat="45.549161165193695" lon="13.944787780044432"><ele>485.0</ele><time>2026-04-11T13:41:43.955Z</time></trkpt><trkpt lat="45.54904237090601" lon="13.944794444405652"><ele>485.0</ele><time>2026-04-11T13:41:44.955Z</time></trkpt><trkpt lat="45.548901425504276" lon="13.944809197360271"><ele>485.0</ele><time>2026-04-11T13:41:45.955Z</time></trkpt><trkpt lat="45.54874119851671" lon="13.944846700639514"><ele>485.0</ele><time>2026-04-11T13:41:46.955Z</time></trkpt><trkpt lat="45.548570678602054" lon="13.9448642240551"><ele>483.66666666666663</ele><time>2026-04-11T13:41:47.955Z</time></trkpt><trkpt lat="45.548395992963435" lon="13.944897133672807"><ele>482.33333333333337</ele><time>2026-04-11T13:41:48.955Z</time></trkpt><trkpt lat="45.548240082778086" lon="13.944917986390465"><ele>481.0</ele><time>2026-04-11T13:41:49.955Z</time></trkpt><trkpt lat="45.548082005082556" lon="13.944935215807199"><ele>481.0</ele><time>2026-04-11T13:41:50.955Z</time></trkpt><trkpt lat="45.54793709735897" lon="13.944963218277591"><ele>481.0</ele><time>2026-04-11T13:41:51.955Z</time></trkpt><trkpt lat="45.54779702108589" lon="13.94499166432778"><ele>481.0</ele><time>2026-04-11T13:41:52.955Z</time></trkpt><trkpt lat="45.54764857606506" lon="13.945010369600697"><ele>481.0</ele><time>2026-04-11T13:41:53.955Z</time></trkpt><trkpt lat="45.547508048977136" lon="13.945047851657026"><ele>481.5</ele><time>2026-04-11T13:41:54.955Z</time></trkpt><trkpt lat="45.54737634052558" lon="13.945106487402965"><ele>482.0</ele><time>2026-04-11T13:41:55.955Z</time></trkpt><trkpt lat="45.54725637990343" lon="13.945164289674604"><ele>482.5</ele><time>2026-04-11T13:41:56.955Z</time></trkpt><trkpt lat="45.54714032770173" lon="13.94520713842483"><ele>483.0</ele><time>2026-04-11T13:41:57.955Z</time></trkpt><trkpt lat="45.54701570647317" lon="13.9452352294805"><ele>483.0</ele><time>2026-04-11T13:41:58.955Z</time></trkpt><trkpt lat="45.5468648155713" lon="13.945252687138606"><ele>483.0</ele><time>2026-04-11T13:41:59.955Z</time></trkpt><trkpt lat="45.54673923551472" lon="13.945279303706197"><ele>483.0</ele><time>2026-04-11T13:42:00.955Z</time></trkpt><trkpt lat="45.54662132792359" lon="13.945308526329397"><ele>483.0</ele><time>2026-04-11T13:42:01.955Z</time></trkpt><trkpt lat="45.54649660141775" lon="13.94531310431893"><ele>483.0</ele><time>2026-04-11T13:42:02.955Z</time></trkpt><trkpt lat="45.546368421361" lon="13.945271878176008"><ele>483.0</ele><time>2026-04-11T13:42:03.955Z</time></trkpt><trkpt lat="45.5462225267147" lon="13.945273931390219"><ele>483.0</ele><time>2026-04-11T13:42:04.955Z</time></trkpt><trkpt lat="45.5460724291743" lon="13.945251829209708"><ele>483.0</ele><time>2026-04-11T13:42:05.955Z</time></trkpt><trkpt lat="45.545911546239424" lon="13.945258272805754"><ele>483.0</ele><time>2026-04-11T13:42:06.955Z</time></trkpt><trkpt lat="45.54576886330986" lon="13.945244078159003"><ele>483.0</ele><time>2026-04-11T13:42:07.955Z</time></trkpt><trkpt lat="45.54563195861323" lon="13.945238239952143"><ele>483.0</ele><time>2026-04-11T13:42:08.955Z</time></trkpt><trkpt lat="45.54547443918688" lon="13.945203127939305"><ele>483.0</ele><time>2026-04-11T13:42:09.955Z</time></trkpt><trkpt lat="45.54531431972332" lon="13.945178406621242"><ele>483.0</ele><time>2026-04-11T13:42:10.955Z</time></trkpt><trkpt lat="45.54514062068904" lon="13.945155482483168"><ele>483.0</ele><time>2026-04-11T13:42:11.955Z</time></trkpt><trkpt lat="45.54498346292084" lon="13.94514415466716"><ele>483.0</ele><time>2026-04-11T13:42:12.955Z</time></trkpt><trkpt lat="45.54483922818945" lon="13.945140313383007"><ele>483.0</ele><time>2026-04-11T13:42:13.955Z</time></trkpt><trkpt lat="45.544714538725366" lon="13.945118953820444"><ele>483.0</ele><time>2026-04-11T13:42:14.955Z</time></trkpt><trkpt lat="45.54457013277261" lon="13.945075493862095"><ele>483.0</ele><time>2026-04-11T13:42:15.955Z</time></trkpt><trkpt lat="45.54440949551452" lon="13.945018495695594"><ele>483.0</ele><time>2026-04-11T13:42:16.955Z</time></trkpt><trkpt lat="45.544232878472805" lon="13.944946851457255"><ele>483.25</ele><time>2026-04-11T13:42:17.955Z</time></trkpt><trkpt lat="45.54407342854839" lon="13.944890946669467"><ele>483.5</ele><time>2026-04-11T13:42:18.955Z</time></trkpt><trkpt lat="45.543939212755824" lon="13.944840828275662"><ele>483.75</ele><time>2026-04-11T13:42:19.955Z</time></trkpt><trkpt lat="45.54380798138268" lon="13.94479517316633"><ele>484.0</ele><time>2026-04-11T13:42:20.955Z</time></trkpt><trkpt lat="45.54367358708879" lon="13.94476291947715"><ele>484.25</ele><time>2026-04-11T13:42:21.955Z</time></trkpt><trkpt lat="45.54353703736102" lon="13.94474598113777"><ele>484.5</ele><time>2026-04-11T13:42:22.955Z</time></trkpt><trkpt lat="45.5433909868592" lon="13.944755564563097"><ele>484.75</ele><time>2026-04-11T13:42:23.955Z</time></trkpt><trkpt lat="45.54324687929577" lon="13.944776988021117"><ele>485.0</ele><time>2026-04-11T13:42:24.955Z</time></trkpt><trkpt lat="45.54310680863018" lon="13.944800830184029"><ele>485.0</ele><time>2026-04-11T13:42:25.955Z</time></trkpt><trkpt lat="45.542975966820045" lon="13.944794814891152"><ele>485.0</ele><time>2026-04-11T13:42:26.955Z</time></trkpt><trkpt lat="45.542836366957566" lon="13.944770254382346"><ele>485.0</ele><time>2026-04-11T13:42:27.955Z</time></trkpt><trkpt lat="45.5426997308484" lon="13.944721014149247"><ele>485.0</ele><time>2026-04-11T13:42:28.955Z</time></trkpt><trkpt lat="45.54257819945786" lon="13.944669255181019"><ele>485.4</ele><time>2026-04-11T13:42:29.955Z</time></trkpt><trkpt lat="45.5424637981878" lon="13.944642137347547"><ele>485.8</ele><time>2026-04-11T13:42:30.955Z</time></trkpt><trkpt lat="45.542357613205766" lon="13.944659140741738"><ele>486.20000000000005</ele><time>2026-04-11T13:42:31.955Z</time></trkpt><trkpt lat="45.54224126263797" lon="13.94464424857376"><ele>486.6</ele><time>2026-04-11T13:42:32.955Z</time></trkpt><trkpt lat="45.54213481495556" lon="13.944612293380994"><ele>487.0</ele><time>2026-04-11T13:42:33.955Z</time></trkpt><trkpt lat="45.54200848536117" lon="13.944572369351702"><ele>487.0</ele><time>2026-04-11T13:42:34.955Z</time></trkpt><trkpt lat="45.54186473074047" lon="13.944530738110485"><ele>487.0</ele><time>2026-04-11T13:42:35.955Z</time></trkpt><trkpt lat="45.541700384440276" lon="13.944494031113228"><ele>487.0</ele><time>2026-04-11T13:42:36.955Z</time></trkpt><trkpt lat="45.54154538627981" lon="13.944477159000156"><ele>487.0</ele><time>2026-04-11T13:42:37.955Z</time></trkpt><trkpt lat="45.54138242889014" lon="13.944473287990334"><ele>487.0</ele><time>2026-04-11T13:42:38.955Z</time></trkpt><trkpt lat="45.541208350624984" lon="13.944487133538965"><ele>487.0</ele><time>2026-04-11T13:42:39.955Z</time></trkpt><trkpt lat="45.541017482390025" lon="13.944482919485393"><ele>487.0</ele><time>2026-04-11T13:42:40.955Z</time></trkpt><trkpt lat="45.540843972188675" lon="13.94445643388524"><ele>487.0</ele><time>2026-04-11T13:42:41.955Z</time></trkpt><trkpt lat="45.540661306978784" lon="13.944436047099448"><ele>487.0</ele><time>2026-04-11T13:42:42.955Z</time></trkpt><trkpt lat="45.5404782879492" lon="13.944416355795939"><ele>487.5</ele><time>2026-04-11T13:42:43.955Z</time></trkpt><trkpt lat="45.54032827347789" lon="13.94442149997301"><ele>488.0</ele><time>2026-04-11T13:42:44.955Z</time></trkpt><trkpt lat="45.540189759896336" lon="13.944413828087505"><ele>488.5</ele><time>2026-04-11T13:42:45.955Z</time></trkpt><trkpt lat="45.540064813374414" lon="13.944431954942235"><ele>489.0</ele><time>2026-04-11T13:42:46.955Z</time></trkpt><trkpt lat="45.53993933409512" lon="13.944436560555024"><ele>489.0</ele><time>2026-04-11T13:42:47.955Z</time></trkpt><trkpt lat="45.539810000880244" lon="13.944432393121536"><ele>489.0</ele><time>2026-04-11T13:42:48.955Z</time></trkpt><trkpt lat="45.53964261926586" lon="13.944426474142231"><ele>489.0</ele><time>2026-04-11T13:42:49.955Z</time></trkpt><trkpt lat="45.53948662527659" lon="13.944398429735859"><ele>488.0</ele><time>2026-04-11T13:42:50.955Z</time></trkpt><trkpt lat="45.53916402588881" lon="13.944329873576612"><ele>487.0</ele><time>2026-04-11T13:42:52.955Z</time></trkpt><trkpt lat="45.53900126217852" lon="13.944293181204683"><ele>487.0</ele><time>2026-04-11T13:42:53.955Z</time></trkpt><trkpt lat="45.5388699103603" lon="13.944269362129228"><ele>487.0</ele><time>2026-04-11T13:42:54.956Z</time></trkpt><trkpt lat="45.538719715745046" lon="13.944252659828186"><ele>487.0</ele><time>2026-04-11T13:42:55.956Z</time></trkpt><trkpt lat="45.5385812466551" lon="13.944244718827434"><ele>487.0</ele><time>2026-04-11T13:42:56.956Z</time></trkpt><trkpt lat="45.53844159016052" lon="13.94423471646082"><ele>486.75</ele><time>2026-04-11T13:42:57.956Z</time></trkpt><trkpt lat="45.53829313445561" lon="13.944243056749709"><ele>486.5</ele><time>2026-04-11T13:42:58.956Z</time></trkpt><trkpt lat="45.53815994864444" lon="13.944241243808067"><ele>486.25</ele><time>2026-04-11T13:42:59.956Z</time></trkpt><trkpt lat="45.53801114792111" lon="13.9442021378894"><ele>486.0</ele><time>2026-04-11T13:43:00.956Z</time></trkpt><trkpt lat="45.537871071368045" lon="13.94419364035772"><ele>487.0</ele><time>2026-04-11T13:43:01.956Z</time></trkpt><trkpt lat="45.53773431485312" lon="13.944168680726115"><ele>488.0</ele><time>2026-04-11T13:43:02.956Z</time></trkpt><trkpt lat="45.53758938029024" lon="13.9441598368017"><ele>489.0</ele><time>2026-04-11T13:43:03.956Z</time></trkpt><trkpt lat="45.53744135209184" lon="13.944176901479507"><ele>490.0</ele><time>2026-04-11T13:43:04.956Z</time></trkpt><trkpt lat="45.537282739565434" lon="13.94420871568266"><ele>490.0</ele><time>2026-04-11T13:43:05.956Z</time></trkpt><trkpt lat="45.53710752933163" lon="13.944204083222239"><ele>490.0</ele><time>2026-04-11T13:43:06.956Z</time></trkpt><trkpt lat="45.53694350718172" lon="13.944216862275077"><ele>490.0</ele><time>2026-04-11T13:43:07.956Z</time></trkpt><trkpt lat="45.536782475539724" lon="13.944238920522437"><ele>490.0</ele><time>2026-04-11T13:43:08.956Z</time></trkpt><trkpt lat="45.53666385309483" lon="13.944283244468423"><ele>490.0</ele><time>2026-04-11T13:43:09.956Z</time></trkpt><trkpt lat="45.53654463203963" lon="13.944304527176365"><ele>490.0</ele><time>2026-04-11T13:43:10.956Z</time></trkpt><trkpt lat="45.536442309809594" lon="13.944318504444835"><ele>490.0</ele><time>2026-04-11T13:43:11.956Z</time></trkpt><trkpt lat="45.53634834974461" lon="13.944312257421533"><ele>490.0</ele><time>2026-04-11T13:43:12.956Z</time></trkpt><trkpt lat="45.53627329244816" lon="13.944315826496759"><ele>489.6</ele><time>2026-04-11T13:43:13.956Z</time></trkpt><trkpt lat="45.53615326673491" lon="13.944297710058398"><ele>489.2</ele><time>2026-04-11T13:43:15.956Z</time></trkpt><trkpt lat="45.53607476171589" lon="13.94426770264658"><ele>488.79999999999995</ele><time>2026-04-11T13:43:17.956Z</time></trkpt><trkpt lat="45.536001000146115" lon="13.944412999854407"><ele>488.4</ele><time>2026-04-11T13:43:18.956Z</time></trkpt><trkpt lat="45.53592862720271" lon="13.944522108396036"><ele>488.0</ele><time>2026-04-11T13:43:20.956Z</time></trkpt><trkpt lat="45.535838974412215" lon="13.94467050115961"><ele>488.0</ele><time>2026-04-11T13:43:22.956Z</time></trkpt><trkpt lat="45.53576452051543" lon="13.944726635121368"><ele>487.99999999999994</ele><time>2026-04-11T13:43:23.956Z</time></trkpt><trkpt lat="45.535643754989636" lon="13.944660538066643"><ele>487.99999999999994</ele><time>2026-04-11T13:43:25.956Z</time></trkpt><trkpt lat="45.53556167490339" lon="13.944581933312634"><ele>488.0</ele><time>2026-04-11T13:43:26.956Z</time></trkpt><trkpt lat="45.53546054773508" lon="13.944498956522901"><ele>488.0</ele><time>2026-04-11T13:43:27.956Z</time></trkpt><trkpt lat="45.53536607954616" lon="13.944440781347735"><ele>488.3333333333333</ele><time>2026-04-11T13:43:28.956Z</time></trkpt><trkpt lat="45.53525512342271" lon="13.944419285526312"><ele>488.66666666666663</ele><time>2026-04-11T13:43:29.956Z</time></trkpt><trkpt lat="45.53515575887527" lon="13.944407237048853"><ele>489.0</ele><time>2026-04-11T13:43:30.956Z</time></trkpt><trkpt lat="45.53506611781081" lon="13.944390363739899"><ele>489.33333333333337</ele><time>2026-04-11T13:43:31.956Z</time></trkpt><trkpt lat="45.53499492673177" lon="13.94439038681761"><ele>489.6666666666667</ele><time>2026-04-11T13:43:32.956Z</time></trkpt><trkpt lat="45.53492259113114" lon="13.944389264402616"><ele>490.0</ele><time>2026-04-11T13:43:33.956Z</time></trkpt><trkpt lat="45.53484519031417" lon="13.944382904305389"><ele>490.00000000000006</ele><time>2026-04-11T13:43:34.956Z</time></trkpt><trkpt lat="45.53477003477811" lon="13.944381376055823"><ele>490.0</ele><time>2026-04-11T13:43:35.956Z</time></trkpt><trkpt lat="45.53467769798617" lon="13.944387797426705"><ele>490.0</ele><time>2026-04-11T13:43:36.956Z</time></trkpt><trkpt lat="45.53460509345133" lon="13.944398934235787"><ele>490.0</ele><time>2026-04-11T13:43:37.956Z</time></trkpt><trkpt lat="45.53452970272168" lon="13.944422261013475"><ele>490.00000000000006</ele><time>2026-04-11T13:43:38.956Z</time></trkpt><trkpt lat="45.534466418730695" lon="13.944435481499191"><ele>490.0</ele><time>2026-04-11T13:43:39.956Z</time></trkpt><trkpt lat="45.534371411422896" lon="13.944535547817914"><ele>490.33333333333337</ele><time>2026-04-11T13:43:41.956Z</time></trkpt><trkpt lat="45.534300405998735" lon="13.944469588456741"><ele>490.6666666666667</ele><time>2026-04-11T13:43:43.956Z</time></trkpt><trkpt lat="45.534331405795506" lon="13.944311714290109"><ele>491.0</ele><time>2026-04-11T13:43:45.956Z</time></trkpt><trkpt lat="45.534364330754066" lon="13.944233044952789"><ele>491.33333333333337</ele><time>2026-04-11T13:43:46.956Z</time></trkpt><trkpt lat="45.534381390840565" lon="13.944130483011014"><ele>491.6666666666667</ele><time>2026-04-11T13:43:47.956Z</time></trkpt><trkpt lat="45.53441674150663" lon="13.944006942231088"><ele>492.0</ele><time>2026-04-11T13:43:48.956Z</time></trkpt><trkpt lat="45.53444436365945" lon="13.943886857571608"><ele>492.0</ele><time>2026-04-11T13:43:49.956Z</time></trkpt><trkpt lat="45.53448648694555" lon="13.943768854150706"><ele>492.0</ele><time>2026-04-11T13:43:50.956Z</time></trkpt><trkpt lat="45.534505992563034" lon="13.943652651976647"><ele>492.0</ele><time>2026-04-11T13:43:51.956Z</time></trkpt><trkpt lat="45.53452340614811" lon="13.943547945594227"><ele>492.0</ele><time>2026-04-11T13:43:52.956Z</time></trkpt><trkpt lat="45.53450491634733" lon="13.94342650406274"><ele>492.0</ele><time>2026-04-11T13:43:53.956Z</time></trkpt><trkpt lat="45.534447974332366" lon="13.94332756895416"><ele>492.0</ele><time>2026-04-11T13:43:54.956Z</time></trkpt><trkpt lat="45.53437082908253" lon="13.943239069784156"><ele>492.20000000000005</ele><time>2026-04-11T13:43:55.956Z</time></trkpt><trkpt lat="45.534262577606704" lon="13.943159719428111"><ele>492.40000000000003</ele><time>2026-04-11T13:43:56.956Z</time></trkpt><trkpt lat="45.5341961316116" lon="13.943082470836087"><ele>492.59999999999997</ele><time>2026-04-11T13:43:57.956Z</time></trkpt><trkpt lat="45.53413749691033" lon="13.942997587136796"><ele>492.79999999999995</ele><time>2026-04-11T13:43:58.956Z</time></trkpt><trkpt lat="45.53408018713998" lon="13.942908556276539"><ele>493.0</ele><time>2026-04-11T13:43:59.956Z</time></trkpt><trkpt lat="45.53400935905122" lon="13.94281921560129"><ele>493.0</ele><time>2026-04-11T13:44:01.956Z</time></trkpt><trkpt lat="45.53394328678163" lon="13.942811033083487"><ele>492.99999999999994</ele><time>2026-04-11T13:44:05.956Z</time></trkpt><trkpt lat="45.53383470048345" lon="13.94288827326765"><ele>492.99999999999994</ele><time>2026-04-11T13:44:11.956Z</time></trkpt><trkpt lat="45.53370496669605" lon="13.943002601284777"><ele>493.0</ele><time>2026-04-11T13:44:13.956Z</time></trkpt><trkpt lat="45.53361821721941" lon="13.943089422806331"><ele>493.0</ele><time>2026-04-11T13:44:14.956Z</time></trkpt><trkpt lat="45.533522229269735" lon="13.943187977480006"><ele>493.6666666666667</ele><time>2026-04-11T13:44:15.956Z</time></trkpt><trkpt lat="45.53346163791018" lon="13.943267104989378"><ele>494.33333333333337</ele><time>2026-04-11T13:44:16.956Z</time></trkpt><trkpt lat="45.533368401488765" lon="13.943303597658256"><ele>495.0</ele><time>2026-04-11T13:44:18.956Z</time></trkpt><trkpt lat="45.5332718201978" lon="13.943261454000298"><ele>495.66666666666663</ele><time>2026-04-11T13:44:20.956Z</time></trkpt><trkpt lat="45.53317803064191" lon="13.9432528910196"><ele>496.3333333333333</ele><time>2026-04-11T13:44:22.956Z</time></trkpt><trkpt lat="45.53310576385005" lon="13.943272196968742"><ele>497.0</ele><time>2026-04-11T13:44:24.956Z</time></trkpt><trkpt lat="45.5330383349635" lon="13.943324786074074"><ele>496.99999999999994</ele><time>2026-04-11T13:45:08.957Z</time></trkpt><trkpt lat="45.532969501339075" lon="13.943319060057304"><ele>497.0</ele><time>2026-04-11T13:45:10.957Z</time></trkpt><trkpt lat="45.53289213889783" lon="13.943267614301675"><ele>497.0</ele><time>2026-04-11T13:45:12.956Z</time></trkpt><trkpt lat="45.532785694553134" lon="13.943212881861902"><ele>497.0</ele><time>2026-04-11T13:45:14.956Z</time></trkpt><trkpt lat="45.53271811270956" lon="13.943172728237473"><ele>496.99999999999994</ele><time>2026-04-11T13:45:15.956Z</time></trkpt><trkpt lat="45.532635907850775" lon="13.943096648129027"><ele>497.0</ele><time>2026-04-11T13:45:16.956Z</time></trkpt><trkpt lat="45.53257113733923" lon="13.943013493901482"><ele>498.3333333333333</ele><time>2026-04-11T13:45:17.956Z</time></trkpt><trkpt lat="45.532516699073064" lon="13.942937152210249"><ele>499.66666666666663</ele><time>2026-04-11T13:45:18.956Z</time></trkpt><trkpt lat="45.53245875130001" lon="13.942857798820556"><ele>501.0</ele><time>2026-04-11T13:45:19.956Z</time></trkpt><trkpt lat="45.532393756689466" lon="13.942770720133707"><ele>502.33333333333337</ele><time>2026-04-11T13:45:20.956Z</time></trkpt><trkpt lat="45.532326656296505" lon="13.942714532828113"><ele>503.6666666666667</ele><time>2026-04-11T13:45:21.956Z</time></trkpt><trkpt lat="45.53226577989437" lon="13.942661090575495"><ele>505.0</ele><time>2026-04-11T13:45:22.956Z</time></trkpt><trkpt lat="45.53220590054681" lon="13.942594084121273"><ele>505.0</ele><time>2026-04-11T13:45:23.956Z</time></trkpt><trkpt lat="45.53213327110823" lon="13.942532478725592"><ele>505.0</ele><time>2026-04-11T13:45:24.956Z</time></trkpt><trkpt lat="45.532059796003054" lon="13.942479011414516"><ele>505.0</ele><time>2026-04-11T13:45:25.956Z</time></trkpt><trkpt lat="45.53196685877702" lon="13.942428437649333"><ele>505.0</ele><time>2026-04-11T13:45:26.956Z</time></trkpt><trkpt lat="45.53187755747916" lon="13.942382254626668"><ele>505.0</ele><time>2026-04-11T13:45:27.956Z</time></trkpt><trkpt lat="45.531781246122854" lon="13.942335599824233"><ele>504.75</ele><time>2026-04-11T13:45:28.956Z</time></trkpt><trkpt lat="45.5316799018966" lon="13.94229331255418"><ele>504.5</ele><time>2026-04-11T13:45:29.956Z</time></trkpt><trkpt lat="45.5315662204546" lon="13.94224203580528"><ele>504.25</ele><time>2026-04-11T13:45:30.956Z</time></trkpt><trkpt lat="45.53144170403429" lon="13.942187066208307"><ele>504.0</ele><time>2026-04-11T13:45:31.956Z</time></trkpt><trkpt lat="45.53131707804167" lon="13.94211744892056"><ele>504.25</ele><time>2026-04-11T13:45:32.956Z</time></trkpt><trkpt lat="45.531204094992326" lon="13.94206297465372"><ele>504.5</ele><time>2026-04-11T13:45:33.956Z</time></trkpt><trkpt lat="45.53109649344061" lon="13.942024826827355"><ele>504.75</ele><time>2026-04-11T13:45:34.956Z</time></trkpt><trkpt lat="45.530982736842155" lon="13.941986580862308"><ele>505.0</ele><time>2026-04-11T13:45:35.956Z</time></trkpt><trkpt lat="45.53087910866899" lon="13.94195346286076"><ele>505.0</ele><time>2026-04-11T13:45:36.956Z</time></trkpt><trkpt lat="45.53076942468264" lon="13.941912991495153"><ele>505.0</ele><time>2026-04-11T13:45:37.956Z</time></trkpt><trkpt lat="45.53065425861229" lon="13.941855974380495"><ele>505.0</ele><time>2026-04-11T13:45:38.956Z</time></trkpt><trkpt lat="45.530542965563306" lon="13.941829616659627"><ele>505.0</ele><time>2026-04-11T13:45:39.956Z</time></trkpt><trkpt lat="45.53042795790832" lon="13.941783943168101"><ele>505.0</ele><time>2026-04-11T13:45:40.956Z</time></trkpt><trkpt lat="45.53032521207681" lon="13.941721324776164"><ele>505.0</ele><time>2026-04-11T13:45:41.956Z</time></trkpt><trkpt lat="45.53023959588296" lon="13.941673490065153"><ele>505.0</ele><time>2026-04-11T13:45:42.956Z</time></trkpt><trkpt lat="45.53015810998349" lon="13.94161869979547"><ele>505.0</ele><time>2026-04-11T13:45:43.956Z</time></trkpt><trkpt lat="45.5300693101465" lon="13.941577445189251"><ele>505.0</ele><time>2026-04-11T13:45:44.956Z</time></trkpt><trkpt lat="45.52999150247486" lon="13.941523723055768"><ele>504.2</ele><time>2026-04-11T13:45:45.956Z</time></trkpt><trkpt lat="45.529902023535605" lon="13.941484354493115"><ele>503.4</ele><time>2026-04-11T13:45:46.956Z</time></trkpt><trkpt lat="45.52978922609428" lon="13.941474331768815"><ele>502.6</ele><time>2026-04-11T13:45:47.956Z</time></trkpt><trkpt lat="45.52969873986352" lon="13.941470025295434"><ele>501.8</ele><time>2026-04-11T13:45:48.956Z</time></trkpt><trkpt lat="45.52960435902155" lon="13.941483845390364"><ele>501.0</ele><time>2026-04-11T13:45:49.956Z</time></trkpt><trkpt lat="45.5295243523406" lon="13.94149880236446"><ele>501.0</ele><time>2026-04-11T13:45:50.956Z</time></trkpt><trkpt lat="45.52946147673323" lon="13.941510988039159"><ele>501.0</ele><time>2026-04-11T13:45:51.956Z</time></trkpt><trkpt lat="45.52933683215279" lon="13.941601425013713"><ele>501.0</ele><time>2026-04-11T13:45:53.956Z</time></trkpt><trkpt lat="45.52925455742685" lon="13.941652807149474"><ele>501.0</ele><time>2026-04-11T13:45:54.956Z</time></trkpt><trkpt lat="45.52917339546307" lon="13.941730916633391"><ele>501.0</ele><time>2026-04-11T13:45:55.956Z</time></trkpt><trkpt lat="45.5290978438646" lon="13.94183267567275"><ele>501.0</ele><time>2026-04-11T13:45:56.956Z</time></trkpt><trkpt lat="45.52903213677824" lon="13.941917128119185"><ele>501.0</ele><time>2026-04-11T13:45:57.956Z</time></trkpt><trkpt lat="45.52896126731166" lon="13.942000708518181"><ele>501.0</ele><time>2026-04-11T13:45:58.956Z</time></trkpt><trkpt lat="45.528896184911595" lon="13.942082950243782"><ele>501.0</ele><time>2026-04-11T13:45:59.956Z</time></trkpt><trkpt lat="45.52882092994821" lon="13.94216421832937"><ele>501.0</ele><time>2026-04-11T13:46:00.956Z</time></trkpt><trkpt lat="45.52875406319901" lon="13.94223879960317"><ele>501.0</ele><time>2026-04-11T13:46:01.956Z</time></trkpt><trkpt lat="45.52868765517287" lon="13.94231795991382"><ele>499.3333333333333</ele><time>2026-04-11T13:46:02.956Z</time></trkpt><trkpt lat="45.52861680926574" lon="13.942371420781736"><ele>497.66666666666663</ele><time>2026-04-11T13:46:03.956Z</time></trkpt><trkpt lat="45.528528304762794" lon="13.94241737310169"><ele>496.0</ele><time>2026-04-11T13:46:04.956Z</time></trkpt><trkpt lat="45.52843497465072" lon="13.942446519029534"><ele>494.3333333333333</ele><time>2026-04-11T13:46:05.956Z</time></trkpt><trkpt lat="45.52835563730771" lon="13.94246124451158"><ele>492.66666666666663</ele><time>2026-04-11T13:46:06.956Z</time></trkpt><trkpt lat="45.52826866899829" lon="13.942462823857811"><ele>491.0</ele><time>2026-04-11T13:46:07.956Z</time></trkpt><trkpt lat="45.528187354033975" lon="13.942423056633748"><ele>491.0</ele><time>2026-04-11T13:46:08.956Z</time></trkpt><trkpt lat="45.52809093072952" lon="13.942371793616928"><ele>491.0</ele><time>2026-04-11T13:46:09.956Z</time></trkpt><trkpt lat="45.52802706179607" lon="13.942315864879962"><ele>491.0</ele><time>2026-04-11T13:46:10.956Z</time></trkpt><trkpt lat="45.52794275214265" lon="13.94227373377869"><ele>491.0</ele><time>2026-04-11T13:46:11.956Z</time></trkpt><trkpt lat="45.52785284806145" lon="13.942251788044324"><ele>491.0</ele><time>2026-04-11T13:46:12.956Z</time></trkpt><trkpt lat="45.52775749160586" lon="13.942254551482767"><ele>489.8</ele><time>2026-04-11T13:46:13.956Z</time></trkpt><trkpt lat="45.52766719173495" lon="13.942254500617969"><ele>488.6</ele><time>2026-04-11T13:46:14.956Z</time></trkpt><trkpt lat="45.52757789270609" lon="13.942241608323535"><ele>487.4</ele><time>2026-04-11T13:46:15.956Z</time></trkpt><trkpt lat="45.52747795495741" lon="13.94220888486427"><ele>486.2</ele><time>2026-04-11T13:46:16.956Z</time></trkpt><trkpt lat="45.52738513046571" lon="13.94217668041119"><ele>485.0</ele><time>2026-04-11T13:46:17.956Z</time></trkpt><trkpt lat="45.52730042089955" lon="13.942158820461042"><ele>485.0</ele><time>2026-04-11T13:46:18.956Z</time></trkpt><trkpt lat="45.52723436852934" lon="13.942103114894698"><ele>485.0</ele><time>2026-04-11T13:46:19.956Z</time></trkpt><trkpt lat="45.52714788545812" lon="13.94208259122694"><ele>485.0</ele><time>2026-04-11T13:46:20.956Z</time></trkpt><trkpt lat="45.52708581951472" lon="13.942007534843727"><ele>485.0</ele><time>2026-04-11T13:46:21.956Z</time></trkpt><trkpt lat="45.52701241169429" lon="13.941906756020337"><ele>485.0</ele><time>2026-04-11T13:46:22.956Z</time></trkpt><trkpt lat="45.526947738670145" lon="13.94179324247766"><ele>484.25</ele><time>2026-04-11T13:46:23.956Z</time></trkpt><trkpt lat="45.52688106300683" lon="13.941651073301317"><ele>483.5</ele><time>2026-04-11T13:46:24.956Z</time></trkpt><trkpt lat="45.52680112447063" lon="13.94149241826926"><ele>482.75</ele><time>2026-04-11T13:46:25.956Z</time></trkpt><trkpt lat="45.52673160942277" lon="13.941334088187753"><ele>482.0</ele><time>2026-04-11T13:46:26.956Z</time></trkpt><trkpt lat="45.52666661137854" lon="13.941198522603385"><ele>482.0</ele><time>2026-04-11T13:46:27.956Z</time></trkpt><trkpt lat="45.526594426171634" lon="13.941101875571604"><ele>482.00000000000006</ele><time>2026-04-11T13:46:28.956Z</time></trkpt><trkpt lat="45.526515318462465" lon="13.941015146979819"><ele>482.00000000000006</ele><time>2026-04-11T13:46:29.956Z</time></trkpt><trkpt lat="45.5263992981435" lon="13.940931656481112"><ele>482.0</ele><time>2026-04-11T13:46:30.956Z</time></trkpt><trkpt lat="45.526298428646136" lon="13.940882224127563"><ele>482.0</ele><time>2026-04-11T13:46:31.956Z</time></trkpt><trkpt lat="45.526181598446314" lon="13.940828259827317"><ele>482.0</ele><time>2026-04-11T13:46:32.956Z</time></trkpt><trkpt lat="45.5260658746073" lon="13.940746822133223"><ele>482.0</ele><time>2026-04-11T13:46:33.956Z</time></trkpt><trkpt lat="45.525962340445744" lon="13.94067006877295"><ele>482.0</ele><time>2026-04-11T13:46:34.956Z</time></trkpt><trkpt lat="45.5258669932134" lon="13.940599034846544"><ele>482.0</ele><time>2026-04-11T13:46:35.956Z</time></trkpt><trkpt lat="45.52574501196752" lon="13.94050654292525"><ele>482.0</ele><time>2026-04-11T13:46:36.956Z</time></trkpt><trkpt lat="45.52561234962003" lon="13.940414576891666"><ele>482.0</ele><time>2026-04-11T13:46:37.956Z</time></trkpt><trkpt lat="45.525483079430444" lon="13.940304029727255"><ele>482.0</ele><time>2026-04-11T13:46:38.956Z</time></trkpt><trkpt lat="45.52533855585273" lon="13.940192318569972"><ele>482.0</ele><time>2026-04-11T13:46:39.956Z</time></trkpt><trkpt lat="45.525228381706235" lon="13.94005638255488"><ele>482.0</ele><time>2026-04-11T13:46:40.956Z</time></trkpt><trkpt lat="45.52512267051435" lon="13.939946722340338"><ele>482.0</ele><time>2026-04-11T13:46:41.956Z</time></trkpt><trkpt lat="45.52501785692538" lon="13.939837012750372"><ele>482.0</ele><time>2026-04-11T13:46:42.956Z</time></trkpt><trkpt lat="45.52491610705302" lon="13.939727031222251"><ele>482.0</ele><time>2026-04-11T13:46:43.956Z</time></trkpt><trkpt lat="45.5248301516399" lon="13.9396302046953"><ele>482.00000000000006</ele><time>2026-04-11T13:46:44.956Z</time></trkpt><trkpt lat="45.52474924267341" lon="13.939534991395567"><ele>482.00000000000006</ele><time>2026-04-11T13:46:45.956Z</time></trkpt><trkpt lat="45.524671415794245" lon="13.939432846612945"><ele>482.0</ele><time>2026-04-11T13:46:46.956Z</time></trkpt><trkpt lat="45.52457312329339" lon="13.939318908540107"><ele>482.0</ele><time>2026-04-11T13:46:47.956Z</time></trkpt><trkpt lat="45.524484793239985" lon="13.939172775407428"><ele>481.75</ele><time>2026-04-11T13:46:48.956Z</time></trkpt><trkpt lat="45.52439490044029" lon="13.939017112937444"><ele>481.5</ele><time>2026-04-11T13:46:49.956Z</time></trkpt><trkpt lat="45.524300280266694" lon="13.938870187347609"><ele>481.25</ele><time>2026-04-11T13:46:50.956Z</time></trkpt><trkpt lat="45.524200871518" lon="13.938729400927349"><ele>481.0</ele><time>2026-04-11T13:46:51.956Z</time></trkpt><trkpt lat="45.52411296067904" lon="13.938591166477059"><ele>481.0</ele><time>2026-04-11T13:46:52.956Z</time></trkpt><trkpt lat="45.52405671755484" lon="13.93847021781839"><ele>481.0</ele><time>2026-04-11T13:46:53.956Z</time></trkpt><trkpt lat="45.52400027926224" lon="13.938351547004123"><ele>481.0</ele><time>2026-04-11T13:46:54.956Z</time></trkpt><trkpt lat="45.52395760505392" lon="13.938239753608638"><ele>481.0</ele><time>2026-04-11T13:46:55.956Z</time></trkpt><trkpt lat="45.523954272019836" lon="13.938086792956593"><ele>481.0</ele><time>2026-04-11T13:46:56.956Z</time></trkpt><trkpt lat="45.523924845089084" lon="13.937888731467885"><ele>480.75</ele><time>2026-04-11T13:46:57.956Z</time></trkpt><trkpt lat="45.52390600721305" lon="13.937694149898364"><ele>480.5</ele><time>2026-04-11T13:46:58.956Z</time></trkpt><trkpt lat="45.523905151863694" lon="13.937511688354457"><ele>480.25</ele><time>2026-04-11T13:46:59.956Z</time></trkpt><trkpt lat="45.52388732149045" lon="13.937343075752546"><ele>480.0</ele><time>2026-04-11T13:47:00.956Z</time></trkpt><trkpt lat="45.523851538737105" lon="13.93719817349848"><ele>479.5</ele><time>2026-04-11T13:47:01.956Z</time></trkpt><trkpt lat="45.52381586729813" lon="13.937040466426364"><ele>479.0</ele><time>2026-04-11T13:47:02.956Z</time></trkpt><trkpt lat="45.52374538390257" lon="13.936897930881859"><ele>478.5</ele><time>2026-04-11T13:47:03.956Z</time></trkpt><trkpt lat="45.52366178238728" lon="13.93675411253276"><ele>478.0</ele><time>2026-04-11T13:47:04.955Z</time></trkpt><trkpt lat="45.52356247808477" lon="13.936603104912436"><ele>477.0</ele><time>2026-04-11T13:47:05.955Z</time></trkpt><trkpt lat="45.52346524797246" lon="13.936479110556824"><ele>476.0</ele><time>2026-04-11T13:47:06.957Z</time></trkpt><trkpt lat="45.523383756604865" lon="13.93636144044203"><ele>475.0</ele><time>2026-04-11T13:47:07.956Z</time></trkpt><trkpt lat="45.52329271740055" lon="13.936246200453166"><ele>474.0</ele><time>2026-04-11T13:47:08.956Z</time></trkpt><trkpt lat="45.52322534138486" lon="13.93613061484942"><ele>474.0</ele><time>2026-04-11T13:47:09.957Z</time></trkpt><trkpt lat="45.523141838089025" lon="13.936022973426304"><ele>474.0</ele><time>2026-04-11T13:47:10.956Z</time></trkpt><trkpt lat="45.52307252991166" lon="13.935922700228877"><ele>474.0</ele><time>2026-04-11T13:47:11.956Z</time></trkpt><trkpt lat="45.52299155708069" lon="13.935816774460726"><ele>474.0</ele><time>2026-04-11T13:47:12.957Z</time></trkpt><trkpt lat="45.52292839994926" lon="13.93569071533506"><ele>474.0</ele><time>2026-04-11T13:47:13.957Z</time></trkpt><trkpt lat="45.52288683220773" lon="13.935582214863425"><ele>473.5</ele><time>2026-04-11T13:47:14.957Z</time></trkpt><trkpt lat="45.522841937440916" lon="13.9354967706583"><ele>473.0</ele><time>2026-04-11T13:47:15.957Z</time></trkpt><trkpt lat="45.52280769844572" lon="13.935412776949537"><ele>472.5</ele><time>2026-04-11T13:47:16.957Z</time></trkpt><trkpt lat="45.52283112625642" lon="13.935263323616798"><ele>472.0</ele><time>2026-04-11T13:47:18.957Z</time></trkpt><trkpt lat="45.52285018773808" lon="13.935160196793788"><ele>471.5</ele><time>2026-04-11T13:47:19.957Z</time></trkpt><trkpt lat="45.52287568291671" lon="13.934995444863732"><ele>471.0</ele><time>2026-04-11T13:47:20.957Z</time></trkpt><trkpt lat="45.522891248949065" lon="13.934815964176117"><ele>471.0</ele><time>2026-04-11T13:47:21.957Z</time></trkpt><trkpt lat="45.52292384215246" lon="13.934661214754877"><ele>471.0</ele><time>2026-04-11T13:47:22.957Z</time></trkpt><trkpt lat="45.52294510336499" lon="13.934501624178603"><ele>471.0</ele><time>2026-04-11T13:47:23.957Z</time></trkpt><trkpt lat="45.52295965879006" lon="13.934328027934129"><ele>471.0</ele><time>2026-04-11T13:47:24.957Z</time></trkpt><trkpt lat="45.522973438758534" lon="13.934130025816783"><ele>471.25</ele><time>2026-04-11T13:47:25.957Z</time></trkpt><trkpt lat="45.52299523539927" lon="13.933959441536048"><ele>471.5</ele><time>2026-04-11T13:47:26.957Z</time></trkpt><trkpt lat="45.5230066390531" lon="13.933791116225763"><ele>471.75</ele><time>2026-04-11T13:47:27.957Z</time></trkpt><trkpt lat="45.52301340995809" lon="13.93361137366171"><ele>472.0</ele><time>2026-04-11T13:47:28.957Z</time></trkpt><trkpt lat="45.5230061239642" lon="13.93342287732775"><ele>472.25</ele><time>2026-04-11T13:47:29.957Z</time></trkpt><trkpt lat="45.522995224438" lon="13.933241102682125"><ele>472.5</ele><time>2026-04-11T13:47:30.957Z</time></trkpt><trkpt lat="45.52299202805692" lon="13.933038045151596"><ele>472.75</ele><time>2026-04-11T13:47:31.957Z</time></trkpt><trkpt lat="45.52294986522443" lon="13.932845682546274"><ele>473.0</ele><time>2026-04-11T13:47:32.957Z</time></trkpt><trkpt lat="45.52294334213152" lon="13.932663934802612"><ele>473.5</ele><time>2026-04-11T13:47:33.957Z</time></trkpt><trkpt lat="45.522924904429004" lon="13.93249586876342"><ele>474.0</ele><time>2026-04-11T13:47:34.957Z</time></trkpt><trkpt lat="45.52290435417458" lon="13.932307521387239"><ele>474.5</ele><time>2026-04-11T13:47:35.957Z</time></trkpt><trkpt lat="45.52286839082954" lon="13.932125872562635"><ele>475.0</ele><time>2026-04-11T13:47:36.957Z</time></trkpt><trkpt lat="45.52286519526166" lon="13.93194862200074"><ele>475.0</ele><time>2026-04-11T13:47:37.957Z</time></trkpt><trkpt lat="45.522859349658916" lon="13.931805742319359"><ele>475.0</ele><time>2026-04-11T13:47:38.957Z</time></trkpt><trkpt lat="45.52285814412531" lon="13.931707185023216"><ele>475.0</ele><time>2026-04-11T13:47:39.957Z</time></trkpt><trkpt lat="45.5228564459608" lon="13.93160748567794"><ele>475.0</ele><time>2026-04-11T13:47:40.957Z</time></trkpt><trkpt lat="45.52289351984991" lon="13.931462752877664"><ele>475.0</ele><time>2026-04-11T13:47:41.957Z</time></trkpt><trkpt lat="45.52293136068312" lon="13.931281945638048"><ele>475.75</ele><time>2026-04-11T13:47:42.957Z</time></trkpt><trkpt lat="45.522951368909105" lon="13.931074019995647"><ele>476.5</ele><time>2026-04-11T13:47:43.957Z</time></trkpt><trkpt lat="45.52296924270392" lon="13.930859611230504"><ele>477.25</ele><time>2026-04-11T13:47:44.957Z</time></trkpt><trkpt lat="45.52300294811257" lon="13.93065168060747"><ele>478.0</ele><time>2026-04-11T13:47:45.957Z</time></trkpt><trkpt lat="45.52301213458602" lon="13.930430909024873"><ele>478.5</ele><time>2026-04-11T13:47:46.957Z</time></trkpt><trkpt lat="45.52304065391382" lon="13.930219745265678"><ele>479.0</ele><time>2026-04-11T13:47:47.957Z</time></trkpt><trkpt lat="45.52305948279138" lon="13.930043134730719"><ele>479.5</ele><time>2026-04-11T13:47:48.957Z</time></trkpt><trkpt lat="45.52307064199988" lon="13.929892886354482"><ele>480.0</ele><time>2026-04-11T13:47:49.957Z</time></trkpt><trkpt lat="45.523062322957884" lon="13.929729673458844"><ele>480.0</ele><time>2026-04-11T13:47:50.956Z</time></trkpt><trkpt lat="45.52303438584066" lon="13.929572341509397"><ele>480.0</ele><time>2026-04-11T13:47:51.956Z</time></trkpt><trkpt lat="45.52301302144418" lon="13.929386637352971"><ele>480.0</ele><time>2026-04-11T13:47:52.956Z</time></trkpt><trkpt lat="45.52301589007026" lon="13.929215777715973"><ele>480.0</ele><time>2026-04-11T13:47:53.956Z</time></trkpt><trkpt lat="45.52299015438426" lon="13.929068189019755"><ele>480.4</ele><time>2026-04-11T13:47:54.956Z</time></trkpt><trkpt lat="45.522986258739365" lon="13.928929205902683"><ele>480.8</ele><time>2026-04-11T13:47:55.956Z</time></trkpt><trkpt lat="45.522956435109066" lon="13.928771137892227"><ele>481.20000000000005</ele><time>2026-04-11T13:47:56.956Z</time></trkpt><trkpt lat="45.522917433776875" lon="13.928616012956688"><ele>481.6</ele><time>2026-04-11T13:47:57.956Z</time></trkpt><trkpt lat="45.522889826992966" lon="13.928453920330947"><ele>482.0</ele><time>2026-04-11T13:47:58.956Z</time></trkpt><trkpt lat="45.52286838480606" lon="13.92828789037295"><ele>484.20000000000005</ele><time>2026-04-11T13:47:59.956Z</time></trkpt><trkpt lat="45.52286628375572" lon="13.9281099261272"><ele>486.40000000000003</ele><time>2026-04-11T13:48:00.956Z</time></trkpt><trkpt lat="45.522852515656844" lon="13.927942520942715"><ele>488.59999999999997</ele><time>2026-04-11T13:48:01.956Z</time></trkpt><trkpt lat="45.52282821819721" lon="13.927796071894663"><ele>490.79999999999995</ele><time>2026-04-11T13:48:02.956Z</time></trkpt><trkpt lat="45.52280153698347" lon="13.927671502472709"><ele>493.0</ele><time>2026-04-11T13:48:03.956Z</time></trkpt><trkpt lat="45.52276074221723" lon="13.927536211415793"><ele>493.0</ele><time>2026-04-11T13:48:04.956Z</time></trkpt><trkpt lat="45.52271552913667" lon="13.92741943165237"><ele>492.99999999999994</ele><time>2026-04-11T13:48:05.956Z</time></trkpt><trkpt lat="45.52265022707657" lon="13.927298864996533"><ele>492.99999999999994</ele><time>2026-04-11T13:48:06.956Z</time></trkpt><trkpt lat="45.52257327568713" lon="13.92720014803422"><ele>493.0</ele><time>2026-04-11T13:48:07.956Z</time></trkpt><trkpt lat="45.52250672939687" lon="13.927079700233735"><ele>493.0</ele><time>2026-04-11T13:48:08.956Z</time></trkpt><trkpt lat="45.522419585018255" lon="13.926951521488695"><ele>493.0</ele><time>2026-04-11T13:48:09.956Z</time></trkpt><trkpt lat="45.522341381922274" lon="13.926833242397523"><ele>492.99999999999994</ele><time>2026-04-11T13:48:10.956Z</time></trkpt><trkpt lat="45.52226738395589" lon="13.926715620844984"><ele>492.99999999999994</ele><time>2026-04-11T13:48:11.956Z</time></trkpt><trkpt lat="45.52218608254223" lon="13.9266082632523"><ele>493.0</ele><time>2026-04-11T13:48:12.956Z</time></trkpt><trkpt lat="45.522127457320586" lon="13.926485222534073"><ele>493.0</ele><time>2026-04-11T13:48:13.956Z</time></trkpt><trkpt lat="45.52206579444158" lon="13.92637503530813"><ele>492.4</ele><time>2026-04-11T13:48:14.956Z</time></trkpt><trkpt lat="45.52200222671211" lon="13.926245059631269"><ele>491.79999999999995</ele><time>2026-04-11T13:48:15.956Z</time></trkpt><trkpt lat="45.52195115174393" lon="13.92611353544978"><ele>491.2</ele><time>2026-04-11T13:48:16.956Z</time></trkpt><trkpt lat="45.52192458384669" lon="13.926017801328792"><ele>490.6</ele><time>2026-04-11T13:48:17.956Z</time></trkpt><trkpt lat="45.52190749523397" lon="13.925889740871703"><ele>490.0</ele><time>2026-04-11T13:48:18.956Z</time></trkpt><trkpt lat="45.52189739043693" lon="13.925756087482972"><ele>488.75</ele><time>2026-04-11T13:48:19.956Z</time></trkpt><trkpt lat="45.521877090467626" lon="13.925576662031686"><ele>487.5</ele><time>2026-04-11T13:48:20.956Z</time></trkpt><trkpt lat="45.52184749010145" lon="13.92541386821708"><ele>486.25</ele><time>2026-04-11T13:48:21.956Z</time></trkpt><trkpt lat="45.52182110878804" lon="13.92525151080446"><ele>485.0</ele><time>2026-04-11T13:48:22.956Z</time></trkpt><trkpt lat="45.52179552951042" lon="13.925090279260418"><ele>485.25</ele><time>2026-04-11T13:48:23.956Z</time></trkpt><trkpt lat="45.52177277357861" lon="13.924946843887499"><ele>485.5</ele><time>2026-04-11T13:48:24.956Z</time></trkpt><trkpt lat="45.52170434477632" lon="13.92480235280083"><ele>485.75</ele><time>2026-04-11T13:48:25.956Z</time></trkpt><trkpt lat="45.52163102520609" lon="13.924653853024283"><ele>486.0</ele><time>2026-04-11T13:48:26.956Z</time></trkpt><trkpt lat="45.521564392700434" lon="13.924514051695175"><ele>486.0</ele><time>2026-04-11T13:48:27.956Z</time></trkpt><trkpt lat="45.52148834919143" lon="13.924358455971706"><ele>486.0</ele><time>2026-04-11T13:48:28.956Z</time></trkpt><trkpt lat="45.52138868989088" lon="13.924186467592532"><ele>486.0</ele><time>2026-04-11T13:48:29.956Z</time></trkpt><trkpt lat="45.52129064847923" lon="13.924043662141603"><ele>486.0</ele><time>2026-04-11T13:48:30.956Z</time></trkpt><trkpt lat="45.521202858914485" lon="13.923937215846522"><ele>488.20000000000005</ele><time>2026-04-11T13:48:31.956Z</time></trkpt><trkpt lat="45.52112611788368" lon="13.923857805027763"><ele>490.40000000000003</ele><time>2026-04-11T13:48:32.956Z</time></trkpt><trkpt lat="45.52105324679626" lon="13.923793638698704"><ele>492.6</ele><time>2026-04-11T13:48:33.956Z</time></trkpt><trkpt lat="45.520971741887344" lon="13.923732569191108"><ele>494.8</ele><time>2026-04-11T13:48:34.956Z</time></trkpt><trkpt lat="45.52086925633796" lon="13.923664799845808"><ele>497.0</ele><time>2026-04-11T13:48:35.956Z</time></trkpt><trkpt lat="45.520755013493215" lon="13.92361141985058"><ele>497.0</ele><time>2026-04-11T13:48:36.956Z</time></trkpt><trkpt lat="45.52066338611822" lon="13.923542255082012"><ele>497.00000000000006</ele><time>2026-04-11T13:48:37.956Z</time></trkpt><trkpt lat="45.52057017745863" lon="13.923486660826729"><ele>497.00000000000006</ele><time>2026-04-11T13:48:38.956Z</time></trkpt><trkpt lat="45.52049158052516" lon="13.923473751480365"><ele>497.0</ele><time>2026-04-11T13:48:39.956Z</time></trkpt><trkpt lat="45.52038127079989" lon="13.923469354701563"><ele>497.0</ele><time>2026-04-11T13:48:40.956Z</time></trkpt><trkpt lat="45.52023749598769" lon="13.923479463951468"><ele>498.5</ele><time>2026-04-11T13:48:41.956Z</time></trkpt><trkpt lat="45.52009646159508" lon="13.923493238008682"><ele>500.0</ele><time>2026-04-11T13:48:42.956Z</time></trkpt><trkpt lat="45.51995085936906" lon="13.923471989296813"><ele>501.5</ele><time>2026-04-11T13:48:43.956Z</time></trkpt><trkpt lat="45.51981768219958" lon="13.923451811188237"><ele>503.0</ele><time>2026-04-11T13:48:44.956Z</time></trkpt><trkpt lat="45.519688356339955" lon="13.9234313714241"><ele>504.75</ele><time>2026-04-11T13:48:45.956Z</time></trkpt><trkpt lat="45.51953719529172" lon="13.92343765469635"><ele>506.5</ele><time>2026-04-11T13:48:46.956Z</time></trkpt><trkpt lat="45.51941204911797" lon="13.923443271480028"><ele>508.25</ele><time>2026-04-11T13:48:47.956Z</time></trkpt><trkpt lat="45.51928633123909" lon="13.923443224155958"><ele>510.0</ele><time>2026-04-11T13:48:48.956Z</time></trkpt><trkpt lat="45.51916687908194" lon="13.923439847407414"><ele>510.0</ele><time>2026-04-11T13:48:49.956Z</time></trkpt><trkpt lat="45.519044676858314" lon="13.92342862758908"><ele>510.0</ele><time>2026-04-11T13:48:50.956Z</time></trkpt><trkpt lat="45.51892796368596" lon="13.92343608068069"><ele>510.0</ele><time>2026-04-11T13:48:51.956Z</time></trkpt><trkpt lat="45.51883660272016" lon="13.923446092437786"><ele>510.0</ele><time>2026-04-11T13:48:52.956Z</time></trkpt><trkpt lat="45.51875489243021" lon="13.923472092051835"><ele>510.0</ele><time>2026-04-11T13:48:53.956Z</time></trkpt><trkpt lat="45.518623204889074" lon="13.923519798722017"><ele>511.25</ele><time>2026-04-11T13:48:54.956Z</time></trkpt><trkpt lat="45.51848486392915" lon="13.923557337674119"><ele>512.5</ele><time>2026-04-11T13:48:55.956Z</time></trkpt><trkpt lat="45.51835105082757" lon="13.923598271466142"><ele>513.75</ele><time>2026-04-11T13:48:56.956Z</time></trkpt><trkpt lat="45.51822927526623" lon="13.923630265421124"><ele>515.0</ele><time>2026-04-11T13:48:57.956Z</time></trkpt><trkpt lat="45.518115030831304" lon="13.923687363696155"><ele>515.0</ele><time>2026-04-11T13:48:58.956Z</time></trkpt><trkpt lat="45.51800862012698" lon="13.9237534631173"><ele>515.0</ele><time>2026-04-11T13:48:59.956Z</time></trkpt><trkpt lat="45.51789688449877" lon="13.923803097374606"><ele>515.0</ele><time>2026-04-11T13:49:00.956Z</time></trkpt><trkpt lat="45.517794474458924" lon="13.9238549686448"><ele>515.0</ele><time>2026-04-11T13:49:01.956Z</time></trkpt><trkpt lat="45.51772681935847" lon="13.923902317098955"><ele>515.0</ele><time>2026-04-11T13:49:02.956Z</time></trkpt><trkpt lat="45.51765743704901" lon="13.923929508214252"><ele>515.3333333333333</ele><time>2026-04-11T13:49:04.956Z</time></trkpt><trkpt lat="45.51758936053756" lon="13.923929993410866"><ele>515.6666666666666</ele><time>2026-04-11T13:49:07.956Z</time></trkpt><trkpt lat="45.51753782268332" lon="13.92384787496738"><ele>516.0</ele><time>2026-04-11T13:49:08.956Z</time></trkpt><trkpt lat="45.51752285361224" lon="13.92375200867775"><ele>516.3333333333334</ele><time>2026-04-11T13:49:10.956Z</time></trkpt><trkpt lat="45.51754504014178" lon="13.923666954718733"><ele>516.6666666666667</ele><time>2026-04-11T13:49:11.956Z</time></trkpt><trkpt lat="45.517582956759554" lon="13.923528086873873"><ele>517.0</ele><time>2026-04-11T13:49:13.957Z</time></trkpt><trkpt lat="45.51761013703109" lon="13.923419641212423"><ele>516.5</ele><time>2026-04-11T13:49:14.957Z</time></trkpt><trkpt lat="45.51763603459471" lon="13.923317549412378"><ele>516.0</ele><time>2026-04-11T13:49:15.957Z</time></trkpt><trkpt lat="45.51766850503832" lon="13.923198910073332"><ele>515.5</ele><time>2026-04-11T13:49:16.957Z</time></trkpt><trkpt lat="45.51769779969849" lon="13.923100641373603"><ele>515.0</ele><time>2026-04-11T13:49:17.957Z</time></trkpt><trkpt lat="45.5177231863465" lon="13.923017104125158"><ele>514.5</ele><time>2026-04-11T13:49:18.957Z</time></trkpt><trkpt lat="45.51775701093895" lon="13.922898928154567"><ele>514.0</ele><time>2026-04-11T13:49:19.956Z</time></trkpt><trkpt lat="45.51778639318647" lon="13.922801848134322"><ele>514.0</ele><time>2026-04-11T13:49:20.956Z</time></trkpt><trkpt lat="45.517810907532336" lon="13.922708144777856"><ele>514.0</ele><time>2026-04-11T13:49:21.957Z</time></trkpt><trkpt lat="45.51784985441549" lon="13.922526965248338"><ele>514.0</ele><time>2026-04-11T13:49:23.957Z</time></trkpt><trkpt lat="45.51788977458061" lon="13.922405038133745"><ele>514.0</ele><time>2026-04-11T13:49:24.957Z</time></trkpt><trkpt lat="45.51795262369076" lon="13.92226572491491"><ele>514.0</ele><time>2026-04-11T13:49:25.957Z</time></trkpt><trkpt lat="45.51800826117675" lon="13.92214188167824"><ele>511.4</ele><time>2026-04-11T13:49:26.957Z</time></trkpt><trkpt lat="45.51806542990851" lon="13.92199154602488"><ele>508.79999999999995</ele><time>2026-04-11T13:49:27.957Z</time></trkpt><trkpt lat="45.518122180049744" lon="13.921863411908781"><ele>506.20000000000005</ele><time>2026-04-11T13:49:28.957Z</time></trkpt><trkpt lat="45.51815133264195" lon="13.921742791057746"><ele>503.6</ele><time>2026-04-11T13:49:29.957Z</time></trkpt><trkpt lat="45.51819087710938" lon="13.921628087686742"><ele>501.0</ele><time>2026-04-11T13:49:30.957Z</time></trkpt><trkpt lat="45.518239086850585" lon="13.92151954463192"><ele>500.6666666666667</ele><time>2026-04-11T13:49:31.957Z</time></trkpt><trkpt lat="45.51827500963145" lon="13.921412610100864"><ele>500.33333333333337</ele><time>2026-04-11T13:49:32.957Z</time></trkpt><trkpt lat="45.51829767848605" lon="13.921266869795687"><ele>500.0</ele><time>2026-04-11T13:49:34.957Z</time></trkpt><trkpt lat="45.51825985565326" lon="13.92114410589412"><ele>499.6666666666667</ele><time>2026-04-11T13:49:36.957Z</time></trkpt><trkpt lat="45.51820451808834" lon="13.921080511437149"><ele>499.33333333333337</ele><time>2026-04-11T13:49:38.957Z</time></trkpt><trkpt lat="45.51816908898889" lon="13.92099486774627"><ele>499.0</ele><time>2026-04-11T13:49:45.957Z</time></trkpt><trkpt lat="45.51811244905912" lon="13.920955117279783"><ele>497.33333333333337</ele><time>2026-04-11T13:49:47.957Z</time></trkpt><trkpt lat="45.51803587993296" lon="13.920869874932515"><ele>495.6666666666667</ele><time>2026-04-11T13:49:49.957Z</time></trkpt><trkpt lat="45.51800735490913" lon="13.920765843111674"><ele>494.0</ele><time>2026-04-11T13:49:51.957Z</time></trkpt><trkpt lat="45.51799952723634" lon="13.92066664903212"><ele>492.33333333333337</ele><time>2026-04-11T13:49:53.957Z</time></trkpt><trkpt lat="45.51799799887215" lon="13.920496989246121"><ele>490.6666666666667</ele><time>2026-04-11T13:49:55.957Z</time></trkpt><trkpt lat="45.51799598095788" lon="13.920398394630704"><ele>489.0</ele><time>2026-04-11T13:49:56.957Z</time></trkpt><trkpt lat="45.51801116754035" lon="13.920272618787061"><ele>489.0</ele><time>2026-04-11T13:49:57.957Z</time></trkpt><trkpt lat="45.51804750389774" lon="13.920156606270448"><ele>489.0</ele><time>2026-04-11T13:49:58.957Z</time></trkpt><trkpt lat="45.51806981910797" lon="13.92002967708273"><ele>489.0</ele><time>2026-04-11T13:49:59.957Z</time></trkpt><trkpt lat="45.51808168097694" lon="13.91993008155408"><ele>489.0</ele><time>2026-04-11T13:50:00.957Z</time></trkpt><trkpt lat="45.518074289885085" lon="13.919768424299798"><ele>489.0</ele><time>2026-04-11T13:50:01.957Z</time></trkpt><trkpt lat="45.518076157940385" lon="13.919595958917684"><ele>487.0</ele><time>2026-04-11T13:50:02.957Z</time></trkpt><trkpt lat="45.51806318778712" lon="13.919438304353411"><ele>485.0</ele><time>2026-04-11T13:50:03.957Z</time></trkpt><trkpt lat="45.51805156836425" lon="13.919290105535872"><ele>483.0</ele><time>2026-04-11T13:50:04.957Z</time></trkpt><trkpt lat="45.51802835229504" lon="13.919143875096395"><ele>481.0</ele><time>2026-04-11T13:50:05.957Z</time></trkpt><trkpt lat="45.517995688519356" lon="13.919016814389813"><ele>479.0</ele><time>2026-04-11T13:50:06.957Z</time></trkpt><trkpt lat="45.517969354515465" lon="13.918905053409102"><ele>478.16666666666663</ele><time>2026-04-11T13:50:07.957Z</time></trkpt><trkpt lat="45.51791927050382" lon="13.91877960815664"><ele>477.3333333333333</ele><time>2026-04-11T13:50:08.957Z</time></trkpt><trkpt lat="45.51786529804902" lon="13.918689319496359"><ele>476.5</ele><time>2026-04-11T13:50:09.957Z</time></trkpt><trkpt lat="45.51781493777193" lon="13.918596112768373"><ele>475.66666666666663</ele><time>2026-04-11T13:50:10.957Z</time></trkpt><trkpt lat="45.51780600311217" lon="13.918475502306888"><ele>474.8333333333333</ele><time>2026-04-11T13:50:11.957Z</time></trkpt><trkpt lat="45.51777711165705" lon="13.918354490257347"><ele>474.0</ele><time>2026-04-11T13:50:12.957Z</time></trkpt><trkpt lat="45.51774849092463" lon="13.918213630567504"><ele>472.2</ele><time>2026-04-11T13:50:13.957Z</time></trkpt><trkpt lat="45.517741531203875" lon="13.918086988328339"><ele>470.4</ele><time>2026-04-11T13:50:14.957Z</time></trkpt><trkpt lat="45.51775095182134" lon="13.917959888243411"><ele>468.6</ele><time>2026-04-11T13:50:15.957Z</time></trkpt><trkpt lat="45.51775660407156" lon="13.91780389767027"><ele>466.8</ele><time>2026-04-11T13:50:16.957Z</time></trkpt><trkpt lat="45.517762958992385" lon="13.917664224709576"><ele>465.0</ele><time>2026-04-11T13:50:17.957Z</time></trkpt><trkpt lat="45.51776614641892" lon="13.917517542046804"><ele>463.4</ele><time>2026-04-11T13:50:18.957Z</time></trkpt><trkpt lat="45.51776213435429" lon="13.917358368641121"><ele>461.8</ele><time>2026-04-11T13:50:19.957Z</time></trkpt><trkpt lat="45.5177533391902" lon="13.917211469727697"><ele>460.20000000000005</ele><time>2026-04-11T13:50:20.957Z</time></trkpt><trkpt lat="45.517735403220904" lon="13.917064628428827"><ele>458.6</ele><time>2026-04-11T13:50:21.957Z</time></trkpt><trkpt lat="45.51769887662516" lon="13.9169503659887"><ele>457.0</ele><time>2026-04-11T13:50:23.957Z</time></trkpt><trkpt lat="45.51763495354473" lon="13.916912033065152"><ele>457.00000000000006</ele><time>2026-04-11T13:50:24.957Z</time></trkpt><trkpt lat="45.51756761416061" lon="13.916910993504922"><ele>457.0</ele><time>2026-04-11T13:50:25.957Z</time></trkpt><trkpt lat="45.517466603037676" lon="13.91698905455554"><ele>457.0</ele><time>2026-04-11T13:50:27.957Z</time></trkpt><trkpt lat="45.51739089258317" lon="13.91710611595125"><ele>457.0</ele><time>2026-04-11T13:50:29.957Z</time></trkpt><trkpt lat="45.51734543622845" lon="13.91717139003279"><ele>457.00000000000006</ele><time>2026-04-11T13:50:30.957Z</time></trkpt><trkpt lat="45.51730137709583" lon="13.91723843410848"><ele>457.0</ele><time>2026-04-11T13:50:31.957Z</time></trkpt><trkpt lat="45.51725561813184" lon="13.917307926363284"><ele>457.00000000000006</ele><time>2026-04-11T13:50:32.957Z</time></trkpt><trkpt lat="45.51719563745073" lon="13.917414128574777"><ele>457.0</ele><time>2026-04-11T13:50:34.957Z</time></trkpt><trkpt lat="45.5171484173822" lon="13.91749114359212"><ele>457.0</ele><time>2026-04-11T13:50:36.957Z</time></trkpt><trkpt lat="45.517094523740276" lon="13.91757578781048"><ele>457.0</ele><time>2026-04-11T13:50:39.957Z</time></trkpt><trkpt lat="45.5170259468322" lon="13.91758881756404"><ele>457.00000000000006</ele><time>2026-04-11T13:50:41.956Z</time></trkpt><trkpt lat="45.51699924293132" lon="13.917478469167245"><ele>457.0</ele><time>2026-04-11T13:50:43.956Z</time></trkpt><trkpt lat="45.51704472044346" lon="13.91733742494536"><ele>457.00000000000006</ele><time>2026-04-11T13:50:45.956Z</time></trkpt><trkpt lat="45.51708175395291" lon="13.917226081083356"><ele>457.0</ele><time>2026-04-11T13:50:46.956Z</time></trkpt><trkpt lat="45.51712403955298" lon="13.917108589149361"><ele>457.0</ele><time>2026-04-11T13:50:47.956Z</time></trkpt><trkpt lat="45.517152756650724" lon="13.917008631735595"><ele>457.0</ele><time>2026-04-11T13:50:48.956Z</time></trkpt><trkpt lat="45.51718876009585" lon="13.916916862084554"><ele>457.00000000000006</ele><time>2026-04-11T13:50:49.956Z</time></trkpt><trkpt lat="45.51723225634947" lon="13.916803352340427"><ele>457.0</ele><time>2026-04-11T13:50:50.956Z</time></trkpt><trkpt lat="45.51726447055673" lon="13.91670567455547"><ele>454.8</ele><time>2026-04-11T13:50:51.956Z</time></trkpt><trkpt lat="45.51729566154791" lon="13.91658529348383"><ele>452.6</ele><time>2026-04-11T13:50:52.956Z</time></trkpt><trkpt lat="45.517314087012956" lon="13.916473177272545"><ele>450.40000000000003</ele><time>2026-04-11T13:50:53.956Z</time></trkpt><trkpt lat="45.51732007673333" lon="13.916344437235525"><ele>448.20000000000005</ele><time>2026-04-11T13:50:54.956Z</time></trkpt><trkpt lat="45.51731027405522" lon="13.916212851725017"><ele>446.0</ele><time>2026-04-11T13:50:55.956Z</time></trkpt><trkpt lat="45.51730760592551" lon="13.916073899405736"><ele>446.0</ele><time>2026-04-11T13:50:56.956Z</time></trkpt><trkpt lat="45.51731104935822" lon="13.915939358071867"><ele>446.0</ele><time>2026-04-11T13:50:57.956Z</time></trkpt><trkpt lat="45.517303729100696" lon="13.915829426875119"><ele>446.0</ele><time>2026-04-11T13:50:58.956Z</time></trkpt><trkpt lat="45.51731912644139" lon="13.91568545531594"><ele>446.0</ele><time>2026-04-11T13:50:59.956Z</time></trkpt><trkpt lat="45.517324602972266" lon="13.915559495024617"><ele>446.0</ele><time>2026-04-11T13:51:00.956Z</time></trkpt><trkpt lat="45.517338066272835" lon="13.915418618921446"><ele>444.0</ele><time>2026-04-11T13:51:01.956Z</time></trkpt><trkpt lat="45.51733172669953" lon="13.915288691480736"><ele>442.0</ele><time>2026-04-11T13:51:02.956Z</time></trkpt><trkpt lat="45.517344665993875" lon="13.915149485085982"><ele>440.0</ele><time>2026-04-11T13:51:03.956Z</time></trkpt><trkpt lat="45.51735924914397" lon="13.915012889472603"><ele>438.0</ele><time>2026-04-11T13:51:04.956Z</time></trkpt><trkpt lat="45.517377296743376" lon="13.914868801929467"><ele>436.0</ele><time>2026-04-11T13:51:05.956Z</time></trkpt><trkpt lat="45.517406220760186" lon="13.914736611701816"><ele>433.8</ele><time>2026-04-11T13:51:06.956Z</time></trkpt><trkpt lat="45.51744310081218" lon="13.914617471729812"><ele>431.6</ele><time>2026-04-11T13:51:07.956Z</time></trkpt><trkpt lat="45.517508203551046" lon="13.914514034390242"><ele>429.4</ele><time>2026-04-11T13:51:08.956Z</time></trkpt><trkpt lat="45.51754785176704" lon="13.914376642482065"><ele>427.2</ele><time>2026-04-11T13:51:09.956Z</time></trkpt><trkpt lat="45.51758301943176" lon="13.914254197821222"><ele>425.0</ele><time>2026-04-11T13:51:10.956Z</time></trkpt><trkpt lat="45.517632580820354" lon="13.914146463517278"><ele>421.6</ele><time>2026-04-11T13:51:11.956Z</time></trkpt><trkpt lat="45.51766145974886" lon="13.91402217510925"><ele>418.2</ele><time>2026-04-11T13:51:12.956Z</time></trkpt><trkpt lat="45.517686472477244" lon="13.913920711794752"><ele>414.79999999999995</ele><time>2026-04-11T13:51:13.956Z</time></trkpt><trkpt lat="45.51772225325505" lon="13.913766042336913"><ele>411.4</ele><time>2026-04-11T13:51:15.956Z</time></trkpt><trkpt lat="45.51774732806692" lon="13.913678997650997"><ele>408.0</ele><time>2026-04-11T13:51:16.956Z</time></trkpt><trkpt lat="45.51784171191961" lon="13.913586441576479"><ele>408.0</ele><time>2026-04-11T13:51:18.957Z</time></trkpt><trkpt lat="45.51788549680454" lon="13.913499119122926"><ele>408.0</ele><time>2026-04-11T13:51:19.958Z</time></trkpt><trkpt lat="45.51794958997645" lon="13.91342070733402"><ele>408.0</ele><time>2026-04-11T13:51:20.958Z</time></trkpt><trkpt lat="45.51800692406377" lon="13.913317414644965"><ele>408.0</ele><time>2026-04-11T13:51:21.958Z</time></trkpt><trkpt lat="45.518050992173144" lon="13.913214555123783"><ele>408.0</ele><time>2026-04-11T13:51:22.957Z</time></trkpt><trkpt lat="45.518103497638414" lon="13.913106258305826"><ele>408.0</ele><time>2026-04-11T13:51:23.957Z</time></trkpt><trkpt lat="45.51814693263859" lon="13.912986591749855"><ele>408.8333333333333</ele><time>2026-04-11T13:51:24.957Z</time></trkpt><trkpt lat="45.51817980034714" lon="13.912859265864748"><ele>409.66666666666663</ele><time>2026-04-11T13:51:25.957Z</time></trkpt><trkpt lat="45.51821702740564" lon="13.912740886493484"><ele>410.5</ele><time>2026-04-11T13:51:26.957Z</time></trkpt><trkpt lat="45.51824108938225" lon="13.91261229653668"><ele>411.3333333333333</ele><time>2026-04-11T13:51:27.957Z</time></trkpt><trkpt lat="45.51827637540552" lon="13.912507230703918"><ele>412.16666666666663</ele><time>2026-04-11T13:51:28.958Z</time></trkpt><trkpt lat="45.51833203324255" lon="13.91242220437976"><ele>413.0</ele><time>2026-04-11T13:51:29.958Z</time></trkpt><trkpt lat="45.51838164674202" lon="13.912342504595607"><ele>413.49999999999994</ele><time>2026-04-11T13:51:30.957Z</time></trkpt><trkpt lat="45.51842754399142" lon="13.912262407034282"><ele>414.0</ele><time>2026-04-11T13:51:31.957Z</time></trkpt><trkpt lat="45.51849048451938" lon="13.912168701110879"><ele>414.5</ele><time>2026-04-11T13:51:32.957Z</time></trkpt><trkpt lat="45.51855677064376" lon="13.912089126019755"><ele>415.0</ele><time>2026-04-11T13:51:33.957Z</time></trkpt><trkpt lat="45.51862190524662" lon="13.912011497188052"><ele>415.49999999999994</ele><time>2026-04-11T13:51:34.957Z</time></trkpt><trkpt lat="45.518684356732074" lon="13.91192637646401"><ele>416.0</ele><time>2026-04-11T13:51:35.957Z</time></trkpt><trkpt lat="45.51873983992558" lon="13.91184033192065"><ele>415.99999999999994</ele><time>2026-04-11T13:51:36.957Z</time></trkpt><trkpt lat="45.51878608158419" lon="13.911750491555233"><ele>416.0</ele><time>2026-04-11T13:51:37.957Z</time></trkpt><trkpt lat="45.51884190469426" lon="13.911655679375428"><ele>416.0</ele><time>2026-04-11T13:51:38.957Z</time></trkpt><trkpt lat="45.518914837794945" lon="13.911568669566481"><ele>416.0</ele><time>2026-04-11T13:51:39.957Z</time></trkpt><trkpt lat="45.518983256113565" lon="13.911477967908818"><ele>415.99999999999994</ele><time>2026-04-11T13:51:40.957Z</time></trkpt><trkpt lat="45.519041513227066" lon="13.911370447968231"><ele>416.0</ele><time>2026-04-11T13:51:41.957Z</time></trkpt><trkpt lat="45.51909873790904" lon="13.911259673977607"><ele>411.8333333333333</ele><time>2026-04-11T13:51:42.957Z</time></trkpt><trkpt lat="45.519151164163816" lon="13.911150457440783"><ele>407.66666666666663</ele><time>2026-04-11T13:51:43.957Z</time></trkpt><trkpt lat="45.51919494385573" lon="13.911043931651063"><ele>403.5</ele><time>2026-04-11T13:51:44.957Z</time></trkpt><trkpt lat="45.519244374251016" lon="13.910927388165058"><ele>399.33333333333337</ele><time>2026-04-11T13:51:45.957Z</time></trkpt><trkpt lat="45.51928977040786" lon="13.910816339671443"><ele>395.1666666666667</ele><time>2026-04-11T13:51:46.957Z</time></trkpt><trkpt lat="45.519319462525296" lon="13.910731131441532"><ele>391.0</ele><time>2026-04-11T13:51:47.957Z</time></trkpt><trkpt lat="45.51936519623249" lon="13.910662295564574"><ele>390.83333333333337</ele><time>2026-04-11T13:51:48.957Z</time></trkpt><trkpt lat="45.51942055038456" lon="13.910590621941585"><ele>390.6666666666667</ele><time>2026-04-11T13:51:49.957Z</time></trkpt><trkpt lat="45.51948698321815" lon="13.910508816937392"><ele>390.5</ele><time>2026-04-11T13:51:50.957Z</time></trkpt><trkpt lat="45.519549326837655" lon="13.910425201294847"><ele>390.33333333333337</ele><time>2026-04-11T13:51:51.957Z</time></trkpt><trkpt lat="45.51960016401458" lon="13.91033190847467"><ele>390.1666666666667</ele><time>2026-04-11T13:51:52.957Z</time></trkpt><trkpt lat="45.51965876843241" lon="13.910244891943014"><ele>390.0</ele><time>2026-04-11T13:51:53.957Z</time></trkpt><trkpt lat="45.51971255762443" lon="13.910174726632603"><ele>390.0</ele><time>2026-04-11T13:51:54.957Z</time></trkpt><trkpt lat="45.51978001449556" lon="13.910098985545675"><ele>390.0</ele><time>2026-04-11T13:51:55.957Z</time></trkpt><trkpt lat="45.519853832935965" lon="13.910022340243916"><ele>390.0</ele><time>2026-04-11T13:51:56.957Z</time></trkpt><trkpt lat="45.519908336090936" lon="13.909931582430804"><ele>390.0</ele><time>2026-04-11T13:51:57.957Z</time></trkpt><trkpt lat="45.51996242597677" lon="13.909845341361564"><ele>390.0</ele><time>2026-04-11T13:51:58.957Z</time></trkpt><trkpt lat="45.52001088315293" lon="13.909754026021744"><ele>390.0</ele><time>2026-04-11T13:51:59.957Z</time></trkpt><trkpt lat="45.52009961361267" lon="13.9096404676814"><ele>384.5</ele><time>2026-04-11T13:52:01.957Z</time></trkpt><trkpt lat="45.52015296797324" lon="13.909546388244447"><ele>379.0</ele><time>2026-04-11T13:52:03.957Z</time></trkpt><trkpt lat="45.52016187629183" lon="13.909456202706961"><ele>373.5</ele><time>2026-04-11T13:52:06.957Z</time></trkpt><trkpt lat="45.52009556530377" lon="13.909423685456435"><ele>368.0</ele><time>2026-04-11T13:52:09.957Z</time></trkpt><trkpt lat="45.52003399275121" lon="13.909511548715244"><ele>362.5</ele><time>2026-04-11T13:52:11.957Z</time></trkpt><trkpt lat="45.51998539857948" lon="13.909584465079503"><ele>357.0</ele><time>2026-04-11T13:52:12.957Z</time></trkpt><trkpt lat="45.51993130816269" lon="13.909669585773198"><ele>357.0</ele><time>2026-04-11T13:52:13.957Z</time></trkpt><trkpt lat="45.51985514903942" lon="13.909760997823899"><ele>357.0</ele><time>2026-04-11T13:52:14.957Z</time></trkpt><trkpt lat="45.51974375233496" lon="13.909830737734554"><ele>357.0</ele><time>2026-04-11T13:52:15.957Z</time></trkpt><trkpt lat="45.51962218153137" lon="13.909886769697726"><ele>357.0</ele><time>2026-04-11T13:52:16.957Z</time></trkpt><trkpt lat="45.519516449944504" lon="13.9099447747508"><ele>357.40000000000003</ele><time>2026-04-11T13:52:17.957Z</time></trkpt><trkpt lat="45.51941200452585" lon="13.910013341469929"><ele>357.8</ele><time>2026-04-11T13:52:18.957Z</time></trkpt><trkpt lat="45.519309550360745" lon="13.910100982079951"><ele>358.2</ele><time>2026-04-11T13:52:19.957Z</time></trkpt><trkpt lat="45.51922522886004" lon="13.910196641767767"><ele>358.6</ele><time>2026-04-11T13:52:20.957Z</time></trkpt><trkpt lat="45.51916076844602" lon="13.910298319873633"><ele>359.0</ele><time>2026-04-11T13:52:21.957Z</time></trkpt><trkpt lat="45.51910178363675" lon="13.910408541893952"><ele>359.0</ele><time>2026-04-11T13:52:22.957Z</time></trkpt><trkpt lat="45.51902635165325" lon="13.910530389857513"><ele>359.0</ele><time>2026-04-11T13:52:23.957Z</time></trkpt><trkpt lat="45.518937539989956" lon="13.91065432511943"><ele>359.0</ele><time>2026-04-11T13:52:24.957Z</time></trkpt><trkpt lat="45.518816263225254" lon="13.910772858147567"><ele>359.0</ele><time>2026-04-11T13:52:25.957Z</time></trkpt><trkpt lat="45.51867422984897" lon="13.910910822263272"><ele>360.25</ele><time>2026-04-11T13:52:26.957Z</time></trkpt><trkpt lat="45.51853319774881" lon="13.911045012947671"><ele>361.5</ele><time>2026-04-11T13:52:27.957Z</time></trkpt><trkpt lat="45.518409546226735" lon="13.911159400840843"><ele>362.75</ele><time>2026-04-11T13:52:28.957Z</time></trkpt><trkpt lat="45.51830686319435" lon="13.911271215083232"><ele>364.0</ele><time>2026-04-11T13:52:29.957Z</time></trkpt><trkpt lat="45.518215813436385" lon="13.911378618136673"><ele>364.0</ele><time>2026-04-11T13:52:30.957Z</time></trkpt><trkpt lat="45.51812914695943" lon="13.911484841257405"><ele>364.0</ele><time>2026-04-11T13:52:31.957Z</time></trkpt><trkpt lat="45.51803900480074" lon="13.911541871586232"><ele>364.0</ele><time>2026-04-11T13:52:32.957Z</time></trkpt><trkpt lat="45.5179527555378" lon="13.911624589241184"><ele>364.0</ele><time>2026-04-11T13:52:33.957Z</time></trkpt><trkpt lat="45.51787259284324" lon="13.911727732931706"><ele>364.0</ele><time>2026-04-11T13:52:34.957Z</time></trkpt><trkpt lat="45.51779580714704" lon="13.911845027773337"><ele>364.0</ele><time>2026-04-11T13:52:35.957Z</time></trkpt><trkpt lat="45.51770259803985" lon="13.911967608460545"><ele>364.0</ele><time>2026-04-11T13:52:36.957Z</time></trkpt><trkpt lat="45.51758530831061" lon="13.912051274452212"><ele>364.0</ele><time>2026-04-11T13:52:37.957Z</time></trkpt><trkpt lat="45.51746343718079" lon="13.912118641281861"><ele>364.0</ele><time>2026-04-11T13:52:38.957Z</time></trkpt><trkpt lat="45.517331724861876" lon="13.912178302003062"><ele>364.0</ele><time>2026-04-11T13:52:39.957Z</time></trkpt><trkpt lat="45.517190529243074" lon="13.912237289473758"><ele>364.0</ele><time>2026-04-11T13:52:40.956Z</time></trkpt><trkpt lat="45.517054542877766" lon="13.912291631489433"><ele>364.0</ele><time>2026-04-11T13:52:41.956Z</time></trkpt><trkpt lat="45.516930643348836" lon="13.912372172347782"><ele>364.0</ele><time>2026-04-11T13:52:42.956Z</time></trkpt><trkpt lat="45.51683480517714" lon="13.912487681007272"><ele>365.0</ele><time>2026-04-11T13:52:43.956Z</time></trkpt><trkpt lat="45.51677615622823" lon="13.912634642786808"><ele>366.0</ele><time>2026-04-11T13:52:44.956Z</time></trkpt><trkpt lat="45.51672913650154" lon="13.91279333511193"><ele>367.0</ele><time>2026-04-11T13:52:45.956Z</time></trkpt><trkpt lat="45.51669239490502" lon="13.912957671591045"><ele>368.0</ele><time>2026-04-11T13:52:46.956Z</time></trkpt><trkpt lat="45.51661286704685" lon="13.913088238235042"><ele>368.0</ele><time>2026-04-11T13:52:47.956Z</time></trkpt><trkpt lat="45.51652464706876" lon="13.91324730176739"><ele>368.0</ele><time>2026-04-11T13:52:48.956Z</time></trkpt><trkpt lat="45.5164271634915" lon="13.913410816870304"><ele>368.0</ele><time>2026-04-11T13:52:49.956Z</time></trkpt><trkpt lat="45.516323695629275" lon="13.913528732636586"><ele>368.0</ele><time>2026-04-11T13:52:50.956Z</time></trkpt><trkpt lat="45.51621095830764" lon="13.913599158273753"><ele>367.75</ele><time>2026-04-11T13:52:51.956Z</time></trkpt><trkpt lat="45.51608677179436" lon="13.913672793771584"><ele>367.5</ele><time>2026-04-11T13:52:52.956Z</time></trkpt><trkpt lat="45.515989136589305" lon="13.913782087301199"><ele>367.25</ele><time>2026-04-11T13:52:53.956Z</time></trkpt><trkpt lat="45.5159078432376" lon="13.91392712454137"><ele>367.0</ele><time>2026-04-11T13:52:54.956Z</time></trkpt><trkpt lat="45.51582222546689" lon="13.91408028468306"><ele>367.0</ele><time>2026-04-11T13:52:55.956Z</time></trkpt><trkpt lat="45.51571137267324" lon="13.914224552574915"><ele>367.0</ele><time>2026-04-11T13:52:56.956Z</time></trkpt><trkpt lat="45.51557530021577" lon="13.914332429975987"><ele>367.0</ele><time>2026-04-11T13:52:57.956Z</time></trkpt><trkpt lat="45.51543612641375" lon="13.91447658245903"><ele>367.3333333333333</ele><time>2026-04-11T13:52:58.956Z</time></trkpt><trkpt lat="45.51531366330838" lon="13.914652019948665"><ele>367.6666666666667</ele><time>2026-04-11T13:52:59.956Z</time></trkpt><trkpt lat="45.51518895533059" lon="13.91482655852336"><ele>368.0</ele><time>2026-04-11T13:53:00.956Z</time></trkpt><trkpt lat="45.5150612191184" lon="13.915001836592863"><ele>368.6666666666667</ele><time>2026-04-11T13:53:01.956Z</time></trkpt><trkpt lat="45.514929851637326" lon="13.915146313830622"><ele>369.3333333333333</ele><time>2026-04-11T13:53:02.956Z</time></trkpt><trkpt lat="45.51481760615514" lon="13.915308393658254"><ele>370.0</ele><time>2026-04-11T13:53:03.956Z</time></trkpt><trkpt lat="45.51469099842691" lon="13.915447713498033"><ele>370.0</ele><time>2026-04-11T13:53:04.956Z</time></trkpt><trkpt lat="45.51456620781986" lon="13.915581106629775"><ele>370.0</ele><time>2026-04-11T13:53:05.956Z</time></trkpt><trkpt lat="45.51443685076906" lon="13.915711122330013"><ele>370.0</ele><time>2026-04-11T13:53:06.956Z</time></trkpt><trkpt lat="45.51431231355192" lon="13.91584054735401"><ele>369.66666666666663</ele><time>2026-04-11T13:53:07.956Z</time></trkpt><trkpt lat="45.5141783805382" lon="13.915957331160575"><ele>369.3333333333333</ele><time>2026-04-11T13:53:08.956Z</time></trkpt><trkpt lat="45.514071352265866" lon="13.916120411013598"><ele>369.0</ele><time>2026-04-11T13:53:09.956Z</time></trkpt><trkpt lat="45.51395553855541" lon="13.916279450976589"><ele>369.0</ele><time>2026-04-11T13:53:10.956Z</time></trkpt><trkpt lat="45.513853380458016" lon="13.916452940877354"><ele>369.0</ele><time>2026-04-11T13:53:11.956Z</time></trkpt><trkpt lat="45.51373077077389" lon="13.91661997271603"><ele>369.0</ele><time>2026-04-11T13:53:12.956Z</time></trkpt><trkpt lat="45.51363569555145" lon="13.916815715416776"><ele>370.3333333333333</ele><time>2026-04-11T13:53:13.956Z</time></trkpt><trkpt lat="45.5135292647678" lon="13.917013730910378"><ele>371.66666666666663</ele><time>2026-04-11T13:53:14.956Z</time></trkpt><trkpt lat="45.51342847950158" lon="13.917217879466792"><ele>373.0</ele><time>2026-04-11T13:53:15.956Z</time></trkpt><trkpt lat="45.51332346935412" lon="13.917425403121314"><ele>372.66666666666663</ele><time>2026-04-11T13:53:16.956Z</time></trkpt><trkpt lat="45.51321032439813" lon="13.917631987774568"><ele>372.3333333333333</ele><time>2026-04-11T13:53:17.956Z</time></trkpt><trkpt lat="45.513102731314774" lon="13.91783922724704"><ele>372.0</ele><time>2026-04-11T13:53:18.956Z</time></trkpt><trkpt lat="45.51299274798011" lon="13.91805520572354"><ele>373.0</ele><time>2026-04-11T13:53:19.956Z</time></trkpt><trkpt lat="45.512889204458105" lon="13.918274650509847"><ele>374.0</ele><time>2026-04-11T13:53:20.956Z</time></trkpt><trkpt lat="45.512779173971275" lon="13.918506414947457"><ele>375.0</ele><time>2026-04-11T13:53:21.956Z</time></trkpt><trkpt lat="45.51266752046602" lon="13.918741557436658"><ele>375.0</ele><time>2026-04-11T13:53:22.956Z</time></trkpt><trkpt lat="45.512558267268005" lon="13.918981249950042"><ele>375.0</ele><time>2026-04-11T13:53:23.958Z</time></trkpt><trkpt lat="45.51243107635561" lon="13.919208987863781"><ele>375.0</ele><time>2026-04-11T13:53:24.958Z</time></trkpt><trkpt lat="45.51233059636131" lon="13.919466768284071"><ele>374.6666666666667</ele><time>2026-04-11T13:53:25.958Z</time></trkpt><trkpt lat="45.51222690287369" lon="13.919712679851807"><ele>374.33333333333337</ele><time>2026-04-11T13:53:26.958Z</time></trkpt><trkpt lat="45.51211934449921" lon="13.919970168389632"><ele>374.0</ele><time>2026-04-11T13:53:27.958Z</time></trkpt><trkpt lat="45.51201479012651" lon="13.920217785659347"><ele>375.6666666666667</ele><time>2026-04-11T13:53:28.958Z</time></trkpt><trkpt lat="45.511915849805455" lon="13.920473122959622"><ele>377.3333333333333</ele><time>2026-04-11T13:53:29.958Z</time></trkpt><trkpt lat="45.5118094842396" lon="13.920727776605025"><ele>379.0</ele><time>2026-04-11T13:53:30.957Z</time></trkpt><trkpt lat="45.511692917135214" lon="13.920972540982792"><ele>379.0</ele><time>2026-04-11T13:53:31.957Z</time></trkpt><trkpt lat="45.51158531414321" lon="13.92120826486656"><ele>379.0</ele><time>2026-04-11T13:53:32.957Z</time></trkpt><trkpt lat="45.5114644389802" lon="13.92142224288992"><ele>379.0</ele><time>2026-04-11T13:53:33.958Z</time></trkpt><trkpt lat="45.51134594579389" lon="13.921634057702008"><ele>380.66666666666663</ele><time>2026-04-11T13:53:34.958Z</time></trkpt><trkpt lat="45.51120989179743" lon="13.921819876300301"><ele>382.3333333333333</ele><time>2026-04-11T13:53:35.958Z</time></trkpt><trkpt lat="45.51107300897361" lon="13.922011118184425"><ele>384.0</ele><time>2026-04-11T13:53:36.958Z</time></trkpt><trkpt lat="45.51093308128681" lon="13.922199464846274"><ele>384.0</ele><time>2026-04-11T13:53:37.958Z</time></trkpt><trkpt lat="45.51078494096998" lon="13.922377899834984"><ele>384.0</ele><time>2026-04-11T13:53:38.958Z</time></trkpt><trkpt lat="45.51063678461389" lon="13.922553433417178"><ele>384.0</ele><time>2026-04-11T13:53:39.958Z</time></trkpt><trkpt lat="45.51048661423219" lon="13.922729281016116"><ele>385.33333333333337</ele><time>2026-04-11T13:53:40.958Z</time></trkpt><trkpt lat="45.51033278531111" lon="13.922899836189742"><ele>386.6666666666667</ele><time>2026-04-11T13:53:41.958Z</time></trkpt><trkpt lat="45.51017831127527" lon="13.923058028202577"><ele>388.0</ele><time>2026-04-11T13:53:42.958Z</time></trkpt><trkpt lat="45.51001817682888" lon="13.923222441034495"><ele>388.0</ele><time>2026-04-11T13:53:43.958Z</time></trkpt><trkpt lat="45.509843329880866" lon="13.923337359696617"><ele>388.0</ele><time>2026-04-11T13:53:44.958Z</time></trkpt><trkpt lat="45.50967987597248" lon="13.923464120433495"><ele>388.0</ele><time>2026-04-11T13:53:45.958Z</time></trkpt><trkpt lat="45.5095125732986" lon="13.923585048553834"><ele>389.6666666666667</ele><time>2026-04-11T13:53:46.958Z</time></trkpt><trkpt lat="45.50934712987379" lon="13.923700124235424"><ele>391.33333333333337</ele><time>2026-04-11T13:53:47.958Z</time></trkpt><trkpt lat="45.5091831106099" lon="13.923816257884488"><ele>393.0</ele><time>2026-04-11T13:53:48.958Z</time></trkpt><trkpt lat="45.509017970073494" lon="13.923921233557037"><ele>393.0</ele><time>2026-04-11T13:53:49.958Z</time></trkpt><trkpt lat="45.50884715500992" lon="13.924017648345899"><ele>393.0</ele><time>2026-04-11T13:53:50.958Z</time></trkpt><trkpt lat="45.50868940721012" lon="13.924133810727533"><ele>393.0</ele><time>2026-04-11T13:53:51.958Z</time></trkpt><trkpt lat="45.50852946335978" lon="13.924202888264457"><ele>399.0</ele><time>2026-04-11T13:53:52.958Z</time></trkpt><trkpt lat="45.50837567415704" lon="13.92429615378654"><ele>405.0</ele><time>2026-04-11T13:53:53.957Z</time></trkpt><trkpt lat="45.50823983302769" lon="13.924419741041822"><ele>411.0</ele><time>2026-04-11T13:53:54.957Z</time></trkpt><trkpt lat="45.50808397310636" lon="13.924515055595378"><ele>411.0</ele><time>2026-04-11T13:53:55.957Z</time></trkpt><trkpt lat="45.50793900033968" lon="13.924651019845593"><ele>411.0</ele><time>2026-04-11T13:53:56.957Z</time></trkpt><trkpt lat="45.50781411159888" lon="13.924824899429002"><ele>411.0</ele><time>2026-04-11T13:53:57.957Z</time></trkpt><trkpt lat="45.507680757499166" lon="13.924992950714355"><ele>413.0</ele><time>2026-04-11T13:53:58.957Z</time></trkpt><trkpt lat="45.50754247720805" lon="13.925168589528377"><ele>415.0</ele><time>2026-04-11T13:53:59.957Z</time></trkpt><trkpt lat="45.5073884776473" lon="13.925327445140233"><ele>417.0</ele><time>2026-04-11T13:54:00.957Z</time></trkpt><trkpt lat="45.50721997303903" lon="13.925461893685705"><ele>411.33333333333337</ele><time>2026-04-11T13:54:01.957Z</time></trkpt><trkpt lat="45.50704588302101" lon="13.925592007421127"><ele>405.6666666666667</ele><time>2026-04-11T13:54:02.957Z</time></trkpt><trkpt lat="45.50687351549663" lon="13.925742865667726"><ele>400.0</ele><time>2026-04-11T13:54:03.957Z</time></trkpt><trkpt lat="45.506705770188475" lon="13.925889411460622"><ele>405.6666666666667</ele><time>2026-04-11T13:54:04.957Z</time></trkpt><trkpt lat="45.50654713772467" lon="13.926071245942863"><ele>411.33333333333337</ele><time>2026-04-11T13:54:05.957Z</time></trkpt><trkpt lat="45.50641255865541" lon="13.926266714433927"><ele>417.0</ele><time>2026-04-11T13:54:06.957Z</time></trkpt><trkpt lat="45.506268680783336" lon="13.92643610181651"><ele>416.0</ele><time>2026-04-11T13:54:07.957Z</time></trkpt><trkpt lat="45.50614487384215" lon="13.926632072429072"><ele>415.0</ele><time>2026-04-11T13:54:08.957Z</time></trkpt><trkpt lat="45.5060267184069" lon="13.92682905161465"><ele>414.0</ele><time>2026-04-11T13:54:09.957Z</time></trkpt><trkpt lat="45.50592144594668" lon="13.927046302279118"><ele>414.0</ele><time>2026-04-11T13:54:10.957Z</time></trkpt><trkpt lat="45.50580711400011" lon="13.927244081692928"><ele>414.0</ele><time>2026-04-11T13:54:11.957Z</time></trkpt><trkpt lat="45.505687883780205" lon="13.927434077475802"><ele>414.0</ele><time>2026-04-11T13:54:12.957Z</time></trkpt><trkpt lat="45.505542390674115" lon="13.927575825854332"><ele>414.33333333333337</ele><time>2026-04-11T13:54:13.957Z</time></trkpt><trkpt lat="45.50539012281325" lon="13.927717220254333"><ele>414.6666666666667</ele><time>2026-04-11T13:54:14.957Z</time></trkpt><trkpt lat="45.505246292366294" lon="13.927847760894371"><ele>415.0</ele><time>2026-04-11T13:54:15.957Z</time></trkpt><trkpt lat="45.50509887588065" lon="13.927983810005264"><ele>415.0</ele><time>2026-04-11T13:54:16.957Z</time></trkpt><trkpt lat="45.50495023670857" lon="13.928113203856471"><ele>415.0</ele><time>2026-04-11T13:54:17.957Z</time></trkpt><trkpt lat="45.50479839184128" lon="13.928231301505997"><ele>415.0</ele><time>2026-04-11T13:54:18.957Z</time></trkpt><trkpt lat="45.50465328922503" lon="13.928332775716012"><ele>412.6666666666667</ele><time>2026-04-11T13:54:19.957Z</time></trkpt><trkpt lat="45.504514506409144" lon="13.928438955033206"><ele>410.33333333333337</ele><time>2026-04-11T13:54:20.957Z</time></trkpt><trkpt lat="45.50440006319028" lon="13.928591979882682"><ele>408.0</ele><time>2026-04-11T13:54:21.957Z</time></trkpt><trkpt lat="45.50430548332766" lon="13.928784161708885"><ele>408.0</ele><time>2026-04-11T13:54:22.957Z</time></trkpt><trkpt lat="45.50420692719853" lon="13.928971400375922"><ele>408.0</ele><time>2026-04-11T13:54:23.957Z</time></trkpt><trkpt lat="45.504084031796836" lon="13.929143740576029"><ele>408.0</ele><time>2026-04-11T13:54:24.957Z</time></trkpt><trkpt lat="45.50395647998276" lon="13.929322297177276"><ele>404.33333333333337</ele><time>2026-04-11T13:54:25.957Z</time></trkpt><trkpt lat="45.50383265965011" lon="13.929509206248838"><ele>400.6666666666667</ele><time>2026-04-11T13:54:26.957Z</time></trkpt><trkpt lat="45.50370223871308" lon="13.929680957150914"><ele>397.0</ele><time>2026-04-11T13:54:27.957Z</time></trkpt><trkpt lat="45.503562669548316" lon="13.929822208088904"><ele>397.0</ele><time>2026-04-11T13:54:28.957Z</time></trkpt><trkpt lat="45.50342085046306" lon="13.92995283101047"><ele>397.0</ele><time>2026-04-11T13:54:29.957Z</time></trkpt><trkpt lat="45.503277453967925" lon="13.930083117284461"><ele>397.0</ele><time>2026-04-11T13:54:30.957Z</time></trkpt><trkpt lat="45.50314109806644" lon="13.930252017284339"><ele>393.0</ele><time>2026-04-11T13:54:31.957Z</time></trkpt><trkpt lat="45.503012213978835" lon="13.930385400066838"><ele>389.0</ele><time>2026-04-11T13:54:32.957Z</time></trkpt><trkpt lat="45.502914439344565" lon="13.930551022322033"><ele>385.0</ele><time>2026-04-11T13:54:33.957Z</time></trkpt><trkpt lat="45.50283946155414" lon="13.930724197922524"><ele>387.25</ele><time>2026-04-11T13:54:34.957Z</time></trkpt><trkpt lat="45.50277955397304" lon="13.930903489831241"><ele>389.5</ele><time>2026-04-11T13:54:35.957Z</time></trkpt><trkpt lat="45.50269042219873" lon="13.93103325626633"><ele>391.75</ele><time>2026-04-11T13:54:36.957Z</time></trkpt><trkpt lat="45.502605791823484" lon="13.931132028241112"><ele>394.0</ele><time>2026-04-11T13:54:37.957Z</time></trkpt><trkpt lat="45.502539034705386" lon="13.93120403625463"><ele>394.0</ele><time>2026-04-11T13:54:38.957Z</time></trkpt><trkpt lat="45.5024734664752" lon="13.931300507791613"><ele>394.0</ele><time>2026-04-11T13:54:39.957Z</time></trkpt><trkpt lat="45.50239158153786" lon="13.931381586787843"><ele>394.0</ele><time>2026-04-11T13:54:40.957Z</time></trkpt><trkpt lat="45.50232990991035" lon="13.93142666314235"><ele>394.0</ele><time>2026-04-11T13:54:41.957Z</time></trkpt><trkpt lat="45.50225187616782" lon="13.931505863780247"><ele>394.0</ele><time>2026-04-11T13:54:43.957Z</time></trkpt><trkpt lat="45.50216905904527" lon="13.931605285544467"><ele>394.00000000000006</ele><time>2026-04-11T13:54:45.957Z</time></trkpt><trkpt lat="45.50212154118246" lon="13.931675261733817"><ele>394.0</ele><time>2026-04-11T13:54:46.957Z</time></trkpt><trkpt lat="45.50207445490519" lon="13.931747351259073"><ele>394.0</ele><time>2026-04-11T13:54:47.957Z</time></trkpt><trkpt lat="45.50202001610391" lon="13.931807791324514"><ele>394.0</ele><time>2026-04-11T13:54:48.957Z</time></trkpt><trkpt lat="45.50196142088378" lon="13.931877002955808"><ele>394.00000000000006</ele><time>2026-04-11T13:54:49.957Z</time></trkpt><trkpt lat="45.50190087795395" lon="13.9319456420142"><ele>394.0</ele><time>2026-04-11T13:54:50.957Z</time></trkpt><trkpt lat="45.50179466711266" lon="13.932027047363869"><ele>393.4</ele><time>2026-04-11T13:54:52.957Z</time></trkpt><trkpt lat="45.50170206927225" lon="13.93186402379415"><ele>392.79999999999995</ele><time>2026-04-11T13:54:54.957Z</time></trkpt><trkpt lat="45.50166880047176" lon="13.931778012126726"><ele>392.20000000000005</ele><time>2026-04-11T13:54:55.957Z</time></trkpt><trkpt lat="45.501619972288104" lon="13.931708292686281"><ele>391.6</ele><time>2026-04-11T13:54:56.957Z</time></trkpt><trkpt lat="45.50151375155434" lon="13.93162034285331"><ele>391.0</ele><time>2026-04-11T13:54:58.957Z</time></trkpt><trkpt lat="45.50145100394704" lon="13.931571973968863"><ele>389.6666666666667</ele><time>2026-04-11T13:54:59.957Z</time></trkpt><trkpt lat="45.50139084647336" lon="13.931512564418602"><ele>388.33333333333337</ele><time>2026-04-11T13:55:00.957Z</time></trkpt><trkpt lat="45.50133723802545" lon="13.931456623826168"><ele>387.0</ele><time>2026-04-11T13:55:01.957Z</time></trkpt><trkpt lat="45.50127504510145" lon="13.931381224693961"><ele>385.6666666666667</ele><time>2026-04-11T13:55:02.957Z</time></trkpt><trkpt lat="45.50123039196921" lon="13.931295583221251"><ele>384.33333333333337</ele><time>2026-04-11T13:55:03.957Z</time></trkpt><trkpt lat="45.50119557404949" lon="13.93120822784646"><ele>383.0</ele><time>2026-04-11T13:55:04.957Z</time></trkpt><trkpt lat="45.50107389285092" lon="13.931187036328135"><ele>382.59999999999997</ele><time>2026-04-11T13:55:06.957Z</time></trkpt><trkpt lat="45.50098490637345" lon="13.931240509614051"><ele>382.2</ele><time>2026-04-11T13:55:07.957Z</time></trkpt><trkpt lat="45.500882478625165" lon="13.931300581744685"><ele>381.8</ele><time>2026-04-11T13:55:08.957Z</time></trkpt><trkpt lat="45.500778303856066" lon="13.931352751658604"><ele>381.4</ele><time>2026-04-11T13:55:09.957Z</time></trkpt><trkpt lat="45.50067812209067" lon="13.931400775900485"><ele>381.0</ele><time>2026-04-11T13:55:10.957Z</time></trkpt><trkpt lat="45.50056534061957" lon="13.931450449771186"><ele>381.0</ele><time>2026-04-11T13:55:11.957Z</time></trkpt><trkpt lat="45.50043534367339" lon="13.931495559957975"><ele>381.0</ele><time>2026-04-11T13:55:12.957Z</time></trkpt><trkpt lat="45.500300523965514" lon="13.93154220958328"><ele>381.0</ele><time>2026-04-11T13:55:13.957Z</time></trkpt><trkpt lat="45.50016246347477" lon="13.931572438838703"><ele>381.0</ele><time>2026-04-11T13:55:14.957Z</time></trkpt><trkpt lat="45.50003243679684" lon="13.931607683945229"><ele>382.25</ele><time>2026-04-11T13:55:15.957Z</time></trkpt><trkpt lat="45.49991487416761" lon="13.93164381651772"><ele>383.5</ele><time>2026-04-11T13:55:16.957Z</time></trkpt><trkpt lat="45.49980245283368" lon="13.931685046591214"><ele>384.75</ele><time>2026-04-11T13:55:17.957Z</time></trkpt><trkpt lat="45.49969083182709" lon="13.931711537116238"><ele>386.0</ele><time>2026-04-11T13:55:18.957Z</time></trkpt><trkpt lat="45.49956393740869" lon="13.931677106565555"><ele>386.5</ele><time>2026-04-11T13:55:19.957Z</time></trkpt><trkpt lat="45.49945234453598" lon="13.931716077006605"><ele>387.0</ele><time>2026-04-11T13:55:20.957Z</time></trkpt><trkpt lat="45.49934235309932" lon="13.931803713595382"><ele>387.5</ele><time>2026-04-11T13:55:21.957Z</time></trkpt><trkpt lat="45.49924113426064" lon="13.93189583340955"><ele>388.0</ele><time>2026-04-11T13:55:22.957Z</time></trkpt><trkpt lat="45.49913031397458" lon="13.931989737755092"><ele>388.0</ele><time>2026-04-11T13:55:23.957Z</time></trkpt><trkpt lat="45.49902700803851" lon="13.932086999652324"><ele>388.0</ele><time>2026-04-11T13:55:24.957Z</time></trkpt><trkpt lat="45.4989200663318" lon="13.932196817351821"><ele>388.0</ele><time>2026-04-11T13:55:25.957Z</time></trkpt><trkpt lat="45.498800214761275" lon="13.93230529073982"><ele>388.0</ele><time>2026-04-11T13:55:26.957Z</time></trkpt><trkpt lat="45.4986773488658" lon="13.93243169810895"><ele>388.6666666666667</ele><time>2026-04-11T13:55:27.957Z</time></trkpt><trkpt lat="45.49855917390131" lon="13.932561851479564"><ele>389.33333333333337</ele><time>2026-04-11T13:55:28.957Z</time></trkpt><trkpt lat="45.49843149289281" lon="13.932700345046172"><ele>390.0</ele><time>2026-04-11T13:55:29.959Z</time></trkpt><trkpt lat="45.49830405244108" lon="13.932846541753353"><ele>390.0</ele><time>2026-04-11T13:55:30.958Z</time></trkpt><trkpt lat="45.49816992077571" lon="13.932997728304876"><ele>390.0</ele><time>2026-04-11T13:55:31.958Z</time></trkpt><trkpt lat="45.49804172968632" lon="13.933153603483241"><ele>390.0</ele><time>2026-04-11T13:55:32.958Z</time></trkpt><trkpt lat="45.49791017360427" lon="13.933298253136272"><ele>391.66666666666663</ele><time>2026-04-11T13:55:33.958Z</time></trkpt><trkpt lat="45.49777587804692" lon="13.933422783319939"><ele>393.3333333333333</ele><time>2026-04-11T13:55:34.958Z</time></trkpt><trkpt lat="45.49763701584756" lon="13.933518416156309"><ele>395.0</ele><time>2026-04-11T13:55:35.958Z</time></trkpt><trkpt lat="45.49750770853211" lon="13.93362793753201"><ele>395.0</ele><time>2026-04-11T13:55:36.958Z</time></trkpt><trkpt lat="45.497380969113365" lon="13.933761823940706"><ele>395.0</ele><time>2026-04-11T13:55:37.958Z</time></trkpt><trkpt lat="45.49725238759979" lon="13.933933465519583"><ele>395.0</ele><time>2026-04-11T13:55:38.958Z</time></trkpt><trkpt lat="45.497125834944384" lon="13.934124309555358"><ele>397.0</ele><time>2026-04-11T13:55:39.958Z</time></trkpt><trkpt lat="45.49699818806184" lon="13.934329431997023"><ele>399.0</ele><time>2026-04-11T13:55:40.958Z</time></trkpt><trkpt lat="45.49687579892461" lon="13.934517686655207"><ele>401.0</ele><time>2026-04-11T13:55:41.958Z</time></trkpt><trkpt lat="45.49676569625179" lon="13.934707629997895"><ele>401.0</ele><time>2026-04-11T13:55:42.958Z</time></trkpt><trkpt lat="45.49665296070171" lon="13.934893889527988"><ele>401.0</ele><time>2026-04-11T13:55:43.958Z</time></trkpt><trkpt lat="45.49654277428029" lon="13.935070877641223"><ele>401.0</ele><time>2026-04-11T13:55:44.958Z</time></trkpt><trkpt lat="45.49642356145372" lon="13.935245463237964"><ele>399.0</ele><time>2026-04-11T13:55:45.958Z</time></trkpt><trkpt lat="45.49630685860043" lon="13.935421295151375"><ele>397.0</ele><time>2026-04-11T13:55:46.958Z</time></trkpt><trkpt lat="45.49618666651817" lon="13.935607230541132"><ele>395.0</ele><time>2026-04-11T13:55:47.958Z</time></trkpt><trkpt lat="45.49606845665946" lon="13.935806358183196"><ele>396.0</ele><time>2026-04-11T13:55:48.958Z</time></trkpt><trkpt lat="45.49594637801083" lon="13.93600924732628"><ele>397.0</ele><time>2026-04-11T13:55:49.958Z</time></trkpt><trkpt lat="45.49582792255975" lon="13.93621653931997"><ele>398.0</ele><time>2026-04-11T13:55:50.958Z</time></trkpt><trkpt lat="45.49570899780402" lon="13.936434379178412"><ele>398.0</ele><time>2026-04-11T13:55:51.958Z</time></trkpt><trkpt lat="45.495584076715765" lon="13.93664274550186"><ele>398.0</ele><time>2026-04-11T13:55:52.958Z</time></trkpt><trkpt lat="45.49544922103968" lon="13.936845250893969"><ele>398.0</ele><time>2026-04-11T13:55:53.958Z</time></trkpt><trkpt lat="45.49531604053643" lon="13.937042927213822"><ele>399.0</ele><time>2026-04-11T13:55:54.958Z</time></trkpt><trkpt lat="45.49518766648077" lon="13.937247804467715"><ele>400.0</ele><time>2026-04-11T13:55:55.958Z</time></trkpt><trkpt lat="45.495049384130525" lon="13.93744141973898"><ele>401.0</ele><time>2026-04-11T13:55:56.958Z</time></trkpt><trkpt lat="45.49489583160507" lon="13.937606277008719"><ele>401.0</ele><time>2026-04-11T13:55:57.958Z</time></trkpt><trkpt lat="45.49475758082032" lon="13.937809220775843"><ele>401.0</ele><time>2026-04-11T13:55:58.958Z</time></trkpt><trkpt lat="45.49460962605167" lon="13.937996766317333"><ele>401.0</ele><time>2026-04-11T13:55:59.958Z</time></trkpt><trkpt lat="45.494480895793984" lon="13.938183620028914"><ele>401.66666666666663</ele><time>2026-04-11T13:56:00.958Z</time></trkpt><trkpt lat="45.49435673814145" lon="13.938371006378508"><ele>402.33333333333337</ele><time>2026-04-11T13:56:01.958Z</time></trkpt><trkpt lat="45.49421597675469" lon="13.938534126983626"><ele>403.0</ele><time>2026-04-11T13:56:02.958Z</time></trkpt><trkpt lat="45.494067297864696" lon="13.938686000351817"><ele>403.0</ele><time>2026-04-11T13:56:03.958Z</time></trkpt><trkpt lat="45.49391189888028" lon="13.93882023195908"><ele>403.0</ele><time>2026-04-11T13:56:04.958Z</time></trkpt><trkpt lat="45.493755275415666" lon="13.93895028728535"><ele>403.0</ele><time>2026-04-11T13:56:05.958Z</time></trkpt><trkpt lat="45.49360118036195" lon="13.939092897120714"><ele>403.0</ele><time>2026-04-11T13:56:06.958Z</time></trkpt><trkpt lat="45.49342642859842" lon="13.939173777956281"><ele>403.0</ele><time>2026-04-11T13:56:07.958Z</time></trkpt><trkpt lat="45.493257319659456" lon="13.939262397529612"><ele>403.0</ele><time>2026-04-11T13:56:08.958Z</time></trkpt><trkpt lat="45.49308628463791" lon="13.93934867706938"><ele>405.33333333333337</ele><time>2026-04-11T13:56:09.958Z</time></trkpt><trkpt lat="45.49291227998226" lon="13.93942748656094"><ele>407.66666666666663</ele><time>2026-04-11T13:56:10.958Z</time></trkpt><trkpt lat="45.49273934587121" lon="13.939506762723589"><ele>410.0</ele><time>2026-04-11T13:56:11.958Z</time></trkpt><trkpt lat="45.49256800125715" lon="13.939585310232044"><ele>410.0</ele><time>2026-04-11T13:56:12.958Z</time></trkpt><trkpt lat="45.49240018103625" lon="13.939669014300366"><ele>410.0</ele><time>2026-04-11T13:56:13.958Z</time></trkpt><trkpt lat="45.49226431388594" lon="13.939743119489767"><ele>410.0</ele><time>2026-04-11T13:56:14.958Z</time></trkpt><trkpt lat="45.49213484549153" lon="13.93980796029159"><ele>410.8</ele><time>2026-04-11T13:56:15.958Z</time></trkpt><trkpt lat="45.49201336584856" lon="13.939818629843662"><ele>411.6</ele><time>2026-04-11T13:56:16.958Z</time></trkpt><trkpt lat="45.49191464701956" lon="13.939746277902387"><ele>412.4</ele><time>2026-04-11T13:56:17.958Z</time></trkpt><trkpt lat="45.49183102737269" lon="13.939667745822915"><ele>413.2</ele><time>2026-04-11T13:56:18.958Z</time></trkpt><trkpt lat="45.49177414420505" lon="13.939524171904127"><ele>414.0</ele><time>2026-04-11T13:56:19.958Z</time></trkpt><trkpt lat="45.491755029759545" lon="13.93936510668245"><ele>414.25</ele><time>2026-04-11T13:56:20.958Z</time></trkpt><trkpt lat="45.49176158641349" lon="13.939169186062724"><ele>414.5</ele><time>2026-04-11T13:56:21.958Z</time></trkpt><trkpt lat="45.49176921872737" lon="13.93895522406207"><ele>414.75</ele><time>2026-04-11T13:56:22.958Z</time></trkpt><trkpt lat="45.491778667941695" lon="13.93874304634379"><ele>415.0</ele><time>2026-04-11T13:56:23.957Z</time></trkpt><trkpt lat="45.49178768080906" lon="13.938541674719506"><ele>415.0</ele><time>2026-04-11T13:56:24.957Z</time></trkpt><trkpt lat="45.491795020757706" lon="13.938355758061473"><ele>415.0</ele><time>2026-04-11T13:56:25.957Z</time></trkpt><trkpt lat="45.491774328222235" lon="13.938202907845064"><ele>415.0</ele><time>2026-04-11T13:56:26.957Z</time></trkpt><trkpt lat="45.49173535976109" lon="13.938111040302001"><ele>415.0</ele><time>2026-04-11T13:56:27.957Z</time></trkpt><trkpt lat="45.491672366995836" lon="13.938012838773147"><ele>415.0</ele><time>2026-04-11T13:56:29.957Z</time></trkpt><trkpt lat="45.4916835279051" lon="13.937881755785032"><ele>415.0</ele><time>2026-04-11T13:56:31.957Z</time></trkpt><trkpt lat="45.491748293805976" lon="13.937689849557811"><ele>415.0</ele><time>2026-04-11T13:56:33.957Z</time></trkpt><trkpt lat="45.491786131854795" lon="13.937604570699998"><ele>415.0</ele><time>2026-04-11T13:56:34.957Z</time></trkpt><trkpt lat="45.491828359990635" lon="13.937528329603522"><ele>415.0</ele><time>2026-04-11T13:56:35.957Z</time></trkpt><trkpt lat="45.491898308156344" lon="13.937454471672467"><ele>415.0</ele><time>2026-04-11T13:56:36.957Z</time></trkpt><trkpt lat="45.49198470754585" lon="13.937375358742143"><ele>414.75</ele><time>2026-04-11T13:56:37.957Z</time></trkpt><trkpt lat="45.492082580315795" lon="13.937297470882546"><ele>414.5</ele><time>2026-04-11T13:56:38.957Z</time></trkpt><trkpt lat="45.49217610283606" lon="13.93720158305443"><ele>414.25</ele><time>2026-04-11T13:56:39.957Z</time></trkpt><trkpt lat="45.492268789492655" lon="13.937094662960135"><ele>414.0</ele><time>2026-04-11T13:56:40.957Z</time></trkpt><trkpt lat="45.492359331167165" lon="13.936986077167067"><ele>414.0</ele><time>2026-04-11T13:56:41.957Z</time></trkpt><trkpt lat="45.49245234103629" lon="13.936880385805305"><ele>414.0</ele><time>2026-04-11T13:56:42.957Z</time></trkpt><trkpt lat="45.49254707345396" lon="13.936765039345785"><ele>414.0</ele><time>2026-04-11T13:56:43.957Z</time></trkpt><trkpt lat="45.49264661509688" lon="13.936656546377767"><ele>414.0</ele><time>2026-04-11T13:56:44.957Z</time></trkpt><trkpt lat="45.492755539434555" lon="13.936540133276104"><ele>414.0</ele><time>2026-04-11T13:56:45.957Z</time></trkpt><trkpt lat="45.49285708527988" lon="13.936421011306681"><ele>414.0</ele><time>2026-04-11T13:56:46.957Z</time></trkpt><trkpt lat="45.49295316384878" lon="13.936312935669529"><ele>414.0</ele><time>2026-04-11T13:56:47.957Z</time></trkpt><trkpt lat="45.493046843346804" lon="13.936226450481783"><ele>414.0</ele><time>2026-04-11T13:56:48.957Z</time></trkpt><trkpt lat="45.49313148836122" lon="13.936158510436854"><ele>414.8333333333333</ele><time>2026-04-11T13:56:49.957Z</time></trkpt><trkpt lat="45.49319808859771" lon="13.936101691833231"><ele>415.66666666666663</ele><time>2026-04-11T13:56:50.957Z</time></trkpt><trkpt lat="45.49325365962805" lon="13.93603483789343"><ele>416.5</ele><time>2026-04-11T13:56:51.957Z</time></trkpt><trkpt lat="45.49329438054835" lon="13.935963132221218"><ele>417.3333333333333</ele><time>2026-04-11T13:56:52.957Z</time></trkpt><trkpt lat="45.49333622163662" lon="13.935868042986398"><ele>418.16666666666663</ele><time>2026-04-11T13:56:53.957Z</time></trkpt><trkpt lat="45.4934116170912" lon="13.935790108473078"><ele>419.0</ele><time>2026-04-11T13:56:54.957Z</time></trkpt><trkpt lat="45.49349601663343" lon="13.935724942607662"><ele>419.0</ele><time>2026-04-11T13:56:55.957Z</time></trkpt><trkpt lat="45.49357191389408" lon="13.935662340154376"><ele>419.0</ele><time>2026-04-11T13:56:56.957Z</time></trkpt><trkpt lat="45.49364843741537" lon="13.935556330164752"><ele>419.0</ele><time>2026-04-11T13:56:57.957Z</time></trkpt><trkpt lat="45.49370918405163" lon="13.935429868164873"><ele>419.0</ele><time>2026-04-11T13:56:58.957Z</time></trkpt><trkpt lat="45.49378486284124" lon="13.935291250591476"><ele>419.0</ele><time>2026-04-11T13:56:59.957Z</time></trkpt><trkpt lat="45.49386440653338" lon="13.935165543436547"><ele>420.0</ele><time>2026-04-11T13:57:00.957Z</time></trkpt><trkpt lat="45.49394791288861" lon="13.93503017813491"><ele>421.0</ele><time>2026-04-11T13:57:01.957Z</time></trkpt><trkpt lat="45.494042221566794" lon="13.934870215639831"><ele>422.0</ele><time>2026-04-11T13:57:02.957Z</time></trkpt><trkpt lat="45.4941313452626" lon="13.934712574281138"><ele>423.0</ele><time>2026-04-11T13:57:03.958Z</time></trkpt><trkpt lat="45.49421509873476" lon="13.934569739739342"><ele>423.0</ele><time>2026-04-11T13:57:04.958Z</time></trkpt><trkpt lat="45.49428432115063" lon="13.934454644328774"><ele>423.0</ele><time>2026-04-11T13:57:05.958Z</time></trkpt><trkpt lat="45.494342929591696" lon="13.934308640518955"><ele>423.0</ele><time>2026-04-11T13:57:06.958Z</time></trkpt><trkpt lat="45.494392744423834" lon="13.934128326603679"><ele>423.0</ele><time>2026-04-11T13:57:07.958Z</time></trkpt><trkpt lat="45.494438797336116" lon="13.933955825438465"><ele>422.6666666666667</ele><time>2026-04-11T13:57:08.958Z</time></trkpt><trkpt lat="45.49448766642549" lon="13.933835127433298"><ele>422.33333333333337</ele><time>2026-04-11T13:57:09.958Z</time></trkpt><trkpt lat="45.494551681646435" lon="13.933749011498712"><ele>422.0</ele><time>2026-04-11T13:57:10.958Z</time></trkpt><trkpt lat="45.49461676305454" lon="13.933681976875251"><ele>421.6666666666667</ele><time>2026-04-11T13:57:11.958Z</time></trkpt><trkpt lat="45.49469085757972" lon="13.933626351875642"><ele>421.33333333333337</ele><time>2026-04-11T13:57:12.958Z</time></trkpt><trkpt lat="45.494782362810426" lon="13.933587931137652"><ele>421.0</ele><time>2026-04-11T13:57:13.958Z</time></trkpt><trkpt lat="45.49488279599144" lon="13.933551481773598"><ele>421.8</ele><time>2026-04-11T13:57:14.958Z</time></trkpt><trkpt lat="45.49497236576098" lon="13.93349069558902"><ele>422.6</ele><time>2026-04-11T13:57:15.958Z</time></trkpt><trkpt lat="45.495031285619504" lon="13.9334174870887"><ele>423.4</ele><time>2026-04-11T13:57:16.958Z</time></trkpt><trkpt lat="45.49507632610611" lon="13.933315619314394"><ele>424.2</ele><time>2026-04-11T13:57:17.958Z</time></trkpt><trkpt lat="45.49510714571778" lon="13.933182804893374"><ele>425.0</ele><time>2026-04-11T13:57:18.958Z</time></trkpt><trkpt lat="45.49513643261427" lon="13.933049512741265"><ele>425.8</ele><time>2026-04-11T13:57:19.958Z</time></trkpt><trkpt lat="45.49515043370144" lon="13.932898722486243"><ele>426.6</ele><time>2026-04-11T13:57:20.958Z</time></trkpt><trkpt lat="45.49516617646636" lon="13.932741993213064"><ele>427.4</ele><time>2026-04-11T13:57:21.958Z</time></trkpt><trkpt lat="45.49517929706293" lon="13.932596749334943"><ele>428.2</ele><time>2026-04-11T13:57:22.958Z</time></trkpt><trkpt lat="45.49518167817367" lon="13.932475038980543"><ele>429.0</ele><time>2026-04-11T13:57:23.958Z</time></trkpt><trkpt lat="45.49516367380086" lon="13.932366235125833"><ele>429.4</ele><time>2026-04-11T13:57:24.958Z</time></trkpt><trkpt lat="45.49512995592784" lon="13.932272872398887"><ele>429.79999999999995</ele><time>2026-04-11T13:57:25.958Z</time></trkpt><trkpt lat="45.49508567154423" lon="13.932157455805829"><ele>430.20000000000005</ele><time>2026-04-11T13:57:26.958Z</time></trkpt><trkpt lat="45.49505029843251" lon="13.93201977972838"><ele>430.6</ele><time>2026-04-11T13:57:27.958Z</time></trkpt><trkpt lat="45.49502770810079" lon="13.931873246957323"><ele>431.0</ele><time>2026-04-11T13:57:28.958Z</time></trkpt><trkpt lat="45.495016078427156" lon="13.931746692932911"><ele>430.99999999999994</ele><time>2026-04-11T13:57:29.958Z</time></trkpt><trkpt lat="45.49500637662902" lon="13.931633567937538"><ele>431.0</ele><time>2026-04-11T13:57:30.958Z</time></trkpt><trkpt lat="45.49500327189766" lon="13.931534160857334"><ele>431.0</ele><time>2026-04-11T13:57:31.958Z</time></trkpt><trkpt lat="45.49500584071737" lon="13.931420569358847"><ele>431.0</ele><time>2026-04-11T13:57:32.958Z</time></trkpt><trkpt lat="45.495015959073605" lon="13.93131439875764"><ele>430.99999999999994</ele><time>2026-04-11T13:57:33.958Z</time></trkpt><trkpt lat="45.49503121815204" lon="13.931211264161336"><ele>431.0</ele><time>2026-04-11T13:57:34.958Z</time></trkpt><trkpt lat="45.495067319010744" lon="13.931110635408766"><ele>430.99999999999994</ele><time>2026-04-11T13:57:35.96Z</time></trkpt><trkpt lat="45.49510954354419" lon="13.931014654903093"><ele>431.0</ele><time>2026-04-11T13:57:36.96Z</time></trkpt><trkpt lat="45.49516101631924" lon="13.930900584028201"><ele>431.0</ele><time>2026-04-11T13:57:37.96Z</time></trkpt><trkpt lat="45.49520901214914" lon="13.930794904638763"><ele>431.0</ele><time>2026-04-11T13:57:38.96Z</time></trkpt><trkpt lat="45.495261691093965" lon="13.930703304442194"><ele>430.99999999999994</ele><time>2026-04-11T13:57:39.96Z</time></trkpt><trkpt lat="45.49530469756452" lon="13.930571992712194"><ele>431.0</ele><time>2026-04-11T13:57:40.96Z</time></trkpt><trkpt lat="45.49534017702098" lon="13.930467659558191"><ele>429.8</ele><time>2026-04-11T13:57:41.96Z</time></trkpt><trkpt lat="45.495370218097044" lon="13.930356949151296"><ele>428.6</ele><time>2026-04-11T13:57:42.96Z</time></trkpt><trkpt lat="45.495386377384754" lon="13.93025969702516"><ele>427.4</ele><time>2026-04-11T13:57:43.96Z</time></trkpt><trkpt lat="45.495351718950324" lon="13.930122312135437"><ele>426.2</ele><time>2026-04-11T13:57:45.96Z</time></trkpt><trkpt lat="45.495255193794726" lon="13.930058354354552"><ele>425.0</ele><time>2026-04-11T13:57:47.96Z</time></trkpt><trkpt lat="45.49514781914856" lon="13.930118623861704"><ele>425.0</ele><time>2026-04-11T13:57:49.96Z</time></trkpt><trkpt lat="45.495046893853115" lon="13.930234027055123"><ele>425.0</ele><time>2026-04-11T13:57:51.96Z</time></trkpt><trkpt lat="45.494940970543105" lon="13.930317266578756"><ele>425.0</ele><time>2026-04-11T13:57:53.96Z</time></trkpt><trkpt lat="45.49483938130188" lon="13.930387229053784"><ele>425.0</ele><time>2026-04-11T13:57:55.96Z</time></trkpt><trkpt lat="45.49475448056528" lon="13.930440988658622"><ele>425.0</ele><time>2026-04-11T13:57:57.96Z</time></trkpt><trkpt lat="45.494646643902485" lon="13.930471999456017"><ele>425.0</ele><time>2026-04-11T13:57:59.96Z</time></trkpt><trkpt lat="45.494558494108446" lon="13.9304166695699"><ele>425.0</ele><time>2026-04-11T13:58:01.96Z</time></trkpt><trkpt lat="45.49448279057183" lon="13.930259977358281"><ele>425.0</ele><time>2026-04-11T13:58:03.96Z</time></trkpt><trkpt lat="45.49443243271538" lon="13.930137381023243"><ele>425.0</ele><time>2026-04-11T13:58:04.96Z</time></trkpt><trkpt lat="45.4943793703278" lon="13.92999657451068"><ele>422.4</ele><time>2026-04-11T13:58:05.96Z</time></trkpt><trkpt lat="45.494321200729665" lon="13.92986951116357"><ele>419.8</ele><time>2026-04-11T13:58:06.96Z</time></trkpt><trkpt lat="45.49425776175804" lon="13.929771270268633"><ele>417.20000000000005</ele><time>2026-04-11T13:58:07.96Z</time></trkpt><trkpt lat="45.494194689500695" lon="13.929672177669001"><ele>414.6</ele><time>2026-04-11T13:58:08.96Z</time></trkpt><trkpt lat="45.49412374212284" lon="13.929575754919503"><ele>412.0</ele><time>2026-04-11T13:58:09.96Z</time></trkpt><trkpt lat="45.49405142749566" lon="13.929479630002668"><ele>412.0</ele><time>2026-04-11T13:58:10.96Z</time></trkpt><trkpt lat="45.49398031470085" lon="13.92937651837374"><ele>412.0</ele><time>2026-04-11T13:58:11.96Z</time></trkpt><trkpt lat="45.49390123482265" lon="13.92926970026105"><ele>412.0</ele><time>2026-04-11T13:58:12.96Z</time></trkpt><trkpt lat="45.493826002611776" lon="13.92917488581981"><ele>412.0</ele><time>2026-04-11T13:58:13.96Z</time></trkpt><trkpt lat="45.49374137630864" lon="13.929114017024228"><ele>412.0</ele><time>2026-04-11T13:58:14.96Z</time></trkpt><trkpt lat="45.49365299401632" lon="13.92906470727679"><ele>413.75</ele><time>2026-04-11T13:58:15.96Z</time></trkpt><trkpt lat="45.493546827637864" lon="13.929019151732918"><ele>415.5</ele><time>2026-04-11T13:58:16.96Z</time></trkpt><trkpt lat="45.49344434037804" lon="13.928948503355059"><ele>417.25</ele><time>2026-04-11T13:58:17.96Z</time></trkpt><trkpt lat="45.49333652731477" lon="13.92887509113092"><ele>419.0</ele><time>2026-04-11T13:58:18.96Z</time></trkpt><trkpt lat="45.493217701017976" lon="13.928799081758292"><ele>419.0</ele><time>2026-04-11T13:58:19.96Z</time></trkpt><trkpt lat="45.49309433118891" lon="13.928705301193586"><ele>419.0</ele><time>2026-04-11T13:58:20.96Z</time></trkpt><trkpt lat="45.492968006944785" lon="13.928616722428787"><ele>419.0</ele><time>2026-04-11T13:58:21.96Z</time></trkpt><trkpt lat="45.49283943708476" lon="13.92853033799286"><ele>419.0</ele><time>2026-04-11T13:58:22.96Z</time></trkpt><trkpt lat="45.49270601256956" lon="13.928447782809515"><ele>421.5</ele><time>2026-04-11T13:58:23.96Z</time></trkpt><trkpt lat="45.492582750827516" lon="13.928388453573227"><ele>424.0</ele><time>2026-04-11T13:58:24.96Z</time></trkpt><trkpt lat="45.4924738940306" lon="13.928331124501726"><ele>426.5</ele><time>2026-04-11T13:58:25.96Z</time></trkpt><trkpt lat="45.49237036666378" lon="13.928295875398048"><ele>429.0</ele><time>2026-04-11T13:58:26.96Z</time></trkpt><trkpt lat="45.4922670069729" lon="13.928274900058536"><ele>429.0</ele><time>2026-04-11T13:58:27.96Z</time></trkpt><trkpt lat="45.492166060013794" lon="13.928247752344403"><ele>429.0</ele><time>2026-04-11T13:58:28.96Z</time></trkpt><trkpt lat="45.49207514285104" lon="13.92821074866988"><ele>429.0</ele><time>2026-04-11T13:58:29.96Z</time></trkpt><trkpt lat="45.49200548435504" lon="13.928156146083493"><ele>429.0</ele><time>2026-04-11T13:58:30.96Z</time></trkpt><trkpt lat="45.491940761046344" lon="13.928066814226788"><ele>429.0</ele><time>2026-04-11T13:58:31.96Z</time></trkpt><trkpt lat="45.49187377911186" lon="13.927952411082204"><ele>432.0</ele><time>2026-04-11T13:58:32.96Z</time></trkpt><trkpt lat="45.491802505235555" lon="13.92781798485563"><ele>435.0</ele><time>2026-04-11T13:58:33.96Z</time></trkpt><trkpt lat="45.49172749025174" lon="13.927688125472898"><ele>438.0</ele><time>2026-04-11T13:58:34.96Z</time></trkpt><trkpt lat="45.49162608161359" lon="13.927535564187378"><ele>441.0</ele><time>2026-04-11T13:58:35.96Z</time></trkpt><trkpt lat="45.491531151730804" lon="13.927417170652708"><ele>441.0</ele><time>2026-04-11T13:58:36.96Z</time></trkpt><trkpt lat="45.49143592123054" lon="13.927286379792376"><ele>441.0</ele><time>2026-04-11T13:58:37.96Z</time></trkpt><trkpt lat="45.491327310102655" lon="13.927152321133468"><ele>441.0</ele><time>2026-04-11T13:58:38.96Z</time></trkpt><trkpt lat="45.49122037970452" lon="13.927031272311952"><ele>441.0</ele><time>2026-04-11T13:58:39.96Z</time></trkpt><trkpt lat="45.49111666825756" lon="13.926916190661098"><ele>442.6</ele><time>2026-04-11T13:58:40.96Z</time></trkpt><trkpt lat="45.491023197258855" lon="13.926813655575717"><ele>444.20000000000005</ele><time>2026-04-11T13:58:41.96Z</time></trkpt><trkpt lat="45.490930596200556" lon="13.926725554102289"><ele>445.79999999999995</ele><time>2026-04-11T13:58:42.96Z</time></trkpt><trkpt lat="45.490848967868125" lon="13.926636792202094"><ele>447.4</ele><time>2026-04-11T13:58:43.96Z</time></trkpt><trkpt lat="45.49078344962067" lon="13.926518180133197"><ele>449.0</ele><time>2026-04-11T13:58:44.96Z</time></trkpt><trkpt lat="45.49072319609403" lon="13.926367891602577"><ele>449.0</ele><time>2026-04-11T13:58:45.96Z</time></trkpt><trkpt lat="45.490647794029734" lon="13.926210187926007"><ele>449.0</ele><time>2026-04-11T13:58:46.96Z</time></trkpt><trkpt lat="45.490565265862635" lon="13.926059375983998"><ele>449.0</ele><time>2026-04-11T13:58:47.96Z</time></trkpt><trkpt lat="45.49049119743137" lon="13.925939168102392"><ele>449.0</ele><time>2026-04-11T13:58:48.96Z</time></trkpt><trkpt lat="45.49043372752766" lon="13.925830357068866"><ele>449.3333333333333</ele><time>2026-04-11T13:58:49.96Z</time></trkpt><trkpt lat="45.49038352787993" lon="13.925747323412264"><ele>449.66666666666663</ele><time>2026-04-11T13:58:50.96Z</time></trkpt><trkpt lat="45.490302657159404" lon="13.925646379999602"><ele>450.0</ele><time>2026-04-11T13:58:52.96Z</time></trkpt><trkpt lat="45.49020434574209" lon="13.925643536409645"><ele>450.33333333333337</ele><time>2026-04-11T13:58:54.96Z</time></trkpt><trkpt lat="45.49013539856066" lon="13.925663229125982"><ele>450.6666666666667</ele><time>2026-04-11T13:58:55.96Z</time></trkpt><trkpt lat="45.49005489512418" lon="13.925689332077425"><ele>451.0</ele><time>2026-04-11T13:58:56.96Z</time></trkpt><trkpt lat="45.48997768540229" lon="13.925712920509152"><ele>451.00000000000006</ele><time>2026-04-11T13:58:57.96Z</time></trkpt><trkpt lat="45.489900683736536" lon="13.925743951828498"><ele>451.0</ele><time>2026-04-11T13:58:58.96Z</time></trkpt><trkpt lat="45.489819779001174" lon="13.925742434564402"><ele>451.0</ele><time>2026-04-11T13:58:59.96Z</time></trkpt><trkpt lat="45.489729888212864" lon="13.925750582339466"><ele>451.0</ele><time>2026-04-11T13:59:00.96Z</time></trkpt><trkpt lat="45.489643237514734" lon="13.9257535524986"><ele>451.00000000000006</ele><time>2026-04-11T13:59:01.96Z</time></trkpt><trkpt lat="45.489566131873865" lon="13.9257381077603"><ele>451.0</ele><time>2026-04-11T13:59:02.959Z</time></trkpt><trkpt lat="45.48948989711246" lon="13.925720894004769"><ele>451.33333333333337</ele><time>2026-04-11T13:59:03.959Z</time></trkpt><trkpt lat="45.48941932021309" lon="13.925685222333108"><ele>451.6666666666667</ele><time>2026-04-11T13:59:04.959Z</time></trkpt><trkpt lat="45.48934192272023" lon="13.92565000662678"><ele>452.0</ele><time>2026-04-11T13:59:05.959Z</time></trkpt><trkpt lat="45.489272623133715" lon="13.925564920266744"><ele>452.33333333333337</ele><time>2026-04-11T13:59:07.959Z</time></trkpt><trkpt lat="45.4892027753637" lon="13.92553364752423"><ele>452.6666666666667</ele><time>2026-04-11T13:59:10.959Z</time></trkpt><trkpt lat="45.489126273095366" lon="13.925523538690534"><ele>453.0</ele><time>2026-04-11T13:59:12.959Z</time></trkpt><trkpt lat="45.489069739308164" lon="13.92558695366251"><ele>453.0</ele><time>2026-04-11T13:59:14.959Z</time></trkpt><trkpt lat="45.48900486853252" lon="13.92562745600011"><ele>453.0</ele><time>2026-04-11T13:59:16.959Z</time></trkpt><trkpt lat="45.48895231838207" lon="13.925715305803694"><ele>453.0</ele><time>2026-04-11T13:59:18.959Z</time></trkpt><trkpt lat="45.48889181856388" lon="13.925804081904884"><ele>453.0</ele><time>2026-04-11T13:59:20.959Z</time></trkpt><trkpt lat="45.4888420585406" lon="13.925898274480947"><ele>453.0</ele><time>2026-04-11T13:59:22.959Z</time></trkpt><trkpt lat="45.488846737824225" lon="13.925999726656164"><ele>453.0</ele><time>2026-04-11T13:59:24.959Z</time></trkpt><trkpt lat="45.48888997638579" lon="13.926105134580839"><ele>456.3333333333333</ele><time>2026-04-11T13:59:26.959Z</time></trkpt><trkpt lat="45.488951780609035" lon="13.926208273212927"><ele>459.66666666666663</ele><time>2026-04-11T13:59:28.959Z</time></trkpt><trkpt lat="45.48898779182044" lon="13.92630038513365"><ele>463.0</ele><time>2026-04-11T13:59:30.959Z</time></trkpt><trkpt lat="45.48895988908228" lon="13.926381183616728"><ele>466.3333333333333</ele><time>2026-04-11T13:59:32.959Z</time></trkpt><trkpt lat="45.48888656816552" lon="13.926465345264292"><ele>469.66666666666663</ele><time>2026-04-11T13:59:34.959Z</time></trkpt><trkpt lat="45.48883022666887" lon="13.926525757266136"><ele>473.0</ele><time>2026-04-11T13:59:35.959Z</time></trkpt><trkpt lat="45.488771945837094" lon="13.926577557054147"><ele>473.8333333333333</ele><time>2026-04-11T13:59:36.959Z</time></trkpt><trkpt lat="45.488656478057386" lon="13.926652634724892"><ele>474.66666666666663</ele><time>2026-04-11T13:59:38.959Z</time></trkpt><trkpt lat="45.48858636680254" lon="13.926696164957816"><ele>475.5</ele><time>2026-04-11T13:59:39.959Z</time></trkpt><trkpt lat="45.48851527918698" lon="13.92673909825226"><ele>476.33333333333337</ele><time>2026-04-11T13:59:40.959Z</time></trkpt><trkpt lat="45.48846128604454" lon="13.926795248556889"><ele>477.1666666666667</ele><time>2026-04-11T13:59:41.96Z</time></trkpt><trkpt lat="45.48841124733666" lon="13.926850026355936"><ele>478.0</ele><time>2026-04-11T13:59:42.96Z</time></trkpt><trkpt lat="45.48832044241288" lon="13.926949444978419"><ele>481.0</ele><time>2026-04-11T13:59:44.961Z</time></trkpt><trkpt lat="45.48822651194195" lon="13.927000181150872"><ele>483.99999999999994</ele><time>2026-04-11T13:59:46.961Z</time></trkpt><trkpt lat="45.488160431792075" lon="13.927079579277056"><ele>486.99999999999994</ele><time>2026-04-11T13:59:48.96Z</time></trkpt><trkpt lat="45.488110179015024" lon="13.927213561870087"><ele>490.0</ele><time>2026-04-11T13:59:50.96Z</time></trkpt><trkpt lat="45.48805020881473" lon="13.927312467937357"><ele>493.0</ele><time>2026-04-11T13:59:52.96Z</time></trkpt><trkpt lat="45.48798429628328" lon="13.927331537759867"><ele>491.50000000000006</ele><time>2026-04-11T13:59:54.96Z</time></trkpt><trkpt lat="45.487916591579264" lon="13.927265900703746"><ele>490.0</ele><time>2026-04-11T13:59:56.96Z</time></trkpt><trkpt lat="45.48781622439949" lon="13.927163490118799"><ele>488.5</ele><time>2026-04-11T13:59:58.96Z</time></trkpt><trkpt lat="45.48773886740585" lon="13.927130298498378"><ele>487.0</ele><time>2026-04-11T13:59:59.96Z</time></trkpt><trkpt lat="45.48767457185323" lon="13.927104603031383"><ele>485.50000000000006</ele><time>2026-04-11T14:00:00.96Z</time></trkpt><trkpt lat="45.48759314801416" lon="13.927052325952921"><ele>484.0</ele><time>2026-04-11T14:00:01.96Z</time></trkpt><trkpt lat="45.487508675861626" lon="13.926992543451727"><ele>484.0</ele><time>2026-04-11T14:00:02.96Z</time></trkpt><trkpt lat="45.487436894873746" lon="13.926928302224137"><ele>484.0</ele><time>2026-04-11T14:00:03.96Z</time></trkpt><trkpt lat="45.487376964279" lon="13.926867679667252"><ele>484.0</ele><time>2026-04-11T14:00:04.96Z</time></trkpt><trkpt lat="45.48730164246361" lon="13.926794131795608"><ele>484.0</ele><time>2026-04-11T14:00:05.96Z</time></trkpt><trkpt lat="45.48722660085431" lon="13.926726285431112"><ele>484.0</ele><time>2026-04-11T14:00:06.96Z</time></trkpt><trkpt lat="45.48712894239282" lon="13.926606527859745"><ele>486.2857142857143</ele><time>2026-04-11T14:00:08.96Z</time></trkpt><trkpt lat="45.48706897177777" lon="13.92655262091498"><ele>488.57142857142856</ele><time>2026-04-11T14:00:09.96Z</time></trkpt><trkpt lat="45.48700545247806" lon="13.926515208031162"><ele>490.85714285714283</ele><time>2026-04-11T14:00:10.96Z</time></trkpt><trkpt lat="45.48693611253865" lon="13.926481390665714"><ele>493.1428571428571</ele><time>2026-04-11T14:00:11.96Z</time></trkpt><trkpt lat="45.48687732519783" lon="13.926448496218871"><ele>495.42857142857144</ele><time>2026-04-11T14:00:12.96Z</time></trkpt><trkpt lat="45.48681894536764" lon="13.926394293367144"><ele>497.71428571428567</ele><time>2026-04-11T14:00:13.96Z</time></trkpt><trkpt lat="45.48676138888161" lon="13.926352219692735"><ele>500.0</ele><time>2026-04-11T14:00:14.96Z</time></trkpt><trkpt lat="45.48664421445244" lon="13.926233562186889"><ele>499.99999999999994</ele><time>2026-04-11T14:00:16.96Z</time></trkpt><trkpt lat="45.48657312291639" lon="13.926172096291518"><ele>500.0</ele><time>2026-04-11T14:00:17.96Z</time></trkpt><trkpt lat="45.48651400389052" lon="13.926119306794394"><ele>500.0</ele><time>2026-04-11T14:00:18.96Z</time></trkpt><trkpt lat="45.48644572554516" lon="13.926107647397545"><ele>500.0</ele><time>2026-04-11T14:00:19.96Z</time></trkpt><trkpt lat="45.48634113195155" lon="13.926110002398659"><ele>499.99999999999994</ele><time>2026-04-11T14:00:21.96Z</time></trkpt><trkpt lat="45.4862719201153" lon="13.926127287626757"><ele>500.0</ele><time>2026-04-11T14:00:23.96Z</time></trkpt><trkpt lat="45.486172359930826" lon="13.926123821389352"><ele>499.8333333333333</ele><time>2026-04-11T14:09:19.963Z</time></trkpt><trkpt lat="45.48608752594789" lon="13.926131290232453"><ele>499.66666666666663</ele><time>2026-04-11T14:09:21.963Z</time></trkpt><trkpt lat="45.48600040441297" lon="13.926091731070569"><ele>499.5</ele><time>2026-04-11T14:09:24.963Z</time></trkpt><trkpt lat="45.485928464822535" lon="13.926069621694767"><ele>499.33333333333337</ele><time>2026-04-11T14:09:26.963Z</time></trkpt><trkpt lat="45.485839041404" lon="13.926039720049564"><ele>499.1666666666667</ele><time>2026-04-11T14:09:28.963Z</time></trkpt><trkpt lat="45.48574851915498" lon="13.92601599847703"><ele>499.0</ele><time>2026-04-11T14:09:30.963Z</time></trkpt><trkpt lat="45.48564996153253" lon="13.925953179711401"><ele>499.00000000000006</ele><time>2026-04-11T14:09:32.963Z</time></trkpt><trkpt lat="45.48556579963776" lon="13.925907424951356"><ele>499.0</ele><time>2026-04-11T14:09:34.963Z</time></trkpt><trkpt lat="45.48547522189895" lon="13.92586450486959"><ele>499.0</ele><time>2026-04-11T14:09:36.963Z</time></trkpt><trkpt lat="45.485401214840806" lon="13.925822316207071"><ele>499.0</ele><time>2026-04-11T14:09:38.963Z</time></trkpt><trkpt lat="45.48531431436186" lon="13.925807761969626"><ele>499.00000000000006</ele><time>2026-04-11T14:09:40.963Z</time></trkpt><trkpt lat="45.48524464465763" lon="13.925874066090543"><ele>499.0</ele><time>2026-04-11T14:09:43.963Z</time></trkpt><trkpt lat="45.48524465090755" lon="13.925965508698159"><ele>498.1666666666667</ele><time>2026-04-11T14:09:45.963Z</time></trkpt><trkpt lat="45.485220664188496" lon="13.926135943454398"><ele>497.33333333333337</ele><time>2026-04-11T14:09:47.963Z</time></trkpt><trkpt lat="45.48520799984261" lon="13.926253035594332"><ele>496.5</ele><time>2026-04-11T14:09:48.963Z</time></trkpt><trkpt lat="45.48517754666699" lon="13.926336379456195"><ele>495.66666666666663</ele><time>2026-04-11T14:09:49.963Z</time></trkpt><trkpt lat="45.48515645575381" lon="13.926441362040032"><ele>494.8333333333333</ele><time>2026-04-11T14:09:50.963Z</time></trkpt><trkpt lat="45.48515220016784" lon="13.926572974428888"><ele>494.0</ele><time>2026-04-11T14:09:51.963Z</time></trkpt><trkpt lat="45.48514293399119" lon="13.926736219582757"><ele>494.0</ele><time>2026-04-11T14:09:52.963Z</time></trkpt><trkpt lat="45.48513233213219" lon="13.926907506921337"><ele>494.0</ele><time>2026-04-11T14:09:53.963Z</time></trkpt><trkpt lat="45.48511455478543" lon="13.92705310842884"><ele>494.0</ele><time>2026-04-11T14:09:54.963Z</time></trkpt><trkpt lat="45.48508157109489" lon="13.927200398767695"><ele>494.0</ele><time>2026-04-11T14:09:55.963Z</time></trkpt><trkpt lat="45.48504520292386" lon="13.92737038181629"><ele>494.0</ele><time>2026-04-11T14:09:56.963Z</time></trkpt><trkpt lat="45.48500768467263" lon="13.927544611794307"><ele>494.0</ele><time>2026-04-11T14:09:57.963Z</time></trkpt><trkpt lat="45.48497220606633" lon="13.927717791342516"><ele>494.0</ele><time>2026-04-11T14:09:58.963Z</time></trkpt><trkpt lat="45.48494450711331" lon="13.927877208109368"><ele>494.0</ele><time>2026-04-11T14:09:59.963Z</time></trkpt><trkpt lat="45.48491753942664" lon="13.928028977782725"><ele>493.79999999999995</ele><time>2026-04-11T14:10:00.963Z</time></trkpt><trkpt lat="45.484888801611575" lon="13.928177087980144"><ele>493.59999999999997</ele><time>2026-04-11T14:10:01.963Z</time></trkpt><trkpt lat="45.484845186460326" lon="13.9283189326657"><ele>493.4</ele><time>2026-04-11T14:10:02.963Z</time></trkpt><trkpt lat="45.48481589566708" lon="13.928468566589958"><ele>493.2</ele><time>2026-04-11T14:10:03.963Z</time></trkpt><trkpt lat="45.484773807329866" lon="13.928621159645102"><ele>493.0</ele><time>2026-04-11T14:10:04.963Z</time></trkpt><trkpt lat="45.484736101199374" lon="13.928794526200205"><ele>493.0</ele><time>2026-04-11T14:10:05.963Z</time></trkpt><trkpt lat="45.484684792665654" lon="13.928957706622825"><ele>493.0</ele><time>2026-04-11T14:10:06.963Z</time></trkpt><trkpt lat="45.4846189388652" lon="13.929102494692648"><ele>493.0</ele><time>2026-04-11T14:10:07.963Z</time></trkpt><trkpt lat="45.484565922762705" lon="13.929250588407362"><ele>493.0</ele><time>2026-04-11T14:10:08.963Z</time></trkpt><trkpt lat="45.4845254571485" lon="13.929392438230828"><ele>492.25</ele><time>2026-04-11T14:10:09.963Z</time></trkpt><trkpt lat="45.48447026994942" lon="13.929544644949276"><ele>491.5</ele><time>2026-04-11T14:10:10.964Z</time></trkpt><trkpt lat="45.48438973071735" lon="13.929701184520283"><ele>490.75</ele><time>2026-04-11T14:10:11.964Z</time></trkpt><trkpt lat="45.48431802390801" lon="13.929871414971876"><ele>490.0</ele><time>2026-04-11T14:10:12.964Z</time></trkpt><trkpt lat="45.48424843785645" lon="13.93003268528969"><ele>490.0</ele><time>2026-04-11T14:10:13.964Z</time></trkpt><trkpt lat="45.484170517405964" lon="13.930205346300367"><ele>490.0</ele><time>2026-04-11T14:10:14.964Z</time></trkpt><trkpt lat="45.484095538889534" lon="13.930400343111588"><ele>490.0</ele><time>2026-04-11T14:10:15.964Z</time></trkpt><trkpt lat="45.48400682200535" lon="13.93059149544857"><ele>490.0</ele><time>2026-04-11T14:10:16.964Z</time></trkpt><trkpt lat="45.48391678252023" lon="13.930776151333564"><ele>490.0</ele><time>2026-04-11T14:10:17.964Z</time></trkpt><trkpt lat="45.48383060117869" lon="13.930946384380363"><ele>490.0</ele><time>2026-04-11T14:10:18.964Z</time></trkpt><trkpt lat="45.48374194825081" lon="13.931104261137255"><ele>490.0</ele><time>2026-04-11T14:10:19.964Z</time></trkpt><trkpt lat="45.483680844108626" lon="13.931292403551257"><ele>490.0</ele><time>2026-04-11T14:10:20.964Z</time></trkpt><trkpt lat="45.48359108971986" lon="13.931442513355659"><ele>490.0</ele><time>2026-04-11T14:10:21.964Z</time></trkpt><trkpt lat="45.483492338212166" lon="13.931602550509284"><ele>490.0</ele><time>2026-04-11T14:10:22.963Z</time></trkpt><trkpt lat="45.48339446986741" lon="13.9317699196536"><ele>490.0</ele><time>2026-04-11T14:10:23.964Z</time></trkpt><trkpt lat="45.483310196212955" lon="13.931932765170265"><ele>490.0</ele><time>2026-04-11T14:10:24.964Z</time></trkpt><trkpt lat="45.48322406046294" lon="13.93209714689682"><ele>490.0</ele><time>2026-04-11T14:10:25.964Z</time></trkpt><trkpt lat="45.48313879493619" lon="13.932266338518874"><ele>490.0</ele><time>2026-04-11T14:10:26.964Z</time></trkpt><trkpt lat="45.48306032842356" lon="13.93244011622888"><ele>490.0</ele><time>2026-04-11T14:10:27.964Z</time></trkpt><trkpt lat="45.48298693838254" lon="13.932632485504408"><ele>489.5</ele><time>2026-04-11T14:10:28.964Z</time></trkpt><trkpt lat="45.48292005456781" lon="13.932818026546608"><ele>489.0</ele><time>2026-04-11T14:10:29.964Z</time></trkpt><trkpt lat="45.482834722551864" lon="13.932986568044887"><ele>488.5</ele><time>2026-04-11T14:10:30.964Z</time></trkpt><trkpt lat="45.48273917234615" lon="13.933133689470642"><ele>488.0</ele><time>2026-04-11T14:10:31.964Z</time></trkpt><trkpt lat="45.482650231430846" lon="13.93329995232486"><ele>488.0</ele><time>2026-04-11T14:10:32.964Z</time></trkpt><trkpt lat="45.48256458624751" lon="13.933466870742073"><ele>488.0</ele><time>2026-04-11T14:10:33.964Z</time></trkpt><trkpt lat="45.48248361151216" lon="13.933622156570301"><ele>488.0</ele><time>2026-04-11T14:10:34.964Z</time></trkpt><trkpt lat="45.482422470524966" lon="13.933796080301798"><ele>488.0</ele><time>2026-04-11T14:10:35.964Z</time></trkpt><trkpt lat="45.4823422809275" lon="13.933970956063668"><ele>488.0</ele><time>2026-04-11T14:10:36.964Z</time></trkpt><trkpt lat="45.48227683438658" lon="13.934179098440605"><ele>488.0</ele><time>2026-04-11T14:10:37.964Z</time></trkpt><trkpt lat="45.482186563943884" lon="13.934345418118468"><ele>488.0</ele><time>2026-04-11T14:10:38.964Z</time></trkpt><trkpt lat="45.4821075091209" lon="13.934520786122542"><ele>488.0</ele><time>2026-04-11T14:10:39.964Z</time></trkpt><trkpt lat="45.482038562021486" lon="13.93470139032601"><ele>488.0</ele><time>2026-04-11T14:10:40.964Z</time></trkpt><trkpt lat="45.481972696503085" lon="13.934854748784725"><ele>488.0</ele><time>2026-04-11T14:10:41.964Z</time></trkpt><trkpt lat="45.481917528231705" lon="13.93504047202714"><ele>488.0</ele><time>2026-04-11T14:10:42.964Z</time></trkpt><trkpt lat="45.48186624186644" lon="13.935236477244587"><ele>488.0</ele><time>2026-04-11T14:10:43.964Z</time></trkpt><trkpt lat="45.481793116861404" lon="13.935412359002187"><ele>488.0</ele><time>2026-04-11T14:10:44.964Z</time></trkpt><trkpt lat="45.48174024243009" lon="13.935600993651942"><ele>488.0</ele><time>2026-04-11T14:10:45.964Z</time></trkpt><trkpt lat="45.48166242825941" lon="13.935784600421735"><ele>488.0</ele><time>2026-04-11T14:10:46.964Z</time></trkpt><trkpt lat="45.48157971575361" lon="13.935985723792989"><ele>488.66666666666663</ele><time>2026-04-11T14:10:47.964Z</time></trkpt><trkpt lat="45.48150017760461" lon="13.936179178095092"><ele>489.33333333333337</ele><time>2026-04-11T14:10:48.964Z</time></trkpt><trkpt lat="45.481417711486614" lon="13.936355289982423"><ele>490.0</ele><time>2026-04-11T14:10:49.964Z</time></trkpt><trkpt lat="45.48133378892581" lon="13.936525748946544"><ele>489.5</ele><time>2026-04-11T14:10:50.964Z</time></trkpt><trkpt lat="45.4812635889135" lon="13.936691585157675"><ele>489.0</ele><time>2026-04-11T14:10:51.964Z</time></trkpt><trkpt lat="45.481199752522386" lon="13.936858306016468"><ele>488.5</ele><time>2026-04-11T14:10:52.964Z</time></trkpt><trkpt lat="45.48114618380108" lon="13.937028358231743"><ele>488.0</ele><time>2026-04-11T14:10:53.964Z</time></trkpt><trkpt lat="45.48108672915216" lon="13.93718212985445"><ele>487.75</ele><time>2026-04-11T14:10:54.964Z</time></trkpt><trkpt lat="45.48102690228738" lon="13.937320844674574"><ele>487.5</ele><time>2026-04-11T14:10:55.964Z</time></trkpt><trkpt lat="45.4809707359003" lon="13.937481631842312"><ele>487.25</ele><time>2026-04-11T14:10:56.964Z</time></trkpt><trkpt lat="45.48093227941116" lon="13.93765893396145"><ele>487.0</ele><time>2026-04-11T14:10:57.964Z</time></trkpt><trkpt lat="45.480873150966175" lon="13.937829707595787"><ele>487.5</ele><time>2026-04-11T14:10:58.964Z</time></trkpt><trkpt lat="45.48080103375535" lon="13.937985609634802"><ele>488.0</ele><time>2026-04-11T14:10:59.964Z</time></trkpt><trkpt lat="45.480734048489126" lon="13.938142569386978"><ele>488.5</ele><time>2026-04-11T14:11:00.964Z</time></trkpt><trkpt lat="45.48065696333513" lon="13.938268612645428"><ele>489.0</ele><time>2026-04-11T14:11:01.964Z</time></trkpt><trkpt lat="45.480593865583906" lon="13.938377506386088"><ele>489.2</ele><time>2026-04-11T14:11:02.964Z</time></trkpt><trkpt lat="45.480535117225685" lon="13.938465062176196"><ele>489.4</ele><time>2026-04-11T14:11:03.964Z</time></trkpt><trkpt lat="45.48046268537977" lon="13.938590477398536"><ele>489.6</ele><time>2026-04-11T14:11:04.964Z</time></trkpt><trkpt lat="45.48037500788845" lon="13.938701392737789"><ele>489.8</ele><time>2026-04-11T14:11:05.964Z</time></trkpt><trkpt lat="45.480303610686356" lon="13.938831825678115"><ele>490.0</ele><time>2026-04-11T14:11:06.964Z</time></trkpt><trkpt lat="45.48024019548366" lon="13.938936786702284"><ele>490.0</ele><time>2026-04-11T14:11:07.964Z</time></trkpt><trkpt lat="45.4801682370698" lon="13.939016290390967"><ele>490.0</ele><time>2026-04-11T14:11:08.964Z</time></trkpt><trkpt lat="45.48007234484924" lon="13.939101781351136"><ele>490.0</ele><time>2026-04-11T14:11:09.964Z</time></trkpt><trkpt lat="45.47996139758956" lon="13.939217759737025"><ele>490.0</ele><time>2026-04-11T14:11:10.964Z</time></trkpt><trkpt lat="45.47984947006121" lon="13.939358007493624"><ele>490.0</ele><time>2026-04-11T14:11:11.964Z</time></trkpt><trkpt lat="45.47975450011236" lon="13.9394864123376"><ele>490.0</ele><time>2026-04-11T14:11:12.964Z</time></trkpt><trkpt lat="45.479657187517354" lon="13.939623610077044"><ele>490.0</ele><time>2026-04-11T14:11:13.964Z</time></trkpt><trkpt lat="45.479549786277374" lon="13.939746219392978"><ele>490.0</ele><time>2026-04-11T14:11:14.964Z</time></trkpt><trkpt lat="45.479428588377914" lon="13.939854916648008"><ele>490.0</ele><time>2026-04-11T14:11:15.964Z</time></trkpt><trkpt lat="45.479298651841056" lon="13.939955725602498"><ele>490.0</ele><time>2026-04-11T14:11:16.964Z</time></trkpt><trkpt lat="45.479153090062866" lon="13.940087305765568"><ele>490.0</ele><time>2026-04-11T14:11:17.964Z</time></trkpt><trkpt lat="45.47900763386215" lon="13.940228903692372"><ele>490.0</ele><time>2026-04-11T14:11:18.964Z</time></trkpt><trkpt lat="45.47886878359724" lon="13.940363313574318"><ele>490.0</ele><time>2026-04-11T14:11:19.964Z</time></trkpt><trkpt lat="45.47875229431971" lon="13.94048137737283"><ele>490.0</ele><time>2026-04-11T14:11:20.964Z</time></trkpt><trkpt lat="45.478631712077345" lon="13.940588792121003"><ele>490.0</ele><time>2026-04-11T14:11:21.964Z</time></trkpt><trkpt lat="45.478503984763165" lon="13.940684542980149"><ele>490.0</ele><time>2026-04-11T14:11:22.964Z</time></trkpt><trkpt lat="45.47836959065132" lon="13.940783053916697"><ele>490.0</ele><time>2026-04-11T14:11:23.964Z</time></trkpt><trkpt lat="45.47823566401604" lon="13.940896637362403"><ele>490.25</ele><time>2026-04-11T14:11:24.964Z</time></trkpt><trkpt lat="45.47811220612928" lon="13.941012737635894"><ele>490.5</ele><time>2026-04-11T14:11:25.964Z</time></trkpt><trkpt lat="45.47798986309318" lon="13.941119468592838"><ele>490.75</ele><time>2026-04-11T14:11:26.964Z</time></trkpt><trkpt lat="45.477868915418846" lon="13.94120630622104"><ele>491.0</ele><time>2026-04-11T14:11:27.964Z</time></trkpt><trkpt lat="45.47774169020369" lon="13.941291454456067"><ele>491.0</ele><time>2026-04-11T14:11:28.964Z</time></trkpt><trkpt lat="45.47762516661239" lon="13.941379926549473"><ele>491.0</ele><time>2026-04-11T14:11:29.964Z</time></trkpt><trkpt lat="45.477514973940984" lon="13.941440975970929"><ele>491.0</ele><time>2026-04-11T14:11:30.964Z</time></trkpt><trkpt lat="45.47743228199212" lon="13.941538643094256"><ele>491.0</ele><time>2026-04-11T14:11:31.964Z</time></trkpt><trkpt lat="45.47734465143386" lon="13.941608395552398"><ele>491.0</ele><time>2026-04-11T14:11:32.964Z</time></trkpt><trkpt lat="45.47728238667961" lon="13.94168912365008"><ele>491.0</ele><time>2026-04-11T14:11:33.964Z</time></trkpt><trkpt lat="45.4772306009798" lon="13.941774063448163"><ele>491.0</ele><time>2026-04-11T14:11:34.964Z</time></trkpt><trkpt lat="45.4771642172549" lon="13.941897123425916"><ele>491.0</ele><time>2026-04-11T14:11:35.964Z</time></trkpt><trkpt lat="45.47710376507605" lon="13.942020810944168"><ele>491.0</ele><time>2026-04-11T14:11:36.964Z</time></trkpt><trkpt lat="45.477048321023986" lon="13.9421337776934"><ele>491.0</ele><time>2026-04-11T14:11:37.964Z</time></trkpt><trkpt lat="45.47698646040437" lon="13.94223286465986"><ele>491.0</ele><time>2026-04-11T14:11:38.964Z</time></trkpt><trkpt lat="45.47691338180972" lon="13.942316603570509"><ele>491.0</ele><time>2026-04-11T14:11:39.964Z</time></trkpt><trkpt lat="45.4768366774244" lon="13.942425960336417"><ele>491.0</ele><time>2026-04-11T14:11:40.964Z</time></trkpt><trkpt lat="45.47674193508865" lon="13.942524788636415"><ele>491.0</ele><time>2026-04-11T14:11:41.964Z</time></trkpt><trkpt lat="45.47664168263457" lon="13.942627158590861"><ele>491.0</ele><time>2026-04-11T14:11:42.964Z</time></trkpt><trkpt lat="45.476524329924224" lon="13.94275110909299"><ele>491.0</ele><time>2026-04-11T14:11:43.964Z</time></trkpt><trkpt lat="45.47643400204643" lon="13.942873551958158"><ele>491.0</ele><time>2026-04-11T14:11:44.964Z</time></trkpt><trkpt lat="45.476347285906805" lon="13.94300078130373"><ele>491.0</ele><time>2026-04-11T14:11:45.964Z</time></trkpt><trkpt lat="45.47626217578057" lon="13.943121973421594"><ele>491.0</ele><time>2026-04-11T14:11:46.964Z</time></trkpt><trkpt lat="45.47616587193162" lon="13.943218330536505"><ele>491.0</ele><time>2026-04-11T14:11:47.964Z</time></trkpt><trkpt lat="45.47607691040483" lon="13.943347611333005"><ele>491.0</ele><time>2026-04-11T14:11:48.963Z</time></trkpt><trkpt lat="45.47601627699664" lon="13.943463918832412"><ele>491.0</ele><time>2026-04-11T14:11:49.963Z</time></trkpt><trkpt lat="45.47595848629736" lon="13.943560012426014"><ele>491.0</ele><time>2026-04-11T14:11:50.963Z</time></trkpt><trkpt lat="45.475894716583916" lon="13.943632416114442"><ele>491.25</ele><time>2026-04-11T14:11:51.963Z</time></trkpt><trkpt lat="45.47582230619967" lon="13.943736830499548"><ele>491.5</ele><time>2026-04-11T14:11:52.963Z</time></trkpt><trkpt lat="45.47574237790949" lon="13.943841025668467"><ele>491.75</ele><time>2026-04-11T14:11:53.963Z</time></trkpt><trkpt lat="45.4756503560689" lon="13.94394795856746"><ele>492.0</ele><time>2026-04-11T14:11:54.963Z</time></trkpt><trkpt lat="45.475545962710335" lon="13.944058931343909"><ele>491.25</ele><time>2026-04-11T14:11:55.963Z</time></trkpt><trkpt lat="45.47542874698521" lon="13.944177760306536"><ele>490.5</ele><time>2026-04-11T14:11:56.963Z</time></trkpt><trkpt lat="45.47532565912711" lon="13.94426830778581"><ele>489.75</ele><time>2026-04-11T14:11:57.963Z</time></trkpt><trkpt lat="45.47522303770876" lon="13.944361127132076"><ele>489.0</ele><time>2026-04-11T14:11:58.963Z</time></trkpt><trkpt lat="45.475145676262116" lon="13.944475832586663"><ele>489.0</ele><time>2026-04-11T14:11:59.963Z</time></trkpt><trkpt lat="45.47506756225177" lon="13.944568343256176"><ele>489.0</ele><time>2026-04-11T14:12:00.963Z</time></trkpt><trkpt lat="45.47499516698214" lon="13.944678168567242"><ele>489.0</ele><time>2026-04-11T14:12:01.963Z</time></trkpt><trkpt lat="45.47492364045061" lon="13.944806711670331"><ele>489.0</ele><time>2026-04-11T14:12:02.963Z</time></trkpt><trkpt lat="45.47486006755898" lon="13.944910905927934"><ele>489.0</ele><time>2026-04-11T14:12:03.963Z</time></trkpt><trkpt lat="45.4747899759644" lon="13.944982036027133"><ele>489.0</ele><time>2026-04-11T14:12:04.963Z</time></trkpt><trkpt lat="45.474707412518704" lon="13.94503168670252"><ele>489.0</ele><time>2026-04-11T14:12:05.963Z</time></trkpt><trkpt lat="45.47460801758383" lon="13.945087352765563"><ele>489.0</ele><time>2026-04-11T14:12:06.963Z</time></trkpt><trkpt lat="45.474509004556204" lon="13.945165587987082"><ele>489.0</ele><time>2026-04-11T14:12:07.963Z</time></trkpt><trkpt lat="45.474424169803505" lon="13.945271531369505"><ele>489.0</ele><time>2026-04-11T14:12:08.963Z</time></trkpt><trkpt lat="45.47433198891674" lon="13.945406695531647"><ele>489.0</ele><time>2026-04-11T14:12:09.963Z</time></trkpt><trkpt lat="45.47423547387509" lon="13.945552209851565"><ele>489.0</ele><time>2026-04-11T14:12:10.963Z</time></trkpt><trkpt lat="45.47414885242982" lon="13.945685590575543"><ele>489.0</ele><time>2026-04-11T14:12:11.963Z</time></trkpt><trkpt lat="45.47408105777972" lon="13.945818845762883"><ele>489.0</ele><time>2026-04-11T14:12:12.963Z</time></trkpt><trkpt lat="45.474056412496424" lon="13.945976708162492"><ele>489.4</ele><time>2026-04-11T14:12:13.963Z</time></trkpt><trkpt lat="45.47398229961457" lon="13.946103880985964"><ele>489.79999999999995</ele><time>2026-04-11T14:12:14.963Z</time></trkpt><trkpt lat="45.47393506495011" lon="13.94623885392297"><ele>490.20000000000005</ele><time>2026-04-11T14:12:15.963Z</time></trkpt><trkpt lat="45.473885110897484" lon="13.946373602546265"><ele>490.6</ele><time>2026-04-11T14:12:16.964Z</time></trkpt><trkpt lat="45.47380951745489" lon="13.946481273865492"><ele>491.0</ele><time>2026-04-11T14:12:17.963Z</time></trkpt><trkpt lat="45.473742595319756" lon="13.946600690883988"><ele>491.6</ele><time>2026-04-11T14:12:18.963Z</time></trkpt><trkpt lat="45.47369301986748" lon="13.946711275723322"><ele>492.20000000000005</ele><time>2026-04-11T14:12:19.963Z</time></trkpt><trkpt lat="45.47369350561409" lon="13.946824101969815"><ele>492.79999999999995</ele><time>2026-04-11T14:12:20.964Z</time></trkpt><trkpt lat="45.473678498166876" lon="13.946974210370476"><ele>493.4</ele><time>2026-04-11T14:12:21.964Z</time></trkpt><trkpt lat="45.47365828413504" lon="13.947150066575379"><ele>494.0</ele><time>2026-04-11T14:12:22.963Z</time></trkpt><trkpt lat="45.47364377593163" lon="13.947298221013508"><ele>494.0</ele><time>2026-04-11T14:12:23.963Z</time></trkpt><trkpt lat="45.47359010743474" lon="13.947412164979523"><ele>494.0</ele><time>2026-04-11T14:12:24.963Z</time></trkpt><trkpt lat="45.47359215430579" lon="13.94752581639044"><ele>494.0</ele><time>2026-04-11T14:12:25.964Z</time></trkpt><trkpt lat="45.47358076482332" lon="13.947645593122184"><ele>494.0</ele><time>2026-04-11T14:12:26.963Z</time></trkpt><trkpt lat="45.47359831856448" lon="13.947784887754647"><ele>494.0</ele><time>2026-04-11T14:12:27.963Z</time></trkpt><trkpt lat="45.47360304248122" lon="13.947938543562953"><ele>494.0</ele><time>2026-04-11T14:12:28.963Z</time></trkpt><trkpt lat="45.473609943275434" lon="13.948092654213852"><ele>494.0</ele><time>2026-04-11T14:12:29.964Z</time></trkpt><trkpt lat="45.47358394844444" lon="13.948256450287355"><ele>494.0</ele><time>2026-04-11T14:12:30.964Z</time></trkpt><trkpt lat="45.47356357542257" lon="13.948413934529851"><ele>494.0</ele><time>2026-04-11T14:12:31.964Z</time></trkpt><trkpt lat="45.47355057750294" lon="13.94858085197688"><ele>494.2</ele><time>2026-04-11T14:12:32.964Z</time></trkpt><trkpt lat="45.47351758872508" lon="13.948744696247156"><ele>494.4</ele><time>2026-04-11T14:12:33.964Z</time></trkpt><trkpt lat="45.47346585480828" lon="13.948868867720496"><ele>494.6</ele><time>2026-04-11T14:12:34.964Z</time></trkpt><trkpt lat="45.47342087957616" lon="13.948964012707405"><ele>494.8</ele><time>2026-04-11T14:12:35.964Z</time></trkpt><trkpt lat="45.47336912072043" lon="13.949066620016925"><ele>495.0</ele><time>2026-04-11T14:12:36.964Z</time></trkpt><trkpt lat="45.473284866470415" lon="13.94915756416759"><ele>495.0</ele><time>2026-04-11T14:12:37.964Z</time></trkpt><trkpt lat="45.47317486239084" lon="13.949254032420106"><ele>495.0</ele><time>2026-04-11T14:12:38.964Z</time></trkpt><trkpt lat="45.47306243251925" lon="13.949357503311548"><ele>495.0</ele><time>2026-04-11T14:12:39.964Z</time></trkpt><trkpt lat="45.47296747101361" lon="13.949446107758897"><ele>495.0</ele><time>2026-04-11T14:12:40.964Z</time></trkpt><trkpt lat="45.47288460018574" lon="13.949527547239995"><ele>495.5</ele><time>2026-04-11T14:12:41.964Z</time></trkpt><trkpt lat="45.47280282381008" lon="13.94961542941542"><ele>496.0</ele><time>2026-04-11T14:12:42.964Z</time></trkpt><trkpt lat="45.47272557317832" lon="13.949734620869195"><ele>496.5</ele><time>2026-04-11T14:12:43.964Z</time></trkpt><trkpt lat="45.47264510431035" lon="13.949871787546499"><ele>497.0</ele><time>2026-04-11T14:12:44.964Z</time></trkpt><trkpt lat="45.472556930946574" lon="13.950023599408892"><ele>496.75</ele><time>2026-04-11T14:12:45.964Z</time></trkpt><trkpt lat="45.472463863817346" lon="13.950172311506057"><ele>496.5</ele><time>2026-04-11T14:12:46.964Z</time></trkpt><trkpt lat="45.472378566603" lon="13.95029418003158"><ele>496.25</ele><time>2026-04-11T14:12:47.963Z</time></trkpt><trkpt lat="45.472302370438264" lon="13.950416843656301"><ele>496.0</ele><time>2026-04-11T14:12:48.963Z</time></trkpt><trkpt lat="45.472238088697765" lon="13.950559444873685"><ele>496.0</ele><time>2026-04-11T14:12:49.963Z</time></trkpt><trkpt lat="45.472153970693775" lon="13.950706145730246"><ele>496.0</ele><time>2026-04-11T14:12:50.963Z</time></trkpt><trkpt lat="45.47206587454514" lon="13.950865283106936"><ele>496.0</ele><time>2026-04-11T14:12:51.963Z</time></trkpt><trkpt lat="45.471969481012806" lon="13.951039692022738"><ele>496.0</ele><time>2026-04-11T14:12:52.963Z</time></trkpt><trkpt lat="45.47189389087175" lon="13.951184452610507"><ele>496.0</ele><time>2026-04-11T14:12:53.963Z</time></trkpt><trkpt lat="45.47185100447194" lon="13.951275676807294"><ele>496.0</ele><time>2026-04-11T14:12:54.963Z</time></trkpt><trkpt lat="45.47179171880117" lon="13.951416473425079"><ele>496.0</ele><time>2026-04-11T14:12:55.963Z</time></trkpt><trkpt lat="45.471739734603226" lon="13.951541902513569"><ele>496.0</ele><time>2026-04-11T14:12:56.963Z</time></trkpt><trkpt lat="45.47169500489613" lon="13.951673639982749"><ele>496.0</ele><time>2026-04-11T14:12:57.963Z</time></trkpt><trkpt lat="45.47163774281518" lon="13.951787625924226"><ele>496.0</ele><time>2026-04-11T14:12:58.963Z</time></trkpt><trkpt lat="45.471580791656" lon="13.951902093944021"><ele>496.0</ele><time>2026-04-11T14:12:59.963Z</time></trkpt><trkpt lat="45.47151722428915" lon="13.95202342471459"><ele>496.0</ele><time>2026-04-11T14:13:00.963Z</time></trkpt><trkpt lat="45.47145432629812" lon="13.952173440388728"><ele>496.0</ele><time>2026-04-11T14:13:01.963Z</time></trkpt><trkpt lat="45.471376012997844" lon="13.952330221094499"><ele>496.0</ele><time>2026-04-11T14:13:02.963Z</time></trkpt><trkpt lat="45.47129783821346" lon="13.952480881771477"><ele>496.0</ele><time>2026-04-11T14:13:03.963Z</time></trkpt><trkpt lat="45.4712246162259" lon="13.952633906584198"><ele>496.0</ele><time>2026-04-11T14:13:04.963Z</time></trkpt><trkpt lat="45.47115124024638" lon="13.952776144314363"><ele>496.0</ele><time>2026-04-11T14:13:05.963Z</time></trkpt><trkpt lat="45.471082184806136" lon="13.952913109832467"><ele>495.75</ele><time>2026-04-11T14:13:06.963Z</time></trkpt><trkpt lat="45.47101538383259" lon="13.953056807151992"><ele>495.5</ele><time>2026-04-11T14:13:07.963Z</time></trkpt><trkpt lat="45.47093363705778" lon="13.953200234562892"><ele>495.25</ele><time>2026-04-11T14:13:08.963Z</time></trkpt><trkpt lat="45.470853458178574" lon="13.953350055296157"><ele>495.0</ele><time>2026-04-11T14:13:09.963Z</time></trkpt><trkpt lat="45.470765397061285" lon="13.953508331385354"><ele>495.0</ele><time>2026-04-11T14:13:10.963Z</time></trkpt><trkpt lat="45.47067096190158" lon="13.953673640181625"><ele>495.0</ele><time>2026-04-11T14:13:11.962Z</time></trkpt><trkpt lat="45.47057960823757" lon="13.953814534546627"><ele>495.0</ele><time>2026-04-11T14:13:12.962Z</time></trkpt><trkpt lat="45.47049128002082" lon="13.953951334559358"><ele>495.0</ele><time>2026-04-11T14:13:13.962Z</time></trkpt><trkpt lat="45.4704240505552" lon="13.954075198026361"><ele>495.25</ele><time>2026-04-11T14:13:14.962Z</time></trkpt><trkpt lat="45.47037186169996" lon="13.954212159133256"><ele>495.5</ele><time>2026-04-11T14:13:15.962Z</time></trkpt><trkpt lat="45.470312823981466" lon="13.954352532685771"><ele>495.75</ele><time>2026-04-11T14:13:16.962Z</time></trkpt><trkpt lat="45.47024829580807" lon="13.954527022113496"><ele>496.0</ele><time>2026-04-11T14:13:17.962Z</time></trkpt><trkpt lat="45.47018178267136" lon="13.954693169680343"><ele>496.0</ele><time>2026-04-11T14:13:18.962Z</time></trkpt><trkpt lat="45.47010827524799" lon="13.954863742105589"><ele>496.0</ele><time>2026-04-11T14:13:19.962Z</time></trkpt><trkpt lat="45.47003305724001" lon="13.95503551239058"><ele>496.0</ele><time>2026-04-11T14:13:20.962Z</time></trkpt><trkpt lat="45.46994292824757" lon="13.95518497166943"><ele>496.0</ele><time>2026-04-11T14:13:21.962Z</time></trkpt><trkpt lat="45.46985711878462" lon="13.955333044574987"><ele>496.0</ele><time>2026-04-11T14:13:22.962Z</time></trkpt><trkpt lat="45.46977252939524" lon="13.955470395775173"><ele>496.0</ele><time>2026-04-11T14:13:23.962Z</time></trkpt><trkpt lat="45.469681891689724" lon="13.95561181473056"><ele>496.0</ele><time>2026-04-11T14:13:24.962Z</time></trkpt><trkpt lat="45.4695920930033" lon="13.955767886625603"><ele>496.0</ele><time>2026-04-11T14:13:25.962Z</time></trkpt><trkpt lat="45.4694980866331" lon="13.955903488236176"><ele>496.75</ele><time>2026-04-11T14:13:26.962Z</time></trkpt><trkpt lat="45.46940167497822" lon="13.956009658758358"><ele>497.5</ele><time>2026-04-11T14:13:27.962Z</time></trkpt><trkpt lat="45.46930292642036" lon="13.956127415557187"><ele>498.25</ele><time>2026-04-11T14:13:28.962Z</time></trkpt><trkpt lat="45.469209662263836" lon="13.95623056066786"><ele>499.0</ele><time>2026-04-11T14:13:29.962Z</time></trkpt><trkpt lat="45.46913806052747" lon="13.956306273907721"><ele>499.00000000000006</ele><time>2026-04-11T14:13:30.962Z</time></trkpt><trkpt lat="45.46907746606958" lon="13.956370347873525"><ele>499.0</ele><time>2026-04-11T14:13:31.962Z</time></trkpt><trkpt lat="45.469023084102155" lon="13.956428403451579"><ele>499.0</ele><time>2026-04-11T14:13:32.962Z</time></trkpt><trkpt lat="45.468934136008045" lon="13.956534485969875"><ele>499.0</ele><time>2026-04-11T14:13:34.962Z</time></trkpt><trkpt lat="45.4688640179669" lon="13.956583221879159"><ele>499.00000000000006</ele><time>2026-04-11T14:13:35.962Z</time></trkpt><trkpt lat="45.46878437058763" lon="13.956629904937211"><ele>499.0</ele><time>2026-04-11T14:13:36.962Z</time></trkpt><trkpt lat="45.46871039950581" lon="13.956666390664154"><ele>498.79999999999995</ele><time>2026-04-11T14:13:37.962Z</time></trkpt><trkpt lat="45.4686350683958" lon="13.956685476472822"><ele>498.59999999999997</ele><time>2026-04-11T14:13:38.962Z</time></trkpt><trkpt lat="45.468541858631724" lon="13.95665999546041"><ele>498.4</ele><time>2026-04-11T14:13:39.962Z</time></trkpt><trkpt lat="45.46842609180126" lon="13.956636030763203"><ele>498.2</ele><time>2026-04-11T14:13:40.962Z</time></trkpt><trkpt lat="45.46830648597674" lon="13.956645403564465"><ele>498.0</ele><time>2026-04-11T14:13:41.962Z</time></trkpt><trkpt lat="45.46820458826201" lon="13.956663890953111"><ele>498.0</ele><time>2026-04-11T14:13:42.962Z</time></trkpt><trkpt lat="45.46811131176368" lon="13.956696659247369"><ele>497.99999999999994</ele><time>2026-04-11T14:13:43.962Z</time></trkpt><trkpt lat="45.46802803423423" lon="13.95675162039907"><ele>497.99999999999994</ele><time>2026-04-11T14:13:44.962Z</time></trkpt><trkpt lat="45.46796228421688" lon="13.956837245930886"><ele>498.0</ele><time>2026-04-11T14:13:45.962Z</time></trkpt><trkpt lat="45.46788524640507" lon="13.956957220307396"><ele>498.0</ele><time>2026-04-11T14:13:46.962Z</time></trkpt><trkpt lat="45.467798948298906" lon="13.957096796545883"><ele>498.5</ele><time>2026-04-11T14:13:47.962Z</time></trkpt><trkpt lat="45.46772106956663" lon="13.957213548758562"><ele>499.0</ele><time>2026-04-11T14:13:48.962Z</time></trkpt><trkpt lat="45.46764599008692" lon="13.957289979482157"><ele>499.5</ele><time>2026-04-11T14:13:49.962Z</time></trkpt><trkpt lat="45.46759248861194" lon="13.957384019436464"><ele>500.0</ele><time>2026-04-11T14:13:50.962Z</time></trkpt><trkpt lat="45.46755974511134" lon="13.9574761757125"><ele>500.5</ele><time>2026-04-11T14:13:51.962Z</time></trkpt><trkpt lat="45.467543356694634" lon="13.957581335088692"><ele>501.0</ele><time>2026-04-11T14:13:53.962Z</time></trkpt><trkpt lat="45.467418064821125" lon="13.957499643418164"><ele>501.75</ele><time>2026-04-11T14:13:58.961Z</time></trkpt><trkpt lat="45.46739054996674" lon="13.957398256784431"><ele>502.5</ele><time>2026-04-11T14:13:59.961Z</time></trkpt><trkpt lat="45.467339989740466" lon="13.95727395138973"><ele>503.25</ele><time>2026-04-11T14:14:00.961Z</time></trkpt><trkpt lat="45.46726885412245" lon="13.957097480259383"><ele>504.0</ele><time>2026-04-11T14:14:01.961Z</time></trkpt><trkpt lat="45.46718791512064" lon="13.956934861348786"><ele>504.0</ele><time>2026-04-11T14:14:02.961Z</time></trkpt><trkpt lat="45.46712361267823" lon="13.956760479718561"><ele>504.0</ele><time>2026-04-11T14:14:03.961Z</time></trkpt><trkpt lat="45.46704529369451" lon="13.956599746928715"><ele>504.0</ele><time>2026-04-11T14:14:04.961Z</time></trkpt><trkpt lat="45.46696225913459" lon="13.956461321178047"><ele>504.0</ele><time>2026-04-11T14:14:05.961Z</time></trkpt><trkpt lat="45.46687523758388" lon="13.956325571994768"><ele>503.0</ele><time>2026-04-11T14:14:06.961Z</time></trkpt><trkpt lat="45.46675756045426" lon="13.956209023141396"><ele>502.0</ele><time>2026-04-11T14:14:07.961Z</time></trkpt><trkpt lat="45.46659676534453" lon="13.956106662426533"><ele>501.0</ele><time>2026-04-11T14:14:08.961Z</time></trkpt><trkpt lat="45.46644331330831" lon="13.95603946093364"><ele>501.0</ele><time>2026-04-11T14:14:09.961Z</time></trkpt><trkpt lat="45.466288261954986" lon="13.955977816398255"><ele>501.0</ele><time>2026-04-11T14:14:10.961Z</time></trkpt><trkpt lat="45.466147699448406" lon="13.955925197392563"><ele>501.0</ele><time>2026-04-11T14:14:11.961Z</time></trkpt><trkpt lat="45.46601032120927" lon="13.955864267464671"><ele>499.5</ele><time>2026-04-11T14:14:12.961Z</time></trkpt><trkpt lat="45.46587975041735" lon="13.955805573034903"><ele>498.0</ele><time>2026-04-11T14:14:13.961Z</time></trkpt><trkpt lat="45.465749176019806" lon="13.955736650121374"><ele>496.5</ele><time>2026-04-11T14:14:14.961Z</time></trkpt><trkpt lat="45.46563620819702" lon="13.955617123149839"><ele>495.0</ele><time>2026-04-11T14:14:15.961Z</time></trkpt><trkpt lat="45.46550717587049" lon="13.955507931481677"><ele>495.66666666666663</ele><time>2026-04-11T14:14:16.961Z</time></trkpt><trkpt lat="45.4653674171505" lon="13.955425260850047"><ele>496.3333333333333</ele><time>2026-04-11T14:14:17.961Z</time></trkpt><trkpt lat="45.46522687068463" lon="13.955334023182495"><ele>497.0</ele><time>2026-04-11T14:14:18.961Z</time></trkpt><trkpt lat="45.465086745344195" lon="13.955258965062578"><ele>497.0</ele><time>2026-04-11T14:14:19.961Z</time></trkpt><trkpt lat="45.46493342754812" lon="13.955199784401778"><ele>497.0</ele><time>2026-04-11T14:14:20.961Z</time></trkpt><trkpt lat="45.464766136562794" lon="13.955148798314664"><ele>497.0</ele><time>2026-04-11T14:14:21.961Z</time></trkpt><trkpt lat="45.464585784706074" lon="13.955113050226737"><ele>498.66666666666663</ele><time>2026-04-11T14:14:22.961Z</time></trkpt><trkpt lat="45.46440290148139" lon="13.955075780720577"><ele>500.33333333333337</ele><time>2026-04-11T14:14:23.961Z</time></trkpt><trkpt lat="45.464219269700045" lon="13.955039973926342"><ele>502.0</ele><time>2026-04-11T14:14:24.961Z</time></trkpt><trkpt lat="45.46404373153001" lon="13.954968610744343"><ele>502.0</ele><time>2026-04-11T14:14:25.961Z</time></trkpt><trkpt lat="45.46386944490293" lon="13.95493102490062"><ele>502.0</ele><time>2026-04-11T14:14:26.961Z</time></trkpt><trkpt lat="45.463708129260766" lon="13.954830319294802"><ele>502.0</ele><time>2026-04-11T14:14:27.961Z</time></trkpt><trkpt lat="45.46353765900762" lon="13.954754929635323"><ele>504.0</ele><time>2026-04-11T14:14:28.962Z</time></trkpt><trkpt lat="45.463386818787264" lon="13.954739687405484"><ele>506.0</ele><time>2026-04-11T14:14:29.962Z</time></trkpt><trkpt lat="45.46323507319872" lon="13.954677262500427"><ele>508.0</ele><time>2026-04-11T14:14:30.962Z</time></trkpt><trkpt lat="45.463116859481" lon="13.954545560273365"><ele>508.0</ele><time>2026-04-11T14:14:31.961Z</time></trkpt><trkpt lat="45.463012745414595" lon="13.95442649922745"><ele>508.0</ele><time>2026-04-11T14:14:32.961Z</time></trkpt><trkpt lat="45.46289181914462" lon="13.954321226570281"><ele>508.0</ele><time>2026-04-11T14:14:33.961Z</time></trkpt><trkpt lat="45.46275866219121" lon="13.954284665744229"><ele>508.0</ele><time>2026-04-11T14:14:34.961Z</time></trkpt><trkpt lat="45.46261609084473" lon="13.95426253805138"><ele>506.6666666666667</ele><time>2026-04-11T14:14:35.962Z</time></trkpt><trkpt lat="45.462468648782995" lon="13.954266427040102"><ele>505.33333333333337</ele><time>2026-04-11T14:14:36.962Z</time></trkpt><trkpt lat="45.46230599439244" lon="13.954262528286467"><ele>504.0</ele><time>2026-04-11T14:14:37.962Z</time></trkpt><trkpt lat="45.462132737500596" lon="13.954247019742201"><ele>502.33333333333337</ele><time>2026-04-11T14:14:38.962Z</time></trkpt><trkpt lat="45.461965654240224" lon="13.954228789168972"><ele>500.6666666666667</ele><time>2026-04-11T14:14:39.962Z</time></trkpt><trkpt lat="45.46179269051381" lon="13.954202189245368"><ele>499.0</ele><time>2026-04-11T14:14:40.962Z</time></trkpt><trkpt lat="45.46161776068712" lon="13.954168307191637"><ele>498.0</ele><time>2026-04-11T14:14:41.962Z</time></trkpt><trkpt lat="45.461447852689425" lon="13.954141104112255"><ele>497.0</ele><time>2026-04-11T14:14:42.962Z</time></trkpt><trkpt lat="45.46128753594332" lon="13.954125246964468"><ele>496.0</ele><time>2026-04-11T14:14:43.961Z</time></trkpt><trkpt lat="45.4611501399796" lon="13.954106060376143"><ele>495.0</ele><time>2026-04-11T14:14:44.961Z</time></trkpt><trkpt lat="45.46103207807305" lon="13.954085827069454"><ele>494.0</ele><time>2026-04-11T14:14:45.961Z</time></trkpt><trkpt lat="45.460909261843206" lon="13.954075739698698"><ele>493.0</ele><time>2026-04-11T14:14:46.961Z</time></trkpt><trkpt lat="45.4607959157872" lon="13.954095692509426"><ele>492.0</ele><time>2026-04-11T14:14:47.961Z</time></trkpt><trkpt lat="45.46068689819559" lon="13.954140678945526"><ele>492.0</ele><time>2026-04-11T14:14:48.961Z</time></trkpt><trkpt lat="45.46058098592102" lon="13.954217976477445"><ele>492.0</ele><time>2026-04-11T14:14:49.961Z</time></trkpt><trkpt lat="45.46047694482549" lon="13.954300775514788"><ele>492.0</ele><time>2026-04-11T14:14:50.961Z</time></trkpt><trkpt lat="45.46038367903061" lon="13.954383160495444"><ele>492.0</ele><time>2026-04-11T14:14:51.961Z</time></trkpt><trkpt lat="45.46027926884811" lon="13.954465063002576"><ele>492.0</ele><time>2026-04-11T14:14:52.961Z</time></trkpt><trkpt lat="45.46017476931914" lon="13.954567984312174"><ele>492.0</ele><time>2026-04-11T14:14:53.961Z</time></trkpt><trkpt lat="45.46008354290753" lon="13.954710959294736"><ele>492.0</ele><time>2026-04-11T14:14:54.961Z</time></trkpt><trkpt lat="45.46000086824929" lon="13.954879833505146"><ele>492.0</ele><time>2026-04-11T14:14:55.961Z</time></trkpt><trkpt lat="45.45991362563607" lon="13.955057836645421"><ele>491.66666666666663</ele><time>2026-04-11T14:14:56.961Z</time></trkpt><trkpt lat="45.459822123881956" lon="13.955276280821368"><ele>491.3333333333333</ele><time>2026-04-11T14:14:57.961Z</time></trkpt><trkpt lat="45.45973261885838" lon="13.95551469724287"><ele>491.0</ele><time>2026-04-11T14:14:58.961Z</time></trkpt><trkpt lat="45.4596470095303" lon="13.955767766733597"><ele>489.66666666666663</ele><time>2026-04-11T14:14:59.961Z</time></trkpt><trkpt lat="45.4595625961497" lon="13.95602051021129"><ele>488.33333333333337</ele><time>2026-04-11T14:15:00.961Z</time></trkpt><trkpt lat="45.459486315183305" lon="13.956273338672327"><ele>487.0</ele><time>2026-04-11T14:15:01.961Z</time></trkpt><trkpt lat="45.45939251790598" lon="13.956519720089412"><ele>488.0</ele><time>2026-04-11T14:15:02.961Z</time></trkpt><trkpt lat="45.45928705034027" lon="13.956768441201842"><ele>489.0</ele><time>2026-04-11T14:15:03.961Z</time></trkpt><trkpt lat="45.45916966969765" lon="13.957026177573418"><ele>490.0</ele><time>2026-04-11T14:15:04.961Z</time></trkpt><trkpt lat="45.459051147222524" lon="13.957282246943123"><ele>490.0</ele><time>2026-04-11T14:15:05.961Z</time></trkpt><trkpt lat="45.45891156426204" lon="13.95752802854903"><ele>490.0</ele><time>2026-04-11T14:15:06.961Z</time></trkpt><trkpt lat="45.4587765624313" lon="13.957783826029079"><ele>490.0</ele><time>2026-04-11T14:15:07.961Z</time></trkpt><trkpt lat="45.45864647778351" lon="13.958029637502673"><ele>488.6666666666667</ele><time>2026-04-11T14:15:08.961Z</time></trkpt><trkpt lat="45.45853726607942" lon="13.9582779890765"><ele>487.33333333333337</ele><time>2026-04-11T14:15:09.961Z</time></trkpt><trkpt lat="45.45842077363884" lon="13.958503340801295"><ele>486.0</ele><time>2026-04-11T14:15:10.961Z</time></trkpt><trkpt lat="45.45831702591631" lon="13.958723554000057"><ele>486.0</ele><time>2026-04-11T14:15:11.961Z</time></trkpt><trkpt lat="45.45822022471825" lon="13.958948070808221"><ele>486.0</ele><time>2026-04-11T14:15:12.961Z</time></trkpt><trkpt lat="45.45813553149989" lon="13.959168428265103"><ele>486.0</ele><time>2026-04-11T14:15:13.961Z</time></trkpt><trkpt lat="45.45804732525164" lon="13.959373905943616"><ele>486.0</ele><time>2026-04-11T14:15:14.961Z</time></trkpt><trkpt lat="45.457943025483495" lon="13.959557772598803"><ele>486.0</ele><time>2026-04-11T14:15:15.961Z</time></trkpt><trkpt lat="45.45781014600987" lon="13.959732476312121"><ele>486.0</ele><time>2026-04-11T14:15:16.961Z</time></trkpt><trkpt lat="45.45766094462032" lon="13.959892548593423"><ele>486.66666666666663</ele><time>2026-04-11T14:15:17.961Z</time></trkpt><trkpt lat="45.4575123317249" lon="13.960049738846129"><ele>487.3333333333333</ele><time>2026-04-11T14:15:18.961Z</time></trkpt><trkpt lat="45.45735702878612" lon="13.960219244512064"><ele>488.0</ele><time>2026-04-11T14:15:19.961Z</time></trkpt><trkpt lat="45.45721042541357" lon="13.960395638236102"><ele>488.0</ele><time>2026-04-11T14:15:20.961Z</time></trkpt><trkpt lat="45.45709807870963" lon="13.960582932762858"><ele>488.0</ele><time>2026-04-11T14:15:21.961Z</time></trkpt><trkpt lat="45.45701343264671" lon="13.960788301505522"><ele>488.0</ele><time>2026-04-11T14:15:22.961Z</time></trkpt><trkpt lat="45.45694761887957" lon="13.961008104483422"><ele>488.66666666666663</ele><time>2026-04-11T14:15:23.961Z</time></trkpt><trkpt lat="45.45689610483967" lon="13.96124849738785"><ele>489.33333333333337</ele><time>2026-04-11T14:15:24.961Z</time></trkpt><trkpt lat="45.456831778023385" lon="13.961483518324169"><ele>490.0</ele><time>2026-04-11T14:15:25.961Z</time></trkpt><trkpt lat="45.456754851198326" lon="13.961713357769412"><ele>490.6666666666667</ele><time>2026-04-11T14:15:26.961Z</time></trkpt><trkpt lat="45.45664562341286" lon="13.961915525507168"><ele>491.33333333333337</ele><time>2026-04-11T14:15:27.961Z</time></trkpt><trkpt lat="45.45652852270182" lon="13.96211694771814"><ele>492.0</ele><time>2026-04-11T14:15:28.961Z</time></trkpt><trkpt lat="45.45641564438968" lon="13.96233284999477"><ele>492.0</ele><time>2026-04-11T14:15:29.961Z</time></trkpt><trkpt lat="45.45631779880707" lon="13.962572035764993"><ele>492.0</ele><time>2026-04-11T14:15:30.961Z</time></trkpt><trkpt lat="45.45621203977973" lon="13.96278755772376"><ele>492.0</ele><time>2026-04-11T14:15:31.961Z</time></trkpt><trkpt lat="45.456091925169055" lon="13.962963335521922"><ele>492.0</ele><time>2026-04-11T14:15:32.961Z</time></trkpt><trkpt lat="45.45595307154482" lon="13.9631068341691"><ele>492.0</ele><time>2026-04-11T14:15:33.961Z</time></trkpt><trkpt lat="45.45579780919047" lon="13.963221728159876"><ele>492.0</ele><time>2026-04-11T14:15:34.961Z</time></trkpt><trkpt lat="45.455628559171714" lon="13.963315944647757"><ele>492.33333333333337</ele><time>2026-04-11T14:15:35.961Z</time></trkpt><trkpt lat="45.45546852618013" lon="13.963424188651441"><ele>492.6666666666667</ele><time>2026-04-11T14:15:36.961Z</time></trkpt><trkpt lat="45.45531157351686" lon="13.963583000851495"><ele>493.0</ele><time>2026-04-11T14:15:37.961Z</time></trkpt><trkpt lat="45.45515869104977" lon="13.963738770190979"><ele>493.0</ele><time>2026-04-11T14:15:38.961Z</time></trkpt><trkpt lat="45.45502700646016" lon="13.963908945839695"><ele>493.0</ele><time>2026-04-11T14:15:39.961Z</time></trkpt><trkpt lat="45.45487699528937" lon="13.964019352813656"><ele>493.0</ele><time>2026-04-11T14:15:40.961Z</time></trkpt><trkpt lat="45.45471218972995" lon="13.964073421499545"><ele>493.0</ele><time>2026-04-11T14:15:41.961Z</time></trkpt><trkpt lat="45.454545424687716" lon="13.964141546673847"><ele>493.0</ele><time>2026-04-11T14:15:42.961Z</time></trkpt><trkpt lat="45.454380049784426" lon="13.964233698061607"><ele>493.0</ele><time>2026-04-11T14:15:43.961Z</time></trkpt><trkpt lat="45.45423807174" lon="13.964383865340329"><ele>493.6666666666667</ele><time>2026-04-11T14:15:44.961Z</time></trkpt><trkpt lat="45.454110298284824" lon="13.964568898269311"><ele>494.33333333333337</ele><time>2026-04-11T14:15:45.961Z</time></trkpt><trkpt lat="45.45399662154856" lon="13.964773031604881"><ele>495.0</ele><time>2026-04-11T14:15:46.961Z</time></trkpt><trkpt lat="45.45389207725307" lon="13.964981219353158"><ele>495.0</ele><time>2026-04-11T14:15:47.961Z</time></trkpt><trkpt lat="45.453790804342034" lon="13.965177680588015"><ele>495.0</ele><time>2026-04-11T14:15:48.961Z</time></trkpt><trkpt lat="45.45369119172879" lon="13.965378189551835"><ele>495.0</ele><time>2026-04-11T14:15:49.961Z</time></trkpt><trkpt lat="45.45359528634293" lon="13.965596904985464"><ele>495.0</ele><time>2026-04-11T14:15:50.961Z</time></trkpt><trkpt lat="45.453498753857374" lon="13.965815994076463"><ele>495.0</ele><time>2026-04-11T14:15:51.961Z</time></trkpt><trkpt lat="45.45338927648805" lon="13.966039040928079"><ele>495.0</ele><time>2026-04-11T14:15:52.961Z</time></trkpt><trkpt lat="45.45327047133582" lon="13.966272039660627"><ele>494.66666666666663</ele><time>2026-04-11T14:15:53.961Z</time></trkpt><trkpt lat="45.453165413216425" lon="13.966534733604762"><ele>494.3333333333333</ele><time>2026-04-11T14:15:54.961Z</time></trkpt><trkpt lat="45.453084666855254" lon="13.966816438269566"><ele>494.0</ele><time>2026-04-11T14:15:55.961Z</time></trkpt><trkpt lat="45.45299558396405" lon="13.967092840393668"><ele>494.0</ele><time>2026-04-11T14:15:56.961Z</time></trkpt><trkpt lat="45.45288931286116" lon="13.967343637164584"><ele>494.0</ele><time>2026-04-11T14:15:57.961Z</time></trkpt><trkpt lat="45.45277818922476" lon="13.967579466869681"><ele>494.0</ele><time>2026-04-11T14:15:58.961Z</time></trkpt><trkpt lat="45.452651592424985" lon="13.967799980652945"><ele>494.0</ele><time>2026-04-11T14:15:59.961Z</time></trkpt><trkpt lat="45.45251403432557" lon="13.968001572318672"><ele>494.0</ele><time>2026-04-11T14:16:00.961Z</time></trkpt><trkpt lat="45.452374370127565" lon="13.968206053881683"><ele>494.0</ele><time>2026-04-11T14:16:01.961Z</time></trkpt><trkpt lat="45.45223670467445" lon="13.968413924512271"><ele>493.66666666666663</ele><time>2026-04-11T14:16:02.961Z</time></trkpt><trkpt lat="45.45208976648722" lon="13.968604030161227"><ele>493.33333333333337</ele><time>2026-04-11T14:16:03.961Z</time></trkpt><trkpt lat="45.45193597060933" lon="13.968767456666557"><ele>493.0</ele><time>2026-04-11T14:16:04.961Z</time></trkpt><trkpt lat="45.45180815550569" lon="13.96894895648508"><ele>493.0</ele><time>2026-04-11T14:16:05.961Z</time></trkpt><trkpt lat="45.45171131926806" lon="13.969162413238625"><ele>493.0</ele><time>2026-04-11T14:16:06.961Z</time></trkpt><trkpt lat="45.45163898227133" lon="13.969405094408177"><ele>493.0</ele><time>2026-04-11T14:16:07.961Z</time></trkpt><trkpt lat="45.45155360620799" lon="13.969648292507166"><ele>494.0</ele><time>2026-04-11T14:16:08.961Z</time></trkpt><trkpt lat="45.45144955403361" lon="13.969871139023471"><ele>495.0</ele><time>2026-04-11T14:16:09.961Z</time></trkpt><trkpt lat="45.45133970028985" lon="13.970062695867238"><ele>496.0</ele><time>2026-04-11T14:16:10.961Z</time></trkpt><trkpt lat="45.45123700659961" lon="13.9702331019257"><ele>496.0</ele><time>2026-04-11T14:16:11.961Z</time></trkpt><trkpt lat="45.451153137156425" lon="13.970391298794455"><ele>496.0</ele><time>2026-04-11T14:16:12.961Z</time></trkpt><trkpt lat="45.45106902541554" lon="13.970543028463025"><ele>496.0</ele><time>2026-04-11T14:16:13.961Z</time></trkpt><trkpt lat="45.45099537968487" lon="13.970689775329424"><ele>496.0</ele><time>2026-04-11T14:16:14.961Z</time></trkpt><trkpt lat="45.45092695559725" lon="13.970833928885108"><ele>495.8</ele><time>2026-04-11T14:16:15.961Z</time></trkpt><trkpt lat="45.450865018227105" lon="13.97096710357831"><ele>495.6</ele><time>2026-04-11T14:16:16.961Z</time></trkpt><trkpt lat="45.4508024071698" lon="13.971088691354383"><ele>495.4</ele><time>2026-04-11T14:16:17.961Z</time></trkpt><trkpt lat="45.450740327863166" lon="13.971202433245967"><ele>495.2</ele><time>2026-04-11T14:16:18.961Z</time></trkpt><trkpt lat="45.45069623462392" lon="13.97129976524609"><ele>495.0</ele><time>2026-04-11T14:16:19.961Z</time></trkpt><trkpt lat="45.45069161142826" lon="13.971461825292517"><ele>495.0</ele><time>2026-04-11T14:16:21.961Z</time></trkpt><trkpt lat="45.45061868815966" lon="13.971515756536185"><ele>495.0</ele><time>2026-04-11T14:16:22.961Z</time></trkpt><trkpt lat="45.450542060957595" lon="13.97155155649251"><ele>495.0</ele><time>2026-04-11T14:16:23.961Z</time></trkpt><trkpt lat="45.450447804879346" lon="13.971594779642679"><ele>495.0</ele><time>2026-04-11T14:16:24.961Z</time></trkpt><trkpt lat="45.45034054039527" lon="13.971643932308046"><ele>495.0</ele><time>2026-04-11T14:16:25.961Z</time></trkpt><trkpt lat="45.45020877490246" lon="13.97170135620378"><ele>494.5</ele><time>2026-04-11T14:16:26.961Z</time></trkpt><trkpt lat="45.450065214886486" lon="13.97172526160873"><ele>494.0</ele><time>2026-04-11T14:16:27.961Z</time></trkpt><trkpt lat="45.44993397873201" lon="13.971679025053637"><ele>493.5</ele><time>2026-04-11T14:16:28.961Z</time></trkpt><trkpt lat="45.44980321345421" lon="13.9715763024573"><ele>493.0</ele><time>2026-04-11T14:16:29.961Z</time></trkpt><trkpt lat="45.449680232116606" lon="13.97141677512302"><ele>494.33333333333337</ele><time>2026-04-11T14:16:30.961Z</time></trkpt><trkpt lat="45.449545816241276" lon="13.971240708872193"><ele>495.66666666666663</ele><time>2026-04-11T14:16:31.961Z</time></trkpt><trkpt lat="45.44939636326144" lon="13.971135625480942"><ele>497.0</ele><time>2026-04-11T14:16:32.961Z</time></trkpt><trkpt lat="45.449244833900046" lon="13.971109990574705"><ele>497.0</ele><time>2026-04-11T14:16:33.961Z</time></trkpt><trkpt lat="45.44906974795725" lon="13.971127298585206"><ele>497.0</ele><time>2026-04-11T14:16:34.961Z</time></trkpt><trkpt lat="45.448893824216555" lon="13.971194376815466"><ele>497.0</ele><time>2026-04-11T14:16:35.962Z</time></trkpt><trkpt lat="45.44871693172215" lon="13.971282559827758"><ele>498.3333333333333</ele><time>2026-04-11T14:16:36.962Z</time></trkpt><trkpt lat="45.44854944430946" lon="13.971347409807247"><ele>499.66666666666663</ele><time>2026-04-11T14:16:37.961Z</time></trkpt><trkpt lat="45.44838996984978" lon="13.971418844896247"><ele>501.0</ele><time>2026-04-11T14:16:38.961Z</time></trkpt><trkpt lat="45.448228663674065" lon="13.971502269424215"><ele>501.0</ele><time>2026-04-11T14:16:39.961Z</time></trkpt><trkpt lat="45.44807445462732" lon="13.97160333160535"><ele>501.0</ele><time>2026-04-11T14:16:40.961Z</time></trkpt><trkpt lat="45.44792291799434" lon="13.971706858463"><ele>501.0</ele><time>2026-04-11T14:16:41.961Z</time></trkpt><trkpt lat="45.447777928908884" lon="13.971812838688965"><ele>501.66666666666663</ele><time>2026-04-11T14:16:42.961Z</time></trkpt><trkpt lat="45.447632276693284" lon="13.971913513936059"><ele>502.3333333333333</ele><time>2026-04-11T14:16:43.961Z</time></trkpt><trkpt lat="45.44748550779717" lon="13.972003795611947"><ele>503.0</ele><time>2026-04-11T14:16:44.961Z</time></trkpt><trkpt lat="45.44733626678088" lon="13.972077509166816"><ele>503.0</ele><time>2026-04-11T14:16:45.961Z</time></trkpt><trkpt lat="45.44718672334786" lon="13.97209674553845"><ele>503.0</ele><time>2026-04-11T14:16:46.961Z</time></trkpt><trkpt lat="45.44703403512269" lon="13.972087271865137"><ele>503.0</ele><time>2026-04-11T14:16:47.961Z</time></trkpt><trkpt lat="45.44687945569817" lon="13.972038085837339"><ele>503.3333333333333</ele><time>2026-04-11T14:16:48.961Z</time></trkpt><trkpt lat="45.44673311276787" lon="13.971937372000138"><ele>503.66666666666663</ele><time>2026-04-11T14:16:49.961Z</time></trkpt><trkpt lat="45.44659322598602" lon="13.97179927934434"><ele>504.0</ele><time>2026-04-11T14:16:50.961Z</time></trkpt><trkpt lat="45.44645767927112" lon="13.971687553257711"><ele>504.0</ele><time>2026-04-11T14:16:51.961Z</time></trkpt><trkpt lat="45.44634259623378" lon="13.971630503544175"><ele>504.0</ele><time>2026-04-11T14:16:52.961Z</time></trkpt><trkpt lat="45.44621460811033" lon="13.97162549576337"><ele>504.0</ele><time>2026-04-11T14:16:53.961Z</time></trkpt><trkpt lat="45.446085444438246" lon="13.97169547735519"><ele>504.0</ele><time>2026-04-11T14:16:54.961Z</time></trkpt><trkpt lat="45.44597002552891" lon="13.971790954031727"><ele>504.25</ele><time>2026-04-11T14:16:55.961Z</time></trkpt><trkpt lat="45.44584786272739" lon="13.97186263082709"><ele>504.5</ele><time>2026-04-11T14:16:56.961Z</time></trkpt><trkpt lat="45.44571979761624" lon="13.97180505188686"><ele>504.75</ele><time>2026-04-11T14:16:57.961Z</time></trkpt><trkpt lat="45.44558226320301" lon="13.971748423846627"><ele>505.0</ele><time>2026-04-11T14:16:58.961Z</time></trkpt><trkpt lat="45.44543501725812" lon="13.971695383103327"><ele>503.0</ele><time>2026-04-11T14:16:59.961Z</time></trkpt><trkpt lat="45.44531219396581" lon="13.971622745373738"><ele>501.0</ele><time>2026-04-11T14:17:00.961Z</time></trkpt><trkpt lat="45.44520322354003" lon="13.971561238895777"><ele>499.0</ele><time>2026-04-11T14:17:01.961Z</time></trkpt><trkpt lat="45.445117952934204" lon="13.971500229634287"><ele>497.0</ele><time>2026-04-11T14:17:02.961Z</time></trkpt><trkpt lat="45.44506299919492" lon="13.97143539053885"><ele>495.0</ele><time>2026-04-11T14:17:03.961Z</time></trkpt><trkpt lat="45.44500498685744" lon="13.97138108163821"><ele>495.0</ele><time>2026-04-11T14:17:05.961Z</time></trkpt><trkpt lat="45.44491641292855" lon="13.971492905136346"><ele>495.0</ele><time>2026-04-11T14:17:06.961Z</time></trkpt><trkpt lat="45.444848962718616" lon="13.97151327708419"><ele>495.0</ele><time>2026-04-11T14:17:07.961Z</time></trkpt><trkpt lat="45.44476356624237" lon="13.971526496003724"><ele>495.0</ele><time>2026-04-11T14:17:08.961Z</time></trkpt><trkpt lat="45.44466309998962" lon="13.971536515400436"><ele>495.0</ele><time>2026-04-11T14:17:09.961Z</time></trkpt><trkpt lat="45.44455935286264" lon="13.971524484618289"><ele>494.8</ele><time>2026-04-11T14:17:10.961Z</time></trkpt><trkpt lat="45.44446899505692" lon="13.971570601562062"><ele>494.6</ele><time>2026-04-11T14:17:11.961Z</time></trkpt><trkpt lat="45.44437848383129" lon="13.971593844595853"><ele>494.4</ele><time>2026-04-11T14:17:12.961Z</time></trkpt><trkpt lat="45.4442898850675" lon="13.971623326026023"><ele>494.2</ele><time>2026-04-11T14:17:13.961Z</time></trkpt><trkpt lat="45.4441946814325" lon="13.971654799219516"><ele>494.0</ele><time>2026-04-11T14:17:14.961Z</time></trkpt><trkpt lat="45.444090995959336" lon="13.97168090456725"><ele>494.6</ele><time>2026-04-11T14:17:15.961Z</time></trkpt><trkpt lat="45.443988388763536" lon="13.971707699023739"><ele>495.2</ele><time>2026-04-11T14:17:16.961Z</time></trkpt><trkpt lat="45.44389034755186" lon="13.971736484825627"><ele>495.80000000000007</ele><time>2026-04-11T14:17:17.961Z</time></trkpt><trkpt lat="45.44378277449326" lon="13.971748734478519"><ele>496.40000000000003</ele><time>2026-04-11T14:17:18.961Z</time></trkpt><trkpt lat="45.44367285595842" lon="13.971734140971039"><ele>497.0</ele><time>2026-04-11T14:17:19.96Z</time></trkpt><trkpt lat="45.44357196720444" lon="13.971738320829827"><ele>496.99999999999994</ele><time>2026-04-11T14:17:20.96Z</time></trkpt><trkpt lat="45.44348546861813" lon="13.971751395010786"><ele>497.0</ele><time>2026-04-11T14:17:21.96Z</time></trkpt><trkpt lat="45.443390718283716" lon="13.971776261054378"><ele>497.0</ele><time>2026-04-11T14:17:23.96Z</time></trkpt><trkpt lat="45.44333567352198" lon="13.971864591449425"><ele>497.0</ele><time>2026-04-11T14:17:25.96Z</time></trkpt><trkpt lat="45.44332152523445" lon="13.972013461697196"><ele>496.99999999999994</ele><time>2026-04-11T14:17:27.96Z</time></trkpt><trkpt lat="45.44329862198921" lon="13.972110507067256"><ele>497.0</ele><time>2026-04-11T14:17:28.96Z</time></trkpt><trkpt lat="45.44325296544387" lon="13.972223598036216"><ele>497.0</ele><time>2026-04-11T14:17:29.96Z</time></trkpt><trkpt lat="45.443179679248296" lon="13.972303706991305"><ele>497.00000000000006</ele><time>2026-04-11T14:17:30.96Z</time></trkpt><trkpt lat="45.44312360977389" lon="13.972410999064351"><ele>497.00000000000006</ele><time>2026-04-11T14:17:31.96Z</time></trkpt><trkpt lat="45.44303199713191" lon="13.972522683055264"><ele>497.0</ele><time>2026-04-11T14:17:32.96Z</time></trkpt><trkpt lat="45.442949403871275" lon="13.972664093296665"><ele>497.0</ele><time>2026-04-11T14:17:33.96Z</time></trkpt><trkpt lat="45.442855898033066" lon="13.972765322793947"><ele>497.25</ele><time>2026-04-11T14:17:34.96Z</time></trkpt><trkpt lat="45.4427338112307" lon="13.972881300939438"><ele>497.5</ele><time>2026-04-11T14:17:35.96Z</time></trkpt><trkpt lat="45.44260496797538" lon="13.972988786578377"><ele>497.75</ele><time>2026-04-11T14:17:36.96Z</time></trkpt><trkpt lat="45.44249966507818" lon="13.973094909073819"><ele>498.0</ele><time>2026-04-11T14:17:37.96Z</time></trkpt><trkpt lat="45.44239263883742" lon="13.973227816648256"><ele>498.0</ele><time>2026-04-11T14:17:38.96Z</time></trkpt><trkpt lat="45.442274664249446" lon="13.973328690643918"><ele>498.0</ele><time>2026-04-11T14:17:39.96Z</time></trkpt><trkpt lat="45.442152431062226" lon="13.973413530330005"><ele>498.0</ele><time>2026-04-11T14:17:40.96Z</time></trkpt><trkpt lat="45.44202355145128" lon="13.973511881007482"><ele>498.0</ele><time>2026-04-11T14:17:41.96Z</time></trkpt><trkpt lat="45.44189417926733" lon="13.973636691503604"><ele>498.5</ele><time>2026-04-11T14:17:42.96Z</time></trkpt><trkpt lat="45.44178349058258" lon="13.973756696181768"><ele>499.0</ele><time>2026-04-11T14:17:43.96Z</time></trkpt><trkpt lat="45.44166624026827" lon="13.973862287035553"><ele>499.5</ele><time>2026-04-11T14:17:44.96Z</time></trkpt><trkpt lat="45.44156062623441" lon="13.973991488922179"><ele>500.0</ele><time>2026-04-11T14:17:45.96Z</time></trkpt><trkpt lat="45.44146353753115" lon="13.974119137776851"><ele>500.5</ele><time>2026-04-11T14:17:46.96Z</time></trkpt><trkpt lat="45.4413736026185" lon="13.974257117849797"><ele>501.0</ele><time>2026-04-11T14:17:47.96Z</time></trkpt><trkpt lat="45.44127317820038" lon="13.97437872566933"><ele>501.5</ele><time>2026-04-11T14:17:48.96Z</time></trkpt><trkpt lat="45.441166442409475" lon="13.974524491501503"><ele>502.0</ele><time>2026-04-11T14:17:49.96Z</time></trkpt><trkpt lat="45.44106114146925" lon="13.97468049740712"><ele>502.0</ele><time>2026-04-11T14:17:50.96Z</time></trkpt><trkpt lat="45.44096258290158" lon="13.97480873592465"><ele>502.0</ele><time>2026-04-11T14:17:51.96Z</time></trkpt><trkpt lat="45.440874291282704" lon="13.974926693686372"><ele>502.0</ele><time>2026-04-11T14:17:52.96Z</time></trkpt><trkpt lat="45.44078516145582" lon="13.975045581862421"><ele>502.0</ele><time>2026-04-11T14:17:53.96Z</time></trkpt><trkpt lat="45.44070591874942" lon="13.97514114898276"><ele>502.5</ele><time>2026-04-11T14:17:54.96Z</time></trkpt><trkpt lat="45.44061194145533" lon="13.975229309805972"><ele>503.0</ele><time>2026-04-11T14:17:55.96Z</time></trkpt><trkpt lat="45.44051767832286" lon="13.975306526588648"><ele>503.5</ele><time>2026-04-11T14:17:56.96Z</time></trkpt><trkpt lat="45.44042220566433" lon="13.9753937045298"><ele>504.0</ele><time>2026-04-11T14:17:57.96Z</time></trkpt><trkpt lat="45.440333797406375" lon="13.975506238035488"><ele>504.75</ele><time>2026-04-11T14:17:58.96Z</time></trkpt><trkpt lat="45.44024528739712" lon="13.975632117992042"><ele>505.5</ele><time>2026-04-11T14:17:59.96Z</time></trkpt><trkpt lat="45.44015675447038" lon="13.975768838651316"><ele>506.25</ele><time>2026-04-11T14:18:00.96Z</time></trkpt><trkpt lat="45.440068365398986" lon="13.975878039364192"><ele>507.0</ele><time>2026-04-11T14:18:01.96Z</time></trkpt><trkpt lat="45.439971844857844" lon="13.975992113535563"><ele>507.0</ele><time>2026-04-11T14:18:02.96Z</time></trkpt><trkpt lat="45.439859369548024" lon="13.976094009539944"><ele>507.0</ele><time>2026-04-11T14:18:03.96Z</time></trkpt><trkpt lat="45.439759661803066" lon="13.976184992677343"><ele>507.0</ele><time>2026-04-11T14:18:04.96Z</time></trkpt><trkpt lat="45.439668045713475" lon="13.976277572020926"><ele>507.0</ele><time>2026-04-11T14:18:05.96Z</time></trkpt><trkpt lat="45.43957118156195" lon="13.976350868365321"><ele>507.0</ele><time>2026-04-11T14:18:06.96Z</time></trkpt><trkpt lat="45.43944987471064" lon="13.976368051429763"><ele>507.00000000000006</ele><time>2026-04-11T14:18:07.96Z</time></trkpt><trkpt lat="45.439362296263205" lon="13.976438364447276"><ele>507.00000000000006</ele><time>2026-04-11T14:18:08.96Z</time></trkpt><trkpt lat="45.43928927282493" lon="13.976541398855591"><ele>507.0</ele><time>2026-04-11T14:18:09.96Z</time></trkpt><trkpt lat="45.4392115553373" lon="13.976675590424179"><ele>507.0</ele><time>2026-04-11T14:18:10.96Z</time></trkpt><trkpt lat="45.439141876321294" lon="13.976842215643053"><ele>507.5</ele><time>2026-04-11T14:18:11.96Z</time></trkpt><trkpt lat="45.439076829222095" lon="13.977039630961086"><ele>508.0</ele><time>2026-04-11T14:18:12.96Z</time></trkpt><trkpt lat="45.43901523378273" lon="13.97721006034429"><ele>508.5</ele><time>2026-04-11T14:18:13.96Z</time></trkpt><trkpt lat="45.43894969249335" lon="13.977357318394482"><ele>509.0</ele><time>2026-04-11T14:18:14.96Z</time></trkpt><trkpt lat="45.43887041995068" lon="13.977501152834854"><ele>508.3333333333333</ele><time>2026-04-11T14:18:15.96Z</time></trkpt><trkpt lat="45.43877846889985" lon="13.977653853551029"><ele>507.66666666666663</ele><time>2026-04-11T14:18:16.96Z</time></trkpt><trkpt lat="45.438695766875995" lon="13.977821363485239"><ele>507.0</ele><time>2026-04-11T14:18:17.96Z</time></trkpt><trkpt lat="45.438637210906585" lon="13.978055957386342"><ele>507.0</ele><time>2026-04-11T14:18:18.96Z</time></trkpt><trkpt lat="45.438557399080125" lon="13.978285312908577"><ele>507.0</ele><time>2026-04-11T14:18:19.96Z</time></trkpt><trkpt lat="45.43847011412274" lon="13.978479352509959"><ele>507.0</ele><time>2026-04-11T14:18:20.96Z</time></trkpt><trkpt lat="45.438424826854906" lon="13.978673449171126"><ele>508.20000000000005</ele><time>2026-04-11T14:18:21.96Z</time></trkpt><trkpt lat="45.43841310728777" lon="13.978853713244582"><ele>509.40000000000003</ele><time>2026-04-11T14:18:22.96Z</time></trkpt><trkpt lat="45.43835981342137" lon="13.978974046103895"><ele>510.59999999999997</ele><time>2026-04-11T14:18:23.96Z</time></trkpt><trkpt lat="45.43832608098413" lon="13.979088874823734"><ele>511.79999999999995</ele><time>2026-04-11T14:18:24.96Z</time></trkpt><trkpt lat="45.43824855213865" lon="13.979133007726965"><ele>513.0</ele><time>2026-04-11T14:18:25.96Z</time></trkpt><trkpt lat="45.43818899251622" lon="13.97920158307723"><ele>513.4</ele><time>2026-04-11T14:18:26.96Z</time></trkpt><trkpt lat="45.43813306867446" lon="13.979275540813855"><ele>513.8</ele><time>2026-04-11T14:18:27.96Z</time></trkpt><trkpt lat="45.43807280449873" lon="13.979391872424907"><ele>514.2</ele><time>2026-04-11T14:18:28.96Z</time></trkpt><trkpt lat="45.4380019278055" lon="13.979515808306083"><ele>514.6</ele><time>2026-04-11T14:18:29.96Z</time></trkpt><trkpt lat="45.43793572517157" lon="13.979656972483127"><ele>515.0</ele><time>2026-04-11T14:18:30.96Z</time></trkpt><trkpt lat="45.43786877680097" lon="13.979811772990661"><ele>515.0</ele><time>2026-04-11T14:18:31.96Z</time></trkpt><trkpt lat="45.43779928061753" lon="13.979976821664248"><ele>515.0</ele><time>2026-04-11T14:18:32.96Z</time></trkpt><trkpt lat="45.43774509362704" lon="13.98013048358936"><ele>515.0</ele><time>2026-04-11T14:18:33.96Z</time></trkpt><trkpt lat="45.437713821131844" lon="13.980290956262026"><ele>515.0</ele><time>2026-04-11T14:18:34.961Z</time></trkpt><trkpt lat="45.43767321371326" lon="13.980453711375857"><ele>516.2</ele><time>2026-04-11T14:18:35.961Z</time></trkpt><trkpt lat="45.43763877725571" lon="13.980597543333204"><ele>517.4</ele><time>2026-04-11T14:18:36.961Z</time></trkpt><trkpt lat="45.437604865388785" lon="13.980721688976185"><ele>518.6</ele><time>2026-04-11T14:18:37.961Z</time></trkpt><trkpt lat="45.43756249222757" lon="13.980853767761182"><ele>519.8</ele><time>2026-04-11T14:18:38.961Z</time></trkpt><trkpt lat="45.4375081250383" lon="13.98096254661976"><ele>521.0</ele><time>2026-04-11T14:18:39.961Z</time></trkpt><trkpt lat="45.43744917457652" lon="13.981079608618028"><ele>522.0</ele><time>2026-04-11T14:18:40.961Z</time></trkpt><trkpt lat="45.43739935002683" lon="13.98121669420353"><ele>523.0</ele><time>2026-04-11T14:18:41.961Z</time></trkpt><trkpt lat="45.43732725388287" lon="13.981402781837716"><ele>524.0</ele><time>2026-04-11T14:18:42.961Z</time></trkpt><trkpt lat="45.43725960054402" lon="13.981553984762204"><ele>525.0</ele><time>2026-04-11T14:18:43.961Z</time></trkpt><trkpt lat="45.437204653766855" lon="13.981703215515473"><ele>525.25</ele><time>2026-04-11T14:18:44.961Z</time></trkpt><trkpt lat="45.43715623736129" lon="13.98186927735386"><ele>525.5</ele><time>2026-04-11T14:18:45.961Z</time></trkpt><trkpt lat="45.437132507957074" lon="13.982047002329928"><ele>525.75</ele><time>2026-04-11T14:18:46.961Z</time></trkpt><trkpt lat="45.4371030301364" lon="13.98221868499199"><ele>526.0</ele><time>2026-04-11T14:18:47.961Z</time></trkpt><trkpt lat="45.43707837846321" lon="13.982389683397965"><ele>526.6</ele><time>2026-04-11T14:18:48.961Z</time></trkpt><trkpt lat="45.43703852470179" lon="13.982529006341744"><ele>527.2</ele><time>2026-04-11T14:18:49.961Z</time></trkpt><trkpt lat="45.437030700410574" lon="13.982642579613612"><ele>527.8</ele><time>2026-04-11T14:18:50.961Z</time></trkpt><trkpt lat="45.43704049410609" lon="13.982751143236506"><ele>528.4</ele><time>2026-04-11T14:18:51.961Z</time></trkpt><trkpt lat="45.437087322315456" lon="13.982867229809463"><ele>529.0</ele><time>2026-04-11T14:18:52.961Z</time></trkpt><trkpt lat="45.43710005864714" lon="13.983026987298636"><ele>529.0</ele><time>2026-04-11T14:18:53.961Z</time></trkpt><trkpt lat="45.43710627032266" lon="13.983178569516419"><ele>529.0</ele><time>2026-04-11T14:18:54.961Z</time></trkpt><trkpt lat="45.43710437705381" lon="13.983331013654295"><ele>529.0</ele><time>2026-04-11T14:18:55.961Z</time></trkpt><trkpt lat="45.4370960626662" lon="13.983485139214574"><ele>529.0</ele><time>2026-04-11T14:18:56.961Z</time></trkpt><trkpt lat="45.43707048470025" lon="13.983656376464657"><ele>529.0</ele><time>2026-04-11T14:18:57.961Z</time></trkpt><trkpt lat="45.43703784754307" lon="13.983798424360707"><ele>528.8</ele><time>2026-04-11T14:18:58.961Z</time></trkpt><trkpt lat="45.43699424217789" lon="13.98392466662068"><ele>528.5999999999999</ele><time>2026-04-11T14:18:59.961Z</time></trkpt><trkpt lat="45.436958216593084" lon="13.984066670355741"><ele>528.4</ele><time>2026-04-11T14:19:00.961Z</time></trkpt><trkpt lat="45.436897199176855" lon="13.984206272261874"><ele>528.1999999999999</ele><time>2026-04-11T14:19:01.961Z</time></trkpt><trkpt lat="45.43680250227749" lon="13.984291061238368"><ele>528.0</ele><time>2026-04-11T14:19:02.961Z</time></trkpt><trkpt lat="45.43674176785609" lon="13.984423589113913"><ele>528.0</ele><time>2026-04-11T14:19:03.961Z</time></trkpt><trkpt lat="45.436695620438" lon="13.984593202424726"><ele>528.0</ele><time>2026-04-11T14:19:04.961Z</time></trkpt><trkpt lat="45.43663822368661" lon="13.98476505082372"><ele>528.0</ele><time>2026-04-11T14:19:05.961Z</time></trkpt><trkpt lat="45.43659590365253" lon="13.984949679290901"><ele>528.0</ele><time>2026-04-11T14:19:06.961Z</time></trkpt><trkpt lat="45.43655926678363" lon="13.985127583327891"><ele>527.0</ele><time>2026-04-11T14:19:07.961Z</time></trkpt><trkpt lat="45.43649680795838" lon="13.985314749713451"><ele>526.0</ele><time>2026-04-11T14:19:08.961Z</time></trkpt><trkpt lat="45.436452985000805" lon="13.98551224258383"><ele>525.0</ele><time>2026-04-11T14:19:09.961Z</time></trkpt><trkpt lat="45.436360036958924" lon="13.985728550150434"><ele>527.3333333333334</ele><time>2026-04-11T14:19:10.961Z</time></trkpt><trkpt lat="45.436280740057896" lon="13.985956203392336"><ele>529.6666666666667</ele><time>2026-04-11T14:19:11.961Z</time></trkpt><trkpt lat="45.436214600667476" lon="13.986158735796883"><ele>532.0</ele><time>2026-04-11T14:19:12.961Z</time></trkpt><trkpt lat="45.436182906654125" lon="13.986355098776459"><ele>532.0</ele><time>2026-04-11T14:19:13.961Z</time></trkpt><trkpt lat="45.43613379449517" lon="13.98652582704562"><ele>532.0</ele><time>2026-04-11T14:19:14.961Z</time></trkpt><trkpt lat="45.43609619744538" lon="13.98666996300864"><ele>532.0</ele><time>2026-04-11T14:19:15.961Z</time></trkpt><trkpt lat="45.43605973803684" lon="13.98677572535482"><ele>532.0</ele><time>2026-04-11T14:19:16.961Z</time></trkpt><trkpt lat="45.43601389317175" lon="13.986878843968857"><ele>532.0</ele><time>2026-04-11T14:19:17.961Z</time></trkpt><trkpt lat="45.43596118569647" lon="13.98696164305748"><ele>531.6666666666667</ele><time>2026-04-11T14:19:18.961Z</time></trkpt><trkpt lat="45.4359112211784" lon="13.987019486676544"><ele>531.3333333333334</ele><time>2026-04-11T14:19:19.961Z</time></trkpt><trkpt lat="45.43584932118168" lon="13.98704331867652"><ele>531.0</ele><time>2026-04-11T14:19:20.961Z</time></trkpt><trkpt lat="45.43575603652121" lon="13.987106009154012"><ele>530.6666666666666</ele><time>2026-04-11T14:19:22.961Z</time></trkpt><trkpt lat="45.435688797955414" lon="13.987145434415227"><ele>530.3333333333333</ele><time>2026-04-11T14:19:23.961Z</time></trkpt><trkpt lat="45.435628623340364" lon="13.987212436910673"><ele>530.0</ele><time>2026-04-11T14:19:24.961Z</time></trkpt><trkpt lat="45.43558687614996" lon="13.987308793668966"><ele>530.0</ele><time>2026-04-11T14:19:25.961Z</time></trkpt><trkpt lat="45.435546804416624" lon="13.987444429389397"><ele>530.0</ele><time>2026-04-11T14:19:26.961Z</time></trkpt><trkpt lat="45.43550674927167" lon="13.987586957304677"><ele>530.0</ele><time>2026-04-11T14:19:27.961Z</time></trkpt><trkpt lat="45.43545959349005" lon="13.987713697099533"><ele>530.0</ele><time>2026-04-11T14:19:28.961Z</time></trkpt><trkpt lat="45.43541024927698" lon="13.987807956379775"><ele>530.0</ele><time>2026-04-11T14:19:29.961Z</time></trkpt><trkpt lat="45.435359287719734" lon="13.987905548864557"><ele>530.0</ele><time>2026-04-11T14:19:30.961Z</time></trkpt><trkpt lat="45.43530646458904" lon="13.988027885045137"><ele>530.0</ele><time>2026-04-11T14:19:31.961Z</time></trkpt><trkpt lat="45.43525978941012" lon="13.988181415996369"><ele>530.0</ele><time>2026-04-11T14:19:32.961Z</time></trkpt><trkpt lat="45.43520638397825" lon="13.988359699085027"><ele>530.0</ele><time>2026-04-11T14:19:33.961Z</time></trkpt><trkpt lat="45.435174223098784" lon="13.988514405584565"><ele>530.0</ele><time>2026-04-11T14:19:34.961Z</time></trkpt><trkpt lat="45.43513869848512" lon="13.988674988241087"><ele>530.0</ele><time>2026-04-11T14:19:35.961Z</time></trkpt><trkpt lat="45.435096712865516" lon="13.988837392340868"><ele>530.0</ele><time>2026-04-11T14:19:36.961Z</time></trkpt><trkpt lat="45.435058717724175" lon="13.989011697907918"><ele>530.0</ele><time>2026-04-11T14:19:37.961Z</time></trkpt><trkpt lat="45.435007894928845" lon="13.989178867145244"><ele>529.25</ele><time>2026-04-11T14:19:38.961Z</time></trkpt><trkpt lat="45.43495196993445" lon="13.989328406596941"><ele>528.5</ele><time>2026-04-11T14:19:39.961Z</time></trkpt><trkpt lat="45.43488780279633" lon="13.989488565559236"><ele>527.75</ele><time>2026-04-11T14:19:40.961Z</time></trkpt><trkpt lat="45.43482245539556" lon="13.989638388528714"><ele>527.0</ele><time>2026-04-11T14:19:41.961Z</time></trkpt><trkpt lat="45.434758912058335" lon="13.989781912703979"><ele>527.0</ele><time>2026-04-11T14:19:42.961Z</time></trkpt><trkpt lat="45.43470248500426" lon="13.989931349450355"><ele>527.0</ele><time>2026-04-11T14:19:43.961Z</time></trkpt><trkpt lat="45.43466946288294" lon="13.990056841555651"><ele>527.0</ele><time>2026-04-11T14:19:44.961Z</time></trkpt><trkpt lat="45.434636898657" lon="13.990147382685898"><ele>527.0</ele><time>2026-04-11T14:19:45.961Z</time></trkpt><trkpt lat="45.43467093482186" lon="13.990256816028243"><ele>527.0</ele><time>2026-04-11T14:19:46.961Z</time></trkpt><trkpt lat="45.43471009087873" lon="13.990346415413219"><ele>527.0</ele><time>2026-04-11T14:19:47.961Z</time></trkpt><trkpt lat="45.434762895105486" lon="13.990443760656737"><ele>526.8000000000001</ele><time>2026-04-11T14:19:48.961Z</time></trkpt><trkpt lat="45.434824584780614" lon="13.990560948492925"><ele>526.6</ele><time>2026-04-11T14:19:49.961Z</time></trkpt><trkpt lat="45.43487602007924" lon="13.990716539155253"><ele>526.4000000000001</ele><time>2026-04-11T14:19:50.961Z</time></trkpt><trkpt lat="45.43491606813941" lon="13.990873346590284"><ele>526.2</ele><time>2026-04-11T14:19:51.961Z</time></trkpt><trkpt lat="45.43496102593162" lon="13.991013224957003"><ele>526.0</ele><time>2026-04-11T14:19:52.961Z</time></trkpt><trkpt lat="45.43500709129633" lon="13.991158189749362"><ele>525.5</ele><time>2026-04-11T14:19:53.961Z</time></trkpt><trkpt lat="45.435048238009934" lon="13.991295703133517"><ele>525.0</ele><time>2026-04-11T14:19:54.961Z</time></trkpt><trkpt lat="45.43509365783564" lon="13.991442043639701"><ele>524.5</ele><time>2026-04-11T14:19:55.961Z</time></trkpt><trkpt lat="45.43510919640917" lon="13.991567071352398"><ele>524.0</ele><time>2026-04-11T14:19:56.961Z</time></trkpt><trkpt lat="45.43513138421208" lon="13.991665303462822"><ele>523.5</ele><time>2026-04-11T14:19:57.961Z</time></trkpt><trkpt lat="45.435146650908706" lon="13.991752792994259"><ele>523.0</ele><time>2026-04-11T14:19:58.961Z</time></trkpt><trkpt lat="45.43515990513044" lon="13.991914157827559"><ele>522.1999999999999</ele><time>2026-04-11T14:20:00.961Z</time></trkpt><trkpt lat="45.43515107238723" lon="13.992008601264809"><ele>521.4</ele><time>2026-04-11T14:20:01.961Z</time></trkpt><trkpt lat="45.435101020384465" lon="13.992109606232086"><ele>520.5999999999999</ele><time>2026-04-11T14:20:02.961Z</time></trkpt><trkpt lat="45.43507087382629" lon="13.992254799544853"><ele>519.8</ele><time>2026-04-11T14:20:03.961Z</time></trkpt><trkpt lat="45.43508700392355" lon="13.992418797023708"><ele>519.0</ele><time>2026-04-11T14:20:04.961Z</time></trkpt><trkpt lat="45.435074262209675" lon="13.99259115470205"><ele>518.2</ele><time>2026-04-11T14:20:05.961Z</time></trkpt><trkpt lat="45.43506509786433" lon="13.992741382131477"><ele>517.4</ele><time>2026-04-11T14:20:06.961Z</time></trkpt><trkpt lat="45.43505619808314" lon="13.992882350848356"><ele>516.6</ele><time>2026-04-11T14:20:07.961Z</time></trkpt><trkpt lat="45.435049214625366" lon="13.993021711451139"><ele>515.8</ele><time>2026-04-11T14:20:08.961Z</time></trkpt><trkpt lat="45.43506902780929" lon="13.993153688081751"><ele>515.0</ele><time>2026-04-11T14:20:09.961Z</time></trkpt><trkpt lat="45.435091014230615" lon="13.993284850508058"><ele>514.2</ele><time>2026-04-11T14:20:10.961Z</time></trkpt><trkpt lat="45.43508099737424" lon="13.99341255060134"><ele>513.4</ele><time>2026-04-11T14:20:11.961Z</time></trkpt><trkpt lat="45.43508035956562" lon="13.993551171127935"><ele>512.6</ele><time>2026-04-11T14:20:12.961Z</time></trkpt><trkpt lat="45.435096126152125" lon="13.9937273270305"><ele>511.8</ele><time>2026-04-11T14:20:13.961Z</time></trkpt><trkpt lat="45.43509663919735" lon="13.993901135772616"><ele>511.0</ele><time>2026-04-11T14:20:14.96Z</time></trkpt><trkpt lat="45.43509089703873" lon="13.994071309237832"><ele>510.5</ele><time>2026-04-11T14:20:15.96Z</time></trkpt><trkpt lat="45.435114636963014" lon="13.994249328218377"><ele>510.0</ele><time>2026-04-11T14:20:16.96Z</time></trkpt><trkpt lat="45.435147248773454" lon="13.994409378642311"><ele>509.5</ele><time>2026-04-11T14:20:17.96Z</time></trkpt><trkpt lat="45.43516434430837" lon="13.994560787152787"><ele>509.0</ele><time>2026-04-11T14:20:18.96Z</time></trkpt><trkpt lat="45.43516009994226" lon="13.994705303167574"><ele>509.0</ele><time>2026-04-11T14:20:19.96Z</time></trkpt><trkpt lat="45.43512024827592" lon="13.994829331557943"><ele>509.0</ele><time>2026-04-11T14:20:20.96Z</time></trkpt><trkpt lat="45.435093990346765" lon="13.994931903560172"><ele>509.0</ele><time>2026-04-11T14:20:21.96Z</time></trkpt><trkpt lat="45.43506706292312" lon="13.995045788766218"><ele>509.0</ele><time>2026-04-11T14:20:22.96Z</time></trkpt><trkpt lat="45.43502765160292" lon="13.995182247562553"><ele>509.0</ele><time>2026-04-11T14:20:23.96Z</time></trkpt><trkpt lat="45.435003866129506" lon="13.99533019922521"><ele>509.2</ele><time>2026-04-11T14:20:24.96Z</time></trkpt><trkpt lat="45.434965531889816" lon="13.995497532732825"><ele>509.4</ele><time>2026-04-11T14:20:25.96Z</time></trkpt><trkpt lat="45.4349466522402" lon="13.99566606229176"><ele>509.6</ele><time>2026-04-11T14:20:26.96Z</time></trkpt><trkpt lat="45.43491548424528" lon="13.995804639210004"><ele>509.8</ele><time>2026-04-11T14:20:27.96Z</time></trkpt><trkpt lat="45.43488347468682" lon="13.995915946329767"><ele>510.0</ele><time>2026-04-11T14:20:28.96Z</time></trkpt><trkpt lat="45.434850988339456" lon="13.99599455239859"><ele>509.8333333333333</ele><time>2026-04-11T14:20:29.96Z</time></trkpt><trkpt lat="45.434750258271215" lon="13.996067254539152"><ele>509.66666666666663</ele><time>2026-04-11T14:20:31.96Z</time></trkpt><trkpt lat="45.43468586203151" lon="13.996085134810372"><ele>509.5</ele><time>2026-04-11T14:20:32.96Z</time></trkpt><trkpt lat="45.4346229213294" lon="13.996070792322035"><ele>509.3333333333333</ele><time>2026-04-11T14:20:33.96Z</time></trkpt><trkpt lat="45.434587155503785" lon="13.995989436778885"><ele>509.16666666666663</ele><time>2026-04-11T14:20:34.96Z</time></trkpt><trkpt lat="45.43451637361778" lon="13.995953230458827"><ele>509.0</ele><time>2026-04-11T14:20:35.96Z</time></trkpt><trkpt lat="45.43446168942068" lon="13.995854268643441"><ele>508.99999999999994</ele><time>2026-04-11T14:20:36.96Z</time></trkpt><trkpt lat="45.434424887353096" lon="13.995752628366349"><ele>509.0</ele><time>2026-04-11T14:20:37.96Z</time></trkpt><trkpt lat="45.43440153817513" lon="13.995657580081614"><ele>509.0</ele><time>2026-04-11T14:20:38.96Z</time></trkpt><trkpt lat="45.434364812633085" lon="13.995581959626316"><ele>509.0</ele><time>2026-04-11T14:20:39.96Z</time></trkpt><trkpt lat="45.43424537866668" lon="13.995515064232203"><ele>508.99999999999994</ele><time>2026-04-11T14:20:41.96Z</time></trkpt><trkpt lat="45.434176031478756" lon="13.995505972667285"><ele>509.0</ele><time>2026-04-11T14:20:42.96Z</time></trkpt><trkpt lat="45.43407001467035" lon="13.9954740394479"><ele>509.0</ele><time>2026-04-11T14:20:44.961Z</time></trkpt><trkpt lat="45.43400270102273" lon="13.99529470343702"><ele>509.0</ele><time>2026-04-11T14:20:46.961Z</time></trkpt><trkpt lat="45.433980737938285" lon="13.995163935929297"><ele>509.0</ele><time>2026-04-11T14:20:47.96Z</time></trkpt><trkpt lat="45.43396368798686" lon="13.994996280998157"><ele>509.0</ele><time>2026-04-11T14:20:48.96Z</time></trkpt><trkpt lat="45.433938338291455" lon="13.994809018588999"><ele>508.6</ele><time>2026-04-11T14:20:49.961Z</time></trkpt><trkpt lat="45.4339092414123" lon="13.994671664162231"><ele>508.2</ele><time>2026-04-11T14:20:50.961Z</time></trkpt><trkpt lat="45.43388143392612" lon="13.994535958429045"><ele>507.80000000000007</ele><time>2026-04-11T14:20:51.961Z</time></trkpt><trkpt lat="45.43385689740608" lon="13.994380843150966"><ele>507.40000000000003</ele><time>2026-04-11T14:20:52.96Z</time></trkpt><trkpt lat="45.43383656180742" lon="13.994210027101765"><ele>507.0</ele><time>2026-04-11T14:20:53.96Z</time></trkpt><trkpt lat="45.4338207134485" lon="13.99405251134387"><ele>504.25</ele><time>2026-04-11T14:20:54.96Z</time></trkpt><trkpt lat="45.43379770909388" lon="13.993898758598743"><ele>501.5</ele><time>2026-04-11T14:20:55.96Z</time></trkpt><trkpt lat="45.43375804182278" lon="13.99373702483127"><ele>498.75</ele><time>2026-04-11T14:20:56.96Z</time></trkpt><trkpt lat="45.43370537116214" lon="13.9935944631219"><ele>496.0</ele><time>2026-04-11T14:20:57.96Z</time></trkpt><trkpt lat="45.43364413384724" lon="13.993466236246412"><ele>496.00000000000006</ele><time>2026-04-11T14:20:58.96Z</time></trkpt><trkpt lat="45.43358637517849" lon="13.993341456047538"><ele>496.0</ele><time>2026-04-11T14:20:59.96Z</time></trkpt><trkpt lat="45.43355512687062" lon="13.993238671808255"><ele>496.0</ele><time>2026-04-11T14:21:00.96Z</time></trkpt><trkpt lat="45.43358109499246" lon="13.993129535294749"><ele>496.0</ele><time>2026-04-11T14:21:01.96Z</time></trkpt><trkpt lat="45.43357764372563" lon="13.993017922678687"><ele>496.00000000000006</ele><time>2026-04-11T14:21:02.96Z</time></trkpt><trkpt lat="45.433576513165214" lon="13.992879590270135"><ele>496.0</ele><time>2026-04-11T14:21:03.96Z</time></trkpt><trkpt lat="45.433552224729034" lon="13.992776353154031"><ele>496.50000000000006</ele><time>2026-04-11T14:21:04.96Z</time></trkpt><trkpt lat="45.433495054604414" lon="13.992678169698854"><ele>497.0</ele><time>2026-04-11T14:21:05.96Z</time></trkpt><trkpt lat="45.43342115838739" lon="13.99257284825271"><ele>497.5</ele><time>2026-04-11T14:21:06.96Z</time></trkpt><trkpt lat="45.43334687555806" lon="13.992488591424598"><ele>498.0</ele><time>2026-04-11T14:21:07.96Z</time></trkpt><trkpt lat="45.43326338361292" lon="13.992439106356926"><ele>498.50000000000006</ele><time>2026-04-11T14:21:08.96Z</time></trkpt><trkpt lat="45.433217473080724" lon="13.992376549184257"><ele>499.0</ele><time>2026-04-11T14:21:09.96Z</time></trkpt><trkpt lat="45.43316801169286" lon="13.992311517105302"><ele>498.2</ele><time>2026-04-11T14:21:10.96Z</time></trkpt><trkpt lat="45.4330789342097" lon="13.99219889980922"><ele>497.4</ele><time>2026-04-11T14:21:12.96Z</time></trkpt><trkpt lat="45.4329939573555" lon="13.992103632949341"><ele>496.6</ele><time>2026-04-11T14:21:14.96Z</time></trkpt><trkpt lat="45.432916688286575" lon="13.992019822167068"><ele>495.8</ele><time>2026-04-11T14:21:16.96Z</time></trkpt><trkpt lat="45.43285188709055" lon="13.991952622463097"><ele>495.0</ele><time>2026-04-11T14:21:18.96Z</time></trkpt><trkpt lat="45.432781256467905" lon="13.991870689001086"><ele>495.0</ele><time>2026-04-11T14:21:20.96Z</time></trkpt><trkpt lat="45.432713273613786" lon="13.991809564798945"><ele>495.0</ele><time>2026-04-11T14:21:22.96Z</time></trkpt><trkpt lat="45.43262939186495" lon="13.991723474507243"><ele>495.0</ele><time>2026-04-11T14:21:24.96Z</time></trkpt><trkpt lat="45.43255058634857" lon="13.99163675943144"><ele>495.0</ele><time>2026-04-11T14:21:26.96Z</time></trkpt><trkpt lat="45.43246127615413" lon="13.99151300807115"><ele>495.0</ele><time>2026-04-11T14:21:28.96Z</time></trkpt><trkpt lat="45.43241223299236" lon="13.991436937863392"><ele>496.0</ele><time>2026-04-11T14:21:29.96Z</time></trkpt><trkpt lat="45.43235422919174" lon="13.991344338940028"><ele>497.0</ele><time>2026-04-11T14:21:30.96Z</time></trkpt><trkpt lat="45.43229143889558" lon="13.991250328606906"><ele>498.0</ele><time>2026-04-11T14:21:31.96Z</time></trkpt><trkpt lat="45.43222053032225" lon="13.991168421910398"><ele>499.0</ele><time>2026-04-11T14:21:32.96Z</time></trkpt><trkpt lat="45.432129650750156" lon="13.991091133165652"><ele>500.0</ele><time>2026-04-11T14:21:33.96Z</time></trkpt><trkpt lat="45.432024763314615" lon="13.99101480651295"><ele>500.0</ele><time>2026-04-11T14:21:34.96Z</time></trkpt><trkpt lat="45.43191119178834" lon="13.990935620902425"><ele>500.0</ele><time>2026-04-11T14:21:35.96Z</time></trkpt><trkpt lat="45.431811177454875" lon="13.990844317388193"><ele>500.0</ele><time>2026-04-11T14:21:36.96Z</time></trkpt><trkpt lat="45.43172423292503" lon="13.990768578915395"><ele>500.0</ele><time>2026-04-11T14:21:37.959Z</time></trkpt><trkpt lat="45.431647730192815" lon="13.990714107627596"><ele>500.0</ele><time>2026-04-11T14:21:38.959Z</time></trkpt><trkpt lat="45.431540477666054" lon="13.990703078797381"><ele>500.16666666666663</ele><time>2026-04-11T14:21:40.959Z</time></trkpt><trkpt lat="45.431476476377604" lon="13.990677447888528"><ele>500.3333333333333</ele><time>2026-04-11T14:21:41.959Z</time></trkpt><trkpt lat="45.43141528809295" lon="13.990762725125307"><ele>500.5</ele><time>2026-04-11T14:21:42.959Z</time></trkpt><trkpt lat="45.431361930152086" lon="13.990835250636616"><ele>500.66666666666663</ele><time>2026-04-11T14:21:43.959Z</time></trkpt><trkpt lat="45.43129825294371" lon="13.990942666522919"><ele>500.8333333333333</ele><time>2026-04-11T14:21:44.959Z</time></trkpt><trkpt lat="45.431204913555064" lon="13.991051220835882"><ele>501.0</ele><time>2026-04-11T14:21:45.959Z</time></trkpt><trkpt lat="45.43113631659254" lon="13.991190633295409"><ele>502.5</ele><time>2026-04-11T14:21:46.959Z</time></trkpt><trkpt lat="45.431068422855745" lon="13.991293920932806"><ele>504.0</ele><time>2026-04-11T14:21:47.959Z</time></trkpt><trkpt lat="45.43101544534239" lon="13.991377335269641"><ele>505.5</ele><time>2026-04-11T14:21:48.959Z</time></trkpt><trkpt lat="45.43095858543868" lon="13.99144099434882"><ele>507.0</ele><time>2026-04-11T14:21:49.959Z</time></trkpt><trkpt lat="45.43089185313327" lon="13.991480588856763"><ele>508.5</ele><time>2026-04-11T14:21:50.959Z</time></trkpt><trkpt lat="45.430821116385495" lon="13.99151036691361"><ele>510.0</ele><time>2026-04-11T14:21:51.959Z</time></trkpt><trkpt lat="45.43074595322246" lon="13.991531688790179"><ele>510.0</ele><time>2026-04-11T14:21:52.959Z</time></trkpt><trkpt lat="45.4306648337546" lon="13.991541353640617"><ele>510.0</ele><time>2026-04-11T14:21:53.959Z</time></trkpt><trkpt lat="45.43051392262355" lon="13.991490172070066"><ele>510.0</ele><time>2026-04-11T14:21:55.959Z</time></trkpt><trkpt lat="45.43042606131045" lon="13.991410091497064"><ele>510.0</ele><time>2026-04-11T14:21:56.959Z</time></trkpt><trkpt lat="45.43033256942469" lon="13.991378658597004"><ele>510.0</ele><time>2026-04-11T14:21:57.959Z</time></trkpt><trkpt lat="45.43026147970245" lon="13.991397729708533"><ele>511.0</ele><time>2026-04-11T14:21:58.959Z</time></trkpt><trkpt lat="45.43019095381988" lon="13.991427973860466"><ele>512.0</ele><time>2026-04-11T14:21:59.959Z</time></trkpt><trkpt lat="45.43012989966716" lon="13.991511235189767"><ele>513.0</ele><time>2026-04-11T14:22:00.959Z</time></trkpt><trkpt lat="45.43005288994726" lon="13.991602040005446"><ele>514.0</ele><time>2026-04-11T14:22:01.959Z</time></trkpt><trkpt lat="45.429946165383875" lon="13.991708089067869"><ele>515.0</ele><time>2026-04-11T14:22:02.959Z</time></trkpt><trkpt lat="45.42983931812446" lon="13.991834267785848"><ele>515.0</ele><time>2026-04-11T14:22:03.959Z</time></trkpt><trkpt lat="45.42973169312865" lon="13.991946212166749"><ele>515.0</ele><time>2026-04-11T14:22:04.959Z</time></trkpt><trkpt lat="45.429597653600354" lon="13.9920277561068"><ele>515.0</ele><time>2026-04-11T14:22:05.959Z</time></trkpt><trkpt lat="45.429482709191106" lon="13.992136021014488"><ele>515.0</ele><time>2026-04-11T14:22:06.959Z</time></trkpt><trkpt lat="45.42938194511705" lon="13.99220264723518"><ele>516.4</ele><time>2026-04-11T14:22:07.959Z</time></trkpt><trkpt lat="45.429302774548276" lon="13.992266866116577"><ele>517.8</ele><time>2026-04-11T14:22:08.959Z</time></trkpt><trkpt lat="45.4292305343918" lon="13.992298911001516"><ele>519.2</ele><time>2026-04-11T14:22:09.959Z</time></trkpt><trkpt lat="45.42917141259085" lon="13.992345233857412"><ele>520.6</ele><time>2026-04-11T14:22:10.959Z</time></trkpt><trkpt lat="45.42911612286076" lon="13.992388554220152"><ele>522.0</ele><time>2026-04-11T14:22:11.959Z</time></trkpt><trkpt lat="45.42908825928553" lon="13.992673560590342"><ele>522.0</ele><time>2026-04-11T14:22:13.959Z</time></trkpt><trkpt lat="45.42898118098092" lon="13.992780205275908"><ele>522.0</ele><time>2026-04-11T14:22:15.959Z</time></trkpt><trkpt lat="45.428904376459805" lon="13.992821867218069"><ele>522.0</ele><time>2026-04-11T14:22:16.959Z</time></trkpt><trkpt lat="45.42878751058136" lon="13.992889711787294"><ele>522.0</ele><time>2026-04-11T14:22:17.959Z</time></trkpt><trkpt lat="45.42867849053644" lon="13.992974768989981"><ele>523.2</ele><time>2026-04-11T14:22:18.959Z</time></trkpt><trkpt lat="45.42858249393997" lon="13.99305263026675"><ele>524.4000000000001</ele><time>2026-04-11T14:22:19.959Z</time></trkpt><trkpt lat="45.4284926263313" lon="13.993093351896757"><ele>525.5999999999999</ele><time>2026-04-11T14:22:20.959Z</time></trkpt><trkpt lat="45.42840378449621" lon="13.993097410849504"><ele>526.8</ele><time>2026-04-11T14:22:21.959Z</time></trkpt><trkpt lat="45.42830688385971" lon="13.993085120430461"><ele>528.0</ele><time>2026-04-11T14:22:22.959Z</time></trkpt><trkpt lat="45.428187722508724" lon="13.993047716997701"><ele>528.0</ele><time>2026-04-11T14:22:23.959Z</time></trkpt><trkpt lat="45.42806113455232" lon="13.992993250227197"><ele>528.0</ele><time>2026-04-11T14:22:24.959Z</time></trkpt><trkpt lat="45.42795525502308" lon="13.992954590680858"><ele>528.0</ele><time>2026-04-11T14:22:25.959Z</time></trkpt><trkpt lat="45.4278639234622" lon="13.992943419396918"><ele>528.0</ele><time>2026-04-11T14:22:26.959Z</time></trkpt><trkpt lat="45.42778064805487" lon="13.992963133073479"><ele>528.0</ele><time>2026-04-11T14:22:27.959Z</time></trkpt><trkpt lat="45.42770518806076" lon="13.99301799716126"><ele>528.25</ele><time>2026-04-11T14:22:28.959Z</time></trkpt><trkpt lat="45.427628169283274" lon="13.993097274654064"><ele>528.5</ele><time>2026-04-11T14:22:29.959Z</time></trkpt><trkpt lat="45.42755184006621" lon="13.993230191849559"><ele>528.75</ele><time>2026-04-11T14:22:30.959Z</time></trkpt><trkpt lat="45.427476596663276" lon="13.993379216254809"><ele>529.0</ele><time>2026-04-11T14:22:31.959Z</time></trkpt><trkpt lat="45.427413774425176" lon="13.993519508062503"><ele>529.0</ele><time>2026-04-11T14:22:32.959Z</time></trkpt><trkpt lat="45.42734009452809" lon="13.993618779739"><ele>529.0</ele><time>2026-04-11T14:22:33.959Z</time></trkpt><trkpt lat="45.427256637296594" lon="13.99370157551585"><ele>529.0</ele><time>2026-04-11T14:22:34.959Z</time></trkpt><trkpt lat="45.427169711892525" lon="13.99378392954064"><ele>529.0</ele><time>2026-04-11T14:22:35.959Z</time></trkpt><trkpt lat="45.42705818688566" lon="13.993869024556595"><ele>529.0</ele><time>2026-04-11T14:22:36.959Z</time></trkpt><trkpt lat="45.42694689706462" lon="13.993921501031899"><ele>529.8</ele><time>2026-04-11T14:22:37.959Z</time></trkpt><trkpt lat="45.42683992300488" lon="13.993968730523395"><ele>530.5999999999999</ele><time>2026-04-11T14:22:38.959Z</time></trkpt><trkpt lat="45.426745562122534" lon="13.994021177112861"><ele>531.4</ele><time>2026-04-11T14:22:39.959Z</time></trkpt><trkpt lat="45.42667879810978" lon="13.994083603126322"><ele>532.1999999999999</ele><time>2026-04-11T14:22:40.959Z</time></trkpt><trkpt lat="45.42662640159084" lon="13.994192056283667"><ele>533.0</ele><time>2026-04-11T14:22:41.959Z</time></trkpt><trkpt lat="45.4265884844111" lon="13.994323884083022"><ele>533.5</ele><time>2026-04-11T14:22:42.959Z</time></trkpt><trkpt lat="45.42656452522335" lon="13.994469603774451"><ele>534.0</ele><time>2026-04-11T14:22:43.959Z</time></trkpt><trkpt lat="45.426554040247225" lon="13.994633076112292"><ele>534.5</ele><time>2026-04-11T14:22:44.959Z</time></trkpt><trkpt lat="45.426540434884494" lon="13.994786213937203"><ele>535.0</ele><time>2026-04-11T14:22:45.959Z</time></trkpt><trkpt lat="45.426528248694915" lon="13.994968377446153"><ele>534.75</ele><time>2026-04-11T14:22:46.96Z</time></trkpt><trkpt lat="45.42650031535137" lon="13.995172247997509"><ele>534.5</ele><time>2026-04-11T14:22:47.96Z</time></trkpt><trkpt lat="45.426466049520265" lon="13.995372908831099"><ele>534.25</ele><time>2026-04-11T14:22:48.96Z</time></trkpt><trkpt lat="45.426426640810426" lon="13.995569730561474"><ele>534.0</ele><time>2026-04-11T14:22:49.96Z</time></trkpt><trkpt lat="45.42638249705389" lon="13.995745393815923"><ele>534.0</ele><time>2026-04-11T14:22:50.96Z</time></trkpt><trkpt lat="45.426324263801845" lon="13.995896443829045"><ele>534.0</ele><time>2026-04-11T14:22:51.96Z</time></trkpt><trkpt lat="45.42623888968786" lon="13.995996525568685"><ele>534.0</ele><time>2026-04-11T14:22:52.96Z</time></trkpt><trkpt lat="45.42616080927706" lon="13.99607875080369"><ele>534.0</ele><time>2026-04-11T14:22:53.959Z</time></trkpt><trkpt lat="45.42607566303986" lon="13.996104652403783"><ele>534.0</ele><time>2026-04-11T14:22:54.959Z</time></trkpt><trkpt lat="45.4259735440601" lon="13.99617245627001"><ele>534.5</ele><time>2026-04-11T14:22:55.96Z</time></trkpt><trkpt lat="45.42585218230109" lon="13.99629050120795"><ele>535.0</ele><time>2026-04-11T14:22:56.96Z</time></trkpt><trkpt lat="45.42573685325879" lon="13.99640488353744"><ele>535.5</ele><time>2026-04-11T14:22:57.96Z</time></trkpt><trkpt lat="45.425610592164105" lon="13.996547545666488"><ele>536.0</ele><time>2026-04-11T14:22:58.96Z</time></trkpt><trkpt lat="45.42548727317247" lon="13.996726776531679"><ele>536.3333333333333</ele><time>2026-04-11T14:22:59.96Z</time></trkpt><trkpt lat="45.42538155738294" lon="13.996903585587077"><ele>536.6666666666666</ele><time>2026-04-11T14:23:00.96Z</time></trkpt><trkpt lat="45.42528503135749" lon="13.997085973310085"><ele>537.0</ele><time>2026-04-11T14:23:01.96Z</time></trkpt><trkpt lat="45.42519035770539" lon="13.99722822674922"><ele>537.0</ele><time>2026-04-11T14:23:02.96Z</time></trkpt><trkpt lat="45.42509938918545" lon="13.997353488787414"><ele>537.0</ele><time>2026-04-11T14:23:03.96Z</time></trkpt><trkpt lat="45.42499950644302" lon="13.997463107881885"><ele>537.0</ele><time>2026-04-11T14:23:04.96Z</time></trkpt><trkpt lat="45.42490680108407" lon="13.997560121771741"><ele>537.0</ele><time>2026-04-11T14:23:05.96Z</time></trkpt><trkpt lat="45.42481741186549" lon="13.997672463898613"><ele>537.8000000000001</ele><time>2026-04-11T14:23:06.96Z</time></trkpt><trkpt lat="45.42474629525541" lon="13.997777822333047"><ele>538.6</ele><time>2026-04-11T14:23:07.96Z</time></trkpt><trkpt lat="45.424697313775404" lon="13.997878056886693"><ele>539.4000000000001</ele><time>2026-04-11T14:23:08.96Z</time></trkpt><trkpt lat="45.424670599770494" lon="13.997969084685726"><ele>540.2</ele><time>2026-04-11T14:23:09.96Z</time></trkpt><trkpt lat="45.42464779714447" lon="13.99814271859572"><ele>541.0</ele><time>2026-04-11T14:23:11.96Z</time></trkpt><trkpt lat="45.42466400214355" lon="13.998244130122844"><ele>540.4</ele><time>2026-04-11T14:23:12.96Z</time></trkpt><trkpt lat="45.42467397375042" lon="13.998370295678587"><ele>539.8</ele><time>2026-04-11T14:23:13.96Z</time></trkpt><trkpt lat="45.424683928234245" lon="13.998500718055361"><ele>539.1999999999999</ele><time>2026-04-11T14:23:14.96Z</time></trkpt><trkpt lat="45.42469073981289" lon="13.998629705514135"><ele>538.6</ele><time>2026-04-11T14:23:15.96Z</time></trkpt><trkpt lat="45.42469300155439" lon="13.998779945826323"><ele>538.0</ele><time>2026-04-11T14:23:16.96Z</time></trkpt><trkpt lat="45.42469073053018" lon="13.998939931999658"><ele>538.0</ele><time>2026-04-11T14:23:17.96Z</time></trkpt><trkpt lat="45.4246833172229" lon="13.999117367070106"><ele>538.0</ele><time>2026-04-11T14:23:18.96Z</time></trkpt><trkpt lat="45.42467855837625" lon="13.999300239409022"><ele>538.0</ele><time>2026-04-11T14:23:19.96Z</time></trkpt><trkpt lat="45.42467235960909" lon="13.999489579771062"><ele>538.0</ele><time>2026-04-11T14:23:20.96Z</time></trkpt><trkpt lat="45.42466380090227" lon="13.999684450571907"><ele>537.0</ele><time>2026-04-11T14:23:21.96Z</time></trkpt><trkpt lat="45.42466358703437" lon="13.999861766227527"><ele>536.0</ele><time>2026-04-11T14:23:22.96Z</time></trkpt><trkpt lat="45.42468164570174" lon="14.000043413165933"><ele>535.0</ele><time>2026-04-11T14:23:23.96Z</time></trkpt><trkpt lat="45.424704631563124" lon="14.000200613548495"><ele>534.0</ele><time>2026-04-11T14:23:24.96Z</time></trkpt><trkpt lat="45.42474216954807" lon="14.000334091913798"><ele>534.0</ele><time>2026-04-11T14:23:25.96Z</time></trkpt><trkpt lat="45.4247955298817" lon="14.0004467099907"><ele>534.0</ele><time>2026-04-11T14:23:26.96Z</time></trkpt><trkpt lat="45.42488548822949" lon="14.00051798118209"><ele>534.0</ele><time>2026-04-11T14:23:27.96Z</time></trkpt><trkpt lat="45.42496828651337" lon="14.000642864584465"><ele>534.0</ele><time>2026-04-11T14:23:28.96Z</time></trkpt><trkpt lat="45.42506916783716" lon="14.00075543823237"><ele>534.0</ele><time>2026-04-11T14:23:29.96Z</time></trkpt><trkpt lat="45.425148197588804" lon="14.000887772113684"><ele>533.5</ele><time>2026-04-11T14:23:30.96Z</time></trkpt><trkpt lat="45.42521993248661" lon="14.001018769375673"><ele>533.0</ele><time>2026-04-11T14:23:31.96Z</time></trkpt><trkpt lat="45.425294443372664" lon="14.001132596967565"><ele>532.5</ele><time>2026-04-11T14:23:32.96Z</time></trkpt><trkpt lat="45.4253944858876" lon="14.001218554929698"><ele>532.0</ele><time>2026-04-11T14:23:33.96Z</time></trkpt><trkpt lat="45.42551656904144" lon="14.001275671554959"><ele>531.75</ele><time>2026-04-11T14:23:34.96Z</time></trkpt><trkpt lat="45.4256340730164" lon="14.001326682661622"><ele>531.5</ele><time>2026-04-11T14:23:35.96Z</time></trkpt><trkpt lat="45.42573573485817" lon="14.001401660842918"><ele>531.25</ele><time>2026-04-11T14:23:36.96Z</time></trkpt><trkpt lat="45.425820423018344" lon="14.001519362839378"><ele>531.0</ele><time>2026-04-11T14:23:37.96Z</time></trkpt><trkpt lat="45.42589487224032" lon="14.001667728134233"><ele>531.0</ele><time>2026-04-11T14:23:38.96Z</time></trkpt><trkpt lat="45.425949677331865" lon="14.001836903275784"><ele>531.0</ele><time>2026-04-11T14:23:39.96Z</time></trkpt><trkpt lat="45.42600873932823" lon="14.002050234071833"><ele>531.0</ele><time>2026-04-11T14:23:40.96Z</time></trkpt><trkpt lat="45.42606738535823" lon="14.00226484912237"><ele>531.0</ele><time>2026-04-11T14:23:41.96Z</time></trkpt><trkpt lat="45.42612610181952" lon="14.002447127793406"><ele>531.0</ele><time>2026-04-11T14:23:42.96Z</time></trkpt><trkpt lat="45.42619343454865" lon="14.002610747433971"><ele>531.0</ele><time>2026-04-11T14:23:43.96Z</time></trkpt><trkpt lat="45.4262384635404" lon="14.002776907344376"><ele>531.0</ele><time>2026-04-11T14:23:44.96Z</time></trkpt><trkpt lat="45.42625776372025" lon="14.00294902095448"><ele>531.25</ele><time>2026-04-11T14:23:45.96Z</time></trkpt><trkpt lat="45.42626864374026" lon="14.003123111104498"><ele>531.5</ele><time>2026-04-11T14:23:46.96Z</time></trkpt><trkpt lat="45.42625984339599" lon="14.003312545630566"><ele>531.75</ele><time>2026-04-11T14:23:47.96Z</time></trkpt><trkpt lat="45.42620655209917" lon="14.003509416151333"><ele>532.0</ele><time>2026-04-11T14:23:48.96Z</time></trkpt><trkpt lat="45.426146917846616" lon="14.003732924308036"><ele>532.0</ele><time>2026-04-11T14:23:49.96Z</time></trkpt><trkpt lat="45.42607273711349" lon="14.003971810885693"><ele>532.0</ele><time>2026-04-11T14:23:50.96Z</time></trkpt><trkpt lat="45.42600943161902" lon="14.004178627918696"><ele>532.0</ele><time>2026-04-11T14:23:51.96Z</time></trkpt><trkpt lat="45.42595944623248" lon="14.004348827751572"><ele>532.6</ele><time>2026-04-11T14:23:52.96Z</time></trkpt><trkpt lat="45.425945208026825" lon="14.004512155909485"><ele>533.2</ele><time>2026-04-11T14:23:53.96Z</time></trkpt><trkpt lat="45.425918887947965" lon="14.00464331848367"><ele>533.8</ele><time>2026-04-11T14:23:54.96Z</time></trkpt><trkpt lat="45.425912419810174" lon="14.004787789124633"><ele>534.4</ele><time>2026-04-11T14:23:55.96Z</time></trkpt><trkpt lat="45.42590076187561" lon="14.004965374080628"><ele>535.0</ele><time>2026-04-11T14:23:56.96Z</time></trkpt><trkpt lat="45.42589516447378" lon="14.005152965537734"><ele>536.0</ele><time>2026-04-11T14:23:57.96Z</time></trkpt><trkpt lat="45.425904163341016" lon="14.005347020175469"><ele>537.0</ele><time>2026-04-11T14:23:58.96Z</time></trkpt><trkpt lat="45.425927556308" lon="14.005561982837332"><ele>538.0</ele><time>2026-04-11T14:23:59.96Z</time></trkpt><trkpt lat="45.42594924552916" lon="14.005769813561042"><ele>539.0</ele><time>2026-04-11T14:24:00.96Z</time></trkpt><trkpt lat="45.42597319325208" lon="14.006001689582273"><ele>539.25</ele><time>2026-04-11T14:24:01.96Z</time></trkpt><trkpt lat="45.42599343488851" lon="14.006229736822844"><ele>539.5</ele><time>2026-04-11T14:24:02.96Z</time></trkpt><trkpt lat="45.4260022643701" lon="14.006439956759355"><ele>539.75</ele><time>2026-04-11T14:24:03.96Z</time></trkpt><trkpt lat="45.42599540245007" lon="14.006625734794572"><ele>540.0</ele><time>2026-04-11T14:24:04.96Z</time></trkpt><trkpt lat="45.425970919868824" lon="14.006802146362052"><ele>540.0</ele><time>2026-04-11T14:24:05.96Z</time></trkpt><trkpt lat="45.42592111615296" lon="14.006962828409453"><ele>540.0</ele><time>2026-04-11T14:24:06.96Z</time></trkpt><trkpt lat="45.425885214278146" lon="14.007160372001149"><ele>540.0</ele><time>2026-04-11T14:24:07.96Z</time></trkpt><trkpt lat="45.42581351837245" lon="14.007328207423292"><ele>540.0</ele><time>2026-04-11T14:24:08.96Z</time></trkpt><trkpt lat="45.425737097920866" lon="14.007485971471905"><ele>540.0</ele><time>2026-04-11T14:24:09.96Z</time></trkpt><trkpt lat="45.42564233459548" lon="14.007598692294804"><ele>540.0</ele><time>2026-04-11T14:24:10.96Z</time></trkpt><trkpt lat="45.425535409370106" lon="14.007706102252536"><ele>540.0</ele><time>2026-04-11T14:24:11.96Z</time></trkpt><trkpt lat="45.42542284134642" lon="14.00781863462827"><ele>540.0</ele><time>2026-04-11T14:24:12.96Z</time></trkpt><trkpt lat="45.425316406406175" lon="14.007954122574233"><ele>540.0</ele><time>2026-04-11T14:24:13.96Z</time></trkpt><trkpt lat="45.4251946402574" lon="14.00808005162937"><ele>540.0</ele><time>2026-04-11T14:24:14.96Z</time></trkpt><trkpt lat="45.42506684507924" lon="14.008209522755434"><ele>540.0</ele><time>2026-04-11T14:24:15.96Z</time></trkpt><trkpt lat="45.42492197225863" lon="14.008302778262546"><ele>540.3333333333334</ele><time>2026-04-11T14:24:16.96Z</time></trkpt><trkpt lat="45.42477756607167" lon="14.008411466409694"><ele>540.6666666666667</ele><time>2026-04-11T14:24:17.96Z</time></trkpt><trkpt lat="45.424652946603906" lon="14.008537786703998"><ele>541.0</ele><time>2026-04-11T14:24:18.96Z</time></trkpt><trkpt lat="45.424529164022154" lon="14.008646970685215"><ele>540.0</ele><time>2026-04-11T14:24:19.96Z</time></trkpt><trkpt lat="45.424403779996666" lon="14.00877525351788"><ele>539.0</ele><time>2026-04-11T14:24:20.96Z</time></trkpt><trkpt lat="45.424268912781216" lon="14.008874609903739"><ele>538.0</ele><time>2026-04-11T14:24:21.96Z</time></trkpt><trkpt lat="45.424139409354936" lon="14.009004433196733"><ele>538.0</ele><time>2026-04-11T14:24:22.96Z</time></trkpt><trkpt lat="45.42401697717439" lon="14.009153837510452"><ele>538.0</ele><time>2026-04-11T14:24:23.96Z</time></trkpt><trkpt lat="45.423886393193044" lon="14.009284756115909"><ele>538.0</ele><time>2026-04-11T14:24:24.96Z</time></trkpt><trkpt lat="45.42375146134361" lon="14.009408230701078"><ele>538.0</ele><time>2026-04-11T14:24:25.96Z</time></trkpt><trkpt lat="45.42361025843893" lon="14.00950428204803"><ele>538.0</ele><time>2026-04-11T14:24:26.96Z</time></trkpt><trkpt lat="45.423494571324994" lon="14.009669708325664"><ele>538.0</ele><time>2026-04-11T14:24:27.96Z</time></trkpt><trkpt lat="45.42337695159496" lon="14.00982914402489"><ele>538.0</ele><time>2026-04-11T14:24:28.96Z</time></trkpt><trkpt lat="45.423280362793435" lon="14.00998449384476"><ele>538.0</ele><time>2026-04-11T14:24:29.96Z</time></trkpt><trkpt lat="45.423187612187334" lon="14.010131986916237"><ele>538.0</ele><time>2026-04-11T14:24:30.96Z</time></trkpt><trkpt lat="45.42310578140446" lon="14.010282040343146"><ele>538.0</ele><time>2026-04-11T14:24:31.96Z</time></trkpt><trkpt lat="45.42303971476014" lon="14.010439802503267"><ele>535.6666666666667</ele><time>2026-04-11T14:24:32.96Z</time></trkpt><trkpt lat="45.422976039205686" lon="14.010637193222951"><ele>533.3333333333334</ele><time>2026-04-11T14:24:33.96Z</time></trkpt><trkpt lat="45.422929021390566" lon="14.010844888298086"><ele>531.0</ele><time>2026-04-11T14:24:34.959Z</time></trkpt><trkpt lat="45.42288825406712" lon="14.011051286896366"><ele>531.0</ele><time>2026-04-11T14:24:35.959Z</time></trkpt><trkpt lat="45.42284028361555" lon="14.01126681182629"><ele>531.0</ele><time>2026-04-11T14:24:36.959Z</time></trkpt><trkpt lat="45.42277945817221" lon="14.011488721755786"><ele>531.0</ele><time>2026-04-11T14:24:37.959Z</time></trkpt><trkpt lat="45.422690058293945" lon="14.011680155735847"><ele>532.75</ele><time>2026-04-11T14:24:38.959Z</time></trkpt><trkpt lat="45.422603901134266" lon="14.011845889455826"><ele>534.5</ele><time>2026-04-11T14:24:39.959Z</time></trkpt><trkpt lat="45.42252188209622" lon="14.012001395530703"><ele>536.25</ele><time>2026-04-11T14:24:40.959Z</time></trkpt><trkpt lat="45.42246382094404" lon="14.012134073551348"><ele>538.0</ele><time>2026-04-11T14:24:41.959Z</time></trkpt><trkpt lat="45.42243827914543" lon="14.012267573851291"><ele>538.0</ele><time>2026-04-11T14:24:42.959Z</time></trkpt><trkpt lat="45.42242916513811" lon="14.01240305007909"><ele>538.0</ele><time>2026-04-11T14:24:43.959Z</time></trkpt><trkpt lat="45.42244652476123" lon="14.012525380462597"><ele>538.0</ele><time>2026-04-11T14:24:44.959Z</time></trkpt><trkpt lat="45.422418798531126" lon="14.012645935189289"><ele>538.0</ele><time>2026-04-11T14:24:45.959Z</time></trkpt><trkpt lat="45.42235614207612" lon="14.012756988628151"><ele>538.0</ele><time>2026-04-11T14:24:46.959Z</time></trkpt><trkpt lat="45.422317904764824" lon="14.012873234362239"><ele>539.6</ele><time>2026-04-11T14:24:47.959Z</time></trkpt><trkpt lat="45.42229752458814" lon="14.013014077680776"><ele>541.1999999999999</ele><time>2026-04-11T14:24:48.959Z</time></trkpt><trkpt lat="45.42231086825617" lon="14.013147097580656"><ele>542.8</ele><time>2026-04-11T14:24:49.959Z</time></trkpt><trkpt lat="45.42231811501551" lon="14.013295050448233"><ele>544.4</ele><time>2026-04-11T14:24:50.959Z</time></trkpt><trkpt lat="45.4223301329824" lon="14.013439604302738"><ele>546.0</ele><time>2026-04-11T14:24:51.959Z</time></trkpt><trkpt lat="45.42233712580538" lon="14.013586237978059"><ele>547.0</ele><time>2026-04-11T14:24:52.959Z</time></trkpt><trkpt lat="45.42232349469173" lon="14.013729595681303"><ele>548.0</ele><time>2026-04-11T14:24:53.96Z</time></trkpt><trkpt lat="45.42231237039303" lon="14.013894636961147"><ele>549.0</ele><time>2026-04-11T14:24:54.96Z</time></trkpt><trkpt lat="45.42230969594266" lon="14.014075803483331"><ele>550.0</ele><time>2026-04-11T14:24:55.959Z</time></trkpt><trkpt lat="45.422300239366415" lon="14.014262758175738"><ele>550.5</ele><time>2026-04-11T14:24:56.959Z</time></trkpt><trkpt lat="45.42229614055935" lon="14.014460344554182"><ele>551.0</ele><time>2026-04-11T14:24:57.959Z</time></trkpt><trkpt lat="45.42230144049961" lon="14.014642080942929"><ele>551.5</ele><time>2026-04-11T14:24:58.959Z</time></trkpt><trkpt lat="45.42230984483972" lon="14.014800758249162"><ele>552.0</ele><time>2026-04-11T14:24:59.96Z</time></trkpt><trkpt lat="45.422311149459915" lon="14.014931877501263"><ele>552.4</ele><time>2026-04-11T14:25:00.96Z</time></trkpt><trkpt lat="45.42231499038073" lon="14.015043092329426"><ele>552.8000000000001</ele><time>2026-04-11T14:25:01.959Z</time></trkpt><trkpt lat="45.4223029659535" lon="14.015133971101251"><ele>553.2</ele><time>2026-04-11T14:25:02.959Z</time></trkpt><trkpt lat="45.42220395958096" lon="14.015264415645856"><ele>553.6</ele><time>2026-04-11T14:25:04.959Z</time></trkpt><trkpt lat="45.42213263866943" lon="14.015315213063902"><ele>554.0</ele><time>2026-04-11T14:25:05.959Z</time></trkpt><trkpt lat="45.4220468317517" lon="14.01537808048707"><ele>554.5</ele><time>2026-04-11T14:25:06.959Z</time></trkpt><trkpt lat="45.42195038565125" lon="14.015470275307768"><ele>555.0</ele><time>2026-04-11T14:25:07.959Z</time></trkpt><trkpt lat="45.42182907142163" lon="14.015551253526953"><ele>555.5</ele><time>2026-04-11T14:25:08.959Z</time></trkpt><trkpt lat="45.421709430751356" lon="14.015631575218464"><ele>556.0</ele><time>2026-04-11T14:25:09.959Z</time></trkpt><trkpt lat="45.42160418777965" lon="14.015742346964613"><ele>555.6666666666667</ele><time>2026-04-11T14:25:10.959Z</time></trkpt><trkpt lat="45.42151231420261" lon="14.01583158840284"><ele>555.3333333333334</ele><time>2026-04-11T14:25:11.959Z</time></trkpt><trkpt lat="45.42142084840508" lon="14.015887513968044"><ele>555.0</ele><time>2026-04-11T14:25:12.959Z</time></trkpt><trkpt lat="45.42135670742665" lon="14.015943864954325"><ele>554.6666666666666</ele><time>2026-04-11T14:25:13.959Z</time></trkpt><trkpt lat="45.421315940924" lon="14.016028768369013"><ele>554.3333333333333</ele><time>2026-04-11T14:25:14.959Z</time></trkpt><trkpt lat="45.42130575942789" lon="14.016144253648942"><ele>554.0</ele><time>2026-04-11T14:25:15.959Z</time></trkpt><trkpt lat="45.42129881043261" lon="14.016245870093355"><ele>554.0</ele><time>2026-04-11T14:25:16.959Z</time></trkpt><trkpt lat="45.421307087827856" lon="14.016397532703754"><ele>554.0</ele><time>2026-04-11T14:25:17.959Z</time></trkpt><trkpt lat="45.4213482369467" lon="14.016534291460616"><ele>554.0</ele><time>2026-04-11T14:25:18.959Z</time></trkpt><trkpt lat="45.421415655339786" lon="14.016649619042031"><ele>554.0</ele><time>2026-04-11T14:25:19.959Z</time></trkpt><trkpt lat="45.421506163536236" lon="14.016725957011625"><ele>554.0</ele><time>2026-04-11T14:25:20.959Z</time></trkpt><trkpt lat="45.42162571084768" lon="14.016802296504348"><ele>555.0</ele><time>2026-04-11T14:25:21.959Z</time></trkpt><trkpt lat="45.42176747508278" lon="14.016832980064047"><ele>556.0</ele><time>2026-04-11T14:25:22.959Z</time></trkpt><trkpt lat="45.42187180790151" lon="14.01690987038893"><ele>557.0</ele><time>2026-04-11T14:25:23.959Z</time></trkpt><trkpt lat="45.42195715131529" lon="14.017010987002141"><ele>558.0</ele><time>2026-04-11T14:25:24.959Z</time></trkpt><trkpt lat="45.42203525874179" lon="14.017133285948939"><ele>558.0</ele><time>2026-04-11T14:25:25.959Z</time></trkpt><trkpt lat="45.42210120188861" lon="14.017272542298498"><ele>558.0</ele><time>2026-04-11T14:25:26.959Z</time></trkpt><trkpt lat="45.42216576147092" lon="14.017431749188352"><ele>558.0</ele><time>2026-04-11T14:25:27.959Z</time></trkpt><trkpt lat="45.4222263829014" lon="14.017596025874738"><ele>558.0</ele><time>2026-04-11T14:25:28.959Z</time></trkpt><trkpt lat="45.42227604261895" lon="14.017731818613976"><ele>559.4</ele><time>2026-04-11T14:25:29.959Z</time></trkpt><trkpt lat="45.422312375606445" lon="14.017859169269709"><ele>560.8</ele><time>2026-04-11T14:25:30.959Z</time></trkpt><trkpt lat="45.42235573037644" lon="14.01796553785501"><ele>562.2</ele><time>2026-04-11T14:25:31.959Z</time></trkpt><trkpt lat="45.42241749691107" lon="14.018050814992947"><ele>563.6</ele><time>2026-04-11T14:25:32.959Z</time></trkpt><trkpt lat="45.42250188711223" lon="14.018157177624017"><ele>565.0</ele><time>2026-04-11T14:25:33.959Z</time></trkpt><trkpt lat="45.42258371874689" lon="14.018278836427953"><ele>565.6666666666667</ele><time>2026-04-11T14:25:34.959Z</time></trkpt><trkpt lat="45.4226499801673" lon="14.018387739632391"><ele>566.3333333333334</ele><time>2026-04-11T14:25:35.959Z</time></trkpt><trkpt lat="45.422700151342106" lon="14.018484589193264"><ele>567.0</ele><time>2026-04-11T14:25:36.959Z</time></trkpt><trkpt lat="45.42273705971528" lon="14.018586536614695"><ele>567.6666666666666</ele><time>2026-04-11T14:25:37.959Z</time></trkpt><trkpt lat="45.422753377867764" lon="14.01870216488668"><ele>568.3333333333333</ele><time>2026-04-11T14:25:38.959Z</time></trkpt><trkpt lat="45.42275349628669" lon="14.018843999642016"><ele>569.0</ele><time>2026-04-11T14:25:39.959Z</time></trkpt><trkpt lat="45.422749805561644" lon="14.018993049951714"><ele>569.0</ele><time>2026-04-11T14:25:40.959Z</time></trkpt><trkpt lat="45.42276469212401" lon="14.019100322190457"><ele>569.0</ele><time>2026-04-11T14:25:41.959Z</time></trkpt><trkpt lat="45.4228000675655" lon="14.019197409577522"><ele>569.0</ele><time>2026-04-11T14:25:42.959Z</time></trkpt><trkpt lat="45.42284889687273" lon="14.01931498690067"><ele>569.0</ele><time>2026-04-11T14:25:43.959Z</time></trkpt><trkpt lat="45.422943543646625" lon="14.019388126205168"><ele>569.0</ele><time>2026-04-11T14:25:44.959Z</time></trkpt><trkpt lat="45.42305018529553" lon="14.019427237550385"><ele>570.0</ele><time>2026-04-11T14:25:45.959Z</time></trkpt><trkpt lat="45.42316070771851" lon="14.01939969253024"><ele>571.0</ele><time>2026-04-11T14:25:46.959Z</time></trkpt><trkpt lat="45.42327213090857" lon="14.019378704657951"><ele>572.0</ele><time>2026-04-11T14:25:47.959Z</time></trkpt><trkpt lat="45.42336941615728" lon="14.019406906292394"><ele>573.0</ele><time>2026-04-11T14:25:48.959Z</time></trkpt><trkpt lat="45.42344295541457" lon="14.01942651235789"><ele>574.0</ele><time>2026-04-11T14:25:49.959Z</time></trkpt><trkpt lat="45.42351286217607" lon="14.019440745750245"><ele>574.0</ele><time>2026-04-11T14:25:50.959Z</time></trkpt><trkpt lat="45.42357639055036" lon="14.019564756906776"><ele>574.0</ele><time>2026-04-11T14:25:52.958Z</time></trkpt><trkpt lat="45.42355445875917" lon="14.01974143521318"><ele>574.0</ele><time>2026-04-11T14:25:54.958Z</time></trkpt><trkpt lat="45.42350346045604" lon="14.019816160688793"><ele>574.0</ele><time>2026-04-11T14:25:55.958Z</time></trkpt><trkpt lat="45.423432982976806" lon="14.019901286123126"><ele>574.0</ele><time>2026-04-11T14:25:56.958Z</time></trkpt><trkpt lat="45.42335639892679" lon="14.019991654879739"><ele>574.3333333333334</ele><time>2026-04-11T14:25:57.958Z</time></trkpt><trkpt lat="45.423300318323335" lon="14.020073278447036"><ele>574.6666666666667</ele><time>2026-04-11T14:25:58.958Z</time></trkpt><trkpt lat="45.423265156384666" lon="14.020165831620657"><ele>575.0</ele><time>2026-04-11T14:25:59.958Z</time></trkpt><trkpt lat="45.42324954231845" lon="14.020303821485369"><ele>575.3333333333334</ele><time>2026-04-11T14:26:00.958Z</time></trkpt><trkpt lat="45.423237467780844" lon="14.02044470804113"><ele>575.6666666666666</ele><time>2026-04-11T14:26:01.958Z</time></trkpt><trkpt lat="45.42321569713189" lon="14.020576392768962"><ele>576.0</ele><time>2026-04-11T14:26:02.958Z</time></trkpt><trkpt lat="45.423183246227296" lon="14.020684919615977"><ele>576.0</ele><time>2026-04-11T14:26:03.958Z</time></trkpt><trkpt lat="45.42315081359201" lon="14.020779228389692"><ele>576.0</ele><time>2026-04-11T14:26:04.958Z</time></trkpt><trkpt lat="45.42312530769549" lon="14.020938379025809"><ele>576.0</ele><time>2026-04-11T14:26:06.958Z</time></trkpt><trkpt lat="45.423142808320605" lon="14.021025344459781"><ele>576.0</ele><time>2026-04-11T14:26:07.958Z</time></trkpt><trkpt lat="45.42318067105991" lon="14.021120109496955"><ele>576.0</ele><time>2026-04-11T14:26:08.958Z</time></trkpt><trkpt lat="45.42322351868614" lon="14.021218350434376"><ele>576.0</ele><time>2026-04-11T14:26:09.958Z</time></trkpt><trkpt lat="45.42326076140885" lon="14.02129932781304"><ele>577.1666666666666</ele><time>2026-04-11T14:26:10.958Z</time></trkpt><trkpt lat="45.42330403281329" lon="14.021385180635576"><ele>578.3333333333334</ele><time>2026-04-11T14:26:11.958Z</time></trkpt><trkpt lat="45.42334596173318" lon="14.021465609692315"><ele>579.5</ele><time>2026-04-11T14:26:14.958Z</time></trkpt><trkpt lat="45.423394958159015" lon="14.021554336790588"><ele>580.6666666666667</ele><time>2026-04-11T14:26:32.958Z</time></trkpt><trkpt lat="45.423486991398825" lon="14.021693785254515"><ele>581.8333333333334</ele><time>2026-04-11T14:26:34.958Z</time></trkpt><trkpt lat="45.42354811952121" lon="14.021784923713266"><ele>583.0</ele><time>2026-04-11T14:26:35.958Z</time></trkpt><trkpt lat="45.423600805757786" lon="14.021877757985685"><ele>582.1999999999999</ele><time>2026-04-11T14:26:36.958Z</time></trkpt><trkpt lat="45.42365001251543" lon="14.021957711823237"><ele>581.4</ele><time>2026-04-11T14:26:37.958Z</time></trkpt><trkpt lat="45.42372772110011" lon="14.02207383717091"><ele>580.5999999999999</ele><time>2026-04-11T14:26:39.958Z</time></trkpt><trkpt lat="45.42380815894564" lon="14.022162948404466"><ele>579.8</ele><time>2026-04-11T14:26:41.958Z</time></trkpt><trkpt lat="45.42388739120417" lon="14.022312432124332"><ele>579.0</ele><time>2026-04-11T14:26:43.958Z</time></trkpt><trkpt lat="45.423933663737174" lon="14.022381574306596"><ele>580.0</ele><time>2026-04-11T14:26:44.958Z</time></trkpt><trkpt lat="45.42402989600731" lon="14.022517407014634"><ele>581.0</ele><time>2026-04-11T14:26:46.958Z</time></trkpt><trkpt lat="45.42409150101882" lon="14.022594481531094"><ele>582.0</ele><time>2026-04-11T14:26:47.958Z</time></trkpt><trkpt lat="45.42414903237651" lon="14.022642279027156"><ele>583.0</ele><time>2026-04-11T14:26:48.958Z</time></trkpt><trkpt lat="45.42420952735305" lon="14.022696699330494"><ele>584.0</ele><time>2026-04-11T14:26:49.958Z</time></trkpt><trkpt lat="45.42425612946927" lon="14.02277317506478"><ele>585.0</ele><time>2026-04-11T14:26:50.958Z</time></trkpt><trkpt lat="45.424343715222335" lon="14.022829204251483"><ele>585.0</ele><time>2026-04-11T14:26:52.958Z</time></trkpt><trkpt lat="45.42429600752325" lon="14.022739351671035"><ele>585.0</ele><time>2026-04-11T14:27:03.958Z</time></trkpt><trkpt lat="45.42422750808727" lon="14.022717022162118"><ele>585.0</ele><time>2026-04-11T14:27:04.957Z</time></trkpt><trkpt lat="45.42415742163211" lon="14.022661685224731"><ele>585.0</ele><time>2026-04-11T14:27:05.958Z</time></trkpt><trkpt lat="45.42411199808787" lon="14.022557181820774"><ele>585.0</ele><time>2026-04-11T14:27:06.958Z</time></trkpt><trkpt lat="45.42403861336007" lon="14.022464054104613"><ele>585.0</ele><time>2026-04-11T14:27:07.957Z</time></trkpt><trkpt lat="45.42394613427383" lon="14.022353746870722"><ele>586.0</ele><time>2026-04-11T14:27:08.957Z</time></trkpt><trkpt lat="45.4238500659854" lon="14.02221718353699"><ele>587.0</ele><time>2026-04-11T14:27:09.957Z</time></trkpt><trkpt lat="45.42374695803309" lon="14.022057384876549"><ele>588.0</ele><time>2026-04-11T14:27:10.957Z</time></trkpt><trkpt lat="45.423637822264304" lon="14.02190032713008"><ele>589.0</ele><time>2026-04-11T14:27:11.958Z</time></trkpt><trkpt lat="45.42353058793126" lon="14.021756972702667"><ele>587.5</ele><time>2026-04-11T14:27:12.958Z</time></trkpt><trkpt lat="45.42343747456483" lon="14.021618887796462"><ele>586.0</ele><time>2026-04-11T14:27:13.958Z</time></trkpt><trkpt lat="45.423369287688644" lon="14.02147768246934"><ele>584.5</ele><time>2026-04-11T14:27:14.958Z</time></trkpt><trkpt lat="45.423292265326566" lon="14.021339636129746"><ele>583.0</ele><time>2026-04-11T14:27:15.958Z</time></trkpt><trkpt lat="45.423236842170475" lon="14.021211899871721"><ele>583.0</ele><time>2026-04-11T14:27:16.958Z</time></trkpt><trkpt lat="45.423216718389234" lon="14.021107025230634"><ele>583.0</ele><time>2026-04-11T14:27:17.958Z</time></trkpt><trkpt lat="45.42318132034852" lon="14.021001435888651"><ele>583.0</ele><time>2026-04-11T14:27:19.958Z</time></trkpt><trkpt lat="45.42303752865688" lon="14.021105415160417"><ele>583.0</ele><time>2026-04-11T14:27:25.958Z</time></trkpt><trkpt lat="45.42298156187053" lon="14.021150337504388"><ele>583.0</ele><time>2026-04-11T14:27:26.958Z</time></trkpt><trkpt lat="45.42287446919751" lon="14.021107283407671"><ele>583.3333333333334</ele><time>2026-04-11T14:27:27.958Z</time></trkpt><trkpt lat="45.42280041552328" lon="14.021138199567527"><ele>583.6666666666667</ele><time>2026-04-11T14:27:28.958Z</time></trkpt><trkpt lat="45.42272310313163" lon="14.021178914962201"><ele>584.0</ele><time>2026-04-11T14:27:29.958Z</time></trkpt><trkpt lat="45.4226418860467" lon="14.021220447689888"><ele>584.3333333333334</ele><time>2026-04-11T14:27:30.958Z</time></trkpt><trkpt lat="45.42255752128518" lon="14.021267614261918"><ele>584.6666666666666</ele><time>2026-04-11T14:27:31.958Z</time></trkpt><trkpt lat="45.422484766603766" lon="14.021313937696835"><ele>585.0</ele><time>2026-04-11T14:27:32.958Z</time></trkpt><trkpt lat="45.422420590465464" lon="14.021345231375705"><ele>585.0</ele><time>2026-04-11T14:27:33.958Z</time></trkpt><trkpt lat="45.422297442669915" lon="14.021385445760982"><ele>585.0</ele><time>2026-04-11T14:27:35.958Z</time></trkpt><trkpt lat="45.42221229557893" lon="14.021421970418192"><ele>585.0</ele><time>2026-04-11T14:27:36.957Z</time></trkpt><trkpt lat="45.42213335182877" lon="14.021452980250789"><ele>585.0</ele><time>2026-04-11T14:27:37.957Z</time></trkpt><trkpt lat="45.42207475193322" lon="14.021494602331229"><ele>585.0</ele><time>2026-04-11T14:27:38.957Z</time></trkpt><trkpt lat="45.421988516498885" lon="14.021536686641397"><ele>585.5714285714286</ele><time>2026-04-11T14:27:39.957Z</time></trkpt><trkpt lat="45.42192228047743" lon="14.021567608681657"><ele>586.1428571428571</ele><time>2026-04-11T14:27:40.957Z</time></trkpt><trkpt lat="45.42184876183701" lon="14.021581379360558"><ele>586.7142857142857</ele><time>2026-04-11T14:27:41.957Z</time></trkpt><trkpt lat="45.42176528600543" lon="14.021581559392125"><ele>587.2857142857142</ele><time>2026-04-11T14:27:42.957Z</time></trkpt><trkpt lat="45.42169407259591" lon="14.02158607095257"><ele>587.8571428571428</ele><time>2026-04-11T14:27:43.957Z</time></trkpt><trkpt lat="45.42162148956883" lon="14.021590734386137"><ele>588.4285714285714</ele><time>2026-04-11T14:27:44.957Z</time></trkpt><trkpt lat="45.42154651981411" lon="14.021596839081036"><ele>589.0</ele><time>2026-04-11T14:27:45.957Z</time></trkpt><trkpt lat="45.42146111207914" lon="14.021620146151452"><ele>589.0</ele><time>2026-04-11T14:27:46.957Z</time></trkpt><trkpt lat="45.42139164692984" lon="14.021640580209159"><ele>589.0</ele><time>2026-04-11T14:27:47.957Z</time></trkpt><trkpt lat="45.4213221885476" lon="14.021643157763572"><ele>589.0</ele><time>2026-04-11T14:27:48.957Z</time></trkpt><trkpt lat="45.421186524565115" lon="14.021681268046953"><ele>589.0</ele><time>2026-04-11T14:27:50.957Z</time></trkpt><trkpt lat="45.42110376989291" lon="14.021718899973557"><ele>589.0</ele><time>2026-04-11T14:27:51.957Z</time></trkpt><trkpt lat="45.42103392000266" lon="14.021752737126816"><ele>589.0</ele><time>2026-04-11T14:27:52.957Z</time></trkpt><trkpt lat="45.42097016024831" lon="14.021790545007079"><ele>589.8333333333334</ele><time>2026-04-11T14:27:53.957Z</time></trkpt><trkpt lat="45.420860508947534" lon="14.021864570809104"><ele>590.6666666666667</ele><time>2026-04-11T14:27:55.957Z</time></trkpt><trkpt lat="45.42078798591232" lon="14.021920286130161"><ele>591.5</ele><time>2026-04-11T14:27:56.957Z</time></trkpt><trkpt lat="45.42073261229123" lon="14.021970644175857"><ele>592.3333333333334</ele><time>2026-04-11T14:27:57.957Z</time></trkpt><trkpt lat="45.42066666637694" lon="14.022011720049269"><ele>593.1666666666666</ele><time>2026-04-11T14:27:58.957Z</time></trkpt><trkpt lat="45.420597630500275" lon="14.022065281323421"><ele>594.0</ele><time>2026-04-11T14:27:59.957Z</time></trkpt><trkpt lat="45.42053843785678" lon="14.022116445799663"><ele>593.2857142857143</ele><time>2026-04-11T14:28:00.957Z</time></trkpt><trkpt lat="45.42047135746585" lon="14.02217155611853"><ele>592.5714285714287</ele><time>2026-04-11T14:28:01.957Z</time></trkpt><trkpt lat="45.42040410250317" lon="14.022230828337733"><ele>591.8571428571429</ele><time>2026-04-11T14:28:02.957Z</time></trkpt><trkpt lat="45.42033698082667" lon="14.022286078602663"><ele>591.1428571428571</ele><time>2026-04-11T14:28:03.957Z</time></trkpt><trkpt lat="45.420274009965624" lon="14.022336758479785"><ele>590.4285714285713</ele><time>2026-04-11T14:28:04.957Z</time></trkpt><trkpt lat="45.42021070077662" lon="14.022385678965462"><ele>589.7142857142857</ele><time>2026-04-11T14:28:05.957Z</time></trkpt><trkpt lat="45.42015459430196" lon="14.022427427979176"><ele>589.0</ele><time>2026-04-11T14:28:06.957Z</time></trkpt><trkpt lat="45.4200908639062" lon="14.022464314341446"><ele>590.4</ele><time>2026-04-11T14:28:07.957Z</time></trkpt><trkpt lat="45.420028218728824" lon="14.022496072146208"><ele>591.8</ele><time>2026-04-11T14:28:08.957Z</time></trkpt><trkpt lat="45.41991980044748" lon="14.022546771209544"><ele>593.2</ele><time>2026-04-11T14:28:10.957Z</time></trkpt><trkpt lat="45.419832130979415" lon="14.022593012250438"><ele>594.6</ele><time>2026-04-11T14:28:12.957Z</time></trkpt><trkpt lat="45.419738400486004" lon="14.0226788804579"><ele>596.0</ele><time>2026-04-11T14:28:14.957Z</time></trkpt><trkpt lat="45.41966135723385" lon="14.022800990735762"><ele>594.6666666666666</ele><time>2026-04-11T14:28:16.957Z</time></trkpt><trkpt lat="45.419624172773624" lon="14.022887045353945"><ele>593.3333333333333</ele><time>2026-04-11T14:28:17.957Z</time></trkpt><trkpt lat="45.419584811937824" lon="14.022970267863966"><ele>592.0</ele><time>2026-04-11T14:28:18.957Z</time></trkpt><trkpt lat="45.419535478126406" lon="14.023041024480083"><ele>590.6666666666666</ele><time>2026-04-11T14:28:19.957Z</time></trkpt><trkpt lat="45.419494328569854" lon="14.023117202923743"><ele>589.3333333333334</ele><time>2026-04-11T14:28:20.957Z</time></trkpt><trkpt lat="45.4194435034379" lon="14.023188339503527"><ele>588.0</ele><time>2026-04-11T14:28:21.957Z</time></trkpt><trkpt lat="45.41934361099758" lon="14.023258103092221"><ele>588.0</ele><time>2026-04-11T14:28:23.957Z</time></trkpt><trkpt lat="45.4192599049342" lon="14.023305227855907"><ele>588.0</ele><time>2026-04-11T14:28:24.957Z</time></trkpt><trkpt lat="45.419191144860235" lon="14.023347365736685"><ele>588.0</ele><time>2026-04-11T14:28:25.957Z</time></trkpt><trkpt lat="45.419134541608486" lon="14.023393280399993"><ele>588.0</ele><time>2026-04-11T14:28:26.957Z</time></trkpt><trkpt lat="45.41902779967072" lon="14.023437421646818"><ele>588.0</ele><time>2026-04-11T14:28:28.957Z</time></trkpt><trkpt lat="45.41894174959316" lon="14.023463410728768"><ele>588.0</ele><time>2026-04-11T14:28:30.957Z</time></trkpt><trkpt lat="45.418899398309044" lon="14.023557795354392"><ele>588.8333333333334</ele><time>2026-04-11T14:28:34.957Z</time></trkpt><trkpt lat="45.41890142593391" lon="14.023679114567074"><ele>589.6666666666666</ele><time>2026-04-11T14:29:26.955Z</time></trkpt><trkpt lat="45.418947363707" lon="14.02378042300403"><ele>590.5</ele><time>2026-04-11T14:29:28.955Z</time></trkpt><trkpt lat="45.41898503216097" lon="14.023860881490549"><ele>591.3333333333333</ele><time>2026-04-11T14:29:30.955Z</time></trkpt><trkpt lat="45.41902757020792" lon="14.023939155591904"><ele>592.1666666666666</ele><time>2026-04-11T14:29:33.954Z</time></trkpt><trkpt lat="45.41908008942347" lon="14.024044899728029"><ele>593.0</ele><time>2026-04-11T14:29:36.954Z</time></trkpt><trkpt lat="45.4191042052921" lon="14.0241354766038"><ele>592.5714285714286</ele><time>2026-04-11T14:29:40.954Z</time></trkpt><trkpt lat="45.41912077645529" lon="14.024239525249296"><ele>592.1428571428571</ele><time>2026-04-11T14:29:42.954Z</time></trkpt><trkpt lat="45.41912602709992" lon="14.024345381392308"><ele>591.7142857142858</ele><time>2026-04-11T14:29:44.954Z</time></trkpt><trkpt lat="45.41912452420363" lon="14.024443363824101"><ele>591.2857142857142</ele><time>2026-04-11T14:29:46.954Z</time></trkpt><trkpt lat="45.41910866398184" lon="14.024560034543594"><ele>590.8571428571429</ele><time>2026-04-11T14:29:48.954Z</time></trkpt><trkpt lat="45.41910337488363" lon="14.024667501754093"><ele>590.4285714285714</ele><time>2026-04-11T14:29:50.954Z</time></trkpt><trkpt lat="45.41910557839316" lon="14.02476652197111"><ele>590.0</ele><time>2026-04-11T14:29:52.954Z</time></trkpt><trkpt lat="45.4190986098907" lon="14.024902532928671"><ele>587.8333333333333</ele><time>2026-04-11T14:29:54.954Z</time></trkpt><trkpt lat="45.419108501725866" lon="14.025022706315795"><ele>585.6666666666666</ele><time>2026-04-11T14:29:56.954Z</time></trkpt><trkpt lat="45.41912220583336" lon="14.025168711930661"><ele>583.5</ele><time>2026-04-11T14:29:58.954Z</time></trkpt><trkpt lat="45.4191213573997" lon="14.025264849438235"><ele>581.3333333333334</ele><time>2026-04-11T14:29:59.954Z</time></trkpt><trkpt lat="45.41914163030215" lon="14.025411579724338"><ele>579.1666666666667</ele><time>2026-04-11T14:30:01.954Z</time></trkpt><trkpt lat="45.41914237745917" lon="14.02552619510202"><ele>577.0</ele><time>2026-04-11T14:30:03.954Z</time></trkpt><trkpt lat="45.41914490508592" lon="14.025639774326043"><ele>577.0</ele><time>2026-04-11T14:30:05.954Z</time></trkpt><trkpt lat="45.419153929169234" lon="14.025757907673192"><ele>577.0</ele><time>2026-04-11T14:30:07.954Z</time></trkpt><trkpt lat="45.419156144304544" lon="14.025875999652355"><ele>577.0</ele><time>2026-04-11T14:30:09.954Z</time></trkpt><trkpt lat="45.419161900697" lon="14.025976547767186"><ele>577.0</ele><time>2026-04-11T14:30:11.954Z</time></trkpt><trkpt lat="45.41915635972046" lon="14.02609529188679"><ele>577.0</ele><time>2026-04-11T14:30:13.954Z</time></trkpt><trkpt lat="45.4191456344063" lon="14.02620135362745"><ele>577.0</ele><time>2026-04-11T14:30:15.954Z</time></trkpt><trkpt lat="45.41913472288829" lon="14.026292137533934"><ele>575.0</ele><time>2026-04-11T14:30:17.954Z</time></trkpt><trkpt lat="45.419121638855195" lon="14.026403618557202"><ele>573.0</ele><time>2026-04-11T14:30:19.954Z</time></trkpt><trkpt lat="45.41911250556496" lon="14.02650145580377"><ele>571.0</ele><time>2026-04-11T14:30:21.954Z</time></trkpt><trkpt lat="45.41909695196077" lon="14.026603769797259"><ele>569.0</ele><time>2026-04-11T14:30:24.954Z</time></trkpt><trkpt lat="45.41906650193117" lon="14.02671332443762"><ele>567.0</ele><time>2026-04-11T14:30:26.954Z</time></trkpt><trkpt lat="45.41904503150083" lon="14.026831437317075"><ele>565.0</ele><time>2026-04-11T14:30:28.954Z</time></trkpt><trkpt lat="45.41903327690691" lon="14.026935112481198"><ele>563.6666666666667</ele><time>2026-04-11T14:30:30.954Z</time></trkpt><trkpt lat="45.41903306093888" lon="14.027039639982446"><ele>562.3333333333334</ele><time>2026-04-11T14:30:33.954Z</time></trkpt><trkpt lat="45.419003555729255" lon="14.02715342706379"><ele>561.0</ele><time>2026-04-11T14:30:42.954Z</time></trkpt><trkpt lat="45.41896132310162" lon="14.027226452378358"><ele>559.6666666666666</ele><time>2026-04-11T14:31:51.954Z</time></trkpt><trkpt lat="45.41894640965365" lon="14.027348561431856"><ele>558.3333333333333</ele><time>2026-04-11T14:31:56.954Z</time></trkpt><trkpt lat="45.41890561120682" lon="14.027450412345285"><ele>557.0</ele><time>2026-04-11T14:32:05.954Z</time></trkpt><trkpt lat="45.418859406583266" lon="14.027562000038275"><ele>548.4</ele><time>2026-04-11T14:32:11.954Z</time></trkpt><trkpt lat="45.41880226654165" lon="14.027656865785024"><ele>539.8000000000001</ele><time>2026-04-11T14:32:14.954Z</time></trkpt><trkpt lat="45.41875539162292" lon="14.027757232113622"><ele>531.2</ele><time>2026-04-11T14:32:16.954Z</time></trkpt><trkpt lat="45.418702124935486" lon="14.027868796638073"><ele>522.6</ele><time>2026-04-11T14:32:18.953Z</time></trkpt><trkpt lat="45.41862497842903" lon="14.02797823554269"><ele>514.0</ele><time>2026-04-11T14:32:20.953Z</time></trkpt><trkpt lat="45.41854784064254" lon="14.028062542619526"><ele>514.0</ele><time>2026-04-11T14:32:22.953Z</time></trkpt><trkpt lat="45.418489027854456" lon="14.028108860065682"><ele>514.0</ele><time>2026-04-11T14:32:24.953Z</time></trkpt><trkpt lat="45.41840176765187" lon="14.028181061293948"><ele>514.0</ele><time>2026-04-11T14:32:26.953Z</time></trkpt><trkpt lat="45.41831974188917" lon="14.028230035748996"><ele>514.0</ele><time>2026-04-11T14:32:28.953Z</time></trkpt><trkpt lat="45.418242350792234" lon="14.028256566826602"><ele>514.0</ele><time>2026-04-11T14:32:30.953Z</time></trkpt><trkpt lat="45.41811857514317" lon="14.02826358553793"><ele>514.0</ele><time>2026-04-11T14:32:32.953Z</time></trkpt><trkpt lat="45.41798899928814" lon="14.028233974499248"><ele>514.0</ele><time>2026-04-11T14:32:34.953Z</time></trkpt><trkpt lat="45.4179116996884" lon="14.02821882066596"><ele>514.0</ele><time>2026-04-11T14:32:36.953Z</time></trkpt><trkpt lat="45.4178359187149" lon="14.028207422780968"><ele>514.0</ele><time>2026-04-11T14:32:39.953Z</time></trkpt><trkpt lat="45.41777159352717" lon="14.028219684549878"><ele>514.0</ele><time>2026-04-11T14:32:41.953Z</time></trkpt><trkpt lat="45.417698473971306" lon="14.028222229070419"><ele>514.0</ele><time>2026-04-11T14:32:43.953Z</time></trkpt><trkpt lat="45.41761602286294" lon="14.028236824280677"><ele>510.00000000000006</ele><time>2026-04-11T14:32:46.953Z</time></trkpt><trkpt lat="45.417549406703806" lon="14.028235335269143"><ele>506.0</ele><time>2026-04-11T14:32:48.953Z</time></trkpt><trkpt lat="45.41747669070074" lon="14.028248586785912"><ele>502.0</ele><time>2026-04-11T14:32:50.953Z</time></trkpt><trkpt lat="45.41738206595791" lon="14.02828482253634"><ele>498.0</ele><time>2026-04-11T14:32:53.953Z</time></trkpt><trkpt lat="45.41730583779162" lon="14.028294140980433"><ele>494.00000000000006</ele><time>2026-04-11T14:32:55.953Z</time></trkpt><trkpt lat="45.417209519390184" lon="14.028269014914034"><ele>490.0</ele><time>2026-04-11T14:32:57.953Z</time></trkpt><trkpt lat="45.4171081604344" lon="14.028256239998791"><ele>488.33333333333337</ele><time>2026-04-11T14:32:59.953Z</time></trkpt><trkpt lat="45.417013508671445" lon="14.028217876858433"><ele>486.6666666666667</ele><time>2026-04-11T14:33:02.953Z</time></trkpt><trkpt lat="45.41695411687181" lon="14.028186725332663"><ele>485.0</ele><time>2026-04-11T14:33:10.953Z</time></trkpt><trkpt lat="45.41687524669211" lon="14.028141563376282"><ele>483.33333333333337</ele><time>2026-04-11T14:33:18.952Z</time></trkpt><trkpt lat="45.41679827787372" lon="14.028061895801777"><ele>481.6666666666667</ele><time>2026-04-11T14:33:21.952Z</time></trkpt><trkpt lat="45.4167224130088" lon="14.028023581179433"><ele>480.0</ele><time>2026-04-11T14:33:23.953Z</time></trkpt><trkpt lat="45.416660869476736" lon="14.027999400651488"><ele>480.0</ele><time>2026-04-11T14:33:30.952Z</time></trkpt><trkpt lat="45.4165741927513" lon="14.027963603839309"><ele>480.0</ele><time>2026-04-11T14:33:34.952Z</time></trkpt><trkpt lat="45.41649577134413" lon="14.02796269045296"><ele>480.0</ele><time>2026-04-11T14:33:36.952Z</time></trkpt><trkpt lat="45.41638658054931" lon="14.02794432106771"><ele>480.0</ele><time>2026-04-11T14:33:38.952Z</time></trkpt><trkpt lat="45.41631004984857" lon="14.027926224752731"><ele>480.0</ele><time>2026-04-11T14:33:40.952Z</time></trkpt><trkpt lat="45.41623634342462" lon="14.027877008447408"><ele>480.0</ele><time>2026-04-11T14:33:42.952Z</time></trkpt><trkpt lat="45.41614046902024" lon="14.027806618689127"><ele>477.6666666666667</ele><time>2026-04-11T14:33:44.952Z</time></trkpt><trkpt lat="45.41608704157475" lon="14.027743312757286"><ele>475.33333333333337</ele><time>2026-04-11T14:33:45.952Z</time></trkpt><trkpt lat="45.41602923999988" lon="14.027670208530528"><ele>473.0</ele><time>2026-04-11T14:33:47.952Z</time></trkpt><trkpt lat="45.41597841020655" lon="14.027604405554523"><ele>470.6666666666667</ele><time>2026-04-11T14:33:49.952Z</time></trkpt><trkpt lat="45.4159160734839" lon="14.027562305243245"><ele>468.33333333333337</ele><time>2026-04-11T14:33:51.952Z</time></trkpt><trkpt lat="45.41581460782249" lon="14.02750957901741"><ele>466.0</ele><time>2026-04-11T14:33:53.952Z</time></trkpt><trkpt lat="45.41573947411127" lon="14.027460358591894"><ele>464.33333333333337</ele><time>2026-04-11T14:33:55.952Z</time></trkpt><trkpt lat="45.41567366541762" lon="14.027421703201785"><ele>462.6666666666667</ele><time>2026-04-11T14:33:57.952Z</time></trkpt><trkpt lat="45.4155800621052" lon="14.02736230124177"><ele>461.0</ele><time>2026-04-11T14:34:00.952Z</time></trkpt><trkpt lat="45.41551790176129" lon="14.027323569303256"><ele>459.33333333333337</ele><time>2026-04-11T14:34:02.952Z</time></trkpt><trkpt lat="45.41544340765368" lon="14.027299011747669"><ele>457.6666666666667</ele><time>2026-04-11T14:34:04.952Z</time></trkpt><trkpt lat="45.41536407005504" lon="14.027268434955984"><ele>456.0</ele><time>2026-04-11T14:34:06.952Z</time></trkpt><trkpt lat="45.41527411353825" lon="14.027214818910009"><ele>453.0</ele><time>2026-04-11T14:34:08.951Z</time></trkpt><trkpt lat="45.41520649979868" lon="14.027149491040333"><ele>450.0</ele><time>2026-04-11T14:34:10.951Z</time></trkpt><trkpt lat="45.415143408457844" lon="14.027073539638826"><ele>447.0</ele><time>2026-04-11T14:34:12.951Z</time></trkpt><trkpt lat="45.41509816252663" lon="14.026969923939404"><ele>444.0</ele><time>2026-04-11T14:34:14.951Z</time></trkpt><trkpt lat="45.415029969674976" lon="14.026862590806484"><ele>441.0</ele><time>2026-04-11T14:34:16.951Z</time></trkpt><trkpt lat="45.41494717005649" lon="14.026779038990206"><ele>441.0</ele><time>2026-04-11T14:34:18.951Z</time></trkpt><trkpt lat="45.4148725034568" lon="14.026731299772704"><ele>441.0</ele><time>2026-04-11T14:34:20.951Z</time></trkpt><trkpt lat="45.41477804101932" lon="14.026639957891135"><ele>441.0</ele><time>2026-04-11T14:34:22.951Z</time></trkpt><trkpt lat="45.414683227888275" lon="14.026558330185804"><ele>441.0</ele><time>2026-04-11T14:34:24.951Z</time></trkpt><trkpt lat="45.414584499330765" lon="14.02646895727186"><ele>441.0</ele><time>2026-04-11T14:34:26.951Z</time></trkpt><trkpt lat="45.414484919897205" lon="14.026399381430076"><ele>436.8</ele><time>2026-04-11T14:34:28.951Z</time></trkpt><trkpt lat="45.41437262393877" lon="14.026319348562147"><ele>432.6</ele><time>2026-04-11T14:34:30.951Z</time></trkpt><trkpt lat="45.41427127551256" lon="14.026263480633318"><ele>428.4</ele><time>2026-04-11T14:34:32.951Z</time></trkpt><trkpt lat="45.41418517894529" lon="14.026222496232004"><ele>424.2</ele><time>2026-04-11T14:34:34.951Z</time></trkpt><trkpt lat="45.41407648142561" lon="14.026179168726625"><ele>420.0</ele><time>2026-04-11T14:34:36.951Z</time></trkpt><trkpt lat="45.41398534241905" lon="14.02611484660771"><ele>420.0</ele><time>2026-04-11T14:34:38.951Z</time></trkpt><trkpt lat="45.413926196742416" lon="14.026064733320732"><ele>420.0</ele><time>2026-04-11T14:34:40.951Z</time></trkpt><trkpt lat="45.4138669822737" lon="14.025989796449254"><ele>420.0</ele><time>2026-04-11T14:34:42.951Z</time></trkpt><trkpt lat="45.41380929828499" lon="14.025905402687126"><ele>420.0</ele><time>2026-04-11T14:34:44.951Z</time></trkpt><trkpt lat="45.41373527616507" lon="14.02584944788861"><ele>420.0</ele><time>2026-04-11T14:34:46.951Z</time></trkpt><trkpt lat="45.413653827932706" lon="14.025814469296469"><ele>420.0</ele><time>2026-04-11T14:34:48.951Z</time></trkpt><trkpt lat="45.41355502134268" lon="14.025829965528601"><ele>416.8333333333333</ele><time>2026-04-11T14:34:50.951Z</time></trkpt><trkpt lat="45.4134755488841" lon="14.025832897126152"><ele>413.66666666666663</ele><time>2026-04-11T14:34:52.951Z</time></trkpt><trkpt lat="45.41340658682754" lon="14.025796763512222"><ele>410.5</ele><time>2026-04-11T14:34:54.951Z</time></trkpt><trkpt lat="45.4133212851884" lon="14.025724718059312"><ele>407.3333333333333</ele><time>2026-04-11T14:34:56.951Z</time></trkpt><trkpt lat="45.413269267068166" lon="14.025671074957025"><ele>404.16666666666663</ele><time>2026-04-11T14:34:57.951Z</time></trkpt><trkpt lat="45.41322560794648" lon="14.025599868048136"><ele>401.0</ele><time>2026-04-11T14:34:58.951Z</time></trkpt><trkpt lat="45.413192821804174" lon="14.025515448834184"><ele>400.16666666666663</ele><time>2026-04-11T14:34:59.951Z</time></trkpt><trkpt lat="45.41315098166676" lon="14.025428996251492"><ele>399.3333333333333</ele><time>2026-04-11T14:35:00.951Z</time></trkpt><trkpt lat="45.41311909329884" lon="14.025338287448402"><ele>398.5</ele><time>2026-04-11T14:35:01.951Z</time></trkpt><trkpt lat="45.41308646089672" lon="14.025256027345154"><ele>397.66666666666663</ele><time>2026-04-11T14:35:02.951Z</time></trkpt><trkpt lat="45.41305033980932" lon="14.025178968720226"><ele>396.8333333333333</ele><time>2026-04-11T14:35:04.951Z</time></trkpt><trkpt lat="45.412951926888354" lon="14.025180623831085"><ele>396.0</ele><time>2026-04-11T14:35:07.951Z</time></trkpt><trkpt lat="45.41288294607639" lon="14.025119127126336"><ele>395.20000000000005</ele><time>2026-04-11T14:35:10.951Z</time></trkpt><trkpt lat="45.412835961760315" lon="14.024997041428"><ele>394.40000000000003</ele><time>2026-04-11T14:35:12.951Z</time></trkpt><trkpt lat="45.41278993503681" lon="14.024926807077465"><ele>393.6</ele><time>2026-04-11T14:35:13.951Z</time></trkpt><trkpt lat="45.41266949462172" lon="14.024843241445321"><ele>392.8</ele><time>2026-04-11T14:35:15.951Z</time></trkpt><trkpt lat="45.41257814673412" lon="14.024822795868896"><ele>392.0</ele><time>2026-04-11T14:35:16.951Z</time></trkpt><trkpt lat="45.41249051623042" lon="14.024815501520054"><ele>391.40000000000003</ele><time>2026-04-11T14:35:17.951Z</time></trkpt><trkpt lat="45.412405133019796" lon="14.024768857944528"><ele>390.8</ele><time>2026-04-11T14:35:18.951Z</time></trkpt><trkpt lat="45.41232275081709" lon="14.0247005425607"><ele>390.2</ele><time>2026-04-11T14:35:19.951Z</time></trkpt><trkpt lat="45.412257132308476" lon="14.024640104869993"><ele>389.6</ele><time>2026-04-11T14:35:20.951Z</time></trkpt><trkpt lat="45.412181385513954" lon="14.024565199387387"><ele>389.0</ele><time>2026-04-11T14:35:22.951Z</time></trkpt><trkpt lat="45.41207347707285" lon="14.02447821487356"><ele>388.0</ele><time>2026-04-11T14:35:24.95Z</time></trkpt><trkpt lat="45.412000922774716" lon="14.024425173341687"><ele>387.0</ele><time>2026-04-11T14:35:25.951Z</time></trkpt><trkpt lat="45.41190583325554" lon="14.02436131636958"><ele>386.0</ele><time>2026-04-11T14:35:26.95Z</time></trkpt><trkpt lat="45.41179791774927" lon="14.024283234354815"><ele>385.0</ele><time>2026-04-11T14:35:27.95Z</time></trkpt><trkpt lat="45.41168597224867" lon="14.02418800300681"><ele>384.0</ele><time>2026-04-11T14:35:28.95Z</time></trkpt><trkpt lat="45.41157901000805" lon="14.024083744523152"><ele>383.75</ele><time>2026-04-11T14:35:29.951Z</time></trkpt><trkpt lat="45.41147672213948" lon="14.023976066108805"><ele>383.5</ele><time>2026-04-11T14:35:30.951Z</time></trkpt><trkpt lat="45.4113747732741" lon="14.02385988269516"><ele>383.25</ele><time>2026-04-11T14:35:31.951Z</time></trkpt><trkpt lat="45.41127340218698" lon="14.023735648509195"><ele>383.0</ele><time>2026-04-11T14:35:32.95Z</time></trkpt><trkpt lat="45.411179749636105" lon="14.023599912269702"><ele>383.0</ele><time>2026-04-11T14:35:33.95Z</time></trkpt><trkpt lat="45.41110083852822" lon="14.023449232096915"><ele>383.0</ele><time>2026-04-11T14:35:34.95Z</time></trkpt><trkpt lat="45.411033471283325" lon="14.023305754137512"><ele>383.0</ele><time>2026-04-11T14:35:35.95Z</time></trkpt><trkpt lat="45.4109717811755" lon="14.023173512765487"><ele>383.0</ele><time>2026-04-11T14:35:36.95Z</time></trkpt><trkpt lat="45.410915636868346" lon="14.023054626349552"><ele>382.33333333333337</ele><time>2026-04-11T14:35:37.95Z</time></trkpt><trkpt lat="45.410875387754324" lon="14.022958020565977"><ele>381.6666666666667</ele><time>2026-04-11T14:35:38.95Z</time></trkpt><trkpt lat="45.41086491225478" lon="14.022867878194948"><ele>381.0</ele><time>2026-04-11T14:35:39.95Z</time></trkpt><trkpt lat="45.41090871138485" lon="14.022752195027408"><ele>380.3333333333333</ele><time>2026-04-11T14:35:40.95Z</time></trkpt><trkpt lat="45.41089838023924" lon="14.022646124061461"><ele>379.66666666666663</ele><time>2026-04-11T14:35:41.95Z</time></trkpt><trkpt lat="45.41088293396301" lon="14.02253999031366"><ele>379.0</ele><time>2026-04-11T14:35:42.95Z</time></trkpt><trkpt lat="45.41087549606995" lon="14.022448460438277"><ele>378.0</ele><time>2026-04-11T14:35:43.95Z</time></trkpt><trkpt lat="45.410867999837166" lon="14.022319591046124"><ele>377.0</ele><time>2026-04-11T14:35:46.95Z</time></trkpt><trkpt lat="45.41086636124731" lon="14.022204187156657"><ele>376.0</ele><time>2026-04-11T14:35:49.95Z</time></trkpt><trkpt lat="45.411118112718896" lon="14.02219826197418"><ele>375.0</ele><time>2026-04-11T14:35:50.95Z</time></trkpt><trkpt lat="45.41123515569203" lon="14.022239685041962"><ele>375.0</ele><time>2026-04-11T14:35:52.95Z</time></trkpt><trkpt lat="45.41135096407859" lon="14.022272421655913"><ele>375.0</ele><time>2026-04-11T14:35:54.95Z</time></trkpt><trkpt lat="45.41144192558728" lon="14.022202801628168"><ele>375.0</ele><time>2026-04-11T14:35:56.95Z</time></trkpt><trkpt lat="45.41150280646276" lon="14.022035274610651"><ele>375.0</ele><time>2026-04-11T14:35:58.95Z</time></trkpt><trkpt lat="45.41152198087051" lon="14.021901198328232"><ele>375.0</ele><time>2026-04-11T14:35:59.95Z</time></trkpt><trkpt lat="45.41153588292452" lon="14.02172887941984"><ele>375.0</ele><time>2026-04-11T14:36:00.95Z</time></trkpt><trkpt lat="45.411556125486264" lon="14.021560526451236"><ele>375.0</ele><time>2026-04-11T14:36:01.95Z</time></trkpt><trkpt lat="45.41158057770488" lon="14.021391203706026"><ele>375.0</ele><time>2026-04-11T14:36:02.95Z</time></trkpt><trkpt lat="45.4116127676908" lon="14.021233632597818"><ele>374.0</ele><time>2026-04-11T14:36:03.95Z</time></trkpt><trkpt lat="45.41165023560998" lon="14.021093115718045"><ele>373.0</ele><time>2026-04-11T14:36:04.95Z</time></trkpt><trkpt lat="45.4116898949317" lon="14.020957029173896"><ele>372.0</ele><time>2026-04-11T14:36:05.95Z</time></trkpt><trkpt lat="45.411728838023585" lon="14.02080913933132"><ele>371.0</ele><time>2026-04-11T14:36:06.95Z</time></trkpt><trkpt lat="45.411767988857825" lon="14.020679007074477"><ele>370.0</ele><time>2026-04-11T14:36:07.95Z</time></trkpt><trkpt lat="45.411804770732914" lon="14.020558775807375"><ele>369.0</ele><time>2026-04-11T14:36:08.95Z</time></trkpt><trkpt lat="45.41183402023216" lon="14.020427219302873"><ele>368.0</ele><time>2026-04-11T14:36:09.95Z</time></trkpt><trkpt lat="45.411838865882785" lon="14.020280352997956"><ele>367.0</ele><time>2026-04-11T14:36:10.95Z</time></trkpt><trkpt lat="45.4118365544869" lon="14.020143341215967"><ele>366.0</ele><time>2026-04-11T14:36:11.95Z</time></trkpt><trkpt lat="45.411842074784204" lon="14.020007555984401"><ele>365.0</ele><time>2026-04-11T14:36:12.95Z</time></trkpt><trkpt lat="45.41184238016722" lon="14.019873433738784"><ele>364.6</ele><time>2026-04-11T14:36:13.95Z</time></trkpt><trkpt lat="45.41185457692579" lon="14.019734489196539"><ele>364.2</ele><time>2026-04-11T14:36:14.95Z</time></trkpt><trkpt lat="45.411882662074724" lon="14.019593188845047"><ele>363.79999999999995</ele><time>2026-04-11T14:36:15.95Z</time></trkpt><trkpt lat="45.411921096847024" lon="14.019448911211414"><ele>363.4</ele><time>2026-04-11T14:36:16.95Z</time></trkpt><trkpt lat="45.41196528602726" lon="14.019290127979838"><ele>363.0</ele><time>2026-04-11T14:36:17.95Z</time></trkpt><trkpt lat="45.412014488601194" lon="14.01913302215694"><ele>362.5</ele><time>2026-04-11T14:36:18.95Z</time></trkpt><trkpt lat="45.41206716309617" lon="14.018988916224869"><ele>362.0</ele><time>2026-04-11T14:36:19.95Z</time></trkpt><trkpt lat="45.412114550396645" lon="14.018834461708138"><ele>361.5</ele><time>2026-04-11T14:36:20.95Z</time></trkpt><trkpt lat="45.41217135269094" lon="14.018691112257255"><ele>361.0</ele><time>2026-04-11T14:36:21.95Z</time></trkpt><trkpt lat="45.41222883657179" lon="14.018556638122567"><ele>361.0</ele><time>2026-04-11T14:36:22.95Z</time></trkpt><trkpt lat="45.4122828077146" lon="14.018418287219905"><ele>361.0</ele><time>2026-04-11T14:36:23.95Z</time></trkpt><trkpt lat="45.41232775325822" lon="14.018277423222335"><ele>361.0</ele><time>2026-04-11T14:36:24.95Z</time></trkpt><trkpt lat="45.41235988045613" lon="14.018132926588528"><ele>361.0</ele><time>2026-04-11T14:36:25.95Z</time></trkpt><trkpt lat="45.41239399895924" lon="14.018011216199762"><ele>361.0</ele><time>2026-04-11T14:36:26.95Z</time></trkpt><trkpt lat="45.41242635692479" lon="14.017900600672167"><ele>360.8</ele><time>2026-04-11T14:36:27.95Z</time></trkpt><trkpt lat="45.41244851469223" lon="14.017787320701846"><ele>360.6</ele><time>2026-04-11T14:36:28.95Z</time></trkpt><trkpt lat="45.412456848838914" lon="14.017669920998857"><ele>360.4</ele><time>2026-04-11T14:36:29.95Z</time></trkpt><trkpt lat="45.412464592463415" lon="14.017505496274223"><ele>360.2</ele><time>2026-04-11T14:36:30.95Z</time></trkpt><trkpt lat="45.41248562883696" lon="14.017340660368113"><ele>360.0</ele><time>2026-04-11T14:36:31.95Z</time></trkpt><trkpt lat="45.41250160370119" lon="14.017156897535534"><ele>359.0</ele><time>2026-04-11T14:36:32.95Z</time></trkpt><trkpt lat="45.41251760234448" lon="14.016977740261256"><ele>358.0</ele><time>2026-04-11T14:36:33.95Z</time></trkpt><trkpt lat="45.4125292169806" lon="14.016811545227613"><ele>357.0</ele><time>2026-04-11T14:36:34.95Z</time></trkpt><trkpt lat="45.41253829194239" lon="14.016661257612512"><ele>356.0</ele><time>2026-04-11T14:36:35.95Z</time></trkpt><trkpt lat="45.412559956405055" lon="14.016518319484295"><ele>355.5</ele><time>2026-04-11T14:36:36.95Z</time></trkpt><trkpt lat="45.412595753787926" lon="14.016360157025172"><ele>355.0</ele><time>2026-04-11T14:36:37.95Z</time></trkpt><trkpt lat="45.41264328216984" lon="14.016192493201205"><ele>354.5</ele><time>2026-04-11T14:36:38.95Z</time></trkpt><trkpt lat="45.412693852635584" lon="14.016033890055976"><ele>354.0</ele><time>2026-04-11T14:36:39.95Z</time></trkpt><trkpt lat="45.41274517561512" lon="14.015891551047185"><ele>353.75</ele><time>2026-04-11T14:36:40.95Z</time></trkpt><trkpt lat="45.41280491717915" lon="14.015742760556018"><ele>353.5</ele><time>2026-04-11T14:36:41.95Z</time></trkpt><trkpt lat="45.4128808098425" lon="14.015585554912345"><ele>353.25</ele><time>2026-04-11T14:36:42.95Z</time></trkpt><trkpt lat="45.412948129400675" lon="14.015426113674634"><ele>353.0</ele><time>2026-04-11T14:36:43.95Z</time></trkpt><trkpt lat="45.413010732746955" lon="14.01528425093649"><ele>353.0</ele><time>2026-04-11T14:36:44.95Z</time></trkpt><trkpt lat="45.413075195034175" lon="14.015155945184121"><ele>353.0</ele><time>2026-04-11T14:36:45.95Z</time></trkpt><trkpt lat="45.41313182371989" lon="14.015034201557508"><ele>353.0</ele><time>2026-04-11T14:36:46.95Z</time></trkpt><trkpt lat="45.41317421595473" lon="14.014935203542093"><ele>353.0</ele><time>2026-04-11T14:36:47.95Z</time></trkpt><trkpt lat="45.41319550140654" lon="14.014823133703151"><ele>353.0</ele><time>2026-04-11T14:37:09.95Z</time></trkpt><trkpt lat="45.41316816617457" lon="14.014729817266483"><ele>353.0</ele><time>2026-04-11T14:37:11.95Z</time></trkpt><trkpt lat="45.41306931850753" lon="14.01464692537942"><ele>351.2</ele><time>2026-04-11T14:37:13.95Z</time></trkpt><trkpt lat="45.4129493134996" lon="14.014590368187045"><ele>349.4</ele><time>2026-04-11T14:37:15.95Z</time></trkpt><trkpt lat="45.41287389546487" lon="14.014542177476402"><ele>347.59999999999997</ele><time>2026-04-11T14:37:16.95Z</time></trkpt><trkpt lat="45.41279284107685" lon="14.014462548349268"><ele>345.79999999999995</ele><time>2026-04-11T14:37:17.95Z</time></trkpt><trkpt lat="45.41271850876418" lon="14.014399573005802"><ele>344.0</ele><time>2026-04-11T14:37:18.95Z</time></trkpt><trkpt lat="45.41266287618979" lon="14.01434067354875"><ele>344.0</ele><time>2026-04-11T14:37:19.95Z</time></trkpt><trkpt lat="45.41260913035577" lon="14.014288517707966"><ele>344.0</ele><time>2026-04-11T14:37:20.95Z</time></trkpt><trkpt lat="45.41250961888924" lon="14.01422033327937"><ele>344.0</ele><time>2026-04-11T14:37:22.95Z</time></trkpt><trkpt lat="45.412425065901814" lon="14.014174717909428"><ele>344.0</ele><time>2026-04-11T14:37:24.949Z</time></trkpt><trkpt lat="45.41235321793899" lon="14.014082606923013"><ele>344.0</ele><time>2026-04-11T14:37:26.949Z</time></trkpt><trkpt lat="45.41228881367787" lon="14.013957547792968"><ele>343.79999999999995</ele><time>2026-04-11T14:37:28.949Z</time></trkpt><trkpt lat="45.41225577460658" lon="14.013866475457043"><ele>343.59999999999997</ele><time>2026-04-11T14:37:30.949Z</time></trkpt><trkpt lat="45.41223980541201" lon="14.013767309690275"><ele>343.4</ele><time>2026-04-11T14:37:32.948Z</time></trkpt><trkpt lat="45.41219407479271" lon="14.013572903437883"><ele>343.2</ele><time>2026-04-11T14:37:33.948Z</time></trkpt><trkpt lat="45.41223178526677" lon="14.013423423876858"><ele>343.0</ele><time>2026-04-11T14:37:35.949Z</time></trkpt><trkpt lat="45.412259218415876" lon="14.013337815284578"><ele>342.8333333333333</ele><time>2026-04-11T14:37:36.949Z</time></trkpt><trkpt lat="45.41229960733358" lon="14.013230595293003"><ele>342.66666666666663</ele><time>2026-04-11T14:37:37.949Z</time></trkpt><trkpt lat="45.41234033047096" lon="14.013138346228919"><ele>342.5</ele><time>2026-04-11T14:37:38.949Z</time></trkpt><trkpt lat="45.41238755657098" lon="14.013054254311132"><ele>342.3333333333333</ele><time>2026-04-11T14:37:39.949Z</time></trkpt><trkpt lat="45.41243143113207" lon="14.012960511108307"><ele>342.1666666666667</ele><time>2026-04-11T14:37:40.949Z</time></trkpt><trkpt lat="45.41248832952703" lon="14.012875116360474"><ele>342.0</ele><time>2026-04-11T14:37:41.949Z</time></trkpt><trkpt lat="45.4125360018938" lon="14.012793025727825"><ele>342.0</ele><time>2026-04-11T14:37:42.949Z</time></trkpt><trkpt lat="45.41261542911764" lon="14.012653696334043"><ele>342.0</ele><time>2026-04-11T14:37:44.949Z</time></trkpt><trkpt lat="45.412678285104796" lon="14.012531555839711"><ele>342.0</ele><time>2026-04-11T14:37:46.949Z</time></trkpt><trkpt lat="45.412719789684274" lon="14.01239501874471"><ele>342.0</ele><time>2026-04-11T14:37:48.949Z</time></trkpt><trkpt lat="45.41279032281233" lon="14.012344134927712"><ele>342.0</ele><time>2026-04-11T14:37:50.949Z</time></trkpt><trkpt lat="45.41288210053855" lon="14.012281948120071"><ele>341.5</ele><time>2026-04-11T14:37:52.949Z</time></trkpt><trkpt lat="45.41296585829381" lon="14.012151116731697"><ele>341.0</ele><time>2026-04-11T14:37:54.949Z</time></trkpt><trkpt lat="45.413034644516316" lon="14.012002424784555"><ele>340.5</ele><time>2026-04-11T14:37:56.949Z</time></trkpt><trkpt lat="45.41310549490926" lon="14.01189580130437"><ele>340.0</ele><time>2026-04-11T14:37:58.949Z</time></trkpt><trkpt lat="45.413205025801474" lon="14.011788690780108"><ele>339.0</ele><time>2026-04-11T14:38:00.949Z</time></trkpt><trkpt lat="45.413272668758154" lon="14.011638988699927"><ele>338.0</ele><time>2026-04-11T14:38:02.949Z</time></trkpt><trkpt lat="45.413312593390465" lon="14.011533266030062"><ele>337.0</ele><time>2026-04-11T14:38:03.949Z</time></trkpt><trkpt lat="45.41335191273613" lon="14.011455895318422"><ele>336.0</ele><time>2026-04-11T14:38:04.949Z</time></trkpt><trkpt lat="45.41343001368799" lon="14.011317111544123"><ele>335.0</ele><time>2026-04-11T14:38:06.949Z</time></trkpt><trkpt lat="45.413479053174306" lon="14.011193921463327"><ele>335.0</ele><time>2026-04-11T14:38:08.949Z</time></trkpt><trkpt lat="45.41353110352936" lon="14.011079983332998"><ele>335.0</ele><time>2026-04-11T14:38:10.949Z</time></trkpt><trkpt lat="45.413607679066786" lon="14.01094381594001"><ele>335.0</ele><time>2026-04-11T14:38:12.949Z</time></trkpt><trkpt lat="45.413658550513006" lon="14.010870645740836"><ele>335.0</ele><time>2026-04-11T14:38:13.949Z</time></trkpt><trkpt lat="45.41371492900429" lon="14.010799774556718"><ele>335.0</ele><time>2026-04-11T14:38:14.949Z</time></trkpt><trkpt lat="45.41376591806103" lon="14.010735141469738"><ele>335.0</ele><time>2026-04-11T14:38:15.949Z</time></trkpt><trkpt lat="45.413805511783416" lon="14.010664713390435"><ele>333.25</ele><time>2026-04-11T14:38:16.949Z</time></trkpt><trkpt lat="45.41388533056686" lon="14.010506375865178"><ele>331.5</ele><time>2026-04-11T14:38:18.949Z</time></trkpt><trkpt lat="45.41397055966205" lon="14.010375289608538"><ele>329.75</ele><time>2026-04-11T14:38:20.949Z</time></trkpt><trkpt lat="45.414042587372826" lon="14.010255640946639"><ele>328.0</ele><time>2026-04-11T14:38:22.949Z</time></trkpt><trkpt lat="45.41411538191821" lon="14.010154408756199"><ele>328.0</ele><time>2026-04-11T14:38:24.949Z</time></trkpt><trkpt lat="45.414172302285905" lon="14.010063995720191"><ele>328.0</ele><time>2026-04-11T14:38:26.949Z</time></trkpt><trkpt lat="45.41421567103392" lon="14.009957405024224"><ele>328.0</ele><time>2026-04-11T14:38:28.948Z</time></trkpt><trkpt lat="45.414290123497956" lon="14.00989070274238"><ele>328.0</ele><time>2026-04-11T14:38:31.948Z</time></trkpt><trkpt lat="45.414366470181704" lon="14.009876991683534"><ele>328.0</ele><time>2026-04-11T14:38:33.948Z</time></trkpt><trkpt lat="45.41442911174245" lon="14.009861378715781"><ele>328.0</ele><time>2026-04-11T14:38:35.948Z</time></trkpt><trkpt lat="45.4145171134167" lon="14.009881201738871"><ele>327.3333333333333</ele><time>2026-04-11T14:38:38.948Z</time></trkpt><trkpt lat="45.414620115188164" lon="14.009918899714066"><ele>326.66666666666663</ele><time>2026-04-11T14:38:41.948Z</time></trkpt><trkpt lat="45.41470955512042" lon="14.009978439291656"><ele>326.0</ele><time>2026-04-11T14:38:43.948Z</time></trkpt><trkpt lat="45.41477565420885" lon="14.010056182992749"><ele>325.3333333333333</ele><time>2026-04-11T14:38:45.948Z</time></trkpt><trkpt lat="45.41483901891692" lon="14.010129573826129"><ele>324.6666666666667</ele><time>2026-04-11T14:38:47.948Z</time></trkpt><trkpt lat="45.41489851861638" lon="14.010171678796974"><ele>324.0</ele><time>2026-04-11T14:38:50.948Z</time></trkpt><trkpt lat="45.414968849279454" lon="14.010194666041508"><ele>324.0</ele><time>2026-04-11T14:38:52.948Z</time></trkpt><trkpt lat="45.41505678112103" lon="14.01012952579477"><ele>324.0</ele><time>2026-04-11T14:38:54.948Z</time></trkpt><trkpt lat="45.41515380180443" lon="14.010088181196618"><ele>324.0</ele><time>2026-04-11T14:38:56.948Z</time></trkpt><trkpt lat="45.41522964618513" lon="14.010040061062586"><ele>324.0</ele><time>2026-04-11T14:38:58.948Z</time></trkpt><trkpt lat="45.415294715376994" lon="14.009994257358164"><ele>324.0</ele><time>2026-04-11T14:39:12.948Z</time></trkpt><trkpt lat="45.41534881104317" lon="14.00994414584076"><ele>324.0</ele><time>2026-04-11T14:39:16.948Z</time></trkpt><trkpt lat="45.415398522768974" lon="14.009878236409495"><ele>324.14285714285717</ele><time>2026-04-11T14:39:20.948Z</time></trkpt><trkpt lat="45.41545845485136" lon="14.009805693963987"><ele>324.2857142857143</ele><time>2026-04-11T14:39:23.948Z</time></trkpt><trkpt lat="45.415516080990855" lon="14.009737076488074"><ele>324.42857142857144</ele><time>2026-04-11T14:39:25.948Z</time></trkpt><trkpt lat="45.41557188057479" lon="14.009655732484116"><ele>324.57142857142856</ele><time>2026-04-11T14:39:27.948Z</time></trkpt><trkpt lat="45.415620879964806" lon="14.009594620642325"><ele>324.7142857142857</ele><time>2026-04-11T14:39:31.948Z</time></trkpt><trkpt lat="45.415672633815866" lon="14.009540245339778"><ele>324.85714285714283</ele><time>2026-04-11T14:39:35.948Z</time></trkpt><trkpt lat="45.41572719847748" lon="14.009492521015133"><ele>325.0</ele><time>2026-04-11T14:39:42.948Z</time></trkpt><trkpt lat="45.41578671531634" lon="14.009440001957467"><ele>325.0</ele><time>2026-04-11T14:39:45.948Z</time></trkpt><trkpt lat="45.41585342384305" lon="14.009387441693661"><ele>325.0</ele><time>2026-04-11T14:39:47.948Z</time></trkpt><trkpt lat="45.415939774809466" lon="14.009339305133773"><ele>325.0</ele><time>2026-04-11T14:39:49.948Z</time></trkpt><trkpt lat="45.415999180084874" lon="14.009301120160476"><ele>325.0</ele><time>2026-04-11T14:39:51.948Z</time></trkpt><trkpt lat="45.41605592020087" lon="14.00924962495075"><ele>325.0</ele><time>2026-04-11T14:39:54.948Z</time></trkpt><trkpt lat="45.41610961987998" lon="14.00919753797147"><ele>325.0</ele><time>2026-04-11T14:40:03.947Z</time></trkpt><trkpt lat="45.416194318668936" lon="14.009086340871045"><ele>323.5</ele><time>2026-04-11T14:41:12.947Z</time></trkpt><trkpt lat="45.41623541619812" lon="14.00897728763196"><ele>322.0</ele><time>2026-04-11T14:41:16.947Z</time></trkpt><trkpt lat="45.41627618527931" lon="14.008885459954028"><ele>320.5</ele><time>2026-04-11T14:41:18.947Z</time></trkpt><trkpt lat="45.41633564142562" lon="14.008822325731014"><ele>319.0</ele><time>2026-04-11T14:41:21.947Z</time></trkpt><trkpt lat="45.416396443497355" lon="14.008758199415743"><ele>317.5</ele><time>2026-04-11T14:41:23.947Z</time></trkpt><trkpt lat="45.41644909660625" lon="14.008693495421321"><ele>316.0</ele><time>2026-04-11T14:41:25.947Z</time></trkpt><trkpt lat="45.41650247152583" lon="14.008609631745085"><ele>316.0</ele><time>2026-04-11T14:41:27.947Z</time></trkpt><trkpt lat="45.41655367709097" lon="14.00852649944136"><ele>316.0</ele><time>2026-04-11T14:41:30.947Z</time></trkpt><trkpt lat="45.41656909892574" lon="14.00839719150785"><ele>316.0</ele><time>2026-04-11T14:41:33.947Z</time></trkpt><trkpt lat="45.41657383631889" lon="14.00828550898788"><ele>316.0</ele><time>2026-04-11T14:41:36.947Z</time></trkpt><trkpt lat="45.41652476655731" lon="14.00820176287674"><ele>316.0</ele><time>2026-04-11T14:41:38.947Z</time></trkpt><trkpt lat="45.41648387692943" lon="14.008122912882168"><ele>316.0</ele><time>2026-04-11T14:41:40.948Z</time></trkpt><trkpt lat="45.41643005570022" lon="14.008029680030987"><ele>313.40000000000003</ele><time>2026-04-11T14:41:42.948Z</time></trkpt><trkpt lat="45.41635454015664" lon="14.007927198613835"><ele>310.8</ele><time>2026-04-11T14:41:44.948Z</time></trkpt><trkpt lat="45.41629443226568" lon="14.00779432674577"><ele>308.20000000000005</ele><time>2026-04-11T14:41:46.948Z</time></trkpt><trkpt lat="45.41626111401274" lon="14.007694067009538"><ele>305.6</ele><time>2026-04-11T14:41:48.948Z</time></trkpt><trkpt lat="45.41622239396806" lon="14.00761323599219"><ele>303.0</ele><time>2026-04-11T14:41:50.948Z</time></trkpt><trkpt lat="45.41618772731616" lon="14.007477684114116"><ele>299.2</ele><time>2026-04-11T14:41:52.948Z</time></trkpt><trkpt lat="45.41620651609541" lon="14.00728097499904"><ele>295.4</ele><time>2026-04-11T14:41:54.948Z</time></trkpt><trkpt lat="45.41622447087909" lon="14.007187433867092"><ele>291.59999999999997</ele><time>2026-04-11T14:41:55.948Z</time></trkpt><trkpt lat="45.41623887771098" lon="14.007094214929456"><ele>287.8</ele><time>2026-04-11T14:41:56.948Z</time></trkpt><trkpt lat="45.41624045509847" lon="14.00694345453691"><ele>284.0</ele><time>2026-04-11T14:41:58.948Z</time></trkpt><trkpt lat="45.41621139265287" lon="14.00676536365212"><ele>283.8</ele><time>2026-04-11T14:42:00.948Z</time></trkpt><trkpt lat="45.41618701344047" lon="14.006653466685698"><ele>283.59999999999997</ele><time>2026-04-11T14:42:01.948Z</time></trkpt><trkpt lat="45.416170379732925" lon="14.006539841960139"><ele>283.4</ele><time>2026-04-11T14:42:02.948Z</time></trkpt><trkpt lat="45.41616802074689" lon="14.0064463373306"><ele>283.2</ele><time>2026-04-11T14:42:03.948Z</time></trkpt><trkpt lat="45.416142366803804" lon="14.006285701982796"><ele>283.0</ele><time>2026-04-11T14:42:05.948Z</time></trkpt><trkpt lat="45.416098760570144" lon="14.006120130574347"><ele>283.0</ele><time>2026-04-11T14:42:07.948Z</time></trkpt><trkpt lat="45.41605362699117" lon="14.005982384594699"><ele>283.0</ele><time>2026-04-11T14:42:09.948Z</time></trkpt><trkpt lat="45.41601417227022" lon="14.005859612587118"><ele>283.0</ele><time>2026-04-11T14:42:11.947Z</time></trkpt><trkpt lat="45.41599535372062" lon="14.005699629932296"><ele>283.0</ele><time>2026-04-11T14:42:13.947Z</time></trkpt><trkpt lat="45.41597723545606" lon="14.005538825297267"><ele>283.0</ele><time>2026-04-11T14:42:15.947Z</time></trkpt><trkpt lat="45.41591439870218" lon="14.005387939846514"><ele>282.8333333333333</ele><time>2026-04-11T14:42:17.947Z</time></trkpt><trkpt lat="45.415871046444686" lon="14.00531649496886"><ele>282.66666666666663</ele><time>2026-04-11T14:42:18.947Z</time></trkpt><trkpt lat="45.41584169115496" lon="14.005227019204607"><ele>282.5</ele><time>2026-04-11T14:42:19.947Z</time></trkpt><trkpt lat="45.41582137512749" lon="14.005138357300533"><ele>282.3333333333333</ele><time>2026-04-11T14:42:20.947Z</time></trkpt><trkpt lat="45.41575887664962" lon="14.005000278206555"><ele>282.1666666666667</ele><time>2026-04-11T14:42:22.947Z</time></trkpt><trkpt lat="45.415701154889454" lon="14.004873941994369"><ele>282.0</ele><time>2026-04-11T14:42:24.947Z</time></trkpt><trkpt lat="45.415633666356264" lon="14.004746916657917"><ele>280.2</ele><time>2026-04-11T14:42:26.947Z</time></trkpt><trkpt lat="45.415572499279975" lon="14.004631994269774"><ele>278.4</ele><time>2026-04-11T14:42:28.947Z</time></trkpt><trkpt lat="45.41552861146339" lon="14.004535420916012"><ele>276.6</ele><time>2026-04-11T14:42:30.947Z</time></trkpt><trkpt lat="45.41547022369421" lon="14.004477879512349"><ele>274.8</ele><time>2026-04-11T14:42:32.947Z</time></trkpt><trkpt lat="45.41535872828917" lon="14.004424800703264"><ele>273.0</ele><time>2026-04-11T14:42:34.947Z</time></trkpt><trkpt lat="45.41528344001858" lon="14.004356279011771"><ele>272.2</ele><time>2026-04-11T14:42:36.947Z</time></trkpt><trkpt lat="45.415236600480846" lon="14.004219303992173"><ele>271.4</ele><time>2026-04-11T14:42:38.947Z</time></trkpt><trkpt lat="45.415196903646304" lon="14.004077251736632"><ele>270.59999999999997</ele><time>2026-04-11T14:42:40.947Z</time></trkpt><trkpt lat="45.41512999384299" lon="14.004007205236613"><ele>269.8</ele><time>2026-04-11T14:44:07.947Z</time></trkpt><trkpt lat="45.41504990127148" lon="14.003923083493639"><ele>269.0</ele><time>2026-04-11T14:44:09.947Z</time></trkpt><trkpt lat="45.41495150011897" lon="14.003825739944597"><ele>268.5</ele><time>2026-04-11T14:44:11.947Z</time></trkpt><trkpt lat="45.414913314264524" lon="14.003743669576917"><ele>268.0</ele><time>2026-04-11T14:44:12.947Z</time></trkpt><trkpt lat="45.41484994620131" lon="14.003687276535242"><ele>267.5</ele><time>2026-04-11T14:44:13.947Z</time></trkpt><trkpt lat="45.414789254978075" lon="14.003619184285265"><ele>267.0</ele><time>2026-04-11T14:44:14.947Z</time></trkpt><trkpt lat="45.414739414177475" lon="14.00353926306441"><ele>266.5</ele><time>2026-04-11T14:44:15.947Z</time></trkpt><trkpt lat="45.41465316812152" lon="14.00351135657682"><ele>266.0</ele><time>2026-04-11T14:44:16.947Z</time></trkpt><trkpt lat="45.4146055769966" lon="14.003436396042385"><ele>266.0</ele><time>2026-04-11T14:44:17.947Z</time></trkpt><trkpt lat="45.414551583280236" lon="14.003380772619586"><ele>266.0</ele><time>2026-04-11T14:44:18.947Z</time></trkpt><trkpt lat="45.41446065453645" lon="14.003337932117443"><ele>266.0</ele><time>2026-04-11T14:44:20.947Z</time></trkpt><trkpt lat="45.4143943263339" lon="14.00338817614552"><ele>266.0</ele><time>2026-04-11T14:44:22.947Z</time></trkpt><trkpt lat="45.41432607641712" lon="14.003479766141858"><ele>266.0</ele><time>2026-04-11T14:44:24.947Z</time></trkpt><trkpt lat="45.41427238105874" lon="14.003565173150456"><ele>266.0</ele><time>2026-04-11T14:44:25.947Z</time></trkpt><trkpt lat="45.41421549874684" lon="14.003659424270754"><ele>266.0</ele><time>2026-04-11T14:44:26.947Z</time></trkpt><trkpt lat="45.414153501925064" lon="14.003739946577646"><ele>266.0</ele><time>2026-04-11T14:44:27.947Z</time></trkpt><trkpt lat="45.41407915923703" lon="14.003830104538656"><ele>266.0</ele><time>2026-04-11T14:44:28.947Z</time></trkpt><trkpt lat="45.41400416855254" lon="14.003926636026156"><ele>266.0</ele><time>2026-04-11T14:44:29.947Z</time></trkpt><trkpt lat="45.41393145612322" lon="14.00402313160584"><ele>266.0</ele><time>2026-04-11T14:44:30.947Z</time></trkpt><trkpt lat="45.413871824353855" lon="14.004106654307538"><ele>267.0</ele><time>2026-04-11T14:44:31.947Z</time></trkpt><trkpt lat="45.41381788848704" lon="14.004174631596133"><ele>268.0</ele><time>2026-04-11T14:44:32.947Z</time></trkpt><trkpt lat="45.41375759546217" lon="14.004226491590714"><ele>269.0</ele><time>2026-04-11T14:44:33.947Z</time></trkpt><trkpt lat="45.413683267223476" lon="14.004283531032774"><ele>270.0</ele><time>2026-04-11T14:44:34.947Z</time></trkpt><trkpt lat="45.41359771822016" lon="14.00435612142422"><ele>271.0</ele><time>2026-04-11T14:44:35.947Z</time></trkpt><trkpt lat="45.41348718476325" lon="14.004421831805983"><ele>272.0</ele><time>2026-04-11T14:44:36.947Z</time></trkpt><trkpt lat="45.41337864653508" lon="14.00447830629329"><ele>272.0</ele><time>2026-04-11T14:44:37.947Z</time></trkpt><trkpt lat="45.41329012835523" lon="14.004527955111593"><ele>272.0</ele><time>2026-04-11T14:44:38.947Z</time></trkpt><trkpt lat="45.41322678347289" lon="14.004567743936832"><ele>272.0</ele><time>2026-04-11T14:44:39.947Z</time></trkpt><trkpt lat="45.41316223121705" lon="14.004576468356344"><ele>272.0</ele><time>2026-04-11T14:44:40.947Z</time></trkpt><trkpt lat="45.4131035657002" lon="14.004523171876516"><ele>272.0</ele><time>2026-04-11T14:44:41.947Z</time></trkpt><trkpt lat="45.413020138867424" lon="14.00448094690364"><ele>272.0</ele><time>2026-04-11T14:44:43.947Z</time></trkpt><trkpt lat="45.41289147392217" lon="14.004424047334227"><ele>271.83333333333337</ele><time>2026-04-11T14:44:45.947Z</time></trkpt><trkpt lat="45.412823720190836" lon="14.004368387832903"><ele>271.6666666666667</ele><time>2026-04-11T14:44:46.947Z</time></trkpt><trkpt lat="45.41275785914515" lon="14.004306767354214"><ele>271.5</ele><time>2026-04-11T14:44:47.947Z</time></trkpt><trkpt lat="45.41269118525969" lon="14.004231113397312"><ele>271.3333333333333</ele><time>2026-04-11T14:44:48.947Z</time></trkpt><trkpt lat="45.41260861108284" lon="14.004164521692006"><ele>271.16666666666663</ele><time>2026-04-11T14:44:49.947Z</time></trkpt><trkpt lat="45.41252476554703" lon="14.004091527846182"><ele>271.0</ele><time>2026-04-11T14:44:50.947Z</time></trkpt><trkpt lat="45.412441826125445" lon="14.004012463522134"><ele>271.0</ele><time>2026-04-11T14:44:51.947Z</time></trkpt><trkpt lat="45.41236123495352" lon="14.003955041556303"><ele>271.0</ele><time>2026-04-11T14:44:52.947Z</time></trkpt><trkpt lat="45.41228653357638" lon="14.003891823941405"><ele>271.0</ele><time>2026-04-11T14:44:53.947Z</time></trkpt><trkpt lat="45.412218617905076" lon="14.003818953114452"><ele>271.0</ele><time>2026-04-11T14:44:54.947Z</time></trkpt><trkpt lat="45.41215428515165" lon="14.003741796576927"><ele>271.0</ele><time>2026-04-11T14:44:55.947Z</time></trkpt><trkpt lat="45.412083116871386" lon="14.003668506088083"><ele>271.0</ele><time>2026-04-11T14:44:56.947Z</time></trkpt><trkpt lat="45.4120117358959" lon="14.00356556465758"><ele>271.40000000000003</ele><time>2026-04-11T14:44:57.947Z</time></trkpt><trkpt lat="45.41193250581152" lon="14.003468170172182"><ele>271.8</ele><time>2026-04-11T14:44:58.947Z</time></trkpt><trkpt lat="45.4118425491319" lon="14.003386426007298"><ele>272.20000000000005</ele><time>2026-04-11T14:44:59.947Z</time></trkpt><trkpt lat="45.41175142066067" lon="14.003326825293295"><ele>272.6</ele><time>2026-04-11T14:45:00.947Z</time></trkpt><trkpt lat="45.41164535012028" lon="14.00328309711302"><ele>273.0</ele><time>2026-04-11T14:45:01.947Z</time></trkpt><trkpt lat="45.41151982861446" lon="14.003259776266452"><ele>271.75</ele><time>2026-04-11T14:45:02.947Z</time></trkpt><trkpt lat="45.41138147097637" lon="14.003240344067304"><ele>270.5</ele><time>2026-04-11T14:45:03.947Z</time></trkpt><trkpt lat="45.41123849173911" lon="14.003174643975834"><ele>269.25</ele><time>2026-04-11T14:45:04.947Z</time></trkpt><trkpt lat="45.41110307664856" lon="14.003129902489826"><ele>268.0</ele><time>2026-04-11T14:45:05.947Z</time></trkpt><trkpt lat="45.410972809924" lon="14.003086809699742"><ele>267.75</ele><time>2026-04-11T14:45:06.948Z</time></trkpt><trkpt lat="45.41084878240698" lon="14.003052018267702"><ele>267.5</ele><time>2026-04-11T14:45:07.948Z</time></trkpt><trkpt lat="45.41072433574165" lon="14.00304548124386"><ele>267.25</ele><time>2026-04-11T14:45:08.948Z</time></trkpt><trkpt lat="45.41060197035686" lon="14.002996184447825"><ele>267.0</ele><time>2026-04-11T14:45:09.948Z</time></trkpt><trkpt lat="45.41048118020409" lon="14.003001203417382"><ele>265.75</ele><time>2026-04-11T14:45:10.948Z</time></trkpt><trkpt lat="45.4103606246504" lon="14.00298995174395"><ele>264.5</ele><time>2026-04-11T14:45:11.948Z</time></trkpt><trkpt lat="45.41024064275246" lon="14.002980546239813"><ele>263.25</ele><time>2026-04-11T14:45:12.948Z</time></trkpt><trkpt lat="45.41011615773653" lon="14.002966306609325"><ele>262.0</ele><time>2026-04-11T14:45:13.948Z</time></trkpt><trkpt lat="45.40999031920358" lon="14.002917537985207"><ele>262.0</ele><time>2026-04-11T14:45:14.948Z</time></trkpt><trkpt lat="45.409870045829706" lon="14.002868198765572"><ele>262.0</ele><time>2026-04-11T14:45:15.948Z</time></trkpt><trkpt lat="45.40975018965061" lon="14.002809575067733"><ele>262.0</ele><time>2026-04-11T14:45:16.948Z</time></trkpt><trkpt lat="45.40962931321241" lon="14.002777666788132"><ele>262.0</ele><time>2026-04-11T14:45:17.948Z</time></trkpt><trkpt lat="45.40951737509142" lon="14.00273913898745"><ele>259.4</ele><time>2026-04-11T14:45:18.948Z</time></trkpt><trkpt lat="45.40942312932451" lon="14.002760417284806"><ele>256.79999999999995</ele><time>2026-04-11T14:45:19.948Z</time></trkpt><trkpt lat="45.40933242302557" lon="14.002811937099723"><ele>254.2</ele><time>2026-04-11T14:45:20.948Z</time></trkpt><trkpt lat="45.40925127726286" lon="14.002874004741216"><ele>251.6</ele><time>2026-04-11T14:45:21.948Z</time></trkpt><trkpt lat="45.409170281183584" lon="14.002961389647215"><ele>249.0</ele><time>2026-04-11T14:45:22.948Z</time></trkpt><trkpt lat="45.40906786241847" lon="14.003020379133199"><ele>249.0</ele><time>2026-04-11T14:45:23.948Z</time></trkpt><trkpt lat="45.40896424454231" lon="14.003106795763161"><ele>249.0</ele><time>2026-04-11T14:45:24.948Z</time></trkpt><trkpt lat="45.40885596136004" lon="14.00319930684968"><ele>249.0</ele><time>2026-04-11T14:45:25.948Z</time></trkpt><trkpt lat="45.40873881396528" lon="14.003294263353515"><ele>249.0</ele><time>2026-04-11T14:45:26.948Z</time></trkpt><trkpt lat="45.408616642497876" lon="14.003378513357692"><ele>249.5</ele><time>2026-04-11T14:45:27.948Z</time></trkpt><trkpt lat="45.40850227114547" lon="14.003476260321836"><ele>250.0</ele><time>2026-04-11T14:45:28.948Z</time></trkpt><trkpt lat="45.40839628589014" lon="14.003588261874683"><ele>250.5</ele><time>2026-04-11T14:45:29.948Z</time></trkpt><trkpt lat="45.40827956445017" lon="14.003687416661442"><ele>251.0</ele><time>2026-04-11T14:45:30.948Z</time></trkpt><trkpt lat="45.40818662370687" lon="14.003812347002944"><ele>251.0</ele><time>2026-04-11T14:45:31.948Z</time></trkpt><trkpt lat="45.40807791203117" lon="14.003910584963915"><ele>251.0</ele><time>2026-04-11T14:45:32.948Z</time></trkpt><trkpt lat="45.407967670885654" lon="14.004018264258887"><ele>251.0</ele><time>2026-04-11T14:45:33.948Z</time></trkpt><trkpt lat="45.40786283433773" lon="14.004111301123189"><ele>251.0</ele><time>2026-04-11T14:45:34.948Z</time></trkpt><trkpt lat="45.40775608136153" lon="14.004206151190603"><ele>250.20000000000002</ele><time>2026-04-11T14:45:35.948Z</time></trkpt><trkpt lat="45.40766277803735" lon="14.00429734134779"><ele>249.40000000000003</ele><time>2026-04-11T14:45:36.948Z</time></trkpt><trkpt lat="45.40757058670116" lon="14.00439888473605"><ele>248.6</ele><time>2026-04-11T14:45:37.948Z</time></trkpt><trkpt lat="45.40747710750307" lon="14.004479778119977"><ele>247.8</ele><time>2026-04-11T14:45:38.948Z</time></trkpt><trkpt lat="45.40739454584412" lon="14.004566701608331"><ele>247.0</ele><time>2026-04-11T14:45:39.948Z</time></trkpt><trkpt lat="45.407308694102895" lon="14.004660316135848"><ele>247.0</ele><time>2026-04-11T14:45:40.948Z</time></trkpt><trkpt lat="45.40724704832969" lon="14.004789826612528"><ele>247.0</ele><time>2026-04-11T14:45:41.948Z</time></trkpt><trkpt lat="45.407190001349015" lon="14.004927358391885"><ele>247.0</ele><time>2026-04-11T14:45:42.948Z</time></trkpt><trkpt lat="45.40710198607164" lon="14.005041069293224"><ele>247.0</ele><time>2026-04-11T14:45:43.948Z</time></trkpt><trkpt lat="45.4070556463786" lon="14.005178490828637"><ele>247.0</ele><time>2026-04-11T14:45:44.948Z</time></trkpt><trkpt lat="45.40702763922187" lon="14.005332762342997"><ele>247.2</ele><time>2026-04-11T14:45:45.948Z</time></trkpt><trkpt lat="45.40699775034112" lon="14.00548651404079"><ele>247.39999999999998</ele><time>2026-04-11T14:45:46.948Z</time></trkpt><trkpt lat="45.40697284896582" lon="14.005624699477393"><ele>247.60000000000002</ele><time>2026-04-11T14:45:47.948Z</time></trkpt><trkpt lat="45.406947188973504" lon="14.005749904611731"><ele>247.8</ele><time>2026-04-11T14:45:48.948Z</time></trkpt><trkpt lat="45.40692175146896" lon="14.005871812473135"><ele>248.0</ele><time>2026-04-11T14:45:49.948Z</time></trkpt><trkpt lat="45.40689254929734" lon="14.005973179926025"><ele>248.00000000000003</ele><time>2026-04-11T14:45:51.949Z</time></trkpt><trkpt lat="45.40684592738741" lon="14.006035947517114"><ele>248.0</ele><time>2026-04-11T14:45:56.949Z</time></trkpt><trkpt lat="45.406871655397296" lon="14.00592734551776"><ele>248.0</ele><time>2026-04-11T14:46:08.949Z</time></trkpt><trkpt lat="45.406911981925305" lon="14.005795424351213"><ele>248.0</ele><time>2026-04-11T14:46:10.949Z</time></trkpt><trkpt lat="45.40694066118166" lon="14.005681551966223"><ele>248.00000000000003</ele><time>2026-04-11T14:46:11.949Z</time></trkpt><trkpt lat="45.40696665180523" lon="14.005568399729382"><ele>248.0</ele><time>2026-04-11T14:46:12.949Z</time></trkpt><trkpt lat="45.40699076412032" lon="14.00544595545946"><ele>244.16666666666669</ele><time>2026-04-11T14:46:13.949Z</time></trkpt><trkpt lat="45.40701338482528" lon="14.005338800357709"><ele>240.33333333333334</ele><time>2026-04-11T14:46:14.949Z</time></trkpt><trkpt lat="45.40694370933485" lon="14.0051934523111"><ele>236.5</ele><time>2026-04-11T14:46:15.949Z</time></trkpt><trkpt lat="45.40695631575866" lon="14.005074531541082"><ele>232.66666666666669</ele><time>2026-04-11T14:46:16.949Z</time></trkpt><trkpt lat="45.40696263203546" lon="14.004963403462662"><ele>228.83333333333334</ele><time>2026-04-11T14:46:17.949Z</time></trkpt><trkpt lat="45.40697470135764" lon="14.004863420185098"><ele>225.0</ele><time>2026-04-11T14:46:18.949Z</time></trkpt><trkpt lat="45.40699783010301" lon="14.004717923039097"><ele>223.0</ele><time>2026-04-11T14:46:20.949Z</time></trkpt><trkpt lat="45.40701167599414" lon="14.004570438770353"><ele>221.0</ele><time>2026-04-11T14:46:22.949Z</time></trkpt><trkpt lat="45.40706742939445" lon="14.004414945882173"><ele>219.0</ele><time>2026-04-11T14:46:24.949Z</time></trkpt><trkpt lat="45.40709419939381" lon="14.004329769146777"><ele>217.0</ele><time>2026-04-11T14:46:25.949Z</time></trkpt><trkpt lat="45.407110008966995" lon="14.004234727160801"><ele>215.0</ele><time>2026-04-11T14:46:26.949Z</time></trkpt><trkpt lat="45.407121439607" lon="14.004131887518403"><ele>213.0</ele><time>2026-04-11T14:46:27.949Z</time></trkpt><trkpt lat="45.40712055531113" lon="14.004037953089"><ele>212.8</ele><time>2026-04-11T14:46:28.949Z</time></trkpt><trkpt lat="45.40710338887401" lon="14.003918514511096"><ele>212.60000000000002</ele><time>2026-04-11T14:46:29.949Z</time></trkpt><trkpt lat="45.4070778049246" lon="14.003770725536652"><ele>212.39999999999998</ele><time>2026-04-11T14:46:30.949Z</time></trkpt><trkpt lat="45.40704535807658" lon="14.003618990211242"><ele>212.2</ele><time>2026-04-11T14:46:31.949Z</time></trkpt><trkpt lat="45.40700450661958" lon="14.003477732003617"><ele>212.0</ele><time>2026-04-11T14:46:32.949Z</time></trkpt><trkpt lat="45.40697474320094" lon="14.003331945864403"><ele>213.2</ele><time>2026-04-11T14:46:33.949Z</time></trkpt><trkpt lat="45.406949584057145" lon="14.003193683776026"><ele>214.39999999999998</ele><time>2026-04-11T14:46:34.949Z</time></trkpt><trkpt lat="45.40693808446212" lon="14.00303920319273"><ele>215.60000000000002</ele><time>2026-04-11T14:46:35.949Z</time></trkpt><trkpt lat="45.406935852132484" lon="14.00288594901866"><ele>216.8</ele><time>2026-04-11T14:46:36.949Z</time></trkpt><trkpt lat="45.40693318529826" lon="14.002726610326475"><ele>218.0</ele><time>2026-04-11T14:46:37.949Z</time></trkpt><trkpt lat="45.40692283170416" lon="14.002557258071736"><ele>216.2</ele><time>2026-04-11T14:46:38.949Z</time></trkpt><trkpt lat="45.40690265767177" lon="14.002423368845513"><ele>214.4</ele><time>2026-04-11T14:46:39.949Z</time></trkpt><trkpt lat="45.4069048598191" lon="14.002329704227641"><ele>212.6</ele><time>2026-04-11T14:46:40.949Z</time></trkpt><trkpt lat="45.406952374635786" lon="14.002174970617572"><ele>210.79999999999998</ele><time>2026-04-11T14:46:42.949Z</time></trkpt><trkpt lat="45.40700457187593" lon="14.002057748779722"><ele>209.0</ele><time>2026-04-11T14:46:43.949Z</time></trkpt><trkpt lat="45.40707111180936" lon="14.001902496887382"><ele>209.0</ele><time>2026-04-11T14:46:44.949Z</time></trkpt><trkpt lat="45.4071488094981" lon="14.001706668898379"><ele>209.0</ele><time>2026-04-11T14:46:45.949Z</time></trkpt><trkpt lat="45.407223907903955" lon="14.00152457608551"><ele>209.0</ele><time>2026-04-11T14:46:46.949Z</time></trkpt><trkpt lat="45.407295723561376" lon="14.001384563535238"><ele>209.0</ele><time>2026-04-11T14:46:47.949Z</time></trkpt><trkpt lat="45.40734399714936" lon="14.00124182811669"><ele>212.0</ele><time>2026-04-11T14:46:48.949Z</time></trkpt><trkpt lat="45.407371727847455" lon="14.001098173964763"><ele>215.0</ele><time>2026-04-11T14:46:49.949Z</time></trkpt><trkpt lat="45.40737784237556" lon="14.000953121069951"><ele>217.99999999999997</ele><time>2026-04-11T14:46:50.949Z</time></trkpt><trkpt lat="45.40735729666317" lon="14.000797265271391"><ele>221.0</ele><time>2026-04-11T14:46:51.949Z</time></trkpt><trkpt lat="45.407374249005066" lon="14.000640006277273"><ele>224.0</ele><time>2026-04-11T14:46:52.949Z</time></trkpt><trkpt lat="45.407377817239855" lon="14.000502196769345"><ele>224.6</ele><time>2026-04-11T14:46:53.949Z</time></trkpt><trkpt lat="45.407381295137924" lon="14.000389656179832"><ele>225.2</ele><time>2026-04-11T14:46:54.949Z</time></trkpt><trkpt lat="45.4073930509066" lon="14.000275595961678"><ele>225.79999999999998</ele><time>2026-04-11T14:46:55.949Z</time></trkpt><trkpt lat="45.40739668393475" lon="14.00014887082974"><ele>226.39999999999998</ele><time>2026-04-11T14:46:56.949Z</time></trkpt><trkpt lat="45.40743689446189" lon="13.999991536043172"><ele>227.0</ele><time>2026-04-11T14:46:57.949Z</time></trkpt><trkpt lat="45.407484809705544" lon="13.999812060583666"><ele>227.0</ele><time>2026-04-11T14:46:58.949Z</time></trkpt><trkpt lat="45.40753930574639" lon="13.999661675130652"><ele>227.0</ele><time>2026-04-11T14:46:59.949Z</time></trkpt><trkpt lat="45.407599164873105" lon="13.999533610607882"><ele>227.0</ele><time>2026-04-11T14:47:00.949Z</time></trkpt><trkpt lat="45.407673909253795" lon="13.999425416220811"><ele>227.0</ele><time>2026-04-11T14:47:01.949Z</time></trkpt><trkpt lat="45.407741439991526" lon="13.999306201383057"><ele>227.0</ele><time>2026-04-11T14:47:02.949Z</time></trkpt><trkpt lat="45.40781978042142" lon="13.999250479043132"><ele>227.00000000000003</ele><time>2026-04-11T14:47:03.949Z</time></trkpt><trkpt lat="45.407879484251794" lon="13.999183341423251"><ele>227.0</ele><time>2026-04-11T14:47:04.949Z</time></trkpt><trkpt lat="45.407938931178506" lon="13.999111394383398"><ele>227.0</ele><time>2026-04-11T14:47:05.949Z</time></trkpt><trkpt lat="45.407990844835275" lon="13.999030638330561"><ele>227.0</ele><time>2026-04-11T14:47:06.949Z</time></trkpt><trkpt lat="45.408034432622884" lon="13.998924399538462"><ele>227.00000000000003</ele><time>2026-04-11T14:47:07.949Z</time></trkpt><trkpt lat="45.408056381133996" lon="13.998809090517016"><ele>227.0</ele><time>2026-04-11T14:47:08.949Z</time></trkpt><trkpt lat="45.40806715866022" lon="13.998662671973442"><ele>225.5</ele><time>2026-04-11T14:47:09.949Z</time></trkpt><trkpt lat="45.408079663997114" lon="13.998493192106153"><ele>224.0</ele><time>2026-04-11T14:47:10.949Z</time></trkpt><trkpt lat="45.40811864552079" lon="13.99832604902929"><ele>222.5</ele><time>2026-04-11T14:47:11.949Z</time></trkpt><trkpt lat="45.408149989003384" lon="13.998177216816961"><ele>221.0</ele><time>2026-04-11T14:47:12.949Z</time></trkpt><trkpt lat="45.408185809241346" lon="13.998032821638382"><ele>221.00000000000003</ele><time>2026-04-11T14:47:13.949Z</time></trkpt><trkpt lat="45.40822739470758" lon="13.997918707970026"><ele>221.0</ele><time>2026-04-11T14:47:14.949Z</time></trkpt><trkpt lat="45.40827763445609" lon="13.997814464967906"><ele>221.0</ele><time>2026-04-11T14:47:15.949Z</time></trkpt><trkpt lat="45.40833538711406" lon="13.997740176668954"><ele>221.0</ele><time>2026-04-11T14:47:16.949Z</time></trkpt><trkpt lat="45.408399700882875" lon="13.997691906266626"><ele>221.00000000000003</ele><time>2026-04-11T14:47:17.949Z</time></trkpt><trkpt lat="45.408491803781395" lon="13.997613823002458"><ele>221.0</ele><time>2026-04-11T14:47:18.949Z</time></trkpt><trkpt lat="45.408578605509184" lon="13.997490673931818"><ele>224.25</ele><time>2026-04-11T14:47:19.949Z</time></trkpt><trkpt lat="45.40865832385563" lon="13.997357628361899"><ele>227.5</ele><time>2026-04-11T14:47:20.949Z</time></trkpt><trkpt lat="45.40872420019337" lon="13.997217024041285"><ele>230.75</ele><time>2026-04-11T14:47:21.949Z</time></trkpt><trkpt lat="45.40878838121104" lon="13.997089302288835"><ele>234.0</ele><time>2026-04-11T14:47:22.949Z</time></trkpt><trkpt lat="45.408859905821025" lon="13.996960208585904"><ele>228.0</ele><time>2026-04-11T14:47:23.949Z</time></trkpt><trkpt lat="45.408937053247854" lon="13.996816326167496"><ele>222.0</ele><time>2026-04-11T14:47:24.949Z</time></trkpt><trkpt lat="45.40903355848015" lon="13.996671546980854"><ele>216.0</ele><time>2026-04-11T14:47:25.949Z</time></trkpt><trkpt lat="45.40911009904733" lon="13.99651434427006"><ele>210.0</ele><time>2026-04-11T14:47:26.949Z</time></trkpt><trkpt lat="45.40918275371769" lon="13.99635109085425"><ele>210.0</ele><time>2026-04-11T14:47:27.949Z</time></trkpt><trkpt lat="45.40924716487043" lon="13.996206980480336"><ele>210.0</ele><time>2026-04-11T14:47:28.949Z</time></trkpt><trkpt lat="45.409292742066114" lon="13.996064651531052"><ele>210.0</ele><time>2026-04-11T14:47:29.949Z</time></trkpt><trkpt lat="45.40933918593867" lon="13.995955943559881"><ele>210.0</ele><time>2026-04-11T14:47:30.949Z</time></trkpt><trkpt lat="45.40940499668256" lon="13.9958068494"><ele>210.0</ele><time>2026-04-11T14:47:32.949Z</time></trkpt><trkpt lat="45.40945195895188" lon="13.995736245316047"><ele>211.6</ele><time>2026-04-11T14:47:33.948Z</time></trkpt><trkpt lat="45.40947361791486" lon="13.995643410760573"><ele>213.2</ele><time>2026-04-11T14:47:34.948Z</time></trkpt><trkpt lat="45.409476145139635" lon="13.995522744010332"><ele>214.8</ele><time>2026-04-11T14:47:35.948Z</time></trkpt><trkpt lat="45.409454120911626" lon="13.995389628135722"><ele>216.4</ele><time>2026-04-11T14:47:36.948Z</time></trkpt><trkpt lat="45.40942381335319" lon="13.9952191120162"><ele>218.0</ele><time>2026-04-11T14:47:37.948Z</time></trkpt><trkpt lat="45.40940973155292" lon="13.995029800369597"><ele>219.0</ele><time>2026-04-11T14:47:38.948Z</time></trkpt><trkpt lat="45.40939877268677" lon="13.994879740949644"><ele>220.0</ele><time>2026-04-11T14:47:39.948Z</time></trkpt><trkpt lat="45.4094032780822" lon="13.99472059050171"><ele>221.0</ele><time>2026-04-11T14:47:40.948Z</time></trkpt><trkpt lat="45.409416090324385" lon="13.99457251920327"><ele>222.0</ele><time>2026-04-11T14:47:41.948Z</time></trkpt><trkpt lat="45.409424280039" lon="13.994416329143014"><ele>223.0</ele><time>2026-04-11T14:47:42.948Z</time></trkpt><trkpt lat="45.40943632529087" lon="13.994269104781942"><ele>221.60000000000002</ele><time>2026-04-11T14:47:43.948Z</time></trkpt><trkpt lat="45.40944782954627" lon="13.99413979712655"><ele>220.20000000000002</ele><time>2026-04-11T14:47:44.948Z</time></trkpt><trkpt lat="45.40945769910882" lon="13.994011161357873"><ele>218.8</ele><time>2026-04-11T14:47:45.948Z</time></trkpt><trkpt lat="45.40947463016644" lon="13.993889205377691"><ele>217.4</ele><time>2026-04-11T14:47:46.948Z</time></trkpt><trkpt lat="45.40948376438146" lon="13.993744502871085"><ele>216.0</ele><time>2026-04-11T14:47:47.948Z</time></trkpt><trkpt lat="45.40945047261256" lon="13.993593896841336"><ele>216.0</ele><time>2026-04-11T14:47:48.948Z</time></trkpt><trkpt lat="45.4094436534981" lon="13.993459061645243"><ele>216.00000000000003</ele><time>2026-04-11T14:47:49.948Z</time></trkpt><trkpt lat="45.409429512947554" lon="13.993310122169975"><ele>216.00000000000003</ele><time>2026-04-11T14:47:50.948Z</time></trkpt><trkpt lat="45.409448774178166" lon="13.993149725705635"><ele>216.0</ele><time>2026-04-11T14:47:51.948Z</time></trkpt><trkpt lat="45.40945673463608" lon="13.992991811560016"><ele>216.0</ele><time>2026-04-11T14:47:52.948Z</time></trkpt><trkpt lat="45.409461009773395" lon="13.992864164345416"><ele>214.5</ele><time>2026-04-11T14:47:53.948Z</time></trkpt><trkpt lat="45.40945460963314" lon="13.992763489839504"><ele>213.0</ele><time>2026-04-11T14:47:54.948Z</time></trkpt><trkpt lat="45.40946311978005" lon="13.992661456125415"><ele>211.5</ele><time>2026-04-11T14:47:55.948Z</time></trkpt><trkpt lat="45.409479180468075" lon="13.99255877075416"><ele>210.0</ele><time>2026-04-11T14:47:56.948Z</time></trkpt><trkpt lat="45.40949731726172" lon="13.992431121468002"><ele>208.5</ele><time>2026-04-11T14:47:57.949Z</time></trkpt><trkpt lat="45.409554198064754" lon="13.992304269354134"><ele>207.0</ele><time>2026-04-11T14:47:58.949Z</time></trkpt><trkpt lat="45.409631655813854" lon="13.992211422354293"><ele>202.8</ele><time>2026-04-11T14:47:59.949Z</time></trkpt><trkpt lat="45.40972491637311" lon="13.992101469732791"><ele>198.6</ele><time>2026-04-11T14:48:00.949Z</time></trkpt><trkpt lat="45.409820327391486" lon="13.992003525682042"><ele>194.4</ele><time>2026-04-11T14:48:01.948Z</time></trkpt><trkpt lat="45.409893312133725" lon="13.991908324119334"><ele>190.20000000000002</ele><time>2026-04-11T14:48:02.948Z</time></trkpt><trkpt lat="45.40996635350545" lon="13.991805641842848"><ele>186.0</ele><time>2026-04-11T14:48:03.948Z</time></trkpt><trkpt lat="45.41004135413255" lon="13.991704566976948"><ele>187.20000000000002</ele><time>2026-04-11T14:48:04.949Z</time></trkpt><trkpt lat="45.41008917902651" lon="13.991574531277164"><ele>188.4</ele><time>2026-04-11T14:48:05.949Z</time></trkpt><trkpt lat="45.41011502809943" lon="13.991413315747286"><ele>189.6</ele><time>2026-04-11T14:48:06.948Z</time></trkpt><trkpt lat="45.41012545327409" lon="13.99124487068864"><ele>190.8</ele><time>2026-04-11T14:48:07.949Z</time></trkpt><trkpt lat="45.41012096668019" lon="13.991104371257611"><ele>192.0</ele><time>2026-04-11T14:48:08.949Z</time></trkpt><trkpt lat="45.41012129973505" lon="13.990982434780738"><ele>192.0</ele><time>2026-04-11T14:48:09.949Z</time></trkpt><trkpt lat="45.41012667764454" lon="13.990859228575177"><ele>192.0</ele><time>2026-04-11T14:48:10.949Z</time></trkpt><trkpt lat="45.41012439098143" lon="13.99071127592764"><ele>192.0</ele><time>2026-04-11T14:48:11.948Z</time></trkpt><trkpt lat="45.4101150830729" lon="13.990571405701631"><ele>192.0</ele><time>2026-04-11T14:48:12.948Z</time></trkpt><trkpt lat="45.41010496633417" lon="13.990424459455364"><ele>192.0</ele><time>2026-04-11T14:48:13.948Z</time></trkpt><trkpt lat="45.41010184550528" lon="13.990288855328476"><ele>191.5</ele><time>2026-04-11T14:48:14.948Z</time></trkpt><trkpt lat="45.41012155084493" lon="13.990161781784463"><ele>191.0</ele><time>2026-04-11T14:48:15.948Z</time></trkpt><trkpt lat="45.41013117397601" lon="13.989898819053002"><ele>190.5</ele><time>2026-04-11T14:48:17.948Z</time></trkpt><trkpt lat="45.41013995049535" lon="13.989785424489751"><ele>190.0</ele><time>2026-04-11T14:48:18.948Z</time></trkpt><trkpt lat="45.410149128504386" lon="13.989642670582713"><ele>187.4</ele><time>2026-04-11T14:48:19.948Z</time></trkpt><trkpt lat="45.41013069646988" lon="13.989503083705866"><ele>184.8</ele><time>2026-04-11T14:48:20.948Z</time></trkpt><trkpt lat="45.41011080930708" lon="13.9893323155022"><ele>182.2</ele><time>2026-04-11T14:48:21.948Z</time></trkpt><trkpt lat="45.41010578556123" lon="13.989204404930927"><ele>179.6</ele><time>2026-04-11T14:48:22.948Z</time></trkpt><trkpt lat="45.41009120964395" lon="13.98909285627683"><ele>177.0</ele><time>2026-04-11T14:48:23.948Z</time></trkpt><trkpt lat="45.41005888270334" lon="13.988991463003536"><ele>175.16666666666666</ele><time>2026-04-11T14:48:24.948Z</time></trkpt><trkpt lat="45.410052042814776" lon="13.988895841294424"><ele>173.33333333333334</ele><time>2026-04-11T14:48:25.948Z</time></trkpt><trkpt lat="45.410041632819926" lon="13.988786311793563"><ele>171.5</ele><time>2026-04-11T14:48:26.948Z</time></trkpt><trkpt lat="45.410056321069824" lon="13.988675238325756"><ele>169.66666666666669</ele><time>2026-04-11T14:48:27.948Z</time></trkpt><trkpt lat="45.4100832691141" lon="13.988568366185364"><ele>167.83333333333334</ele><time>2026-04-11T14:48:28.948Z</time></trkpt><trkpt lat="45.410124349155964" lon="13.98846244339134"><ele>166.0</ele><time>2026-04-11T14:48:29.948Z</time></trkpt><trkpt lat="45.4101662810533" lon="13.988353349424884"><ele>164.66666666666669</ele><time>2026-04-11T14:48:30.948Z</time></trkpt><trkpt lat="45.41021598148963" lon="13.988248688407971"><ele>163.33333333333334</ele><time>2026-04-11T14:48:31.948Z</time></trkpt><trkpt lat="45.41026063979878" lon="13.988146997263605"><ele>162.0</ele><time>2026-04-11T14:48:32.948Z</time></trkpt><trkpt lat="45.4103030465276" lon="13.988037193765777"><ele>160.66666666666666</ele><time>2026-04-11T14:48:33.948Z</time></trkpt><trkpt lat="45.41034402384399" lon="13.98791761842203"><ele>159.33333333333331</ele><time>2026-04-11T14:48:34.948Z</time></trkpt><trkpt lat="45.410379378201405" lon="13.98779807352262"><ele>158.0</ele><time>2026-04-11T14:48:35.948Z</time></trkpt><trkpt lat="45.41041223392928" lon="13.987701506993304"><ele>158.0</ele><time>2026-04-11T14:48:36.948Z</time></trkpt><trkpt lat="45.41043282265281" lon="13.98761543100245"><ele>158.0</ele><time>2026-04-11T14:48:37.948Z</time></trkpt><trkpt lat="45.41043400242752" lon="13.987520341372235"><ele>158.0</ele><time>2026-04-11T14:48:38.948Z</time></trkpt><trkpt lat="45.410395685673436" lon="13.987350998093978"><ele>158.0</ele><time>2026-04-11T14:48:40.948Z</time></trkpt><trkpt lat="45.41036122065389" lon="13.987256003270334"><ele>158.0</ele><time>2026-04-11T14:48:41.948Z</time></trkpt><trkpt lat="45.41030799628098" lon="13.98716444985004"><ele>158.0</ele><time>2026-04-11T14:48:42.948Z</time></trkpt><trkpt lat="45.41025211339105" lon="13.987100940524032"><ele>155.5</ele><time>2026-04-11T14:48:43.948Z</time></trkpt><trkpt lat="45.410203810864004" lon="13.987016160317074"><ele>153.0</ele><time>2026-04-11T14:48:44.948Z</time></trkpt><trkpt lat="45.41016879471846" lon="13.986911674026947"><ele>150.5</ele><time>2026-04-11T14:48:45.948Z</time></trkpt><trkpt lat="45.41014047607557" lon="13.986729487749102"><ele>148.0</ele><time>2026-04-11T14:48:47.948Z</time></trkpt><trkpt lat="45.41014347577831" lon="13.986619043654404"><ele>145.5</ele><time>2026-04-11T14:48:48.948Z</time></trkpt><trkpt lat="45.41014952535176" lon="13.986523036535742"><ele>143.0</ele><time>2026-04-11T14:48:49.948Z</time></trkpt><trkpt lat="45.410145661285526" lon="13.986420982812854"><ele>141.66666666666666</ele><time>2026-04-11T14:48:50.948Z</time></trkpt><trkpt lat="45.41013725507901" lon="13.986306166245958"><ele>140.33333333333331</ele><time>2026-04-11T14:48:51.948Z</time></trkpt><trkpt lat="45.410133729975506" lon="13.98617715101793"><ele>139.0</ele><time>2026-04-11T14:48:52.948Z</time></trkpt><trkpt lat="45.41013520800174" lon="13.986046137014933"><ele>137.66666666666666</ele><time>2026-04-11T14:48:53.948Z</time></trkpt><trkpt lat="45.41016135651475" lon="13.985930492765036"><ele>136.33333333333334</ele><time>2026-04-11T14:48:54.948Z</time></trkpt><trkpt lat="45.41019040716822" lon="13.98580861094242"><ele>135.0</ele><time>2026-04-11T14:48:55.948Z</time></trkpt><trkpt lat="45.410212973769454" lon="13.985707693530651"><ele>132.8</ele><time>2026-04-11T14:48:56.948Z</time></trkpt><trkpt lat="45.410230266609744" lon="13.98561259510922"><ele>130.6</ele><time>2026-04-11T14:48:57.948Z</time></trkpt><trkpt lat="45.41026831560565" lon="13.985430608527864"><ele>128.4</ele><time>2026-04-11T14:48:59.948Z</time></trkpt><trkpt lat="45.41026047183573" lon="13.985305314788514"><ele>126.2</ele><time>2026-04-11T14:49:00.948Z</time></trkpt><trkpt lat="45.410241360222095" lon="13.985160672861635"><ele>124.0</ele><time>2026-04-11T14:49:01.948Z</time></trkpt><trkpt lat="45.41021160562212" lon="13.985011560007845"><ele>121.4</ele><time>2026-04-11T14:49:02.948Z</time></trkpt><trkpt lat="45.410207126761286" lon="13.984876933042637"><ele>118.80000000000001</ele><time>2026-04-11T14:49:03.948Z</time></trkpt><trkpt lat="45.41020914638966" lon="13.984747133116905"><ele>116.19999999999999</ele><time>2026-04-11T14:49:04.948Z</time></trkpt><trkpt lat="45.410220279771835" lon="13.984628503386821"><ele>113.6</ele><time>2026-04-11T14:49:05.948Z</time></trkpt><trkpt lat="45.410221852342225" lon="13.984499963735567"><ele>111.0</ele><time>2026-04-11T14:49:06.948Z</time></trkpt><trkpt lat="45.4102220579636" lon="13.984366545255678"><ele>111.0</ele><time>2026-04-11T14:49:07.948Z</time></trkpt><trkpt lat="45.41021926574018" lon="13.9842187494149"><ele>111.0</ele><time>2026-04-11T14:49:08.948Z</time></trkpt><trkpt lat="45.410198334643695" lon="13.984048010720269"><ele>111.0</ele><time>2026-04-11T14:49:09.948Z</time></trkpt><trkpt lat="45.4101739230132" lon="13.98389210716137"><ele>111.0</ele><time>2026-04-11T14:49:10.948Z</time></trkpt><trkpt lat="45.41015091385877" lon="13.983759867626615"><ele>111.0</ele><time>2026-04-11T14:49:11.948Z</time></trkpt><trkpt lat="45.410132058773534" lon="13.983631966217644"><ele>110.5</ele><time>2026-04-11T14:49:12.948Z</time></trkpt><trkpt lat="45.410113526372946" lon="13.983518208485455"><ele>110.0</ele><time>2026-04-11T14:49:13.948Z</time></trkpt><trkpt lat="45.4100862126148" lon="13.983401114401675"><ele>109.5</ele><time>2026-04-11T14:49:14.948Z</time></trkpt><trkpt lat="45.41005403280476" lon="13.983267493195882"><ele>109.0</ele><time>2026-04-11T14:49:15.948Z</time></trkpt><trkpt lat="45.410022181860455" lon="13.983142555318961"><ele>108.5</ele><time>2026-04-11T14:49:16.948Z</time></trkpt><trkpt lat="45.40999248121667" lon="13.983051299136743"><ele>108.0</ele><time>2026-04-11T14:49:17.948Z</time></trkpt><trkpt lat="45.409958578958424" lon="13.982957117001611"><ele>108.0</ele><time>2026-04-11T14:49:18.948Z</time></trkpt><trkpt lat="45.40994870911913" lon="13.98281995380469"><ele>108.00000000000001</ele><time>2026-04-11T14:49:19.948Z</time></trkpt><trkpt lat="45.409908623366995" lon="13.982689865523078"><ele>108.00000000000001</ele><time>2026-04-11T14:49:20.948Z</time></trkpt><trkpt lat="45.409868753341875" lon="13.982551312493403"><ele>108.0</ele><time>2026-04-11T14:49:21.948Z</time></trkpt><trkpt lat="45.40983610584032" lon="13.982423978115053"><ele>108.0</ele><time>2026-04-11T14:49:22.948Z</time></trkpt><trkpt lat="45.40977358400381" lon="13.982277340180868"><ele>109.25</ele><time>2026-04-11T14:49:23.948Z</time></trkpt><trkpt lat="45.409739262276936" lon="13.982105685252975"><ele>110.5</ele><time>2026-04-11T14:49:24.948Z</time></trkpt><trkpt lat="45.409698224309714" lon="13.98191894590577"><ele>111.75</ele><time>2026-04-11T14:49:25.948Z</time></trkpt><trkpt lat="45.40965254476011" lon="13.981718955378012"><ele>113.0</ele><time>2026-04-11T14:49:26.948Z</time></trkpt><trkpt lat="45.40961640700189" lon="13.981499383476761"><ele>108.5</ele><time>2026-04-11T14:49:27.948Z</time></trkpt><trkpt lat="45.40957166551339" lon="13.981293462750942"><ele>104.0</ele><time>2026-04-11T14:49:28.948Z</time></trkpt><trkpt lat="45.409531604125476" lon="13.981100807160713"><ele>99.5</ele><time>2026-04-11T14:49:29.948Z</time></trkpt><trkpt lat="45.409496573670616" lon="13.980916338066473"><ele>95.0</ele><time>2026-04-11T14:49:30.948Z</time></trkpt><trkpt lat="45.40945047483447" lon="13.980738593703107"><ele>95.0</ele><time>2026-04-11T14:49:31.948Z</time></trkpt><trkpt lat="45.40941596259158" lon="13.98057877191128"><ele>95.0</ele><time>2026-04-11T14:49:32.948Z</time></trkpt><trkpt lat="45.4093877503576" lon="13.980443912958306"><ele>95.0</ele><time>2026-04-11T14:49:33.948Z</time></trkpt><trkpt lat="45.409373160091235" lon="13.980348145750717"><ele>95.0</ele><time>2026-04-11T14:49:34.948Z</time></trkpt><trkpt lat="45.40933882820673" lon="13.98021054504136"><ele>95.0</ele><time>2026-04-11T14:49:36.948Z</time></trkpt><trkpt lat="45.4092882179348" lon="13.980090025663255"><ele>95.0</ele><time>2026-04-11T14:49:38.948Z</time></trkpt><trkpt lat="45.409156544427844" lon="13.98005374494059"><ele>95.0</ele><time>2026-04-11T14:49:40.948Z</time></trkpt><trkpt lat="45.40908122819391" lon="13.980080624194617"><ele>95.0</ele><time>2026-04-11T14:49:41.948Z</time></trkpt><trkpt lat="45.408982247214446" lon="13.980095246846325"><ele>95.0</ele><time>2026-04-11T14:49:42.948Z</time></trkpt><trkpt lat="45.40886873616261" lon="13.980104604261028"><ele>95.0</ele><time>2026-04-11T14:49:43.948Z</time></trkpt><trkpt lat="45.408764001252166" lon="13.980089542513868"><ele>95.0</ele><time>2026-04-11T14:49:44.948Z</time></trkpt><trkpt lat="45.408645672370575" lon="13.980045146358947"><ele>95.0</ele><time>2026-04-11T14:49:45.948Z</time></trkpt><trkpt lat="45.40850876218034" lon="13.979989269579294"><ele>95.0</ele><time>2026-04-11T14:49:46.948Z</time></trkpt><trkpt lat="45.40837489200884" lon="13.979935247197252"><ele>95.0</ele><time>2026-04-11T14:49:47.948Z</time></trkpt><trkpt lat="45.408246670672625" lon="13.97987601947027"><ele>95.0</ele><time>2026-04-11T14:49:48.948Z</time></trkpt><trkpt lat="45.40813372433674" lon="13.979829587257385"><ele>95.0</ele><time>2026-04-11T14:49:49.948Z</time></trkpt><trkpt lat="45.40803989893821" lon="13.979791780732532"><ele>95.0</ele><time>2026-04-11T14:49:50.948Z</time></trkpt><trkpt lat="45.40795843191611" lon="13.979744720186856"><ele>95.0</ele><time>2026-04-11T14:49:51.948Z</time></trkpt><trkpt lat="45.40789017024797" lon="13.979636520165469"><ele>95.0</ele><time>2026-04-11T14:49:52.948Z</time></trkpt><trkpt lat="45.407834825609434" lon="13.979523769568141"><ele>93.4</ele><time>2026-04-11T14:49:53.948Z</time></trkpt><trkpt lat="45.40777610403921" lon="13.979419985505025"><ele>91.8</ele><time>2026-04-11T14:49:54.948Z</time></trkpt><trkpt lat="45.40770552662084" lon="13.979320109756143"><ele>90.19999999999999</ele><time>2026-04-11T14:49:55.948Z</time></trkpt><trkpt lat="45.40762061571922" lon="13.979234781480248"><ele>88.6</ele><time>2026-04-11T14:49:56.948Z</time></trkpt><trkpt lat="45.407509256137025" lon="13.979181368140527"><ele>87.0</ele><time>2026-04-11T14:49:57.948Z</time></trkpt><trkpt lat="45.407390695293344" lon="13.97914240119415"><ele>87.0</ele><time>2026-04-11T14:49:58.948Z</time></trkpt><trkpt lat="45.40727550994323" lon="13.979116117796424"><ele>87.0</ele><time>2026-04-11T14:49:59.948Z</time></trkpt><trkpt lat="45.407068005388275" lon="13.979077737834736"><ele>87.0</ele><time>2026-04-11T14:50:01.948Z</time></trkpt><trkpt lat="45.40699245237248" lon="13.979090394648532"><ele>87.0</ele><time>2026-04-11T14:50:02.948Z</time></trkpt><trkpt lat="45.40689097744158" lon="13.979138372611995"><ele>84.83333333333333</ele><time>2026-04-11T14:50:04.948Z</time></trkpt><trkpt lat="45.40684986161891" lon="13.97925727209282"><ele>82.66666666666667</ele><time>2026-04-11T14:50:05.948Z</time></trkpt><trkpt lat="45.40681441315817" lon="13.979348927395428"><ele>80.5</ele><time>2026-04-11T14:50:06.947Z</time></trkpt><trkpt lat="45.40676940866217" lon="13.979435620670166"><ele>78.33333333333334</ele><time>2026-04-11T14:50:07.947Z</time></trkpt><trkpt lat="45.406680373481684" lon="13.979532237764088"><ele>76.16666666666667</ele><time>2026-04-11T14:50:09.948Z</time></trkpt><trkpt lat="45.40660134887878" lon="13.979579177761952"><ele>74.0</ele><time>2026-04-11T14:50:11.948Z</time></trkpt><trkpt lat="45.40653032796479" lon="13.979423798339871"><ele>74.0</ele><time>2026-04-11T14:50:12.948Z</time></trkpt><trkpt lat="45.4064739155333" lon="13.979255218238885"><ele>74.0</ele><time>2026-04-11T14:50:14.948Z</time></trkpt><trkpt lat="45.40642709651398" lon="13.97915813137087"><ele>74.0</ele><time>2026-04-11T14:50:15.947Z</time></trkpt><trkpt lat="45.40637170049068" lon="13.979026120676167"><ele>74.0</ele><time>2026-04-11T14:50:16.948Z</time></trkpt><trkpt lat="45.406302921729306" lon="13.978876135361382"><ele>74.0</ele><time>2026-04-11T14:50:17.948Z</time></trkpt><trkpt lat="45.406225705657945" lon="13.978731205779685"><ele>72.75</ele><time>2026-04-11T14:50:18.948Z</time></trkpt><trkpt lat="45.40615247450177" lon="13.978602366590545"><ele>71.5</ele><time>2026-04-11T14:50:19.948Z</time></trkpt><trkpt lat="45.40607132697271" lon="13.978454050674415"><ele>70.25</ele><time>2026-04-11T14:50:20.948Z</time></trkpt><trkpt lat="45.40598194021796" lon="13.978300758893162"><ele>69.0</ele><time>2026-04-11T14:50:21.948Z</time></trkpt><trkpt lat="45.405879749822915" lon="13.978127714020287"><ele>69.0</ele><time>2026-04-11T14:50:22.948Z</time></trkpt><trkpt lat="45.40578055816954" lon="13.977953419158775"><ele>69.0</ele><time>2026-04-11T14:50:23.948Z</time></trkpt><trkpt lat="45.40569440535867" lon="13.977787624372018"><ele>69.0</ele><time>2026-04-11T14:50:24.948Z</time></trkpt><trkpt lat="45.405611520604076" lon="13.977629285492538"><ele>69.0</ele><time>2026-04-11T14:50:25.948Z</time></trkpt><trkpt lat="45.40553118525426" lon="13.977476789269051"><ele>67.0</ele><time>2026-04-11T14:50:26.948Z</time></trkpt><trkpt lat="45.40549421677023" lon="13.977308110869476"><ele>65.0</ele><time>2026-04-11T14:50:27.948Z</time></trkpt><trkpt lat="45.40546175605032" lon="13.977137998895836"><ele>63.0</ele><time>2026-04-11T14:50:28.948Z</time></trkpt><trkpt lat="45.405438787441184" lon="13.97696828866072"><ele>61.0</ele><time>2026-04-11T14:50:29.948Z</time></trkpt><trkpt lat="45.405416873410026" lon="13.976777079362842"><ele>61.4</ele><time>2026-04-11T14:50:30.948Z</time></trkpt><trkpt lat="45.40539712400341" lon="13.97659268759898"><ele>61.8</ele><time>2026-04-11T14:50:31.948Z</time></trkpt><trkpt lat="45.40538013039178" lon="13.976423349124449"><ele>62.199999999999996</ele><time>2026-04-11T14:50:32.948Z</time></trkpt><trkpt lat="45.40535599255005" lon="13.976280526877929"><ele>62.599999999999994</ele><time>2026-04-11T14:50:33.948Z</time></trkpt><trkpt lat="45.40536406196987" lon="13.976180943216473"><ele>63.0</ele><time>2026-04-11T14:50:34.948Z</time></trkpt><trkpt lat="45.40538721304627" lon="13.976063623207441"><ele>63.0</ele><time>2026-04-11T14:50:36.948Z</time></trkpt><trkpt lat="45.40535311746791" lon="13.975973318816123"><ele>63.0</ele><time>2026-04-11T14:50:38.948Z</time></trkpt><trkpt lat="45.40522850922987" lon="13.97604062353023"><ele>63.0</ele><time>2026-04-11T14:50:39.948Z</time></trkpt><trkpt lat="45.405153178976306" lon="13.976054312137064"><ele>63.0</ele><time>2026-04-11T14:50:40.948Z</time></trkpt><trkpt lat="45.405065389795986" lon="13.9760861417289"><ele>63.0</ele><time>2026-04-11T14:50:41.948Z</time></trkpt><trkpt lat="45.4049624989579" lon="13.97613110244122"><ele>63.0</ele><time>2026-04-11T14:50:42.948Z</time></trkpt><trkpt lat="45.40484736962919" lon="13.976223729403033"><ele>63.0</ele><time>2026-04-11T14:50:43.948Z</time></trkpt><trkpt lat="45.40472804917713" lon="13.976366634155653"><ele>63.0</ele><time>2026-04-11T14:50:44.948Z</time></trkpt><trkpt lat="45.40462815389713" lon="13.976529088670363"><ele>63.0</ele><time>2026-04-11T14:50:45.948Z</time></trkpt><trkpt lat="45.40453243075797" lon="13.97668549434172"><ele>60.66666666666667</ele><time>2026-04-11T14:50:46.948Z</time></trkpt><trkpt lat="45.40440754338276" lon="13.976808597676593"><ele>58.333333333333336</ele><time>2026-04-11T14:50:47.948Z</time></trkpt><trkpt lat="45.40425889027454" lon="13.976891761355207"><ele>56.0</ele><time>2026-04-11T14:50:48.948Z</time></trkpt><trkpt lat="45.40409668955125" lon="13.976947506126137"><ele>56.0</ele><time>2026-04-11T14:50:49.948Z</time></trkpt><trkpt lat="45.403928732595986" lon="13.976973059245147"><ele>56.0</ele><time>2026-04-11T14:50:50.948Z</time></trkpt><trkpt lat="45.403765946576186" lon="13.976984274920346"><ele>56.0</ele><time>2026-04-11T14:50:51.948Z</time></trkpt><trkpt lat="45.40362164553464" lon="13.976990418730379"><ele>55.5</ele><time>2026-04-11T14:50:52.948Z</time></trkpt><trkpt lat="45.40349283882532" lon="13.977003783917223"><ele>55.0</ele><time>2026-04-11T14:50:53.948Z</time></trkpt><trkpt lat="45.40336053326078" lon="13.977001905294342"><ele>54.5</ele><time>2026-04-11T14:50:54.948Z</time></trkpt><trkpt lat="45.40323359381218" lon="13.97696945342897"><ele>54.0</ele><time>2026-04-11T14:50:55.948Z</time></trkpt><trkpt lat="45.40310535337581" lon="13.976927683005748"><ele>53.75</ele><time>2026-04-11T14:50:56.948Z</time></trkpt><trkpt lat="45.40297720860748" lon="13.97687391966899"><ele>53.5</ele><time>2026-04-11T14:50:57.947Z</time></trkpt><trkpt lat="45.402850599759404" lon="13.976812458101627"><ele>53.25</ele><time>2026-04-11T14:50:58.947Z</time></trkpt><trkpt lat="45.40272749371266" lon="13.976752107783932"><ele>53.0</ele><time>2026-04-11T14:50:59.947Z</time></trkpt><trkpt lat="45.40260750855382" lon="13.97670149916669"><ele>52.5</ele><time>2026-04-11T14:51:00.947Z</time></trkpt><trkpt lat="45.40248681986759" lon="13.976659200629193"><ele>52.0</ele><time>2026-04-11T14:51:01.947Z</time></trkpt><trkpt lat="45.40237066645528" lon="13.976633944225545"><ele>51.5</ele><time>2026-04-11T14:51:02.947Z</time></trkpt><trkpt lat="45.40225922156797" lon="13.976605461629989"><ele>51.0</ele><time>2026-04-11T14:51:03.947Z</time></trkpt><trkpt lat="45.402155514646694" lon="13.976575942265168"><ele>51.0</ele><time>2026-04-11T14:51:04.947Z</time></trkpt><trkpt lat="45.40205919452932" lon="13.976536714912058"><ele>51.0</ele><time>2026-04-11T14:51:05.947Z</time></trkpt><trkpt lat="45.4019724828373" lon="13.976483612779552"><ele>51.0</ele><time>2026-04-11T14:51:06.947Z</time></trkpt><trkpt lat="45.401920082437265" lon="13.976376235869784"><ele>51.0</ele><time>2026-04-11T14:51:07.947Z</time></trkpt><trkpt lat="45.40186542825277" lon="13.976286622793172"><ele>51.0</ele><time>2026-04-11T14:51:08.947Z</time></trkpt><trkpt lat="45.40183346524931" lon="13.97616451810468"><ele>51.0</ele><time>2026-04-11T14:51:09.947Z</time></trkpt><trkpt lat="45.401799839458626" lon="13.97606035644997"><ele>51.0</ele><time>2026-04-11T14:51:10.947Z</time></trkpt><trkpt lat="45.40177358953381" lon="13.975951445987855"><ele>51.0</ele><time>2026-04-11T14:51:11.947Z</time></trkpt><trkpt lat="45.40174375943343" lon="13.975828161911334"><ele>51.0</ele><time>2026-04-11T14:51:12.947Z</time></trkpt><trkpt lat="45.401708458578135" lon="13.97568582916796"><ele>51.0</ele><time>2026-04-11T14:51:13.947Z</time></trkpt><trkpt lat="45.4016620168205" lon="13.97554954796837"><ele>51.0</ele><time>2026-04-11T14:51:14.947Z</time></trkpt><trkpt lat="45.40162670105435" lon="13.975437788441555"><ele>51.0</ele><time>2026-04-11T14:51:15.947Z</time></trkpt><trkpt lat="45.40156698254538" lon="13.975358829019482"><ele>51.0</ele><time>2026-04-11T14:51:16.947Z</time></trkpt><trkpt lat="45.40143473704907" lon="13.97535774469292"><ele>51.0</ele><time>2026-04-11T14:51:17.947Z</time></trkpt><trkpt lat="45.4013308887465" lon="13.975311927449022"><ele>51.0</ele><time>2026-04-11T14:51:18.947Z</time></trkpt><trkpt lat="45.40121259700538" lon="13.975267541828428"><ele>50.5</ele><time>2026-04-11T14:51:19.947Z</time></trkpt><trkpt lat="45.401088788079704" lon="13.975219461468905"><ele>50.0</ele><time>2026-04-11T14:51:20.947Z</time></trkpt><trkpt lat="45.40096075112118" lon="13.975165577186486"><ele>49.5</ele><time>2026-04-11T14:51:21.947Z</time></trkpt><trkpt lat="45.400839912475135" lon="13.975114722075672"><ele>49.0</ele><time>2026-04-11T14:51:22.947Z</time></trkpt><trkpt lat="45.40072916841445" lon="13.97505123462053"><ele>48.400000000000006</ele><time>2026-04-11T14:51:23.947Z</time></trkpt><trkpt lat="45.40062505227397" lon="13.97500808404933"><ele>47.8</ele><time>2026-04-11T14:51:24.947Z</time></trkpt><trkpt lat="45.400518148506926" lon="13.974960584095939"><ele>47.2</ele><time>2026-04-11T14:51:25.947Z</time></trkpt><trkpt lat="45.40041310475508" lon="13.974922918068502"><ele>46.599999999999994</ele><time>2026-04-11T14:51:26.947Z</time></trkpt><trkpt lat="45.40030931968969" lon="13.974891097076792"><ele>46.0</ele><time>2026-04-11T14:51:27.947Z</time></trkpt><trkpt lat="45.400198648254026" lon="13.974887990594159"><ele>46.0</ele><time>2026-04-11T14:51:28.947Z</time></trkpt><trkpt lat="45.400085644475574" lon="13.974931991197314"><ele>46.0</ele><time>2026-04-11T14:51:29.947Z</time></trkpt><trkpt lat="45.3999629310195" lon="13.974993425664158"><ele>46.0</ele><time>2026-04-11T14:51:30.947Z</time></trkpt><trkpt lat="45.399829925641015" lon="13.975055260675685"><ele>46.0</ele><time>2026-04-11T14:51:31.947Z</time></trkpt><trkpt lat="45.39970945179124" lon="13.975119827536988"><ele>46.0</ele><time>2026-04-11T14:51:32.947Z</time></trkpt><trkpt lat="45.399602883165706" lon="13.97517455970034"><ele>46.0</ele><time>2026-04-11T14:51:33.947Z</time></trkpt><trkpt lat="45.399497561706475" lon="13.975223827562035"><ele>46.0</ele><time>2026-04-11T14:51:34.947Z</time></trkpt><trkpt lat="45.3993898896477" lon="13.9752637749984"><ele>46.0</ele><time>2026-04-11T14:51:35.947Z</time></trkpt><trkpt lat="45.3992844333808" lon="13.975299630877911"><ele>46.0</ele><time>2026-04-11T14:51:36.947Z</time></trkpt><trkpt lat="45.39918232575015" lon="13.975309013550893"><ele>46.0</ele><time>2026-04-11T14:51:37.947Z</time></trkpt><trkpt lat="45.39911262530383" lon="13.97532880640397"><ele>46.0</ele><time>2026-04-11T14:51:38.947Z</time></trkpt><trkpt lat="45.39905603746668" lon="13.975285196797135"><ele>46.0</ele><time>2026-04-11T14:51:40.947Z</time></trkpt><trkpt lat="45.39906239500898" lon="13.975170185299248"><ele>46.0</ele><time>2026-04-11T14:51:42.947Z</time></trkpt><trkpt lat="45.39907527050465" lon="13.975029482980474"><ele>46.0</ele><time>2026-04-11T14:51:44.947Z</time></trkpt><trkpt lat="45.39907462354015" lon="13.974931823866589"><ele>46.0</ele><time>2026-04-11T14:51:45.947Z</time></trkpt><trkpt lat="45.39910346495191" lon="13.974819826085172"><ele>46.199999999999996</ele><time>2026-04-11T14:51:46.947Z</time></trkpt><trkpt lat="45.39914203295625" lon="13.974696967217877"><ele>46.4</ele><time>2026-04-11T14:51:47.947Z</time></trkpt><trkpt lat="45.39919621431622" lon="13.974564214717242"><ele>46.6</ele><time>2026-04-11T14:51:48.947Z</time></trkpt><trkpt lat="45.3992529341981" lon="13.974435456903226"><ele>46.8</ele><time>2026-04-11T14:51:49.947Z</time></trkpt><trkpt lat="45.399307297593715" lon="13.974314890453382"><ele>47.0</ele><time>2026-04-11T14:51:50.947Z</time></trkpt><trkpt lat="45.39936599792568" lon="13.974188332736608"><ele>47.0</ele><time>2026-04-11T14:51:51.947Z</time></trkpt><trkpt lat="45.39942440141872" lon="13.974056201091281"><ele>47.0</ele><time>2026-04-11T14:51:52.947Z</time></trkpt><trkpt lat="45.399478308953" lon="13.973933637929731"><ele>47.0</ele><time>2026-04-11T14:51:53.947Z</time></trkpt><trkpt lat="45.39952758622662" lon="13.973815975669117"><ele>47.0</ele><time>2026-04-11T14:51:54.947Z</time></trkpt><trkpt lat="45.399557724920285" lon="13.973696573109875"><ele>47.0</ele><time>2026-04-11T14:51:55.947Z</time></trkpt><trkpt lat="45.399574092030804" lon="13.973580489361387"><ele>47.0</ele><time>2026-04-11T14:51:56.947Z</time></trkpt><trkpt lat="45.399598783003086" lon="13.973450616190629"><ele>47.0</ele><time>2026-04-11T14:51:57.947Z</time></trkpt><trkpt lat="45.399610158700135" lon="13.973295870909674"><ele>47.0</ele><time>2026-04-11T14:51:58.947Z</time></trkpt><trkpt lat="45.39964605373779" lon="13.973134067562787"><ele>47.0</ele><time>2026-04-11T14:51:59.947Z</time></trkpt><trkpt lat="45.39965564859972" lon="13.972967321336755"><ele>47.0</ele><time>2026-04-11T14:52:00.947Z</time></trkpt><trkpt lat="45.39966598652726" lon="13.97280912104226"><ele>46.8</ele><time>2026-04-11T14:52:01.947Z</time></trkpt><trkpt lat="45.399682558356986" lon="13.972667883074033"><ele>46.6</ele><time>2026-04-11T14:52:02.947Z</time></trkpt><trkpt lat="45.399709232310315" lon="13.972555390137048"><ele>46.4</ele><time>2026-04-11T14:52:03.947Z</time></trkpt><trkpt lat="45.39975253974883" lon="13.972440583638765"><ele>46.199999999999996</ele><time>2026-04-11T14:52:04.947Z</time></trkpt><trkpt lat="45.39980476030886" lon="13.972320533640154"><ele>46.0</ele><time>2026-04-11T14:52:05.947Z</time></trkpt><trkpt lat="45.399853435467065" lon="13.97219214874286"><ele>46.0</ele><time>2026-04-11T14:52:06.947Z</time></trkpt><trkpt lat="45.399896718768204" lon="13.97206913995539"><ele>46.0</ele><time>2026-04-11T14:52:07.947Z</time></trkpt><trkpt lat="45.3999434383371" lon="13.971954972164507"><ele>46.0</ele><time>2026-04-11T14:52:08.947Z</time></trkpt><trkpt lat="45.39999741333452" lon="13.971853550891918"><ele>46.0</ele><time>2026-04-11T14:52:09.947Z</time></trkpt><trkpt lat="45.400047616945095" lon="13.971780090207279"><ele>46.0</ele><time>2026-04-11T14:52:10.947Z</time></trkpt><trkpt lat="45.400101313317734" lon="13.97171410179584"><ele>46.0</ele><time>2026-04-11T14:52:11.947Z</time></trkpt><trkpt lat="45.40015785121355" lon="13.971642549185235"><ele>46.0</ele><time>2026-04-11T14:52:12.947Z</time></trkpt><trkpt lat="45.40024328762363" lon="13.971612175560523"><ele>46.0</ele><time>2026-04-11T14:52:13.947Z</time></trkpt><trkpt lat="45.400336018941275" lon="13.971594591727566"><ele>46.0</ele><time>2026-04-11T14:52:14.947Z</time></trkpt><trkpt lat="45.400411824868556" lon="13.971603574978415"><ele>46.0</ele><time>2026-04-11T14:52:15.947Z</time></trkpt><trkpt lat="45.4004781237035" lon="13.971633524695653"><ele>46.0</ele><time>2026-04-11T14:52:16.946Z</time></trkpt><trkpt lat="45.40054472385756" lon="13.971663036109588"><ele>46.0</ele><time>2026-04-11T14:52:17.946Z</time></trkpt><trkpt lat="45.40062159495084" lon="13.971708043253251"><ele>45.8</ele><time>2026-04-11T14:52:18.947Z</time></trkpt><trkpt lat="45.40070328294962" lon="13.971756277588876"><ele>45.599999999999994</ele><time>2026-04-11T14:52:19.947Z</time></trkpt><trkpt lat="45.400798797917474" lon="13.971809212153893"><ele>45.4</ele><time>2026-04-11T14:52:20.947Z</time></trkpt><trkpt lat="45.400896813282564" lon="13.971844507007539"><ele>45.2</ele><time>2026-04-11T14:52:21.947Z</time></trkpt><trkpt lat="45.400989340624285" lon="13.971852188958817"><ele>45.0</ele><time>2026-04-11T14:52:22.947Z</time></trkpt><trkpt lat="45.40107026514303" lon="13.97184826761025"><ele>45.0</ele><time>2026-04-11T14:52:23.947Z</time></trkpt><trkpt lat="45.40114380320603" lon="13.971831502621527"><ele>45.0</ele><time>2026-04-11T14:52:24.947Z</time></trkpt><trkpt lat="45.401204878405814" lon="13.9718088683958"><ele>45.0</ele><time>2026-04-11T14:52:25.947Z</time></trkpt><trkpt lat="45.40127510314271" lon="13.971770474603794"><ele>45.0</ele><time>2026-04-11T14:52:26.947Z</time></trkpt><trkpt lat="45.40137117493255" lon="13.971707977257294"><ele>45.0</ele><time>2026-04-11T14:52:27.947Z</time></trkpt><trkpt lat="45.401437990040904" lon="13.97159035696958"><ele>45.0</ele><time>2026-04-11T14:52:28.947Z</time></trkpt><trkpt lat="45.401506784155316" lon="13.971513072897896"><ele>45.0</ele><time>2026-04-11T14:52:29.947Z</time></trkpt><trkpt lat="45.40157271327533" lon="13.971415384867342"><ele>45.0</ele><time>2026-04-11T14:52:30.947Z</time></trkpt><trkpt lat="45.40162572169376" lon="13.971292658846526"><ele>45.0</ele><time>2026-04-11T14:52:31.947Z</time></trkpt><trkpt lat="45.40167259239055" lon="13.971154560099912"><ele>45.0</ele><time>2026-04-11T14:52:32.947Z</time></trkpt><trkpt lat="45.40171581829153" lon="13.971015673858988"><ele>45.0</ele><time>2026-04-11T14:52:33.947Z</time></trkpt><trkpt lat="45.40176198454987" lon="13.97090049043609"><ele>45.0</ele><time>2026-04-11T14:52:34.947Z</time></trkpt><trkpt lat="45.40180164333472" lon="13.970778466645925"><ele>45.0</ele><time>2026-04-11T14:52:35.947Z</time></trkpt><trkpt lat="45.40184145904209" lon="13.970662797492386"><ele>45.0</ele><time>2026-04-11T14:52:36.947Z</time></trkpt><trkpt lat="45.40186262424124" lon="13.970556697785625"><ele>45.0</ele><time>2026-04-11T14:52:37.947Z</time></trkpt><trkpt lat="45.40191144972124" lon="13.970479889925496"><ele>45.0</ele><time>2026-04-11T14:52:38.947Z</time></trkpt><trkpt lat="45.401928487368366" lon="13.970371623282995"><ele>45.0</ele><time>2026-04-11T14:52:40.947Z</time></trkpt><trkpt lat="45.40200742195006" lon="13.970411123274056"><ele>45.0</ele><time>2026-04-11T14:52:42.947Z</time></trkpt><trkpt lat="45.40208269060476" lon="13.970532368690385"><ele>45.0</ele><time>2026-04-11T14:52:44.947Z</time></trkpt><trkpt lat="45.40215548457674" lon="13.97061474005521"><ele>45.0</ele><time>2026-04-11T14:52:46.947Z</time></trkpt><trkpt lat="45.402211829563434" lon="13.970665157469085"><ele>45.0</ele><time>2026-04-11T14:52:48.946Z</time></trkpt><trkpt lat="45.40226791175921" lon="13.970572855963338"><ele>45.0</ele><time>2026-04-11T14:52:51.946Z</time></trkpt><trkpt lat="45.402337179253905" lon="13.970464777942176"><ele>45.2</ele><time>2026-04-11T14:53:02.946Z</time></trkpt><trkpt lat="45.402328609461335" lon="13.97036837859979"><ele>45.4</ele><time>2026-04-11T14:53:05.946Z</time></trkpt><trkpt lat="45.402264425119725" lon="13.970235119653129"><ele>45.599999999999994</ele><time>2026-04-11T14:56:27.946Z</time></trkpt><trkpt lat="45.40222732808941" lon="13.970134892055599"><ele>45.8</ele><time>2026-04-11T14:56:28.947Z</time></trkpt><trkpt lat="45.402193516273435" lon="13.970012412270549"><ele>46.0</ele><time>2026-04-11T14:56:29.947Z</time></trkpt><trkpt lat="45.40220038921878" lon="13.969832938722659"><ele>46.0</ele><time>2026-04-11T14:56:30.946Z</time></trkpt><trkpt lat="45.402170680633965" lon="13.969659081643002"><ele>46.0</ele><time>2026-04-11T14:56:31.947Z</time></trkpt><trkpt lat="45.40215539322395" lon="13.969508477773966"><ele>46.0</ele><time>2026-04-11T14:56:32.947Z</time></trkpt><trkpt lat="45.402138291864325" lon="13.969354189031824"><ele>46.0</ele><time>2026-04-11T14:56:33.947Z</time></trkpt><trkpt lat="45.40210022381921" lon="13.969236815947614"><ele>46.0</ele><time>2026-04-11T14:56:34.947Z</time></trkpt><trkpt lat="45.402071831553606" lon="13.969123959161623"><ele>45.599999999999994</ele><time>2026-04-11T14:56:35.947Z</time></trkpt><trkpt lat="45.402038156808345" lon="13.969019717232879"><ele>45.2</ele><time>2026-04-11T14:56:36.947Z</time></trkpt><trkpt lat="45.402031358069536" lon="13.968898137680815"><ele>44.8</ele><time>2026-04-11T14:56:37.947Z</time></trkpt><trkpt lat="45.40201562754136" lon="13.968765174616749"><ele>44.400000000000006</ele><time>2026-04-11T14:56:38.947Z</time></trkpt><trkpt lat="45.40200786248079" lon="13.968625878740887"><ele>44.0</ele><time>2026-04-11T14:56:39.947Z</time></trkpt><trkpt lat="45.40200848483151" lon="13.968477470651546"><ele>44.2</ele><time>2026-04-11T14:56:40.947Z</time></trkpt><trkpt lat="45.40201244723468" lon="13.968322106666946"><ele>44.400000000000006</ele><time>2026-04-11T14:56:41.947Z</time></trkpt><trkpt lat="45.40201719054682" lon="13.968164121495258"><ele>44.6</ele><time>2026-04-11T14:56:42.947Z</time></trkpt><trkpt lat="45.402028186188005" lon="13.968025719618232"><ele>44.8</ele><time>2026-04-11T14:56:43.947Z</time></trkpt><trkpt lat="45.40205129410563" lon="13.967895420349885"><ele>45.0</ele><time>2026-04-11T14:56:44.947Z</time></trkpt><trkpt lat="45.402085046856854" lon="13.967776365295052"><ele>45.0</ele><time>2026-04-11T14:56:45.947Z</time></trkpt><trkpt lat="45.40210528133006" lon="13.967625080978927"><ele>45.0</ele><time>2026-04-11T14:56:46.946Z</time></trkpt><trkpt lat="45.40211768880964" lon="13.967477874964311"><ele>45.0</ele><time>2026-04-11T14:56:47.946Z</time></trkpt><trkpt lat="45.40211646515407" lon="13.967362910700972"><ele>45.0</ele><time>2026-04-11T14:56:48.946Z</time></trkpt><trkpt lat="45.40215065270582" lon="13.967249192614327"><ele>45.0</ele><time>2026-04-11T14:56:49.946Z</time></trkpt><trkpt lat="45.40218269020758" lon="13.967151291215766"><ele>44.8</ele><time>2026-04-11T14:56:50.946Z</time></trkpt><trkpt lat="45.402247235945794" lon="13.967046546836972"><ele>44.6</ele><time>2026-04-11T14:56:52.946Z</time></trkpt><trkpt lat="45.40231427910543" lon="13.966914692038554"><ele>44.400000000000006</ele><time>2026-04-11T14:56:54.946Z</time></trkpt><trkpt lat="45.402363639104706" lon="13.966802526753755"><ele>44.2</ele><time>2026-04-11T14:56:55.946Z</time></trkpt><trkpt lat="45.402408939926765" lon="13.966678504771377"><ele>44.0</ele><time>2026-04-11T14:56:56.946Z</time></trkpt><trkpt lat="45.40243273624747" lon="13.966529433168065"><ele>43.83333333333333</ele><time>2026-04-11T14:56:57.946Z</time></trkpt><trkpt lat="45.402462132000935" lon="13.966388475946337"><ele>43.666666666666664</ele><time>2026-04-11T14:56:58.946Z</time></trkpt><trkpt lat="45.40248158756768" lon="13.966269645372174"><ele>43.5</ele><time>2026-04-11T14:56:59.946Z</time></trkpt><trkpt lat="45.402497415528245" lon="13.966162317313563"><ele>43.333333333333336</ele><time>2026-04-11T14:57:00.946Z</time></trkpt><trkpt lat="45.4025140467261" lon="13.96606024307903"><ele>43.16666666666667</ele><time>2026-04-11T14:57:01.946Z</time></trkpt><trkpt lat="45.40255881556653" lon="13.965985229006257"><ele>43.0</ele><time>2026-04-11T14:57:02.946Z</time></trkpt><trkpt lat="45.40260782723337" lon="13.965921978564491"><ele>43.0</ele><time>2026-04-11T14:57:03.946Z</time></trkpt><trkpt lat="45.40270876884046" lon="13.965937758436935"><ele>43.0</ele><time>2026-04-11T14:57:05.946Z</time></trkpt><trkpt lat="45.40279426288444" lon="13.965894550876321"><ele>43.0</ele><time>2026-04-11T14:57:08.946Z</time></trkpt><trkpt lat="45.40275149547216" lon="13.965825702123201"><ele>43.0</ele><time>2026-04-11T14:57:10.946Z</time></trkpt><trkpt lat="45.40263618025545" lon="13.965746622656177"><ele>43.0</ele><time>2026-04-11T14:57:12.946Z</time></trkpt><trkpt lat="45.402545966041025" lon="13.96571322541917"><ele>42.8</ele><time>2026-04-11T14:57:13.946Z</time></trkpt><trkpt lat="45.40245668073364" lon="13.965673846489166"><ele>42.599999999999994</ele><time>2026-04-11T14:57:14.946Z</time></trkpt><trkpt lat="45.40235177655685" lon="13.965620886847347"><ele>42.400000000000006</ele><time>2026-04-11T14:57:15.946Z</time></trkpt><trkpt lat="45.40224860854465" lon="13.965571543832342"><ele>42.2</ele><time>2026-04-11T14:57:16.946Z</time></trkpt><trkpt lat="45.40214361117442" lon="13.965527937245813"><ele>42.0</ele><time>2026-04-11T14:57:17.946Z</time></trkpt><trkpt lat="45.40203838664361" lon="13.96551054422851"><ele>42.6</ele><time>2026-04-11T14:57:18.946Z</time></trkpt><trkpt lat="45.40192967985365" lon="13.965523002756436"><ele>43.2</ele><time>2026-04-11T14:57:19.946Z</time></trkpt><trkpt lat="45.40183759021229" lon="13.965555169843855"><ele>43.8</ele><time>2026-04-11T14:57:20.946Z</time></trkpt><trkpt lat="45.40176297300503" lon="13.965582385053116"><ele>44.4</ele><time>2026-04-11T14:57:21.946Z</time></trkpt><trkpt lat="45.401696613392446" lon="13.965487486404495"><ele>45.0</ele><time>2026-04-11T14:57:23.946Z</time></trkpt><trkpt lat="45.40168205787329" lon="13.965371734908251"><ele>45.0</ele><time>2026-04-11T14:57:25.946Z</time></trkpt><trkpt lat="45.40167536067112" lon="13.9652738379201"><ele>45.0</ele><time>2026-04-11T14:57:29.946Z</time></trkpt><trkpt lat="45.4016127234404" lon="13.965299847888463"><ele>45.0</ele><time>2026-04-11T14:57:42.946Z</time></trkpt><trkpt lat="45.401520256648205" lon="13.965259899757703"><ele>45.0</ele><time>2026-04-11T14:57:50.946Z</time></trkpt><trkpt lat="45.40145872875351" lon="13.965189854460032"><ele>45.0</ele><time>2026-04-11T14:57:53.946Z</time></trkpt><trkpt lat="45.401364200145146" lon="13.965108126208449"><ele>45.0</ele><time>2026-04-11T14:57:55.946Z</time></trkpt><trkpt lat="45.40130519816989" lon="13.965061412529824"><ele>45.0</ele><time>2026-04-11T14:57:56.946Z</time></trkpt><trkpt lat="45.401209282531525" lon="13.965071696494539"><ele>45.0</ele><time>2026-04-11T14:57:58.946Z</time></trkpt><trkpt lat="45.40118715460373" lon="13.96515600374442"><ele>45.0</ele><time>2026-04-11T14:57:59.946Z</time></trkpt><trkpt lat="45.40112266447002" lon="13.965193587607578"><ele>45.0</ele><time>2026-04-11T14:58:02.946Z</time></trkpt><trkpt lat="45.40121619586259" lon="13.965117785478924"><ele>45.0</ele><time>2026-04-11T14:58:56.946Z</time></trkpt><trkpt lat="45.40128700965638" lon="13.965047759835235"><ele>45.0</ele><time>2026-04-11T14:58:58.946Z</time></trkpt><trkpt lat="45.401374123866795" lon="13.965134848866343"><ele>45.0</ele><time>2026-04-11T14:59:00.946Z</time></trkpt><trkpt lat="45.40144341358364" lon="13.965221495529873"><ele>45.0</ele><time>2026-04-11T14:59:02.946Z</time></trkpt><trkpt lat="45.40150810389472" lon="13.9652615645643"><ele>45.0</ele><time>2026-04-11T14:59:04.946Z</time></trkpt><trkpt lat="45.401598014508046" lon="13.965298869757742"><ele>45.0</ele><time>2026-04-11T14:59:07.946Z</time></trkpt></trkseg><trkseg><trkpt lat="45.40167367852683" lon="13.9654650377196"><ele>45.0</ele><time>2026-04-11T15:17:05Z</time></trkpt><trkpt lat="45.40169547545223" lon="13.965569094326145"><ele>45.0</ele><time>2026-04-11T15:17:07Z</time></trkpt><trkpt lat="45.401755780254874" lon="13.965647670755818"><ele>45.0</ele><time>2026-04-11T15:17:10Z</time></trkpt><trkpt lat="45.401836485795144" lon="13.965608635288575"><ele>45.0</ele><time>2026-04-11T15:17:12Z</time></trkpt><trkpt lat="45.401934818860575" lon="13.965581710955277"><ele>45.0</ele><time>2026-04-11T15:17:14Z</time></trkpt><trkpt lat="45.40200905049615" lon="13.965570892611263"><ele>45.0</ele><time>2026-04-11T15:17:15Z</time></trkpt><trkpt lat="45.40208019194153" lon="13.965569727011566"><ele>45.0</ele><time>2026-04-11T15:17:16Z</time></trkpt><trkpt lat="45.40216401618353" lon="13.96557751321784"><ele>45.0</ele><time>2026-04-11T15:17:17Z</time></trkpt><trkpt lat="45.402250014440284" lon="13.965603605206056"><ele>45.0</ele><time>2026-04-11T15:17:18Z</time></trkpt><trkpt lat="45.40233314373174" lon="13.96564456714939"><ele>45.0</ele><time>2026-04-11T15:17:19Z</time></trkpt><trkpt lat="45.402415478299645" lon="13.965688660021328"><ele>45.0</ele><time>2026-04-11T15:17:20Z</time></trkpt><trkpt lat="45.40249384269606" lon="13.96573347757932"><ele>45.0</ele><time>2026-04-11T15:17:21Z</time></trkpt><trkpt lat="45.40256478716565" lon="13.965774609312454"><ele>44.666666666666664</ele><time>2026-04-11T15:17:22Z</time></trkpt><trkpt lat="45.4026314306409" lon="13.965807654688332"><ele>44.333333333333336</ele><time>2026-04-11T15:17:23Z</time></trkpt><trkpt lat="45.40269555168669" lon="13.965835220059976"><ele>44.0</ele><time>2026-04-11T15:17:24Z</time></trkpt><trkpt lat="45.40276237231429" lon="13.965870955487498"><ele>43.66666666666667</ele><time>2026-04-11T15:17:26Z</time></trkpt><trkpt lat="45.40273943724469" lon="13.965955274362743"><ele>43.333333333333336</ele><time>2026-04-11T15:17:28Z</time></trkpt><trkpt lat="45.40265439995255" lon="13.965965701406649"><ele>43.0</ele><time>2026-04-11T15:17:30Z</time></trkpt><trkpt lat="45.40253379286492" lon="13.965999440773356"><ele>43.0</ele><time>2026-04-11T15:17:32Z</time></trkpt><trkpt lat="45.402471505183556" lon="13.966133135747212"><ele>43.0</ele><time>2026-04-11T15:17:34Z</time></trkpt><trkpt lat="45.402460803234526" lon="13.966231454643513"><ele>43.0</ele><time>2026-04-11T15:17:35Z</time></trkpt><trkpt lat="45.402453145914684" lon="13.966346761338025"><ele>43.0</ele><time>2026-04-11T15:17:36.001Z</time></trkpt><trkpt lat="45.402430318921915" lon="13.966473739631208"><ele>43.0</ele><time>2026-04-11T15:17:37.001Z</time></trkpt><trkpt lat="45.40239907669673" lon="13.966582802436465"><ele>43.0</ele><time>2026-04-11T15:17:38.001Z</time></trkpt><trkpt lat="45.40236279234495" lon="13.96669583016074"><ele>43.2</ele><time>2026-04-11T15:17:39.001Z</time></trkpt><trkpt lat="45.40232189101205" lon="13.966821498775506"><ele>43.4</ele><time>2026-04-11T15:17:40.001Z</time></trkpt><trkpt lat="45.40227183007506" lon="13.966944105179003"><ele>43.6</ele><time>2026-04-11T15:17:41.001Z</time></trkpt><trkpt lat="45.4022131891735" lon="13.967053484906005"><ele>43.800000000000004</ele><time>2026-04-11T15:17:42.001Z</time></trkpt><trkpt lat="45.40215850326015" lon="13.96711940865423"><ele>44.0</ele><time>2026-04-11T15:17:43.001Z</time></trkpt><trkpt lat="45.40211851319553" lon="13.967278805291649"><ele>44.2</ele><time>2026-04-11T15:17:45.001Z</time></trkpt><trkpt lat="45.40209449538775" lon="13.967393998586202"><ele>44.400000000000006</ele><time>2026-04-11T15:17:46.001Z</time></trkpt><trkpt lat="45.402077324467484" lon="13.967541171103596"><ele>44.6</ele><time>2026-04-11T15:17:47.001Z</time></trkpt><trkpt lat="45.40207457260489" lon="13.967687339268727"><ele>44.8</ele><time>2026-04-11T15:17:48.001Z</time></trkpt><trkpt lat="45.40204363953688" lon="13.967837755460138"><ele>45.0</ele><time>2026-04-11T15:17:49.001Z</time></trkpt><trkpt lat="45.401999229825144" lon="13.96799870645774"><ele>45.0</ele><time>2026-04-11T15:17:50.001Z</time></trkpt><trkpt lat="45.40197633985026" lon="13.968166659814845"><ele>45.0</ele><time>2026-04-11T15:17:51.001Z</time></trkpt><trkpt lat="45.40197947724881" lon="13.968330145284826"><ele>45.0</ele><time>2026-04-11T15:17:52.001Z</time></trkpt><trkpt lat="45.401980788314425" lon="13.96850527141731"><ele>45.0</ele><time>2026-04-11T15:17:53.001Z</time></trkpt><trkpt lat="45.401983250053696" lon="13.968676471718537"><ele>44.8</ele><time>2026-04-11T15:17:54.001Z</time></trkpt><trkpt lat="45.40199614662362" lon="13.96883798697211"><ele>44.6</ele><time>2026-04-11T15:17:55.001Z</time></trkpt><trkpt lat="45.402019944100424" lon="13.968988544156092"><ele>44.400000000000006</ele><time>2026-04-11T15:17:56.001Z</time></trkpt><trkpt lat="45.40205485930091" lon="13.969120695592387"><ele>44.2</ele><time>2026-04-11T15:17:57.001Z</time></trkpt><trkpt lat="45.40208971353466" lon="13.969239370506266"><ele>44.0</ele><time>2026-04-11T15:17:58.001Z</time></trkpt><trkpt lat="45.402114934321574" lon="13.969358516787315"><ele>44.0</ele><time>2026-04-11T15:17:59.001Z</time></trkpt><trkpt lat="45.4021278711888" lon="13.969468239811444"><ele>44.0</ele><time>2026-04-11T15:18:00.001Z</time></trkpt><trkpt lat="45.402136949808074" lon="13.969587880048174"><ele>44.0</ele><time>2026-04-11T15:18:01.001Z</time></trkpt><trkpt lat="45.402144425302374" lon="13.969720250370708"><ele>44.0</ele><time>2026-04-11T15:18:02.001Z</time></trkpt><trkpt lat="45.402165457831494" lon="13.969847196687425"><ele>44.0</ele><time>2026-04-11T15:18:03.001Z</time></trkpt><trkpt lat="45.402193021405104" lon="13.96999152424167"><ele>44.400000000000006</ele><time>2026-04-11T15:18:04.001Z</time></trkpt><trkpt lat="45.40222732843392" lon="13.970132092219256"><ele>44.8</ele><time>2026-04-11T15:18:05.001Z</time></trkpt><trkpt lat="45.40225623316376" lon="13.970257787849198"><ele>45.2</ele><time>2026-04-11T15:18:06.001Z</time></trkpt><trkpt lat="45.402283586664396" lon="13.97036833751878"><ele>45.599999999999994</ele><time>2026-04-11T15:18:07.001Z</time></trkpt><trkpt lat="45.402289606817824" lon="13.970510169084799"><ele>46.0</ele><time>2026-04-11T15:18:09.001Z</time></trkpt><trkpt lat="45.40223929718472" lon="13.970604749904947"><ele>46.0</ele><time>2026-04-11T15:18:12.001Z</time></trkpt><trkpt lat="45.402188140575326" lon="13.970693300691758"><ele>46.0</ele><time>2026-04-11T15:18:14.001Z</time></trkpt><trkpt lat="45.40214283023128" lon="13.970882221497781"><ele>46.0</ele><time>2026-04-11T15:18:16.001Z</time></trkpt><trkpt lat="45.40211082953261" lon="13.971012320033605"><ele>46.0</ele><time>2026-04-11T15:18:17.001Z</time></trkpt><trkpt lat="45.40207363574517" lon="13.971130250625803"><ele>46.0</ele><time>2026-04-11T15:18:18.001Z</time></trkpt><trkpt lat="45.40206612122289" lon="13.971252256883043"><ele>45.833333333333336</ele><time>2026-04-11T15:18:19.001Z</time></trkpt><trkpt lat="45.402048756252405" lon="13.971379834801535"><ele>45.66666666666667</ele><time>2026-04-11T15:18:20.001Z</time></trkpt><trkpt lat="45.402029798298024" lon="13.971489993193027"><ele>45.5</ele><time>2026-04-11T15:18:21.001Z</time></trkpt><trkpt lat="45.40202024898521" lon="13.971595751170259"><ele>45.333333333333336</ele><time>2026-04-11T15:18:22.001Z</time></trkpt><trkpt lat="45.4020022116097" lon="13.971707999577939"><ele>45.166666666666664</ele><time>2026-04-11T15:18:23.001Z</time></trkpt><trkpt lat="45.40197168505602" lon="13.971825417131205"><ele>45.0</ele><time>2026-04-11T15:18:24.001Z</time></trkpt><trkpt lat="45.40192582579037" lon="13.971950969843009"><ele>45.5</ele><time>2026-04-11T15:18:25.001Z</time></trkpt><trkpt lat="45.40186632477946" lon="13.972087121237074"><ele>46.0</ele><time>2026-04-11T15:18:26.001Z</time></trkpt><trkpt lat="45.40180623136378" lon="13.972243708090465"><ele>46.5</ele><time>2026-04-11T15:18:27.001Z</time></trkpt><trkpt lat="45.401747955321795" lon="13.972400179643163"><ele>47.0</ele><time>2026-04-11T15:18:28.001Z</time></trkpt><trkpt lat="45.4016774700735" lon="13.972522582613713"><ele>47.400000000000006</ele><time>2026-04-11T15:18:29.001Z</time></trkpt><trkpt lat="45.401601003885084" lon="13.9726278329914"><ele>47.800000000000004</ele><time>2026-04-11T15:18:30.001Z</time></trkpt><trkpt lat="45.40153382055479" lon="13.972747624988061"><ele>48.2</ele><time>2026-04-11T15:18:31.001Z</time></trkpt><trkpt lat="45.40147933033804" lon="13.972885206881596"><ele>48.6</ele><time>2026-04-11T15:18:32.001Z</time></trkpt><trkpt lat="45.40143464584993" lon="13.973024229188985"><ele>49.0</ele><time>2026-04-11T15:18:33.001Z</time></trkpt><trkpt lat="45.401382317175546" lon="13.973137588413993"><ele>48.49999999999999</ele><time>2026-04-11T15:18:34.001Z</time></trkpt><trkpt lat="45.40132169577973" lon="13.973217031025577"><ele>48.0</ele><time>2026-04-11T15:18:35.001Z</time></trkpt><trkpt lat="45.40125460265785" lon="13.973280967602856"><ele>47.5</ele><time>2026-04-11T15:18:36.001Z</time></trkpt><trkpt lat="45.40120831089035" lon="13.973361359474564"><ele>47.0</ele><time>2026-04-11T15:18:37.001Z</time></trkpt><trkpt lat="45.401188036335036" lon="13.973457656481159"><ele>46.5</ele><time>2026-04-11T15:18:38.001Z</time></trkpt><trkpt lat="45.40119074564888" lon="13.973573222005522"><ele>46.0</ele><time>2026-04-11T15:18:39.001Z</time></trkpt><trkpt lat="45.40118937138368" lon="13.973678210378802"><ele>46.0</ele><time>2026-04-11T15:18:40.001Z</time></trkpt><trkpt lat="45.40116781336478" lon="13.973793681934128"><ele>46.0</ele><time>2026-04-11T15:18:41.001Z</time></trkpt><trkpt lat="45.401124535017054" lon="13.97389663032315"><ele>46.0</ele><time>2026-04-11T15:18:42.001Z</time></trkpt><trkpt lat="45.401061534959766" lon="13.973972141949227"><ele>46.0</ele><time>2026-04-11T15:18:43.001Z</time></trkpt><trkpt lat="45.40099019965659" lon="13.974029830256834"><ele>46.0</ele><time>2026-04-11T15:18:44.001Z</time></trkpt><trkpt lat="45.400930525680174" lon="13.974113580175647"><ele>46.0</ele><time>2026-04-11T15:18:45.001Z</time></trkpt><trkpt lat="45.40088889206292" lon="13.974215525752742"><ele>46.0</ele><time>2026-04-11T15:18:46.001Z</time></trkpt><trkpt lat="45.40086954769768" lon="13.974316572619207"><ele>46.0</ele><time>2026-04-11T15:18:47.001Z</time></trkpt><trkpt lat="45.400874898267524" lon="13.974460848636333"><ele>46.0</ele><time>2026-04-11T15:18:48.001Z</time></trkpt><trkpt lat="45.400890754545806" lon="13.974595998615172"><ele>46.0</ele><time>2026-04-11T15:18:49.001Z</time></trkpt><trkpt lat="45.40090275376726" lon="13.97474628009696"><ele>46.0</ele><time>2026-04-11T15:18:50.001Z</time></trkpt><trkpt lat="45.40091207101414" lon="13.974894221821444"><ele>46.0</ele><time>2026-04-11T15:18:51.001Z</time></trkpt><trkpt lat="45.40091549583161" lon="13.97502050341604"><ele>46.0</ele><time>2026-04-11T15:18:52.001Z</time></trkpt><trkpt lat="45.40089298244904" lon="13.975130204000294"><ele>46.0</ele><time>2026-04-11T15:18:54.001Z</time></trkpt><trkpt lat="45.40079642636836" lon="13.975088557917644"><ele>46.0</ele><time>2026-04-11T15:18:57.001Z</time></trkpt><trkpt lat="45.40069660307204" lon="13.97504331115705"><ele>46.0</ele><time>2026-04-11T15:18:59.001Z</time></trkpt><trkpt lat="45.40063322031155" lon="13.97502244386325"><ele>46.0</ele><time>2026-04-11T15:19:00.001Z</time></trkpt><trkpt lat="45.40055817260281" lon="13.974997505318326"><ele>46.0</ele><time>2026-04-11T15:19:01.001Z</time></trkpt><trkpt lat="45.40047238518681" lon="13.974968774401583"><ele>46.0</ele><time>2026-04-11T15:19:02.001Z</time></trkpt><trkpt lat="45.40038396003299" lon="13.97493348570066"><ele>46.0</ele><time>2026-04-11T15:19:03.001Z</time></trkpt><trkpt lat="45.40030064046541" lon="13.974900844034917"><ele>46.0</ele><time>2026-04-11T15:19:04.001Z</time></trkpt><trkpt lat="45.40022013298244" lon="13.974893290064351"><ele>46.0</ele><time>2026-04-11T15:19:05.001Z</time></trkpt><trkpt lat="45.40012169783028" lon="13.974916181781545"><ele>46.0</ele><time>2026-04-11T15:19:06.001Z</time></trkpt><trkpt lat="45.40001949010953" lon="13.974956408100022"><ele>46.0</ele><time>2026-04-11T15:19:07.001Z</time></trkpt><trkpt lat="45.39991319515562" lon="13.975021316169498"><ele>46.0</ele><time>2026-04-11T15:19:08.001Z</time></trkpt><trkpt lat="45.39981921234181" lon="13.975085943043563"><ele>46.0</ele><time>2026-04-11T15:19:09.001Z</time></trkpt><trkpt lat="45.399725151959125" lon="13.975139986545878"><ele>46.0</ele><time>2026-04-11T15:19:10.001Z</time></trkpt><trkpt lat="45.399618358196314" lon="13.97518813673"><ele>46.0</ele><time>2026-04-11T15:19:11.001Z</time></trkpt><trkpt lat="45.39951027224635" lon="13.975230987937406"><ele>46.0</ele><time>2026-04-11T15:19:12.001Z</time></trkpt><trkpt lat="45.399403523602274" lon="13.975267429564406"><ele>46.0</ele><time>2026-04-11T15:19:13.001Z</time></trkpt><trkpt lat="45.39929989547922" lon="13.975305712088536"><ele>46.0</ele><time>2026-04-11T15:19:14.001Z</time></trkpt><trkpt lat="45.39919370343319" lon="13.975307701475886"><ele>46.0</ele><time>2026-04-11T15:19:15.001Z</time></trkpt><trkpt lat="45.399087419794064" lon="13.975316926775953"><ele>46.0</ele><time>2026-04-11T15:19:16.001Z</time></trkpt><trkpt lat="45.39898424564594" lon="13.975320408923876"><ele>46.0</ele><time>2026-04-11T15:19:17.001Z</time></trkpt><trkpt lat="45.398885164539564" lon="13.975357316244843"><ele>46.0</ele><time>2026-04-11T15:19:18.001Z</time></trkpt><trkpt lat="45.39878608439121" lon="13.975363717177062"><ele>46.0</ele><time>2026-04-11T15:19:19.001Z</time></trkpt><trkpt lat="45.39868130265178" lon="13.975345394986176"><ele>46.0</ele><time>2026-04-11T15:19:20.001Z</time></trkpt><trkpt lat="45.39857214723439" lon="13.975355643627275"><ele>46.0</ele><time>2026-04-11T15:19:21.001Z</time></trkpt><trkpt lat="45.39846042496726" lon="13.97536431072236"><ele>46.5</ele><time>2026-04-11T15:19:22.001Z</time></trkpt><trkpt lat="45.39834196732747" lon="13.975391952765392"><ele>47.0</ele><time>2026-04-11T15:19:23.001Z</time></trkpt><trkpt lat="45.39822192145728" lon="13.975358713042118"><ele>47.5</ele><time>2026-04-11T15:19:24.001Z</time></trkpt><trkpt lat="45.39811734907727" lon="13.97531160436871"><ele>48.0</ele><time>2026-04-11T15:19:25.001Z</time></trkpt><trkpt lat="45.398013323816194" lon="13.975253033222026"><ele>48.599999999999994</ele><time>2026-04-11T15:19:26.001Z</time></trkpt><trkpt lat="45.39790867404361" lon="13.975205244983545"><ele>49.199999999999996</ele><time>2026-04-11T15:19:27.001Z</time></trkpt><trkpt lat="45.39780456378523" lon="13.975192068425612"><ele>49.8</ele><time>2026-04-11T15:19:28.001Z</time></trkpt><trkpt lat="45.39771338853013" lon="13.97513981627689"><ele>50.4</ele><time>2026-04-11T15:19:29.001Z</time></trkpt><trkpt lat="45.397618348293854" lon="13.975138860956045"><ele>51.0</ele><time>2026-04-11T15:19:30.001Z</time></trkpt><trkpt lat="45.397530458217766" lon="13.975117920602713"><ele>51.0</ele><time>2026-04-11T15:19:31.001Z</time></trkpt><trkpt lat="45.397460065515574" lon="13.975075765502286"><ele>51.0</ele><time>2026-04-11T15:19:32.001Z</time></trkpt><trkpt lat="45.39738397073646" lon="13.975056704758"><ele>51.0</ele><time>2026-04-11T15:19:33.001Z</time></trkpt><trkpt lat="45.39732328531937" lon="13.974963831180583"><ele>51.0</ele><time>2026-04-11T15:19:34.001Z</time></trkpt><trkpt lat="45.39724366461353" lon="13.974885884736944"><ele>51.0</ele><time>2026-04-11T15:19:35.001Z</time></trkpt><trkpt lat="45.397163981957966" lon="13.974818654222606"><ele>51.0</ele><time>2026-04-11T15:19:36.001Z</time></trkpt><trkpt lat="45.397081939226155" lon="13.974756466370133"><ele>55.0</ele><time>2026-04-11T15:19:37.001Z</time></trkpt><trkpt lat="45.3969905525024" lon="13.974700628783712"><ele>59.0</ele><time>2026-04-11T15:19:38.001Z</time></trkpt><trkpt lat="45.396896446016136" lon="13.97466725067763"><ele>62.99999999999999</ele><time>2026-04-11T15:19:39.001Z</time></trkpt><trkpt lat="45.396801404656614" lon="13.974621360662685"><ele>67.0</ele><time>2026-04-11T15:19:40.001Z</time></trkpt><trkpt lat="45.39672249796665" lon="13.974587262256557"><ele>71.0</ele><time>2026-04-11T15:19:41.001Z</time></trkpt><trkpt lat="45.39665048959674" lon="13.974572125084169"><ele>71.0</ele><time>2026-04-11T15:19:42.001Z</time></trkpt><trkpt lat="45.3965826676405" lon="13.974590770515714"><ele>71.0</ele><time>2026-04-11T15:19:43.001Z</time></trkpt><trkpt lat="45.39651889870917" lon="13.97461857460196"><ele>71.0</ele><time>2026-04-11T15:19:44.001Z</time></trkpt><trkpt lat="45.39642723698456" lon="13.974717918494084"><ele>71.0</ele><time>2026-04-11T15:19:46.001Z</time></trkpt><trkpt lat="45.396382641351394" lon="13.974883354683353"><ele>71.0</ele><time>2026-04-11T15:19:48.001Z</time></trkpt><trkpt lat="45.396369926441494" lon="13.97497906843392"><ele>71.0</ele><time>2026-04-11T15:19:49.001Z</time></trkpt><trkpt lat="45.396367495330786" lon="13.97510123353543"><ele>71.0</ele><time>2026-04-11T15:19:50.001Z</time></trkpt><trkpt lat="45.39634293074979" lon="13.975245354561805"><ele>71.0</ele><time>2026-04-11T15:19:51.001Z</time></trkpt><trkpt lat="45.39629444651171" lon="13.975380089932909"><ele>71.0</ele><time>2026-04-11T15:19:52.001Z</time></trkpt><trkpt lat="45.396243638710295" lon="13.9754572593522"><ele>71.0</ele><time>2026-04-11T15:19:53.001Z</time></trkpt><trkpt lat="45.39618554687536" lon="13.975501885172449"><ele>71.0</ele><time>2026-04-11T15:19:54.001Z</time></trkpt><trkpt lat="45.39611144323671" lon="13.975521007441614"><ele>71.0</ele><time>2026-04-11T15:19:55.001Z</time></trkpt><trkpt lat="45.39603453898791" lon="13.975537775250514"><ele>74.8</ele><time>2026-04-11T15:19:56.001Z</time></trkpt><trkpt lat="45.39596171940721" lon="13.975539549859123"><ele>78.6</ele><time>2026-04-11T15:19:57.001Z</time></trkpt><trkpt lat="45.39589533289901" lon="13.975530616726564"><ele>82.4</ele><time>2026-04-11T15:19:58.001Z</time></trkpt><trkpt lat="45.395804473170244" lon="13.975528302183745"><ele>86.2</ele><time>2026-04-11T15:19:59.001Z</time></trkpt><trkpt lat="45.39562816349682" lon="13.975545280693888"><ele>90.0</ele><time>2026-04-11T15:20:01.001Z</time></trkpt><trkpt lat="45.39555174158064" lon="13.975544765484514"><ele>91.0</ele><time>2026-04-11T15:20:02.001Z</time></trkpt><trkpt lat="45.39547848398968" lon="13.975538073149439"><ele>92.0</ele><time>2026-04-11T15:20:03.001Z</time></trkpt><trkpt lat="45.395383984473774" lon="13.975531439978145"><ele>93.0</ele><time>2026-04-11T15:20:04.001Z</time></trkpt><trkpt lat="45.395255355370054" lon="13.975523755689293"><ele>94.0</ele><time>2026-04-11T15:20:05.001Z</time></trkpt><trkpt lat="45.395101528880055" lon="13.975514316189695"><ele>94.0</ele><time>2026-04-11T15:20:06.001Z</time></trkpt><trkpt lat="45.39496000514808" lon="13.975490299866346"><ele>94.0</ele><time>2026-04-11T15:20:07.001Z</time></trkpt><trkpt lat="45.39480468690208" lon="13.975465734747276"><ele>94.0</ele><time>2026-04-11T15:20:08.001Z</time></trkpt><trkpt lat="45.39462643266032" lon="13.975432600889036"><ele>95.33333333333333</ele><time>2026-04-11T15:20:09.001Z</time></trkpt><trkpt lat="45.39446813812551" lon="13.975392246883525"><ele>96.66666666666666</ele><time>2026-04-11T15:20:10.001Z</time></trkpt><trkpt lat="45.39430457605149" lon="13.975365501577318"><ele>98.0</ele><time>2026-04-11T15:20:11.001Z</time></trkpt><trkpt lat="45.394147299872934" lon="13.975334219443338"><ele>98.0</ele><time>2026-04-11T15:20:12.001Z</time></trkpt><trkpt lat="45.39397591482663" lon="13.975298889434924"><ele>98.0</ele><time>2026-04-11T15:20:13.001Z</time></trkpt><trkpt lat="45.393811418504264" lon="13.975280782088634"><ele>98.0</ele><time>2026-04-11T15:20:14.001Z</time></trkpt><trkpt lat="45.39365809186762" lon="13.975275414654687"><ele>99.0</ele><time>2026-04-11T15:20:15.001Z</time></trkpt><trkpt lat="45.39351406741332" lon="13.975270741510034"><ele>100.0</ele><time>2026-04-11T15:20:16.001Z</time></trkpt><trkpt lat="45.3933667140271" lon="13.975264600642074"><ele>101.0</ele><time>2026-04-11T15:20:17.001Z</time></trkpt><trkpt lat="45.393214737000015" lon="13.975252429780847"><ele>102.0</ele><time>2026-04-11T15:20:18.001Z</time></trkpt><trkpt lat="45.393058631786275" lon="13.975236916242249"><ele>105.33333333333334</ele><time>2026-04-11T15:20:19.001Z</time></trkpt><trkpt lat="45.39290482399977" lon="13.975219343114428"><ele>108.66666666666667</ele><time>2026-04-11T15:20:20.001Z</time></trkpt><trkpt lat="45.3927529897911" lon="13.975186383128703"><ele>112.0</ele><time>2026-04-11T15:20:21.001Z</time></trkpt><trkpt lat="45.39260331878337" lon="13.975140228234217"><ele>112.0</ele><time>2026-04-11T15:20:22.001Z</time></trkpt><trkpt lat="45.392459793015234" lon="13.975087540904381"><ele>112.0</ele><time>2026-04-11T15:20:23.001Z</time></trkpt><trkpt lat="45.39233891618209" lon="13.97504641055859"><ele>112.0</ele><time>2026-04-11T15:20:24.001Z</time></trkpt><trkpt lat="45.39222265333882" lon="13.975028633740031"><ele>112.0</ele><time>2026-04-11T15:20:25.001Z</time></trkpt><trkpt lat="45.39212546207736" lon="13.975056328805504"><ele>117.25</ele><time>2026-04-11T15:20:26.001Z</time></trkpt><trkpt lat="45.39204062452649" lon="13.975132899577478"><ele>122.5</ele><time>2026-04-11T15:20:27.001Z</time></trkpt><trkpt lat="45.39197588577044" lon="13.975250278759132"><ele>127.75</ele><time>2026-04-11T15:20:28.001Z</time></trkpt><trkpt lat="45.391913476327396" lon="13.975395869106073"><ele>133.0</ele><time>2026-04-11T15:20:29.001Z</time></trkpt><trkpt lat="45.39185220927014" lon="13.975594488153435"><ele>133.0</ele><time>2026-04-11T15:20:30.001Z</time></trkpt><trkpt lat="45.3917912829066" lon="13.97578896508033"><ele>133.0</ele><time>2026-04-11T15:20:31.001Z</time></trkpt><trkpt lat="45.391715535182925" lon="13.976005115732658"><ele>133.0</ele><time>2026-04-11T15:20:32.001Z</time></trkpt><trkpt lat="45.3916414670115" lon="13.976218221467468"><ele>132.25</ele><time>2026-04-11T15:20:33.001Z</time></trkpt><trkpt lat="45.391563463201294" lon="13.976406524341863"><ele>131.5</ele><time>2026-04-11T15:20:34.001Z</time></trkpt><trkpt lat="45.39150099388535" lon="13.976577598846992"><ele>130.75</ele><time>2026-04-11T15:20:35.001Z</time></trkpt><trkpt lat="45.391423286100704" lon="13.97673106470038"><ele>130.0</ele><time>2026-04-11T15:20:36.001Z</time></trkpt><trkpt lat="45.39133698900094" lon="13.976881108271803"><ele>134.25</ele><time>2026-04-11T15:20:37.001Z</time></trkpt><trkpt lat="45.391233190798395" lon="13.977019084354028"><ele>138.5</ele><time>2026-04-11T15:20:38.001Z</time></trkpt><trkpt lat="45.391123667982136" lon="13.977124257708734"><ele>142.75</ele><time>2026-04-11T15:20:39.001Z</time></trkpt><trkpt lat="45.391051399045104" lon="13.977249559563958"><ele>147.0</ele><time>2026-04-11T15:20:40.001Z</time></trkpt><trkpt lat="45.391022137680665" lon="13.97740696288329"><ele>151.75</ele><time>2026-04-11T15:20:41.001Z</time></trkpt><trkpt lat="45.39102937895285" lon="13.977572352971087"><ele>156.5</ele><time>2026-04-11T15:20:42.001Z</time></trkpt><trkpt lat="45.39106108548781" lon="13.977730747168469"><ele>161.25</ele><time>2026-04-11T15:20:43.001Z</time></trkpt><trkpt lat="45.39119650968427" lon="13.97786910380186"><ele>166.0</ele><time>2026-04-11T15:20:44.001Z</time></trkpt><trkpt lat="45.39133264770877" lon="13.977967909462407"><ele>160.66666666666669</ele><time>2026-04-11T15:20:45.001Z</time></trkpt><trkpt lat="45.39149283130607" lon="13.977998446457594"><ele>155.33333333333334</ele><time>2026-04-11T15:20:46.001Z</time></trkpt><trkpt lat="45.391648495647935" lon="13.978033412065477"><ele>150.0</ele><time>2026-04-11T15:20:47.001Z</time></trkpt><trkpt lat="45.391782714038776" lon="13.97807095633187"><ele>150.0</ele><time>2026-04-11T15:20:48.001Z</time></trkpt><trkpt lat="45.391903479646935" lon="13.978136178637342"><ele>150.0</ele><time>2026-04-11T15:20:49.001Z</time></trkpt><trkpt lat="45.39201651029133" lon="13.978212182628775"><ele>150.0</ele><time>2026-04-11T15:20:50.001Z</time></trkpt><trkpt lat="45.39212194207989" lon="13.978339548956255"><ele>150.0</ele><time>2026-04-11T15:20:51.001Z</time></trkpt><trkpt lat="45.39220725863707" lon="13.97852676991742"><ele>150.33333333333334</ele><time>2026-04-11T15:20:52.001Z</time></trkpt><trkpt lat="45.39229930157621" lon="13.978716615112676"><ele>150.66666666666669</ele><time>2026-04-11T15:20:53.001Z</time></trkpt><trkpt lat="45.392380185326964" lon="13.97892144148056"><ele>151.0</ele><time>2026-04-11T15:20:54.001Z</time></trkpt><trkpt lat="45.39246296621344" lon="13.979101269551812"><ele>151.0</ele><time>2026-04-11T15:20:55.001Z</time></trkpt><trkpt lat="45.39256082323854" lon="13.979242431909496"><ele>151.0</ele><time>2026-04-11T15:20:56.001Z</time></trkpt><trkpt lat="45.39266750278923" lon="13.979358359085747"><ele>151.0</ele><time>2026-04-11T15:20:57.001Z</time></trkpt><trkpt lat="45.392758074765574" lon="13.979457793848486"><ele>151.0</ele><time>2026-04-11T15:20:58.001Z</time></trkpt><trkpt lat="45.39280211178599" lon="13.979549928819653"><ele>151.0</ele><time>2026-04-11T15:20:59.001Z</time></trkpt><trkpt lat="45.39280970230131" lon="13.979649925051211"><ele>151.0</ele><time>2026-04-11T15:21:00.001Z</time></trkpt><trkpt lat="45.39276051457278" lon="13.979757079462091"><ele>151.0</ele><time>2026-04-11T15:21:01.001Z</time></trkpt><trkpt lat="45.39267179492957" lon="13.979816225165287"><ele>151.0</ele><time>2026-04-11T15:21:02.001Z</time></trkpt><trkpt lat="45.39259032671827" lon="13.979788610577403"><ele>151.0</ele><time>2026-04-11T15:21:03.001Z</time></trkpt><trkpt lat="45.39251486301693" lon="13.979665950790306"><ele>151.0</ele><time>2026-04-11T15:21:04.001Z</time></trkpt><trkpt lat="45.392462964324764" lon="13.979504293261002"><ele>151.0</ele><time>2026-04-11T15:21:05.001Z</time></trkpt><trkpt lat="45.39239121903966" lon="13.979306382606902"><ele>151.0</ele><time>2026-04-11T15:21:06.001Z</time></trkpt><trkpt lat="45.39228316634685" lon="13.97908614921653"><ele>157.33333333333334</ele><time>2026-04-11T15:21:07.001Z</time></trkpt><trkpt lat="45.39215931261969" lon="13.978902171919227"><ele>163.66666666666666</ele><time>2026-04-11T15:21:08.001Z</time></trkpt><trkpt lat="45.39202693773476" lon="13.978735851953195"><ele>170.0</ele><time>2026-04-11T15:21:09.001Z</time></trkpt><trkpt lat="45.39190036160863" lon="13.978577533284088"><ele>170.0</ele><time>2026-04-11T15:21:10.001Z</time></trkpt><trkpt lat="45.3917868877451" lon="13.978460953621967"><ele>170.0</ele><time>2026-04-11T15:21:11.001Z</time></trkpt><trkpt lat="45.39165886123347" lon="13.978382018225252"><ele>170.0</ele><time>2026-04-11T15:21:12.001Z</time></trkpt><trkpt lat="45.39152526298006" lon="13.978354499859384"><ele>170.0</ele><time>2026-04-11T15:21:13.001Z</time></trkpt><trkpt lat="45.39137538018841" lon="13.978378751949444"><ele>175.33333333333331</ele><time>2026-04-11T15:21:14.001Z</time></trkpt><trkpt lat="45.39121331663563" lon="13.97840348718196"><ele>180.66666666666666</ele><time>2026-04-11T15:21:15.001Z</time></trkpt><trkpt lat="45.391049854281626" lon="13.978408783913135"><ele>186.0</ele><time>2026-04-11T15:21:16.001Z</time></trkpt><trkpt lat="45.39088039423631" lon="13.978381076725391"><ele>186.0</ele><time>2026-04-11T15:21:17.001Z</time></trkpt><trkpt lat="45.390712741623865" lon="13.978357931885574"><ele>186.0</ele><time>2026-04-11T15:21:18.001Z</time></trkpt><trkpt lat="45.39054343663438" lon="13.978286924096135"><ele>186.0</ele><time>2026-04-11T15:21:19.001Z</time></trkpt><trkpt lat="45.390372117760634" lon="13.978129907234273"><ele>187.66666666666666</ele><time>2026-04-11T15:21:20.001Z</time></trkpt><trkpt lat="45.39020192786752" lon="13.977959469353635"><ele>189.33333333333331</ele><time>2026-04-11T15:21:21.001Z</time></trkpt><trkpt lat="45.390053668925276" lon="13.97778416024729"><ele>191.0</ele><time>2026-04-11T15:21:22.001Z</time></trkpt><trkpt lat="45.389913160951544" lon="13.977635036460025"><ele>192.75</ele><time>2026-04-11T15:21:23.001Z</time></trkpt><trkpt lat="45.38980260073711" lon="13.977493294546203"><ele>194.5</ele><time>2026-04-11T15:21:24.001Z</time></trkpt><trkpt lat="45.38972013482422" lon="13.977343338554496"><ele>196.25</ele><time>2026-04-11T15:21:25.001Z</time></trkpt><trkpt lat="45.389680676328794" lon="13.977146615847124"><ele>198.0</ele><time>2026-04-11T15:21:26.001Z</time></trkpt><trkpt lat="45.389659332887184" lon="13.97691370743361"><ele>189.0</ele><time>2026-04-11T15:21:27.001Z</time></trkpt><trkpt lat="45.38968968470726" lon="13.976644991401592"><ele>180.0</ele><time>2026-04-11T15:21:28.001Z</time></trkpt><trkpt lat="45.38974362167232" lon="13.97638681919825"><ele>171.0</ele><time>2026-04-11T15:21:29.001Z</time></trkpt><trkpt lat="45.38977198173961" lon="13.97613167524374"><ele>171.0</ele><time>2026-04-11T15:21:30.001Z</time></trkpt><trkpt lat="45.38980127296505" lon="13.975886063598058"><ele>171.0</ele><time>2026-04-11T15:21:31.001Z</time></trkpt><trkpt lat="45.389825934611636" lon="13.975660784458908"><ele>171.0</ele><time>2026-04-11T15:21:32.001Z</time></trkpt><trkpt lat="45.38988351070176" lon="13.975483999556491"><ele>172.75</ele><time>2026-04-11T15:21:33.001Z</time></trkpt><trkpt lat="45.38995595516447" lon="13.975330822013232"><ele>174.5</ele><time>2026-04-11T15:21:34.001Z</time></trkpt><trkpt lat="45.39004542896983" lon="13.975233217371349"><ele>176.25</ele><time>2026-04-11T15:21:35.001Z</time></trkpt><trkpt lat="45.390135135140916" lon="13.975137495351287"><ele>178.0</ele><time>2026-04-11T15:21:36.001Z</time></trkpt><trkpt lat="45.39020081890694" lon="13.975008336294211"><ele>180.0</ele><time>2026-04-11T15:21:37.001Z</time></trkpt><trkpt lat="45.390256218760506" lon="13.974847225873834"><ele>182.0</ele><time>2026-04-11T15:21:38.001Z</time></trkpt><trkpt lat="45.390318192307205" lon="13.974694973135138"><ele>184.0</ele><time>2026-04-11T15:21:39.001Z</time></trkpt><trkpt lat="45.390355364048226" lon="13.974509890202564"><ele>186.0</ele><time>2026-04-11T15:21:40.001Z</time></trkpt><trkpt lat="45.39036287827262" lon="13.974279467957258"><ele>189.0</ele><time>2026-04-11T15:21:41.001Z</time></trkpt><trkpt lat="45.39039324859239" lon="13.974070572379393"><ele>192.0</ele><time>2026-04-11T15:21:42.001Z</time></trkpt><trkpt lat="45.3904461576005" lon="13.973865092392106"><ele>195.0</ele><time>2026-04-11T15:21:43.001Z</time></trkpt><trkpt lat="45.39053138120675" lon="13.973683042821033"><ele>192.5</ele><time>2026-04-11T15:21:44.001Z</time></trkpt><trkpt lat="45.39060937829397" lon="13.97351122705051"><ele>190.0</ele><time>2026-04-11T15:21:45.001Z</time></trkpt><trkpt lat="45.39067816148586" lon="13.973344133334455"><ele>187.5</ele><time>2026-04-11T15:21:46.001Z</time></trkpt><trkpt lat="45.39072205948734" lon="13.973188255876888"><ele>185.0</ele><time>2026-04-11T15:21:47.001Z</time></trkpt><trkpt lat="45.39074262995954" lon="13.973039716557242"><ele>185.0</ele><time>2026-04-11T15:21:48.001Z</time></trkpt><trkpt lat="45.390741165431976" lon="13.972912666242902"><ele>185.0</ele><time>2026-04-11T15:21:49.001Z</time></trkpt><trkpt lat="45.390693821198504" lon="13.972813497354878"><ele>185.0</ele><time>2026-04-11T15:21:50.001Z</time></trkpt><trkpt lat="45.390595983083486" lon="13.972753825791406"><ele>185.0</ele><time>2026-04-11T15:21:51.001Z</time></trkpt><trkpt lat="45.3904877293828" lon="13.972767247032484"><ele>185.0</ele><time>2026-04-11T15:21:52.001Z</time></trkpt><trkpt lat="45.39040463554581" lon="13.972862420495618"><ele>187.5</ele><time>2026-04-11T15:21:53.001Z</time></trkpt><trkpt lat="45.39036243203635" lon="13.973038509652657"><ele>190.0</ele><time>2026-04-11T15:21:54.001Z</time></trkpt><trkpt lat="45.39034341136312" lon="13.973208563030413"><ele>192.5</ele><time>2026-04-11T15:21:55.001Z</time></trkpt><trkpt lat="45.39030245968733" lon="13.973356111368998"><ele>195.0</ele><time>2026-04-11T15:21:56.001Z</time></trkpt><trkpt lat="45.39023164176229" lon="13.973476825806252"><ele>195.0</ele><time>2026-04-11T15:21:57.001Z</time></trkpt><trkpt lat="45.3901419540266" lon="13.973559732905045"><ele>195.0</ele><time>2026-04-11T15:21:58.001Z</time></trkpt><trkpt lat="45.39002808875963" lon="13.973613158174016"><ele>195.0</ele><time>2026-04-11T15:21:59.001Z</time></trkpt><trkpt lat="45.38990426253844" lon="13.973684415309396"><ele>195.0</ele><time>2026-04-11T15:22:00.001Z</time></trkpt><trkpt lat="45.38979059060581" lon="13.973807756744664"><ele>200.66666666666669</ele><time>2026-04-11T15:22:01.001Z</time></trkpt><trkpt lat="45.38967421910894" lon="13.974016219302776"><ele>206.33333333333334</ele><time>2026-04-11T15:22:02.001Z</time></trkpt><trkpt lat="45.38955884043404" lon="13.974263752271282"><ele>212.0</ele><time>2026-04-11T15:22:03.001Z</time></trkpt><trkpt lat="45.38945582954849" lon="13.974474645096945"><ele>212.0</ele><time>2026-04-11T15:22:04.001Z</time></trkpt><trkpt lat="45.389356292498746" lon="13.974678150417128"><ele>212.0</ele><time>2026-04-11T15:22:05.001Z</time></trkpt><trkpt lat="45.389258900954516" lon="13.974879737964693"><ele>212.0</ele><time>2026-04-11T15:22:06.001Z</time></trkpt><trkpt lat="45.38915574679539" lon="13.975061979385272"><ele>210.5</ele><time>2026-04-11T15:22:07.001Z</time></trkpt><trkpt lat="45.38906698392694" lon="13.975237802332224"><ele>209.0</ele><time>2026-04-11T15:22:08.001Z</time></trkpt><trkpt lat="45.38899589534247" lon="13.975403479075842"><ele>207.5</ele><time>2026-04-11T15:22:09.001Z</time></trkpt><trkpt lat="45.388957269729325" lon="13.975575790759668"><ele>206.0</ele><time>2026-04-11T15:22:10.001Z</time></trkpt><trkpt lat="45.38893388587363" lon="13.975766708695355"><ele>204.75</ele><time>2026-04-11T15:22:11.001Z</time></trkpt><trkpt lat="45.38891056178388" lon="13.975957362915228"><ele>203.5</ele><time>2026-04-11T15:22:12.001Z</time></trkpt><trkpt lat="45.38887887095775" lon="13.97613347389733"><ele>202.25</ele><time>2026-04-11T15:22:13.001Z</time></trkpt><trkpt lat="45.3888253667229" lon="13.976274677309009"><ele>201.0</ele><time>2026-04-11T15:22:14.001Z</time></trkpt><trkpt lat="45.38874452279535" lon="13.976363902560626"><ele>204.0</ele><time>2026-04-11T15:22:15.001Z</time></trkpt><trkpt lat="45.38861894440316" lon="13.976402812881732"><ele>207.0</ele><time>2026-04-11T15:22:16.001Z</time></trkpt><trkpt lat="45.38847951756593" lon="13.976406391701806"><ele>210.0</ele><time>2026-04-11T15:22:17.001Z</time></trkpt><trkpt lat="45.38831594383483" lon="13.976402687879354"><ele>213.0</ele><time>2026-04-11T15:22:18.001Z</time></trkpt><trkpt lat="45.38814677112085" lon="13.97639852214196"><ele>215.0</ele><time>2026-04-11T15:22:19.001Z</time></trkpt><trkpt lat="45.387976091218796" lon="13.976393933557668"><ele>217.0</ele><time>2026-04-11T15:22:20.001Z</time></trkpt><trkpt lat="45.38781214280218" lon="13.976383628926369"><ele>219.0</ele><time>2026-04-11T15:22:21.001Z</time></trkpt><trkpt lat="45.38765127817704" lon="13.976340040549886"><ele>219.0</ele><time>2026-04-11T15:22:22.001Z</time></trkpt><trkpt lat="45.387492938886986" lon="13.976276944399086"><ele>219.0</ele><time>2026-04-11T15:22:23.001Z</time></trkpt><trkpt lat="45.38733565043916" lon="13.976210250772626"><ele>219.0</ele><time>2026-04-11T15:22:24.001Z</time></trkpt><trkpt lat="45.38718884727473" lon="13.976194610279727"><ele>218.6</ele><time>2026-04-11T15:22:25.001Z</time></trkpt><trkpt lat="45.38705247629903" lon="13.976214927249291"><ele>218.2</ele><time>2026-04-11T15:22:26.001Z</time></trkpt><trkpt lat="45.38693930926036" lon="13.97620984362428"><ele>217.79999999999998</ele><time>2026-04-11T15:22:27.001Z</time></trkpt><trkpt lat="45.38685266132701" lon="13.976176149190703"><ele>217.39999999999998</ele><time>2026-04-11T15:22:28.001Z</time></trkpt><trkpt lat="45.38682909157739" lon="13.976061020594825"><ele>217.0</ele><time>2026-04-11T15:22:29.001Z</time></trkpt><trkpt lat="45.386840002235786" lon="13.975939944586925"><ele>220.0</ele><time>2026-04-11T15:22:30.001Z</time></trkpt><trkpt lat="45.386913420111306" lon="13.975841717934085"><ele>223.0</ele><time>2026-04-11T15:22:31.001Z</time></trkpt><trkpt lat="45.387028666878734" lon="13.975788891870197"><ele>226.0</ele><time>2026-04-11T15:22:32.001Z</time></trkpt><trkpt lat="45.38717737817747" lon="13.97577022153303"><ele>229.0</ele><time>2026-04-11T15:22:33.001Z</time></trkpt><trkpt lat="45.387326367194454" lon="13.975746185202787"><ele>229.6</ele><time>2026-04-11T15:22:34.001Z</time></trkpt><trkpt lat="45.38745536256187" lon="13.975718734470144"><ele>230.2</ele><time>2026-04-11T15:22:35.001Z</time></trkpt><trkpt lat="45.38756915749164" lon="13.975682061429517"><ele>230.79999999999998</ele><time>2026-04-11T15:22:36.001Z</time></trkpt><trkpt lat="45.38766943924505" lon="13.975620030446391"><ele>231.39999999999998</ele><time>2026-04-11T15:22:37.001Z</time></trkpt><trkpt lat="45.38773156524972" lon="13.975526729991595"><ele>232.0</ele><time>2026-04-11T15:22:38.001Z</time></trkpt><trkpt lat="45.38774206829372" lon="13.975371637719693"><ele>232.0</ele><time>2026-04-11T15:22:39.001Z</time></trkpt><trkpt lat="45.38770011788156" lon="13.975237931463738"><ele>232.0</ele><time>2026-04-11T15:22:40.001Z</time></trkpt><trkpt lat="45.38761761371945" lon="13.975138094686999"><ele>232.0</ele><time>2026-04-11T15:22:41.001Z</time></trkpt><trkpt lat="45.38749094599552" lon="13.975107700701624"><ele>232.0</ele><time>2026-04-11T15:22:42.001Z</time></trkpt><trkpt lat="45.38731481567841" lon="13.975090312321223"><ele>231.0</ele><time>2026-04-11T15:22:43.001Z</time></trkpt><trkpt lat="45.3871068466679" lon="13.975029447929357"><ele>230.0</ele><time>2026-04-11T15:22:44.001Z</time></trkpt><trkpt lat="45.386904430798715" lon="13.974925734962001"><ele>229.0</ele><time>2026-04-11T15:22:45.001Z</time></trkpt><trkpt lat="45.38672342017158" lon="13.974764001300342"><ele>233.66666666666666</ele><time>2026-04-11T15:22:46.001Z</time></trkpt><trkpt lat="45.386577893371495" lon="13.974583058025482"><ele>238.33333333333331</ele><time>2026-04-11T15:22:47.001Z</time></trkpt><trkpt lat="45.386483663770754" lon="13.974382011399149"><ele>243.0</ele><time>2026-04-11T15:22:48.001Z</time></trkpt><trkpt lat="45.38640862154188" lon="13.9742009145321"><ele>243.33333333333331</ele><time>2026-04-11T15:22:49.001Z</time></trkpt><trkpt lat="45.38631648940931" lon="13.974047988618109"><ele>243.66666666666666</ele><time>2026-04-11T15:22:50.001Z</time></trkpt><trkpt lat="45.386181065902306" lon="13.973943730396405"><ele>244.0</ele><time>2026-04-11T15:22:51.001Z</time></trkpt><trkpt lat="45.38601025003924" lon="13.973869269212882"><ele>244.0</ele><time>2026-04-11T15:22:52.001Z</time></trkpt><trkpt lat="45.38583211813236" lon="13.973797754973988"><ele>244.0</ele><time>2026-04-11T15:22:53.001Z</time></trkpt><trkpt lat="45.38565797838513" lon="13.973712405842063"><ele>244.0</ele><time>2026-04-11T15:22:54.001Z</time></trkpt><trkpt lat="45.385499448278516" lon="13.973625771349038"><ele>245.75</ele><time>2026-04-11T15:22:55.001Z</time></trkpt><trkpt lat="45.38535417494515" lon="13.973550348893772"><ele>247.5</ele><time>2026-04-11T15:22:56.001Z</time></trkpt><trkpt lat="45.385215109297754" lon="13.973538527279821"><ele>249.25</ele><time>2026-04-11T15:22:57.001Z</time></trkpt><trkpt lat="45.38509068907216" lon="13.973613009375779"><ele>251.0</ele><time>2026-04-11T15:22:58.001Z</time></trkpt><trkpt lat="45.38500434127222" lon="13.973735549901829"><ele>251.0</ele><time>2026-04-11T15:22:59.001Z</time></trkpt><trkpt lat="45.38490759740719" lon="13.97386995451273"><ele>251.0</ele><time>2026-04-11T15:23:00.001Z</time></trkpt><trkpt lat="45.38479413305114" lon="13.973974731566594"><ele>251.0</ele><time>2026-04-11T15:23:01.001Z</time></trkpt><trkpt lat="45.3846503740541" lon="13.97400185120288"><ele>251.0</ele><time>2026-04-11T15:23:02.001Z</time></trkpt><trkpt lat="45.384464242629065" lon="13.973975381291286"><ele>249.66666666666669</ele><time>2026-04-11T15:23:03.001Z</time></trkpt><trkpt lat="45.38425701066697" lon="13.9738878746534"><ele>248.33333333333331</ele><time>2026-04-11T15:23:04.001Z</time></trkpt><trkpt lat="45.384053246378606" lon="13.973771346631777"><ele>247.0</ele><time>2026-04-11T15:23:05.001Z</time></trkpt><trkpt lat="45.38387013799776" lon="13.973591884562655"><ele>248.66666666666666</ele><time>2026-04-11T15:23:06.001Z</time></trkpt><trkpt lat="45.38370884747241" lon="13.973413072010148"><ele>250.33333333333331</ele><time>2026-04-11T15:23:07.001Z</time></trkpt><trkpt lat="45.38356992349693" lon="13.973249121463622"><ele>252.0</ele><time>2026-04-11T15:23:08.001Z</time></trkpt><trkpt lat="45.38342634701362" lon="13.973181533108423"><ele>252.0</ele><time>2026-04-11T15:23:09.001Z</time></trkpt><trkpt lat="45.383286811674004" lon="13.973205880651843"><ele>252.0</ele><time>2026-04-11T15:23:10.001Z</time></trkpt><trkpt lat="45.383143333305696" lon="13.973318824249835"><ele>252.0</ele><time>2026-04-11T15:23:11.001Z</time></trkpt><trkpt lat="45.38300617348378" lon="13.97342915767639"><ele>252.25</ele><time>2026-04-11T15:23:12.001Z</time></trkpt><trkpt lat="45.38288965997147" lon="13.973522611303052"><ele>252.5</ele><time>2026-04-11T15:23:13.001Z</time></trkpt><trkpt lat="45.38278790909642" lon="13.97358681567316"><ele>252.75</ele><time>2026-04-11T15:23:14.001Z</time></trkpt><trkpt lat="45.38268911358754" lon="13.973620106728568"><ele>253.0</ele><time>2026-04-11T15:23:15.001Z</time></trkpt><trkpt lat="45.38258726986305" lon="13.973651120727183"><ele>253.0</ele><time>2026-04-11T15:23:16.001Z</time></trkpt><trkpt lat="45.38247931787724" lon="13.973684688428344"><ele>253.0</ele><time>2026-04-11T15:23:17.001Z</time></trkpt><trkpt lat="45.382385838612585" lon="13.97371661718511"><ele>253.0</ele><time>2026-04-11T15:23:18.001Z</time></trkpt><trkpt lat="45.38230048586595" lon="13.973755594263798"><ele>253.0</ele><time>2026-04-11T15:23:19.001Z</time></trkpt><trkpt lat="45.38221399479494" lon="13.973808851148748"><ele>253.0</ele><time>2026-04-11T15:23:20.001Z</time></trkpt><trkpt lat="45.38213400204261" lon="13.973884025818682"><ele>253.75</ele><time>2026-04-11T15:23:21.001Z</time></trkpt><trkpt lat="45.38206417447008" lon="13.973993701651068"><ele>254.5</ele><time>2026-04-11T15:23:22.001Z</time></trkpt><trkpt lat="45.38199459082448" lon="13.974123538734307"><ele>255.25</ele><time>2026-04-11T15:23:23.001Z</time></trkpt><trkpt lat="45.38192385087597" lon="13.974266148300982"><ele>256.0</ele><time>2026-04-11T15:23:24.001Z</time></trkpt><trkpt lat="45.381850273773274" lon="13.974406425751564"><ele>257.25</ele><time>2026-04-11T15:23:25.001Z</time></trkpt><trkpt lat="45.381770263475964" lon="13.974545203318893"><ele>258.5</ele><time>2026-04-11T15:23:26.001Z</time></trkpt><trkpt lat="45.38168353806709" lon="13.974689285077801"><ele>259.75</ele><time>2026-04-11T15:23:27.001Z</time></trkpt><trkpt lat="45.38160072441486" lon="13.97483023563364"><ele>261.0</ele><time>2026-04-11T15:23:28.001Z</time></trkpt><trkpt lat="45.381520034986806" lon="13.974973052674365"><ele>261.75</ele><time>2026-04-11T15:23:29.001Z</time></trkpt><trkpt lat="45.381437550819655" lon="13.975115044429884"><ele>262.5</ele><time>2026-04-11T15:23:30.001Z</time></trkpt><trkpt lat="45.381354643501275" lon="13.97524709992882"><ele>263.25</ele><time>2026-04-11T15:23:31.001Z</time></trkpt><trkpt lat="45.38127395285562" lon="13.975366652666283"><ele>264.0</ele><time>2026-04-11T15:23:32.001Z</time></trkpt><trkpt lat="45.381187434889554" lon="13.975474285968467"><ele>265.0</ele><time>2026-04-11T15:23:33.001Z</time></trkpt><trkpt lat="45.38109615745078" lon="13.975568204992175"><ele>266.0</ele><time>2026-04-11T15:23:34.001Z</time></trkpt><trkpt lat="45.38100799559768" lon="13.975650764723914"><ele>267.0</ele><time>2026-04-11T15:23:35.001Z</time></trkpt><trkpt lat="45.38092838577276" lon="13.975725935433806"><ele>268.0</ele><time>2026-04-11T15:23:36.001Z</time></trkpt><trkpt lat="45.38086442883626" lon="13.975786817414253"><ele>269.0</ele><time>2026-04-11T15:23:37.001Z</time></trkpt><trkpt lat="45.38079390363118" lon="13.975794604137153"><ele>269.0</ele><time>2026-04-11T15:23:39.001Z</time></trkpt><trkpt lat="45.380731915228445" lon="13.975768665301583"><ele>269.0</ele><time>2026-04-11T15:23:41.002Z</time></trkpt><trkpt lat="45.38075110319715" lon="13.975876206225077"><ele>269.0</ele><time>2026-04-11T15:23:42.002Z</time></trkpt><trkpt lat="45.38065315868945" lon="13.975794897486471"><ele>269.0</ele><time>2026-04-11T15:23:43.002Z</time></trkpt><trkpt lat="45.38058607766946" lon="13.975854836621616"><ele>269.0</ele><time>2026-04-11T15:23:45.002Z</time></trkpt><trkpt lat="45.380503913540736" lon="13.975928424535494"><ele>269.0</ele><time>2026-04-11T15:23:47.002Z</time></trkpt><trkpt lat="45.380425243790064" lon="13.976016036783085"><ele>269.0</ele><time>2026-04-11T15:23:49.002Z</time></trkpt><trkpt lat="45.38034896080991" lon="13.976075004672019"><ele>269.0</ele><time>2026-04-11T15:23:51.002Z</time></trkpt><trkpt lat="45.380275210411085" lon="13.976147158557781"><ele>269.0</ele><time>2026-04-11T15:23:53.002Z</time></trkpt><trkpt lat="45.380185167685305" lon="13.976229565773743"><ele>269.0</ele><time>2026-04-11T15:23:55.002Z</time></trkpt><trkpt lat="45.38012907788769" lon="13.976288874299206"><ele>269.0</ele><time>2026-04-11T15:23:56.002Z</time></trkpt><trkpt lat="45.38002712747962" lon="13.976378504970556"><ele>269.0</ele><time>2026-04-11T15:23:58.002Z</time></trkpt><trkpt lat="45.379969402742546" lon="13.976436663113033"><ele>269.0</ele><time>2026-04-11T15:23:59.002Z</time></trkpt><trkpt lat="45.37991679837329" lon="13.976502808129965"><ele>269.0</ele><time>2026-04-11T15:24:00.002Z</time></trkpt><trkpt lat="45.3798524808272" lon="13.976560146516608"><ele>269.0</ele><time>2026-04-11T15:24:01.002Z</time></trkpt><trkpt lat="45.379746821637575" lon="13.97666337791048"><ele>269.0</ele><time>2026-04-11T15:24:03.002Z</time></trkpt><trkpt lat="45.379661545681905" lon="13.976715382611207"><ele>269.0</ele><time>2026-04-11T15:24:05.002Z</time></trkpt><trkpt lat="45.379586362731544" lon="13.976736570711154"><ele>269.83333333333337</ele><time>2026-04-11T15:24:07.002Z</time></trkpt><trkpt lat="45.37951595588124" lon="13.976894194644018"><ele>270.6666666666667</ele><time>2026-04-11T15:24:09.002Z</time></trkpt><trkpt lat="45.3794464899482" lon="13.976996306077535"><ele>271.5</ele><time>2026-04-11T15:24:10.002Z</time></trkpt><trkpt lat="45.37941433609053" lon="13.977091281208509"><ele>272.3333333333333</ele><time>2026-04-11T15:24:11.002Z</time></trkpt><trkpt lat="45.37938202766786" lon="13.977183948477718"><ele>273.16666666666663</ele><time>2026-04-11T15:24:12.002Z</time></trkpt><trkpt lat="45.37934591997274" lon="13.977270129397823"><ele>274.0</ele><time>2026-04-11T15:24:13.002Z</time></trkpt><trkpt lat="45.37929098467209" lon="13.977407772696358"><ele>274.0</ele><time>2026-04-11T15:24:15.002Z</time></trkpt><trkpt lat="45.3792260528062" lon="13.977512395916643"><ele>274.0</ele><time>2026-04-11T15:24:17.002Z</time></trkpt><trkpt lat="45.37915474824574" lon="13.977602170367275"><ele>274.0</ele><time>2026-04-11T15:24:19.002Z</time></trkpt><trkpt lat="45.379064739339704" lon="13.977672198763662"><ele>274.0</ele><time>2026-04-11T15:24:21.002Z</time></trkpt><trkpt lat="45.37900424659111" lon="13.977712462176443"><ele>274.0</ele><time>2026-04-11T15:24:22.002Z</time></trkpt><trkpt lat="45.37889925298774" lon="13.977783374827508"><ele>270.8</ele><time>2026-04-11T15:24:24.002Z</time></trkpt><trkpt lat="45.3787572692751" lon="13.97785817780685"><ele>267.59999999999997</ele><time>2026-04-11T15:24:26.002Z</time></trkpt><trkpt lat="45.378689207921354" lon="13.977892393791368"><ele>264.4</ele><time>2026-04-11T15:24:27.002Z</time></trkpt><trkpt lat="45.378609575570536" lon="13.977930273473007"><ele>261.2</ele><time>2026-04-11T15:24:28.002Z</time></trkpt><trkpt lat="45.378528646104755" lon="13.977958582490677"><ele>258.0</ele><time>2026-04-11T15:24:29.002Z</time></trkpt><trkpt lat="45.3784624149712" lon="13.977984116684944"><ele>258.0</ele><time>2026-04-11T15:24:30.002Z</time></trkpt><trkpt lat="45.378347632698585" lon="13.978052598928874"><ele>258.0</ele><time>2026-04-11T15:24:32.002Z</time></trkpt><trkpt lat="45.37825184331867" lon="13.978090574872152"><ele>258.0</ele><time>2026-04-11T15:24:34.002Z</time></trkpt><trkpt lat="45.37813754610604" lon="13.97816538521426"><ele>258.0</ele><time>2026-04-11T15:24:36.002Z</time></trkpt><trkpt lat="45.37807618847799" lon="13.97822510615199"><ele>258.0</ele><time>2026-04-11T15:24:37.002Z</time></trkpt><trkpt lat="45.378006742004146" lon="13.978300580893725"><ele>255.83333333333334</ele><time>2026-04-11T15:24:38.002Z</time></trkpt><trkpt lat="45.37794209000727" lon="13.978361264160883"><ele>253.66666666666669</ele><time>2026-04-11T15:24:39.002Z</time></trkpt><trkpt lat="45.377877066429335" lon="13.97842100235471"><ele>251.5</ele><time>2026-04-11T15:24:40.002Z</time></trkpt><trkpt lat="45.377815421611466" lon="13.978483544096317"><ele>249.33333333333334</ele><time>2026-04-11T15:24:41.002Z</time></trkpt><trkpt lat="45.37775974397266" lon="13.978545878130644"><ele>247.16666666666669</ele><time>2026-04-11T15:24:42.002Z</time></trkpt><trkpt lat="45.377664101735945" lon="13.978648353699931"><ele>245.0</ele><time>2026-04-11T15:24:44.002Z</time></trkpt><trkpt lat="45.37758135387491" lon="13.978755826273954"><ele>245.0</ele><time>2026-04-11T15:24:46.002Z</time></trkpt><trkpt lat="45.377496100648074" lon="13.978845713229314"><ele>245.0</ele><time>2026-04-11T15:24:48.002Z</time></trkpt><trkpt lat="45.377445037118136" lon="13.978909797148013"><ele>245.0</ele><time>2026-04-11T15:24:49.002Z</time></trkpt><trkpt lat="45.37736863238218" lon="13.979019266165954"><ele>245.0</ele><time>2026-04-11T15:24:51.002Z</time></trkpt><trkpt lat="45.377309254065544" lon="13.97920706860523"><ele>245.0</ele><time>2026-04-11T15:24:53.002Z</time></trkpt><trkpt lat="45.377275032494374" lon="13.97933426245899"><ele>244.5</ele><time>2026-04-11T15:24:54.002Z</time></trkpt><trkpt lat="45.37723678441883" lon="13.979477613033383"><ele>244.0</ele><time>2026-04-11T15:24:55.002Z</time></trkpt><trkpt lat="45.37718851628279" lon="13.979638586254755"><ele>243.5</ele><time>2026-04-11T15:24:56.002Z</time></trkpt><trkpt lat="45.377129831416326" lon="13.979831880605603"><ele>243.0</ele><time>2026-04-11T15:24:57.002Z</time></trkpt><trkpt lat="45.37706316001073" lon="13.980053923612207"><ele>242.0</ele><time>2026-04-11T15:24:58.002Z</time></trkpt><trkpt lat="45.37699729328046" lon="13.980254969372067"><ele>241.0</ele><time>2026-04-11T15:24:59.002Z</time></trkpt><trkpt lat="45.376925324168916" lon="13.980447624016657"><ele>240.0</ele><time>2026-04-11T15:25:00.002Z</time></trkpt><trkpt lat="45.37683969893648" lon="13.98064312322802"><ele>240.0</ele><time>2026-04-11T15:25:01.002Z</time></trkpt><trkpt lat="45.37674806476868" lon="13.980835787793074"><ele>240.0</ele><time>2026-04-11T15:25:02.002Z</time></trkpt><trkpt lat="45.376650168688904" lon="13.98101985430175"><ele>240.0</ele><time>2026-04-11T15:25:03.002Z</time></trkpt><trkpt lat="45.37655512918098" lon="13.981188489694548"><ele>239.25</ele><time>2026-04-11T15:25:04.002Z</time></trkpt><trkpt lat="45.37646520615959" lon="13.981358149178215"><ele>238.5</ele><time>2026-04-11T15:25:05.002Z</time></trkpt><trkpt lat="45.37638258178297" lon="13.981525573622772"><ele>237.75</ele><time>2026-04-11T15:25:06.002Z</time></trkpt><trkpt lat="45.37629683767049" lon="13.981687704530215"><ele>237.0</ele><time>2026-04-11T15:25:07.002Z</time></trkpt><trkpt lat="45.37621924665749" lon="13.981840024611271"><ele>238.75</ele><time>2026-04-11T15:25:08.002Z</time></trkpt><trkpt lat="45.3761345760834" lon="13.981986927599282"><ele>240.5</ele><time>2026-04-11T15:25:09.002Z</time></trkpt><trkpt lat="45.37605193575079" lon="13.982138957755694"><ele>242.25</ele><time>2026-04-11T15:25:10.002Z</time></trkpt><trkpt lat="45.37597119241752" lon="13.982286522582013"><ele>244.0</ele><time>2026-04-11T15:25:11.002Z</time></trkpt><trkpt lat="45.3758889658378" lon="13.982437177508533"><ele>244.0</ele><time>2026-04-11T15:25:12.002Z</time></trkpt><trkpt lat="45.37580520424976" lon="13.982584247914856"><ele>244.0</ele><time>2026-04-11T15:25:13.002Z</time></trkpt><trkpt lat="45.37572508284369" lon="13.982722572715781"><ele>244.0</ele><time>2026-04-11T15:25:14.002Z</time></trkpt><trkpt lat="45.375644253077056" lon="13.982858862081951"><ele>244.0</ele><time>2026-04-11T15:25:15.002Z</time></trkpt><trkpt lat="45.37556012860153" lon="13.982994065828956"><ele>243.75</ele><time>2026-04-11T15:25:16.002Z</time></trkpt><trkpt lat="45.37547742162404" lon="13.983148218431454"><ele>243.5</ele><time>2026-04-11T15:25:17.002Z</time></trkpt><trkpt lat="45.3753784629097" lon="13.983306593449626"><ele>243.25</ele><time>2026-04-11T15:25:18.002Z</time></trkpt><trkpt lat="45.37528863509935" lon="13.983482031930441"><ele>243.0</ele><time>2026-04-11T15:25:19.002Z</time></trkpt><trkpt lat="45.37520384783173" lon="13.983661671039199"><ele>242.75</ele><time>2026-04-11T15:25:20.002Z</time></trkpt><trkpt lat="45.37513060627689" lon="13.983839183295071"><ele>242.5</ele><time>2026-04-11T15:25:21.002Z</time></trkpt><trkpt lat="45.37507071216219" lon="13.984011835791605"><ele>242.25</ele><time>2026-04-11T15:25:22.002Z</time></trkpt><trkpt lat="45.37501748276435" lon="13.984180196671936"><ele>242.0</ele><time>2026-04-11T15:25:23.002Z</time></trkpt><trkpt lat="45.37496633080791" lon="13.984331936991948"><ele>242.0</ele><time>2026-04-11T15:25:24.002Z</time></trkpt><trkpt lat="45.374916049407766" lon="13.984476417608235"><ele>242.0</ele><time>2026-04-11T15:25:25.002Z</time></trkpt><trkpt lat="45.374858337597445" lon="13.98460364373643"><ele>242.0</ele><time>2026-04-11T15:25:26.002Z</time></trkpt><trkpt lat="45.374806376566696" lon="13.984717549149861"><ele>242.0</ele><time>2026-04-11T15:25:27.002Z</time></trkpt><trkpt lat="45.374760627835194" lon="13.98483166281623"><ele>242.0</ele><time>2026-04-11T15:25:28.002Z</time></trkpt><trkpt lat="45.374716671603146" lon="13.984940031535162"><ele>242.66666666666669</ele><time>2026-04-11T15:25:29.002Z</time></trkpt><trkpt lat="45.37467828484519" lon="13.985037813368965"><ele>243.33333333333334</ele><time>2026-04-11T15:25:30.002Z</time></trkpt><trkpt lat="45.374642134540444" lon="13.985130426551576"><ele>244.0</ele><time>2026-04-11T15:25:31.002Z</time></trkpt><trkpt lat="45.374593901144245" lon="13.985226004124916"><ele>244.66666666666669</ele><time>2026-04-11T15:25:32.002Z</time></trkpt><trkpt lat="45.37453736369501" lon="13.985334324977037"><ele>245.33333333333334</ele><time>2026-04-11T15:25:33.002Z</time></trkpt><trkpt lat="45.37447001815027" lon="13.98543714167579"><ele>246.0</ele><time>2026-04-11T15:25:34.002Z</time></trkpt><trkpt lat="45.37439615867452" lon="13.98554259619179"><ele>246.0</ele><time>2026-04-11T15:25:35.002Z</time></trkpt><trkpt lat="45.37432108833809" lon="13.985630898524056"><ele>246.0</ele><time>2026-04-11T15:25:36.002Z</time></trkpt><trkpt lat="45.37424803690307" lon="13.985708620124505"><ele>246.0</ele><time>2026-04-11T15:25:37.002Z</time></trkpt><trkpt lat="45.374184985244135" lon="13.9857785608487"><ele>246.0</ele><time>2026-04-11T15:25:38.002Z</time></trkpt><trkpt lat="45.37411741200008" lon="13.985852793741941"><ele>246.0</ele><time>2026-04-11T15:25:39.002Z</time></trkpt><trkpt lat="45.37405333999225" lon="13.985916505386186"><ele>246.0</ele><time>2026-04-11T15:25:40.002Z</time></trkpt><trkpt lat="45.37398849354832" lon="13.985992666221188"><ele>246.20000000000002</ele><time>2026-04-11T15:25:41.002Z</time></trkpt><trkpt lat="45.37392819320719" lon="13.986084056481797"><ele>246.40000000000003</ele><time>2026-04-11T15:25:42.002Z</time></trkpt><trkpt lat="45.37385406616614" lon="13.986143837520848"><ele>246.6</ele><time>2026-04-11T15:25:43.002Z</time></trkpt><trkpt lat="45.37378024450127" lon="13.986207880940592"><ele>246.8</ele><time>2026-04-11T15:25:44.002Z</time></trkpt><trkpt lat="45.373693691055834" lon="13.986271092434935"><ele>247.0</ele><time>2026-04-11T15:25:45.002Z</time></trkpt><trkpt lat="45.3736297198454" lon="13.986374369387901"><ele>249.2</ele><time>2026-04-11T15:25:46.002Z</time></trkpt><trkpt lat="45.37357114714355" lon="13.986445678220193"><ele>251.39999999999998</ele><time>2026-04-11T15:25:47.002Z</time></trkpt><trkpt lat="45.37347182675254" lon="13.986496639800729"><ele>253.60000000000002</ele><time>2026-04-11T15:25:48.002Z</time></trkpt><trkpt lat="45.373365487993766" lon="13.986540749265195"><ele>255.8</ele><time>2026-04-11T15:25:49.002Z</time></trkpt><trkpt lat="45.373260332441745" lon="13.986536324200308"><ele>258.0</ele><time>2026-04-11T15:25:50.002Z</time></trkpt><trkpt lat="45.37315132141667" lon="13.986534569085633"><ele>258.0</ele><time>2026-04-11T15:25:51.002Z</time></trkpt><trkpt lat="45.373024816060216" lon="13.98651912187034"><ele>258.0</ele><time>2026-04-11T15:25:52.002Z</time></trkpt><trkpt lat="45.372896140446144" lon="13.986538523055641"><ele>258.0</ele><time>2026-04-11T15:25:53.002Z</time></trkpt><trkpt lat="45.37278376736253" lon="13.98659782581705"><ele>258.0</ele><time>2026-04-11T15:25:54.002Z</time></trkpt><trkpt lat="45.37270460624824" lon="13.986687856148547"><ele>263.0</ele><time>2026-04-11T15:25:55.002Z</time></trkpt><trkpt lat="45.37261756434295" lon="13.986811566787273"><ele>268.0</ele><time>2026-04-11T15:25:56.002Z</time></trkpt><trkpt lat="45.372525451815974" lon="13.986973386614666"><ele>273.0</ele><time>2026-04-11T15:25:57.002Z</time></trkpt><trkpt lat="45.3724200903278" lon="13.987055897914104"><ele>278.0</ele><time>2026-04-11T15:25:58.002Z</time></trkpt><trkpt lat="45.37229370850886" lon="13.987052679270915"><ele>276.25</ele><time>2026-04-11T15:25:59.002Z</time></trkpt><trkpt lat="45.372158339880244" lon="13.987054401777694"><ele>274.5</ele><time>2026-04-11T15:26:00.002Z</time></trkpt><trkpt lat="45.37201484087223" lon="13.987030621270355"><ele>272.75</ele><time>2026-04-11T15:26:01.002Z</time></trkpt><trkpt lat="45.37188293923799" lon="13.9870183185473"><ele>271.0</ele><time>2026-04-11T15:26:02.002Z</time></trkpt><trkpt lat="45.37176803675868" lon="13.987055685575907"><ele>271.0</ele><time>2026-04-11T15:26:03.002Z</time></trkpt><trkpt lat="45.371658796832826" lon="13.987148020618221"><ele>271.0</ele><time>2026-04-11T15:26:04.002Z</time></trkpt><trkpt lat="45.37156531259801" lon="13.987268601542041"><ele>271.0</ele><time>2026-04-11T15:26:05.002Z</time></trkpt><trkpt lat="45.37147747358716" lon="13.987415981926842"><ele>271.0</ele><time>2026-04-11T15:26:06.002Z</time></trkpt><trkpt lat="45.37138961124216" lon="13.987559839964804"><ele>267.5</ele><time>2026-04-11T15:26:07.002Z</time></trkpt><trkpt lat="45.371332228339035" lon="13.987735019464434"><ele>264.0</ele><time>2026-04-11T15:26:08.002Z</time></trkpt><trkpt lat="45.371281793520204" lon="13.987906156548684"><ele>260.5</ele><time>2026-04-11T15:26:09.002Z</time></trkpt><trkpt lat="45.37124476633668" lon="13.988102211301413"><ele>257.0</ele><time>2026-04-11T15:26:10.002Z</time></trkpt><trkpt lat="45.37120418873762" lon="13.988288314621679"><ele>260.0</ele><time>2026-04-11T15:26:11.002Z</time></trkpt><trkpt lat="45.371179958636354" lon="13.988476147361517"><ele>263.0</ele><time>2026-04-11T15:26:12.002Z</time></trkpt><trkpt lat="45.3711751882382" lon="13.9886659575969"><ele>266.0</ele><time>2026-04-11T15:26:13.002Z</time></trkpt><trkpt lat="45.371163332392975" lon="13.988831864852516"><ele>269.0</ele><time>2026-04-11T15:26:14.002Z</time></trkpt><trkpt lat="45.37112730647282" lon="13.989001404616934"><ele>273.75</ele><time>2026-04-11T15:26:15.002Z</time></trkpt><trkpt lat="45.37106129945235" lon="13.98917895441247"><ele>278.5</ele><time>2026-04-11T15:26:16.002Z</time></trkpt><trkpt lat="45.3709932464852" lon="13.989342900620771"><ele>283.25</ele><time>2026-04-11T15:26:17.002Z</time></trkpt><trkpt lat="45.370914169057386" lon="13.98949222332776"><ele>288.0</ele><time>2026-04-11T15:26:18.002Z</time></trkpt><trkpt lat="45.37082832518383" lon="13.98960652933629"><ele>288.0</ele><time>2026-04-11T15:26:19.002Z</time></trkpt><trkpt lat="45.37071800154412" lon="13.989646409684108"><ele>288.0</ele><time>2026-04-11T15:26:20.002Z</time></trkpt><trkpt lat="45.370590994340624" lon="13.989690960317764"><ele>288.0</ele><time>2026-04-11T15:26:21.002Z</time></trkpt><trkpt lat="45.37045339992626" lon="13.989712334931827"><ele>288.0</ele><time>2026-04-11T15:26:22.002Z</time></trkpt><trkpt lat="45.37030786421882" lon="13.989736108887492"><ele>286.25</ele><time>2026-04-11T15:26:23.002Z</time></trkpt><trkpt lat="45.370184457959745" lon="13.989815639662192"><ele>284.5</ele><time>2026-04-11T15:26:24.002Z</time></trkpt><trkpt lat="45.370074740268194" lon="13.989922670179247"><ele>282.75</ele><time>2026-04-11T15:26:25.002Z</time></trkpt><trkpt lat="45.36997141590167" lon="13.990038936802078"><ele>281.0</ele><time>2026-04-11T15:26:26.002Z</time></trkpt><trkpt lat="45.3698888231026" lon="13.990180904256608"><ele>283.0</ele><time>2026-04-11T15:26:27.002Z</time></trkpt><trkpt lat="45.36979840071742" lon="13.990310703901253"><ele>285.0</ele><time>2026-04-11T15:26:28.002Z</time></trkpt><trkpt lat="45.36969575135363" lon="13.990440723799912"><ele>287.0</ele><time>2026-04-11T15:26:29.002Z</time></trkpt><trkpt lat="45.36958919267941" lon="13.990573637512211"><ele>289.0</ele><time>2026-04-11T15:26:30.002Z</time></trkpt><trkpt lat="45.36946765712355" lon="13.990667074257377"><ele>289.0</ele><time>2026-04-11T15:26:31.002Z</time></trkpt><trkpt lat="45.3693326944524" lon="13.990732692633879"><ele>289.0</ele><time>2026-04-11T15:26:32.002Z</time></trkpt><trkpt lat="45.36921226364467" lon="13.990816977875996"><ele>289.0</ele><time>2026-04-11T15:26:33.002Z</time></trkpt><trkpt lat="45.36910119788236" lon="13.990903029029445"><ele>289.0</ele><time>2026-04-11T15:26:34.002Z</time></trkpt><trkpt lat="45.36899392770436" lon="13.991019554501909"><ele>289.75</ele><time>2026-04-11T15:26:35.002Z</time></trkpt><trkpt lat="45.368902967607625" lon="13.991132968139087"><ele>290.5</ele><time>2026-04-11T15:26:36.002Z</time></trkpt><trkpt lat="45.368818763082785" lon="13.991248869393493"><ele>291.25</ele><time>2026-04-11T15:26:37.002Z</time></trkpt><trkpt lat="45.3687475301477" lon="13.991397827161833"><ele>292.0</ele><time>2026-04-11T15:26:38.002Z</time></trkpt><trkpt lat="45.36866317080448" lon="13.991543468722258"><ele>292.0</ele><time>2026-04-11T15:26:39.002Z</time></trkpt><trkpt lat="45.3685615339002" lon="13.991653241367867"><ele>292.0</ele><time>2026-04-11T15:26:40.002Z</time></trkpt><trkpt lat="45.36845916861892" lon="13.991763080741007"><ele>292.0</ele><time>2026-04-11T15:26:41.002Z</time></trkpt><trkpt lat="45.368357414184224" lon="13.991848621428769"><ele>292.0</ele><time>2026-04-11T15:26:42.002Z</time></trkpt><trkpt lat="45.36827398110274" lon="13.991900240104162"><ele>293.6</ele><time>2026-04-11T15:26:43.002Z</time></trkpt><trkpt lat="45.36819645592006" lon="13.991934245769848"><ele>295.2</ele><time>2026-04-11T15:27:23.002Z</time></trkpt><trkpt lat="45.36814239429161" lon="13.991996601156558"><ele>296.8</ele><time>2026-04-11T15:27:25.002Z</time></trkpt><trkpt lat="45.36803616493188" lon="13.99208606194775"><ele>298.4</ele><time>2026-04-11T15:27:27.002Z</time></trkpt><trkpt lat="45.367983847440684" lon="13.992147099328758"><ele>300.0</ele><time>2026-04-11T15:27:28.002Z</time></trkpt><trkpt lat="45.36785166191102" lon="13.992229112715055"><ele>300.0</ele><time>2026-04-11T15:27:30.002Z</time></trkpt><trkpt lat="45.36777230521059" lon="13.992276509773458"><ele>300.0</ele><time>2026-04-11T15:27:31.002Z</time></trkpt><trkpt lat="45.36767603796044" lon="13.992296951508354"><ele>300.0</ele><time>2026-04-11T15:27:32.002Z</time></trkpt><trkpt lat="45.36758248880667" lon="13.992280454740467"><ele>300.0</ele><time>2026-04-11T15:27:33.002Z</time></trkpt><trkpt lat="45.36749692489968" lon="13.992271991455674"><ele>300.0</ele><time>2026-04-11T15:27:34.002Z</time></trkpt><trkpt lat="45.367412013755086" lon="13.992271215631515"><ele>300.0</ele><time>2026-04-11T15:27:35.002Z</time></trkpt><trkpt lat="45.36733375330323" lon="13.992309761587098"><ele>300.0</ele><time>2026-04-11T15:27:36.002Z</time></trkpt><trkpt lat="45.3672580899841" lon="13.992398048997769"><ele>300.0</ele><time>2026-04-11T15:27:37.002Z</time></trkpt><trkpt lat="45.36716819638205" lon="13.992553031956048"><ele>300.0</ele><time>2026-04-11T15:27:38.002Z</time></trkpt><trkpt lat="45.36709002391595" lon="13.992716149321586"><ele>300.0</ele><time>2026-04-11T15:27:39.002Z</time></trkpt><trkpt lat="45.36701475085655" lon="13.992875831093526"><ele>301.5</ele><time>2026-04-11T15:27:40.002Z</time></trkpt><trkpt lat="45.36694712092308" lon="13.993044733056957"><ele>303.0</ele><time>2026-04-11T15:27:41.002Z</time></trkpt><trkpt lat="45.36689769756695" lon="13.993209337902433"><ele>304.5</ele><time>2026-04-11T15:27:42.002Z</time></trkpt><trkpt lat="45.36686859189313" lon="13.993404948005809"><ele>306.0</ele><time>2026-04-11T15:27:43.002Z</time></trkpt><trkpt lat="45.36682503684342" lon="13.993611859081867"><ele>306.0</ele><time>2026-04-11T15:27:44.002Z</time></trkpt><trkpt lat="45.366774810878816" lon="13.993801584489619"><ele>306.0</ele><time>2026-04-11T15:27:45.002Z</time></trkpt><trkpt lat="45.3667188620681" lon="13.993988644897165"><ele>306.0</ele><time>2026-04-11T15:27:46.002Z</time></trkpt><trkpt lat="45.366641805640086" lon="13.99416679540209"><ele>306.0</ele><time>2026-04-11T15:27:47.002Z</time></trkpt><trkpt lat="45.36654889255515" lon="13.994341864537887"><ele>305.6666666666667</ele><time>2026-04-11T15:27:48.002Z</time></trkpt><trkpt lat="45.36644728564494" lon="13.99451107644204"><ele>305.33333333333337</ele><time>2026-04-11T15:27:49.002Z</time></trkpt><trkpt lat="45.366336924592446" lon="13.994668155145346"><ele>305.0</ele><time>2026-04-11T15:27:50.002Z</time></trkpt><trkpt lat="45.366229788319544" lon="13.994833256503126"><ele>305.0</ele><time>2026-04-11T15:27:51.002Z</time></trkpt><trkpt lat="45.36612145747081" lon="13.994976552309971"><ele>305.0</ele><time>2026-04-11T15:27:52.002Z</time></trkpt><trkpt lat="45.366016350653425" lon="13.995130528284498"><ele>305.0</ele><time>2026-04-11T15:27:53.002Z</time></trkpt><trkpt lat="45.36591044841738" lon="13.99527938596127"><ele>305.0</ele><time>2026-04-11T15:27:54.002Z</time></trkpt><trkpt lat="45.36581472588442" lon="13.995413420203546"><ele>306.6</ele><time>2026-04-11T15:27:55.002Z</time></trkpt><trkpt lat="45.36573239907377" lon="13.995543588542446"><ele>308.2</ele><time>2026-04-11T15:27:56.002Z</time></trkpt><trkpt lat="45.36568905464412" lon="13.995670522840271"><ele>309.8</ele><time>2026-04-11T15:27:57.002Z</time></trkpt><trkpt lat="45.36568500763802" lon="13.995808988240341"><ele>311.4</ele><time>2026-04-11T15:27:58.002Z</time></trkpt><trkpt lat="45.3657072696577" lon="13.995964452861582"><ele>313.0</ele><time>2026-04-11T15:27:59.002Z</time></trkpt><trkpt lat="45.36573996452279" lon="13.996111149969536"><ele>313.0</ele><time>2026-04-11T15:28:00.002Z</time></trkpt><trkpt lat="45.365763071570534" lon="13.996262414743063"><ele>313.0</ele><time>2026-04-11T15:28:01.002Z</time></trkpt><trkpt lat="45.36577996748929" lon="13.996417288179337"><ele>313.0</ele><time>2026-04-11T15:28:02.002Z</time></trkpt><trkpt lat="45.36578886389461" lon="13.996605035665755"><ele>313.0</ele><time>2026-04-11T15:28:03.002Z</time></trkpt><trkpt lat="45.36578853281871" lon="13.996811472731089"><ele>313.0</ele><time>2026-04-11T15:28:04.002Z</time></trkpt><trkpt lat="45.365783535074414" lon="13.997028125566876"><ele>313.0</ele><time>2026-04-11T15:28:05.002Z</time></trkpt><trkpt lat="45.365763272578114" lon="13.997242255699474"><ele>313.0</ele><time>2026-04-11T15:28:06.002Z</time></trkpt><trkpt lat="45.365735041150536" lon="13.997460302173177"><ele>314.66666666666663</ele><time>2026-04-11T15:28:07.002Z</time></trkpt><trkpt lat="45.36569646640577" lon="13.997694082765916"><ele>316.3333333333333</ele><time>2026-04-11T15:28:08.002Z</time></trkpt><trkpt lat="45.36565416595815" lon="13.997924679938777"><ele>318.0</ele><time>2026-04-11T15:28:09.002Z</time></trkpt><trkpt lat="45.365605304413585" lon="13.998192315918082"><ele>319.3333333333333</ele><time>2026-04-11T15:28:10.002Z</time></trkpt><trkpt lat="45.36555126199773" lon="13.998463927314765"><ele>320.66666666666663</ele><time>2026-04-11T15:28:11.002Z</time></trkpt><trkpt lat="45.36549960924725" lon="13.99872962810089"><ele>322.0</ele><time>2026-04-11T15:28:12.002Z</time></trkpt><trkpt lat="45.3654517739692" lon="13.998980672102311"><ele>318.3333333333333</ele><time>2026-04-11T15:28:13.002Z</time></trkpt><trkpt lat="45.365405384303024" lon="13.999233019436264"><ele>314.6666666666667</ele><time>2026-04-11T15:28:14.002Z</time></trkpt><trkpt lat="45.36535847203121" lon="13.999477322471478"><ele>311.0</ele><time>2026-04-11T15:28:15.002Z</time></trkpt><trkpt lat="45.36530490019604" lon="13.999708743817415"><ele>311.0</ele><time>2026-04-11T15:28:16.002Z</time></trkpt><trkpt lat="45.36524647597127" lon="13.999916260127595"><ele>311.0</ele><time>2026-04-11T15:28:17.002Z</time></trkpt><trkpt lat="45.365180794626426" lon="14.00010311909351"><ele>311.0</ele><time>2026-04-11T15:28:18.002Z</time></trkpt><trkpt lat="45.36510386314085" lon="14.000292027561512"><ele>311.0</ele><time>2026-04-11T15:28:19.002Z</time></trkpt><trkpt lat="45.365028407837535" lon="14.000477706475552"><ele>311.0</ele><time>2026-04-11T15:28:20.002Z</time></trkpt><trkpt lat="45.364948210637614" lon="14.000658460740807"><ele>311.0</ele><time>2026-04-11T15:28:21.002Z</time></trkpt><trkpt lat="45.364856905780265" lon="14.000830416301502"><ele>312.33333333333337</ele><time>2026-04-11T15:28:22.002Z</time></trkpt><trkpt lat="45.364744415616634" lon="14.000970721072273"><ele>313.6666666666667</ele><time>2026-04-11T15:28:23.002Z</time></trkpt><trkpt lat="45.36460754278132" lon="14.001082870533557"><ele>315.0</ele><time>2026-04-11T15:28:24.002Z</time></trkpt><trkpt lat="45.36445538833701" lon="14.001171306456598"><ele>311.0</ele><time>2026-04-11T15:28:25.002Z</time></trkpt><trkpt lat="45.364290195266456" lon="14.001245431431663"><ele>307.0</ele><time>2026-04-11T15:28:26.002Z</time></trkpt><trkpt lat="45.36411997788142" lon="14.001325994137995"><ele>303.0</ele><time>2026-04-11T15:28:27.002Z</time></trkpt><trkpt lat="45.363949132910264" lon="14.001421055256694"><ele>302.3333333333333</ele><time>2026-04-11T15:28:28.002Z</time></trkpt><trkpt lat="45.36377127740553" lon="14.001524029399334"><ele>301.66666666666663</ele><time>2026-04-11T15:28:29.002Z</time></trkpt><trkpt lat="45.36358963783291" lon="14.001641077184178"><ele>301.0</ele><time>2026-04-11T15:28:30.002Z</time></trkpt><trkpt lat="45.36340286723177" lon="14.00176522884815"><ele>301.0</ele><time>2026-04-11T15:28:31.002Z</time></trkpt><trkpt lat="45.363215759100996" lon="14.001882125622835"><ele>301.0</ele><time>2026-04-11T15:28:32.002Z</time></trkpt><trkpt lat="45.363019060834596" lon="14.001979553520378"><ele>301.0</ele><time>2026-04-11T15:28:33.002Z</time></trkpt><trkpt lat="45.36282578331654" lon="14.002053930891611"><ele>299.3333333333333</ele><time>2026-04-11T15:28:34.002Z</time></trkpt><trkpt lat="45.36264789795316" lon="14.002128434046956"><ele>297.6666666666667</ele><time>2026-04-11T15:28:35.002Z</time></trkpt><trkpt lat="45.3624891947911" lon="14.002220913591223"><ele>296.0</ele><time>2026-04-11T15:28:36.002Z</time></trkpt><trkpt lat="45.36234430964189" lon="14.002331977724277"><ele>295.6666666666667</ele><time>2026-04-11T15:28:37.002Z</time></trkpt><trkpt lat="45.36219727623902" lon="14.002456549784212"><ele>295.3333333333333</ele><time>2026-04-11T15:28:38.002Z</time></trkpt><trkpt lat="45.362058464046676" lon="14.002586661933384"><ele>295.0</ele><time>2026-04-11T15:28:39.002Z</time></trkpt><trkpt lat="45.361905411550985" lon="14.002688744838988"><ele>297.3333333333333</ele><time>2026-04-11T15:28:40.002Z</time></trkpt><trkpt lat="45.361762006995185" lon="14.002813366086182"><ele>299.6666666666667</ele><time>2026-04-11T15:28:41.002Z</time></trkpt><trkpt lat="45.36161935667057" lon="14.002904691680861"><ele>302.0</ele><time>2026-04-11T15:28:42.002Z</time></trkpt><trkpt lat="45.36148587496127" lon="14.002995755085506"><ele>301.25</ele><time>2026-04-11T15:28:43.002Z</time></trkpt><trkpt lat="45.36135279912614" lon="14.003081867705598"><ele>300.5</ele><time>2026-04-11T15:28:44.002Z</time></trkpt><trkpt lat="45.36122181051789" lon="14.003159840000581"><ele>299.75</ele><time>2026-04-11T15:28:45.002Z</time></trkpt><trkpt lat="45.361087752532704" lon="14.003231213200072"><ele>299.0</ele><time>2026-04-11T15:28:46.002Z</time></trkpt><trkpt lat="45.36095110317939" lon="14.003272382415101"><ele>299.0</ele><time>2026-04-11T15:28:47.002Z</time></trkpt><trkpt lat="45.36081507821647" lon="14.00329784448885"><ele>299.0</ele><time>2026-04-11T15:28:48.002Z</time></trkpt><trkpt lat="45.36067595109301" lon="14.00332675643533"><ele>299.0</ele><time>2026-04-11T15:28:49.002Z</time></trkpt><trkpt lat="45.360539859841296" lon="14.003360566252141"><ele>299.0</ele><time>2026-04-11T15:28:50.002Z</time></trkpt><trkpt lat="45.36041973790887" lon="14.00342495250106"><ele>300.0</ele><time>2026-04-11T15:28:51.002Z</time></trkpt><trkpt lat="45.36030740654224" lon="14.003521611220737"><ele>301.0</ele><time>2026-04-11T15:28:52.002Z</time></trkpt><trkpt lat="45.36019815818427" lon="14.00363239705209"><ele>302.0</ele><time>2026-04-11T15:28:53.002Z</time></trkpt><trkpt lat="45.36009590056497" lon="14.003739025624792"><ele>303.0</ele><time>2026-04-11T15:28:54.002Z</time></trkpt><trkpt lat="45.35997739715849" lon="14.003825152539596"><ele>303.0</ele><time>2026-04-11T15:28:55.002Z</time></trkpt><trkpt lat="45.35983858073103" lon="14.003885956017779"><ele>303.0</ele><time>2026-04-11T15:28:56.002Z</time></trkpt><trkpt lat="45.359695814804596" lon="14.003924726484346"><ele>303.0</ele><time>2026-04-11T15:28:57.002Z</time></trkpt><trkpt lat="45.35953122335475" lon="14.003927742637616"><ele>303.0</ele><time>2026-04-11T15:28:58.002Z</time></trkpt><trkpt lat="45.35937998903044" lon="14.003874153675085"><ele>303.0</ele><time>2026-04-11T15:28:59.002Z</time></trkpt><trkpt lat="45.359236189997624" lon="14.003811849812477"><ele>303.0</ele><time>2026-04-11T15:29:00.002Z</time></trkpt><trkpt lat="45.359095377575336" lon="14.0037610300355"><ele>303.0</ele><time>2026-04-11T15:29:01.002Z</time></trkpt><trkpt lat="45.35897032602189" lon="14.003703612265362"><ele>303.0</ele><time>2026-04-11T15:29:02.002Z</time></trkpt><trkpt lat="45.35885490952978" lon="14.003675104115356"><ele>303.0</ele><time>2026-04-11T15:29:03.002Z</time></trkpt><trkpt lat="45.35873601269303" lon="14.003677970422588"><ele>303.0</ele><time>2026-04-11T15:29:04.002Z</time></trkpt><trkpt lat="45.35861019821832" lon="14.00371840762955"><ele>303.75</ele><time>2026-04-11T15:29:05.002Z</time></trkpt><trkpt lat="45.35848775508317" lon="14.003718789876443"><ele>304.5</ele><time>2026-04-11T15:29:06.002Z</time></trkpt><trkpt lat="45.35836006058783" lon="14.00372451024589"><ele>305.25</ele><time>2026-04-11T15:29:07.002Z</time></trkpt><trkpt lat="45.358241431371894" lon="14.003724946405425"><ele>306.0</ele><time>2026-04-11T15:29:08.002Z</time></trkpt><trkpt lat="45.35812295429284" lon="14.003726176268371"><ele>303.5</ele><time>2026-04-11T15:29:09.002Z</time></trkpt><trkpt lat="45.35801035629196" lon="14.003748308088774"><ele>301.0</ele><time>2026-04-11T15:29:10.002Z</time></trkpt><trkpt lat="45.35789274697634" lon="14.003724870117281"><ele>298.5</ele><time>2026-04-11T15:29:11.002Z</time></trkpt><trkpt lat="45.35777214578295" lon="14.00372632176137"><ele>296.0</ele><time>2026-04-11T15:29:12.002Z</time></trkpt><trkpt lat="45.35764457704394" lon="14.003776999782119"><ele>296.0</ele><time>2026-04-11T15:29:13.002Z</time></trkpt><trkpt lat="45.35752538698296" lon="14.003816924962386"><ele>296.0</ele><time>2026-04-11T15:29:14.002Z</time></trkpt><trkpt lat="45.35739440782508" lon="14.003866308801502"><ele>296.0</ele><time>2026-04-11T15:29:15.002Z</time></trkpt><trkpt lat="45.35725723386159" lon="14.003869743996702"><ele>296.0</ele><time>2026-04-11T15:29:16.002Z</time></trkpt><trkpt lat="45.35710974592136" lon="14.003891259097717"><ele>292.33333333333337</ele><time>2026-04-11T15:29:17.002Z</time></trkpt><trkpt lat="45.35695637871928" lon="14.003928729436385"><ele>288.6666666666667</ele><time>2026-04-11T15:29:18.002Z</time></trkpt><trkpt lat="45.35681038746476" lon="14.003955587595197"><ele>285.0</ele><time>2026-04-11T15:29:19.002Z</time></trkpt><trkpt lat="45.35665785871265" lon="14.003971420556526"><ele>285.0</ele><time>2026-04-11T15:29:20.002Z</time></trkpt><trkpt lat="45.35650377552103" lon="14.003941290658794"><ele>285.0</ele><time>2026-04-11T15:29:21.002Z</time></trkpt><trkpt lat="45.356361023769935" lon="14.003913263536667"><ele>285.0</ele><time>2026-04-11T15:29:22.002Z</time></trkpt><trkpt lat="45.356227916708626" lon="14.003882920394425"><ele>285.0</ele><time>2026-04-11T15:29:23.002Z</time></trkpt><trkpt lat="45.35608992357039" lon="14.003850260606937"><ele>285.5</ele><time>2026-04-11T15:29:24.002Z</time></trkpt><trkpt lat="45.35595199005711" lon="14.003820138296494"><ele>286.0</ele><time>2026-04-11T15:29:25.002Z</time></trkpt><trkpt lat="45.355811583056514" lon="14.003813570820634"><ele>286.5</ele><time>2026-04-11T15:29:26.002Z</time></trkpt><trkpt lat="45.35566548703306" lon="14.003777591680644"><ele>287.0</ele><time>2026-04-11T15:29:27.002Z</time></trkpt><trkpt lat="45.355515002188184" lon="14.00375070102872"><ele>290.6666666666667</ele><time>2026-04-11T15:29:28.002Z</time></trkpt><trkpt lat="45.35536834162486" lon="14.003693864481919"><ele>294.3333333333333</ele><time>2026-04-11T15:29:29.002Z</time></trkpt><trkpt lat="45.35521053171416" lon="14.003651115001322"><ele>298.0</ele><time>2026-04-11T15:29:30.002Z</time></trkpt><trkpt lat="45.3550534768547" lon="14.003608632141667"><ele>298.0</ele><time>2026-04-11T15:29:31.002Z</time></trkpt><trkpt lat="45.3548970503309" lon="14.00356565358022"><ele>298.0</ele><time>2026-04-11T15:29:32.002Z</time></trkpt><trkpt lat="45.354741442563174" lon="14.00352843726295"><ele>298.0</ele><time>2026-04-11T15:29:33.002Z</time></trkpt><trkpt lat="45.35458169435125" lon="14.003514905894553"><ele>303.0</ele><time>2026-04-11T15:29:34.002Z</time></trkpt><trkpt lat="45.35443441400219" lon="14.003478128218854"><ele>308.0</ele><time>2026-04-11T15:29:35.002Z</time></trkpt><trkpt lat="45.35427924077302" lon="14.003441405927216"><ele>313.0</ele><time>2026-04-11T15:29:36.002Z</time></trkpt><trkpt lat="45.35412536902503" lon="14.00341515250663"><ele>313.0</ele><time>2026-04-11T15:29:37.002Z</time></trkpt><trkpt lat="45.35397986348959" lon="14.003362227196412"><ele>313.0</ele><time>2026-04-11T15:29:38.002Z</time></trkpt><trkpt lat="45.353828557108585" lon="14.0033325015611"><ele>313.0</ele><time>2026-04-11T15:29:39.002Z</time></trkpt><trkpt lat="45.35368150083188" lon="14.003308716575425"><ele>310.0</ele><time>2026-04-11T15:29:40.002Z</time></trkpt><trkpt lat="45.35354151385548" lon="14.003294886656258"><ele>307.0</ele><time>2026-04-11T15:29:41.002Z</time></trkpt><trkpt lat="45.35340127164606" lon="14.00326613523824"><ele>304.0</ele><time>2026-04-11T15:29:42.002Z</time></trkpt><trkpt lat="45.35326575085419" lon="14.003195714721757"><ele>301.0</ele><time>2026-04-11T15:29:43.002Z</time></trkpt><trkpt lat="45.35314833084154" lon="14.003125350341577"><ele>301.0</ele><time>2026-04-11T15:29:44.002Z</time></trkpt><trkpt lat="45.353049025291966" lon="14.003062239474797"><ele>301.0</ele><time>2026-04-11T15:29:45.003Z</time></trkpt><trkpt lat="45.352949787598135" lon="14.002998749407624"><ele>301.0</ele><time>2026-04-11T15:29:46.003Z</time></trkpt><trkpt lat="45.35286875553738" lon="14.00295085533084"><ele>301.0</ele><time>2026-04-11T15:29:47.003Z</time></trkpt><trkpt lat="45.352795265188874" lon="14.00290863642482"><ele>301.0</ele><time>2026-04-11T15:29:48.003Z</time></trkpt><trkpt lat="45.3526997649027" lon="14.002816954722809"><ele>303.0</ele><time>2026-04-11T15:29:49.003Z</time></trkpt><trkpt lat="45.35258638572616" lon="14.002795040308282"><ele>305.0</ele><time>2026-04-11T15:29:50.003Z</time></trkpt><trkpt lat="45.3524818084103" lon="14.00297602811208"><ele>307.0</ele><time>2026-04-11T15:29:51.003Z</time></trkpt><trkpt lat="45.35238623795771" lon="14.003029176210612"><ele>309.0</ele><time>2026-04-11T15:29:52.003Z</time></trkpt><trkpt lat="45.35229478068351" lon="14.003081819313493"><ele>308.2</ele><time>2026-04-11T15:29:53.003Z</time></trkpt><trkpt lat="45.352192958379625" lon="14.003138553866412"><ele>307.4</ele><time>2026-04-11T15:29:54.003Z</time></trkpt><trkpt lat="45.35208540135505" lon="14.003204064519688"><ele>306.6</ele><time>2026-04-11T15:29:55.003Z</time></trkpt><trkpt lat="45.351982925480876" lon="14.003261416540516"><ele>305.8</ele><time>2026-04-11T15:29:56.003Z</time></trkpt><trkpt lat="45.35188552658437" lon="14.003331284925395"><ele>305.0</ele><time>2026-04-11T15:29:57.003Z</time></trkpt><trkpt lat="45.351780542834994" lon="14.00344278939421"><ele>308.0</ele><time>2026-04-11T15:29:58.003Z</time></trkpt><trkpt lat="45.351689094173075" lon="14.003587925004116"><ele>311.0</ele><time>2026-04-11T15:29:59.003Z</time></trkpt><trkpt lat="45.351603285634184" lon="14.003752000275833"><ele>314.0</ele><time>2026-04-11T15:30:00.003Z</time></trkpt><trkpt lat="45.351523284167094" lon="14.003899007123241"><ele>317.0</ele><time>2026-04-11T15:30:01.003Z</time></trkpt><trkpt lat="45.35144052940444" lon="14.004042636759682"><ele>315.25</ele><time>2026-04-11T15:30:02.003Z</time></trkpt><trkpt lat="45.35135857317026" lon="14.004186332708125"><ele>313.5</ele><time>2026-04-11T15:30:03.003Z</time></trkpt><trkpt lat="45.35127235726985" lon="14.004311934294897"><ele>311.75</ele><time>2026-04-11T15:30:04.003Z</time></trkpt><trkpt lat="45.351181984287784" lon="14.004421175202944"><ele>310.0</ele><time>2026-04-11T15:30:05.003Z</time></trkpt><trkpt lat="45.351089970901945" lon="14.004516849538089"><ele>310.0</ele><time>2026-04-11T15:30:06.003Z</time></trkpt><trkpt lat="45.350998348144394" lon="14.004611780727933"><ele>310.0</ele><time>2026-04-11T15:30:07.003Z</time></trkpt><trkpt lat="45.350904647225946" lon="14.00472746236643"><ele>310.0</ele><time>2026-04-11T15:30:08.003Z</time></trkpt><trkpt lat="45.350815432331714" lon="14.004858108796334"><ele>310.0</ele><time>2026-04-11T15:30:09.003Z</time></trkpt><trkpt lat="45.35073292502641" lon="14.005012132038368"><ele>308.25</ele><time>2026-04-11T15:30:10.003Z</time></trkpt><trkpt lat="45.35065706892106" lon="14.005174572048164"><ele>306.5</ele><time>2026-04-11T15:30:11.003Z</time></trkpt><trkpt lat="45.35057122297715" lon="14.005341209688988"><ele>304.75</ele><time>2026-04-11T15:30:12.003Z</time></trkpt><trkpt lat="45.350504330152155" lon="14.005519652011165"><ele>303.0</ele><time>2026-04-11T15:30:13.003Z</time></trkpt><trkpt lat="45.35044277255751" lon="14.005699208760648"><ele>306.5</ele><time>2026-04-11T15:30:14.003Z</time></trkpt><trkpt lat="45.350376207423295" lon="14.005872870512825"><ele>310.0</ele><time>2026-04-11T15:30:15.003Z</time></trkpt><trkpt lat="45.35031545985136" lon="14.006055107759908"><ele>313.5</ele><time>2026-04-11T15:30:16.003Z</time></trkpt><trkpt lat="45.35025106930163" lon="14.006233709322322"><ele>317.0</ele><time>2026-04-11T15:30:17.003Z</time></trkpt><trkpt lat="45.350189394708245" lon="14.006403694291928"><ele>317.0</ele><time>2026-04-11T15:30:18.003Z</time></trkpt><trkpt lat="45.35013814799554" lon="14.006573666875603"><ele>317.0</ele><time>2026-04-11T15:30:19.003Z</time></trkpt><trkpt lat="45.35012166778811" lon="14.00676981942322"><ele>317.0</ele><time>2026-04-11T15:30:20.003Z</time></trkpt><trkpt lat="45.350115292319224" lon="14.00698166008463"><ele>317.0</ele><time>2026-04-11T15:30:21.003Z</time></trkpt><trkpt lat="45.35011568383737" lon="14.007206140734139"><ele>317.33333333333337</ele><time>2026-04-11T15:30:22.003Z</time></trkpt><trkpt lat="45.350105676879934" lon="14.007422393908735"><ele>317.6666666666667</ele><time>2026-04-11T15:30:23.003Z</time></trkpt><trkpt lat="45.350088647906276" lon="14.007652341533701"><ele>318.0</ele><time>2026-04-11T15:30:24.003Z</time></trkpt><trkpt lat="45.35007394967925" lon="14.007872021248705"><ele>318.0</ele><time>2026-04-11T15:30:25.003Z</time></trkpt><trkpt lat="45.35003491361786" lon="14.008098405446546"><ele>318.0</ele><time>2026-04-11T15:30:26.003Z</time></trkpt><trkpt lat="45.349978893470926" lon="14.00830809730592"><ele>318.0</ele><time>2026-04-11T15:30:27.003Z</time></trkpt><trkpt lat="45.34991016873146" lon="14.008499509691262"><ele>318.75</ele><time>2026-04-11T15:30:28.003Z</time></trkpt><trkpt lat="45.34983992451495" lon="14.008684543226325"><ele>319.5</ele><time>2026-04-11T15:30:29.003Z</time></trkpt><trkpt lat="45.349781357825336" lon="14.008883066205327"><ele>320.25</ele><time>2026-04-11T15:30:30.003Z</time></trkpt><trkpt lat="45.34973607451285" lon="14.009079104806359"><ele>321.0</ele><time>2026-04-11T15:30:31.003Z</time></trkpt><trkpt lat="45.34970907761869" lon="14.009298292235398"><ele>316.0</ele><time>2026-04-11T15:30:32.003Z</time></trkpt><trkpt lat="45.349708522352266" lon="14.009519538825865"><ele>311.0</ele><time>2026-04-11T15:30:33.003Z</time></trkpt><trkpt lat="45.34970203143159" lon="14.009741049602944"><ele>306.0</ele><time>2026-04-11T15:30:34.003Z</time></trkpt><trkpt lat="45.34968988096724" lon="14.00994918308739"><ele>306.3333333333333</ele><time>2026-04-11T15:30:35.003Z</time></trkpt><trkpt lat="45.349647368157356" lon="14.010154899887334"><ele>306.66666666666663</ele><time>2026-04-11T15:30:36.003Z</time></trkpt><trkpt lat="45.34957908585723" lon="14.010354871928936"><ele>307.0</ele><time>2026-04-11T15:30:37.003Z</time></trkpt><trkpt lat="45.34949406645638" lon="14.010564977804421"><ele>307.0</ele><time>2026-04-11T15:30:38.003Z</time></trkpt><trkpt lat="45.349407061666064" lon="14.010766388902747"><ele>307.0</ele><time>2026-04-11T15:30:39.003Z</time></trkpt><trkpt lat="45.349328009120654" lon="14.010970835996568"><ele>307.0</ele><time>2026-04-11T15:30:40.003Z</time></trkpt><trkpt lat="45.349244989555785" lon="14.011153994235563"><ele>309.3333333333333</ele><time>2026-04-11T15:30:41.003Z</time></trkpt><trkpt lat="45.34918410789104" lon="14.011344614312184"><ele>311.6666666666667</ele><time>2026-04-11T15:30:42.003Z</time></trkpt><trkpt lat="45.349151666687014" lon="14.011569781303464"><ele>314.0</ele><time>2026-04-11T15:30:43.003Z</time></trkpt><trkpt lat="45.34910316095807" lon="14.011803570929997"><ele>315.0</ele><time>2026-04-11T15:30:44.003Z</time></trkpt><trkpt lat="45.34903351279792" lon="14.012030076654652"><ele>316.0</ele><time>2026-04-11T15:30:45.003Z</time></trkpt><trkpt lat="45.348988914262875" lon="14.012271788041721"><ele>317.0</ele><time>2026-04-11T15:30:46.003Z</time></trkpt><trkpt lat="45.34890009932596" lon="14.012477433317791"><ele>312.6666666666667</ele><time>2026-04-11T15:30:47.003Z</time></trkpt><trkpt lat="45.348798020225246" lon="14.01265971020565"><ele>308.3333333333333</ele><time>2026-04-11T15:30:48.003Z</time></trkpt><trkpt lat="45.34868741430377" lon="14.012800119422094"><ele>304.0</ele><time>2026-04-11T15:30:49.003Z</time></trkpt><trkpt lat="45.34857289831392" lon="14.01292387976908"><ele>304.0</ele><time>2026-04-11T15:30:50.003Z</time></trkpt><trkpt lat="45.34848047676253" lon="14.013046735804545"><ele>304.0</ele><time>2026-04-11T15:30:51.003Z</time></trkpt><trkpt lat="45.34838484228782" lon="14.013137718584364"><ele>304.0</ele><time>2026-04-11T15:30:52.003Z</time></trkpt><trkpt lat="45.34829415927966" lon="14.01322623853511"><ele>304.0</ele><time>2026-04-11T15:30:53.003Z</time></trkpt><trkpt lat="45.34819468516759" lon="14.013306106980995"><ele>304.5</ele><time>2026-04-11T15:30:54.003Z</time></trkpt><trkpt lat="45.348090266377916" lon="14.013372255010525"><ele>305.0</ele><time>2026-04-11T15:30:55.003Z</time></trkpt><trkpt lat="45.34798354875971" lon="14.013430743035673"><ele>305.5</ele><time>2026-04-11T15:30:56.003Z</time></trkpt><trkpt lat="45.34788207156898" lon="14.013493544118797"><ele>306.0</ele><time>2026-04-11T15:30:57.003Z</time></trkpt><trkpt lat="45.34777877521605" lon="14.01355734020817"><ele>306.0</ele><time>2026-04-11T15:30:58.003Z</time></trkpt><trkpt lat="45.347676587592424" lon="14.013616163338455"><ele>306.0</ele><time>2026-04-11T15:30:59.003Z</time></trkpt><trkpt lat="45.347571394993395" lon="14.013668906109137"><ele>306.0</ele><time>2026-04-11T15:31:00.003Z</time></trkpt><trkpt lat="45.34746189618721" lon="14.01372318236074"><ele>306.0</ele><time>2026-04-11T15:31:01.003Z</time></trkpt><trkpt lat="45.34735271701686" lon="14.013785275855428"><ele>306.0</ele><time>2026-04-11T15:31:02.003Z</time></trkpt><trkpt lat="45.347247215791995" lon="14.01386076247898"><ele>306.0</ele><time>2026-04-11T15:31:03.003Z</time></trkpt><trkpt lat="45.347152551711574" lon="14.013956194855597"><ele>306.0</ele><time>2026-04-11T15:31:04.003Z</time></trkpt><trkpt lat="45.34706978562638" lon="14.014075994704557"><ele>306.0</ele><time>2026-04-11T15:31:05.003Z</time></trkpt><trkpt lat="45.347000220908356" lon="14.0142049306669"><ele>306.0</ele><time>2026-04-11T15:31:06.003Z</time></trkpt><trkpt lat="45.346935578693824" lon="14.014336572997971"><ele>306.0</ele><time>2026-04-11T15:31:07.003Z</time></trkpt><trkpt lat="45.34687869366145" lon="14.014463429454747"><ele>306.0</ele><time>2026-04-11T15:31:08.003Z</time></trkpt><trkpt lat="45.346827874728156" lon="14.014584581624689"><ele>306.0</ele><time>2026-04-11T15:31:09.003Z</time></trkpt><trkpt lat="45.34678574035439" lon="14.014702951790683"><ele>306.0</ele><time>2026-04-11T15:31:10.003Z</time></trkpt><trkpt lat="45.34674169705073" lon="14.014818090258505"><ele>306.0</ele><time>2026-04-11T15:31:11.003Z</time></trkpt><trkpt lat="45.34672628707828" lon="14.014957745688067"><ele>306.0</ele><time>2026-04-11T15:31:12.003Z</time></trkpt><trkpt lat="45.34673424021836" lon="14.015101042510333"><ele>306.0</ele><time>2026-04-11T15:31:13.003Z</time></trkpt><trkpt lat="45.346753629310115" lon="14.015254367738153"><ele>306.0</ele><time>2026-04-11T15:31:14.003Z</time></trkpt><trkpt lat="45.346773274639595" lon="14.015422712889263"><ele>306.0</ele><time>2026-04-11T15:31:15.003Z</time></trkpt><trkpt lat="45.34678501589706" lon="14.015597444237999"><ele>305.25</ele><time>2026-04-11T15:31:16.003Z</time></trkpt><trkpt lat="45.34678300789336" lon="14.015758241273906"><ele>304.5</ele><time>2026-04-11T15:31:17.003Z</time></trkpt><trkpt lat="45.34677837545696" lon="14.015924948625285"><ele>303.75</ele><time>2026-04-11T15:31:18.003Z</time></trkpt><trkpt lat="45.34676607803929" lon="14.01609259740358"><ele>303.0</ele><time>2026-04-11T15:31:19.003Z</time></trkpt><trkpt lat="45.34675315215489" lon="14.016263718604712"><ele>302.5</ele><time>2026-04-11T15:31:20.003Z</time></trkpt><trkpt lat="45.346731228049066" lon="14.016433733494681"><ele>302.0</ele><time>2026-04-11T15:31:21.003Z</time></trkpt><trkpt lat="45.346698632544445" lon="14.016594649163745"><ele>301.5</ele><time>2026-04-11T15:31:22.003Z</time></trkpt><trkpt lat="45.34665137370066" lon="14.016747811439615"><ele>301.0</ele><time>2026-04-11T15:31:23.003Z</time></trkpt><trkpt lat="45.34658453297329" lon="14.016882512469211"><ele>302.0</ele><time>2026-04-11T15:31:24.003Z</time></trkpt><trkpt lat="45.34651130831521" lon="14.017020698011367"><ele>303.0</ele><time>2026-04-11T15:31:25.003Z</time></trkpt><trkpt lat="45.34643186170294" lon="14.017150105500242"><ele>304.0</ele><time>2026-04-11T15:31:26.003Z</time></trkpt><trkpt lat="45.34634993303002" lon="14.01727105727431"><ele>305.0</ele><time>2026-04-11T15:31:27.003Z</time></trkpt><trkpt lat="45.34625590533856" lon="14.017376774852103"><ele>305.5</ele><time>2026-04-11T15:31:28.003Z</time></trkpt><trkpt lat="45.346158992159985" lon="14.017478366349094"><ele>306.0</ele><time>2026-04-11T15:31:29.003Z</time></trkpt><trkpt lat="45.34605948412032" lon="14.017574980068753"><ele>306.5</ele><time>2026-04-11T15:31:30.003Z</time></trkpt><trkpt lat="45.34595893637177" lon="14.017672945160813"><ele>307.0</ele><time>2026-04-11T15:31:31.003Z</time></trkpt><trkpt lat="45.34585748106026" lon="14.017765503571876"><ele>307.0</ele><time>2026-04-11T15:31:32.003Z</time></trkpt><trkpt lat="45.345747098716195" lon="14.017839486895092"><ele>307.0</ele><time>2026-04-11T15:31:33.003Z</time></trkpt><trkpt lat="45.34562846726677" lon="14.01785719860537"><ele>307.0</ele><time>2026-04-11T15:31:34.003Z</time></trkpt><trkpt lat="45.345517231830875" lon="14.017888879040521"><ele>307.0</ele><time>2026-04-11T15:31:35.003Z</time></trkpt><trkpt lat="45.34540347237562" lon="14.01788753629607"><ele>308.0</ele><time>2026-04-11T15:31:36.003Z</time></trkpt><trkpt lat="45.34530342294532" lon="14.017824442122501"><ele>309.0</ele><time>2026-04-11T15:31:37.003Z</time></trkpt><trkpt lat="45.3452183236744" lon="14.01776539742315"><ele>310.0</ele><time>2026-04-11T15:31:38.003Z</time></trkpt><trkpt lat="45.345132030417076" lon="14.017722955125889"><ele>311.0</ele><time>2026-04-11T15:31:39.003Z</time></trkpt><trkpt lat="45.34505754272137" lon="14.017668500947384"><ele>312.0</ele><time>2026-04-11T15:31:40.003Z</time></trkpt><trkpt lat="45.34496387897767" lon="14.01761077459357"><ele>312.0</ele><time>2026-04-11T15:31:41.003Z</time></trkpt><trkpt lat="45.34487266753741" lon="14.01755183133843"><ele>312.0</ele><time>2026-04-11T15:31:42.003Z</time></trkpt><trkpt lat="45.34478523709648" lon="14.01749192486647"><ele>312.0</ele><time>2026-04-11T15:31:43.003Z</time></trkpt><trkpt lat="45.34469791039126" lon="14.017435500262234"><ele>312.0</ele><time>2026-04-11T15:31:44.003Z</time></trkpt><trkpt lat="45.34461799340385" lon="14.017377789824662"><ele>312.0</ele><time>2026-04-11T15:31:45.003Z</time></trkpt><trkpt lat="45.34453505784311" lon="14.017320460304555"><ele>310.8333333333333</ele><time>2026-04-11T15:31:46.003Z</time></trkpt><trkpt lat="45.344460939005906" lon="14.017263106773429"><ele>309.6666666666667</ele><time>2026-04-11T15:31:47.003Z</time></trkpt><trkpt lat="45.34437234710583" lon="14.017196261235862"><ele>308.5</ele><time>2026-04-11T15:31:49.003Z</time></trkpt><trkpt lat="45.34427198243128" lon="14.017129320927884"><ele>307.33333333333337</ele><time>2026-04-11T15:37:33.011Z</time></trkpt><trkpt lat="45.34420778118654" lon="14.01708390280941"><ele>306.1666666666667</ele><time>2026-04-11T15:37:34.011Z</time></trkpt><trkpt lat="45.34414041712523" lon="14.017027538319093"><ele>305.0</ele><time>2026-04-11T15:37:35.011Z</time></trkpt><trkpt lat="45.34406010179295" lon="14.01694801324713"><ele>305.0</ele><time>2026-04-11T15:37:36.011Z</time></trkpt><trkpt lat="45.34396399707262" lon="14.01684293828687"><ele>305.0</ele><time>2026-04-11T15:37:37.011Z</time></trkpt><trkpt lat="45.34387299306045" lon="14.01671564316421"><ele>305.0</ele><time>2026-04-11T15:37:38.011Z</time></trkpt><trkpt lat="45.34377729650015" lon="14.016602820713077"><ele>305.0</ele><time>2026-04-11T15:37:39.011Z</time></trkpt><trkpt lat="45.3436663081036" lon="14.01650372033226"><ele>306.5</ele><time>2026-04-11T15:37:40.011Z</time></trkpt><trkpt lat="45.34356187907597" lon="14.016382051354991"><ele>308.0</ele><time>2026-04-11T15:37:41.011Z</time></trkpt><trkpt lat="45.34344708126719" lon="14.016258373854953"><ele>309.5</ele><time>2026-04-11T15:37:42.011Z</time></trkpt><trkpt lat="45.34334350089678" lon="14.016135244973587"><ele>311.0</ele><time>2026-04-11T15:37:43.011Z</time></trkpt><trkpt lat="45.34324153597933" lon="14.016018273302658"><ele>311.0</ele><time>2026-04-11T15:37:44.011Z</time></trkpt><trkpt lat="45.34312232680992" lon="14.015899524886118"><ele>311.0</ele><time>2026-04-11T15:37:45.011Z</time></trkpt><trkpt lat="45.342994520034075" lon="14.015770676746193"><ele>311.0</ele><time>2026-04-11T15:37:46.011Z</time></trkpt><trkpt lat="45.342874463497" lon="14.015647835050046"><ele>312.25</ele><time>2026-04-11T15:37:47.011Z</time></trkpt><trkpt lat="45.34276776696621" lon="14.015518625990001"><ele>313.5</ele><time>2026-04-11T15:37:48.011Z</time></trkpt><trkpt lat="45.34267305293942" lon="14.015385495263095"><ele>314.75</ele><time>2026-04-11T15:37:49.011Z</time></trkpt><trkpt lat="45.342583141088774" lon="14.015268282293013"><ele>316.0</ele><time>2026-04-11T15:37:50.011Z</time></trkpt><trkpt lat="45.342497591262536" lon="14.015182235169116"><ele>316.0</ele><time>2026-04-11T15:37:51.011Z</time></trkpt><trkpt lat="45.34240820433161" lon="14.01514003380493"><ele>316.0</ele><time>2026-04-11T15:37:52.011Z</time></trkpt><trkpt lat="45.34230196977757" lon="14.015152950327986"><ele>316.0</ele><time>2026-04-11T15:37:53.011Z</time></trkpt><trkpt lat="45.34219496046403" lon="14.01522936718969"><ele>316.0</ele><time>2026-04-11T15:37:54.011Z</time></trkpt><trkpt lat="45.34209220178031" lon="14.015340315987661"><ele>313.5</ele><time>2026-04-11T15:37:55.011Z</time></trkpt><trkpt lat="45.3420005662204" lon="14.015456766478101"><ele>311.0</ele><time>2026-04-11T15:37:56.011Z</time></trkpt><trkpt lat="45.3418946962721" lon="14.015590174216747"><ele>308.5</ele><time>2026-04-11T15:37:57.011Z</time></trkpt><trkpt lat="45.3417832001134" lon="14.015717169436794"><ele>306.0</ele><time>2026-04-11T15:37:58.011Z</time></trkpt><trkpt lat="45.341551003158" lon="14.015960238960119"><ele>306.5</ele><time>2026-04-11T15:38:00.011Z</time></trkpt><trkpt lat="45.34144056271577" lon="14.016052748271758"><ele>307.0</ele><time>2026-04-11T15:38:01.011Z</time></trkpt><trkpt lat="45.34134154448496" lon="14.016137563288785"><ele>307.5</ele><time>2026-04-11T15:38:02.011Z</time></trkpt><trkpt lat="45.34123983063313" lon="14.016218576010262"><ele>308.0</ele><time>2026-04-11T15:38:03.011Z</time></trkpt><trkpt lat="45.341136448977565" lon="14.016304518506603"><ele>308.0</ele><time>2026-04-11T15:38:04.011Z</time></trkpt><trkpt lat="45.34102696263085" lon="14.01640732360645"><ele>308.0</ele><time>2026-04-11T15:38:05.011Z</time></trkpt><trkpt lat="45.34092381789839" lon="14.016521955585473"><ele>308.0</ele><time>2026-04-11T15:38:06.011Z</time></trkpt><trkpt lat="45.34084078238938" lon="14.016676921503173"><ele>308.0</ele><time>2026-04-11T15:38:07.011Z</time></trkpt><trkpt lat="45.34075175239924" lon="14.016845776597865"><ele>307.33333333333337</ele><time>2026-04-11T15:38:08.011Z</time></trkpt><trkpt lat="45.34066231679561" lon="14.017035399465003"><ele>306.6666666666667</ele><time>2026-04-11T15:38:09.011Z</time></trkpt><trkpt lat="45.34055404128155" lon="14.017214805893062"><ele>306.0</ele><time>2026-04-11T15:38:10.011Z</time></trkpt><trkpt lat="45.34041753370031" lon="14.01734663789348"><ele>314.6666666666667</ele><time>2026-04-11T15:38:11.011Z</time></trkpt><trkpt lat="45.34028436130976" lon="14.0174949005112"><ele>323.33333333333337</ele><time>2026-04-11T15:38:12.011Z</time></trkpt><trkpt lat="45.34013658353693" lon="14.017614346150026"><ele>332.0</ele><time>2026-04-11T15:38:13.011Z</time></trkpt><trkpt lat="45.339985385875224" lon="14.017688540230818"><ele>332.0</ele><time>2026-04-11T15:38:14.011Z</time></trkpt><trkpt lat="45.33983379155104" lon="14.017726919722648"><ele>332.0</ele><time>2026-04-11T15:38:15.011Z</time></trkpt><trkpt lat="45.339677430922684" lon="14.017746868282586"><ele>332.0</ele><time>2026-04-11T15:38:16.011Z</time></trkpt><trkpt lat="45.33952432729888" lon="14.017787759036711"><ele>330.33333333333337</ele><time>2026-04-11T15:38:17.011Z</time></trkpt><trkpt lat="45.339368799990666" lon="14.017816856348686"><ele>328.6666666666667</ele><time>2026-04-11T15:38:18.011Z</time></trkpt><trkpt lat="45.339224285887234" lon="14.017873850421875"><ele>327.0</ele><time>2026-04-11T15:38:19.011Z</time></trkpt><trkpt lat="45.33908597636656" lon="14.01794872640141"><ele>327.0</ele><time>2026-04-11T15:38:20.011Z</time></trkpt><trkpt lat="45.33894906337211" lon="14.017968968754857"><ele>327.0</ele><time>2026-04-11T15:38:21.011Z</time></trkpt><trkpt lat="45.33883441834838" lon="14.017926616216752"><ele>327.0</ele><time>2026-04-11T15:38:22.011Z</time></trkpt><trkpt lat="45.33870482012524" lon="14.017852258494878"><ele>327.0</ele><time>2026-04-11T15:38:23.011Z</time></trkpt><trkpt lat="45.338566734660574" lon="14.0177714887121"><ele>328.0</ele><time>2026-04-11T15:38:24.011Z</time></trkpt><trkpt lat="45.33845567601659" lon="14.017622793159802"><ele>329.0</ele><time>2026-04-11T15:38:25.011Z</time></trkpt><trkpt lat="45.33838066641315" lon="14.017461530385885"><ele>330.0</ele><time>2026-04-11T15:38:26.011Z</time></trkpt><trkpt lat="45.33832633598375" lon="14.017270581667715"><ele>331.0</ele><time>2026-04-11T15:38:27.011Z</time></trkpt><trkpt lat="45.33828033351531" lon="14.01707350160729"><ele>331.0</ele><time>2026-04-11T15:38:28.011Z</time></trkpt><trkpt lat="45.338206350067175" lon="14.016916538912637"><ele>331.0</ele><time>2026-04-11T15:38:29.011Z</time></trkpt><trkpt lat="45.338127267240004" lon="14.016809327380956"><ele>331.0</ele><time>2026-04-11T15:38:30.012Z</time></trkpt><trkpt lat="45.33799568348227" lon="14.016744969296411"><ele>331.0</ele><time>2026-04-11T15:38:31.012Z</time></trkpt><trkpt lat="45.337843786935224" lon="14.016697661827454"><ele>329.3333333333333</ele><time>2026-04-11T15:38:32.012Z</time></trkpt><trkpt lat="45.337681537692184" lon="14.016630988271336"><ele>327.6666666666667</ele><time>2026-04-11T15:38:33.012Z</time></trkpt><trkpt lat="45.33753079273214" lon="14.016565162619084"><ele>326.0</ele><time>2026-04-11T15:38:34.012Z</time></trkpt><trkpt lat="45.33738022709075" lon="14.016497852268996"><ele>326.0</ele><time>2026-04-11T15:38:35.012Z</time></trkpt><trkpt lat="45.3372255891337" lon="14.016489326603505"><ele>326.0</ele><time>2026-04-11T15:38:36.012Z</time></trkpt><trkpt lat="45.33706891424707" lon="14.016532819906176"><ele>326.0</ele><time>2026-04-11T15:38:37.012Z</time></trkpt><trkpt lat="45.3369259245654" lon="14.016591552016186"><ele>330.4</ele><time>2026-04-11T15:38:38.012Z</time></trkpt><trkpt lat="45.33679595748427" lon="14.016631822996159"><ele>334.8</ele><time>2026-04-11T15:38:39.012Z</time></trkpt><trkpt lat="45.33667871097187" lon="14.016650490844548"><ele>339.2</ele><time>2026-04-11T15:38:40.012Z</time></trkpt><trkpt lat="45.336591575144766" lon="14.016635228249411"><ele>343.59999999999997</ele><time>2026-04-11T15:38:41.012Z</time></trkpt><trkpt lat="45.33655933448997" lon="14.016516674603352"><ele>348.0</ele><time>2026-04-11T15:38:42.012Z</time></trkpt><trkpt lat="45.336564197837454" lon="14.016380466907263"><ele>348.0</ele><time>2026-04-11T15:38:43.012Z</time></trkpt><trkpt lat="45.33652767143176" lon="14.016167784451204"><ele>348.0</ele><time>2026-04-11T15:38:44.012Z</time></trkpt><trkpt lat="45.33647500691013" lon="14.015937679253408"><ele>348.0</ele><time>2026-04-11T15:38:45.012Z</time></trkpt><trkpt lat="45.33643964717925" lon="14.015718439360597"><ele>348.75</ele><time>2026-04-11T15:38:46.012Z</time></trkpt><trkpt lat="45.336387042022025" lon="14.015528888437847"><ele>349.5</ele><time>2026-04-11T15:38:47.012Z</time></trkpt><trkpt lat="45.33628815434398" lon="14.015380158822891"><ele>350.25</ele><time>2026-04-11T15:38:48.012Z</time></trkpt><trkpt lat="45.336163652853934" lon="14.015254979216532"><ele>351.0</ele><time>2026-04-11T15:38:49.012Z</time></trkpt><trkpt lat="45.33601454301876" lon="14.01515757540224"><ele>351.0</ele><time>2026-04-11T15:38:50.012Z</time></trkpt><trkpt lat="45.335859624078864" lon="14.01506942273297"><ele>351.0</ele><time>2026-04-11T15:38:51.012Z</time></trkpt><trkpt lat="45.335697841614504" lon="14.014994081141015"><ele>351.0</ele><time>2026-04-11T15:38:52.012Z</time></trkpt><trkpt lat="45.33552622528076" lon="14.014919769872293"><ele>351.0</ele><time>2026-04-11T15:38:53.012Z</time></trkpt><trkpt lat="45.3353659199934" lon="14.014813779904822"><ele>351.0</ele><time>2026-04-11T15:38:54.012Z</time></trkpt><trkpt lat="45.335211487362464" lon="14.014729681220265"><ele>351.0</ele><time>2026-04-11T15:38:55.012Z</time></trkpt><trkpt lat="45.335076082734766" lon="14.014635937269878"><ele>351.0</ele><time>2026-04-11T15:38:56.012Z</time></trkpt><trkpt lat="45.33495455789189" lon="14.014508857397317"><ele>351.0</ele><time>2026-04-11T15:38:57.012Z</time></trkpt><trkpt lat="45.3348519453495" lon="14.014351859615147"><ele>351.0</ele><time>2026-04-11T15:38:58.012Z</time></trkpt><trkpt lat="45.334758373706336" lon="14.014152904020394"><ele>356.6666666666667</ele><time>2026-04-11T15:38:59.012Z</time></trkpt><trkpt lat="45.33465362118839" lon="14.013928123648023"><ele>362.33333333333337</ele><time>2026-04-11T15:39:00.012Z</time></trkpt><trkpt lat="45.334523906217925" lon="14.013687242783318"><ele>368.0</ele><time>2026-04-11T15:39:01.012Z</time></trkpt><trkpt lat="45.33441252402697" lon="14.013422209490319"><ele>362.0</ele><time>2026-04-11T15:39:02.012Z</time></trkpt><trkpt lat="45.33432776452001" lon="14.013175597214119"><ele>356.0</ele><time>2026-04-11T15:39:03.012Z</time></trkpt><trkpt lat="45.33424221896253" lon="14.012965676479965"><ele>350.0</ele><time>2026-04-11T15:39:04.012Z</time></trkpt><trkpt lat="45.33416504732794" lon="14.012787574486683"><ele>350.0</ele><time>2026-04-11T15:39:05.012Z</time></trkpt><trkpt lat="45.33406840274671" lon="14.012631696652544"><ele>350.0</ele><time>2026-04-11T15:39:06.012Z</time></trkpt><trkpt lat="45.33398120100512" lon="14.012514201756577"><ele>350.0</ele><time>2026-04-11T15:39:07.012Z</time></trkpt><trkpt lat="45.33387626371299" lon="14.012470842112972"><ele>350.0</ele><time>2026-04-11T15:39:08.012Z</time></trkpt><trkpt lat="45.333733066845184" lon="14.012502462753206"><ele>350.33333333333337</ele><time>2026-04-11T15:39:09.012Z</time></trkpt><trkpt lat="45.333594193007585" lon="14.012577690792346"><ele>350.6666666666667</ele><time>2026-04-11T15:39:10.012Z</time></trkpt><trkpt lat="45.33345092018118" lon="14.012669028187956"><ele>351.0</ele><time>2026-04-11T15:39:11.012Z</time></trkpt><trkpt lat="45.33332435666283" lon="14.012779024711667"><ele>351.0</ele><time>2026-04-11T15:39:12.012Z</time></trkpt><trkpt lat="45.33319284506515" lon="14.01291343146039"><ele>351.0</ele><time>2026-04-11T15:39:13.012Z</time></trkpt><trkpt lat="45.33306303258131" lon="14.013031883122123"><ele>351.0</ele><time>2026-04-11T15:39:14.012Z</time></trkpt><trkpt lat="45.332932974269916" lon="14.013102993875885"><ele>351.5</ele><time>2026-04-11T15:39:15.012Z</time></trkpt><trkpt lat="45.33280221826909" lon="14.01307381708314"><ele>352.0</ele><time>2026-04-11T15:39:16.012Z</time></trkpt><trkpt lat="45.33268052525065" lon="14.012996351479913"><ele>352.5</ele><time>2026-04-11T15:39:17.012Z</time></trkpt><trkpt lat="45.33255943663246" lon="14.01288912608355"><ele>353.0</ele><time>2026-04-11T15:39:18.012Z</time></trkpt><trkpt lat="45.332434728741816" lon="14.01274287330789"><ele>353.0</ele><time>2026-04-11T15:39:19.012Z</time></trkpt><trkpt lat="45.33229616022922" lon="14.012634617668402"><ele>353.0</ele><time>2026-04-11T15:39:20.012Z</time></trkpt><trkpt lat="45.332177142344996" lon="14.01258342774275"><ele>353.0</ele><time>2026-04-11T15:39:21.012Z</time></trkpt><trkpt lat="45.332025745578974" lon="14.012613023537302"><ele>353.0</ele><time>2026-04-11T15:39:22.012Z</time></trkpt><trkpt lat="45.3318687510614" lon="14.012687552887186"><ele>355.5</ele><time>2026-04-11T15:39:23.012Z</time></trkpt><trkpt lat="45.331720384787566" lon="14.012788524546655"><ele>358.0</ele><time>2026-04-11T15:39:24.012Z</time></trkpt><trkpt lat="45.33158236487014" lon="14.012855768102744"><ele>360.5</ele><time>2026-04-11T15:39:25.012Z</time></trkpt><trkpt lat="45.33145251216271" lon="14.012901063224271"><ele>363.0</ele><time>2026-04-11T15:39:26.012Z</time></trkpt><trkpt lat="45.33133979054784" lon="14.012874487208602"><ele>367.2</ele><time>2026-04-11T15:39:27.012Z</time></trkpt><trkpt lat="45.33127429668544" lon="14.012792475420142"><ele>371.4</ele><time>2026-04-11T15:39:28.012Z</time></trkpt><trkpt lat="45.33125030761382" lon="14.012654505564038"><ele>375.59999999999997</ele><time>2026-04-11T15:39:29.012Z</time></trkpt><trkpt lat="45.33127523828617" lon="14.012534017048992"><ele>379.79999999999995</ele><time>2026-04-11T15:39:30.012Z</time></trkpt><trkpt lat="45.3313243623713" lon="14.012385738768472"><ele>384.0</ele><time>2026-04-11T15:39:31.012Z</time></trkpt><trkpt lat="45.33135479831758" lon="14.012194941186806"><ele>384.0</ele><time>2026-04-11T15:39:32.012Z</time></trkpt><trkpt lat="45.331379316054516" lon="14.012007910480024"><ele>384.0</ele><time>2026-04-11T15:39:33.012Z</time></trkpt><trkpt lat="45.33138052486321" lon="14.011792701308453"><ele>384.0</ele><time>2026-04-11T15:39:34.012Z</time></trkpt><trkpt lat="45.33133793907165" lon="14.011573962648237"><ele>384.0</ele><time>2026-04-11T15:39:35.012Z</time></trkpt><trkpt lat="45.3313143482441" lon="14.011361029431667"><ele>385.0</ele><time>2026-04-11T15:39:36.012Z</time></trkpt><trkpt lat="45.331293830221234" lon="14.01115210637835"><ele>386.0</ele><time>2026-04-11T15:39:37.012Z</time></trkpt><trkpt lat="45.331286737284415" lon="14.010935188843256"><ele>387.0</ele><time>2026-04-11T15:39:38.012Z</time></trkpt><trkpt lat="45.33127881276297" lon="14.010713286832532"><ele>387.0</ele><time>2026-04-11T15:39:39.012Z</time></trkpt><trkpt lat="45.331268145457194" lon="14.010486806752983"><ele>387.0</ele><time>2026-04-11T15:39:40.012Z</time></trkpt><trkpt lat="45.3312547279109" lon="14.010274380650301"><ele>387.0</ele><time>2026-04-11T15:39:41.012Z</time></trkpt><trkpt lat="45.331259402024045" lon="14.010057132273923"><ele>383.5</ele><time>2026-04-11T15:39:42.012Z</time></trkpt><trkpt lat="45.331251010281875" lon="14.009864010616988"><ele>380.0</ele><time>2026-04-11T15:39:43.012Z</time></trkpt><trkpt lat="45.3312553781016" lon="14.009664882998791"><ele>376.5</ele><time>2026-04-11T15:39:44.012Z</time></trkpt><trkpt lat="45.33126060382427" lon="14.009461299226919"><ele>373.0</ele><time>2026-04-11T15:39:45.012Z</time></trkpt><trkpt lat="45.33126030782772" lon="14.009283889927772"><ele>366.25</ele><time>2026-04-11T15:39:46.012Z</time></trkpt><trkpt lat="45.33123261752466" lon="14.009121876103688"><ele>359.5</ele><time>2026-04-11T15:39:47.012Z</time></trkpt><trkpt lat="45.331160188365224" lon="14.008997765128168"><ele>352.75</ele><time>2026-04-11T15:39:48.012Z</time></trkpt><trkpt lat="45.33106627876736" lon="14.008942005982489"><ele>346.0</ele><time>2026-04-11T15:39:49.012Z</time></trkpt><trkpt lat="45.33094044260004" lon="14.008867182696347"><ele>346.0</ele><time>2026-04-11T15:39:50.012Z</time></trkpt><trkpt lat="45.33079830918485" lon="14.008809974614158"><ele>346.0</ele><time>2026-04-11T15:39:51.012Z</time></trkpt><trkpt lat="45.33067122128644" lon="14.00875884800576"><ele>346.0</ele><time>2026-04-11T15:39:52.012Z</time></trkpt><trkpt lat="45.33053726204689" lon="14.008730997558864"><ele>346.0</ele><time>2026-04-11T15:39:53.012Z</time></trkpt><trkpt lat="45.330391923686776" lon="14.008758204288469"><ele>351.25</ele><time>2026-04-11T15:39:54.012Z</time></trkpt><trkpt lat="45.33025974694077" lon="14.008839651661045"><ele>356.5</ele><time>2026-04-11T15:39:55.012Z</time></trkpt><trkpt lat="45.33013691101374" lon="14.008880589824814"><ele>361.75</ele><time>2026-04-11T15:39:56.012Z</time></trkpt><trkpt lat="45.33003567341723" lon="14.008863603827743"><ele>367.0</ele><time>2026-04-11T15:39:57.012Z</time></trkpt><trkpt lat="45.329965526653694" lon="14.008784036864256"><ele>367.0</ele><time>2026-04-11T15:39:58.012Z</time></trkpt><trkpt lat="45.329921451574535" lon="14.008672443257382"><ele>367.0</ele><time>2026-04-11T15:39:59.012Z</time></trkpt><trkpt lat="45.32993013271557" lon="14.008523372502937"><ele>367.0</ele><time>2026-04-11T15:40:00.012Z</time></trkpt><trkpt lat="45.32992473094475" lon="14.008322969721892"><ele>367.0</ele><time>2026-04-11T15:40:01.012Z</time></trkpt><trkpt lat="45.329938698630876" lon="14.00810226086787"><ele>366.66666666666663</ele><time>2026-04-11T15:40:02.012Z</time></trkpt><trkpt lat="45.32995201616039" lon="14.007862454928386"><ele>366.3333333333333</ele><time>2026-04-11T15:40:03.012Z</time></trkpt><trkpt lat="45.32996921709507" lon="14.007644067500937"><ele>366.0</ele><time>2026-04-11T15:40:04.012Z</time></trkpt><trkpt lat="45.33002799377266" lon="14.007460074545202"><ele>365.75</ele><time>2026-04-11T15:40:05.012Z</time></trkpt><trkpt lat="45.330101833361724" lon="14.00729247073878"><ele>365.5</ele><time>2026-04-11T15:40:06.012Z</time></trkpt><trkpt lat="45.33015641625466" lon="14.0071199289825"><ele>365.25</ele><time>2026-04-11T15:40:07.012Z</time></trkpt><trkpt lat="45.33019188595834" lon="14.00695153923363"><ele>365.0</ele><time>2026-04-11T15:40:08.012Z</time></trkpt><trkpt lat="45.33016584928287" lon="14.006772581629013"><ele>360.0</ele><time>2026-04-11T15:40:09.012Z</time></trkpt><trkpt lat="45.33007788841713" lon="14.006619873224594"><ele>355.0</ele><time>2026-04-11T15:40:10.012Z</time></trkpt><trkpt lat="45.32995610258199" lon="14.006496656761987"><ele>350.0</ele><time>2026-04-11T15:40:11.012Z</time></trkpt><trkpt lat="45.329815598335095" lon="14.006366748464279"><ele>356.33333333333337</ele><time>2026-04-11T15:40:12.012Z</time></trkpt><trkpt lat="45.329679353670855" lon="14.006232018296922"><ele>362.6666666666667</ele><time>2026-04-11T15:40:13.012Z</time></trkpt><trkpt lat="45.32954886951268" lon="14.006116004217859"><ele>369.0</ele><time>2026-04-11T15:40:14.012Z</time></trkpt><trkpt lat="45.329440235199854" lon="14.005974568867375"><ele>369.0</ele><time>2026-04-11T15:40:15.012Z</time></trkpt><trkpt lat="45.32931928171918" lon="14.005850614003073"><ele>369.0</ele><time>2026-04-11T15:40:16.012Z</time></trkpt><trkpt lat="45.3291807570073" lon="14.005743670700376"><ele>369.0</ele><time>2026-04-11T15:40:17.012Z</time></trkpt><trkpt lat="45.32904967245027" lon="14.005664355113172"><ele>369.0</ele><time>2026-04-11T15:40:18.012Z</time></trkpt><trkpt lat="45.32891989785051" lon="14.0055986418112"><ele>370.5</ele><time>2026-04-11T15:40:19.012Z</time></trkpt><trkpt lat="45.32882907872652" lon="14.005495202583319"><ele>372.0</ele><time>2026-04-11T15:40:20.012Z</time></trkpt><trkpt lat="45.32877389469864" lon="14.005366465856893"><ele>373.5</ele><time>2026-04-11T15:40:21.012Z</time></trkpt><trkpt lat="45.32873314185063" lon="14.005202318301087"><ele>375.0</ele><time>2026-04-11T15:40:22.013Z</time></trkpt><trkpt lat="45.32867820404068" lon="14.005021603212949"><ele>367.75</ele><time>2026-04-11T15:40:23.013Z</time></trkpt><trkpt lat="45.328615808314744" lon="14.004865476202173"><ele>360.5</ele><time>2026-04-11T15:40:24.013Z</time></trkpt><trkpt lat="45.32852347785367" lon="14.00477130526373"><ele>353.25</ele><time>2026-04-11T15:40:25.013Z</time></trkpt><trkpt lat="45.3284080190909" lon="14.004700566057636"><ele>346.0</ele><time>2026-04-11T15:40:26.013Z</time></trkpt><trkpt lat="45.32827007155022" lon="14.004685017902197"><ele>346.0</ele><time>2026-04-11T15:40:27.013Z</time></trkpt><trkpt lat="45.32812396146055" lon="14.004735942474497"><ele>346.0</ele><time>2026-04-11T15:40:28.013Z</time></trkpt><trkpt lat="45.327979814324436" lon="14.004836826198423"><ele>346.0</ele><time>2026-04-11T15:40:29.013Z</time></trkpt><trkpt lat="45.32784619041013" lon="14.004944545560779"><ele>351.0</ele><time>2026-04-11T15:40:30.013Z</time></trkpt><trkpt lat="45.327742333126615" lon="14.005102470320503"><ele>356.0</ele><time>2026-04-11T15:40:31.013Z</time></trkpt><trkpt lat="45.32766606306692" lon="14.005319965243011"><ele>361.0</ele><time>2026-04-11T15:40:32.013Z</time></trkpt><trkpt lat="45.32761590184063" lon="14.005539510832914"><ele>361.0</ele><time>2026-04-11T15:40:33.013Z</time></trkpt><trkpt lat="45.3275965169201" lon="14.005772906951528"><ele>361.0</ele><time>2026-04-11T15:40:34.013Z</time></trkpt><trkpt lat="45.327579296837" lon="14.006013656127317"><ele>361.0</ele><time>2026-04-11T15:40:35.014Z</time></trkpt><trkpt lat="45.327559495031046" lon="14.006239937993078"><ele>364.0</ele><time>2026-04-11T15:40:36.014Z</time></trkpt><trkpt lat="45.32753359747278" lon="14.006464136330969"><ele>367.0</ele><time>2026-04-11T15:40:37.014Z</time></trkpt><trkpt lat="45.32750562731565" lon="14.006694339870087"><ele>370.0</ele><time>2026-04-11T15:40:38.014Z</time></trkpt><trkpt lat="45.32747878635778" lon="14.006918090903104"><ele>372.3333333333333</ele><time>2026-04-11T15:40:39.014Z</time></trkpt><trkpt lat="45.32744397641679" lon="14.007133714666267"><ele>374.6666666666667</ele><time>2026-04-11T15:40:40.014Z</time></trkpt><trkpt lat="45.32740925859753" lon="14.007351106582949"><ele>377.0</ele><time>2026-04-11T15:40:41.014Z</time></trkpt><trkpt lat="45.32737022719083" lon="14.007571722731532"><ele>379.33333333333337</ele><time>2026-04-11T15:40:42.014Z</time></trkpt><trkpt lat="45.32732873497182" lon="14.00778902345572"><ele>381.6666666666667</ele><time>2026-04-11T15:40:43.014Z</time></trkpt><trkpt lat="45.327273642613825" lon="14.008001554413497"><ele>384.0</ele><time>2026-04-11T15:40:44.014Z</time></trkpt><trkpt lat="45.32721411285322" lon="14.008215664410777"><ele>376.6666666666667</ele><time>2026-04-11T15:40:45.014Z</time></trkpt><trkpt lat="45.32714464727464" lon="14.008435781100008"><ele>369.33333333333337</ele><time>2026-04-11T15:40:46.014Z</time></trkpt><trkpt lat="45.32707680213136" lon="14.008656222541598"><ele>362.0</ele><time>2026-04-11T15:40:47.014Z</time></trkpt><trkpt lat="45.32700872463659" lon="14.008884396243351"><ele>362.0</ele><time>2026-04-11T15:40:48.014Z</time></trkpt><trkpt lat="45.32696673130269" lon="14.00910860304007"><ele>362.0</ele><time>2026-04-11T15:40:49.014Z</time></trkpt><trkpt lat="45.32693252092917" lon="14.009319238147132"><ele>362.0</ele><time>2026-04-11T15:40:50.014Z</time></trkpt><trkpt lat="45.326911061558725" lon="14.009514128521161"><ele>366.0</ele><time>2026-04-11T15:40:51.014Z</time></trkpt><trkpt lat="45.32687783651458" lon="14.009682097206763"><ele>370.0</ele><time>2026-04-11T15:40:52.014Z</time></trkpt><trkpt lat="45.326815206532046" lon="14.009818733223407"><ele>374.0</ele><time>2026-04-11T15:40:53.014Z</time></trkpt><trkpt lat="45.326696944225326" lon="14.009848200452145"><ele>378.0</ele><time>2026-04-11T15:40:54.014Z</time></trkpt><trkpt lat="45.3266067644243" lon="14.009945505977608"><ele>382.25</ele><time>2026-04-11T15:40:55.014Z</time></trkpt><trkpt lat="45.326519584129684" lon="14.01009236093588"><ele>386.5</ele><time>2026-04-11T15:40:56.014Z</time></trkpt><trkpt lat="45.326432715099315" lon="14.01022229161206"><ele>390.75</ele><time>2026-04-11T15:40:57.014Z</time></trkpt><trkpt lat="45.326369569626884" lon="14.010356651237895"><ele>395.0</ele><time>2026-04-11T15:40:58.014Z</time></trkpt><trkpt lat="45.32629006246551" lon="14.010455236669578"><ele>396.2</ele><time>2026-04-11T15:40:59.014Z</time></trkpt><trkpt lat="45.326231144628004" lon="14.01054265452761"><ele>397.4</ele><time>2026-04-11T15:41:00.014Z</time></trkpt><trkpt lat="45.32614973483188" lon="14.010535662251693"><ele>398.6</ele><time>2026-04-11T15:41:01.014Z</time></trkpt><trkpt lat="45.326069667617986" lon="14.010475060366497"><ele>399.8</ele><time>2026-04-11T15:41:02.014Z</time></trkpt><trkpt lat="45.326030703967874" lon="14.010315411528296"><ele>401.0</ele><time>2026-04-11T15:41:03.014Z</time></trkpt><trkpt lat="45.325952913909596" lon="14.010180086190745"><ele>401.0</ele><time>2026-04-11T15:41:04.014Z</time></trkpt><trkpt lat="45.32587592565376" lon="14.0100333554684"><ele>401.0</ele><time>2026-04-11T15:41:05.014Z</time></trkpt><trkpt lat="45.325810720261984" lon="14.009891369144388"><ele>401.0</ele><time>2026-04-11T15:41:06.014Z</time></trkpt><trkpt lat="45.32582229416031" lon="14.00970880863576"><ele>401.0</ele><time>2026-04-11T15:41:07.014Z</time></trkpt><trkpt lat="45.32577057257824" lon="14.009532688507147"><ele>398.25</ele><time>2026-04-11T15:41:08.014Z</time></trkpt><trkpt lat="45.325690526446635" lon="14.009373431819427"><ele>395.5</ele><time>2026-04-11T15:41:09.014Z</time></trkpt><trkpt lat="45.325602048369134" lon="14.009239635261169"><ele>392.75</ele><time>2026-04-11T15:41:10.014Z</time></trkpt><trkpt lat="45.325582015727626" lon="14.009094142548376"><ele>390.0</ele><time>2026-04-11T15:41:11.014Z</time></trkpt><trkpt lat="45.32560046022849" lon="14.00894330486169"><ele>386.6666666666667</ele><time>2026-04-11T15:41:12.014Z</time></trkpt><trkpt lat="45.325596928796195" lon="14.008732689792556"><ele>383.33333333333337</ele><time>2026-04-11T15:41:13.014Z</time></trkpt><trkpt lat="45.32554553484022" lon="14.008545947127114"><ele>380.0</ele><time>2026-04-11T15:41:14.014Z</time></trkpt><trkpt lat="45.32547637502374" lon="14.008338253408171"><ele>381.0</ele><time>2026-04-11T15:41:15.014Z</time></trkpt><trkpt lat="45.32537209584902" lon="14.008195926750519"><ele>382.0</ele><time>2026-04-11T15:41:16.014Z</time></trkpt><trkpt lat="45.325255926436306" lon="14.008109026115013"><ele>383.0</ele><time>2026-04-11T15:41:17.014Z</time></trkpt><trkpt lat="45.325121595039825" lon="14.008073758690081"><ele>384.0</ele><time>2026-04-11T15:41:18.014Z</time></trkpt><trkpt lat="45.32496405993863" lon="14.008076376272498"><ele>384.0</ele><time>2026-04-11T15:41:19.014Z</time></trkpt><trkpt lat="45.324832580988286" lon="14.0080295558514"><ele>384.0</ele><time>2026-04-11T15:41:20.014Z</time></trkpt><trkpt lat="45.32471496567318" lon="14.007932732486108"><ele>384.0</ele><time>2026-04-11T15:41:21.014Z</time></trkpt><trkpt lat="45.32464441735628" lon="14.007764305871628"><ele>384.0</ele><time>2026-04-11T15:41:22.014Z</time></trkpt><trkpt lat="45.32453891992053" lon="14.007593137201521"><ele>386.33333333333337</ele><time>2026-04-11T15:41:23.014Z</time></trkpt><trkpt lat="45.324438718515026" lon="14.007403571926192"><ele>388.6666666666667</ele><time>2026-04-11T15:41:24.014Z</time></trkpt><trkpt lat="45.32433057305397" lon="14.00723522026906"><ele>391.0</ele><time>2026-04-11T15:41:25.014Z</time></trkpt><trkpt lat="45.32422080935109" lon="14.007092437610966"><ele>391.0</ele><time>2026-04-11T15:41:26.014Z</time></trkpt><trkpt lat="45.324119173189565" lon="14.00698299394591"><ele>391.0</ele><time>2026-04-11T15:41:27.014Z</time></trkpt><trkpt lat="45.3240179476133" lon="14.006910678576578"><ele>391.0</ele><time>2026-04-11T15:41:28.014Z</time></trkpt><trkpt lat="45.32391192886728" lon="14.006933906850522"><ele>391.0</ele><time>2026-04-11T15:41:29.014Z</time></trkpt><trkpt lat="45.32381760435266" lon="14.007031457355831"><ele>390.33333333333337</ele><time>2026-04-11T15:41:30.014Z</time></trkpt><trkpt lat="45.32374523365466" lon="14.007207208218112"><ele>389.66666666666663</ele><time>2026-04-11T15:41:31.014Z</time></trkpt><trkpt lat="45.32367823560361" lon="14.007434627635469"><ele>389.0</ele><time>2026-04-11T15:41:32.014Z</time></trkpt><trkpt lat="45.323626668340154" lon="14.00769918591522"><ele>389.0</ele><time>2026-04-11T15:41:33.014Z</time></trkpt><trkpt lat="45.32358993029448" lon="14.007924027171226"><ele>389.0</ele><time>2026-04-11T15:41:34.014Z</time></trkpt><trkpt lat="45.32355417569115" lon="14.008119091626167"><ele>389.0</ele><time>2026-04-11T15:41:35.014Z</time></trkpt><trkpt lat="45.32351649242469" lon="14.008329367087896"><ele>390.0</ele><time>2026-04-11T15:41:36.014Z</time></trkpt><trkpt lat="45.32348099189164" lon="14.008548977301833"><ele>391.0</ele><time>2026-04-11T15:41:37.014Z</time></trkpt><trkpt lat="45.32343638891448" lon="14.008774130372425"><ele>392.0</ele><time>2026-04-11T15:41:38.014Z</time></trkpt><trkpt lat="45.323385878839524" lon="14.00899698355531"><ele>397.0</ele><time>2026-04-11T15:41:39.014Z</time></trkpt><trkpt lat="45.323335880824324" lon="14.009231503419192"><ele>402.0</ele><time>2026-04-11T15:41:40.014Z</time></trkpt><trkpt lat="45.32328800351441" lon="14.009455610968155"><ele>407.0</ele><time>2026-04-11T15:41:41.014Z</time></trkpt><trkpt lat="45.32324733902331" lon="14.009668655381244"><ele>407.0</ele><time>2026-04-11T15:41:42.014Z</time></trkpt><trkpt lat="45.3232208611117" lon="14.009870596986046"><ele>407.0</ele><time>2026-04-11T15:41:43.014Z</time></trkpt><trkpt lat="45.3232098697881" lon="14.010056199768886"><ele>407.0</ele><time>2026-04-11T15:41:44.014Z</time></trkpt><trkpt lat="45.32319061028687" lon="14.010219577696045"><ele>407.0</ele><time>2026-04-11T15:41:45.014Z</time></trkpt><trkpt lat="45.32316699602479" lon="14.010364670508574"><ele>409.75</ele><time>2026-04-11T15:41:46.014Z</time></trkpt><trkpt lat="45.323087415431296" lon="14.010426683022553"><ele>412.5</ele><time>2026-04-11T15:41:47.014Z</time></trkpt><trkpt lat="45.322966491820914" lon="14.010411159631753"><ele>415.25</ele><time>2026-04-11T15:41:48.014Z</time></trkpt><trkpt lat="45.32287053090563" lon="14.010505159634928"><ele>418.0</ele><time>2026-04-11T15:41:49.014Z</time></trkpt><trkpt lat="45.32277630060682" lon="14.010624440097681"><ele>418.0</ele><time>2026-04-11T15:41:50.014Z</time></trkpt><trkpt lat="45.32270079954128" lon="14.010769398065209"><ele>418.0</ele><time>2026-04-11T15:41:51.014Z</time></trkpt><trkpt lat="45.322589712605414" lon="14.010794212219238"><ele>418.0</ele><time>2026-04-11T15:41:52.014Z</time></trkpt><trkpt lat="45.3224643672374" lon="14.010847264144608"><ele>418.0</ele><time>2026-04-11T15:41:53.014Z</time></trkpt><trkpt lat="45.32233770392753" lon="14.010862146776013"><ele>418.25</ele><time>2026-04-11T15:41:54.014Z</time></trkpt><trkpt lat="45.3222146356392" lon="14.010844733872572"><ele>418.5</ele><time>2026-04-11T15:41:55.014Z</time></trkpt><trkpt lat="45.322107611107" lon="14.010748289072556"><ele>418.75</ele><time>2026-04-11T15:41:56.014Z</time></trkpt><trkpt lat="45.3219647736048" lon="14.010661743883992"><ele>419.0</ele><time>2026-04-11T15:41:57.014Z</time></trkpt><trkpt lat="45.32180633463755" lon="14.010602481682911"><ele>418.25</ele><time>2026-04-11T15:41:58.014Z</time></trkpt><trkpt lat="45.32165155350125" lon="14.010550746981245"><ele>417.5</ele><time>2026-04-11T15:41:59.014Z</time></trkpt><trkpt lat="45.32150194443094" lon="14.01054508763092"><ele>416.75</ele><time>2026-04-11T15:42:00.014Z</time></trkpt><trkpt lat="45.3213675531973" lon="14.010574909063052"><ele>416.0</ele><time>2026-04-11T15:42:01.014Z</time></trkpt><trkpt lat="45.321259801512966" lon="14.010615634833941"><ele>416.0</ele><time>2026-04-11T15:42:02.014Z</time></trkpt><trkpt lat="45.321184444560096" lon="14.010493706535772"><ele>416.0</ele><time>2026-04-11T15:42:03.014Z</time></trkpt><trkpt lat="45.321072744359526" lon="14.010368062351608"><ele>416.0</ele><time>2026-04-11T15:42:04.014Z</time></trkpt><trkpt lat="45.320941857088016" lon="14.010241289148416"><ele>416.0</ele><time>2026-04-11T15:42:05.014Z</time></trkpt><trkpt lat="45.3208599909919" lon="14.010057878658056"><ele>410.75</ele><time>2026-04-11T15:42:06.014Z</time></trkpt><trkpt lat="45.32078842302358" lon="14.009882263431196"><ele>405.5</ele><time>2026-04-11T15:42:07.014Z</time></trkpt><trkpt lat="45.320719870167075" lon="14.009716138838707"><ele>400.25</ele><time>2026-04-11T15:42:08.014Z</time></trkpt><trkpt lat="45.32066258188653" lon="14.009564510650538"><ele>395.0</ele><time>2026-04-11T15:42:09.014Z</time></trkpt><trkpt lat="45.32057256905136" lon="14.009446288009363"><ele>399.66666666666663</ele><time>2026-04-11T15:42:10.014Z</time></trkpt><trkpt lat="45.32044492697578" lon="14.009379809397128"><ele>404.33333333333337</ele><time>2026-04-11T15:42:11.014Z</time></trkpt><trkpt lat="45.320295451004476" lon="14.009356015263606"><ele>409.0</ele><time>2026-04-11T15:42:12.014Z</time></trkpt><trkpt lat="45.32011477598225" lon="14.009345041501984"><ele>409.0</ele><time>2026-04-11T15:42:13.014Z</time></trkpt><trkpt lat="45.319947067711134" lon="14.009329434350981"><ele>409.0</ele><time>2026-04-11T15:42:14.014Z</time></trkpt><trkpt lat="45.31980015142907" lon="14.00933152231212"><ele>409.0</ele><time>2026-04-11T15:42:15.014Z</time></trkpt><trkpt lat="45.319665268864796" lon="14.009357424999457"><ele>410.5</ele><time>2026-04-11T15:42:16.014Z</time></trkpt><trkpt lat="45.31953741366512" lon="14.009381885059069"><ele>412.0</ele><time>2026-04-11T15:42:17.014Z</time></trkpt><trkpt lat="45.319424673351975" lon="14.009366168020389"><ele>413.5</ele><time>2026-04-11T15:42:18.014Z</time></trkpt><trkpt lat="45.319323431875844" lon="14.009304473535362"><ele>415.0</ele><time>2026-04-11T15:42:19.014Z</time></trkpt><trkpt lat="45.319269821362475" lon="14.009172663033695"><ele>414.0</ele><time>2026-04-11T15:42:20.014Z</time></trkpt><trkpt lat="45.31916814203985" lon="14.009044347997953"><ele>413.0</ele><time>2026-04-11T15:42:21.014Z</time></trkpt><trkpt lat="45.31908305761362" lon="14.008871416312344"><ele>412.0</ele><time>2026-04-11T15:42:22.014Z</time></trkpt><trkpt lat="45.31898694491948" lon="14.008712181902393"><ele>411.0</ele><time>2026-04-11T15:42:23.014Z</time></trkpt><trkpt lat="45.318891299639304" lon="14.008563938951417"><ele>411.0</ele><time>2026-04-11T15:42:24.014Z</time></trkpt><trkpt lat="45.318803083806316" lon="14.008423488611138"><ele>411.0</ele><time>2026-04-11T15:42:25.014Z</time></trkpt><trkpt lat="45.31871104708254" lon="14.008278430562141"><ele>411.0</ele><time>2026-04-11T15:42:26.014Z</time></trkpt><trkpt lat="45.318612766319035" lon="14.008126334358584"><ele>411.0</ele><time>2026-04-11T15:42:27.014Z</time></trkpt><trkpt lat="45.3185129698671" lon="14.007966820408994"><ele>410.0</ele><time>2026-04-11T15:42:28.015Z</time></trkpt><trkpt lat="45.318416348578495" lon="14.007814070188909"><ele>409.0</ele><time>2026-04-11T15:42:29.016Z</time></trkpt><trkpt lat="45.318321113867555" lon="14.007661686494686"><ele>408.0</ele><time>2026-04-11T15:42:30.016Z</time></trkpt><trkpt lat="45.31822862317569" lon="14.007513306587745"><ele>407.0</ele><time>2026-04-11T15:42:31.015Z</time></trkpt><trkpt lat="45.318133039112936" lon="14.007363677563026"><ele>405.75</ele><time>2026-04-11T15:42:32.016Z</time></trkpt><trkpt lat="45.318038035035535" lon="14.007214556578543"><ele>404.5</ele><time>2026-04-11T15:42:33.016Z</time></trkpt><trkpt lat="45.31794073205586" lon="14.007059046373193"><ele>403.25</ele><time>2026-04-11T15:42:34.016Z</time></trkpt><trkpt lat="45.317852518509575" lon="14.006899153351181"><ele>402.0</ele><time>2026-04-11T15:42:35.015Z</time></trkpt><trkpt lat="45.317778917199085" lon="14.006732766260596"><ele>401.25</ele><time>2026-04-11T15:42:36.015Z</time></trkpt><trkpt lat="45.31770809005819" lon="14.00655997914368"><ele>400.5</ele><time>2026-04-11T15:42:37.016Z</time></trkpt><trkpt lat="45.31763560679132" lon="14.006397001931363"><ele>399.75</ele><time>2026-04-11T15:42:38.016Z</time></trkpt><trkpt lat="45.31755835074246" lon="14.006230349059338"><ele>399.0</ele><time>2026-04-11T15:42:39.016Z</time></trkpt><trkpt lat="45.317476293717526" lon="14.006066317927877"><ele>399.0</ele><time>2026-04-11T15:42:40.016Z</time></trkpt><trkpt lat="45.31739687588173" lon="14.005904683781303"><ele>399.0</ele><time>2026-04-11T15:42:41.015Z</time></trkpt><trkpt lat="45.317305529622" lon="14.005747405471524"><ele>399.0</ele><time>2026-04-11T15:42:42.015Z</time></trkpt><trkpt lat="45.317197767378836" lon="14.005608507285464"><ele>399.0</ele><time>2026-04-11T15:42:43.015Z</time></trkpt><trkpt lat="45.3170817657234" lon="14.005497445192347"><ele>399.25</ele><time>2026-04-11T15:42:44.015Z</time></trkpt><trkpt lat="45.316950481752414" lon="14.005426867925978"><ele>399.5</ele><time>2026-04-11T15:42:45.015Z</time></trkpt><trkpt lat="45.316811562018344" lon="14.005417275708776"><ele>399.75</ele><time>2026-04-11T15:42:46.015Z</time></trkpt><trkpt lat="45.31667758151271" lon="14.005460649622577"><ele>400.0</ele><time>2026-04-11T15:42:47.015Z</time></trkpt><trkpt lat="45.316555012039395" lon="14.00553490802366"><ele>400.0</ele><time>2026-04-11T15:42:48.015Z</time></trkpt><trkpt lat="45.31643065436033" lon="14.00559879819734"><ele>400.0</ele><time>2026-04-11T15:42:49.015Z</time></trkpt><trkpt lat="45.316289303553354" lon="14.00557336827402"><ele>400.0</ele><time>2026-04-11T15:42:50.015Z</time></trkpt><trkpt lat="45.31614970512657" lon="14.005549943317911"><ele>400.0</ele><time>2026-04-11T15:42:51.015Z</time></trkpt><trkpt lat="45.316014347082486" lon="14.005515614211065"><ele>399.75</ele><time>2026-04-11T15:42:52.015Z</time></trkpt><trkpt lat="45.31589406040495" lon="14.005434344415416"><ele>399.5</ele><time>2026-04-11T15:42:53.015Z</time></trkpt><trkpt lat="45.31577324269008" lon="14.005335932833352"><ele>399.25</ele><time>2026-04-11T15:42:54.015Z</time></trkpt><trkpt lat="45.31565681296621" lon="14.005252066732792"><ele>399.0</ele><time>2026-04-11T15:42:55.015Z</time></trkpt><trkpt lat="45.31552969445984" lon="14.005222437950472"><ele>398.33333333333337</ele><time>2026-04-11T15:42:56.015Z</time></trkpt><trkpt lat="45.31538696042107" lon="14.00525542412326"><ele>397.6666666666667</ele><time>2026-04-11T15:42:57.015Z</time></trkpt><trkpt lat="45.3152329066253" lon="14.00533314388071"><ele>397.0</ele><time>2026-04-11T15:42:58.015Z</time></trkpt><trkpt lat="45.315071659389" lon="14.0053905711209"><ele>397.0</ele><time>2026-04-11T15:42:59.015Z</time></trkpt><trkpt lat="45.31491393860532" lon="14.005436295382246"><ele>397.0</ele><time>2026-04-11T15:43:00.015Z</time></trkpt><trkpt lat="45.314767139181434" lon="14.005493424636247"><ele>397.0</ele><time>2026-04-11T15:43:01.015Z</time></trkpt><trkpt lat="45.31462837119184" lon="14.005579129725069"><ele>395.75</ele><time>2026-04-11T15:43:02.016Z</time></trkpt><trkpt lat="45.31450271038005" lon="14.005684260106797"><ele>394.5</ele><time>2026-04-11T15:43:03.016Z</time></trkpt><trkpt lat="45.31438731382675" lon="14.005810606682966"><ele>393.25</ele><time>2026-04-11T15:43:04.016Z</time></trkpt><trkpt lat="45.31427217104065" lon="14.005945856470616"><ele>392.0</ele><time>2026-04-11T15:43:05.016Z</time></trkpt><trkpt lat="45.31416835356668" lon="14.006060234551851"><ele>389.25</ele><time>2026-04-11T15:43:06.016Z</time></trkpt><trkpt lat="45.314055676373734" lon="14.006128291066085"><ele>386.5</ele><time>2026-04-11T15:43:07.016Z</time></trkpt><trkpt lat="45.31392469958927" lon="14.006185793866491"><ele>383.75</ele><time>2026-04-11T15:43:08.016Z</time></trkpt><trkpt lat="45.313786329338456" lon="14.006199804802668"><ele>381.0</ele><time>2026-04-11T15:43:09.016Z</time></trkpt><trkpt lat="45.313649598129246" lon="14.006190509647972"><ele>379.5</ele><time>2026-04-11T15:43:10.016Z</time></trkpt><trkpt lat="45.31352944693986" lon="14.006113739209534"><ele>378.0</ele><time>2026-04-11T15:43:11.016Z</time></trkpt><trkpt lat="45.31344637162432" lon="14.005984184267156"><ele>376.5</ele><time>2026-04-11T15:43:12.016Z</time></trkpt><trkpt lat="45.31335095882386" lon="14.005856056412172"><ele>375.0</ele><time>2026-04-11T15:43:13.016Z</time></trkpt><trkpt lat="45.31328325431013" lon="14.005686745086939"><ele>375.0</ele><time>2026-04-11T15:43:14.016Z</time></trkpt><trkpt lat="45.31322722007412" lon="14.005496062947152"><ele>375.0</ele><time>2026-04-11T15:43:15.016Z</time></trkpt><trkpt lat="45.31316934825158" lon="14.005268027984696"><ele>375.0</ele><time>2026-04-11T15:43:16.016Z</time></trkpt><trkpt lat="45.31310612090654" lon="14.00503425075064"><ele>369.6666666666667</ele><time>2026-04-11T15:43:17.016Z</time></trkpt><trkpt lat="45.3130424736168" lon="14.00481511398183"><ele>364.33333333333337</ele><time>2026-04-11T15:43:18.016Z</time></trkpt><trkpt lat="45.31297889046911" lon="14.004613645552338"><ele>359.0</ele><time>2026-04-11T15:43:19.016Z</time></trkpt><trkpt lat="45.31291150613806" lon="14.004423886688963"><ele>359.0</ele><time>2026-04-11T15:43:20.016Z</time></trkpt><trkpt lat="45.312824285221964" lon="14.004245176966775"><ele>359.0</ele><time>2026-04-11T15:43:21.016Z</time></trkpt><trkpt lat="45.31273197304731" lon="14.004093105660576"><ele>359.0</ele><time>2026-04-11T15:43:22.016Z</time></trkpt><trkpt lat="45.312652046614026" lon="14.003944557523264"><ele>359.0</ele><time>2026-04-11T15:43:23.016Z</time></trkpt><trkpt lat="45.31258958911076" lon="14.003780340749303"><ele>359.75</ele><time>2026-04-11T15:43:24.016Z</time></trkpt><trkpt lat="45.3125636014757" lon="14.003614504699282"><ele>360.5</ele><time>2026-04-11T15:43:25.016Z</time></trkpt><trkpt lat="45.312549067004284" lon="14.003439058528752"><ele>361.25</ele><time>2026-04-11T15:43:26.016Z</time></trkpt><trkpt lat="45.31254587801668" lon="14.003281844574627"><ele>362.0</ele><time>2026-04-11T15:43:27.016Z</time></trkpt><trkpt lat="45.31254300678071" lon="14.003130388370112"><ele>363.40000000000003</ele><time>2026-04-11T15:43:28.016Z</time></trkpt><trkpt lat="45.312517805354574" lon="14.002996764295439"><ele>364.8</ele><time>2026-04-11T15:43:29.016Z</time></trkpt><trkpt lat="45.31246041589332" lon="14.002901855802971"><ele>366.2</ele><time>2026-04-11T15:43:30.016Z</time></trkpt><trkpt lat="45.31235724493236" lon="14.002878394017344"><ele>367.6</ele><time>2026-04-11T15:43:31.016Z</time></trkpt><trkpt lat="45.31227470391803" lon="14.002935291872573"><ele>369.0</ele><time>2026-04-11T15:43:32.016Z</time></trkpt><trkpt lat="45.31225194820439" lon="14.003095349185818"><ele>369.0</ele><time>2026-04-11T15:43:33.016Z</time></trkpt><trkpt lat="45.31224972799079" lon="14.003254645030033"><ele>369.0</ele><time>2026-04-11T15:43:34.016Z</time></trkpt><trkpt lat="45.31224491169677" lon="14.003409911900697"><ele>369.0</ele><time>2026-04-11T15:43:35.016Z</time></trkpt><trkpt lat="45.3122245941449" lon="14.003574836040494"><ele>369.0</ele><time>2026-04-11T15:43:36.016Z</time></trkpt><trkpt lat="45.3122053606902" lon="14.003745013768764"><ele>367.0</ele><time>2026-04-11T15:43:37.016Z</time></trkpt><trkpt lat="45.31218819947865" lon="14.003921976285087"><ele>365.0</ele><time>2026-04-11T15:43:38.016Z</time></trkpt><trkpt lat="45.31216881514432" lon="14.00410101084726"><ele>363.0</ele><time>2026-04-11T15:43:39.016Z</time></trkpt><trkpt lat="45.31215168976343" lon="14.00427888912771"><ele>361.0</ele><time>2026-04-11T15:43:40.016Z</time></trkpt><trkpt lat="45.31212910529193" lon="14.004474415305458"><ele>361.0</ele><time>2026-04-11T15:43:41.016Z</time></trkpt><trkpt lat="45.31210555497586" lon="14.004679139057714"><ele>361.0</ele><time>2026-04-11T15:43:42.016Z</time></trkpt><trkpt lat="45.31207932168003" lon="14.004874329055514"><ele>361.0</ele><time>2026-04-11T15:43:43.016Z</time></trkpt><trkpt lat="45.312052115476085" lon="14.005079860120901"><ele>361.0</ele><time>2026-04-11T15:43:44.016Z</time></trkpt><trkpt lat="45.31203095746501" lon="14.005287752087089"><ele>362.66666666666663</ele><time>2026-04-11T15:43:45.016Z</time></trkpt><trkpt lat="45.31201222064056" lon="14.005509868275334"><ele>364.3333333333333</ele><time>2026-04-11T15:43:46.016Z</time></trkpt><trkpt lat="45.31199111366374" lon="14.00574104603541"><ele>366.0</ele><time>2026-04-11T15:43:47.016Z</time></trkpt><trkpt lat="45.31196989444165" lon="14.005960277713946"><ele>366.0</ele><time>2026-04-11T15:43:48.016Z</time></trkpt><trkpt lat="45.3119430031751" lon="14.006193879969581"><ele>366.0</ele><time>2026-04-11T15:43:49.016Z</time></trkpt><trkpt lat="45.311914543867445" lon="14.006426795831821"><ele>366.0</ele><time>2026-04-11T15:43:50.016Z</time></trkpt><trkpt lat="45.3118858497079" lon="14.006661433246924"><ele>364.3333333333333</ele><time>2026-04-11T15:43:51.016Z</time></trkpt><trkpt lat="45.31186203523502" lon="14.006898810519276"><ele>362.66666666666663</ele><time>2026-04-11T15:43:52.016Z</time></trkpt><trkpt lat="45.31183248586096" lon="14.007132059585997"><ele>361.0</ele><time>2026-04-11T15:43:53.016Z</time></trkpt><trkpt lat="45.31181118954483" lon="14.00735547792917"><ele>359.3333333333333</ele><time>2026-04-11T15:43:54.016Z</time></trkpt><trkpt lat="45.31177080632455" lon="14.007572276541113"><ele>357.6666666666667</ele><time>2026-04-11T15:43:55.016Z</time></trkpt><trkpt lat="45.31172050641755" lon="14.007795957076207"><ele>356.0</ele><time>2026-04-11T15:43:56.016Z</time></trkpt><trkpt lat="45.3116658615636" lon="14.008016431821519"><ele>356.0</ele><time>2026-04-11T15:43:57.016Z</time></trkpt><trkpt lat="45.3116289899991" lon="14.008229933712753"><ele>356.0</ele><time>2026-04-11T15:43:58.016Z</time></trkpt><trkpt lat="45.311570888500434" lon="14.00842679219769"><ele>356.0</ele><time>2026-04-11T15:43:59.016Z</time></trkpt><trkpt lat="45.311488505676635" lon="14.008614398108833"><ele>358.33333333333337</ele><time>2026-04-11T15:44:00.016Z</time></trkpt><trkpt lat="45.31138389864739" lon="14.008775998082038"><ele>360.6666666666667</ele><time>2026-04-11T15:44:01.016Z</time></trkpt><trkpt lat="45.31127509160783" lon="14.008941582845376"><ele>363.0</ele><time>2026-04-11T15:44:02.016Z</time></trkpt><trkpt lat="45.31115583776013" lon="14.009122605544917"><ele>360.0</ele><time>2026-04-11T15:44:03.016Z</time></trkpt><trkpt lat="45.31104197654921" lon="14.009319638549972"><ele>357.0</ele><time>2026-04-11T15:44:04.016Z</time></trkpt><trkpt lat="45.310918728818265" lon="14.009506938045892"><ele>354.0</ele><time>2026-04-11T15:44:05.016Z</time></trkpt><trkpt lat="45.31080661851334" lon="14.009694976509945"><ele>354.0</ele><time>2026-04-11T15:44:06.016Z</time></trkpt><trkpt lat="45.31068030217591" lon="14.009855374271638"><ele>354.0</ele><time>2026-04-11T15:44:07.016Z</time></trkpt><trkpt lat="45.310562552551666" lon="14.010035519774483"><ele>354.0</ele><time>2026-04-11T15:44:08.016Z</time></trkpt><trkpt lat="45.3104587486382" lon="14.01022996478985"><ele>353.6666666666667</ele><time>2026-04-11T15:44:09.016Z</time></trkpt><trkpt lat="45.31035302717207" lon="14.010395623024015"><ele>353.33333333333337</ele><time>2026-04-11T15:44:10.016Z</time></trkpt><trkpt lat="45.31023160636379" lon="14.010541797932909"><ele>353.0</ele><time>2026-04-11T15:44:11.016Z</time></trkpt><trkpt lat="45.31011590198313" lon="14.010685739309423"><ele>353.0</ele><time>2026-04-11T15:44:12.016Z</time></trkpt><trkpt lat="45.30998807570905" lon="14.01078910453597"><ele>353.0</ele><time>2026-04-11T15:44:13.016Z</time></trkpt><trkpt lat="45.30982423134774" lon="14.010886669247407"><ele>353.0</ele><time>2026-04-11T15:44:14.016Z</time></trkpt><trkpt lat="45.30966664898928" lon="14.01100920670047"><ele>351.0</ele><time>2026-04-11T15:44:15.016Z</time></trkpt><trkpt lat="45.30951276200141" lon="14.011095151469167"><ele>349.0</ele><time>2026-04-11T15:44:16.016Z</time></trkpt><trkpt lat="45.30936859596269" lon="14.011184431761636"><ele>347.0</ele><time>2026-04-11T15:44:17.016Z</time></trkpt><trkpt lat="45.30922093258258" lon="14.011233402126999"><ele>347.0</ele><time>2026-04-11T15:44:18.016Z</time></trkpt><trkpt lat="45.30908594392094" lon="14.011275313573083"><ele>347.0</ele><time>2026-04-11T15:44:19.016Z</time></trkpt><trkpt lat="45.30895227155755" lon="14.011281989176766"><ele>347.0</ele><time>2026-04-11T15:44:20.016Z</time></trkpt><trkpt lat="45.30880474844813" lon="14.011262682017138"><ele>347.0</ele><time>2026-04-11T15:44:21.016Z</time></trkpt><trkpt lat="45.30866709789647" lon="14.011290205343439"><ele>347.5</ele><time>2026-04-11T15:44:22.016Z</time></trkpt><trkpt lat="45.308557034752134" lon="14.011311354885828"><ele>348.0</ele><time>2026-04-11T15:44:23.016Z</time></trkpt><trkpt lat="45.30847114308462" lon="14.011415390454976"><ele>348.5</ele><time>2026-04-11T15:44:24.016Z</time></trkpt><trkpt lat="45.30842477829887" lon="14.011568442708265"><ele>349.0</ele><time>2026-04-11T15:44:25.016Z</time></trkpt><trkpt lat="45.30839219046131" lon="14.011811758494995"><ele>346.75</ele><time>2026-04-11T15:44:26.016Z</time></trkpt><trkpt lat="45.30838049403585" lon="14.012019897951774"><ele>344.5</ele><time>2026-04-11T15:44:27.016Z</time></trkpt><trkpt lat="45.30837829179338" lon="14.012227376300228"><ele>342.25</ele><time>2026-04-11T15:44:28.016Z</time></trkpt><trkpt lat="45.308357793344264" lon="14.012392506476058"><ele>340.0</ele><time>2026-04-11T15:44:29.016Z</time></trkpt><trkpt lat="45.308294058311965" lon="14.012540120821088"><ele>339.3333333333333</ele><time>2026-04-11T15:44:30.016Z</time></trkpt><trkpt lat="45.30821533401046" lon="14.012701614912555"><ele>338.6666666666667</ele><time>2026-04-11T15:44:31.016Z</time></trkpt><trkpt lat="45.30812772156075" lon="14.012898017487391"><ele>338.0</ele><time>2026-04-11T15:44:32.016Z</time></trkpt><trkpt lat="45.308026858693424" lon="14.013061940683613"><ele>340.0</ele><time>2026-04-11T15:44:33.018Z</time></trkpt><trkpt lat="45.307930083592375" lon="14.013236945072988"><ele>342.0</ele><time>2026-04-11T15:44:34.018Z</time></trkpt><trkpt lat="45.307838614856614" lon="14.013414424764145"><ele>344.0</ele><time>2026-04-11T15:44:35.018Z</time></trkpt><trkpt lat="45.307759268406336" lon="14.01358366477332"><ele>344.0</ele><time>2026-04-11T15:44:36.018Z</time></trkpt><trkpt lat="45.307681798757095" lon="14.013732612552241"><ele>344.0</ele><time>2026-04-11T15:44:37.017Z</time></trkpt><trkpt lat="45.307582734155446" lon="14.013835162824037"><ele>344.0</ele><time>2026-04-11T15:44:38.017Z</time></trkpt><trkpt lat="45.30748158704462" lon="14.01391710415515"><ele>344.0</ele><time>2026-04-11T15:44:39.018Z</time></trkpt><trkpt lat="45.307352018240714" lon="14.013946160015324"><ele>346.33333333333337</ele><time>2026-04-11T15:44:40.017Z</time></trkpt><trkpt lat="45.30719224067458" lon="14.01400929483963"><ele>348.6666666666667</ele><time>2026-04-11T15:44:41.017Z</time></trkpt><trkpt lat="45.30704790721558" lon="14.014067523134138"><ele>351.0</ele><time>2026-04-11T15:44:42.017Z</time></trkpt><trkpt lat="45.30690777565377" lon="14.014180592563124"><ele>347.5</ele><time>2026-04-11T15:44:43.018Z</time></trkpt><trkpt lat="45.30679887856592" lon="14.014345094519674"><ele>344.0</ele><time>2026-04-11T15:44:44.018Z</time></trkpt><trkpt lat="45.306692110433495" lon="14.014491875212386"><ele>340.5</ele><time>2026-04-11T15:44:45.018Z</time></trkpt><trkpt lat="45.30657092875883" lon="14.014549441125128"><ele>337.0</ele><time>2026-04-11T15:44:46.018Z</time></trkpt><trkpt lat="45.30642862411546" lon="14.014609238082105"><ele>337.66666666666663</ele><time>2026-04-11T15:44:47.018Z</time></trkpt><trkpt lat="45.30628494748349" lon="14.01463902038192"><ele>338.3333333333333</ele><time>2026-04-11T15:44:48.018Z</time></trkpt><trkpt lat="45.3061265308992" lon="14.014684199907666"><ele>339.0</ele><time>2026-04-11T15:44:49.018Z</time></trkpt><trkpt lat="45.305963892977516" lon="14.01471430261341"><ele>339.0</ele><time>2026-04-11T15:44:50.018Z</time></trkpt><trkpt lat="45.305785300070234" lon="14.014752891219576"><ele>339.0</ele><time>2026-04-11T15:44:51.018Z</time></trkpt><trkpt lat="45.3056207184517" lon="14.014765736793393"><ele>339.0</ele><time>2026-04-11T15:44:52.018Z</time></trkpt><trkpt lat="45.305448856889974" lon="14.014766014914663"><ele>337.3333333333333</ele><time>2026-04-11T15:44:53.018Z</time></trkpt><trkpt lat="45.305280171302726" lon="14.014735320271935"><ele>335.66666666666663</ele><time>2026-04-11T15:44:54.018Z</time></trkpt><trkpt lat="45.30511527364282" lon="14.014751715897464"><ele>334.0</ele><time>2026-04-11T15:44:55.018Z</time></trkpt><trkpt lat="45.30496031869096" lon="14.014745458159238"><ele>334.0</ele><time>2026-04-11T15:44:56.018Z</time></trkpt><trkpt lat="45.30479933146139" lon="14.014760395237879"><ele>334.0</ele><time>2026-04-11T15:44:57.018Z</time></trkpt><trkpt lat="45.30464416457426" lon="14.014770828426121"><ele>334.0</ele><time>2026-04-11T15:44:58.018Z</time></trkpt><trkpt lat="45.304489162329816" lon="14.014765234559652"><ele>332.66666666666663</ele><time>2026-04-11T15:44:59.018Z</time></trkpt><trkpt lat="45.30434356832575" lon="14.014698903468647"><ele>331.3333333333333</ele><time>2026-04-11T15:45:00.018Z</time></trkpt><trkpt lat="45.3041982888826" lon="14.014620469365006"><ele>330.0</ele><time>2026-04-11T15:45:01.017Z</time></trkpt><trkpt lat="45.30404994935945" lon="14.014552684978032"><ele>330.3333333333333</ele><time>2026-04-11T15:45:02.017Z</time></trkpt><trkpt lat="45.30388629610867" lon="14.01451540149851"><ele>330.66666666666663</ele><time>2026-04-11T15:45:03.017Z</time></trkpt><trkpt lat="45.303715457315334" lon="14.014524717817835"><ele>331.0</ele><time>2026-04-11T15:45:04.017Z</time></trkpt><trkpt lat="45.30354265868525" lon="14.014578923251653"><ele>331.0</ele><time>2026-04-11T15:45:05.017Z</time></trkpt><trkpt lat="45.30336852739119" lon="14.014643605080677"><ele>331.0</ele><time>2026-04-11T15:45:06.017Z</time></trkpt><trkpt lat="45.303206325248155" lon="14.01469241041434"><ele>331.0</ele><time>2026-04-11T15:45:07.017Z</time></trkpt><trkpt lat="45.30304899511656" lon="14.014743899403033"><ele>329.0</ele><time>2026-04-11T15:45:08.017Z</time></trkpt><trkpt lat="45.30290940245797" lon="14.014802401799386"><ele>327.0</ele><time>2026-04-11T15:45:09.017Z</time></trkpt><trkpt lat="45.30277676160588" lon="14.014888877059452"><ele>325.0</ele><time>2026-04-11T15:45:10.017Z</time></trkpt><trkpt lat="45.30264513837202" lon="14.014999106161044"><ele>323.0</ele><time>2026-04-11T15:45:11.017Z</time></trkpt><trkpt lat="45.30251960875609" lon="14.015094187849591"><ele>323.0</ele><time>2026-04-11T15:45:12.017Z</time></trkpt><trkpt lat="45.30239612134582" lon="14.015182169778338"><ele>323.0</ele><time>2026-04-11T15:45:13.017Z</time></trkpt><trkpt lat="45.302274129441756" lon="14.015172537669853"><ele>323.0</ele><time>2026-04-11T15:45:14.017Z</time></trkpt><trkpt lat="45.3021303445901" lon="14.015121680552532"><ele>323.0</ele><time>2026-04-11T15:45:15.017Z</time></trkpt><trkpt lat="45.30196060810557" lon="14.015082137422421"><ele>322.6666666666667</ele><time>2026-04-11T15:45:16.017Z</time></trkpt><trkpt lat="45.30178942950004" lon="14.015066260344122"><ele>322.3333333333333</ele><time>2026-04-11T15:45:17.017Z</time></trkpt><trkpt lat="45.301599816221994" lon="14.01507087535029"><ele>322.0</ele><time>2026-04-11T15:45:18.017Z</time></trkpt><trkpt lat="45.30139913709873" lon="14.015114592516417"><ele>319.3333333333333</ele><time>2026-04-11T15:45:19.017Z</time></trkpt><trkpt lat="45.301221384301805" lon="14.015151403192174"><ele>316.6666666666667</ele><time>2026-04-11T15:45:20.017Z</time></trkpt><trkpt lat="45.30103396120553" lon="14.01521309479201"><ele>314.0</ele><time>2026-04-11T15:45:21.017Z</time></trkpt><trkpt lat="45.30084135285568" lon="14.01528817265514"><ele>314.0</ele><time>2026-04-11T15:45:22.017Z</time></trkpt><trkpt lat="45.30064921027947" lon="14.015356351841243"><ele>314.0</ele><time>2026-04-11T15:45:23.017Z</time></trkpt><trkpt lat="45.300456709370685" lon="14.015424203579501"><ele>314.0</ele><time>2026-04-11T15:45:24.017Z</time></trkpt><trkpt lat="45.30025802693135" lon="14.015514154783796"><ele>314.33333333333337</ele><time>2026-04-11T15:45:25.017Z</time></trkpt><trkpt lat="45.30005832957497" lon="14.015610700229669"><ele>314.6666666666667</ele><time>2026-04-11T15:45:26.017Z</time></trkpt><trkpt lat="45.2998663321983" lon="14.015690257496681"><ele>315.0</ele><time>2026-04-11T15:45:27.017Z</time></trkpt><trkpt lat="45.29968019454488" lon="14.015727288791828"><ele>315.0</ele><time>2026-04-11T15:45:28.017Z</time></trkpt><trkpt lat="45.29951052417421" lon="14.01574423299026"><ele>315.0</ele><time>2026-04-11T15:45:29.017Z</time></trkpt><trkpt lat="45.29934285247941" lon="14.015743914833712"><ele>315.0</ele><time>2026-04-11T15:45:30.017Z</time></trkpt><trkpt lat="45.29917752358548" lon="14.015743914834106"><ele>315.0</ele><time>2026-04-11T15:45:31.017Z</time></trkpt><trkpt lat="45.29901189899676" lon="14.015756237605004"><ele>315.0</ele><time>2026-04-11T15:45:32.017Z</time></trkpt><trkpt lat="45.29884286523106" lon="14.015760824852206"><ele>315.0</ele><time>2026-04-11T15:45:33.017Z</time></trkpt><trkpt lat="45.29867512415474" lon="14.015758365296069"><ele>313.6666666666667</ele><time>2026-04-11T15:45:34.017Z</time></trkpt><trkpt lat="45.298508258869084" lon="14.01575230384766"><ele>312.33333333333337</ele><time>2026-04-11T15:45:35.017Z</time></trkpt><trkpt lat="45.298347604905324" lon="14.01574969879727"><ele>311.0</ele><time>2026-04-11T15:45:36.017Z</time></trkpt><trkpt lat="45.29819369488623" lon="14.015748010307151"><ele>311.0</ele><time>2026-04-11T15:45:37.017Z</time></trkpt><trkpt lat="45.29805648001823" lon="14.015740385426888"><ele>311.0</ele><time>2026-04-11T15:45:38.017Z</time></trkpt><trkpt lat="45.29791364615476" lon="14.015738263576836"><ele>311.0</ele><time>2026-04-11T15:45:39.017Z</time></trkpt><trkpt lat="45.29777593982651" lon="14.0157318353403"><ele>311.0</ele><time>2026-04-11T15:45:40.017Z</time></trkpt><trkpt lat="45.297636318608085" lon="14.015732854747494"><ele>311.0</ele><time>2026-04-11T15:45:41.017Z</time></trkpt><trkpt lat="45.29749471840184" lon="14.015724895634328"><ele>311.0</ele><time>2026-04-11T15:45:42.017Z</time></trkpt><trkpt lat="45.297358175333905" lon="14.01572700159566"><ele>311.0</ele><time>2026-04-11T15:45:43.017Z</time></trkpt><trkpt lat="45.29721810452371" lon="14.015717091538066"><ele>311.0</ele><time>2026-04-11T15:45:44.017Z</time></trkpt><trkpt lat="45.297075055661516" lon="14.01571202755175"><ele>310.75</ele><time>2026-04-11T15:45:45.017Z</time></trkpt><trkpt lat="45.29693088613627" lon="14.015708888777846"><ele>310.5</ele><time>2026-04-11T15:45:46.017Z</time></trkpt><trkpt lat="45.296781231427865" lon="14.015707864219877"><ele>310.25</ele><time>2026-04-11T15:45:47.017Z</time></trkpt><trkpt lat="45.29663171823166" lon="14.01570792970636"><ele>310.0</ele><time>2026-04-11T15:45:48.017Z</time></trkpt><trkpt lat="45.29647656627488" lon="14.015708192326606"><ele>309.66666666666663</ele><time>2026-04-11T15:45:49.017Z</time></trkpt><trkpt lat="45.29632317017098" lon="14.015706637076955"><ele>309.3333333333333</ele><time>2026-04-11T15:45:50.017Z</time></trkpt><trkpt lat="45.29616529286332" lon="14.015701485833894"><ele>309.0</ele><time>2026-04-11T15:45:51.017Z</time></trkpt><trkpt lat="45.296014243848745" lon="14.015696782933222"><ele>309.0</ele><time>2026-04-11T15:45:52.017Z</time></trkpt><trkpt lat="45.29585760368304" lon="14.01569777728045"><ele>309.0</ele><time>2026-04-11T15:45:53.017Z</time></trkpt><trkpt lat="45.295701586538094" lon="14.015696956099639"><ele>309.0</ele><time>2026-04-11T15:45:54.017Z</time></trkpt><trkpt lat="45.29554205897748" lon="14.015695072557284"><ele>307.3333333333333</ele><time>2026-04-11T15:45:55.017Z</time></trkpt><trkpt lat="45.29538236410853" lon="14.015694460473604"><ele>305.66666666666663</ele><time>2026-04-11T15:45:56.017Z</time></trkpt><trkpt lat="45.29521957382228" lon="14.015692361434143"><ele>304.0</ele><time>2026-04-11T15:45:57.017Z</time></trkpt><trkpt lat="45.29505212285863" lon="14.015689584326852"><ele>304.0</ele><time>2026-04-11T15:45:58.017Z</time></trkpt><trkpt lat="45.29488884670437" lon="14.015679855121013"><ele>304.0</ele><time>2026-04-11T15:45:59.017Z</time></trkpt><trkpt lat="45.29472740288539" lon="14.01563763810777"><ele>304.0</ele><time>2026-04-11T15:46:00.017Z</time></trkpt><trkpt lat="45.29457306983709" lon="14.015574096895406"><ele>302.3333333333333</ele><time>2026-04-11T15:46:01.017Z</time></trkpt><trkpt lat="45.29442245167069" lon="14.015498949224101"><ele>300.6666666666667</ele><time>2026-04-11T15:46:02.017Z</time></trkpt><trkpt lat="45.2942659197169" lon="14.015418983955563"><ele>299.0</ele><time>2026-04-11T15:46:03.017Z</time></trkpt><trkpt lat="45.294116817139574" lon="14.015341445158775"><ele>299.0</ele><time>2026-04-11T15:46:04.017Z</time></trkpt><trkpt lat="45.29396724888265" lon="14.015263306663615"><ele>299.0</ele><time>2026-04-11T15:46:05.017Z</time></trkpt><trkpt lat="45.29382553453989" lon="14.0151884171118"><ele>299.0</ele><time>2026-04-11T15:46:06.017Z</time></trkpt><trkpt lat="45.29368434281924" lon="14.015111845765134"><ele>299.75</ele><time>2026-04-11T15:46:07.017Z</time></trkpt><trkpt lat="45.29354410863619" lon="14.015036819051002"><ele>300.5</ele><time>2026-04-11T15:46:08.017Z</time></trkpt><trkpt lat="45.293408031223976" lon="14.014960070597153"><ele>301.25</ele><time>2026-04-11T15:46:09.017Z</time></trkpt><trkpt lat="45.29327560908414" lon="14.014884938384844"><ele>302.0</ele><time>2026-04-11T15:46:10.017Z</time></trkpt><trkpt lat="45.293143418598746" lon="14.014809937697066"><ele>301.25</ele><time>2026-04-11T15:46:11.017Z</time></trkpt><trkpt lat="45.29301033379689" lon="14.014734429471732"><ele>300.5</ele><time>2026-04-11T15:46:12.017Z</time></trkpt><trkpt lat="45.29287533033804" lon="14.01465689533553"><ele>299.75</ele><time>2026-04-11T15:46:13.017Z</time></trkpt><trkpt lat="45.292741087548244" lon="14.014579427690437"><ele>299.0</ele><time>2026-04-11T15:46:14.017Z</time></trkpt><trkpt lat="45.29260345186036" lon="14.01450000210437"><ele>299.0</ele><time>2026-04-11T15:46:15.017Z</time></trkpt><trkpt lat="45.2924631929402" lon="14.014418254648776"><ele>299.0</ele><time>2026-04-11T15:46:16.017Z</time></trkpt><trkpt lat="45.292315305142694" lon="14.014355206693137"><ele>299.0</ele><time>2026-04-11T15:46:17.017Z</time></trkpt><trkpt lat="45.29217251948883" lon="14.01426960384729"><ele>297.33333333333337</ele><time>2026-04-11T15:46:18.017Z</time></trkpt><trkpt lat="45.2920273360703" lon="14.01419249845628"><ele>295.6666666666667</ele><time>2026-04-11T15:46:19.017Z</time></trkpt><trkpt lat="45.2918885591932" lon="14.014095816394198"><ele>294.0</ele><time>2026-04-11T15:46:20.017Z</time></trkpt><trkpt lat="45.291739004203734" lon="14.014026490026252"><ele>298.0</ele><time>2026-04-11T15:46:21.017Z</time></trkpt><trkpt lat="45.29158393603017" lon="14.013961091674084"><ele>302.0</ele><time>2026-04-11T15:46:22.017Z</time></trkpt><trkpt lat="45.291425003935025" lon="14.013921230695667"><ele>306.0</ele><time>2026-04-11T15:46:23.017Z</time></trkpt><trkpt lat="45.29125265880887" lon="14.013923614120062"><ele>311.0</ele><time>2026-04-11T15:46:24.017Z</time></trkpt><trkpt lat="45.291078053136395" lon="14.013936763266244"><ele>316.0</ele><time>2026-04-11T15:46:25.017Z</time></trkpt><trkpt lat="45.290898191079854" lon="14.013940252260175"><ele>321.0</ele><time>2026-04-11T15:46:26.017Z</time></trkpt><trkpt lat="45.29071056669795" lon="14.013947169839058"><ele>323.3333333333333</ele><time>2026-04-11T15:46:27.017Z</time></trkpt><trkpt lat="45.2905293894258" lon="14.013989672690812"><ele>325.66666666666663</ele><time>2026-04-11T15:46:28.017Z</time></trkpt><trkpt lat="45.29034608308273" lon="14.014068944674388"><ele>328.0</ele><time>2026-04-11T15:46:29.017Z</time></trkpt><trkpt lat="45.29016168223603" lon="14.014143155773901"><ele>319.3333333333333</ele><time>2026-04-11T15:46:30.017Z</time></trkpt><trkpt lat="45.28997915921865" lon="14.014212424822384"><ele>310.6666666666667</ele><time>2026-04-11T15:46:31.017Z</time></trkpt><trkpt lat="45.28978619225467" lon="14.014252930844274"><ele>302.0</ele><time>2026-04-11T15:46:32.017Z</time></trkpt><trkpt lat="45.2896030377414" lon="14.014277523332261"><ele>302.0</ele><time>2026-04-11T15:46:33.017Z</time></trkpt><trkpt lat="45.28941604705185" lon="14.014299439185915"><ele>302.0</ele><time>2026-04-11T15:46:34.017Z</time></trkpt><trkpt lat="45.289239648298384" lon="14.01432284815544"><ele>302.0</ele><time>2026-04-11T15:46:35.017Z</time></trkpt><trkpt lat="45.28906906568317" lon="14.014341655508186"><ele>302.0</ele><time>2026-04-11T15:46:36.018Z</time></trkpt><trkpt lat="45.28890523551013" lon="14.014358755629361"><ele>302.0</ele><time>2026-04-11T15:46:37.018Z</time></trkpt><trkpt lat="45.288745994070595" lon="14.014384329640894"><ele>302.0</ele><time>2026-04-11T15:46:38.018Z</time></trkpt><trkpt lat="45.288587223532396" lon="14.014414931005765"><ele>302.0</ele><time>2026-04-11T15:46:39.019Z</time></trkpt><trkpt lat="45.2884258755035" lon="14.014437895144038"><ele>302.0</ele><time>2026-04-11T15:46:40.019Z</time></trkpt><trkpt lat="45.28826131056428" lon="14.01446937060314"><ele>302.0</ele><time>2026-04-11T15:46:41.019Z</time></trkpt><trkpt lat="45.288098247276345" lon="14.014447938883775"><ele>299.6666666666667</ele><time>2026-04-11T15:46:42.019Z</time></trkpt><trkpt lat="45.28794156369563" lon="14.01439326222651"><ele>297.3333333333333</ele><time>2026-04-11T15:46:43.02Z</time></trkpt><trkpt lat="45.287795764360176" lon="14.014325900548341"><ele>295.0</ele><time>2026-04-11T15:46:44.02Z</time></trkpt><trkpt lat="45.28763505590369" lon="14.014283089749457"><ele>295.0</ele><time>2026-04-11T15:46:45.02Z</time></trkpt><trkpt lat="45.2874713620392" lon="14.014258841924862"><ele>295.0</ele><time>2026-04-11T15:46:46.019Z</time></trkpt><trkpt lat="45.28729848912765" lon="14.014300065500711"><ele>295.0</ele><time>2026-04-11T15:46:47.019Z</time></trkpt><trkpt lat="45.28713071699786" lon="14.014387909868436"><ele>297.66666666666663</ele><time>2026-04-11T15:46:48.019Z</time></trkpt><trkpt lat="45.286954716968076" lon="14.014463299341749"><ele>300.3333333333333</ele><time>2026-04-11T15:46:49.019Z</time></trkpt><trkpt lat="45.28679134933334" lon="14.01452560602381"><ele>303.0</ele><time>2026-04-11T15:46:50.019Z</time></trkpt><trkpt lat="45.28662053980713" lon="14.014599372076999"><ele>303.0</ele><time>2026-04-11T15:46:51.019Z</time></trkpt><trkpt lat="45.286452039553005" lon="14.014670971274365"><ele>303.0</ele><time>2026-04-11T15:46:52.019Z</time></trkpt><trkpt lat="45.28627138175156" lon="14.014758211273886"><ele>303.0</ele><time>2026-04-11T15:46:53.019Z</time></trkpt><trkpt lat="45.286093422765035" lon="14.014830906109182"><ele>301.3333333333333</ele><time>2026-04-11T15:46:54.019Z</time></trkpt><trkpt lat="45.28592532144395" lon="14.014884038607365"><ele>299.66666666666663</ele><time>2026-04-11T15:46:55.019Z</time></trkpt><trkpt lat="45.28575204496323" lon="14.014943631958456"><ele>298.0</ele><time>2026-04-11T15:46:56.019Z</time></trkpt><trkpt lat="45.28558094035553" lon="14.015017290960936"><ele>298.0</ele><time>2026-04-11T15:46:57.019Z</time></trkpt><trkpt lat="45.285409233754024" lon="14.01509147114727"><ele>298.0</ele><time>2026-04-11T15:46:58.019Z</time></trkpt><trkpt lat="45.285239235669124" lon="14.015161057285885"><ele>298.0</ele><time>2026-04-11T15:46:59.019Z</time></trkpt><trkpt lat="45.28506403408767" lon="14.015222269518713"><ele>298.0</ele><time>2026-04-11T15:47:00.019Z</time></trkpt><trkpt lat="45.28488760361236" lon="14.015266010167272"><ele>298.0</ele><time>2026-04-11T15:47:01.019Z</time></trkpt><trkpt lat="45.28470071456552" lon="14.015267726774345"><ele>298.0</ele><time>2026-04-11T15:47:02.019Z</time></trkpt><trkpt lat="45.28451131691538" lon="14.015287421046985"><ele>299.66666666666663</ele><time>2026-04-11T15:47:03.019Z</time></trkpt><trkpt lat="45.2843261551722" lon="14.015318104275403"><ele>301.3333333333333</ele><time>2026-04-11T15:47:04.019Z</time></trkpt><trkpt lat="45.284136090456535" lon="14.015354148677403"><ele>303.0</ele><time>2026-04-11T15:47:05.019Z</time></trkpt><trkpt lat="45.28395329918398" lon="14.015394709791105"><ele>303.6666666666667</ele><time>2026-04-11T15:47:06.019Z</time></trkpt><trkpt lat="45.28376242529941" lon="14.01545343268245"><ele>304.33333333333337</ele><time>2026-04-11T15:47:07.019Z</time></trkpt><trkpt lat="45.28357921221049" lon="14.015456331354725"><ele>305.0</ele><time>2026-04-11T15:47:08.019Z</time></trkpt><trkpt lat="45.28338738291004" lon="14.015467513969243"><ele>305.0</ele><time>2026-04-11T15:47:09.019Z</time></trkpt><trkpt lat="45.28320956392627" lon="14.015508037398693"><ele>305.0</ele><time>2026-04-11T15:47:10.019Z</time></trkpt><trkpt lat="45.283047367072655" lon="14.01558958123935"><ele>305.0</ele><time>2026-04-11T15:47:11.019Z</time></trkpt><trkpt lat="45.282876941742586" lon="14.015652187774894"><ele>308.6666666666667</ele><time>2026-04-11T15:47:12.019Z</time></trkpt><trkpt lat="45.282710428535594" lon="14.015722523448984"><ele>312.3333333333333</ele><time>2026-04-11T15:47:13.019Z</time></trkpt><trkpt lat="45.282553090067154" lon="14.015734520728605"><ele>316.0</ele><time>2026-04-11T15:47:14.019Z</time></trkpt><trkpt lat="45.282394915485035" lon="14.015706862405382"><ele>317.66666666666663</ele><time>2026-04-11T15:47:15.019Z</time></trkpt><trkpt lat="45.28220660541237" lon="14.01568151295329"><ele>319.3333333333333</ele><time>2026-04-11T15:47:16.019Z</time></trkpt><trkpt lat="45.28202620070682" lon="14.015661214816738"><ele>321.0</ele><time>2026-04-11T15:47:17.019Z</time></trkpt><trkpt lat="45.281855599037634" lon="14.015666902549814"><ele>321.0</ele><time>2026-04-11T15:47:18.019Z</time></trkpt><trkpt lat="45.281684411870586" lon="14.015635498009543"><ele>321.0</ele><time>2026-04-11T15:47:19.019Z</time></trkpt><trkpt lat="45.28150760926085" lon="14.015668821585965"><ele>321.0</ele><time>2026-04-11T15:47:20.019Z</time></trkpt><trkpt lat="45.28133551914786" lon="14.015724438022849"><ele>317.0</ele><time>2026-04-11T15:47:21.019Z</time></trkpt><trkpt lat="45.28117113898742" lon="14.01579770709132"><ele>313.0</ele><time>2026-04-11T15:47:22.019Z</time></trkpt><trkpt lat="45.28101002690386" lon="14.015856166149488"><ele>309.0</ele><time>2026-04-11T15:47:23.019Z</time></trkpt><trkpt lat="45.280846365325225" lon="14.015892642327136"><ele>305.0</ele><time>2026-04-11T15:47:24.019Z</time></trkpt><trkpt lat="45.28071666827962" lon="14.015907552818845"><ele>301.0</ele><time>2026-04-11T15:47:25.019Z</time></trkpt><trkpt lat="45.28059968571381" lon="14.01594384188964"><ele>297.0</ele><time>2026-04-11T15:47:26.019Z</time></trkpt><trkpt lat="45.28048140421085" lon="14.016080029779651"><ele>293.0</ele><time>2026-04-11T15:47:27.019Z</time></trkpt><trkpt lat="45.280372716817745" lon="14.016233605059"><ele>292.2</ele><time>2026-04-11T15:47:28.019Z</time></trkpt><trkpt lat="45.28026801768881" lon="14.016379085257308"><ele>291.4</ele><time>2026-04-11T15:47:29.019Z</time></trkpt><trkpt lat="45.28017747227091" lon="14.016509858222895"><ele>290.59999999999997</ele><time>2026-04-11T15:47:30.019Z</time></trkpt><trkpt lat="45.280102614580784" lon="14.016595211040448"><ele>289.8</ele><time>2026-04-11T15:47:31.019Z</time></trkpt><trkpt lat="45.28003285313384" lon="14.01663949679201"><ele>289.0</ele><time>2026-04-11T15:47:32.019Z</time></trkpt><trkpt lat="45.279967540461726" lon="14.016641973645598"><ele>289.0</ele><time>2026-04-11T15:47:33.019Z</time></trkpt><trkpt lat="45.27990497043941" lon="14.01662608566458"><ele>289.0</ele><time>2026-04-11T15:47:34.019Z</time></trkpt><trkpt lat="45.27984291359125" lon="14.016573133982922"><ele>289.0</ele><time>2026-04-11T15:47:36.019Z</time></trkpt><trkpt lat="45.27977712583629" lon="14.016475530573627"><ele>289.0</ele><time>2026-04-11T15:48:56.022Z</time></trkpt><trkpt lat="45.27973400587854" lon="14.01639911273228"><ele>289.0</ele><time>2026-04-11T15:48:57.022Z</time></trkpt><trkpt lat="45.27969375074496" lon="14.016315909709215"><ele>289.0</ele><time>2026-04-11T15:48:58.022Z</time></trkpt><trkpt lat="45.2796493668316" lon="14.016200107713345"><ele>288.25</ele><time>2026-04-11T15:48:59.022Z</time></trkpt><trkpt lat="45.27959880778385" lon="14.016066390315649"><ele>287.5</ele><time>2026-04-11T15:49:00.022Z</time></trkpt><trkpt lat="45.27954360836145" lon="14.01591799049794"><ele>286.75</ele><time>2026-04-11T15:49:01.022Z</time></trkpt><trkpt lat="45.27948816625957" lon="14.015773347613896"><ele>286.0</ele><time>2026-04-11T15:49:02.022Z</time></trkpt><trkpt lat="45.27942243182773" lon="14.015613063089996"><ele>286.0</ele><time>2026-04-11T15:49:03.022Z</time></trkpt><trkpt lat="45.27935288126061" lon="14.015438162154897"><ele>286.0</ele><time>2026-04-11T15:49:04.022Z</time></trkpt><trkpt lat="45.279285818465716" lon="14.01524462798773"><ele>286.0</ele><time>2026-04-11T15:49:05.022Z</time></trkpt><trkpt lat="45.27924383017119" lon="14.015049539907434"><ele>286.0</ele><time>2026-04-11T15:49:06.022Z</time></trkpt><trkpt lat="45.27921179015971" lon="14.014849010180033"><ele>286.75</ele><time>2026-04-11T15:49:07.022Z</time></trkpt><trkpt lat="45.279184639432316" lon="14.014654839657538"><ele>287.5</ele><time>2026-04-11T15:49:08.022Z</time></trkpt><trkpt lat="45.27916407390407" lon="14.014470483575366"><ele>288.25</ele><time>2026-04-11T15:49:09.022Z</time></trkpt><trkpt lat="45.279136545949385" lon="14.014294930838586"><ele>289.0</ele><time>2026-04-11T15:49:10.022Z</time></trkpt><trkpt lat="45.27909752163343" lon="14.014134841778782"><ele>288.59999999999997</ele><time>2026-04-11T15:49:11.022Z</time></trkpt><trkpt lat="45.27903035122196" lon="14.014015370396253"><ele>288.2</ele><time>2026-04-11T15:49:12.022Z</time></trkpt><trkpt lat="45.27894099201315" lon="14.013926651260523"><ele>287.79999999999995</ele><time>2026-04-11T15:49:13.022Z</time></trkpt><trkpt lat="45.278843416533924" lon="14.013848642558221"><ele>287.4</ele><time>2026-04-11T15:49:14.022Z</time></trkpt><trkpt lat="45.27875441715352" lon="14.013758274802303"><ele>287.0</ele><time>2026-04-11T15:49:15.022Z</time></trkpt><trkpt lat="45.278671592746385" lon="14.013640518531036"><ele>287.0</ele><time>2026-04-11T15:49:16.022Z</time></trkpt><trkpt lat="45.278589249016406" lon="14.013541815074957"><ele>287.0</ele><time>2026-04-11T15:49:17.022Z</time></trkpt><trkpt lat="45.27849700032344" lon="14.013444180093883"><ele>287.0</ele><time>2026-04-11T15:49:18.022Z</time></trkpt><trkpt lat="45.27840619501897" lon="14.013319476526181"><ele>287.0</ele><time>2026-04-11T15:49:19.022Z</time></trkpt><trkpt lat="45.27831096803721" lon="14.013206425978355"><ele>286.25</ele><time>2026-04-11T15:49:20.022Z</time></trkpt><trkpt lat="45.27822360323927" lon="14.013087784839728"><ele>285.5</ele><time>2026-04-11T15:49:21.022Z</time></trkpt><trkpt lat="45.27813817856459" lon="14.012970137650768"><ele>284.75</ele><time>2026-04-11T15:49:22.022Z</time></trkpt><trkpt lat="45.278057173862855" lon="14.012854993536058"><ele>284.0</ele><time>2026-04-11T15:49:23.022Z</time></trkpt><trkpt lat="45.27797232795658" lon="14.012736738859251"><ele>284.0</ele><time>2026-04-11T15:49:24.022Z</time></trkpt><trkpt lat="45.27789106212929" lon="14.01261719019299"><ele>284.0</ele><time>2026-04-11T15:49:25.022Z</time></trkpt><trkpt lat="45.27781485559478" lon="14.012500393109862"><ele>284.0</ele><time>2026-04-11T15:49:26.022Z</time></trkpt><trkpt lat="45.277742132370655" lon="14.012399135183454"><ele>284.0</ele><time>2026-04-11T15:49:27.022Z</time></trkpt><trkpt lat="45.27768342065261" lon="14.012340587280944"><ele>284.0</ele><time>2026-04-11T15:49:28.022Z</time></trkpt><trkpt lat="45.277611462198514" lon="14.012300196952069"><ele>284.33333333333337</ele><time>2026-04-11T15:49:30.022Z</time></trkpt><trkpt lat="45.27762389150208" lon="14.012199514956526"><ele>284.6666666666667</ele><time>2026-04-11T15:49:31.022Z</time></trkpt><trkpt lat="45.27755642798328" lon="14.012078880032862"><ele>285.0</ele><time>2026-04-11T15:49:33.022Z</time></trkpt><trkpt lat="45.27749599363306" lon="14.012010376854708"><ele>285.3333333333333</ele><time>2026-04-11T15:49:34.022Z</time></trkpt><trkpt lat="45.2774256118826" lon="14.011937243202665"><ele>285.66666666666663</ele><time>2026-04-11T15:49:35.022Z</time></trkpt><trkpt lat="45.27734212112576" lon="14.011871597196915"><ele>286.0</ele><time>2026-04-11T15:49:36.022Z</time></trkpt><trkpt lat="45.27724650249315" lon="14.011808060523265"><ele>286.0</ele><time>2026-04-11T15:49:37.022Z</time></trkpt><trkpt lat="45.277141627069014" lon="14.01173667985319"><ele>286.0</ele><time>2026-04-11T15:49:38.022Z</time></trkpt><trkpt lat="45.27703503084391" lon="14.011664200952525"><ele>286.0</ele><time>2026-04-11T15:49:39.022Z</time></trkpt><trkpt lat="45.27692447981662" lon="14.011593972003753"><ele>286.0</ele><time>2026-04-11T15:49:40.022Z</time></trkpt><trkpt lat="45.276805320251604" lon="14.011550166767043"><ele>287.5</ele><time>2026-04-11T15:49:41.022Z</time></trkpt><trkpt lat="45.27668860646133" lon="14.0114913986008"><ele>289.0</ele><time>2026-04-11T15:49:42.022Z</time></trkpt><trkpt lat="45.276565292556256" lon="14.011452757736896"><ele>290.5</ele><time>2026-04-11T15:49:43.022Z</time></trkpt><trkpt lat="45.276450273822576" lon="14.011417768630468"><ele>292.0</ele><time>2026-04-11T15:49:44.022Z</time></trkpt><trkpt lat="45.27634994706064" lon="14.01137230608463"><ele>292.0</ele><time>2026-04-11T15:49:45.022Z</time></trkpt><trkpt lat="45.27628586443871" lon="14.011280540861236"><ele>292.0</ele><time>2026-04-11T15:49:46.022Z</time></trkpt><trkpt lat="45.27622863707548" lon="14.011212313608786"><ele>292.0</ele><time>2026-04-11T15:49:47.022Z</time></trkpt><trkpt lat="45.276215715878784" lon="14.01110153534309"><ele>292.0</ele><time>2026-04-11T15:49:48.022Z</time></trkpt><trkpt lat="45.276185491038696" lon="14.010980924817957"><ele>292.0</ele><time>2026-04-11T15:49:49.022Z</time></trkpt><trkpt lat="45.276135193849015" lon="14.010888935395084"><ele>292.0</ele><time>2026-04-11T15:49:50.022Z</time></trkpt><trkpt lat="45.27594404935746" lon="14.01080243406735"><ele>291.0</ele><time>2026-04-11T15:49:52.022Z</time></trkpt><trkpt lat="45.27583795030487" lon="14.010770609614385"><ele>290.0</ele><time>2026-04-11T15:49:53.022Z</time></trkpt><trkpt lat="45.275749254829094" lon="14.01071353279034"><ele>289.0</ele><time>2026-04-11T15:49:54.022Z</time></trkpt><trkpt lat="45.27566177830569" lon="14.010667068908552"><ele>288.0</ele><time>2026-04-11T15:49:55.022Z</time></trkpt><trkpt lat="45.27559192770249" lon="14.010577211685606"><ele>287.0</ele><time>2026-04-11T15:49:56.022Z</time></trkpt><trkpt lat="45.27552428710763" lon="14.010462019953387"><ele>286.0</ele><time>2026-04-11T15:49:57.022Z</time></trkpt><trkpt lat="45.27546856797839" lon="14.010331614121515"><ele>285.0</ele><time>2026-04-11T15:49:58.022Z</time></trkpt><trkpt lat="45.275407778194406" lon="14.010215656187466"><ele>284.0</ele><time>2026-04-11T15:49:59.022Z</time></trkpt><trkpt lat="45.27535085572675" lon="14.010171783100413"><ele>283.0</ele><time>2026-04-11T15:50:00.022Z</time></trkpt><trkpt lat="45.27532184601711" lon="14.01004239350058"><ele>282.0</ele><time>2026-04-11T15:50:03.022Z</time></trkpt><trkpt lat="45.27533661964659" lon="14.009839208939027"><ele>281.25</ele><time>2026-04-11T15:50:05.022Z</time></trkpt><trkpt lat="45.27535459400476" lon="14.009691729203936"><ele>280.5</ele><time>2026-04-11T15:50:06.022Z</time></trkpt><trkpt lat="45.27538450700559" lon="14.0095396718338"><ele>279.75</ele><time>2026-04-11T15:50:07.022Z</time></trkpt><trkpt lat="45.275427151940626" lon="14.009357628554003"><ele>279.0</ele><time>2026-04-11T15:50:08.022Z</time></trkpt><trkpt lat="45.27547541271184" lon="14.009173555224855"><ele>279.2</ele><time>2026-04-11T15:50:09.022Z</time></trkpt><trkpt lat="45.27552146258351" lon="14.009006101643752"><ele>279.4</ele><time>2026-04-11T15:50:10.022Z</time></trkpt><trkpt lat="45.275551774433545" lon="14.00885548495329"><ele>279.6</ele><time>2026-04-11T15:50:11.022Z</time></trkpt><trkpt lat="45.27555646381417" lon="14.008705989472787"><ele>279.8</ele><time>2026-04-11T15:50:12.022Z</time></trkpt><trkpt lat="45.275510203991054" lon="14.008569358047597"><ele>280.0</ele><time>2026-04-11T15:50:13.022Z</time></trkpt><trkpt lat="45.27541528103079" lon="14.008459033275571"><ele>280.0</ele><time>2026-04-11T15:50:14.022Z</time></trkpt><trkpt lat="45.275290044452134" lon="14.00838278481634"><ele>280.0</ele><time>2026-04-11T15:50:15.022Z</time></trkpt><trkpt lat="45.27514921247952" lon="14.008315019135908"><ele>280.0</ele><time>2026-04-11T15:50:16.022Z</time></trkpt><trkpt lat="45.275012795054785" lon="14.008236042650502"><ele>280.0</ele><time>2026-04-11T15:50:17.022Z</time></trkpt><trkpt lat="45.27487204628104" lon="14.008151789367776"><ele>280.66666666666663</ele><time>2026-04-11T15:50:18.022Z</time></trkpt><trkpt lat="45.274727855030925" lon="14.008060742504831"><ele>281.3333333333333</ele><time>2026-04-11T15:50:19.022Z</time></trkpt><trkpt lat="45.27457533968912" lon="14.007967814752657"><ele>282.0</ele><time>2026-04-11T15:50:20.022Z</time></trkpt><trkpt lat="45.274419412364004" lon="14.007874528107308"><ele>282.0</ele><time>2026-04-11T15:50:21.022Z</time></trkpt><trkpt lat="45.27426039110883" lon="14.007776931343036"><ele>282.0</ele><time>2026-04-11T15:50:22.022Z</time></trkpt><trkpt lat="45.274096444972606" lon="14.007672864885516"><ele>282.0</ele><time>2026-04-11T15:50:23.022Z</time></trkpt><trkpt lat="45.273931744947575" lon="14.007565903504618"><ele>281.6666666666667</ele><time>2026-04-11T15:50:24.022Z</time></trkpt><trkpt lat="45.273770901995114" lon="14.007471712075981"><ele>281.33333333333337</ele><time>2026-04-11T15:50:25.022Z</time></trkpt><trkpt lat="45.2736087996894" lon="14.007381719808137"><ele>281.0</ele><time>2026-04-11T15:50:26.022Z</time></trkpt><trkpt lat="45.27343925738257" lon="14.007300708023655"><ele>281.0</ele><time>2026-04-11T15:50:27.022Z</time></trkpt><trkpt lat="45.2732706795978" lon="14.007218218329697"><ele>281.0</ele><time>2026-04-11T15:50:28.022Z</time></trkpt><trkpt lat="45.27309968344817" lon="14.007133256330727"><ele>281.0</ele><time>2026-04-11T15:50:29.022Z</time></trkpt><trkpt lat="45.27293048955193" lon="14.007044336847443"><ele>280.33333333333337</ele><time>2026-04-11T15:50:30.022Z</time></trkpt><trkpt lat="45.27275361177666" lon="14.006952364876966"><ele>279.6666666666667</ele><time>2026-04-11T15:50:31.022Z</time></trkpt><trkpt lat="45.27257490025592" lon="14.006856911964881"><ele>279.0</ele><time>2026-04-11T15:50:32.022Z</time></trkpt><trkpt lat="45.27239268364048" lon="14.006760055936608"><ele>279.6666666666667</ele><time>2026-04-11T15:50:33.022Z</time></trkpt><trkpt lat="45.272208771458956" lon="14.006662959721451"><ele>280.33333333333337</ele><time>2026-04-11T15:50:34.022Z</time></trkpt><trkpt lat="45.272023609585624" lon="14.00656496471091"><ele>281.0</ele><time>2026-04-11T15:50:35.022Z</time></trkpt><trkpt lat="45.271846862282395" lon="14.006458005324241"><ele>281.0</ele><time>2026-04-11T15:50:36.022Z</time></trkpt><trkpt lat="45.271690548402255" lon="14.006317799609265"><ele>281.0</ele><time>2026-04-11T15:50:37.022Z</time></trkpt><trkpt lat="45.27154680364907" lon="14.006148524753044"><ele>281.0</ele><time>2026-04-11T15:50:38.022Z</time></trkpt><trkpt lat="45.271410914230216" lon="14.005958405864387"><ele>279.6666666666667</ele><time>2026-04-11T15:50:39.022Z</time></trkpt><trkpt lat="45.27127616704084" lon="14.005765786838017"><ele>278.3333333333333</ele><time>2026-04-11T15:50:40.022Z</time></trkpt><trkpt lat="45.27113716233364" lon="14.005566550251903"><ele>277.0</ele><time>2026-04-11T15:50:41.022Z</time></trkpt><trkpt lat="45.270989094132766" lon="14.005366943543052"><ele>277.0</ele><time>2026-04-11T15:50:42.022Z</time></trkpt><trkpt lat="45.270839630855384" lon="14.005162690782258"><ele>277.0</ele><time>2026-04-11T15:50:43.022Z</time></trkpt><trkpt lat="45.27069659106994" lon="14.004968010709208"><ele>277.0</ele><time>2026-04-11T15:50:44.022Z</time></trkpt><trkpt lat="45.270554830035714" lon="14.00477357192321"><ele>277.0</ele><time>2026-04-11T15:50:45.022Z</time></trkpt><trkpt lat="45.270409830802585" lon="14.004579853734423"><ele>277.0</ele><time>2026-04-11T15:50:46.022Z</time></trkpt><trkpt lat="45.27026834761047" lon="14.004387066637252"><ele>277.0</ele><time>2026-04-11T15:50:47.022Z</time></trkpt><trkpt lat="45.27012636147739" lon="14.00419556854092"><ele>278.0</ele><time>2026-04-11T15:50:48.022Z</time></trkpt><trkpt lat="45.26998546318685" lon="14.004006079223002"><ele>279.0</ele><time>2026-04-11T15:50:49.022Z</time></trkpt><trkpt lat="45.26984874482321" lon="14.003814517414659"><ele>280.0</ele><time>2026-04-11T15:50:50.022Z</time></trkpt><trkpt lat="45.26972155337468" lon="14.003619105442022"><ele>280.66666666666663</ele><time>2026-04-11T15:50:51.024Z</time></trkpt><trkpt lat="45.26960653789778" lon="14.00341700848794"><ele>281.3333333333333</ele><time>2026-04-11T15:50:52.024Z</time></trkpt><trkpt lat="45.26952210270517" lon="14.003194452608252"><ele>282.0</ele><time>2026-04-11T15:50:53.024Z</time></trkpt><trkpt lat="45.269462097085814" lon="14.00296291457404"><ele>284.0</ele><time>2026-04-11T15:50:54.024Z</time></trkpt><trkpt lat="45.26940968495212" lon="14.002744341423362"><ele>286.0</ele><time>2026-04-11T15:50:55.024Z</time></trkpt><trkpt lat="45.26934933430801" lon="14.002526030406738"><ele>288.0</ele><time>2026-04-11T15:50:56.024Z</time></trkpt><trkpt lat="45.26926810827571" lon="14.002308276096295"><ele>287.6666666666667</ele><time>2026-04-11T15:50:57.024Z</time></trkpt><trkpt lat="45.2691678994463" lon="14.002088961290163"><ele>287.33333333333337</ele><time>2026-04-11T15:50:58.024Z</time></trkpt><trkpt lat="45.26905090713565" lon="14.001866347663716"><ele>287.0</ele><time>2026-04-11T15:50:59.024Z</time></trkpt><trkpt lat="45.26892727757537" lon="14.001645101736452"><ele>287.0</ele><time>2026-04-11T15:51:00.024Z</time></trkpt><trkpt lat="45.26880029537583" lon="14.001425340518862"><ele>287.0</ele><time>2026-04-11T15:51:01.024Z</time></trkpt><trkpt lat="45.268671525034655" lon="14.001198294143382"><ele>287.0</ele><time>2026-04-11T15:51:02.024Z</time></trkpt><trkpt lat="45.26854083001725" lon="14.00096439778335"><ele>288.0</ele><time>2026-04-11T15:51:03.024Z</time></trkpt><trkpt lat="45.26840740751258" lon="14.000730201453427"><ele>289.0</ele><time>2026-04-11T15:51:04.025Z</time></trkpt><trkpt lat="45.268276190018696" lon="14.000505975043133"><ele>290.0</ele><time>2026-04-11T15:51:05.025Z</time></trkpt><trkpt lat="45.268140954868336" lon="14.000282285397553"><ele>288.33333333333337</ele><time>2026-04-11T15:51:06.025Z</time></trkpt><trkpt lat="45.267994621745565" lon="14.000067793378008"><ele>286.6666666666667</ele><time>2026-04-11T15:51:07.025Z</time></trkpt><trkpt lat="45.26784060465451" lon="13.999863299934924"><ele>285.0</ele><time>2026-04-11T15:51:08.025Z</time></trkpt><trkpt lat="45.26768590635746" lon="13.999657431346318"><ele>285.0</ele><time>2026-04-11T15:51:09.025Z</time></trkpt><trkpt lat="45.26753094177905" lon="13.999447479398592"><ele>285.0</ele><time>2026-04-11T15:51:10.025Z</time></trkpt><trkpt lat="45.267376933888976" lon="13.999235698648329"><ele>285.0</ele><time>2026-04-11T15:51:11.025Z</time></trkpt><trkpt lat="45.26722880698672" lon="13.999029580062084"><ele>284.6666666666667</ele><time>2026-04-11T15:51:12.025Z</time></trkpt><trkpt lat="45.26709242024937" lon="13.998841970728188"><ele>284.33333333333337</ele><time>2026-04-11T15:51:13.025Z</time></trkpt><trkpt lat="45.266959381757516" lon="13.998678419039244"><ele>284.0</ele><time>2026-04-11T15:51:14.025Z</time></trkpt><trkpt lat="45.26682110880089" lon="13.998553673631813"><ele>284.0</ele><time>2026-04-11T15:51:15.025Z</time></trkpt><trkpt lat="45.26668188184622" lon="13.998452861803429"><ele>284.0</ele><time>2026-04-11T15:51:16.025Z</time></trkpt><trkpt lat="45.266553634669236" lon="13.998350953830894"><ele>284.0</ele><time>2026-04-11T15:51:17.025Z</time></trkpt><trkpt lat="45.26645974715469" lon="13.99819957463559"><ele>284.0</ele><time>2026-04-11T15:51:18.025Z</time></trkpt><trkpt lat="45.2663501749339" lon="13.998056802633828"><ele>283.6666666666667</ele><time>2026-04-11T15:51:19.025Z</time></trkpt><trkpt lat="45.266252615379976" lon="13.997874229945188"><ele>283.3333333333333</ele><time>2026-04-11T15:51:20.025Z</time></trkpt><trkpt lat="45.26614840586102" lon="13.99768950390054"><ele>283.0</ele><time>2026-04-11T15:51:21.025Z</time></trkpt><trkpt lat="45.266031912724806" lon="13.997502783019847"><ele>281.3333333333333</ele><time>2026-04-11T15:51:22.025Z</time></trkpt><trkpt lat="45.265908257686725" lon="13.9972943854201"><ele>279.6666666666667</ele><time>2026-04-11T15:51:23.025Z</time></trkpt><trkpt lat="45.26578926560902" lon="13.997089992445483"><ele>278.0</ele><time>2026-04-11T15:51:24.025Z</time></trkpt><trkpt lat="45.26566215337363" lon="13.996875730768448"><ele>276.0</ele><time>2026-04-11T15:51:25.025Z</time></trkpt><trkpt lat="45.265541572157545" lon="13.996657027749752"><ele>274.0</ele><time>2026-04-11T15:51:26.025Z</time></trkpt><trkpt lat="45.26542857959731" lon="13.996431670610205"><ele>272.0</ele><time>2026-04-11T15:51:27.025Z</time></trkpt><trkpt lat="45.26532457013884" lon="13.996207928567815"><ele>272.0</ele><time>2026-04-11T15:51:28.025Z</time></trkpt><trkpt lat="45.26522909696276" lon="13.995976277658233"><ele>272.0</ele><time>2026-04-11T15:51:29.025Z</time></trkpt><trkpt lat="45.26513705969744" lon="13.995754657914581"><ele>272.0</ele><time>2026-04-11T15:51:30.025Z</time></trkpt><trkpt lat="45.26504809635399" lon="13.995557937365758"><ele>272.0</ele><time>2026-04-11T15:51:31.025Z</time></trkpt><trkpt lat="45.26494911289495" lon="13.995390618335568"><ele>272.0</ele><time>2026-04-11T15:51:32.025Z</time></trkpt><trkpt lat="45.26484120491043" lon="13.995257191469564"><ele>272.0</ele><time>2026-04-11T15:51:33.025Z</time></trkpt><trkpt lat="45.26471984353021" lon="13.99516559656467"><ele>272.0</ele><time>2026-04-11T15:51:34.025Z</time></trkpt><trkpt lat="45.2645929925881" lon="13.99509802177208"><ele>271.5</ele><time>2026-04-11T15:51:35.025Z</time></trkpt><trkpt lat="45.264463465318215" lon="13.995049911440606"><ele>271.0</ele><time>2026-04-11T15:51:36.025Z</time></trkpt><trkpt lat="45.2643495278446" lon="13.994984694260419"><ele>270.5</ele><time>2026-04-11T15:51:37.025Z</time></trkpt><trkpt lat="45.264256514446494" lon="13.994888287643857"><ele>270.0</ele><time>2026-04-11T15:51:38.025Z</time></trkpt><trkpt lat="45.26419780508718" lon="13.994740528513377"><ele>272.5</ele><time>2026-04-11T15:51:39.025Z</time></trkpt><trkpt lat="45.26419944406296" lon="13.994560992724768"><ele>275.0</ele><time>2026-04-11T15:51:40.025Z</time></trkpt><trkpt lat="45.264188813592554" lon="13.994381909559634"><ele>277.5</ele><time>2026-04-11T15:51:41.025Z</time></trkpt><trkpt lat="45.26415278271355" lon="13.99419420963361"><ele>280.0</ele><time>2026-04-11T15:51:42.025Z</time></trkpt><trkpt lat="45.26406939438615" lon="13.994021779389866"><ele>281.66666666666663</ele><time>2026-04-11T15:51:43.025Z</time></trkpt><trkpt lat="45.26396794530033" lon="13.993855065639625"><ele>283.3333333333333</ele><time>2026-04-11T15:51:44.025Z</time></trkpt><trkpt lat="45.26384304755624" lon="13.993708475287239"><ele>285.0</ele><time>2026-04-11T15:51:45.025Z</time></trkpt><trkpt lat="45.26370255287047" lon="13.993595539567155"><ele>285.0</ele><time>2026-04-11T15:51:46.025Z</time></trkpt><trkpt lat="45.263570066791566" lon="13.993511449591038"><ele>285.0</ele><time>2026-04-11T15:51:47.025Z</time></trkpt><trkpt lat="45.26345304435901" lon="13.993435251900733"><ele>285.0</ele><time>2026-04-11T15:51:48.025Z</time></trkpt><trkpt lat="45.26334363299552" lon="13.993364168593292"><ele>285.0</ele><time>2026-04-11T15:51:49.025Z</time></trkpt><trkpt lat="45.26324851356555" lon="13.993282478988638"><ele>285.0</ele><time>2026-04-11T15:51:50.025Z</time></trkpt><trkpt lat="45.26317734875192" lon="13.993194016139485"><ele>285.0</ele><time>2026-04-11T15:51:51.025Z</time></trkpt><trkpt lat="45.26310731022267" lon="13.993088666208815"><ele>285.0</ele><time>2026-04-11T15:51:52.025Z</time></trkpt><trkpt lat="45.26304566467974" lon="13.992986271457506"><ele>285.0</ele><time>2026-04-11T15:51:53.025Z</time></trkpt><trkpt lat="45.262997799819445" lon="13.992874729309028"><ele>285.0</ele><time>2026-04-11T15:51:54.025Z</time></trkpt><trkpt lat="45.2629467483834" lon="13.992753311689226"><ele>284.25</ele><time>2026-04-11T15:51:55.025Z</time></trkpt><trkpt lat="45.262898761656785" lon="13.992626858721199"><ele>283.5</ele><time>2026-04-11T15:51:56.025Z</time></trkpt><trkpt lat="45.26284284471082" lon="13.992485453318722"><ele>282.75</ele><time>2026-04-11T15:51:57.025Z</time></trkpt><trkpt lat="45.26277620932919" lon="13.992339379080962"><ele>282.0</ele><time>2026-04-11T15:51:58.025Z</time></trkpt><trkpt lat="45.2627286191439" lon="13.99216952235866"><ele>282.0</ele><time>2026-04-11T15:51:59.025Z</time></trkpt><trkpt lat="45.26265929491839" lon="13.992001103691546"><ele>282.0</ele><time>2026-04-11T15:52:00.025Z</time></trkpt><trkpt lat="45.26260686501908" lon="13.991813953935571"><ele>282.0</ele><time>2026-04-11T15:52:01.025Z</time></trkpt><trkpt lat="45.26255163903702" lon="13.991620765464146"><ele>282.0</ele><time>2026-04-11T15:52:02.025Z</time></trkpt><trkpt lat="45.26249189820961" lon="13.991423031107136"><ele>281.0</ele><time>2026-04-11T15:52:03.025Z</time></trkpt><trkpt lat="45.26242856451586" lon="13.99121663685341"><ele>280.0</ele><time>2026-04-11T15:52:04.025Z</time></trkpt><trkpt lat="45.262364382030825" lon="13.991010275676848"><ele>279.0</ele><time>2026-04-11T15:52:05.025Z</time></trkpt><trkpt lat="45.26229378798585" lon="13.99080907015445"><ele>276.3333333333333</ele><time>2026-04-11T15:52:06.025Z</time></trkpt><trkpt lat="45.26221309531781" lon="13.990615440136995"><ele>273.66666666666663</ele><time>2026-04-11T15:52:07.025Z</time></trkpt><trkpt lat="45.262107412537446" lon="13.990451069739468"><ele>271.0</ele><time>2026-04-11T15:52:08.025Z</time></trkpt><trkpt lat="45.26198038835794" lon="13.990325932212867"><ele>271.0</ele><time>2026-04-11T15:52:09.025Z</time></trkpt><trkpt lat="45.261836292670914" lon="13.990224149038006"><ele>271.0</ele><time>2026-04-11T15:52:10.025Z</time></trkpt><trkpt lat="45.26169525326757" lon="13.990129428347664"><ele>271.0</ele><time>2026-04-11T15:52:11.025Z</time></trkpt><trkpt lat="45.26155563863672" lon="13.99003754215491"><ele>271.66666666666663</ele><time>2026-04-11T15:52:12.025Z</time></trkpt><trkpt lat="45.26141338223703" lon="13.989962826220708"><ele>272.3333333333333</ele><time>2026-04-11T15:52:13.025Z</time></trkpt><trkpt lat="45.26126767741011" lon="13.989933108349376"><ele>273.0</ele><time>2026-04-11T15:52:14.025Z</time></trkpt><trkpt lat="45.26110534201077" lon="13.98995821977475"><ele>273.0</ele><time>2026-04-11T15:52:15.025Z</time></trkpt><trkpt lat="45.26094094268099" lon="13.989986129846608"><ele>273.0</ele><time>2026-04-11T15:52:16.025Z</time></trkpt><trkpt lat="45.2607811598463" lon="13.989976031124447"><ele>273.0</ele><time>2026-04-11T15:52:17.025Z</time></trkpt><trkpt lat="45.26063112921857" lon="13.989934763445072"><ele>271.6666666666667</ele><time>2026-04-11T15:52:18.025Z</time></trkpt><trkpt lat="45.26048347616978" lon="13.989857712324074"><ele>270.33333333333337</ele><time>2026-04-11T15:52:19.025Z</time></trkpt><trkpt lat="45.26036446049375" lon="13.989720877468462"><ele>269.0</ele><time>2026-04-11T15:52:20.025Z</time></trkpt><trkpt lat="45.26023360769002" lon="13.98961324593624"><ele>269.0</ele><time>2026-04-11T15:52:21.025Z</time></trkpt><trkpt lat="45.26011488170303" lon="13.989481244340391"><ele>269.0</ele><time>2026-04-11T15:52:22.025Z</time></trkpt><trkpt lat="45.25998715135425" lon="13.989380804215546"><ele>269.0</ele><time>2026-04-11T15:52:23.025Z</time></trkpt><trkpt lat="45.25985011935893" lon="13.989285388951945"><ele>269.0</ele><time>2026-04-11T15:52:24.025Z</time></trkpt><trkpt lat="45.25971605469544" lon="13.989186203776482"><ele>268.33333333333337</ele><time>2026-04-11T15:52:25.025Z</time></trkpt><trkpt lat="45.259581185152655" lon="13.989082194432102"><ele>267.6666666666667</ele><time>2026-04-11T15:52:26.025Z</time></trkpt><trkpt lat="45.25945419616728" lon="13.988943806259137"><ele>267.0</ele><time>2026-04-11T15:52:27.025Z</time></trkpt><trkpt lat="45.25935213775851" lon="13.98879021165366"><ele>267.0</ele><time>2026-04-11T15:52:28.025Z</time></trkpt><trkpt lat="45.25925497067764" lon="13.988626477481244"><ele>267.0</ele><time>2026-04-11T15:52:29.025Z</time></trkpt><trkpt lat="45.25915142101065" lon="13.988436471572069"><ele>267.0</ele><time>2026-04-11T15:52:30.025Z</time></trkpt><trkpt lat="45.25904675152206" lon="13.988248552698069"><ele>266.6666666666667</ele><time>2026-04-11T15:52:31.025Z</time></trkpt><trkpt lat="45.25894150476748" lon="13.98805283132875"><ele>266.33333333333337</ele><time>2026-04-11T15:52:32.025Z</time></trkpt><trkpt lat="45.25883659034971" lon="13.987853833036139"><ele>266.0</ele><time>2026-04-11T15:52:33.025Z</time></trkpt><trkpt lat="45.258732059393225" lon="13.987651795547462"><ele>265.6666666666667</ele><time>2026-04-11T15:52:34.025Z</time></trkpt><trkpt lat="45.25862668721131" lon="13.987440966980396"><ele>265.3333333333333</ele><time>2026-04-11T15:52:35.025Z</time></trkpt><trkpt lat="45.25852708778299" lon="13.987216680081131"><ele>265.0</ele><time>2026-04-11T15:52:36.025Z</time></trkpt><trkpt lat="45.258445032967636" lon="13.986978527821107"><ele>265.0</ele><time>2026-04-11T15:52:37.025Z</time></trkpt><trkpt lat="45.258375416963965" lon="13.986729467685949"><ele>265.0</ele><time>2026-04-11T15:52:38.025Z</time></trkpt><trkpt lat="45.25831896360108" lon="13.98647914875662"><ele>265.0</ele><time>2026-04-11T15:52:39.025Z</time></trkpt><trkpt lat="45.258277179316" lon="13.986230899685964"><ele>265.66666666666663</ele><time>2026-04-11T15:52:40.025Z</time></trkpt><trkpt lat="45.258257539647076" lon="13.985983363475173"><ele>266.3333333333333</ele><time>2026-04-11T15:52:41.025Z</time></trkpt><trkpt lat="45.258265141103045" lon="13.985725165226386"><ele>267.0</ele><time>2026-04-11T15:52:42.025Z</time></trkpt><trkpt lat="45.258257517883635" lon="13.985457527603067"><ele>267.3333333333333</ele><time>2026-04-11T15:52:43.025Z</time></trkpt><trkpt lat="45.25825675875187" lon="13.985198490944097"><ele>267.66666666666663</ele><time>2026-04-11T15:52:44.025Z</time></trkpt><trkpt lat="45.25822971824634" lon="13.984951521800362"><ele>268.0</ele><time>2026-04-11T15:52:45.025Z</time></trkpt><trkpt lat="45.25813611162583" lon="13.984745322172458"><ele>266.66666666666663</ele><time>2026-04-11T15:52:46.025Z</time></trkpt><trkpt lat="45.25802726699646" lon="13.984540109377665"><ele>265.3333333333333</ele><time>2026-04-11T15:52:47.025Z</time></trkpt><trkpt lat="45.25786990123266" lon="13.984379975082295"><ele>264.0</ele><time>2026-04-11T15:52:48.025Z</time></trkpt><trkpt lat="45.25770619933879" lon="13.984232806628066"><ele>264.3333333333333</ele><time>2026-04-11T15:52:49.025Z</time></trkpt><trkpt lat="45.25754051750228" lon="13.984094401706033"><ele>264.66666666666663</ele><time>2026-04-11T15:52:50.025Z</time></trkpt><trkpt lat="45.25737218967867" lon="13.98393887601971"><ele>265.0</ele><time>2026-04-11T15:52:51.025Z</time></trkpt><trkpt lat="45.2572039026013" lon="13.98378130525016"><ele>265.0</ele><time>2026-04-11T15:52:52.025Z</time></trkpt><trkpt lat="45.257032249938426" lon="13.98361693588224"><ele>265.0</ele><time>2026-04-11T15:52:53.025Z</time></trkpt><trkpt lat="45.25686461804002" lon="13.983453616793861"><ele>265.0</ele><time>2026-04-11T15:52:54.025Z</time></trkpt><trkpt lat="45.25671153028309" lon="13.983282221410335"><ele>266.0</ele><time>2026-04-11T15:52:55.025Z</time></trkpt><trkpt lat="45.25657063696775" lon="13.983083318127463"><ele>267.0</ele><time>2026-04-11T15:52:56.025Z</time></trkpt><trkpt lat="45.25642721200558" lon="13.982874456318076"><ele>268.0</ele><time>2026-04-11T15:52:57.027Z</time></trkpt><trkpt lat="45.25627767105907" lon="13.982678491956914"><ele>267.3333333333333</ele><time>2026-04-11T15:52:58.027Z</time></trkpt><trkpt lat="45.25611110970846" lon="13.982527745552845"><ele>266.6666666666667</ele><time>2026-04-11T15:52:59.027Z</time></trkpt><trkpt lat="45.2559353895989" lon="13.982405902958268"><ele>266.0</ele><time>2026-04-11T15:53:00.027Z</time></trkpt><trkpt lat="45.25576667682664" lon="13.982254198836264"><ele>266.0</ele><time>2026-04-11T15:53:01.027Z</time></trkpt><trkpt lat="45.25562094545382" lon="13.982053522221543"><ele>266.0</ele><time>2026-04-11T15:53:02.027Z</time></trkpt><trkpt lat="45.25548095816541" lon="13.98183981115239"><ele>266.0</ele><time>2026-04-11T15:53:03.026Z</time></trkpt><trkpt lat="45.255349934715014" lon="13.981620709263694"><ele>265.0</ele><time>2026-04-11T15:53:04.027Z</time></trkpt><trkpt lat="45.255224559075835" lon="13.981397364492988"><ele>264.0</ele><time>2026-04-11T15:53:05.027Z</time></trkpt><trkpt lat="45.2551010075294" lon="13.981176078011487"><ele>263.0</ele><time>2026-04-11T15:53:06.027Z</time></trkpt><trkpt lat="45.25496892363949" lon="13.980973373678088"><ele>263.33333333333337</ele><time>2026-04-11T15:53:07.027Z</time></trkpt><trkpt lat="45.25481641537468" lon="13.980797251008116"><ele>263.6666666666667</ele><time>2026-04-11T15:53:08.027Z</time></trkpt><trkpt lat="45.25465944692069" lon="13.980643435333844"><ele>264.0</ele><time>2026-04-11T15:53:09.027Z</time></trkpt><trkpt lat="45.25449546228012" lon="13.980498750458949"><ele>264.0</ele><time>2026-04-11T15:53:10.027Z</time></trkpt><trkpt lat="45.25434743689357" lon="13.980336342613084"><ele>264.0</ele><time>2026-04-11T15:53:11.027Z</time></trkpt><trkpt lat="45.25423260156305" lon="13.98012849128783"><ele>264.0</ele><time>2026-04-11T15:53:12.027Z</time></trkpt><trkpt lat="45.254111165064785" lon="13.9799274643607"><ele>264.0</ele><time>2026-04-11T15:53:13.027Z</time></trkpt><trkpt lat="45.254018700329866" lon="13.979681186531762"><ele>264.0</ele><time>2026-04-11T15:53:14.027Z</time></trkpt><trkpt lat="45.25391896364714" lon="13.979443661149588"><ele>264.0</ele><time>2026-04-11T15:53:15.027Z</time></trkpt><trkpt lat="45.253811348221994" lon="13.9792055356047"><ele>264.3333333333333</ele><time>2026-04-11T15:53:16.027Z</time></trkpt><trkpt lat="45.25370705972718" lon="13.97896948732124"><ele>264.66666666666663</ele><time>2026-04-11T15:53:17.027Z</time></trkpt><trkpt lat="45.253613674052346" lon="13.978733745686531"><ele>265.0</ele><time>2026-04-11T15:53:18.027Z</time></trkpt><trkpt lat="45.25352283053981" lon="13.97850180332106"><ele>267.66666666666663</ele><time>2026-04-11T15:53:19.027Z</time></trkpt><trkpt lat="45.25343113097696" lon="13.978281312323327"><ele>270.3333333333333</ele><time>2026-04-11T15:53:20.027Z</time></trkpt><trkpt lat="45.25333938331245" lon="13.97806794019448"><ele>273.0</ele><time>2026-04-11T15:53:21.027Z</time></trkpt><trkpt lat="45.25325481662123" lon="13.977860848545784"><ele>273.0</ele><time>2026-04-11T15:53:22.027Z</time></trkpt><trkpt lat="45.25316935395134" lon="13.977659173032679"><ele>273.0</ele><time>2026-04-11T15:53:23.027Z</time></trkpt><trkpt lat="45.25308683503894" lon="13.977444443271809"><ele>273.0</ele><time>2026-04-11T15:53:24.027Z</time></trkpt><trkpt lat="45.25298594337378" lon="13.977235145900833"><ele>271.3333333333333</ele><time>2026-04-11T15:53:25.027Z</time></trkpt><trkpt lat="45.25286209958058" lon="13.977071436744472"><ele>269.66666666666663</ele><time>2026-04-11T15:53:26.027Z</time></trkpt><trkpt lat="45.25272213837731" lon="13.976942925775528"><ele>268.0</ele><time>2026-04-11T15:53:27.027Z</time></trkpt><trkpt lat="45.25255692321303" lon="13.976851661014514"><ele>268.0</ele><time>2026-04-11T15:53:28.027Z</time></trkpt><trkpt lat="45.2523779402863" lon="13.976804282555504"><ele>268.0</ele><time>2026-04-11T15:53:29.027Z</time></trkpt><trkpt lat="45.25219969924922" lon="13.976772497437205"><ele>268.0</ele><time>2026-04-11T15:53:30.027Z</time></trkpt><trkpt lat="45.252009547382265" lon="13.976734561678187"><ele>268.0</ele><time>2026-04-11T15:53:31.027Z</time></trkpt><trkpt lat="45.25181159068069" lon="13.976688924419998"><ele>268.0</ele><time>2026-04-11T15:53:32.027Z</time></trkpt><trkpt lat="45.251606752804776" lon="13.976665701028407"><ele>268.0</ele><time>2026-04-11T15:53:33.027Z</time></trkpt><trkpt lat="45.25139765351036" lon="13.976674907410015"><ele>265.66666666666663</ele><time>2026-04-11T15:53:34.027Z</time></trkpt><trkpt lat="45.25120081738019" lon="13.976699882036739"><ele>263.3333333333333</ele><time>2026-04-11T15:53:35.027Z</time></trkpt><trkpt lat="45.2510009124461" lon="13.97671777686473"><ele>261.0</ele><time>2026-04-11T15:53:36.027Z</time></trkpt><trkpt lat="45.25080696690641" lon="13.97671661726781"><ele>261.0</ele><time>2026-04-11T15:53:37.027Z</time></trkpt><trkpt lat="45.25062697209797" lon="13.97670710956107"><ele>261.0</ele><time>2026-04-11T15:53:38.027Z</time></trkpt><trkpt lat="45.25044952253629" lon="13.976698782111121"><ele>261.0</ele><time>2026-04-11T15:53:39.027Z</time></trkpt><trkpt lat="45.25028978288759" lon="13.976673461608334"><ele>261.5</ele><time>2026-04-11T15:53:40.027Z</time></trkpt><trkpt lat="45.25014038893597" lon="13.976633396303912"><ele>262.0</ele><time>2026-04-11T15:53:41.027Z</time></trkpt><trkpt lat="45.25000555418296" lon="13.97654706539448"><ele>262.5</ele><time>2026-04-11T15:53:42.027Z</time></trkpt><trkpt lat="45.24991263608671" lon="13.97638676908029"><ele>263.0</ele><time>2026-04-11T15:53:43.027Z</time></trkpt><trkpt lat="45.249851298227775" lon="13.97620353281827"><ele>263.0</ele><time>2026-04-11T15:53:44.027Z</time></trkpt><trkpt lat="45.249814976186144" lon="13.975993596947525"><ele>263.0</ele><time>2026-04-11T15:53:45.027Z</time></trkpt><trkpt lat="45.24981513155248" lon="13.975742470578163"><ele>263.0</ele><time>2026-04-11T15:53:46.027Z</time></trkpt><trkpt lat="45.24984501509992" lon="13.975476708299539"><ele>264.0</ele><time>2026-04-11T15:53:47.027Z</time></trkpt><trkpt lat="45.24988224372338" lon="13.975227835485372"><ele>265.0</ele><time>2026-04-11T15:53:48.027Z</time></trkpt><trkpt lat="45.249936361830926" lon="13.974974340149195"><ele>266.0</ele><time>2026-04-11T15:53:49.027Z</time></trkpt><trkpt lat="45.24998904858522" lon="13.974743931541752"><ele>266.0</ele><time>2026-04-11T15:53:50.027Z</time></trkpt><trkpt lat="45.250035072493006" lon="13.974523657773997"><ele>266.0</ele><time>2026-04-11T15:53:51.027Z</time></trkpt><trkpt lat="45.25004286508108" lon="13.97429881495266"><ele>266.0</ele><time>2026-04-11T15:53:52.027Z</time></trkpt><trkpt lat="45.25000440688782" lon="13.974075161938021"><ele>266.0</ele><time>2026-04-11T15:53:53.027Z</time></trkpt><trkpt lat="45.24990320968052" lon="13.9738924119055"><ele>266.0</ele><time>2026-04-11T15:53:54.027Z</time></trkpt><trkpt lat="45.24980977506515" lon="13.9736925445643"><ele>266.0</ele><time>2026-04-11T15:53:55.027Z</time></trkpt><trkpt lat="45.24969497728117" lon="13.973501626002351"><ele>264.0</ele><time>2026-04-11T15:53:56.027Z</time></trkpt><trkpt lat="45.24956355153772" lon="13.973336116428014"><ele>262.0</ele><time>2026-04-11T15:53:57.027Z</time></trkpt><trkpt lat="45.249443350262496" lon="13.973173262905172"><ele>260.0</ele><time>2026-04-11T15:53:58.027Z</time></trkpt><trkpt lat="45.24931289139876" lon="13.973043579470309"><ele>260.0</ele><time>2026-04-11T15:53:59.027Z</time></trkpt><trkpt lat="45.249179459702646" lon="13.972926497514823"><ele>260.0</ele><time>2026-04-11T15:54:00.027Z</time></trkpt><trkpt lat="45.24904842062869" lon="13.97280940483549"><ele>260.0</ele><time>2026-04-11T15:54:01.027Z</time></trkpt><trkpt lat="45.248916655188594" lon="13.972691972205535"><ele>259.6666666666667</ele><time>2026-04-11T15:54:02.027Z</time></trkpt><trkpt lat="45.248784733772354" lon="13.972579290428861"><ele>259.3333333333333</ele><time>2026-04-11T15:54:03.027Z</time></trkpt><trkpt lat="45.24865450968753" lon="13.972466782893264"><ele>259.0</ele><time>2026-04-11T15:54:04.027Z</time></trkpt><trkpt lat="45.24852738929796" lon="13.972347532275828"><ele>259.0</ele><time>2026-04-11T15:54:05.027Z</time></trkpt><trkpt lat="45.24839779500826" lon="13.972226848128754"><ele>259.0</ele><time>2026-04-11T15:54:06.027Z</time></trkpt><trkpt lat="45.24826585691824" lon="13.972111130778183"><ele>259.0</ele><time>2026-04-11T15:54:07.027Z</time></trkpt><trkpt lat="45.24813279022289" lon="13.971986507323455"><ele>258.0</ele><time>2026-04-11T15:54:08.027Z</time></trkpt><trkpt lat="45.24799539422337" lon="13.971866939126347"><ele>257.0</ele><time>2026-04-11T15:54:09.027Z</time></trkpt><trkpt lat="45.24785609641649" lon="13.97174860230597"><ele>256.0</ele><time>2026-04-11T15:54:10.027Z</time></trkpt><trkpt lat="45.24771522631865" lon="13.971624136101719"><ele>256.0</ele><time>2026-04-11T15:54:11.027Z</time></trkpt><trkpt lat="45.24757160990908" lon="13.971498859775815"><ele>256.0</ele><time>2026-04-11T15:54:12.027Z</time></trkpt><trkpt lat="45.24742626735233" lon="13.971372038722155"><ele>256.0</ele><time>2026-04-11T15:54:13.027Z</time></trkpt><trkpt lat="45.24728078836528" lon="13.971243917717246"><ele>255.0</ele><time>2026-04-11T15:54:14.027Z</time></trkpt><trkpt lat="45.24713861987177" lon="13.971114439856532"><ele>254.0</ele><time>2026-04-11T15:54:15.027Z</time></trkpt><trkpt lat="45.246996229165305" lon="13.970985467325773"><ele>253.0</ele><time>2026-04-11T15:54:16.027Z</time></trkpt><trkpt lat="45.24685495389027" lon="13.970863625109377"><ele>253.33333333333331</ele><time>2026-04-11T15:54:17.027Z</time></trkpt><trkpt lat="45.246716899148424" lon="13.97073975910059"><ele>253.66666666666669</ele><time>2026-04-11T15:54:18.027Z</time></trkpt><trkpt lat="45.24657478846275" lon="13.970619795631691"><ele>254.0</ele><time>2026-04-11T15:54:19.027Z</time></trkpt><trkpt lat="45.246433045049635" lon="13.970491615461361"><ele>255.0</ele><time>2026-04-11T15:54:20.027Z</time></trkpt><trkpt lat="45.24629710905809" lon="13.970352309358978"><ele>256.0</ele><time>2026-04-11T15:54:21.027Z</time></trkpt><trkpt lat="45.246177535281504" lon="13.97019290632754"><ele>257.0</ele><time>2026-04-11T15:54:22.027Z</time></trkpt><trkpt lat="45.24607962621654" lon="13.970008483031835"><ele>257.0</ele><time>2026-04-11T15:54:23.027Z</time></trkpt><trkpt lat="45.24599928755772" lon="13.969811628291225"><ele>257.0</ele><time>2026-04-11T15:54:24.027Z</time></trkpt><trkpt lat="45.2459413971329" lon="13.969598007649791"><ele>257.0</ele><time>2026-04-11T15:54:25.027Z</time></trkpt><trkpt lat="45.24589826191263" lon="13.96938105097818"><ele>257.0</ele><time>2026-04-11T15:54:26.027Z</time></trkpt><trkpt lat="45.2458706263296" lon="13.969156235882636"><ele>257.0</ele><time>2026-04-11T15:54:27.027Z</time></trkpt><trkpt lat="45.245858031607675" lon="13.96892071931571"><ele>257.0</ele><time>2026-04-11T15:54:28.027Z</time></trkpt><trkpt lat="45.245881826853775" lon="13.968679433364557"><ele>257.0</ele><time>2026-04-11T15:54:29.027Z</time></trkpt><trkpt lat="45.245894326532465" lon="13.968430768417148"><ele>257.0</ele><time>2026-04-11T15:54:30.028Z</time></trkpt><trkpt lat="45.24593337376912" lon="13.968191472712297"><ele>257.0</ele><time>2026-04-11T15:54:31.028Z</time></trkpt><trkpt lat="45.24598156317587" lon="13.967950891049037"><ele>256.33333333333337</ele><time>2026-04-11T15:54:32.028Z</time></trkpt><trkpt lat="45.246056256173304" lon="13.967732313670165"><ele>255.66666666666669</ele><time>2026-04-11T15:54:33.028Z</time></trkpt><trkpt lat="45.24613302153072" lon="13.96752063051534"><ele>255.0</ele><time>2026-04-11T15:54:34.028Z</time></trkpt><trkpt lat="45.24622023742747" lon="13.967333716427945"><ele>254.75</ele><time>2026-04-11T15:54:35.028Z</time></trkpt><trkpt lat="45.246314043374625" lon="13.967159271380012"><ele>254.5</ele><time>2026-04-11T15:54:36.028Z</time></trkpt><trkpt lat="45.24640140983575" lon="13.966991642678375"><ele>254.25</ele><time>2026-04-11T15:54:37.028Z</time></trkpt><trkpt lat="45.24650490861055" lon="13.966847947093795"><ele>254.0</ele><time>2026-04-11T15:54:38.028Z</time></trkpt><trkpt lat="45.246611664381554" lon="13.966717413910104"><ele>254.0</ele><time>2026-04-11T15:54:39.028Z</time></trkpt><trkpt lat="45.24670418937028" lon="13.966610594509499"><ele>253.99999999999997</ele><time>2026-04-11T15:54:40.028Z</time></trkpt><trkpt lat="45.24676990284706" lon="13.966529373773445"><ele>253.99999999999997</ele><time>2026-04-11T15:54:41.028Z</time></trkpt><trkpt lat="45.246838264506614" lon="13.966436292016068"><ele>254.0</ele><time>2026-04-11T15:54:42.028Z</time></trkpt><trkpt lat="45.24688322554361" lon="13.96633256584494"><ele>254.0</ele><time>2026-04-11T15:54:43.028Z</time></trkpt><trkpt lat="45.24691973701606" lon="13.96619985084972"><ele>254.0</ele><time>2026-04-11T15:54:44.028Z</time></trkpt><trkpt lat="45.24691422914465" lon="13.966046729519418"><ele>254.0</ele><time>2026-04-11T15:54:45.028Z</time></trkpt><trkpt lat="45.24690310534305" lon="13.965876334966168"><ele>254.0</ele><time>2026-04-11T15:54:46.028Z</time></trkpt><trkpt lat="45.24687634533622" lon="13.965698754319702"><ele>254.0</ele><time>2026-04-11T15:54:47.028Z</time></trkpt><trkpt lat="45.24688053742979" lon="13.965524627231622"><ele>254.25</ele><time>2026-04-11T15:54:48.028Z</time></trkpt><trkpt lat="45.2468610440584" lon="13.965336341767513"><ele>254.5</ele><time>2026-04-11T15:54:49.028Z</time></trkpt><trkpt lat="45.24684245487267" lon="13.965143852649293"><ele>254.75</ele><time>2026-04-11T15:54:50.028Z</time></trkpt><trkpt lat="45.24681680034071" lon="13.964955897185613"><ele>255.0</ele><time>2026-04-11T15:54:51.028Z</time></trkpt><trkpt lat="45.24679802676677" lon="13.96475827309013"><ele>255.25</ele><time>2026-04-11T15:54:52.028Z</time></trkpt><trkpt lat="45.24677549807717" lon="13.964558340381691"><ele>255.5</ele><time>2026-04-11T15:54:53.028Z</time></trkpt><trkpt lat="45.24675334290136" lon="13.96435724775358"><ele>255.75</ele><time>2026-04-11T15:54:54.028Z</time></trkpt><trkpt lat="45.246731263330986" lon="13.964157770250873"><ele>256.0</ele><time>2026-04-11T15:54:55.028Z</time></trkpt><trkpt lat="45.24670862587209" lon="13.963950076308404"><ele>256.0</ele><time>2026-04-11T15:54:56.028Z</time></trkpt><trkpt lat="45.2466881216969" lon="13.963745591454664"><ele>256.0</ele><time>2026-04-11T15:54:57.028Z</time></trkpt><trkpt lat="45.24666794602241" lon="13.963539993573459"><ele>256.0</ele><time>2026-04-11T15:54:58.028Z</time></trkpt><trkpt lat="45.246647651311164" lon="13.96333909428361"><ele>256.0</ele><time>2026-04-11T15:54:59.028Z</time></trkpt><trkpt lat="45.24662760611784" lon="13.963138271983368"><ele>256.0</ele><time>2026-04-11T15:55:00.028Z</time></trkpt><trkpt lat="45.24660707174162" lon="13.962941094460252"><ele>256.0</ele><time>2026-04-11T15:55:01.028Z</time></trkpt><trkpt lat="45.24658788232429" lon="13.962744144254229"><ele>256.0</ele><time>2026-04-11T15:55:02.028Z</time></trkpt><trkpt lat="45.24656906671514" lon="13.962550308477331"><ele>256.0</ele><time>2026-04-11T15:55:03.029Z</time></trkpt><trkpt lat="45.246549241728054" lon="13.96235659492912"><ele>256.0</ele><time>2026-04-11T15:55:04.029Z</time></trkpt><trkpt lat="45.24653034778701" lon="13.962164556792237"><ele>256.0</ele><time>2026-04-11T15:55:05.029Z</time></trkpt><trkpt lat="45.24650986088795" lon="13.961971987879835"><ele>256.0</ele><time>2026-04-11T15:55:06.03Z</time></trkpt><trkpt lat="45.24648863183091" lon="13.961779111725535"><ele>256.0</ele><time>2026-04-11T15:55:07.029Z</time></trkpt><trkpt lat="45.24646169327883" lon="13.961583555703706"><ele>257.25</ele><time>2026-04-11T15:55:08.029Z</time></trkpt><trkpt lat="45.2464312403448" lon="13.961392122502053"><ele>258.5</ele><time>2026-04-11T15:55:09.03Z</time></trkpt><trkpt lat="45.24639720044836" lon="13.961200360199843"><ele>259.75</ele><time>2026-04-11T15:55:10.029Z</time></trkpt><trkpt lat="45.24635513081569" lon="13.961011854816869"><ele>261.0</ele><time>2026-04-11T15:55:11.029Z</time></trkpt><trkpt lat="45.24629824395963" lon="13.960832312310487"><ele>261.25</ele><time>2026-04-11T15:55:12.03Z</time></trkpt><trkpt lat="45.24623049260572" lon="13.960664330403054"><ele>261.5</ele><time>2026-04-11T15:55:13.029Z</time></trkpt><trkpt lat="45.246156546945365" lon="13.960497169309878"><ele>261.75</ele><time>2026-04-11T15:55:14.029Z</time></trkpt><trkpt lat="45.246083821061944" lon="13.960334331912614"><ele>262.0</ele><time>2026-04-11T15:55:15.03Z</time></trkpt><trkpt lat="45.246024473275895" lon="13.960162574708033"><ele>263.5</ele><time>2026-04-11T15:55:16.03Z</time></trkpt><trkpt lat="45.2459519642914" lon="13.96000155842826"><ele>265.0</ele><time>2026-04-11T15:55:17.03Z</time></trkpt><trkpt lat="45.245879068725934" lon="13.959839683694238"><ele>266.5</ele><time>2026-04-11T15:55:18.03Z</time></trkpt><trkpt lat="45.245795035521375" lon="13.959693924660069"><ele>268.0</ele><time>2026-04-11T15:55:19.03Z</time></trkpt><trkpt lat="45.245730819439046" lon="13.95952867819905"><ele>268.0</ele><time>2026-04-11T15:55:20.03Z</time></trkpt><trkpt lat="45.24565234393474" lon="13.959375971376932"><ele>268.0</ele><time>2026-04-11T15:55:21.03Z</time></trkpt><trkpt lat="45.24558465841404" lon="13.959242230548327"><ele>268.0</ele><time>2026-04-11T15:55:22.03Z</time></trkpt><trkpt lat="45.24552997497968" lon="13.959130347250579"><ele>268.0</ele><time>2026-04-11T15:55:23.03Z</time></trkpt><trkpt lat="45.24546687622116" lon="13.959046560551512"><ele>268.0</ele><time>2026-04-11T15:55:25.03Z</time></trkpt><trkpt lat="45.24542659801633" lon="13.958970427125823"><ele>269.6</ele><time>2026-04-11T15:55:27.03Z</time></trkpt><trkpt lat="45.24532796200673" lon="13.958836251313064"><ele>271.20000000000005</ele><time>2026-04-11T15:55:29.03Z</time></trkpt><trkpt lat="45.245261012149356" lon="13.958769044639247"><ele>272.8</ele><time>2026-04-11T15:55:30.03Z</time></trkpt><trkpt lat="45.245162997210116" lon="13.958709305509501"><ele>274.40000000000003</ele><time>2026-04-11T15:55:31.03Z</time></trkpt><trkpt lat="45.24506161101221" lon="13.958660902702624"><ele>276.0</ele><time>2026-04-11T15:55:32.03Z</time></trkpt><trkpt lat="45.24493327355888" lon="13.958650348562333"><ele>276.0</ele><time>2026-04-11T15:55:33.03Z</time></trkpt><trkpt lat="45.244805074633284" lon="13.95864294394728"><ele>276.0</ele><time>2026-04-11T15:55:34.03Z</time></trkpt><trkpt lat="45.24467654116815" lon="13.958623923410334"><ele>276.0</ele><time>2026-04-11T15:55:35.03Z</time></trkpt><trkpt lat="45.244576094460214" lon="13.958559947024462"><ele>276.0</ele><time>2026-04-11T15:55:36.03Z</time></trkpt><trkpt lat="45.244501406931164" lon="13.958435996571335"><ele>277.0</ele><time>2026-04-11T15:55:37.03Z</time></trkpt><trkpt lat="45.24448717806602" lon="13.958263138151151"><ele>278.0</ele><time>2026-04-11T15:55:38.03Z</time></trkpt><trkpt lat="45.24453752184045" lon="13.95809908441066"><ele>279.0</ele><time>2026-04-11T15:55:39.03Z</time></trkpt><trkpt lat="45.24458633902071" lon="13.957899474865703"><ele>280.0</ele><time>2026-04-11T15:55:40.03Z</time></trkpt><trkpt lat="45.2446632453312" lon="13.957712270116819"><ele>281.3333333333333</ele><time>2026-04-11T15:55:41.03Z</time></trkpt><trkpt lat="45.244729428793505" lon="13.9575164598556"><ele>282.6666666666667</ele><time>2026-04-11T15:55:42.03Z</time></trkpt><trkpt lat="45.244770729125776" lon="13.957308964486053"><ele>284.0</ele><time>2026-04-11T15:55:43.03Z</time></trkpt><trkpt lat="45.24477973432164" lon="13.957103423782403"><ele>284.0</ele><time>2026-04-11T15:55:44.03Z</time></trkpt><trkpt lat="45.24477254979539" lon="13.956858087817208"><ele>284.0</ele><time>2026-04-11T15:55:45.03Z</time></trkpt><trkpt lat="45.24477649282944" lon="13.95660644397391"><ele>284.0</ele><time>2026-04-11T15:55:46.03Z</time></trkpt><trkpt lat="45.244782352253935" lon="13.956370324682387"><ele>285.0</ele><time>2026-04-11T15:55:47.03Z</time></trkpt><trkpt lat="45.24478049642189" lon="13.956139953835615"><ele>286.0</ele><time>2026-04-11T15:55:48.03Z</time></trkpt><trkpt lat="45.24477663116612" lon="13.955911437058308"><ele>287.0</ele><time>2026-04-11T15:55:49.03Z</time></trkpt><trkpt lat="45.24477507936391" lon="13.955672474917714"><ele>287.33333333333337</ele><time>2026-04-11T15:55:50.03Z</time></trkpt><trkpt lat="45.2447742539972" lon="13.955421377231701"><ele>287.6666666666667</ele><time>2026-04-11T15:55:51.03Z</time></trkpt><trkpt lat="45.24477385017398" lon="13.955167024022808"><ele>288.0</ele><time>2026-04-11T15:55:52.03Z</time></trkpt><trkpt lat="45.24477372930059" lon="13.95490891038359"><ele>287.6666666666667</ele><time>2026-04-11T15:55:53.03Z</time></trkpt><trkpt lat="45.24477136483448" lon="13.954661655019915"><ele>287.33333333333337</ele><time>2026-04-11T15:55:54.03Z</time></trkpt><trkpt lat="45.24476565927309" lon="13.954419457411607"><ele>287.0</ele><time>2026-04-11T15:55:55.03Z</time></trkpt><trkpt lat="45.244759059410306" lon="13.954176187374266"><ele>287.0</ele><time>2026-04-11T15:55:56.03Z</time></trkpt><trkpt lat="45.24475065581583" lon="13.953932849317333"><ele>287.0</ele><time>2026-04-11T15:55:57.03Z</time></trkpt><trkpt lat="45.24474926386453" lon="13.953695274628041"><ele>287.0</ele><time>2026-04-11T15:55:58.03Z</time></trkpt><trkpt lat="45.24474435640195" lon="13.953464249348924"><ele>287.0</ele><time>2026-04-11T15:55:59.03Z</time></trkpt><trkpt lat="45.24473374397388" lon="13.95324647697966"><ele>287.0</ele><time>2026-04-11T15:56:00.03Z</time></trkpt><trkpt lat="45.244716046900884" lon="13.953042006251227"><ele>287.0</ele><time>2026-04-11T15:56:01.03Z</time></trkpt><trkpt lat="45.244697356038266" lon="13.95285191477854"><ele>287.0</ele><time>2026-04-11T15:56:02.03Z</time></trkpt><trkpt lat="45.24466697294521" lon="13.952669809534163"><ele>286.5</ele><time>2026-04-11T15:56:03.03Z</time></trkpt><trkpt lat="45.244632146018574" lon="13.952502126027424"><ele>286.0</ele><time>2026-04-11T15:56:04.03Z</time></trkpt><trkpt lat="45.24459464914804" lon="13.952338379370575"><ele>285.5</ele><time>2026-04-11T15:56:05.03Z</time></trkpt><trkpt lat="45.24454689532905" lon="13.952185908812357"><ele>285.0</ele><time>2026-04-11T15:56:06.03Z</time></trkpt><trkpt lat="45.2444979540556" lon="13.952043883904077"><ele>285.0</ele><time>2026-04-11T15:56:07.03Z</time></trkpt><trkpt lat="45.244438824663796" lon="13.951914616984618"><ele>285.0</ele><time>2026-04-11T15:56:08.03Z</time></trkpt><trkpt lat="45.244388017019176" lon="13.951785594039324"><ele>285.0</ele><time>2026-04-11T15:56:09.03Z</time></trkpt><trkpt lat="45.24433307166369" lon="13.951668947931617"><ele>285.0</ele><time>2026-04-11T15:56:10.03Z</time></trkpt><trkpt lat="45.244277935996024" lon="13.951552071331136"><ele>285.0</ele><time>2026-04-11T15:56:11.03Z</time></trkpt><trkpt lat="45.24420845704437" lon="13.951437924689635"><ele>284.8</ele><time>2026-04-11T15:56:12.03Z</time></trkpt><trkpt lat="45.244135413918855" lon="13.951332981299359"><ele>284.6</ele><time>2026-04-11T15:56:13.03Z</time></trkpt><trkpt lat="45.244056841034094" lon="13.951230026054898"><ele>284.4</ele><time>2026-04-11T15:56:14.03Z</time></trkpt><trkpt lat="45.243974442242056" lon="13.951127184817834"><ele>284.2</ele><time>2026-04-11T15:56:15.03Z</time></trkpt><trkpt lat="45.243892417019175" lon="13.951023858300454"><ele>284.0</ele><time>2026-04-11T15:56:16.03Z</time></trkpt><trkpt lat="45.243809980562546" lon="13.950918560048333"><ele>285.4</ele><time>2026-04-11T15:56:17.03Z</time></trkpt><trkpt lat="45.24372584107223" lon="13.950805634629496"><ele>286.79999999999995</ele><time>2026-04-11T15:56:18.03Z</time></trkpt><trkpt lat="45.24364984331152" lon="13.950697393395547"><ele>288.20000000000005</ele><time>2026-04-11T15:56:19.03Z</time></trkpt><trkpt lat="45.24357403682406" lon="13.950596225122643"><ele>289.6</ele><time>2026-04-11T15:56:20.03Z</time></trkpt><trkpt lat="45.243485079022946" lon="13.950490487446368"><ele>291.0</ele><time>2026-04-11T15:56:21.03Z</time></trkpt><trkpt lat="45.24339897299042" lon="13.950379105134374"><ele>291.0</ele><time>2026-04-11T15:56:22.03Z</time></trkpt><trkpt lat="45.243323905866085" lon="13.950257822915699"><ele>291.0</ele><time>2026-04-11T15:56:23.03Z</time></trkpt><trkpt lat="45.2432322294207" lon="13.95016472795312"><ele>291.0</ele><time>2026-04-11T15:56:24.03Z</time></trkpt><trkpt lat="45.24314906908741" lon="13.950051931707131"><ele>291.0</ele><time>2026-04-11T15:56:25.03Z</time></trkpt><trkpt lat="45.24307977734625" lon="13.94992018880616"><ele>291.25</ele><time>2026-04-11T15:56:26.03Z</time></trkpt><trkpt lat="45.24299079257218" lon="13.94980167744983"><ele>291.5</ele><time>2026-04-11T15:56:27.03Z</time></trkpt><trkpt lat="45.24290298600484" lon="13.949698130769912"><ele>291.75</ele><time>2026-04-11T15:56:28.03Z</time></trkpt><trkpt lat="45.242819522420604" lon="13.94958880594545"><ele>292.0</ele><time>2026-04-11T15:56:29.03Z</time></trkpt><trkpt lat="45.24273370507551" lon="13.949479125762757"><ele>292.0</ele><time>2026-04-11T15:56:30.03Z</time></trkpt><trkpt lat="45.24264753915138" lon="13.949372057486222"><ele>292.0</ele><time>2026-04-11T15:56:31.03Z</time></trkpt><trkpt lat="45.24256205046978" lon="13.949262777719424"><ele>292.0</ele><time>2026-04-11T15:56:32.03Z</time></trkpt><trkpt lat="45.24247554193991" lon="13.949149476862912"><ele>292.0</ele><time>2026-04-11T15:56:33.03Z</time></trkpt><trkpt lat="45.24238746711137" lon="13.949035698578806"><ele>293.0</ele><time>2026-04-11T15:56:34.03Z</time></trkpt><trkpt lat="45.2422973599191" lon="13.948919138501417"><ele>294.0</ele><time>2026-04-11T15:56:35.03Z</time></trkpt><trkpt lat="45.24220511327302" lon="13.948807313897843"><ele>295.0</ele><time>2026-04-11T15:56:36.03Z</time></trkpt><trkpt lat="45.24212366255625" lon="13.948676989676763"><ele>296.0</ele><time>2026-04-11T15:56:37.03Z</time></trkpt><trkpt lat="45.24203053194411" lon="13.948556331194451"><ele>296.0</ele><time>2026-04-11T15:56:38.03Z</time></trkpt><trkpt lat="45.241930292617596" lon="13.948450024929162"><ele>296.0</ele><time>2026-04-11T15:56:39.03Z</time></trkpt><trkpt lat="45.241840424114706" lon="13.948319303046157"><ele>296.0</ele><time>2026-04-11T15:56:40.03Z</time></trkpt><trkpt lat="45.24174610401397" lon="13.948193755156918"><ele>296.0</ele><time>2026-04-11T15:56:41.03Z</time></trkpt><trkpt lat="45.241649508561935" lon="13.948069738325552"><ele>296.25</ele><time>2026-04-11T15:56:42.03Z</time></trkpt><trkpt lat="45.24155693983301" lon="13.947951055099077"><ele>296.5</ele><time>2026-04-11T15:56:43.03Z</time></trkpt><trkpt lat="45.24149359189801" lon="13.947811005632747"><ele>296.75</ele><time>2026-04-11T15:56:44.03Z</time></trkpt><trkpt lat="45.24144274775833" lon="13.94764624175323"><ele>297.0</ele><time>2026-04-11T15:56:45.03Z</time></trkpt><trkpt lat="45.241428097090285" lon="13.94745139605167"><ele>296.5</ele><time>2026-04-11T15:56:46.03Z</time></trkpt><trkpt lat="45.24143797918853" lon="13.947283440620058"><ele>296.0</ele><time>2026-04-11T15:56:47.03Z</time></trkpt><trkpt lat="45.24148198828451" lon="13.947119993731047"><ele>295.5</ele><time>2026-04-11T15:56:48.03Z</time></trkpt><trkpt lat="45.24152665088125" lon="13.946942373947739"><ele>295.0</ele><time>2026-04-11T15:56:49.03Z</time></trkpt><trkpt lat="45.24160746622166" lon="13.946775886016354"><ele>294.0</ele><time>2026-04-11T15:56:50.03Z</time></trkpt><trkpt lat="45.24167815979682" lon="13.94660342483658"><ele>293.0</ele><time>2026-04-11T15:56:51.03Z</time></trkpt><trkpt lat="45.24175461856486" lon="13.946428514853585"><ele>292.0</ele><time>2026-04-11T15:56:52.03Z</time></trkpt><trkpt lat="45.24181263962929" lon="13.946257516468114"><ele>291.0</ele><time>2026-04-11T15:56:53.03Z</time></trkpt><trkpt lat="45.24183966490727" lon="13.946087939140721"><ele>291.0</ele><time>2026-04-11T15:56:54.03Z</time></trkpt><trkpt lat="45.241840848917064" lon="13.945917761629886"><ele>291.0</ele><time>2026-04-11T15:56:55.03Z</time></trkpt><trkpt lat="45.2417888123323" lon="13.945734714179935"><ele>291.0</ele><time>2026-04-11T15:56:56.03Z</time></trkpt><trkpt lat="45.241695638409155" lon="13.945597243241473"><ele>291.0</ele><time>2026-04-11T15:56:57.03Z</time></trkpt><trkpt lat="45.24162549481004" lon="13.945451969828865"><ele>291.40000000000003</ele><time>2026-04-11T15:56:58.03Z</time></trkpt><trkpt lat="45.241551322534335" lon="13.94532259594822"><ele>291.8</ele><time>2026-04-11T15:56:59.03Z</time></trkpt><trkpt lat="45.24148364583911" lon="13.945205339084733"><ele>292.20000000000005</ele><time>2026-04-11T15:57:00.03Z</time></trkpt><trkpt lat="45.24142041201185" lon="13.945104958543991"><ele>292.6</ele><time>2026-04-11T15:57:01.03Z</time></trkpt><trkpt lat="45.24135848933362" lon="13.94503766440806"><ele>293.0</ele><time>2026-04-11T15:57:02.03Z</time></trkpt><trkpt lat="45.24129590611503" lon="13.944972182287383"><ele>291.6666666666667</ele><time>2026-04-11T15:57:03.03Z</time></trkpt><trkpt lat="45.24122468231444" lon="13.944921664680551"><ele>290.33333333333337</ele><time>2026-04-11T15:57:04.03Z</time></trkpt><trkpt lat="45.24114280310575" lon="13.94489608514949"><ele>289.0</ele><time>2026-04-11T15:57:05.03Z</time></trkpt><trkpt lat="45.24105440247728" lon="13.944875063938534"><ele>287.6666666666667</ele><time>2026-04-11T15:57:06.03Z</time></trkpt><trkpt lat="45.2409609190471" lon="13.944866279059662"><ele>286.3333333333333</ele><time>2026-04-11T15:57:07.03Z</time></trkpt><trkpt lat="45.24086540680523" lon="13.944866586716818"><ele>285.0</ele><time>2026-04-11T15:57:08.03Z</time></trkpt><trkpt lat="45.24077132291165" lon="13.9448746935069"><ele>285.0</ele><time>2026-04-11T15:57:09.032Z</time></trkpt><trkpt lat="45.24066489120131" lon="13.944871732170427"><ele>285.0</ele><time>2026-04-11T15:57:10.032Z</time></trkpt><trkpt lat="45.24056215636783" lon="13.944843954124696"><ele>285.0</ele><time>2026-04-11T15:57:11.032Z</time></trkpt><trkpt lat="45.240465529609644" lon="13.944799938832162"><ele>285.0</ele><time>2026-04-11T15:57:12.032Z</time></trkpt><trkpt lat="45.24037264671462" lon="13.944752391042845"><ele>285.0</ele><time>2026-04-11T15:57:13.032Z</time></trkpt><trkpt lat="45.2402861192837" lon="13.944697613414288"><ele>286.1666666666667</ele><time>2026-04-11T15:57:14.031Z</time></trkpt><trkpt lat="45.24020055278401" lon="13.944649252058136"><ele>287.3333333333333</ele><time>2026-04-11T15:57:15.031Z</time></trkpt><trkpt lat="45.24011878077086" lon="13.944599371927497"><ele>288.5</ele><time>2026-04-11T15:57:16.031Z</time></trkpt><trkpt lat="45.24004013572813" lon="13.944555356669111"><ele>289.66666666666663</ele><time>2026-04-11T15:57:17.031Z</time></trkpt><trkpt lat="45.2399651980264" lon="13.944510690003757"><ele>290.8333333333333</ele><time>2026-04-11T15:57:18.031Z</time></trkpt><trkpt lat="45.239892751532494" lon="13.944458158153807"><ele>292.0</ele><time>2026-04-11T15:57:19.031Z</time></trkpt><trkpt lat="45.23983441151513" lon="13.944403195954619"><ele>291.5</ele><time>2026-04-11T15:57:20.03Z</time></trkpt><trkpt lat="45.239777917139136" lon="13.944318225983663"><ele>291.0</ele><time>2026-04-11T15:57:21.03Z</time></trkpt><trkpt lat="45.23972945838809" lon="13.944221656122792"><ele>290.5</ele><time>2026-04-11T15:57:22.03Z</time></trkpt><trkpt lat="45.23967952202655" lon="13.94412832087893"><ele>290.0</ele><time>2026-04-11T15:57:23.029Z</time></trkpt><trkpt lat="45.23962136839351" lon="13.944012094521396"><ele>289.5</ele><time>2026-04-11T15:57:24.029Z</time></trkpt><trkpt lat="45.23957218020312" lon="13.943893190932641"><ele>289.0</ele><time>2026-04-11T15:57:25.029Z</time></trkpt><trkpt lat="45.23953022294151" lon="13.943788114395387"><ele>287.3333333333333</ele><time>2026-04-11T15:57:26.029Z</time></trkpt><trkpt lat="45.23949540606909" lon="13.943687440130391"><ele>285.66666666666663</ele><time>2026-04-11T15:57:27.029Z</time></trkpt><trkpt lat="45.239466511369095" lon="13.943585355872555"><ele>284.0</ele><time>2026-04-11T15:57:28.029Z</time></trkpt><trkpt lat="45.23944188603449" lon="13.94348421822589"><ele>282.3333333333333</ele><time>2026-04-11T15:57:29.029Z</time></trkpt><trkpt lat="45.23941584306874" lon="13.943383082068022"><ele>280.6666666666667</ele><time>2026-04-11T15:57:30.028Z</time></trkpt><trkpt lat="45.23936712463381" lon="13.943283793297548"><ele>279.0</ele><time>2026-04-11T15:57:31.028Z</time></trkpt><trkpt lat="45.2393043172899" lon="13.943210600578734"><ele>279.0</ele><time>2026-04-11T15:57:32.028Z</time></trkpt><trkpt lat="45.23923144854958" lon="13.943159792638063"><ele>279.0</ele><time>2026-04-11T15:57:33.028Z</time></trkpt><trkpt lat="45.23916328975875" lon="13.943133206617711"><ele>279.0</ele><time>2026-04-11T15:57:34.028Z</time></trkpt><trkpt lat="45.239094702728735" lon="13.943131776758555"><ele>279.0</ele><time>2026-04-11T15:57:35.028Z</time></trkpt><trkpt lat="45.23900398831661" lon="13.943096364307463"><ele>279.0</ele><time>2026-04-11T15:57:37.028Z</time></trkpt><trkpt lat="45.23892676923225" lon="13.94308224758248"><ele>279.0</ele><time>2026-04-11T15:57:40.028Z</time></trkpt><trkpt lat="45.238861535892845" lon="13.943070322007816"><ele>279.0</ele><time>2026-04-11T15:57:45.027Z</time></trkpt><trkpt lat="45.238942462808275" lon="13.943085116572078"><ele>279.0</ele><time>2026-04-11T16:02:06.032Z</time></trkpt><trkpt lat="45.23883314425243" lon="13.94306513161685"><ele>279.0</ele><time>2026-04-11T16:02:08.032Z</time></trkpt><trkpt lat="45.238750600275985" lon="13.943070835945099"><ele>279.0</ele><time>2026-04-11T16:02:09.032Z</time></trkpt><trkpt lat="45.23867203918819" lon="13.943035722145288"><ele>279.0</ele><time>2026-04-11T16:02:10.032Z</time></trkpt><trkpt lat="45.23856354195936" lon="13.943015740220943"><ele>279.0</ele><time>2026-04-11T16:02:11.032Z</time></trkpt><trkpt lat="45.23844131930951" lon="13.94299513862518"><ele>279.0</ele><time>2026-04-11T16:02:12.032Z</time></trkpt><trkpt lat="45.23832670035365" lon="13.942970533852044"><ele>279.0</ele><time>2026-04-11T16:02:13.032Z</time></trkpt><trkpt lat="45.238226548949875" lon="13.942937398121211"><ele>279.0</ele><time>2026-04-11T16:02:14.032Z</time></trkpt><trkpt lat="45.23812695193824" lon="13.942908750402658"><ele>279.0</ele><time>2026-04-11T16:02:15.032Z</time></trkpt><trkpt lat="45.238020250988896" lon="13.942874260122718"><ele>279.2</ele><time>2026-04-11T16:02:16.032Z</time></trkpt><trkpt lat="45.23791572815351" lon="13.942820179124208"><ele>279.4</ele><time>2026-04-11T16:02:17.032Z</time></trkpt><trkpt lat="45.23781240125144" lon="13.942753402269085"><ele>279.6</ele><time>2026-04-11T16:02:18.032Z</time></trkpt><trkpt lat="45.237717431639055" lon="13.942678365287756"><ele>279.8</ele><time>2026-04-11T16:02:19.032Z</time></trkpt><trkpt lat="45.23763807455754" lon="13.942596224851124"><ele>280.0</ele><time>2026-04-11T16:02:20.032Z</time></trkpt><trkpt lat="45.23758942390466" lon="13.94253244269756"><ele>281.0</ele><time>2026-04-11T16:02:21.032Z</time></trkpt><trkpt lat="45.237504381718495" lon="13.94251552264933"><ele>282.0</ele><time>2026-04-11T16:02:23.032Z</time></trkpt><trkpt lat="45.23744477382417" lon="13.942464928032338"><ele>283.0</ele><time>2026-04-11T16:02:25.032Z</time></trkpt><trkpt lat="45.2373508610856" lon="13.942386510681654"><ele>284.0</ele><time>2026-04-11T16:02:27.032Z</time></trkpt><trkpt lat="45.237294905555" lon="13.942323178058011"><ele>285.0</ele><time>2026-04-11T16:02:28.032Z</time></trkpt><trkpt lat="45.23724036383496" lon="13.942259737939585"><ele>286.0</ele><time>2026-04-11T16:02:29.032Z</time></trkpt><trkpt lat="45.23716899398013" lon="13.942162788238065"><ele>287.0</ele><time>2026-04-11T16:02:31.032Z</time></trkpt><trkpt lat="45.23710794319667" lon="13.942089247848944"><ele>288.0</ele><time>2026-04-11T16:02:35.032Z</time></trkpt><trkpt lat="45.23700515759611" lon="13.942187229984771"><ele>289.0</ele><time>2026-04-11T16:02:36.032Z</time></trkpt><trkpt lat="45.23694437431986" lon="13.942264503182294"><ele>290.0</ele><time>2026-04-11T16:02:37.032Z</time></trkpt><trkpt lat="45.236879143538246" lon="13.942359907468685"><ele>291.0</ele><time>2026-04-11T16:02:38.032Z</time></trkpt><trkpt lat="45.236812806890434" lon="13.942450768286408"><ele>291.0</ele><time>2026-04-11T16:02:39.032Z</time></trkpt><trkpt lat="45.23674308473732" lon="13.942546770516742"><ele>291.0</ele><time>2026-04-11T16:02:40.032Z</time></trkpt><trkpt lat="45.236669900581504" lon="13.942627221167735"><ele>291.0</ele><time>2026-04-11T16:02:41.032Z</time></trkpt><trkpt lat="45.23660736322509" lon="13.942707414605449"><ele>291.0</ele><time>2026-04-11T16:02:42.032Z</time></trkpt><trkpt lat="45.2365497141" lon="13.942777573227533"><ele>291.0</ele><time>2026-04-11T16:02:43.032Z</time></trkpt><trkpt lat="45.23648866856928" lon="13.942851197783096"><ele>291.0</ele><time>2026-04-11T16:02:44.032Z</time></trkpt><trkpt lat="45.23641923246501" lon="13.942938878794523"><ele>293.5</ele><time>2026-04-11T16:02:45.032Z</time></trkpt><trkpt lat="45.23634172420432" lon="13.943027911331475"><ele>296.0</ele><time>2026-04-11T16:02:46.032Z</time></trkpt><trkpt lat="45.23625547503362" lon="13.943104709627242"><ele>298.5</ele><time>2026-04-11T16:02:47.032Z</time></trkpt><trkpt lat="45.23614353067147" lon="13.943194783267503"><ele>301.0</ele><time>2026-04-11T16:02:48.032Z</time></trkpt><trkpt lat="45.236004488821706" lon="13.943270287171304"><ele>301.0</ele><time>2026-04-11T16:02:49.032Z</time></trkpt><trkpt lat="45.23585126356963" lon="13.943335726599752"><ele>301.0</ele><time>2026-04-11T16:02:50.032Z</time></trkpt><trkpt lat="45.235719134014374" lon="13.943388306583799"><ele>301.0</ele><time>2026-04-11T16:02:51.032Z</time></trkpt><trkpt lat="45.23560557232582" lon="13.943441423970018"><ele>301.0</ele><time>2026-04-11T16:02:52.032Z</time></trkpt><trkpt lat="45.2355007010016" lon="13.943492054907589"><ele>303.25</ele><time>2026-04-11T16:02:53.032Z</time></trkpt><trkpt lat="45.23540058123407" lon="13.943586274175466"><ele>305.5</ele><time>2026-04-11T16:02:54.032Z</time></trkpt><trkpt lat="45.23530149026056" lon="13.943723128381063"><ele>307.75</ele><time>2026-04-11T16:02:55.032Z</time></trkpt><trkpt lat="45.235211584446986" lon="13.943890610070245"><ele>310.0</ele><time>2026-04-11T16:02:56.032Z</time></trkpt><trkpt lat="45.23514681531316" lon="13.944103960987489"><ele>311.66666666666663</ele><time>2026-04-11T16:02:57.032Z</time></trkpt><trkpt lat="45.235098192598066" lon="13.944335340503343"><ele>313.3333333333333</ele><time>2026-04-11T16:02:58.032Z</time></trkpt><trkpt lat="45.23507970417674" lon="13.944580397085105"><ele>315.0</ele><time>2026-04-11T16:02:59.032Z</time></trkpt><trkpt lat="45.235064388876104" lon="13.944828610994335"><ele>314.3333333333333</ele><time>2026-04-11T16:03:00.032Z</time></trkpt><trkpt lat="45.23504450130768" lon="13.945070751730514"><ele>313.66666666666663</ele><time>2026-04-11T16:03:01.032Z</time></trkpt><trkpt lat="45.235024351844096" lon="13.94530270950442"><ele>313.0</ele><time>2026-04-11T16:03:02.032Z</time></trkpt><trkpt lat="45.23500793757685" lon="13.945534155733213"><ele>313.0</ele><time>2026-04-11T16:03:03.032Z</time></trkpt><trkpt lat="45.23498068702563" lon="13.945753249554746"><ele>313.0</ele><time>2026-04-11T16:03:04.032Z</time></trkpt><trkpt lat="45.23490539696564" lon="13.945950412603665"><ele>313.0</ele><time>2026-04-11T16:03:05.032Z</time></trkpt><trkpt lat="45.234816833938474" lon="13.94613282428465"><ele>317.3333333333333</ele><time>2026-04-11T16:03:06.032Z</time></trkpt><trkpt lat="45.23469978014454" lon="13.946273435565454"><ele>321.6666666666667</ele><time>2026-04-11T16:03:07.032Z</time></trkpt><trkpt lat="45.234563739697776" lon="13.946393315548397"><ele>326.0</ele><time>2026-04-11T16:03:08.032Z</time></trkpt><trkpt lat="45.23441232732826" lon="13.946489116176041"><ele>326.0</ele><time>2026-04-11T16:03:09.032Z</time></trkpt><trkpt lat="45.2342556235658" lon="13.946589357475442"><ele>326.0</ele><time>2026-04-11T16:03:10.032Z</time></trkpt><trkpt lat="45.234124805706074" lon="13.946703224350152"><ele>326.0</ele><time>2026-04-11T16:03:11.032Z</time></trkpt><trkpt lat="45.23401949389081" lon="13.946852743801305"><ele>326.5</ele><time>2026-04-11T16:03:12.032Z</time></trkpt><trkpt lat="45.233942600564475" lon="13.947003358731278"><ele>327.0</ele><time>2026-04-11T16:03:13.032Z</time></trkpt><trkpt lat="45.23388573322598" lon="13.947169478924476"><ele>327.5</ele><time>2026-04-11T16:03:14.032Z</time></trkpt><trkpt lat="45.233856157367775" lon="13.947395094897136"><ele>328.0</ele><time>2026-04-11T16:03:15.032Z</time></trkpt><trkpt lat="45.23380649811504" lon="13.94762142921862"><ele>328.0</ele><time>2026-04-11T16:03:16.032Z</time></trkpt><trkpt lat="45.233787521161496" lon="13.947880349992094"><ele>328.0</ele><time>2026-04-11T16:03:17.032Z</time></trkpt><trkpt lat="45.23373159143631" lon="13.948084978039788"><ele>328.0</ele><time>2026-04-11T16:03:18.032Z</time></trkpt><trkpt lat="45.23361895581666" lon="13.948231522473275"><ele>324.0</ele><time>2026-04-11T16:03:19.032Z</time></trkpt><trkpt lat="45.23348975193319" lon="13.948378657628844"><ele>320.0</ele><time>2026-04-11T16:03:20.032Z</time></trkpt><trkpt lat="45.23332054114286" lon="13.948410987159589"><ele>316.0</ele><time>2026-04-11T16:03:21.032Z</time></trkpt><trkpt lat="45.233146353747934" lon="13.94841845225928"><ele>322.66666666666663</ele><time>2026-04-11T16:03:22.032Z</time></trkpt><trkpt lat="45.23298009888672" lon="13.94835663520479"><ele>329.3333333333333</ele><time>2026-04-11T16:03:23.032Z</time></trkpt><trkpt lat="45.232813494039966" lon="13.948273158484698"><ele>336.0</ele><time>2026-04-11T16:03:24.032Z</time></trkpt><trkpt lat="45.2326444226599" lon="13.94818709697029"><ele>336.0</ele><time>2026-04-11T16:03:25.032Z</time></trkpt><trkpt lat="45.23247660972494" lon="13.948117631882003"><ele>336.0</ele><time>2026-04-11T16:03:26.033Z</time></trkpt><trkpt lat="45.2323085973934" lon="13.948135703014366"><ele>336.0</ele><time>2026-04-11T16:03:27.034Z</time></trkpt><trkpt lat="45.23213905180698" lon="13.948166675274633"><ele>337.0</ele><time>2026-04-11T16:03:28.034Z</time></trkpt><trkpt lat="45.231981741619556" lon="13.948260068798852"><ele>338.0</ele><time>2026-04-11T16:03:29.033Z</time></trkpt><trkpt lat="45.23183174867295" lon="13.94826204284707"><ele>339.0</ele><time>2026-04-11T16:03:30.034Z</time></trkpt><trkpt lat="45.2317167201041" lon="13.948211508606011"><ele>340.0</ele><time>2026-04-11T16:03:31.034Z</time></trkpt><trkpt lat="45.23161590532872" lon="13.94810707525313"><ele>340.0</ele><time>2026-04-11T16:03:32.034Z</time></trkpt><trkpt lat="45.23155746813904" lon="13.947967780234377"><ele>340.0</ele><time>2026-04-11T16:03:33.034Z</time></trkpt><trkpt lat="45.23148331388598" lon="13.947783802362022"><ele>340.0</ele><time>2026-04-11T16:03:34.034Z</time></trkpt><trkpt lat="45.231408078739314" lon="13.947593287533246"><ele>340.0</ele><time>2026-04-11T16:03:35.034Z</time></trkpt><trkpt lat="45.2313297699714" lon="13.947399967782104"><ele>344.0</ele><time>2026-04-11T16:03:36.034Z</time></trkpt><trkpt lat="45.23123933201358" lon="13.947209441611346"><ele>348.0</ele><time>2026-04-11T16:03:37.034Z</time></trkpt><trkpt lat="45.231131655141525" lon="13.947052463625267"><ele>352.0</ele><time>2026-04-11T16:03:38.033Z</time></trkpt><trkpt lat="45.23099010418944" lon="13.946958247354349"><ele>352.0</ele><time>2026-04-11T16:03:39.034Z</time></trkpt><trkpt lat="45.23086764630132" lon="13.946915456093796"><ele>352.0</ele><time>2026-04-11T16:03:40.034Z</time></trkpt><trkpt lat="45.230714111224415" lon="13.94700259654429"><ele>352.0</ele><time>2026-04-11T16:03:41.034Z</time></trkpt><trkpt lat="45.23058691484701" lon="13.947061394834673"><ele>352.0</ele><time>2026-04-11T16:03:42.034Z</time></trkpt><trkpt lat="45.23047493399457" lon="13.947183092744883"><ele>354.3333333333333</ele><time>2026-04-11T16:03:43.034Z</time></trkpt><trkpt lat="45.23037707086436" lon="13.947376821563976"><ele>356.6666666666667</ele><time>2026-04-11T16:03:44.034Z</time></trkpt><trkpt lat="45.23025983865211" lon="13.947619080463333"><ele>359.0</ele><time>2026-04-11T16:03:45.034Z</time></trkpt><trkpt lat="45.230149614206724" lon="13.947825783519301"><ele>359.0</ele><time>2026-04-11T16:03:46.034Z</time></trkpt><trkpt lat="45.23005409473917" lon="13.948006461554966"><ele>359.0</ele><time>2026-04-11T16:03:47.034Z</time></trkpt><trkpt lat="45.2299164873733" lon="13.94811426333028"><ele>359.0</ele><time>2026-04-11T16:03:48.034Z</time></trkpt><trkpt lat="45.22974247396306" lon="13.948146098157883"><ele>362.33333333333337</ele><time>2026-04-11T16:03:49.034Z</time></trkpt><trkpt lat="45.22958247440598" lon="13.94811257233284"><ele>365.6666666666667</ele><time>2026-04-11T16:03:50.034Z</time></trkpt><trkpt lat="45.229422616527025" lon="13.948043542923836"><ele>369.0</ele><time>2026-04-11T16:03:51.034Z</time></trkpt><trkpt lat="45.22925925230947" lon="13.94796587127114"><ele>369.0</ele><time>2026-04-11T16:03:52.034Z</time></trkpt><trkpt lat="45.22909352281699" lon="13.947882958409192"><ele>369.0</ele><time>2026-04-11T16:03:53.034Z</time></trkpt><trkpt lat="45.22892309170194" lon="13.947801830735942"><ele>369.0</ele><time>2026-04-11T16:03:54.034Z</time></trkpt><trkpt lat="45.22876248963387" lon="13.947733809739223"><ele>371.6666666666667</ele><time>2026-04-11T16:03:55.034Z</time></trkpt><trkpt lat="45.2285933183491" lon="13.947694649904932"><ele>374.33333333333337</ele><time>2026-04-11T16:03:56.034Z</time></trkpt><trkpt lat="45.228432384402915" lon="13.947708372996845"><ele>377.0</ele><time>2026-04-11T16:03:57.034Z</time></trkpt><trkpt lat="45.228272407522496" lon="13.947740190177825"><ele>382.5</ele><time>2026-04-11T16:03:58.034Z</time></trkpt><trkpt lat="45.228121729946736" lon="13.947762210185553"><ele>388.0</ele><time>2026-04-11T16:03:59.034Z</time></trkpt><trkpt lat="45.227971011773434" lon="13.94780781078035"><ele>393.5</ele><time>2026-04-11T16:04:00.034Z</time></trkpt><trkpt lat="45.22783289238782" lon="13.947844629100706"><ele>399.0</ele><time>2026-04-11T16:04:01.034Z</time></trkpt><trkpt lat="45.227752420148775" lon="13.947964416216712"><ele>399.0</ele><time>2026-04-11T16:04:02.034Z</time></trkpt><trkpt lat="45.22769593640758" lon="13.948136078118205"><ele>399.0</ele><time>2026-04-11T16:04:03.034Z</time></trkpt><trkpt lat="45.227682944207245" lon="13.948307034733709"><ele>399.0</ele><time>2026-04-11T16:04:04.034Z</time></trkpt><trkpt lat="45.227725108310764" lon="13.948532740219514"><ele>399.0</ele><time>2026-04-11T16:04:05.034Z</time></trkpt><trkpt lat="45.22785300071423" lon="13.948728609273088"><ele>400.33333333333337</ele><time>2026-04-11T16:04:06.034Z</time></trkpt><trkpt lat="45.2279522831044" lon="13.94889639806381"><ele>401.6666666666667</ele><time>2026-04-11T16:04:07.034Z</time></trkpt><trkpt lat="45.228013955174795" lon="13.949098870491161"><ele>403.0</ele><time>2026-04-11T16:04:08.034Z</time></trkpt><trkpt lat="45.228024597640974" lon="13.949310484970725"><ele>403.33333333333337</ele><time>2026-04-11T16:04:09.034Z</time></trkpt><trkpt lat="45.22796035159917" lon="13.949499121040008"><ele>403.66666666666663</ele><time>2026-04-11T16:04:10.034Z</time></trkpt><trkpt lat="45.227896624095905" lon="13.949699812654954"><ele>404.0</ele><time>2026-04-11T16:04:11.034Z</time></trkpt><trkpt lat="45.22782529169462" lon="13.949921849304125"><ele>403.3333333333333</ele><time>2026-04-11T16:04:12.034Z</time></trkpt><trkpt lat="45.22775666445834" lon="13.95013204048195"><ele>402.66666666666663</ele><time>2026-04-11T16:04:13.034Z</time></trkpt><trkpt lat="45.227685122315464" lon="13.950351779537355"><ele>402.0</ele><time>2026-04-11T16:04:14.034Z</time></trkpt><trkpt lat="45.227612714528505" lon="13.950573221684184"><ele>402.0</ele><time>2026-04-11T16:04:15.034Z</time></trkpt><trkpt lat="45.22754191435646" lon="13.950795573083663"><ele>402.0</ele><time>2026-04-11T16:04:16.034Z</time></trkpt><trkpt lat="45.22746958287975" lon="13.951025335969007"><ele>402.0</ele><time>2026-04-11T16:04:17.034Z</time></trkpt><trkpt lat="45.22741065644991" lon="13.951245476942056"><ele>401.33333333333337</ele><time>2026-04-11T16:04:18.034Z</time></trkpt><trkpt lat="45.22736589324148" lon="13.951470962837686"><ele>400.6666666666667</ele><time>2026-04-11T16:04:19.034Z</time></trkpt><trkpt lat="45.22733244386347" lon="13.951708806117376"><ele>400.0</ele><time>2026-04-11T16:04:20.034Z</time></trkpt><trkpt lat="45.22731794040728" lon="13.951937855323376"><ele>406.0</ele><time>2026-04-11T16:04:21.034Z</time></trkpt><trkpt lat="45.227285921098805" lon="13.952164097259068"><ele>412.0</ele><time>2026-04-11T16:04:22.034Z</time></trkpt><trkpt lat="45.227237057709786" lon="13.952383086203946"><ele>418.0</ele><time>2026-04-11T16:04:23.034Z</time></trkpt><trkpt lat="45.22716457197325" lon="13.952569576380206"><ele>418.0</ele><time>2026-04-11T16:04:24.034Z</time></trkpt><trkpt lat="45.22703642352425" lon="13.952709519180003"><ele>418.0</ele><time>2026-04-11T16:04:25.034Z</time></trkpt><trkpt lat="45.22690582081925" lon="13.952823471465043"><ele>418.0</ele><time>2026-04-11T16:04:26.034Z</time></trkpt><trkpt lat="45.226774183508006" lon="13.952930330773725"><ele>418.0</ele><time>2026-04-11T16:04:27.034Z</time></trkpt><trkpt lat="45.22665535767563" lon="13.95304671767232"><ele>418.0</ele><time>2026-04-11T16:04:28.034Z</time></trkpt><trkpt lat="45.22656571177118" lon="13.95320339340749"><ele>418.0</ele><time>2026-04-11T16:04:29.034Z</time></trkpt><trkpt lat="45.22653354039797" lon="13.95339475020924"><ele>418.0</ele><time>2026-04-11T16:04:30.034Z</time></trkpt><trkpt lat="45.22654726227333" lon="13.953599124942722"><ele>419.33333333333337</ele><time>2026-04-11T16:04:31.034Z</time></trkpt><trkpt lat="45.22658410437507" lon="13.953811028449692"><ele>420.66666666666663</ele><time>2026-04-11T16:04:32.034Z</time></trkpt><trkpt lat="45.22663552906858" lon="13.954022525371684"><ele>422.0</ele><time>2026-04-11T16:04:33.034Z</time></trkpt><trkpt lat="45.22668843514116" lon="13.954254672904176"><ele>423.66666666666663</ele><time>2026-04-11T16:04:34.034Z</time></trkpt><trkpt lat="45.22672606549333" lon="13.954515105144841"><ele>425.33333333333337</ele><time>2026-04-11T16:04:35.034Z</time></trkpt><trkpt lat="45.226751391670966" lon="13.954755694558536"><ele>427.0</ele><time>2026-04-11T16:04:36.034Z</time></trkpt><trkpt lat="45.226774012354284" lon="13.954982320836619"><ele>427.6666666666667</ele><time>2026-04-11T16:04:37.034Z</time></trkpt><trkpt lat="45.22681227785162" lon="13.955201852472863"><ele>428.33333333333337</ele><time>2026-04-11T16:04:38.034Z</time></trkpt><trkpt lat="45.22687840115179" lon="13.955407211603461"><ele>429.0</ele><time>2026-04-11T16:04:39.034Z</time></trkpt><trkpt lat="45.226945714602216" lon="13.95559790169829"><ele>429.0</ele><time>2026-04-11T16:04:40.034Z</time></trkpt><trkpt lat="45.22700367841104" lon="13.955783922808696"><ele>429.0</ele><time>2026-04-11T16:04:41.034Z</time></trkpt><trkpt lat="45.22702878731826" lon="13.95595530891251"><ele>429.0</ele><time>2026-04-11T16:04:42.034Z</time></trkpt><trkpt lat="45.22703242359916" lon="13.95613463173931"><ele>429.0</ele><time>2026-04-11T16:04:43.034Z</time></trkpt><trkpt lat="45.22698899613003" lon="13.95630075140092"><ele>428.75</ele><time>2026-04-11T16:04:44.034Z</time></trkpt><trkpt lat="45.22689024085393" lon="13.95642311081678"><ele>428.5</ele><time>2026-04-11T16:04:45.034Z</time></trkpt><trkpt lat="45.22677189330892" lon="13.956504919956965"><ele>428.25</ele><time>2026-04-11T16:04:46.034Z</time></trkpt><trkpt lat="45.22662978324776" lon="13.956545671796674"><ele>428.0</ele><time>2026-04-11T16:04:47.034Z</time></trkpt><trkpt lat="45.226469712912014" lon="13.956566009573978"><ele>429.3333333333333</ele><time>2026-04-11T16:04:48.034Z</time></trkpt><trkpt lat="45.22630126276548" lon="13.95659097054694"><ele>430.66666666666663</ele><time>2026-04-11T16:04:49.034Z</time></trkpt><trkpt lat="45.22611991857396" lon="13.956614266493371"><ele>432.0</ele><time>2026-04-11T16:04:50.034Z</time></trkpt><trkpt lat="45.22592030280876" lon="13.95664518106706"><ele>432.0</ele><time>2026-04-11T16:04:51.034Z</time></trkpt><trkpt lat="45.22572496117489" lon="13.956674928643627"><ele>432.0</ele><time>2026-04-11T16:04:52.034Z</time></trkpt><trkpt lat="45.22555036198516" lon="13.956700039706535"><ele>432.0</ele><time>2026-04-11T16:04:53.034Z</time></trkpt><trkpt lat="45.225380928306265" lon="13.956727488152538"><ele>431.33333333333337</ele><time>2026-04-11T16:04:54.034Z</time></trkpt><trkpt lat="45.22520452256023" lon="13.956763162493823"><ele>430.6666666666667</ele><time>2026-04-11T16:04:55.034Z</time></trkpt><trkpt lat="45.22503855342051" lon="13.9568147372689"><ele>430.0</ele><time>2026-04-11T16:04:56.034Z</time></trkpt><trkpt lat="45.22487477711869" lon="13.956903662323827"><ele>432.0</ele><time>2026-04-11T16:04:57.034Z</time></trkpt><trkpt lat="45.22472139588565" lon="13.957031158129904"><ele>434.0</ele><time>2026-04-11T16:04:58.034Z</time></trkpt><trkpt lat="45.22456922641646" lon="13.957168881435317"><ele>436.0</ele><time>2026-04-11T16:04:59.034Z</time></trkpt><trkpt lat="45.22442946866352" lon="13.957309084772174"><ele>436.0</ele><time>2026-04-11T16:05:00.034Z</time></trkpt><trkpt lat="45.22429152361862" lon="13.95744958485997"><ele>436.0</ele><time>2026-04-11T16:05:01.034Z</time></trkpt><trkpt lat="45.22415724236623" lon="13.957572594310754"><ele>436.0</ele><time>2026-04-11T16:05:02.034Z</time></trkpt><trkpt lat="45.22402355248342" lon="13.957705392667686"><ele>435.0</ele><time>2026-04-11T16:05:03.034Z</time></trkpt><trkpt lat="45.223887462047955" lon="13.957829683385857"><ele>434.0</ele><time>2026-04-11T16:05:04.034Z</time></trkpt><trkpt lat="45.223749700246515" lon="13.95793934093452"><ele>433.0</ele><time>2026-04-11T16:05:05.034Z</time></trkpt><trkpt lat="45.22360167400503" lon="13.958035627951071"><ele>433.0</ele><time>2026-04-11T16:05:06.034Z</time></trkpt><trkpt lat="45.223444121513396" lon="13.958101724737613"><ele>433.0</ele><time>2026-04-11T16:05:07.034Z</time></trkpt><trkpt lat="45.2232791615021" lon="13.958141452401234"><ele>433.0</ele><time>2026-04-11T16:05:08.034Z</time></trkpt><trkpt lat="45.223103755132776" lon="13.958152848043317"><ele>431.6666666666667</ele><time>2026-04-11T16:05:09.034Z</time></trkpt><trkpt lat="45.22291812956072" lon="13.958161786709075"><ele>430.33333333333337</ele><time>2026-04-11T16:05:10.034Z</time></trkpt><trkpt lat="45.22273202095274" lon="13.958164726109764"><ele>429.0</ele><time>2026-04-11T16:05:11.034Z</time></trkpt><trkpt lat="45.22254362161259" lon="13.958167164449351"><ele>429.0</ele><time>2026-04-11T16:05:12.034Z</time></trkpt><trkpt lat="45.222355865113826" lon="13.95818173622249"><ele>429.0</ele><time>2026-04-11T16:05:13.034Z</time></trkpt><trkpt lat="45.222162159463146" lon="13.958227113309038"><ele>429.0</ele><time>2026-04-11T16:05:14.034Z</time></trkpt><trkpt lat="45.22197410439904" lon="13.958306184984059"><ele>428.66666666666663</ele><time>2026-04-11T16:05:15.034Z</time></trkpt><trkpt lat="45.22179818991871" lon="13.95840540613857"><ele>428.3333333333333</ele><time>2026-04-11T16:05:16.034Z</time></trkpt><trkpt lat="45.221625005583576" lon="13.958520617314294"><ele>428.0</ele><time>2026-04-11T16:05:17.034Z</time></trkpt><trkpt lat="45.22145768313721" lon="13.958635004069299"><ele>428.0</ele><time>2026-04-11T16:05:18.034Z</time></trkpt><trkpt lat="45.22128991466167" lon="13.958735819634711"><ele>428.0</ele><time>2026-04-11T16:05:19.034Z</time></trkpt><trkpt lat="45.22112442965186" lon="13.95881831693917"><ele>428.0</ele><time>2026-04-11T16:05:20.034Z</time></trkpt><trkpt lat="45.22096156893618" lon="13.958889183567775"><ele>428.0</ele><time>2026-04-11T16:05:21.034Z</time></trkpt><trkpt lat="45.220802584907766" lon="13.958945881383585"><ele>428.0</ele><time>2026-04-11T16:05:22.034Z</time></trkpt><trkpt lat="45.22064352369961" lon="13.958988899630143"><ele>428.0</ele><time>2026-04-11T16:05:23.034Z</time></trkpt><trkpt lat="45.22049141092894" lon="13.95902173290398"><ele>427.75</ele><time>2026-04-11T16:05:24.034Z</time></trkpt><trkpt lat="45.2203533245547" lon="13.959052903218655"><ele>427.5</ele><time>2026-04-11T16:05:25.034Z</time></trkpt><trkpt lat="45.22022877779114" lon="13.95910901656189"><ele>427.25</ele><time>2026-04-11T16:05:26.034Z</time></trkpt><trkpt lat="45.22012126070204" lon="13.959191150463152"><ele>427.0</ele><time>2026-04-11T16:05:27.034Z</time></trkpt><trkpt lat="45.220025267523965" lon="13.959273626152918"><ele>427.0</ele><time>2026-04-11T16:05:28.034Z</time></trkpt><trkpt lat="45.219838345953676" lon="13.959338659838934"><ele>427.0</ele><time>2026-04-11T16:05:30.034Z</time></trkpt><trkpt lat="45.219750036227694" lon="13.95932828544974"><ele>427.0</ele><time>2026-04-11T16:05:31.034Z</time></trkpt><trkpt lat="45.2196654991282" lon="13.95928154840321"><ele>427.0</ele><time>2026-04-11T16:05:32.036Z</time></trkpt><trkpt lat="45.219574904674026" lon="13.95925640693075"><ele>427.8</ele><time>2026-04-11T16:05:33.036Z</time></trkpt><trkpt lat="45.2194878429003" lon="13.95922682860039"><ele>428.6</ele><time>2026-04-11T16:05:34.036Z</time></trkpt><trkpt lat="45.219391484331055" lon="13.959199156004107"><ele>429.40000000000003</ele><time>2026-04-11T16:05:35.036Z</time></trkpt><trkpt lat="45.21928417141229" lon="13.959167519553997"><ele>430.20000000000005</ele><time>2026-04-11T16:05:36.036Z</time></trkpt><trkpt lat="45.21916707286845" lon="13.959128506005829"><ele>431.0</ele><time>2026-04-11T16:05:37.036Z</time></trkpt><trkpt lat="45.21903834372465" lon="13.959088924199722"><ele>429.75</ele><time>2026-04-11T16:05:38.036Z</time></trkpt><trkpt lat="45.21889634006568" lon="13.95905089674945"><ele>428.5</ele><time>2026-04-11T16:05:39.036Z</time></trkpt><trkpt lat="45.21875471737007" lon="13.958998705581825"><ele>427.25</ele><time>2026-04-11T16:05:40.036Z</time></trkpt><trkpt lat="45.218618879875244" lon="13.958936590567493"><ele>426.0</ele><time>2026-04-11T16:05:41.036Z</time></trkpt><trkpt lat="45.21850363038259" lon="13.958808010077997"><ele>426.0</ele><time>2026-04-11T16:05:42.036Z</time></trkpt><trkpt lat="45.21836411859528" lon="13.95872485805871"><ele>426.0</ele><time>2026-04-11T16:05:43.036Z</time></trkpt><trkpt lat="45.21821122236631" lon="13.958653468383726"><ele>426.0</ele><time>2026-04-11T16:05:44.036Z</time></trkpt><trkpt lat="45.218047650551924" lon="13.958609462914625"><ele>426.66666666666663</ele><time>2026-04-11T16:05:45.036Z</time></trkpt><trkpt lat="45.21789630214618" lon="13.958559937971591"><ele>427.3333333333333</ele><time>2026-04-11T16:05:46.036Z</time></trkpt><trkpt lat="45.21774561298619" lon="13.958473415805853"><ele>428.0</ele><time>2026-04-11T16:05:47.036Z</time></trkpt><trkpt lat="45.21760544555947" lon="13.95834335406314"><ele>428.0</ele><time>2026-04-11T16:05:48.036Z</time></trkpt><trkpt lat="45.21745995332044" lon="13.958237208291331"><ele>428.0</ele><time>2026-04-11T16:05:49.036Z</time></trkpt><trkpt lat="45.21731792323223" lon="13.958100391498391"><ele>428.0</ele><time>2026-04-11T16:05:50.036Z</time></trkpt><trkpt lat="45.217182457269764" lon="13.957971172878565"><ele>424.66666666666663</ele><time>2026-04-11T16:05:51.036Z</time></trkpt><trkpt lat="45.21704223419696" lon="13.957862936093196"><ele>421.33333333333337</ele><time>2026-04-11T16:05:52.036Z</time></trkpt><trkpt lat="45.21690367982396" lon="13.957771704986532"><ele>418.0</ele><time>2026-04-11T16:05:53.036Z</time></trkpt><trkpt lat="45.216769371724865" lon="13.957693761520963"><ele>418.0</ele><time>2026-04-11T16:05:54.036Z</time></trkpt><trkpt lat="45.216633910055464" lon="13.95762543453713"><ele>418.0</ele><time>2026-04-11T16:05:55.036Z</time></trkpt><trkpt lat="45.21650027755672" lon="13.95755582531087"><ele>418.0</ele><time>2026-04-11T16:05:56.036Z</time></trkpt><trkpt lat="45.216375703322946" lon="13.95748957724741"><ele>418.0</ele><time>2026-04-11T16:05:57.036Z</time></trkpt><trkpt lat="45.21625463690558" lon="13.957425520866147"><ele>418.59999999999997</ele><time>2026-04-11T16:05:58.036Z</time></trkpt><trkpt lat="45.21614090357637" lon="13.95736115397647"><ele>419.2</ele><time>2026-04-11T16:05:59.036Z</time></trkpt><trkpt lat="45.216043184060126" lon="13.957302326427019"><ele>419.8</ele><time>2026-04-11T16:06:00.036Z</time></trkpt><trkpt lat="45.215977781644874" lon="13.957257653424456"><ele>420.4</ele><time>2026-04-11T16:06:01.036Z</time></trkpt><trkpt lat="45.21588372497104" lon="13.957203675118103"><ele>421.0</ele><time>2026-04-11T16:06:03.036Z</time></trkpt><trkpt lat="45.21580480557196" lon="13.957198092361256"><ele>421.0</ele><time>2026-04-11T16:06:44.036Z</time></trkpt><trkpt lat="45.21569349055206" lon="13.95713320573064"><ele>421.0</ele><time>2026-04-11T16:06:46.036Z</time></trkpt><trkpt lat="45.21563035223209" lon="13.957096288391591"><ele>421.0</ele><time>2026-04-11T16:06:47.036Z</time></trkpt><trkpt lat="45.21555544758843" lon="13.957059348898987"><ele>421.0</ele><time>2026-04-11T16:06:48.036Z</time></trkpt><trkpt lat="45.21546083952362" lon="13.957021737402977"><ele>421.0</ele><time>2026-04-11T16:06:49.036Z</time></trkpt><trkpt lat="45.215349573395315" lon="13.956948546431015"><ele>420.75</ele><time>2026-04-11T16:06:50.036Z</time></trkpt><trkpt lat="45.21523788164311" lon="13.956892504696803"><ele>420.5</ele><time>2026-04-11T16:06:51.036Z</time></trkpt><trkpt lat="45.21513058000976" lon="13.956833763070726"><ele>420.25</ele><time>2026-04-11T16:06:52.036Z</time></trkpt><trkpt lat="45.215030371764605" lon="13.956762992250539"><ele>420.0</ele><time>2026-04-11T16:06:53.036Z</time></trkpt><trkpt lat="45.21493291296933" lon="13.95666709785101"><ele>420.0</ele><time>2026-04-11T16:06:54.036Z</time></trkpt><trkpt lat="45.21484848682311" lon="13.956540525563156"><ele>420.0</ele><time>2026-04-11T16:06:55.036Z</time></trkpt><trkpt lat="45.21476134351298" lon="13.95639072468499"><ele>420.0</ele><time>2026-04-11T16:06:56.036Z</time></trkpt><trkpt lat="45.21465255744697" lon="13.95624537598636"><ele>420.0</ele><time>2026-04-11T16:06:57.036Z</time></trkpt><trkpt lat="45.21452345576781" lon="13.956138777509304"><ele>420.5</ele><time>2026-04-11T16:06:58.036Z</time></trkpt><trkpt lat="45.214406436550824" lon="13.956031135539833"><ele>421.0</ele><time>2026-04-11T16:06:59.036Z</time></trkpt><trkpt lat="45.21427528358217" lon="13.955944179537711"><ele>421.5</ele><time>2026-04-11T16:07:00.036Z</time></trkpt><trkpt lat="45.21412170797743" lon="13.955886633204214"><ele>422.0</ele><time>2026-04-11T16:07:01.036Z</time></trkpt><trkpt lat="45.213955810608596" lon="13.95582862552834"><ele>418.3333333333333</ele><time>2026-04-11T16:07:02.036Z</time></trkpt><trkpt lat="45.2137920046485" lon="13.955757827598983"><ele>414.66666666666663</ele><time>2026-04-11T16:07:03.036Z</time></trkpt><trkpt lat="45.21362356941982" lon="13.955672161114398"><ele>411.0</ele><time>2026-04-11T16:07:04.036Z</time></trkpt><trkpt lat="45.21344779779022" lon="13.955581434056693"><ele>411.0</ele><time>2026-04-11T16:07:05.036Z</time></trkpt><trkpt lat="45.21326660588211" lon="13.955483273175755"><ele>411.0</ele><time>2026-04-11T16:07:06.036Z</time></trkpt><trkpt lat="45.21308364308011" lon="13.955385885737773"><ele>411.0</ele><time>2026-04-11T16:07:07.036Z</time></trkpt><trkpt lat="45.21289911851249" lon="13.955279748227127"><ele>409.33333333333337</ele><time>2026-04-11T16:07:08.036Z</time></trkpt><trkpt lat="45.212708309750504" lon="13.955181715361581"><ele>407.6666666666667</ele><time>2026-04-11T16:07:09.036Z</time></trkpt><trkpt lat="45.21251696660214" lon="13.955090218948177"><ele>406.0</ele><time>2026-04-11T16:07:10.036Z</time></trkpt><trkpt lat="45.21232049025737" lon="13.955001548556499"><ele>405.33333333333337</ele><time>2026-04-11T16:07:11.036Z</time></trkpt><trkpt lat="45.212123811313376" lon="13.954922521595618"><ele>404.66666666666663</ele><time>2026-04-11T16:07:12.036Z</time></trkpt><trkpt lat="45.21192619138685" lon="13.954835750354855"><ele>404.0</ele><time>2026-04-11T16:07:13.036Z</time></trkpt><trkpt lat="45.211726207385894" lon="13.954748449043587"><ele>404.0</ele><time>2026-04-11T16:07:14.036Z</time></trkpt><trkpt lat="45.21152560529375" lon="13.954657899765918"><ele>404.0</ele><time>2026-04-11T16:07:15.036Z</time></trkpt><trkpt lat="45.21132953913992" lon="13.954570093197182"><ele>404.0</ele><time>2026-04-11T16:07:16.036Z</time></trkpt><trkpt lat="45.21113108530552" lon="13.95448097017963"><ele>403.0</ele><time>2026-04-11T16:07:17.036Z</time></trkpt><trkpt lat="45.2109372343471" lon="13.954392867875947"><ele>402.0</ele><time>2026-04-11T16:07:18.036Z</time></trkpt><trkpt lat="45.210750972405435" lon="13.954309603991375"><ele>401.0</ele><time>2026-04-11T16:07:19.036Z</time></trkpt><trkpt lat="45.210571320781305" lon="13.95422990293613"><ele>399.3333333333333</ele><time>2026-04-11T16:07:20.036Z</time></trkpt><trkpt lat="45.21039541927037" lon="13.954153127392097"><ele>397.66666666666663</ele><time>2026-04-11T16:07:21.036Z</time></trkpt><trkpt lat="45.21023259907202" lon="13.954045726256686"><ele>396.0</ele><time>2026-04-11T16:07:22.036Z</time></trkpt><trkpt lat="45.21008924873452" lon="13.95389452451046"><ele>396.0</ele><time>2026-04-11T16:07:23.036Z</time></trkpt><trkpt lat="45.209962140829944" lon="13.95370969832292"><ele>396.0</ele><time>2026-04-11T16:07:24.036Z</time></trkpt><trkpt lat="45.20983247877201" lon="13.953520869935398"><ele>396.0</ele><time>2026-04-11T16:07:25.036Z</time></trkpt><trkpt lat="45.209712270461964" lon="13.953319310486014"><ele>395.33333333333337</ele><time>2026-04-11T16:07:26.036Z</time></trkpt><trkpt lat="45.20957999104142" lon="13.953139339232232"><ele>394.6666666666667</ele><time>2026-04-11T16:07:27.036Z</time></trkpt><trkpt lat="45.209429722330064" lon="13.952986570243493"><ele>394.0</ele><time>2026-04-11T16:07:28.036Z</time></trkpt><trkpt lat="45.20928538527404" lon="13.952821459418129"><ele>394.0</ele><time>2026-04-11T16:07:29.036Z</time></trkpt><trkpt lat="45.209144309811" lon="13.95265943565477"><ele>394.0</ele><time>2026-04-11T16:07:30.036Z</time></trkpt><trkpt lat="45.209015483728834" lon="13.95248694626315"><ele>394.0</ele><time>2026-04-11T16:07:31.036Z</time></trkpt><trkpt lat="45.208876779141974" lon="13.952332108392175"><ele>395.0</ele><time>2026-04-11T16:07:32.036Z</time></trkpt><trkpt lat="45.208745106195394" lon="13.952197508885758"><ele>396.0</ele><time>2026-04-11T16:07:33.036Z</time></trkpt><trkpt lat="45.208610134508" lon="13.952101839763557"><ele>397.0</ele><time>2026-04-11T16:07:34.036Z</time></trkpt><trkpt lat="45.20845605548192" lon="13.952039286864045"><ele>397.0</ele><time>2026-04-11T16:07:35.036Z</time></trkpt><trkpt lat="45.208313620650024" lon="13.952015736749937"><ele>397.0</ele><time>2026-04-11T16:07:36.036Z</time></trkpt><trkpt lat="45.208164196272314" lon="13.95198877720592"><ele>397.0</ele><time>2026-04-11T16:07:37.036Z</time></trkpt><trkpt lat="45.20799574280897" lon="13.95195394451615"><ele>398.0</ele><time>2026-04-11T16:07:38.038Z</time></trkpt><trkpt lat="45.20782907867914" lon="13.95191358170256"><ele>399.0</ele><time>2026-04-11T16:07:39.038Z</time></trkpt><trkpt lat="45.20768232866297" lon="13.95189494282573"><ele>400.0</ele><time>2026-04-11T16:07:40.038Z</time></trkpt><trkpt lat="45.20752635619454" lon="13.95189948512828"><ele>400.0</ele><time>2026-04-11T16:07:41.038Z</time></trkpt><trkpt lat="45.207359889713175" lon="13.951896833374066"><ele>400.0</ele><time>2026-04-11T16:07:42.038Z</time></trkpt><trkpt lat="45.20719615717956" lon="13.951809987197148"><ele>400.0</ele><time>2026-04-11T16:07:43.038Z</time></trkpt><trkpt lat="45.207026976284794" lon="13.95170059278"><ele>400.0</ele><time>2026-04-11T16:07:44.038Z</time></trkpt><trkpt lat="45.206843718158865" lon="13.951605180050368"><ele>400.0</ele><time>2026-04-11T16:07:45.039Z</time></trkpt><trkpt lat="45.20665598782225" lon="13.951546194219638"><ele>400.0</ele><time>2026-04-11T16:07:46.039Z</time></trkpt><trkpt lat="45.20647054880818" lon="13.951489515886134"><ele>401.33333333333337</ele><time>2026-04-11T16:07:47.038Z</time></trkpt><trkpt lat="45.2062761154021" lon="13.951433020387359"><ele>402.66666666666663</ele><time>2026-04-11T16:07:48.039Z</time></trkpt><trkpt lat="45.206091640334364" lon="13.951379024913647"><ele>404.0</ele><time>2026-04-11T16:07:49.039Z</time></trkpt><trkpt lat="45.20590686973455" lon="13.951325765734078"><ele>404.0</ele><time>2026-04-11T16:07:50.038Z</time></trkpt><trkpt lat="45.20572699706119" lon="13.951276758715373"><ele>404.0</ele><time>2026-04-11T16:07:51.038Z</time></trkpt><trkpt lat="45.205553319233346" lon="13.951228334188386"><ele>404.0</ele><time>2026-04-11T16:07:52.038Z</time></trkpt><trkpt lat="45.205385538242254" lon="13.951183864972107"><ele>404.0</ele><time>2026-04-11T16:07:53.038Z</time></trkpt><trkpt lat="45.20521830002709" lon="13.95110960351842"><ele>404.0</ele><time>2026-04-11T16:07:54.038Z</time></trkpt><trkpt lat="45.20504854823673" lon="13.951024028500367"><ele>404.0</ele><time>2026-04-11T16:07:55.038Z</time></trkpt><trkpt lat="45.204869231493674" lon="13.950907333984793"><ele>404.66666666666663</ele><time>2026-04-11T16:07:56.038Z</time></trkpt><trkpt lat="45.20467465892421" lon="13.950797247255771"><ele>405.33333333333337</ele><time>2026-04-11T16:07:57.038Z</time></trkpt><trkpt lat="45.204500287085345" lon="13.9506631967396"><ele>406.0</ele><time>2026-04-11T16:07:58.038Z</time></trkpt><trkpt lat="45.204324435624706" lon="13.950538750381428"><ele>406.0</ele><time>2026-04-11T16:07:59.038Z</time></trkpt><trkpt lat="45.204159716829125" lon="13.950426113772552"><ele>406.0</ele><time>2026-04-11T16:08:00.038Z</time></trkpt><trkpt lat="45.203986291422176" lon="13.95033910192566"><ele>406.0</ele><time>2026-04-11T16:08:01.038Z</time></trkpt><trkpt lat="45.20380148411718" lon="13.950279498313348"><ele>406.33333333333337</ele><time>2026-04-11T16:08:02.038Z</time></trkpt><trkpt lat="45.20362871408212" lon="13.950216495383819"><ele>406.66666666666663</ele><time>2026-04-11T16:08:03.038Z</time></trkpt><trkpt lat="45.20348335340829" lon="13.950112847796177"><ele>407.0</ele><time>2026-04-11T16:08:04.038Z</time></trkpt><trkpt lat="45.203353370883974" lon="13.949990587358192"><ele>408.3333333333333</ele><time>2026-04-11T16:08:05.038Z</time></trkpt><trkpt lat="45.20321230686571" lon="13.949841205332598"><ele>409.66666666666663</ele><time>2026-04-11T16:08:06.038Z</time></trkpt><trkpt lat="45.20305220642657" lon="13.949698158908197"><ele>411.0</ele><time>2026-04-11T16:08:07.038Z</time></trkpt><trkpt lat="45.20290016528924" lon="13.949555059089349"><ele>411.0</ele><time>2026-04-11T16:08:08.038Z</time></trkpt><trkpt lat="45.20274051821008" lon="13.949444131952651"><ele>411.0</ele><time>2026-04-11T16:08:09.038Z</time></trkpt><trkpt lat="45.20256925398717" lon="13.94936938155328"><ele>411.0</ele><time>2026-04-11T16:08:10.038Z</time></trkpt><trkpt lat="45.20238798674526" lon="13.949295072120464"><ele>411.66666666666663</ele><time>2026-04-11T16:08:11.038Z</time></trkpt><trkpt lat="45.202226920267215" lon="13.949190181917718"><ele>412.3333333333333</ele><time>2026-04-11T16:08:12.038Z</time></trkpt><trkpt lat="45.20205975988918" lon="13.9491073430395"><ele>413.0</ele><time>2026-04-11T16:08:13.038Z</time></trkpt><trkpt lat="45.20189464418741" lon="13.949009991740173"><ele>413.0</ele><time>2026-04-11T16:08:14.038Z</time></trkpt><trkpt lat="45.20172239726155" lon="13.948913327869906"><ele>413.0</ele><time>2026-04-11T16:08:15.038Z</time></trkpt><trkpt lat="45.20153727525894" lon="13.94883530655796"><ele>413.0</ele><time>2026-04-11T16:08:16.038Z</time></trkpt><trkpt lat="45.201345681815404" lon="13.948781890308043"><ele>412.66666666666663</ele><time>2026-04-11T16:08:17.038Z</time></trkpt><trkpt lat="45.201164763871475" lon="13.948750936014024"><ele>412.33333333333337</ele><time>2026-04-11T16:08:18.038Z</time></trkpt><trkpt lat="45.20100209309802" lon="13.948725339921115"><ele>412.0</ele><time>2026-04-11T16:08:19.038Z</time></trkpt><trkpt lat="45.20085781196721" lon="13.948690749871506"><ele>412.0</ele><time>2026-04-11T16:08:20.038Z</time></trkpt><trkpt lat="45.20074920595668" lon="13.948586154739703"><ele>412.0</ele><time>2026-04-11T16:08:21.038Z</time></trkpt><trkpt lat="45.20066260855067" lon="13.94843950659305"><ele>412.0</ele><time>2026-04-11T16:08:22.038Z</time></trkpt><trkpt lat="45.20056217591704" lon="13.948234761654884"><ele>412.0</ele><time>2026-04-11T16:08:23.038Z</time></trkpt><trkpt lat="45.20046142480369" lon="13.94803992373634"><ele>412.25</ele><time>2026-04-11T16:08:24.038Z</time></trkpt><trkpt lat="45.200389895632995" lon="13.947868205040702"><ele>412.5</ele><time>2026-04-11T16:08:25.038Z</time></trkpt><trkpt lat="45.2003020468429" lon="13.947696595488587"><ele>412.75</ele><time>2026-04-11T16:08:26.038Z</time></trkpt><trkpt lat="45.20017738528581" lon="13.9475606990921"><ele>413.0</ele><time>2026-04-11T16:08:27.038Z</time></trkpt><trkpt lat="45.20003908221503" lon="13.947466106816316"><ele>414.66666666666663</ele><time>2026-04-11T16:08:28.038Z</time></trkpt><trkpt lat="45.19989386576597" lon="13.9473734970137"><ele>416.33333333333337</ele><time>2026-04-11T16:08:29.038Z</time></trkpt><trkpt lat="45.19975018030271" lon="13.94726562273689"><ele>418.0</ele><time>2026-04-11T16:08:30.038Z</time></trkpt><trkpt lat="45.19959430183339" lon="13.947138971699713"><ele>418.6666666666667</ele><time>2026-04-11T16:08:31.038Z</time></trkpt><trkpt lat="45.19944929400377" lon="13.947021765102681"><ele>419.33333333333337</ele><time>2026-04-11T16:08:32.038Z</time></trkpt><trkpt lat="45.19931101402034" lon="13.946911705530415"><ele>420.0</ele><time>2026-04-11T16:08:33.038Z</time></trkpt><trkpt lat="45.19918400566002" lon="13.946810178124496"><ele>420.25</ele><time>2026-04-11T16:08:34.038Z</time></trkpt><trkpt lat="45.19906175171062" lon="13.946707456226529"><ele>420.5</ele><time>2026-04-11T16:08:35.038Z</time></trkpt><trkpt lat="45.19894381520721" lon="13.946587493908844"><ele>420.75</ele><time>2026-04-11T16:08:36.038Z</time></trkpt><trkpt lat="45.198826744330866" lon="13.946466715447567"><ele>421.0</ele><time>2026-04-11T16:08:37.038Z</time></trkpt><trkpt lat="45.19870304286622" lon="13.94635624278846"><ele>421.0</ele><time>2026-04-11T16:08:38.038Z</time></trkpt><trkpt lat="45.19857861227128" lon="13.946252419009566"><ele>421.0</ele><time>2026-04-11T16:08:39.038Z</time></trkpt><trkpt lat="45.198451082156225" lon="13.946172278494322"><ele>421.0</ele><time>2026-04-11T16:08:40.038Z</time></trkpt><trkpt lat="45.19831958348219" lon="13.946097041128132"><ele>421.0</ele><time>2026-04-11T16:08:41.038Z</time></trkpt><trkpt lat="45.19819752910723" lon="13.945971753515545"><ele>421.0</ele><time>2026-04-11T16:08:42.038Z</time></trkpt><trkpt lat="45.198084975466294" lon="13.945844984212998"><ele>421.0</ele><time>2026-04-11T16:08:43.038Z</time></trkpt><trkpt lat="45.198001055039114" lon="13.945696072604646"><ele>421.0</ele><time>2026-04-11T16:08:44.038Z</time></trkpt><trkpt lat="45.19791212772072" lon="13.945524088837697"><ele>421.0</ele><time>2026-04-11T16:08:45.038Z</time></trkpt><trkpt lat="45.19782710786744" lon="13.94535647556744"><ele>421.0</ele><time>2026-04-11T16:08:46.038Z</time></trkpt><trkpt lat="45.19774509817584" lon="13.945191174413297"><ele>421.0</ele><time>2026-04-11T16:08:47.038Z</time></trkpt><trkpt lat="45.197678755321974" lon="13.94505578201942"><ele>421.0</ele><time>2026-04-11T16:08:48.038Z</time></trkpt><trkpt lat="45.19762076605431" lon="13.944944348256033"><ele>421.0</ele><time>2026-04-11T16:08:49.038Z</time></trkpt><trkpt lat="45.19755412611571" lon="13.944869957156616"><ele>421.0</ele><time>2026-04-11T16:08:50.038Z</time></trkpt><trkpt lat="45.19748271021024" lon="13.944762999311031"><ele>420.75</ele><time>2026-04-11T16:08:51.038Z</time></trkpt><trkpt lat="45.19738039009336" lon="13.944667807631854"><ele>420.5</ele><time>2026-04-11T16:08:52.038Z</time></trkpt><trkpt lat="45.19726754808743" lon="13.944562169150466"><ele>420.25</ele><time>2026-04-11T16:08:53.038Z</time></trkpt><trkpt lat="45.197161140334856" lon="13.944458598438773"><ele>420.0</ele><time>2026-04-11T16:08:54.038Z</time></trkpt><trkpt lat="45.197055281386824" lon="13.944363925955424"><ele>419.25</ele><time>2026-04-11T16:08:55.038Z</time></trkpt><trkpt lat="45.19694295728322" lon="13.944277476088871"><ele>418.5</ele><time>2026-04-11T16:08:56.038Z</time></trkpt><trkpt lat="45.19681620747451" lon="13.944230215057576"><ele>417.75</ele><time>2026-04-11T16:08:57.038Z</time></trkpt><trkpt lat="45.196680624855915" lon="13.944207856225393"><ele>417.0</ele><time>2026-04-11T16:08:58.038Z</time></trkpt><trkpt lat="45.19654752085952" lon="13.944216887666204"><ele>416.5</ele><time>2026-04-11T16:08:59.038Z</time></trkpt><trkpt lat="45.196417495993124" lon="13.944257896834959"><ele>416.0</ele><time>2026-04-11T16:09:00.038Z</time></trkpt><trkpt lat="45.19628770314868" lon="13.944347162558486"><ele>415.5</ele><time>2026-04-11T16:09:01.038Z</time></trkpt><trkpt lat="45.196158312301165" lon="13.944456464331061"><ele>415.0</ele><time>2026-04-11T16:09:02.038Z</time></trkpt><trkpt lat="45.19603863782307" lon="13.944561015386052"><ele>415.0</ele><time>2026-04-11T16:09:03.038Z</time></trkpt><trkpt lat="45.195926541544054" lon="13.944655571468449"><ele>415.0</ele><time>2026-04-11T16:09:04.038Z</time></trkpt><trkpt lat="45.19581603454954" lon="13.944733394435447"><ele>415.0</ele><time>2026-04-11T16:09:05.038Z</time></trkpt><trkpt lat="45.195700496455245" lon="13.944761158692094"><ele>415.0</ele><time>2026-04-11T16:09:06.038Z</time></trkpt><trkpt lat="45.195590567373564" lon="13.944750706322168"><ele>413.75</ele><time>2026-04-11T16:09:07.038Z</time></trkpt><trkpt lat="45.19547283002511" lon="13.944674701960079"><ele>412.5</ele><time>2026-04-11T16:09:08.038Z</time></trkpt><trkpt lat="45.19535724634161" lon="13.944560822117591"><ele>411.25</ele><time>2026-04-11T16:09:09.038Z</time></trkpt><trkpt lat="45.19525138533222" lon="13.944427810778214"><ele>410.0</ele><time>2026-04-11T16:09:10.038Z</time></trkpt><trkpt lat="45.19512869367294" lon="13.944273813861866"><ele>410.0</ele><time>2026-04-11T16:09:11.038Z</time></trkpt><trkpt lat="45.19497604722621" lon="13.94410951236919"><ele>410.0</ele><time>2026-04-11T16:09:12.038Z</time></trkpt><trkpt lat="45.19484107508188" lon="13.943943685731355"><ele>410.0</ele><time>2026-04-11T16:09:13.038Z</time></trkpt><trkpt lat="45.19471684800501" lon="13.943782876593461"><ele>410.66666666666663</ele><time>2026-04-11T16:09:14.038Z</time></trkpt><trkpt lat="45.194579522345464" lon="13.943612511942522"><ele>411.33333333333337</ele><time>2026-04-11T16:09:15.038Z</time></trkpt><trkpt lat="45.19443534634258" lon="13.943434373623692"><ele>412.0</ele><time>2026-04-11T16:09:16.038Z</time></trkpt><trkpt lat="45.194296045806496" lon="13.943262275126651"><ele>412.0</ele><time>2026-04-11T16:09:17.038Z</time></trkpt><trkpt lat="45.19416539676851" lon="13.943105638199361"><ele>412.0</ele><time>2026-04-11T16:09:18.038Z</time></trkpt><trkpt lat="45.1940423366714" lon="13.942950217556039"><ele>412.0</ele><time>2026-04-11T16:09:19.038Z</time></trkpt><trkpt lat="45.19391258349657" lon="13.942786377771293"><ele>411.6666666666667</ele><time>2026-04-11T16:09:20.038Z</time></trkpt><trkpt lat="45.19377874155232" lon="13.942614658966267"><ele>411.33333333333337</ele><time>2026-04-11T16:09:21.038Z</time></trkpt><trkpt lat="45.19366879849212" lon="13.942411642806325"><ele>411.0</ele><time>2026-04-11T16:09:22.038Z</time></trkpt><trkpt lat="45.19356933943311" lon="13.942200717372234"><ele>411.0</ele><time>2026-04-11T16:09:23.038Z</time></trkpt><trkpt lat="45.19347245483024" lon="13.941982568271277"><ele>411.0</ele><time>2026-04-11T16:09:24.038Z</time></trkpt><trkpt lat="45.19335731860122" lon="13.941784505284568"><ele>411.0</ele><time>2026-04-11T16:09:25.038Z</time></trkpt><trkpt lat="45.19322850293609" lon="13.94161772750252"><ele>409.66666666666663</ele><time>2026-04-11T16:09:26.038Z</time></trkpt><trkpt lat="45.1930706587772" lon="13.941508685470348"><ele>408.3333333333333</ele><time>2026-04-11T16:09:27.038Z</time></trkpt><trkpt lat="45.19290939635688" lon="13.941422104028822"><ele>407.0</ele><time>2026-04-11T16:09:28.038Z</time></trkpt><trkpt lat="45.19275866009356" lon="13.941293292893633"><ele>407.0</ele><time>2026-04-11T16:09:29.038Z</time></trkpt><trkpt lat="45.19262333774592" lon="13.94112170211123"><ele>407.0</ele><time>2026-04-11T16:09:30.038Z</time></trkpt><trkpt lat="45.19246009228504" lon="13.940922949491114"><ele>407.0</ele><time>2026-04-11T16:09:31.038Z</time></trkpt><trkpt lat="45.19230828570419" lon="13.940698163335297"><ele>407.0</ele><time>2026-04-11T16:09:32.038Z</time></trkpt><trkpt lat="45.19214427415698" lon="13.940464200183342"><ele>407.0</ele><time>2026-04-11T16:09:33.038Z</time></trkpt><trkpt lat="45.191991864965" lon="13.940248678518834"><ele>407.0</ele><time>2026-04-11T16:09:34.038Z</time></trkpt><trkpt lat="45.19184719270985" lon="13.94004857675718"><ele>407.0</ele><time>2026-04-11T16:09:35.038Z</time></trkpt><trkpt lat="45.191712612498776" lon="13.939841590311548"><ele>407.0</ele><time>2026-04-11T16:09:36.038Z</time></trkpt><trkpt lat="45.19157521549792" lon="13.939651016038825"><ele>407.0</ele><time>2026-04-11T16:09:37.038Z</time></trkpt><trkpt lat="45.19144360703624" lon="13.939466166078397"><ele>408.3333333333333</ele><time>2026-04-11T16:09:38.038Z</time></trkpt><trkpt lat="45.19131978767882" lon="13.939295768962372"><ele>409.66666666666663</ele><time>2026-04-11T16:09:39.038Z</time></trkpt><trkpt lat="45.19119865897021" lon="13.939120008515044"><ele>411.0</ele><time>2026-04-11T16:09:40.038Z</time></trkpt><trkpt lat="45.1910839253552" lon="13.938937269233715"><ele>411.0</ele><time>2026-04-11T16:09:41.038Z</time></trkpt><trkpt lat="45.19100888055855" lon="13.93871539890487"><ele>411.0</ele><time>2026-04-11T16:09:42.038Z</time></trkpt><trkpt lat="45.19092522754929" lon="13.93849074584922"><ele>411.0</ele><time>2026-04-11T16:09:43.04Z</time></trkpt><trkpt lat="45.19083099918169" lon="13.938266080871722"><ele>410.66666666666663</ele><time>2026-04-11T16:09:44.04Z</time></trkpt><trkpt lat="45.19073910213919" lon="13.938030530866387"><ele>410.3333333333333</ele><time>2026-04-11T16:09:45.04Z</time></trkpt><trkpt lat="45.190667376435684" lon="13.93778300276306"><ele>410.0</ele><time>2026-04-11T16:09:46.041Z</time></trkpt><trkpt lat="45.19058005592465" lon="13.937537603105044"><ele>412.3333333333333</ele><time>2026-04-11T16:09:47.041Z</time></trkpt><trkpt lat="45.19049493174461" lon="13.937296740200926"><ele>414.66666666666663</ele><time>2026-04-11T16:09:48.041Z</time></trkpt><trkpt lat="45.190418163877226" lon="13.937065848312672"><ele>417.0</ele><time>2026-04-11T16:09:49.04Z</time></trkpt><trkpt lat="45.19036774698788" lon="13.936840136484069"><ele>418.0</ele><time>2026-04-11T16:09:50.041Z</time></trkpt><trkpt lat="45.19035399351434" lon="13.93662330279844"><ele>419.0</ele><time>2026-04-11T16:09:51.041Z</time></trkpt><trkpt lat="45.19034582244182" lon="13.936395171222179"><ele>420.0</ele><time>2026-04-11T16:09:52.04Z</time></trkpt><trkpt lat="45.190333965029915" lon="13.936170044996695"><ele>420.0</ele><time>2026-04-11T16:09:53.041Z</time></trkpt><trkpt lat="45.19028669308583" lon="13.935948615386009"><ele>420.0</ele><time>2026-04-11T16:09:54.041Z</time></trkpt><trkpt lat="45.19023814215508" lon="13.935757978088795"><ele>420.0</ele><time>2026-04-11T16:09:55.041Z</time></trkpt><trkpt lat="45.19015611380194" lon="13.935591892118744"><ele>420.0</ele><time>2026-04-11T16:09:56.041Z</time></trkpt><trkpt lat="45.19005459859363" lon="13.93550611406066"><ele>420.0</ele><time>2026-04-11T16:09:57.041Z</time></trkpt><trkpt lat="45.18995534217545" lon="13.935474155099586"><ele>420.0</ele><time>2026-04-11T16:09:58.041Z</time></trkpt><trkpt lat="45.18984990622208" lon="13.93550751050598"><ele>420.0</ele><time>2026-04-11T16:09:59.041Z</time></trkpt><trkpt lat="45.18972823005098" lon="13.93558432503198"><ele>420.0</ele><time>2026-04-11T16:10:00.041Z</time></trkpt><trkpt lat="45.189602897471254" lon="13.9356571291371"><ele>421.0</ele><time>2026-04-11T16:10:01.041Z</time></trkpt><trkpt lat="45.189479894225386" lon="13.935712356200312"><ele>422.0</ele><time>2026-04-11T16:10:02.041Z</time></trkpt><trkpt lat="45.1893547400483" lon="13.935715960386913"><ele>423.0</ele><time>2026-04-11T16:10:03.041Z</time></trkpt><trkpt lat="45.18923035715439" lon="13.935715105139845"><ele>424.0</ele><time>2026-04-11T16:10:04.041Z</time></trkpt><trkpt lat="45.18910076888173" lon="13.935691358642032"><ele>423.25</ele><time>2026-04-11T16:10:05.041Z</time></trkpt><trkpt lat="45.188967684131995" lon="13.935663512604108"><ele>422.5</ele><time>2026-04-11T16:10:06.041Z</time></trkpt><trkpt lat="45.188827242469614" lon="13.935629485311981"><ele>421.75</ele><time>2026-04-11T16:10:07.041Z</time></trkpt><trkpt lat="45.1887015394584" lon="13.935598518582628"><ele>421.0</ele><time>2026-04-11T16:10:08.041Z</time></trkpt><trkpt lat="45.18856336208105" lon="13.935563027529472"><ele>421.0</ele><time>2026-04-11T16:10:09.041Z</time></trkpt><trkpt lat="45.18843927549763" lon="13.93552857249727"><ele>421.0</ele><time>2026-04-11T16:10:10.041Z</time></trkpt><trkpt lat="45.18829463785779" lon="13.935506637886862"><ele>421.0</ele><time>2026-04-11T16:10:11.041Z</time></trkpt><trkpt lat="45.18815909063317" lon="13.935477084917846"><ele>421.0</ele><time>2026-04-11T16:10:12.041Z</time></trkpt><trkpt lat="45.188023357260185" lon="13.935421255526743"><ele>421.0</ele><time>2026-04-11T16:10:13.041Z</time></trkpt><trkpt lat="45.187885468099495" lon="13.935385597326428"><ele>421.0</ele><time>2026-04-11T16:10:14.041Z</time></trkpt><trkpt lat="45.187756758727716" lon="13.935351376474149"><ele>421.0</ele><time>2026-04-11T16:10:15.041Z</time></trkpt><trkpt lat="45.18762598529124" lon="13.93531437578188"><ele>421.0</ele><time>2026-04-11T16:10:16.041Z</time></trkpt><trkpt lat="45.18749870875885" lon="13.935273416343486"><ele>421.0</ele><time>2026-04-11T16:10:17.041Z</time></trkpt><trkpt lat="45.1873705593966" lon="13.935198278293074"><ele>421.0</ele><time>2026-04-11T16:10:18.041Z</time></trkpt><trkpt lat="45.18724761738903" lon="13.935086199676624"><ele>421.0</ele><time>2026-04-11T16:10:19.041Z</time></trkpt><trkpt lat="45.18713633715212" lon="13.934958658007455"><ele>421.0</ele><time>2026-04-11T16:10:20.041Z</time></trkpt><trkpt lat="45.186992410384796" lon="13.934825331653123"><ele>421.33333333333337</ele><time>2026-04-11T16:10:21.041Z</time></trkpt><trkpt lat="45.18686390999612" lon="13.934669640619372"><ele>421.66666666666663</ele><time>2026-04-11T16:10:22.041Z</time></trkpt><trkpt lat="45.18672881285419" lon="13.934517087242655"><ele>422.0</ele><time>2026-04-11T16:10:23.041Z</time></trkpt><trkpt lat="45.1865950234564" lon="13.934373110971979"><ele>422.0</ele><time>2026-04-11T16:10:24.041Z</time></trkpt><trkpt lat="45.186475175816305" lon="13.934237705840513"><ele>422.0</ele><time>2026-04-11T16:10:25.041Z</time></trkpt><trkpt lat="45.1863584740703" lon="13.934105240771578"><ele>422.0</ele><time>2026-04-11T16:10:26.041Z</time></trkpt><trkpt lat="45.186241210038986" lon="13.933973838466734"><ele>422.0</ele><time>2026-04-11T16:10:27.041Z</time></trkpt><trkpt lat="45.18613472691056" lon="13.933837965399356"><ele>422.0</ele><time>2026-04-11T16:10:28.041Z</time></trkpt><trkpt lat="45.18601567859246" lon="13.933717767076105"><ele>422.0</ele><time>2026-04-11T16:10:29.041Z</time></trkpt><trkpt lat="45.18588940985536" lon="13.933598419547844"><ele>422.0</ele><time>2026-04-11T16:10:30.041Z</time></trkpt><trkpt lat="45.185767643782576" lon="13.933469598120363"><ele>420.0</ele><time>2026-04-11T16:10:31.041Z</time></trkpt><trkpt lat="45.18564563027687" lon="13.93333894173246"><ele>418.0</ele><time>2026-04-11T16:10:32.041Z</time></trkpt><trkpt lat="45.18551664996288" lon="13.933208130793885"><ele>416.0</ele><time>2026-04-11T16:10:33.041Z</time></trkpt><trkpt lat="45.18537982986208" lon="13.933080641710083"><ele>416.0</ele><time>2026-04-11T16:10:34.041Z</time></trkpt><trkpt lat="45.1852312549181" lon="13.932954750497881"><ele>416.0</ele><time>2026-04-11T16:10:35.041Z</time></trkpt><trkpt lat="45.18507883527622" lon="13.932839748589483"><ele>416.0</ele><time>2026-04-11T16:10:36.041Z</time></trkpt><trkpt lat="45.18492695872628" lon="13.932736477342424"><ele>417.0</ele><time>2026-04-11T16:10:37.041Z</time></trkpt><trkpt lat="45.18475908409373" lon="13.932650849189343"><ele>418.0</ele><time>2026-04-11T16:10:38.041Z</time></trkpt><trkpt lat="45.18459644165039" lon="13.932555849979018"><ele>419.0</ele><time>2026-04-11T16:10:39.041Z</time></trkpt><trkpt lat="45.18446833011854" lon="13.932418503624838"><ele>419.3333333333333</ele><time>2026-04-11T16:10:40.041Z</time></trkpt><trkpt lat="45.1843425607631" lon="13.932297581591518"><ele>419.66666666666663</ele><time>2026-04-11T16:10:41.041Z</time></trkpt><trkpt lat="45.184206527357354" lon="13.9321888300275"><ele>420.0</ele><time>2026-04-11T16:10:42.041Z</time></trkpt><trkpt lat="45.184074773631785" lon="13.932075627230898"><ele>419.66666666666663</ele><time>2026-04-11T16:10:43.041Z</time></trkpt><trkpt lat="45.1839330073408" lon="13.931995149900706"><ele>419.3333333333333</ele><time>2026-04-11T16:10:44.041Z</time></trkpt><trkpt lat="45.18376346816201" lon="13.931942420413856"><ele>419.0</ele><time>2026-04-11T16:10:45.041Z</time></trkpt><trkpt lat="45.18360709883823" lon="13.931880790472293"><ele>419.0</ele><time>2026-04-11T16:10:46.041Z</time></trkpt><trkpt lat="45.18345824245701" lon="13.931833683330904"><ele>419.0</ele><time>2026-04-11T16:10:47.041Z</time></trkpt><trkpt lat="45.18330643232092" lon="13.931774387318221"><ele>419.0</ele><time>2026-04-11T16:10:48.041Z</time></trkpt><trkpt lat="45.18314683713033" lon="13.931715051186178"><ele>419.3333333333333</ele><time>2026-04-11T16:10:49.041Z</time></trkpt><trkpt lat="45.18298507480202" lon="13.931694730410895"><ele>419.66666666666663</ele><time>2026-04-11T16:10:50.041Z</time></trkpt><trkpt lat="45.182825032094485" lon="13.931710572744207"><ele>420.0</ele><time>2026-04-11T16:10:51.041Z</time></trkpt><trkpt lat="45.18266488535527" lon="13.93175327809683"><ele>420.0</ele><time>2026-04-11T16:10:52.041Z</time></trkpt><trkpt lat="45.18250677987337" lon="13.93177912689885"><ele>420.0</ele><time>2026-04-11T16:10:53.041Z</time></trkpt><trkpt lat="45.18234699265812" lon="13.93179510036205"><ele>420.0</ele><time>2026-04-11T16:10:54.041Z</time></trkpt><trkpt lat="45.182177894591085" lon="13.931821538221108"><ele>420.25</ele><time>2026-04-11T16:10:55.041Z</time></trkpt><trkpt lat="45.18201977422504" lon="13.931830393315932"><ele>420.5</ele><time>2026-04-11T16:10:56.041Z</time></trkpt><trkpt lat="45.181869148590295" lon="13.931849308930202"><ele>420.75</ele><time>2026-04-11T16:10:57.041Z</time></trkpt><trkpt lat="45.181729575785845" lon="13.93186002759662"><ele>421.0</ele><time>2026-04-11T16:10:58.041Z</time></trkpt><trkpt lat="45.18159958404765" lon="13.931797603111393"><ele>420.0</ele><time>2026-04-11T16:10:59.041Z</time></trkpt><trkpt lat="45.181487657738245" lon="13.9316815346642"><ele>419.0</ele><time>2026-04-11T16:11:00.041Z</time></trkpt><trkpt lat="45.18134955979164" lon="13.93155638464132"><ele>418.0</ele><time>2026-04-11T16:11:01.041Z</time></trkpt><trkpt lat="45.18118476745883" lon="13.931407778652483"><ele>418.0</ele><time>2026-04-11T16:11:02.041Z</time></trkpt><trkpt lat="45.18100111167832" lon="13.931261741889735"><ele>418.0</ele><time>2026-04-11T16:11:03.041Z</time></trkpt><trkpt lat="45.18083518816345" lon="13.931108128044738"><ele>418.0</ele><time>2026-04-11T16:11:04.041Z</time></trkpt><trkpt lat="45.18067857078" lon="13.930965254895947"><ele>417.0</ele><time>2026-04-11T16:11:05.041Z</time></trkpt><trkpt lat="45.1805237920385" lon="13.93082144371048"><ele>416.0</ele><time>2026-04-11T16:11:06.041Z</time></trkpt><trkpt lat="45.180371518266774" lon="13.930683766335243"><ele>415.0</ele><time>2026-04-11T16:11:07.041Z</time></trkpt><trkpt lat="45.18021473882904" lon="13.930576895347846"><ele>415.0</ele><time>2026-04-11T16:11:08.041Z</time></trkpt><trkpt lat="45.18004641556038" lon="13.93048671484582"><ele>415.0</ele><time>2026-04-11T16:11:09.041Z</time></trkpt><trkpt lat="45.17986481098555" lon="13.93044085576753"><ele>415.0</ele><time>2026-04-11T16:11:10.041Z</time></trkpt><trkpt lat="45.17968043258938" lon="13.930469533672609"><ele>414.33333333333337</ele><time>2026-04-11T16:11:11.041Z</time></trkpt><trkpt lat="45.179485052400345" lon="13.930462558738412"><ele>413.66666666666663</ele><time>2026-04-11T16:11:12.041Z</time></trkpt><trkpt lat="45.17928060811993" lon="13.930528242462662"><ele>413.0</ele><time>2026-04-11T16:11:13.041Z</time></trkpt><trkpt lat="45.17908151865524" lon="13.930555327436421"><ele>412.3333333333333</ele><time>2026-04-11T16:11:14.041Z</time></trkpt><trkpt lat="45.17888241641169" lon="13.93056742692257"><ele>411.66666666666663</ele><time>2026-04-11T16:11:15.041Z</time></trkpt><trkpt lat="45.1786835737824" lon="13.93053279819681"><ele>411.0</ele><time>2026-04-11T16:11:16.041Z</time></trkpt><trkpt lat="45.17849379966505" lon="13.93050614739886"><ele>411.0</ele><time>2026-04-11T16:11:17.041Z</time></trkpt><trkpt lat="45.17830416685185" lon="13.930493489953221"><ele>411.0</ele><time>2026-04-11T16:11:18.041Z</time></trkpt><trkpt lat="45.17813131835279" lon="13.930463829136912"><ele>411.0</ele><time>2026-04-11T16:11:19.041Z</time></trkpt><trkpt lat="45.17798580885878" lon="13.930389329452206"><ele>410.33333333333337</ele><time>2026-04-11T16:11:20.041Z</time></trkpt><trkpt lat="45.177867835425566" lon="13.930282463902257"><ele>409.6666666666667</ele><time>2026-04-11T16:11:21.041Z</time></trkpt><trkpt lat="45.17774314900403" lon="13.930158159308832"><ele>409.0</ele><time>2026-04-11T16:11:22.041Z</time></trkpt><trkpt lat="45.17760552207388" lon="13.930014842627706"><ele>409.0</ele><time>2026-04-11T16:11:23.041Z</time></trkpt><trkpt lat="45.177482096164155" lon="13.929862638812867"><ele>409.0</ele><time>2026-04-11T16:11:24.041Z</time></trkpt><trkpt lat="45.177367272987624" lon="13.929714080206285"><ele>409.0</ele><time>2026-04-11T16:11:25.041Z</time></trkpt><trkpt lat="45.177258615937056" lon="13.929576430046845"><ele>407.75</ele><time>2026-04-11T16:11:26.041Z</time></trkpt><trkpt lat="45.17714102674547" lon="13.929460439611411"><ele>406.5</ele><time>2026-04-11T16:11:27.041Z</time></trkpt><trkpt lat="45.17705077770026" lon="13.92932633278926"><ele>405.25</ele><time>2026-04-11T16:11:28.041Z</time></trkpt><trkpt lat="45.17695466840453" lon="13.929216766675687"><ele>404.0</ele><time>2026-04-11T16:11:29.041Z</time></trkpt><trkpt lat="45.17685692126316" lon="13.929113934980219"><ele>404.0</ele><time>2026-04-11T16:11:30.041Z</time></trkpt><trkpt lat="45.176753481380544" lon="13.929032683183012"><ele>404.0</ele><time>2026-04-11T16:11:31.041Z</time></trkpt><trkpt lat="45.17663753161918" lon="13.928966309101277"><ele>404.0</ele><time>2026-04-11T16:11:32.041Z</time></trkpt><trkpt lat="45.17651200937182" lon="13.928901523771613"><ele>404.0</ele><time>2026-04-11T16:11:33.041Z</time></trkpt><trkpt lat="45.17638842763992" lon="13.92883106893691"><ele>403.0</ele><time>2026-04-11T16:11:34.041Z</time></trkpt><trkpt lat="45.17627186048386" lon="13.928736825907393"><ele>402.0</ele><time>2026-04-11T16:11:35.041Z</time></trkpt><trkpt lat="45.176143300268144" lon="13.928671620411817"><ele>401.0</ele><time>2026-04-11T16:11:36.041Z</time></trkpt><trkpt lat="45.17601629838165" lon="13.928629023074267"><ele>400.0</ele><time>2026-04-11T16:11:37.041Z</time></trkpt><trkpt lat="45.175885297603884" lon="13.928601336547288"><ele>400.0</ele><time>2026-04-11T16:11:38.041Z</time></trkpt><trkpt lat="45.175747054107326" lon="13.928588302684204"><ele>400.0</ele><time>2026-04-11T16:11:39.041Z</time></trkpt><trkpt lat="45.17561833365023" lon="13.92856756779104"><ele>400.0</ele><time>2026-04-11T16:11:40.041Z</time></trkpt><trkpt lat="45.17548912306332" lon="13.928547480029025"><ele>400.0</ele><time>2026-04-11T16:11:41.041Z</time></trkpt><trkpt lat="45.17536827185942" lon="13.928522953180938"><ele>399.25</ele><time>2026-04-11T16:11:42.041Z</time></trkpt><trkpt lat="45.17525396969321" lon="13.928502297404526"><ele>398.5</ele><time>2026-04-11T16:11:43.041Z</time></trkpt><trkpt lat="45.17513636805059" lon="13.928481609457068"><ele>397.75</ele><time>2026-04-11T16:11:44.041Z</time></trkpt><trkpt lat="45.17502354732742" lon="13.928453994305652"><ele>397.0</ele><time>2026-04-11T16:11:45.041Z</time></trkpt><trkpt lat="45.17491997785633" lon="13.928400644127782"><ele>397.25</ele><time>2026-04-11T16:11:46.041Z</time></trkpt><trkpt lat="45.174839084533524" lon="13.928297941204226"><ele>397.5</ele><time>2026-04-11T16:11:47.041Z</time></trkpt><trkpt lat="45.174746679368674" lon="13.928193599906527"><ele>397.75</ele><time>2026-04-11T16:11:48.041Z</time></trkpt><trkpt lat="45.174648659953164" lon="13.928073422716588"><ele>398.0</ele><time>2026-04-11T16:11:49.043Z</time></trkpt><trkpt lat="45.17453410121172" lon="13.927976433225306"><ele>398.0</ele><time>2026-04-11T16:11:50.043Z</time></trkpt><trkpt lat="45.17443548882487" lon="13.927864420010312"><ele>398.0</ele><time>2026-04-11T16:11:51.043Z</time></trkpt><trkpt lat="45.174332987953896" lon="13.927746673300138"><ele>398.0</ele><time>2026-04-11T16:11:52.043Z</time></trkpt><trkpt lat="45.17422197494852" lon="13.927664763400594"><ele>398.0</ele><time>2026-04-11T16:11:53.043Z</time></trkpt><trkpt lat="45.1741138107421" lon="13.927578354776852"><ele>399.0</ele><time>2026-04-11T16:11:54.043Z</time></trkpt><trkpt lat="45.174012503852786" lon="13.927480028615742"><ele>400.0</ele><time>2026-04-11T16:11:55.043Z</time></trkpt><trkpt lat="45.17392605844641" lon="13.927369007894393"><ele>401.0</ele><time>2026-04-11T16:11:56.043Z</time></trkpt><trkpt lat="45.17383197759364" lon="13.927284054747075"><ele>402.0</ele><time>2026-04-11T16:11:57.043Z</time></trkpt><trkpt lat="45.17373932341841" lon="13.927198672733953"><ele>402.0</ele><time>2026-04-11T16:11:58.044Z</time></trkpt><trkpt lat="45.173647740090146" lon="13.92712309059522"><ele>402.0</ele><time>2026-04-11T16:11:59.044Z</time></trkpt><trkpt lat="45.17355293717533" lon="13.927037059074836"><ele>402.0</ele><time>2026-04-11T16:12:00.044Z</time></trkpt><trkpt lat="45.173452550825914" lon="13.926948455942387"><ele>402.0</ele><time>2026-04-11T16:12:01.043Z</time></trkpt><trkpt lat="45.17335246828339" lon="13.926856874929946"><ele>402.0</ele><time>2026-04-11T16:12:02.043Z</time></trkpt><trkpt lat="45.17325450929341" lon="13.926774430667868"><ele>402.0</ele><time>2026-04-11T16:12:03.043Z</time></trkpt><trkpt lat="45.17315598498075" lon="13.926676755705458"><ele>402.0</ele><time>2026-04-11T16:12:04.043Z</time></trkpt><trkpt lat="45.173064170085844" lon="13.926565972049186"><ele>402.0</ele><time>2026-04-11T16:12:05.043Z</time></trkpt><trkpt lat="45.17300723184804" lon="13.926408905861026"><ele>402.25</ele><time>2026-04-11T16:12:06.043Z</time></trkpt><trkpt lat="45.172949230321414" lon="13.926237839264314"><ele>402.5</ele><time>2026-04-11T16:12:07.043Z</time></trkpt><trkpt lat="45.17289171217858" lon="13.926064382797346"><ele>402.75</ele><time>2026-04-11T16:12:08.043Z</time></trkpt><trkpt lat="45.1728442828437" lon="13.925893720909551"><ele>403.0</ele><time>2026-04-11T16:12:09.043Z</time></trkpt><trkpt lat="45.172794826407966" lon="13.925750578751206"><ele>403.0</ele><time>2026-04-11T16:12:10.043Z</time></trkpt><trkpt lat="45.17272388124243" lon="13.925641020936718"><ele>403.0</ele><time>2026-04-11T16:12:11.043Z</time></trkpt><trkpt lat="45.17262701231821" lon="13.925586219044396"><ele>403.0</ele><time>2026-04-11T16:12:12.043Z</time></trkpt><trkpt lat="45.17249858753521" lon="13.925592415004758"><ele>403.0</ele><time>2026-04-11T16:12:13.043Z</time></trkpt><trkpt lat="45.17235986340795" lon="13.9256138948391"><ele>404.0</ele><time>2026-04-11T16:12:14.043Z</time></trkpt><trkpt lat="45.17222826636166" lon="13.925590601220225"><ele>405.0</ele><time>2026-04-11T16:12:15.043Z</time></trkpt><trkpt lat="45.17209302497391" lon="13.925505604550514"><ele>406.0</ele><time>2026-04-11T16:12:16.043Z</time></trkpt><trkpt lat="45.17195794178631" lon="13.925411684584825"><ele>407.0</ele><time>2026-04-11T16:12:17.043Z</time></trkpt><trkpt lat="45.17182240365482" lon="13.925323542485758"><ele>407.0</ele><time>2026-04-11T16:12:18.043Z</time></trkpt><trkpt lat="45.171680333595106" lon="13.925243616961362"><ele>407.0</ele><time>2026-04-11T16:12:19.043Z</time></trkpt><trkpt lat="45.171520680943765" lon="13.925180864674608"><ele>407.0</ele><time>2026-04-11T16:12:20.043Z</time></trkpt><trkpt lat="45.17135030703036" lon="13.925132065780762"><ele>405.66666666666663</ele><time>2026-04-11T16:12:21.043Z</time></trkpt><trkpt lat="45.1711935929182" lon="13.925086682702794"><ele>404.33333333333337</ele><time>2026-04-11T16:12:22.043Z</time></trkpt><trkpt lat="45.17104509695314" lon="13.925036598698288"><ele>403.0</ele><time>2026-04-11T16:12:23.043Z</time></trkpt><trkpt lat="45.170896736993846" lon="13.92498089474047"><ele>402.6666666666667</ele><time>2026-04-11T16:12:24.043Z</time></trkpt><trkpt lat="45.17074514821873" lon="13.924915504033553"><ele>402.33333333333337</ele><time>2026-04-11T16:12:25.043Z</time></trkpt><trkpt lat="45.1705865243503" lon="13.924856957747798"><ele>402.0</ele><time>2026-04-11T16:12:26.043Z</time></trkpt><trkpt lat="45.17042535015236" lon="13.924793767411225"><ele>400.66666666666663</ele><time>2026-04-11T16:12:27.043Z</time></trkpt><trkpt lat="45.17027770252581" lon="13.924722844653603"><ele>399.3333333333333</ele><time>2026-04-11T16:12:28.043Z</time></trkpt><trkpt lat="45.17014606887991" lon="13.924629717823217"><ele>398.0</ele><time>2026-04-11T16:12:29.043Z</time></trkpt><trkpt lat="45.170046915894915" lon="13.924474808098068"><ele>398.0</ele><time>2026-04-11T16:12:30.043Z</time></trkpt><trkpt lat="45.169929577018294" lon="13.924321256288831"><ele>398.0</ele><time>2026-04-11T16:12:31.043Z</time></trkpt><trkpt lat="45.16979514566454" lon="13.924159834399186"><ele>398.0</ele><time>2026-04-11T16:12:32.043Z</time></trkpt><trkpt lat="45.16966109000333" lon="13.923982039913911"><ele>397.3333333333333</ele><time>2026-04-11T16:12:33.043Z</time></trkpt><trkpt lat="45.169522055072136" lon="13.92379377064194"><ele>396.66666666666663</ele><time>2026-04-11T16:12:34.043Z</time></trkpt><trkpt lat="45.16937888836865" lon="13.923601976948122"><ele>396.0</ele><time>2026-04-11T16:12:35.043Z</time></trkpt><trkpt lat="45.169237729003186" lon="13.923414323828588"><ele>396.66666666666663</ele><time>2026-04-11T16:12:36.043Z</time></trkpt><trkpt lat="45.169099040328355" lon="13.923231598153688"><ele>397.3333333333333</ele><time>2026-04-11T16:12:37.043Z</time></trkpt><trkpt lat="45.16896536055726" lon="13.923029908914323"><ele>398.0</ele><time>2026-04-11T16:12:38.043Z</time></trkpt><trkpt lat="45.16882964185981" lon="13.922850751103264"><ele>398.0</ele><time>2026-04-11T16:12:39.043Z</time></trkpt><trkpt lat="45.16869716425017" lon="13.922670495555932"><ele>398.0</ele><time>2026-04-11T16:12:40.043Z</time></trkpt><trkpt lat="45.168563348664875" lon="13.922488411885288"><ele>398.0</ele><time>2026-04-11T16:12:41.043Z</time></trkpt><trkpt lat="45.168426255136254" lon="13.92230363557752"><ele>397.66666666666663</ele><time>2026-04-11T16:12:42.043Z</time></trkpt><trkpt lat="45.16829091177188" lon="13.922124722292896"><ele>397.33333333333337</ele><time>2026-04-11T16:12:43.043Z</time></trkpt><trkpt lat="45.16815449452258" lon="13.921948616086073"><ele>397.0</ele><time>2026-04-11T16:12:44.043Z</time></trkpt><trkpt lat="45.16801482652559" lon="13.921766936845264"><ele>398.6666666666667</ele><time>2026-04-11T16:12:45.043Z</time></trkpt><trkpt lat="45.16787499482805" lon="13.921582340677418"><ele>400.33333333333337</ele><time>2026-04-11T16:12:46.043Z</time></trkpt><trkpt lat="45.1677417804984" lon="13.921398942053615"><ele>402.0</ele><time>2026-04-11T16:12:47.043Z</time></trkpt><trkpt lat="45.16761590808283" lon="13.921203353049032"><ele>402.0</ele><time>2026-04-11T16:12:48.043Z</time></trkpt><trkpt lat="45.16750641507843" lon="13.921002183424037"><ele>402.0</ele><time>2026-04-11T16:12:49.043Z</time></trkpt><trkpt lat="45.16740343443994" lon="13.920801134287382"><ele>402.0</ele><time>2026-04-11T16:12:50.043Z</time></trkpt><trkpt lat="45.16730649703137" lon="13.92060885643077"><ele>401.33333333333337</ele><time>2026-04-11T16:12:51.043Z</time></trkpt><trkpt lat="45.16719815953103" lon="13.920440572065171"><ele>400.6666666666667</ele><time>2026-04-11T16:12:52.043Z</time></trkpt><trkpt lat="45.1670961054304" lon="13.920269439741812"><ele>400.0</ele><time>2026-04-11T16:12:53.043Z</time></trkpt><trkpt lat="45.166980395261795" lon="13.920109637751784"><ele>399.0</ele><time>2026-04-11T16:12:54.043Z</time></trkpt><trkpt lat="45.16683433523441" lon="13.919963019777951"><ele>398.0</ele><time>2026-04-11T16:12:55.043Z</time></trkpt><trkpt lat="45.16666660380536" lon="13.919835062375483"><ele>397.0</ele><time>2026-04-11T16:12:56.043Z</time></trkpt><trkpt lat="45.16649905666638" lon="13.919733589317767"><ele>397.0</ele><time>2026-04-11T16:12:57.043Z</time></trkpt><trkpt lat="45.1663189772013" lon="13.919617348518507"><ele>397.0</ele><time>2026-04-11T16:12:58.043Z</time></trkpt><trkpt lat="45.16613921710324" lon="13.919487967863871"><ele>397.0</ele><time>2026-04-11T16:12:59.043Z</time></trkpt><trkpt lat="45.16596584163804" lon="13.919378894156758"><ele>397.0</ele><time>2026-04-11T16:13:00.043Z</time></trkpt><trkpt lat="45.16579161383866" lon="13.919272341382946"><ele>397.0</ele><time>2026-04-11T16:13:01.043Z</time></trkpt><trkpt lat="45.165628059068965" lon="13.919164829373806"><ele>397.0</ele><time>2026-04-11T16:13:02.043Z</time></trkpt><trkpt lat="45.165468654642865" lon="13.91906147599222"><ele>398.25</ele><time>2026-04-11T16:13:03.043Z</time></trkpt><trkpt lat="45.16532769671856" lon="13.918969016937154"><ele>399.5</ele><time>2026-04-11T16:13:04.043Z</time></trkpt><trkpt lat="45.165189380361284" lon="13.918917768310056"><ele>400.75</ele><time>2026-04-11T16:13:05.043Z</time></trkpt><trkpt lat="45.165061789845794" lon="13.91887687982271"><ele>402.0</ele><time>2026-04-11T16:13:06.043Z</time></trkpt><trkpt lat="45.16494312651169" lon="13.918798896736785"><ele>403.0</ele><time>2026-04-11T16:13:07.043Z</time></trkpt><trkpt lat="45.16483563765" lon="13.918692913922305"><ele>404.0</ele><time>2026-04-11T16:13:08.043Z</time></trkpt><trkpt lat="45.1647061316494" lon="13.918557926394017"><ele>405.0</ele><time>2026-04-11T16:13:09.043Z</time></trkpt><trkpt lat="45.16456151986276" lon="13.918408463576483"><ele>403.66666666666663</ele><time>2026-04-11T16:13:10.043Z</time></trkpt><trkpt lat="45.1644060371883" lon="13.91828156169503"><ele>402.3333333333333</ele><time>2026-04-11T16:13:11.043Z</time></trkpt><trkpt lat="45.16427234798067" lon="13.918114678261675"><ele>401.0</ele><time>2026-04-11T16:13:12.043Z</time></trkpt><trkpt lat="45.16412695907327" lon="13.917962691406693"><ele>401.0</ele><time>2026-04-11T16:13:13.043Z</time></trkpt><trkpt lat="45.163986005011616" lon="13.917813668423179"><ele>401.0</ele><time>2026-04-11T16:13:14.043Z</time></trkpt><trkpt lat="45.163839777079716" lon="13.91765747322756"><ele>401.0</ele><time>2026-04-11T16:13:15.043Z</time></trkpt><trkpt lat="45.163692709428354" lon="13.917504731044389"><ele>400.3333333333333</ele><time>2026-04-11T16:13:16.043Z</time></trkpt><trkpt lat="45.163548665576286" lon="13.91735446748437"><ele>399.66666666666663</ele><time>2026-04-11T16:13:17.043Z</time></trkpt><trkpt lat="45.1634099580472" lon="13.917210570485995"><ele>399.0</ele><time>2026-04-11T16:13:18.043Z</time></trkpt><trkpt lat="45.1632741095513" lon="13.91706961702828"><ele>398.0</ele><time>2026-04-11T16:13:19.043Z</time></trkpt><trkpt lat="45.16313121209086" lon="13.916920476345565"><ele>397.0</ele><time>2026-04-11T16:13:20.043Z</time></trkpt><trkpt lat="45.16298454761237" lon="13.916768357214993"><ele>396.0</ele><time>2026-04-11T16:13:21.043Z</time></trkpt><trkpt lat="45.16283291195172" lon="13.916613107224675"><ele>396.0</ele><time>2026-04-11T16:13:22.043Z</time></trkpt><trkpt lat="45.16268555732352" lon="13.916473928251685"><ele>396.0</ele><time>2026-04-11T16:13:23.043Z</time></trkpt><trkpt lat="45.162521930280185" lon="13.91639149071236"><ele>396.0</ele><time>2026-04-11T16:13:24.043Z</time></trkpt><trkpt lat="45.16236006540029" lon="13.916313994223856"><ele>395.66666666666663</ele><time>2026-04-11T16:13:25.043Z</time></trkpt><trkpt lat="45.162191061570155" lon="13.916262398050657"><ele>395.3333333333333</ele><time>2026-04-11T16:13:26.043Z</time></trkpt><trkpt lat="45.16201771781147" lon="13.916198808681234"><ele>395.0</ele><time>2026-04-11T16:13:27.043Z</time></trkpt><trkpt lat="45.161847229369116" lon="13.916177248287836"><ele>395.0</ele><time>2026-04-11T16:13:28.043Z</time></trkpt><trkpt lat="45.16167143825682" lon="13.916157933215592"><ele>395.0</ele><time>2026-04-11T16:13:29.043Z</time></trkpt><trkpt lat="45.16149702688915" lon="13.916151515023309"><ele>395.0</ele><time>2026-04-11T16:13:30.043Z</time></trkpt><trkpt lat="45.16134107831715" lon="13.916140853799964"><ele>397.25</ele><time>2026-04-11T16:13:31.043Z</time></trkpt><trkpt lat="45.1611941599578" lon="13.916084378734306"><ele>399.5</ele><time>2026-04-11T16:13:32.043Z</time></trkpt><trkpt lat="45.16106357563215" lon="13.916000145123265"><ele>401.75</ele><time>2026-04-11T16:13:33.043Z</time></trkpt><trkpt lat="45.16095852099158" lon="13.915876182109304"><ele>404.0</ele><time>2026-04-11T16:13:34.043Z</time></trkpt><trkpt lat="45.160839923709254" lon="13.915741843453148"><ele>404.0</ele><time>2026-04-11T16:13:35.043Z</time></trkpt><trkpt lat="45.1606951770734" lon="13.91563695299832"><ele>404.0</ele><time>2026-04-11T16:13:36.043Z</time></trkpt><trkpt lat="45.160548355149416" lon="13.915515703178285"><ele>404.0</ele><time>2026-04-11T16:13:37.043Z</time></trkpt><trkpt lat="45.16038655955017" lon="13.91540823042926"><ele>404.0</ele><time>2026-04-11T16:13:38.043Z</time></trkpt><trkpt lat="45.16022149247703" lon="13.915313131088869"><ele>404.0</ele><time>2026-04-11T16:13:39.043Z</time></trkpt><trkpt lat="45.160054671552906" lon="13.915214421652763"><ele>404.0</ele><time>2026-04-11T16:13:40.043Z</time></trkpt><trkpt lat="45.15987174632628" lon="13.915114497506694"><ele>403.66666666666663</ele><time>2026-04-11T16:13:41.043Z</time></trkpt><trkpt lat="45.15969400797311" lon="13.915023535431436"><ele>403.33333333333337</ele><time>2026-04-11T16:13:42.043Z</time></trkpt><trkpt lat="45.15951951733254" lon="13.91491564887253"><ele>403.0</ele><time>2026-04-11T16:13:43.043Z</time></trkpt><trkpt lat="45.15933784271463" lon="13.914810510011636"><ele>403.0</ele><time>2026-04-11T16:13:44.043Z</time></trkpt><trkpt lat="45.159157540402845" lon="13.914679236185254"><ele>403.0</ele><time>2026-04-11T16:13:45.043Z</time></trkpt><trkpt lat="45.158967827035475" lon="13.91458185482379"><ele>403.0</ele><time>2026-04-11T16:13:46.043Z</time></trkpt><trkpt lat="45.15878543688191" lon="13.914467128022983"><ele>402.6666666666667</ele><time>2026-04-11T16:13:47.043Z</time></trkpt><trkpt lat="45.158601342289664" lon="13.914352548724455"><ele>402.33333333333337</ele><time>2026-04-11T16:13:48.043Z</time></trkpt><trkpt lat="45.15842727856396" lon="13.91424511144124"><ele>402.0</ele><time>2026-04-11T16:13:49.043Z</time></trkpt><trkpt lat="45.158266418563066" lon="13.914149204002447"><ele>403.0</ele><time>2026-04-11T16:13:50.043Z</time></trkpt><trkpt lat="45.158114727586" lon="13.914031761994098"><ele>404.0</ele><time>2026-04-11T16:13:51.043Z</time></trkpt><trkpt lat="45.15795733253609" lon="13.913927857387534"><ele>405.0</ele><time>2026-04-11T16:13:52.043Z</time></trkpt><trkpt lat="45.15780278052771" lon="13.913831441854327"><ele>405.0</ele><time>2026-04-11T16:13:53.043Z</time></trkpt><trkpt lat="45.15764216363532" lon="13.913735390601142"><ele>405.0</ele><time>2026-04-11T16:13:54.043Z</time></trkpt><trkpt lat="45.15748088364252" lon="13.913656205721033"><ele>405.0</ele><time>2026-04-11T16:13:55.046Z</time></trkpt><trkpt lat="45.15732020693367" lon="13.913559511181115"><ele>405.0</ele><time>2026-04-11T16:13:56.045Z</time></trkpt><trkpt lat="45.157165136623775" lon="13.913438436880883"><ele>405.0</ele><time>2026-04-11T16:13:57.045Z</time></trkpt><trkpt lat="45.15701104380979" lon="13.913322500210707"><ele>405.0</ele><time>2026-04-11T16:13:58.045Z</time></trkpt><trkpt lat="45.15686116714587" lon="13.913193182379665"><ele>405.0</ele><time>2026-04-11T16:13:59.045Z</time></trkpt><trkpt lat="45.156718904832836" lon="13.913047340499611"><ele>405.0</ele><time>2026-04-11T16:14:00.045Z</time></trkpt><trkpt lat="45.156596245901845" lon="13.91288183114431"><ele>405.0</ele><time>2026-04-11T16:14:01.046Z</time></trkpt><trkpt lat="45.15647149823375" lon="13.912703705942954"><ele>404.0</ele><time>2026-04-11T16:14:02.046Z</time></trkpt><trkpt lat="45.15634876386325" lon="13.912523988497322"><ele>403.0</ele><time>2026-04-11T16:14:03.046Z</time></trkpt><trkpt lat="45.156225215677665" lon="13.912340095974248"><ele>402.0</ele><time>2026-04-11T16:14:04.045Z</time></trkpt><trkpt lat="45.15612437612835" lon="13.91213389149039"><ele>402.0</ele><time>2026-04-11T16:14:05.045Z</time></trkpt><trkpt lat="45.156036027038894" lon="13.911914895776906"><ele>402.0</ele><time>2026-04-11T16:14:06.045Z</time></trkpt><trkpt lat="45.155933092587006" lon="13.911704597501181"><ele>402.0</ele><time>2026-04-11T16:14:07.046Z</time></trkpt><trkpt lat="45.155806737207854" lon="13.911508254084815"><ele>400.66666666666663</ele><time>2026-04-11T16:14:08.046Z</time></trkpt><trkpt lat="45.1556717921868" lon="13.91132502496231"><ele>399.3333333333333</ele><time>2026-04-11T16:14:09.046Z</time></trkpt><trkpt lat="45.1555287660961" lon="13.91114500843726"><ele>398.0</ele><time>2026-04-11T16:14:10.046Z</time></trkpt><trkpt lat="45.15537473117078" lon="13.910980653026762"><ele>398.66666666666663</ele><time>2026-04-11T16:14:11.046Z</time></trkpt><trkpt lat="45.155218484714865" lon="13.910819897469201"><ele>399.33333333333337</ele><time>2026-04-11T16:14:12.046Z</time></trkpt><trkpt lat="45.15507361219024" lon="13.910637296612546"><ele>400.0</ele><time>2026-04-11T16:14:13.046Z</time></trkpt><trkpt lat="45.15491824535705" lon="13.9105021175815"><ele>398.0</ele><time>2026-04-11T16:14:14.046Z</time></trkpt><trkpt lat="45.15477193925391" lon="13.910364116058222"><ele>396.0</ele><time>2026-04-11T16:14:15.046Z</time></trkpt><trkpt lat="45.15461413509546" lon="13.910254517972765"><ele>394.0</ele><time>2026-04-11T16:14:16.046Z</time></trkpt><trkpt lat="45.15446252575462" lon="13.910166409913394"><ele>394.0</ele><time>2026-04-11T16:14:17.046Z</time></trkpt><trkpt lat="45.15428923867433" lon="13.910130644659535"><ele>394.0</ele><time>2026-04-11T16:14:18.046Z</time></trkpt><trkpt lat="45.154097892808984" lon="13.910142163128205"><ele>394.0</ele><time>2026-04-11T16:14:19.046Z</time></trkpt><trkpt lat="45.153910494669006" lon="13.910147627921189"><ele>393.0</ele><time>2026-04-11T16:14:20.046Z</time></trkpt><trkpt lat="45.15372613304167" lon="13.910139324260912"><ele>392.0</ele><time>2026-04-11T16:14:21.046Z</time></trkpt><trkpt lat="45.15353722021897" lon="13.910120356696849"><ele>391.0</ele><time>2026-04-11T16:14:22.046Z</time></trkpt><trkpt lat="45.153352199939384" lon="13.910100149168962"><ele>390.6666666666667</ele><time>2026-04-11T16:14:23.046Z</time></trkpt><trkpt lat="45.15317155836343" lon="13.91008196497956"><ele>390.33333333333337</ele><time>2026-04-11T16:14:24.046Z</time></trkpt><trkpt lat="45.153004349450676" lon="13.910013317355883"><ele>390.0</ele><time>2026-04-11T16:14:25.046Z</time></trkpt><trkpt lat="45.152829200818815" lon="13.909945486514328"><ele>390.0</ele><time>2026-04-11T16:14:26.046Z</time></trkpt><trkpt lat="45.15264952805781" lon="13.909877602462265"><ele>390.0</ele><time>2026-04-11T16:14:27.046Z</time></trkpt><trkpt lat="45.152466766458765" lon="13.909804257097353"><ele>390.0</ele><time>2026-04-11T16:14:28.046Z</time></trkpt><trkpt lat="45.15227821815287" lon="13.909750271651694"><ele>389.66666666666663</ele><time>2026-04-11T16:14:29.046Z</time></trkpt><trkpt lat="45.152092641830066" lon="13.909651329234814"><ele>389.3333333333333</ele><time>2026-04-11T16:14:30.046Z</time></trkpt><trkpt lat="45.15190400286647" lon="13.909576591767456"><ele>389.0</ele><time>2026-04-11T16:14:31.046Z</time></trkpt><trkpt lat="45.15171802252316" lon="13.909504958636044"><ele>388.66666666666663</ele><time>2026-04-11T16:14:32.046Z</time></trkpt><trkpt lat="45.15153331821589" lon="13.909435509930416"><ele>388.33333333333337</ele><time>2026-04-11T16:14:33.046Z</time></trkpt><trkpt lat="45.15135050639627" lon="13.909368148769849"><ele>388.0</ele><time>2026-04-11T16:14:34.046Z</time></trkpt><trkpt lat="45.15117250584203" lon="13.909301617360201"><ele>387.6666666666667</ele><time>2026-04-11T16:14:35.046Z</time></trkpt><trkpt lat="45.15100573375196" lon="13.909239727942216"><ele>387.33333333333337</ele><time>2026-04-11T16:14:36.046Z</time></trkpt><trkpt lat="45.15085198745822" lon="13.909181704082654"><ele>387.0</ele><time>2026-04-11T16:14:37.046Z</time></trkpt><trkpt lat="45.1507012497368" lon="13.909127850293274"><ele>387.0</ele><time>2026-04-11T16:14:38.046Z</time></trkpt><trkpt lat="45.15054020183084" lon="13.909087247729635"><ele>387.0</ele><time>2026-04-11T16:14:39.046Z</time></trkpt><trkpt lat="45.150402414552985" lon="13.909073871041704"><ele>387.0</ele><time>2026-04-11T16:14:40.046Z</time></trkpt><trkpt lat="45.15027231493401" lon="13.909059464752579"><ele>387.0</ele><time>2026-04-11T16:14:41.046Z</time></trkpt><trkpt lat="45.15014632469417" lon="13.909013024150745"><ele>387.0</ele><time>2026-04-11T16:14:42.046Z</time></trkpt><trkpt lat="45.150021570810885" lon="13.90901326690228"><ele>387.0</ele><time>2026-04-11T16:14:43.046Z</time></trkpt><trkpt lat="45.149906079939534" lon="13.90896811839745"><ele>387.0</ele><time>2026-04-11T16:14:44.046Z</time></trkpt><trkpt lat="45.149791675980495" lon="13.908951411418128"><ele>387.0</ele><time>2026-04-11T16:14:45.046Z</time></trkpt><trkpt lat="45.1497046055708" lon="13.90892831668628"><ele>387.0</ele><time>2026-04-11T16:14:46.046Z</time></trkpt><trkpt lat="45.149669529251405" lon="13.908848463629939"><ele>385.40000000000003</ele><time>2026-04-11T16:14:48.046Z</time></trkpt><trkpt lat="45.149603042615155" lon="13.908914960195776"><ele>383.8</ele><time>2026-04-11T16:14:50.046Z</time></trkpt><trkpt lat="45.14949484864946" lon="13.908924454539257"><ele>382.2</ele><time>2026-04-11T16:14:55.046Z</time></trkpt><trkpt lat="45.149390765267384" lon="13.908989829868828"><ele>380.6</ele><time>2026-04-11T16:14:56.046Z</time></trkpt><trkpt lat="45.14928468732341" lon="13.90904268955623"><ele>379.0</ele><time>2026-04-11T16:14:57.046Z</time></trkpt><trkpt lat="45.14916220888417" lon="13.909117035538072"><ele>378.0</ele><time>2026-04-11T16:14:58.046Z</time></trkpt><trkpt lat="45.14902612139049" lon="13.909192189739754"><ele>377.0</ele><time>2026-04-11T16:14:59.046Z</time></trkpt><trkpt lat="45.148885371939286" lon="13.909256049327066"><ele>376.0</ele><time>2026-04-11T16:15:00.046Z</time></trkpt><trkpt lat="45.14873737992715" lon="13.90932626874546"><ele>374.66666666666663</ele><time>2026-04-11T16:15:01.046Z</time></trkpt><trkpt lat="45.14859210538642" lon="13.90939982704462"><ele>373.3333333333333</ele><time>2026-04-11T16:15:02.046Z</time></trkpt><trkpt lat="45.148444544776794" lon="13.909476518428603"><ele>372.0</ele><time>2026-04-11T16:15:03.046Z</time></trkpt><trkpt lat="45.14828520525135" lon="13.909543974317753"><ele>371.3333333333333</ele><time>2026-04-11T16:15:04.046Z</time></trkpt><trkpt lat="45.14811931862776" lon="13.909593363257814"><ele>370.66666666666663</ele><time>2026-04-11T16:15:05.046Z</time></trkpt><trkpt lat="45.147946619220676" lon="13.909618380474425"><ele>370.0</ele><time>2026-04-11T16:15:06.046Z</time></trkpt><trkpt lat="45.14776151677357" lon="13.909627112900248"><ele>370.0</ele><time>2026-04-11T16:15:07.046Z</time></trkpt><trkpt lat="45.147591693780114" lon="13.909577990019562"><ele>370.0</ele><time>2026-04-11T16:15:08.046Z</time></trkpt><trkpt lat="45.14742807288406" lon="13.909551054305915"><ele>370.0</ele><time>2026-04-11T16:15:09.046Z</time></trkpt><trkpt lat="45.14727708464143" lon="13.909516044674875"><ele>369.5</ele><time>2026-04-11T16:15:10.046Z</time></trkpt><trkpt lat="45.14713501745597" lon="13.90950236210957"><ele>369.0</ele><time>2026-04-11T16:15:11.046Z</time></trkpt><trkpt lat="45.14699231597848" lon="13.909459900892188"><ele>368.5</ele><time>2026-04-11T16:15:12.046Z</time></trkpt><trkpt lat="45.14684594174671" lon="13.909390651055066"><ele>368.0</ele><time>2026-04-11T16:15:13.046Z</time></trkpt><trkpt lat="45.14670102922767" lon="13.909360850442848"><ele>368.0</ele><time>2026-04-11T16:15:14.046Z</time></trkpt><trkpt lat="45.14657029427159" lon="13.909308517574154"><ele>368.0</ele><time>2026-04-11T16:15:15.046Z</time></trkpt><trkpt lat="45.1464464950381" lon="13.909252995380218"><ele>368.0</ele><time>2026-04-11T16:15:16.046Z</time></trkpt><trkpt lat="45.14631867245897" lon="13.909194133914182"><ele>368.0</ele><time>2026-04-11T16:15:17.046Z</time></trkpt><trkpt lat="45.146187686842985" lon="13.90913966896767"><ele>368.0</ele><time>2026-04-11T16:15:18.046Z</time></trkpt><trkpt lat="45.14606525581156" lon="13.909089244807129"><ele>368.0</ele><time>2026-04-11T16:15:19.046Z</time></trkpt><trkpt lat="45.14594207802736" lon="13.909037782318238"><ele>368.0</ele><time>2026-04-11T16:15:20.046Z</time></trkpt><trkpt lat="45.145810222490624" lon="13.908993288967686"><ele>368.0</ele><time>2026-04-11T16:15:21.046Z</time></trkpt><trkpt lat="45.145673772767516" lon="13.908955320848927"><ele>368.0</ele><time>2026-04-11T16:15:22.046Z</time></trkpt><trkpt lat="45.14553554396641" lon="13.9089192879015"><ele>368.0</ele><time>2026-04-11T16:15:23.046Z</time></trkpt><trkpt lat="45.145397584221215" lon="13.908879156322966"><ele>368.0</ele><time>2026-04-11T16:15:24.046Z</time></trkpt><trkpt lat="45.14525704805194" lon="13.908841670004763"><ele>368.0</ele><time>2026-04-11T16:15:25.046Z</time></trkpt><trkpt lat="45.14511935149006" lon="13.908800860287064"><ele>368.0</ele><time>2026-04-11T16:15:26.046Z</time></trkpt><trkpt lat="45.14498418700569" lon="13.908763410596396"><ele>368.0</ele><time>2026-04-11T16:15:27.046Z</time></trkpt><trkpt lat="45.14485686926202" lon="13.908725406526955"><ele>368.0</ele><time>2026-04-11T16:15:28.046Z</time></trkpt><trkpt lat="45.14473124617756" lon="13.908696255762157"><ele>368.0</ele><time>2026-04-11T16:15:29.046Z</time></trkpt><trkpt lat="45.14460815344213" lon="13.90866485887732"><ele>368.75</ele><time>2026-04-11T16:15:30.046Z</time></trkpt><trkpt lat="45.14447778821514" lon="13.90863641034302"><ele>369.5</ele><time>2026-04-11T16:15:31.046Z</time></trkpt><trkpt lat="45.1443489742482" lon="13.908599367830522"><ele>370.25</ele><time>2026-04-11T16:15:32.046Z</time></trkpt><trkpt lat="45.14422746718331" lon="13.90857199447253"><ele>371.0</ele><time>2026-04-11T16:15:33.046Z</time></trkpt><trkpt lat="45.14411104676028" lon="13.908543955882575"><ele>371.5</ele><time>2026-04-11T16:15:34.046Z</time></trkpt><trkpt lat="45.144001197081906" lon="13.908510216275175"><ele>372.0</ele><time>2026-04-11T16:15:35.046Z</time></trkpt><trkpt lat="45.14389581981721" lon="13.908450595015115"><ele>372.5</ele><time>2026-04-11T16:15:36.046Z</time></trkpt><trkpt lat="45.143794128788315" lon="13.908338290142426"><ele>373.0</ele><time>2026-04-11T16:15:37.046Z</time></trkpt><trkpt lat="45.143709795829245" lon="13.90818789662089"><ele>373.25</ele><time>2026-04-11T16:15:38.046Z</time></trkpt><trkpt lat="45.14363968131" lon="13.908024490008252"><ele>373.5</ele><time>2026-04-11T16:15:39.046Z</time></trkpt><trkpt lat="45.14356082626167" lon="13.907842717381586"><ele>373.75</ele><time>2026-04-11T16:15:40.046Z</time></trkpt><trkpt lat="45.14351819571279" lon="13.907638024231536"><ele>374.0</ele><time>2026-04-11T16:15:41.046Z</time></trkpt><trkpt lat="45.143477247518305" lon="13.907445713807808"><ele>374.0</ele><time>2026-04-11T16:15:42.046Z</time></trkpt><trkpt lat="45.14345547281773" lon="13.90724233092318"><ele>374.0</ele><time>2026-04-11T16:15:43.046Z</time></trkpt><trkpt lat="45.143436796136086" lon="13.907024931446065"><ele>374.0</ele><time>2026-04-11T16:15:44.046Z</time></trkpt><trkpt lat="45.14340441756275" lon="13.906812460706695"><ele>373.75</ele><time>2026-04-11T16:15:45.046Z</time></trkpt><trkpt lat="45.14338910543389" lon="13.906615515217426"><ele>373.5</ele><time>2026-04-11T16:15:46.046Z</time></trkpt><trkpt lat="45.143392263963776" lon="13.906423713244948"><ele>373.25</ele><time>2026-04-11T16:15:47.046Z</time></trkpt><trkpt lat="45.14335353111725" lon="13.906273217823916"><ele>373.0</ele><time>2026-04-11T16:15:48.046Z</time></trkpt><trkpt lat="45.14330577878761" lon="13.906142327528157"><ele>373.25</ele><time>2026-04-11T16:15:49.046Z</time></trkpt><trkpt lat="45.14321079159843" lon="13.90602136222892"><ele>373.5</ele><time>2026-04-11T16:15:50.046Z</time></trkpt><trkpt lat="45.143082719191995" lon="13.905902165787522"><ele>373.75</ele><time>2026-04-11T16:15:51.046Z</time></trkpt><trkpt lat="45.142998887043284" lon="13.905734852219597"><ele>374.0</ele><time>2026-04-11T16:15:52.046Z</time></trkpt><trkpt lat="45.142929657284014" lon="13.905563932024657"><ele>374.0</ele><time>2026-04-11T16:15:53.046Z</time></trkpt><trkpt lat="45.14286976546413" lon="13.905385290041407"><ele>374.0</ele><time>2026-04-11T16:15:54.046Z</time></trkpt><trkpt lat="45.142834443004695" lon="13.905207341555698"><ele>374.0</ele><time>2026-04-11T16:15:55.046Z</time></trkpt><trkpt lat="45.14280189936914" lon="13.905028700931094"><ele>374.0</ele><time>2026-04-11T16:15:56.046Z</time></trkpt><trkpt lat="45.1427708621784" lon="13.904855858164852"><ele>371.5</ele><time>2026-04-11T16:15:57.046Z</time></trkpt><trkpt lat="45.1427384189308" lon="13.904682164267058"><ele>369.0</ele><time>2026-04-11T16:15:58.046Z</time></trkpt><trkpt lat="45.14270528758674" lon="13.90451011622112"><ele>366.5</ele><time>2026-04-11T16:15:59.046Z</time></trkpt><trkpt lat="45.142674851066275" lon="13.904354781463004"><ele>364.0</ele><time>2026-04-11T16:16:00.046Z</time></trkpt><trkpt lat="45.142639724557775" lon="13.904183099413068"><ele>363.79999999999995</ele><time>2026-04-11T16:16:01.048Z</time></trkpt><trkpt lat="45.14260555506751" lon="13.904023723593479"><ele>363.59999999999997</ele><time>2026-04-11T16:16:02.048Z</time></trkpt><trkpt lat="45.14255784973961" lon="13.903882060845225"><ele>363.4</ele><time>2026-04-11T16:16:03.048Z</time></trkpt><trkpt lat="45.142536494262565" lon="13.903730471516633"><ele>363.2</ele><time>2026-04-11T16:16:04.047Z</time></trkpt><trkpt lat="45.14248496970424" lon="13.903608166857195"><ele>363.0</ele><time>2026-04-11T16:16:05.048Z</time></trkpt><trkpt lat="45.14240528271228" lon="13.903525444452626"><ele>361.2</ele><time>2026-04-11T16:16:06.048Z</time></trkpt><trkpt lat="45.14230102004633" lon="13.903467540738749"><ele>359.4</ele><time>2026-04-11T16:16:07.048Z</time></trkpt><trkpt lat="45.142211980368856" lon="13.903408608139436"><ele>357.59999999999997</ele><time>2026-04-11T16:16:08.048Z</time></trkpt><trkpt lat="45.14212880198725" lon="13.903328784784534"><ele>355.79999999999995</ele><time>2026-04-11T16:16:09.048Z</time></trkpt><trkpt lat="45.142036846315406" lon="13.903250258299842"><ele>354.0</ele><time>2026-04-11T16:16:10.048Z</time></trkpt><trkpt lat="45.141937504944906" lon="13.903167776093373"><ele>353.75</ele><time>2026-04-11T16:16:11.048Z</time></trkpt><trkpt lat="45.14183909441019" lon="13.90307733470457"><ele>353.5</ele><time>2026-04-11T16:16:12.048Z</time></trkpt><trkpt lat="45.141738238757995" lon="13.902978723384281"><ele>353.25</ele><time>2026-04-11T16:16:13.048Z</time></trkpt><trkpt lat="45.14164479512398" lon="13.902864093037387"><ele>353.0</ele><time>2026-04-11T16:16:14.048Z</time></trkpt><trkpt lat="45.141563688958776" lon="13.902726215604067"><ele>352.4</ele><time>2026-04-11T16:16:15.048Z</time></trkpt><trkpt lat="45.14150141381063" lon="13.902579689745934"><ele>351.79999999999995</ele><time>2026-04-11T16:16:16.048Z</time></trkpt><trkpt lat="45.14145445436346" lon="13.902435863329652"><ele>351.2</ele><time>2026-04-11T16:16:17.048Z</time></trkpt><trkpt lat="45.141413439431474" lon="13.902292573698704"><ele>350.6</ele><time>2026-04-11T16:16:18.048Z</time></trkpt><trkpt lat="45.14139019345771" lon="13.902144768622447"><ele>350.0</ele><time>2026-04-11T16:16:19.048Z</time></trkpt><trkpt lat="45.14135137049626" lon="13.902007248597767"><ele>350.0</ele><time>2026-04-11T16:16:20.048Z</time></trkpt><trkpt lat="45.141326287038545" lon="13.901854517463867"><ele>350.0</ele><time>2026-04-11T16:16:21.048Z</time></trkpt><trkpt lat="45.14130389447057" lon="13.901710243707566"><ele>350.0</ele><time>2026-04-11T16:16:22.048Z</time></trkpt><trkpt lat="45.141297135296625" lon="13.901565230321223"><ele>350.0</ele><time>2026-04-11T16:16:23.048Z</time></trkpt><trkpt lat="45.141305338793096" lon="13.901440264463801"><ele>350.0</ele><time>2026-04-11T16:16:24.048Z</time></trkpt><trkpt lat="45.14132030871118" lon="13.901323754084714"><ele>350.0</ele><time>2026-04-11T16:16:25.048Z</time></trkpt><trkpt lat="45.14132914860283" lon="13.901226495392628"><ele>350.0</ele><time>2026-04-11T16:16:26.048Z</time></trkpt><trkpt lat="45.14137935752666" lon="13.901095988856165"><ele>350.0</ele><time>2026-04-11T16:16:28.048Z</time></trkpt><trkpt lat="45.14141806668255" lon="13.900957380493573"><ele>350.0</ele><time>2026-04-11T16:16:30.048Z</time></trkpt><trkpt lat="45.14135238532276" lon="13.900861060907545"><ele>350.0</ele><time>2026-04-11T16:16:32.048Z</time></trkpt><trkpt lat="45.141246779268606" lon="13.900867081227243"><ele>350.6666666666667</ele><time>2026-04-11T16:16:34.048Z</time></trkpt><trkpt lat="45.1411753545996" lon="13.900919235331425"><ele>351.33333333333337</ele><time>2026-04-11T16:16:35.048Z</time></trkpt><trkpt lat="45.14109446712093" lon="13.900954168621114"><ele>352.0</ele><time>2026-04-11T16:16:36.048Z</time></trkpt><trkpt lat="45.141014495877656" lon="13.900975622255167"><ele>352.6666666666667</ele><time>2026-04-11T16:16:37.048Z</time></trkpt><trkpt lat="45.14093923741284" lon="13.9010245295674"><ele>353.3333333333333</ele><time>2026-04-11T16:16:38.048Z</time></trkpt><trkpt lat="45.14083218505958" lon="13.90100282270795"><ele>354.0</ele><time>2026-04-11T16:16:39.048Z</time></trkpt><trkpt lat="45.1407137252589" lon="13.90102097530995"><ele>354.75</ele><time>2026-04-11T16:16:40.048Z</time></trkpt><trkpt lat="45.14058235752609" lon="13.901043657879843"><ele>355.5</ele><time>2026-04-11T16:16:41.048Z</time></trkpt><trkpt lat="45.14046157776166" lon="13.901065872048438"><ele>356.25</ele><time>2026-04-11T16:16:42.048Z</time></trkpt><trkpt lat="45.14034426958248" lon="13.901087027563339"><ele>357.0</ele><time>2026-04-11T16:16:43.048Z</time></trkpt><trkpt lat="45.140221861383786" lon="13.901112285210017"><ele>357.0</ele><time>2026-04-11T16:16:44.048Z</time></trkpt><trkpt lat="45.14009615156661" lon="13.901132561965516"><ele>357.0</ele><time>2026-04-11T16:16:45.048Z</time></trkpt><trkpt lat="45.139965681381234" lon="13.901139865055105"><ele>357.0</ele><time>2026-04-11T16:16:46.048Z</time></trkpt><trkpt lat="45.13983317898947" lon="13.90115418582401"><ele>357.0</ele><time>2026-04-11T16:16:47.048Z</time></trkpt><trkpt lat="45.13969737348208" lon="13.901151580709904"><ele>357.5</ele><time>2026-04-11T16:16:48.048Z</time></trkpt><trkpt lat="45.13955617704932" lon="13.90114957205684"><ele>358.0</ele><time>2026-04-11T16:16:49.048Z</time></trkpt><trkpt lat="45.13940696080884" lon="13.901135501932774"><ele>358.5</ele><time>2026-04-11T16:16:50.048Z</time></trkpt><trkpt lat="45.13925770006444" lon="13.90112330896716"><ele>359.0</ele><time>2026-04-11T16:16:51.048Z</time></trkpt><trkpt lat="45.1391076545562" lon="13.901107949726951"><ele>359.33333333333337</ele><time>2026-04-11T16:16:52.048Z</time></trkpt><trkpt lat="45.138957847425075" lon="13.901088038707403"><ele>359.6666666666667</ele><time>2026-04-11T16:16:53.048Z</time></trkpt><trkpt lat="45.13880609462239" lon="13.901059554935722"><ele>360.0</ele><time>2026-04-11T16:16:54.048Z</time></trkpt><trkpt lat="45.13865801223284" lon="13.90102493593898"><ele>360.0</ele><time>2026-04-11T16:16:55.048Z</time></trkpt><trkpt lat="45.13851792272243" lon="13.900994215106154"><ele>360.0</ele><time>2026-04-11T16:16:56.048Z</time></trkpt><trkpt lat="45.1383792521013" lon="13.900963177519138"><ele>360.0</ele><time>2026-04-11T16:16:57.048Z</time></trkpt><trkpt lat="45.138230823653494" lon="13.900927776304144"><ele>360.0</ele><time>2026-04-11T16:16:58.048Z</time></trkpt><trkpt lat="45.138078813696545" lon="13.90087214715071"><ele>359.0</ele><time>2026-04-11T16:16:59.048Z</time></trkpt><trkpt lat="45.13792070019004" lon="13.900807082216902"><ele>358.0</ele><time>2026-04-11T16:17:00.048Z</time></trkpt><trkpt lat="45.137764153732" lon="13.900726522114791"><ele>357.0</ele><time>2026-04-11T16:17:01.048Z</time></trkpt><trkpt lat="45.13761335293679" lon="13.900609891309974"><ele>357.0</ele><time>2026-04-11T16:17:02.048Z</time></trkpt><trkpt lat="45.137455072915344" lon="13.900512244810447"><ele>357.0</ele><time>2026-04-11T16:17:03.048Z</time></trkpt><trkpt lat="45.13729693089013" lon="13.900380856029777"><ele>357.0</ele><time>2026-04-11T16:17:04.048Z</time></trkpt><trkpt lat="45.13713881663109" lon="13.90021317067002"><ele>356.0</ele><time>2026-04-11T16:17:05.048Z</time></trkpt><trkpt lat="45.13695963969074" lon="13.900043899056529"><ele>355.0</ele><time>2026-04-11T16:17:06.048Z</time></trkpt><trkpt lat="45.13677092425717" lon="13.899864358901516"><ele>354.0</ele><time>2026-04-11T16:17:07.048Z</time></trkpt><trkpt lat="45.13657934281269" lon="13.899686272138737"><ele>354.0</ele><time>2026-04-11T16:17:08.048Z</time></trkpt><trkpt lat="45.13638172077508" lon="13.899526175032104"><ele>354.0</ele><time>2026-04-11T16:17:09.048Z</time></trkpt><trkpt lat="45.136188611902305" lon="13.899338680106819"><ele>354.5</ele><time>2026-04-11T16:17:10.048Z</time></trkpt><trkpt lat="45.135990417192595" lon="13.899144736957386"><ele>355.0</ele><time>2026-04-11T16:17:11.048Z</time></trkpt><trkpt lat="45.135795767331416" lon="13.898960864690325"><ele>357.0</ele><time>2026-04-11T16:17:12.048Z</time></trkpt><trkpt lat="45.13559955630169" lon="13.898775593197133"><ele>359.0</ele><time>2026-04-11T16:17:13.048Z</time></trkpt><trkpt lat="45.135404085772066" lon="13.898591088229114"><ele>358.5</ele><time>2026-04-11T16:17:14.048Z</time></trkpt><trkpt lat="45.13520823378371" lon="13.898403883906925"><ele>358.0</ele><time>2026-04-11T16:17:15.048Z</time></trkpt><trkpt lat="45.13501532010931" lon="13.898215160549485"><ele>358.0</ele><time>2026-04-11T16:17:16.048Z</time></trkpt><trkpt lat="45.13482601003604" lon="13.898032183269803"><ele>358.0</ele><time>2026-04-11T16:17:17.048Z</time></trkpt><trkpt lat="45.134634380049484" lon="13.897855622265931"><ele>358.0</ele><time>2026-04-11T16:17:18.048Z</time></trkpt><trkpt lat="45.13443935683553" lon="13.897684985111065"><ele>358.0</ele><time>2026-04-11T16:17:19.048Z</time></trkpt><trkpt lat="45.13425481614981" lon="13.89750210071832"><ele>356.5</ele><time>2026-04-11T16:17:20.048Z</time></trkpt><trkpt lat="45.13405286997113" lon="13.89735377208378"><ele>355.0</ele><time>2026-04-11T16:17:21.048Z</time></trkpt><trkpt lat="45.133849923365496" lon="13.89721143424118"><ele>355.0</ele><time>2026-04-11T16:17:22.048Z</time></trkpt><trkpt lat="45.13364551335863" lon="13.897068085700909"><ele>355.0</ele><time>2026-04-11T16:17:23.048Z</time></trkpt><trkpt lat="45.13344333465009" lon="13.89691819641454"><ele>355.0</ele><time>2026-04-11T16:17:24.048Z</time></trkpt><trkpt lat="45.13324170905462" lon="13.896765070968197"><ele>355.0</ele><time>2026-04-11T16:17:25.048Z</time></trkpt><trkpt lat="45.13303880959113" lon="13.89660828519845"><ele>354.0</ele><time>2026-04-11T16:17:26.048Z</time></trkpt><trkpt lat="45.13283764803113" lon="13.896445974283779"><ele>353.0</ele><time>2026-04-11T16:17:27.048Z</time></trkpt><trkpt lat="45.132633343414355" lon="13.896281433482669"><ele>353.0</ele><time>2026-04-11T16:17:28.048Z</time></trkpt><trkpt lat="45.1324359789767" lon="13.896099281415161"><ele>353.0</ele><time>2026-04-11T16:17:29.048Z</time></trkpt><trkpt lat="45.13224636085154" lon="13.895907031707072"><ele>353.33333333333337</ele><time>2026-04-11T16:17:30.048Z</time></trkpt><trkpt lat="45.13207716276893" lon="13.895698973053669"><ele>353.6666666666667</ele><time>2026-04-11T16:17:31.048Z</time></trkpt><trkpt lat="45.131912940347384" lon="13.895489162722996"><ele>354.0</ele><time>2026-04-11T16:17:32.048Z</time></trkpt><trkpt lat="45.13175565800288" lon="13.895277532512022"><ele>354.6666666666667</ele><time>2026-04-11T16:17:33.048Z</time></trkpt><trkpt lat="45.13159972404981" lon="13.895069637115636"><ele>355.33333333333337</ele><time>2026-04-11T16:17:34.048Z</time></trkpt><trkpt lat="45.13144717757067" lon="13.894868648515782"><ele>356.0</ele><time>2026-04-11T16:17:35.048Z</time></trkpt><trkpt lat="45.13129398073844" lon="13.894668774015726"><ele>358.0</ele><time>2026-04-11T16:17:36.048Z</time></trkpt><trkpt lat="45.13113885992412" lon="13.894478776602066"><ele>360.0</ele><time>2026-04-11T16:17:37.048Z</time></trkpt><trkpt lat="45.13097693414056" lon="13.894302509352503"><ele>362.0</ele><time>2026-04-11T16:17:38.048Z</time></trkpt><trkpt lat="45.13081384624072" lon="13.894137117464867"><ele>361.33333333333337</ele><time>2026-04-11T16:17:39.048Z</time></trkpt><trkpt lat="45.13064746934463" lon="13.893980665471835"><ele>360.6666666666667</ele><time>2026-04-11T16:17:40.048Z</time></trkpt><trkpt lat="45.13047492015218" lon="13.893845510775913"><ele>360.0</ele><time>2026-04-11T16:17:41.048Z</time></trkpt><trkpt lat="45.13028532566309" lon="13.893739824785463"><ele>360.0</ele><time>2026-04-11T16:17:42.048Z</time></trkpt><trkpt lat="45.13008874964787" lon="13.893640490383811"><ele>360.0</ele><time>2026-04-11T16:17:43.048Z</time></trkpt><trkpt lat="45.12988775505426" lon="13.893540497859274"><ele>360.0</ele><time>2026-04-11T16:17:44.048Z</time></trkpt><trkpt lat="45.12967950035583" lon="13.893446373756476"><ele>360.3333333333333</ele><time>2026-04-11T16:17:45.048Z</time></trkpt><trkpt lat="45.129471967443344" lon="13.893348997935764"><ele>360.66666666666663</ele><time>2026-04-11T16:17:46.048Z</time></trkpt><trkpt lat="45.12926128839443" lon="13.89324788202057"><ele>361.0</ele><time>2026-04-11T16:17:47.048Z</time></trkpt><trkpt lat="45.129053336207484" lon="13.89313709783762"><ele>360.3333333333333</ele><time>2026-04-11T16:17:48.048Z</time></trkpt><trkpt lat="45.12884971455681" lon="13.8930163943011"><ele>359.6666666666667</ele><time>2026-04-11T16:17:49.048Z</time></trkpt><trkpt lat="45.128654271818604" lon="13.892878116575153"><ele>359.0</ele><time>2026-04-11T16:17:50.048Z</time></trkpt><trkpt lat="45.12847759349811" lon="13.89270156939596"><ele>359.0</ele><time>2026-04-11T16:17:51.048Z</time></trkpt><trkpt lat="45.12829177266728" lon="13.892540561694855"><ele>359.0</ele><time>2026-04-11T16:17:52.048Z</time></trkpt><trkpt lat="45.128110280364346" lon="13.892360606166168"><ele>359.0</ele><time>2026-04-11T16:17:53.048Z</time></trkpt><trkpt lat="45.127924634237566" lon="13.892176227516433"><ele>357.5</ele><time>2026-04-11T16:17:54.048Z</time></trkpt><trkpt lat="45.127736086846305" lon="13.89199539936913"><ele>356.0</ele><time>2026-04-11T16:17:55.048Z</time></trkpt><trkpt lat="45.12754678049742" lon="13.891810592112947"><ele>355.0</ele><time>2026-04-11T16:17:56.048Z</time></trkpt><trkpt lat="45.127361273943876" lon="13.89161998589812"><ele>354.0</ele><time>2026-04-11T16:17:57.048Z</time></trkpt><trkpt lat="45.127182148692555" lon="13.891420026739642"><ele>354.0</ele><time>2026-04-11T16:17:58.048Z</time></trkpt><trkpt lat="45.12702542104578" lon="13.891199193192968"><ele>354.0</ele><time>2026-04-11T16:17:59.048Z</time></trkpt><trkpt lat="45.12687407602877" lon="13.890996765678448"><ele>354.0</ele><time>2026-04-11T16:18:00.048Z</time></trkpt><trkpt lat="45.126724409537744" lon="13.890793636513887"><ele>354.0</ele><time>2026-04-11T16:18:01.048Z</time></trkpt><trkpt lat="45.126560347270974" lon="13.89060340312965"><ele>354.0</ele><time>2026-04-11T16:18:02.048Z</time></trkpt><trkpt lat="45.12641403493269" lon="13.890393104436868"><ele>354.0</ele><time>2026-04-11T16:18:03.048Z</time></trkpt><trkpt lat="45.126262620497094" lon="13.890189542795564"><ele>354.3333333333333</ele><time>2026-04-11T16:18:04.048Z</time></trkpt><trkpt lat="45.126114018728906" lon="13.889979666846703"><ele>354.66666666666663</ele><time>2026-04-11T16:18:05.048Z</time></trkpt><trkpt lat="45.12595495482979" lon="13.889776732935912"><ele>355.0</ele><time>2026-04-11T16:18:06.048Z</time></trkpt><trkpt lat="45.12579463675965" lon="13.889582600432158"><ele>354.0</ele><time>2026-04-11T16:18:07.05Z</time></trkpt><trkpt lat="45.12562417657657" lon="13.88939653983718"><ele>353.0</ele><time>2026-04-11T16:18:08.051Z</time></trkpt><trkpt lat="45.12545928170182" lon="13.88920462461568"><ele>352.0</ele><time>2026-04-11T16:18:09.051Z</time></trkpt><trkpt lat="45.1252800672922" lon="13.889034900254414"><ele>352.0</ele><time>2026-04-11T16:18:10.05Z</time></trkpt><trkpt lat="45.12509318298117" lon="13.888869209226996"><ele>352.0</ele><time>2026-04-11T16:18:11.05Z</time></trkpt><trkpt lat="45.124907488109244" lon="13.888713725944669"><ele>352.0</ele><time>2026-04-11T16:18:12.05Z</time></trkpt><trkpt lat="45.12473385597841" lon="13.888541634290005"><ele>351.66666666666663</ele><time>2026-04-11T16:18:13.05Z</time></trkpt><trkpt lat="45.12455036249431" lon="13.888379605949531"><ele>351.3333333333333</ele><time>2026-04-11T16:18:14.051Z</time></trkpt><trkpt lat="45.1243664776584" lon="13.888206420219456"><ele>351.0</ele><time>2026-04-11T16:18:15.051Z</time></trkpt><trkpt lat="45.12418662856831" lon="13.888036316367664"><ele>351.0</ele><time>2026-04-11T16:18:16.051Z</time></trkpt><trkpt lat="45.12400661762033" lon="13.887867543894302"><ele>351.0</ele><time>2026-04-11T16:18:17.05Z</time></trkpt><trkpt lat="45.12382243833032" lon="13.887698329695247"><ele>351.0</ele><time>2026-04-11T16:18:18.05Z</time></trkpt><trkpt lat="45.12363706481487" lon="13.887535018214605"><ele>351.0</ele><time>2026-04-11T16:18:19.051Z</time></trkpt><trkpt lat="45.12345675332403" lon="13.887367490058852"><ele>351.0</ele><time>2026-04-11T16:18:20.051Z</time></trkpt><trkpt lat="45.12327463065974" lon="13.887202480796804"><ele>351.0</ele><time>2026-04-11T16:18:21.051Z</time></trkpt><trkpt lat="45.1230965999754" lon="13.887030587379234"><ele>350.6666666666667</ele><time>2026-04-11T16:18:22.051Z</time></trkpt><trkpt lat="45.122911932216205" lon="13.886868927992118"><ele>350.33333333333337</ele><time>2026-04-11T16:18:23.051Z</time></trkpt><trkpt lat="45.122727976667875" lon="13.886702320140586"><ele>350.0</ele><time>2026-04-11T16:18:24.051Z</time></trkpt><trkpt lat="45.1225434171802" lon="13.88653191214361"><ele>349.33333333333337</ele><time>2026-04-11T16:18:25.051Z</time></trkpt><trkpt lat="45.12236119766052" lon="13.886363876512302"><ele>348.6666666666667</ele><time>2026-04-11T16:18:26.051Z</time></trkpt><trkpt lat="45.12217851894062" lon="13.886195604320086"><ele>348.0</ele><time>2026-04-11T16:18:27.051Z</time></trkpt><trkpt lat="45.12199507785104" lon="13.886029717465478"><ele>347.0</ele><time>2026-04-11T16:18:28.051Z</time></trkpt><trkpt lat="45.121818399292515" lon="13.885865215443323"><ele>346.0</ele><time>2026-04-11T16:18:29.051Z</time></trkpt><trkpt lat="45.121647280180326" lon="13.885707088318856"><ele>345.0</ele><time>2026-04-11T16:18:30.051Z</time></trkpt><trkpt lat="45.12147356161043" lon="13.885547335164313"><ele>342.3333333333333</ele><time>2026-04-11T16:18:31.051Z</time></trkpt><trkpt lat="45.121296035717656" lon="13.885392535624021"><ele>339.66666666666663</ele><time>2026-04-11T16:18:32.051Z</time></trkpt><trkpt lat="45.121110207730425" lon="13.885251986094627"><ele>337.0</ele><time>2026-04-11T16:18:33.051Z</time></trkpt><trkpt lat="45.12091888841158" lon="13.885120459696289"><ele>338.66666666666663</ele><time>2026-04-11T16:18:34.051Z</time></trkpt><trkpt lat="45.12072029104949" lon="13.885025442797726"><ele>340.3333333333333</ele><time>2026-04-11T16:18:35.051Z</time></trkpt><trkpt lat="45.12051845157393" lon="13.884948030050777"><ele>342.0</ele><time>2026-04-11T16:18:36.051Z</time></trkpt><trkpt lat="45.12031242414071" lon="13.88488504743006"><ele>342.0</ele><time>2026-04-11T16:18:37.051Z</time></trkpt><trkpt lat="45.12009860191253" lon="13.884836832597255"><ele>342.0</ele><time>2026-04-11T16:18:38.051Z</time></trkpt><trkpt lat="45.11989742297579" lon="13.884766772129712"><ele>342.0</ele><time>2026-04-11T16:18:39.051Z</time></trkpt><trkpt lat="45.11969940463361" lon="13.884689622709239"><ele>342.6666666666667</ele><time>2026-04-11T16:18:40.051Z</time></trkpt><trkpt lat="45.11950221621048" lon="13.884614800560895"><ele>343.33333333333337</ele><time>2026-04-11T16:18:41.051Z</time></trkpt><trkpt lat="45.119306969728655" lon="13.884548516109549"><ele>344.0</ele><time>2026-04-11T16:18:42.051Z</time></trkpt><trkpt lat="45.1191130078752" lon="13.884486458312011"><ele>344.0</ele><time>2026-04-11T16:18:43.051Z</time></trkpt><trkpt lat="45.11891481471118" lon="13.884430768851857"><ele>344.0</ele><time>2026-04-11T16:18:44.051Z</time></trkpt><trkpt lat="45.118716975418536" lon="13.884391143061844"><ele>344.0</ele><time>2026-04-11T16:18:45.051Z</time></trkpt><trkpt lat="45.11851762458441" lon="13.884366962002149"><ele>344.0</ele><time>2026-04-11T16:18:46.051Z</time></trkpt><trkpt lat="45.1183207162912" lon="13.88436471498959"><ele>344.0</ele><time>2026-04-11T16:18:47.051Z</time></trkpt><trkpt lat="45.1181192902756" lon="13.884381718450822"><ele>344.0</ele><time>2026-04-11T16:18:48.051Z</time></trkpt><trkpt lat="45.11791862859962" lon="13.884408949727923"><ele>343.33333333333337</ele><time>2026-04-11T16:18:49.051Z</time></trkpt><trkpt lat="45.11771667563057" lon="13.884446417952642"><ele>342.6666666666667</ele><time>2026-04-11T16:18:50.051Z</time></trkpt><trkpt lat="45.11751631060175" lon="13.884476216181206"><ele>342.0</ele><time>2026-04-11T16:18:51.051Z</time></trkpt><trkpt lat="45.11730729062335" lon="13.884495200170562"><ele>342.0</ele><time>2026-04-11T16:18:52.051Z</time></trkpt><trkpt lat="45.117098447781764" lon="13.88450404909273"><ele>342.0</ele><time>2026-04-11T16:18:53.051Z</time></trkpt><trkpt lat="45.11689104898991" lon="13.884496493965205"><ele>342.0</ele><time>2026-04-11T16:18:54.051Z</time></trkpt><trkpt lat="45.116681502260704" lon="13.884462648888201"><ele>341.3333333333333</ele><time>2026-04-11T16:18:55.051Z</time></trkpt><trkpt lat="45.11647817020825" lon="13.88438790961595"><ele>340.66666666666663</ele><time>2026-04-11T16:18:56.051Z</time></trkpt><trkpt lat="45.116274121317446" lon="13.8843123781787"><ele>340.0</ele><time>2026-04-11T16:18:57.051Z</time></trkpt><trkpt lat="45.11607072478725" lon="13.884217435542414"><ele>338.66666666666663</ele><time>2026-04-11T16:18:58.051Z</time></trkpt><trkpt lat="45.115866858446" lon="13.884100667709909"><ele>337.3333333333333</ele><time>2026-04-11T16:18:59.051Z</time></trkpt><trkpt lat="45.11567483742828" lon="13.883977148272745"><ele>336.0</ele><time>2026-04-11T16:19:00.051Z</time></trkpt><trkpt lat="45.115476781862334" lon="13.883832117065715"><ele>335.6666666666667</ele><time>2026-04-11T16:19:01.051Z</time></trkpt><trkpt lat="45.11528035985313" lon="13.883674376550589"><ele>335.33333333333337</ele><time>2026-04-11T16:19:02.051Z</time></trkpt><trkpt lat="45.115086848149005" lon="13.883515807972818"><ele>335.0</ele><time>2026-04-11T16:19:03.051Z</time></trkpt><trkpt lat="45.11489071594538" lon="13.883360219415135"><ele>333.5</ele><time>2026-04-11T16:19:04.051Z</time></trkpt><trkpt lat="45.11468612079499" lon="13.88320665196857"><ele>332.0</ele><time>2026-04-11T16:19:05.051Z</time></trkpt><trkpt lat="45.11448523072906" lon="13.883050290805643"><ele>332.0</ele><time>2026-04-11T16:19:06.051Z</time></trkpt><trkpt lat="45.1142917928044" lon="13.882899715280695"><ele>332.0</ele><time>2026-04-11T16:19:07.051Z</time></trkpt><trkpt lat="45.114097934611415" lon="13.882766667071357"><ele>332.0</ele><time>2026-04-11T16:19:08.051Z</time></trkpt><trkpt lat="45.11390407165435" lon="13.88266736643571"><ele>331.0</ele><time>2026-04-11T16:19:09.051Z</time></trkpt><trkpt lat="45.11369991282975" lon="13.882596187350968"><ele>330.0</ele><time>2026-04-11T16:19:10.051Z</time></trkpt><trkpt lat="45.11349457988609" lon="13.882552623219404"><ele>329.0</ele><time>2026-04-11T16:19:11.051Z</time></trkpt><trkpt lat="45.113283959585765" lon="13.88254339685554"><ele>330.0</ele><time>2026-04-11T16:19:12.051Z</time></trkpt><trkpt lat="45.11307248889112" lon="13.88257287808979"><ele>331.0</ele><time>2026-04-11T16:19:13.051Z</time></trkpt><trkpt lat="45.112868072860344" lon="13.882612882976112"><ele>332.0</ele><time>2026-04-11T16:19:14.051Z</time></trkpt><trkpt lat="45.11266924042641" lon="13.882666437068032"><ele>332.33333333333337</ele><time>2026-04-11T16:19:15.051Z</time></trkpt><trkpt lat="45.112462827983116" lon="13.88272507349664"><ele>332.6666666666667</ele><time>2026-04-11T16:19:16.051Z</time></trkpt><trkpt lat="45.11225652749147" lon="13.882789549043954"><ele>333.0</ele><time>2026-04-11T16:19:17.051Z</time></trkpt><trkpt lat="45.112048772829965" lon="13.882863702990447"><ele>333.0</ele><time>2026-04-11T16:19:18.051Z</time></trkpt><trkpt lat="45.11182956101526" lon="13.882935219484088"><ele>333.0</ele><time>2026-04-11T16:19:19.051Z</time></trkpt><trkpt lat="45.11161164381107" lon="13.883009723510163"><ele>333.0</ele><time>2026-04-11T16:19:20.051Z</time></trkpt><trkpt lat="45.11139655378032" lon="13.883078553389948"><ele>333.0</ele><time>2026-04-11T16:19:21.05Z</time></trkpt><trkpt lat="45.111182790715326" lon="13.883134677618463"><ele>333.0</ele><time>2026-04-11T16:19:22.049Z</time></trkpt><trkpt lat="45.11096696803926" lon="13.883177220856371"><ele>333.0</ele><time>2026-04-11T16:19:23.048Z</time></trkpt><trkpt lat="45.11075124217398" lon="13.883201882221778"><ele>332.3333333333333</ele><time>2026-04-11T16:19:24.047Z</time></trkpt><trkpt lat="45.110532730224755" lon="13.883213750034106"><ele>331.66666666666663</ele><time>2026-04-11T16:19:25.047Z</time></trkpt><trkpt lat="45.11031080657173" lon="13.883227661222355"><ele>331.0</ele><time>2026-04-11T16:19:26.046Z</time></trkpt><trkpt lat="45.110087653658354" lon="13.883246465041525"><ele>330.66666666666663</ele><time>2026-04-11T16:19:27.045Z</time></trkpt><trkpt lat="45.1098637984645" lon="13.883263968033932"><ele>330.3333333333333</ele><time>2026-04-11T16:19:28.045Z</time></trkpt><trkpt lat="45.10964129514028" lon="13.883284895348094"><ele>330.0</ele><time>2026-04-11T16:19:29.044Z</time></trkpt><trkpt lat="45.10941908030838" lon="13.883308660477507"><ele>330.0</ele><time>2026-04-11T16:19:30.044Z</time></trkpt><trkpt lat="45.109199612190366" lon="13.8833430647373"><ele>330.0</ele><time>2026-04-11T16:19:31.043Z</time></trkpt><trkpt lat="45.108986088036616" lon="13.883402080926764"><ele>330.0</ele><time>2026-04-11T16:19:32.043Z</time></trkpt><trkpt lat="45.10878179812191" lon="13.88347110388213"><ele>330.3333333333333</ele><time>2026-04-11T16:19:33.042Z</time></trkpt><trkpt lat="45.10858630148791" lon="13.88353556137457"><ele>330.66666666666663</ele><time>2026-04-11T16:19:34.042Z</time></trkpt><trkpt lat="45.10839730026185" lon="13.883589814583319"><ele>331.0</ele><time>2026-04-11T16:19:35.042Z</time></trkpt><trkpt lat="45.108216073871276" lon="13.88364559013902"><ele>331.0</ele><time>2026-04-11T16:19:36.041Z</time></trkpt><trkpt lat="45.108038787546185" lon="13.88367854376912"><ele>331.0</ele><time>2026-04-11T16:19:37.041Z</time></trkpt><trkpt lat="45.10786103279653" lon="13.883704087761888"><ele>331.0</ele><time>2026-04-11T16:19:38.041Z</time></trkpt><trkpt lat="45.10768321218242" lon="13.883712361360733"><ele>331.0</ele><time>2026-04-11T16:19:39.04Z</time></trkpt><trkpt lat="45.107507614679974" lon="13.883708040351598"><ele>331.0</ele><time>2026-04-11T16:19:40.04Z</time></trkpt><trkpt lat="45.10733194729909" lon="13.883701097279317"><ele>331.0</ele><time>2026-04-11T16:19:41.04Z</time></trkpt><trkpt lat="45.10715801237744" lon="13.883696716452038"><ele>330.66666666666663</ele><time>2026-04-11T16:19:42.04Z</time></trkpt><trkpt lat="45.106981668069245" lon="13.883695258130654"><ele>330.3333333333333</ele><time>2026-04-11T16:19:43.039Z</time></trkpt><trkpt lat="45.106811694521255" lon="13.883692718830359"><ele>330.0</ele><time>2026-04-11T16:19:44.039Z</time></trkpt><trkpt lat="45.106642279937695" lon="13.88368864158627"><ele>330.0</ele><time>2026-04-11T16:19:45.039Z</time></trkpt><trkpt lat="45.10647421402211" lon="13.883681605700136"><ele>330.0</ele><time>2026-04-11T16:19:46.039Z</time></trkpt><trkpt lat="45.106306326065365" lon="13.883675206087945"><ele>330.0</ele><time>2026-04-11T16:19:47.039Z</time></trkpt><trkpt lat="45.10613701482944" lon="13.883667257755706"><ele>330.0</ele><time>2026-04-11T16:19:48.038Z</time></trkpt><trkpt lat="45.10596872256932" lon="13.883654498126221"><ele>330.0</ele><time>2026-04-11T16:19:49.038Z</time></trkpt><trkpt lat="45.10580355162667" lon="13.883639729519917"><ele>330.0</ele><time>2026-04-11T16:19:50.038Z</time></trkpt><trkpt lat="45.10563630001253" lon="13.883607493230985"><ele>329.3333333333333</ele><time>2026-04-11T16:19:51.038Z</time></trkpt><trkpt lat="45.10546281017381" lon="13.883566873693796"><ele>328.66666666666663</ele><time>2026-04-11T16:19:52.038Z</time></trkpt><trkpt lat="45.105300332630414" lon="13.883501640142985"><ele>328.0</ele><time>2026-04-11T16:19:53.038Z</time></trkpt><trkpt lat="45.105136646793746" lon="13.88343404852743"><ele>327.66666666666663</ele><time>2026-04-11T16:19:54.038Z</time></trkpt><trkpt lat="45.10496847561366" lon="13.883369960352685"><ele>327.3333333333333</ele><time>2026-04-11T16:19:55.038Z</time></trkpt><trkpt lat="45.10480723637931" lon="13.883304531782317"><ele>327.0</ele><time>2026-04-11T16:19:56.037Z</time></trkpt><trkpt lat="45.104637322666505" lon="13.883250858806424"><ele>327.6666666666667</ele><time>2026-04-11T16:19:57.037Z</time></trkpt><trkpt lat="45.104466599305375" lon="13.883206532433654"><ele>328.33333333333337</ele><time>2026-04-11T16:19:58.037Z</time></trkpt><trkpt lat="45.104292960418" lon="13.883170199664063"><ele>329.0</ele><time>2026-04-11T16:19:59.037Z</time></trkpt><trkpt lat="45.104117652516145" lon="13.883154815222364"><ele>328.6666666666667</ele><time>2026-04-11T16:20:00.037Z</time></trkpt><trkpt lat="45.10394043168723" lon="13.88316433776893"><ele>328.3333333333333</ele><time>2026-04-11T16:20:01.037Z</time></trkpt><trkpt lat="45.10376193735748" lon="13.883188386767145"><ele>328.0</ele><time>2026-04-11T16:20:02.037Z</time></trkpt><trkpt lat="45.103582523791" lon="13.883219247866682"><ele>328.0</ele><time>2026-04-11T16:20:03.037Z</time></trkpt><trkpt lat="45.10340190470993" lon="13.883249445430122"><ele>328.0</ele><time>2026-04-11T16:20:04.037Z</time></trkpt><trkpt lat="45.10322168165396" lon="13.883278808101537"><ele>328.0</ele><time>2026-04-11T16:20:05.037Z</time></trkpt><trkpt lat="45.10304274576255" lon="13.883303342352558"><ele>327.66666666666663</ele><time>2026-04-11T16:20:06.037Z</time></trkpt><trkpt lat="45.102865348954325" lon="13.883327420680136"><ele>327.3333333333333</ele><time>2026-04-11T16:20:07.037Z</time></trkpt><trkpt lat="45.10268818273699" lon="13.88335692236114"><ele>327.0</ele><time>2026-04-11T16:20:08.037Z</time></trkpt><trkpt lat="45.102510605502275" lon="13.883387529845324"><ele>326.3333333333333</ele><time>2026-04-11T16:20:09.037Z</time></trkpt><trkpt lat="45.102334168374405" lon="13.88341397777751"><ele>325.66666666666663</ele><time>2026-04-11T16:20:10.037Z</time></trkpt><trkpt lat="45.10215775886861" lon="13.883445462786598"><ele>325.0</ele><time>2026-04-11T16:20:11.037Z</time></trkpt><trkpt lat="45.10198075601707" lon="13.883466585500184"><ele>324.0</ele><time>2026-04-11T16:20:12.036Z</time></trkpt><trkpt lat="45.10180613691165" lon="13.883493915619896"><ele>323.0</ele><time>2026-04-11T16:20:13.038Z</time></trkpt><trkpt lat="45.101631437878154" lon="13.883512920091336"><ele>322.0</ele><time>2026-04-11T16:20:14.038Z</time></trkpt><trkpt lat="45.101458314757416" lon="13.88352072312861"><ele>324.0</ele><time>2026-04-11T16:20:15.038Z</time></trkpt><trkpt lat="45.101276372582966" lon="13.883513889931667"><ele>326.0</ele><time>2026-04-11T16:20:16.038Z</time></trkpt><trkpt lat="45.101091789451736" lon="13.883482511816844"><ele>328.0</ele><time>2026-04-11T16:20:17.038Z</time></trkpt><trkpt lat="45.10090759766452" lon="13.883433777210556"><ele>328.0</ele><time>2026-04-11T16:20:18.038Z</time></trkpt><trkpt lat="45.10072163912424" lon="13.883374654148815"><ele>328.0</ele><time>2026-04-11T16:20:19.038Z</time></trkpt><trkpt lat="45.10053758649178" lon="13.88330270712626"><ele>328.0</ele><time>2026-04-11T16:20:20.038Z</time></trkpt><trkpt lat="45.10035458643071" lon="13.883225008781514"><ele>328.0</ele><time>2026-04-11T16:20:21.038Z</time></trkpt><trkpt lat="45.10016767554058" lon="13.883142851722647"><ele>328.0</ele><time>2026-04-11T16:20:22.038Z</time></trkpt><trkpt lat="45.09998629322711" lon="13.883059592427113"><ele>328.0</ele><time>2026-04-11T16:20:23.038Z</time></trkpt><trkpt lat="45.09979985859318" lon="13.882971243026335"><ele>325.3333333333333</ele><time>2026-04-11T16:20:24.038Z</time></trkpt><trkpt lat="45.099619793819635" lon="13.88288012575367"><ele>322.6666666666667</ele><time>2026-04-11T16:20:25.038Z</time></trkpt><trkpt lat="45.09943333178528" lon="13.8827955287877"><ele>320.0</ele><time>2026-04-11T16:20:26.038Z</time></trkpt><trkpt lat="45.099245277407384" lon="13.882706713802081"><ele>321.0</ele><time>2026-04-11T16:20:27.038Z</time></trkpt><trkpt lat="45.099058320028156" lon="13.88261701348856"><ele>322.0</ele><time>2026-04-11T16:20:28.038Z</time></trkpt><trkpt lat="45.098869985112934" lon="13.882526179922486"><ele>323.0</ele><time>2026-04-11T16:20:29.038Z</time></trkpt><trkpt lat="45.098677573923396" lon="13.882436983597406"><ele>323.6666666666667</ele><time>2026-04-11T16:20:30.038Z</time></trkpt><trkpt lat="45.098482700992186" lon="13.882346695345829"><ele>324.3333333333333</ele><time>2026-04-11T16:20:31.038Z</time></trkpt><trkpt lat="45.09829018451672" lon="13.882259216408114"><ele>325.0</ele><time>2026-04-11T16:20:32.038Z</time></trkpt><trkpt lat="45.098098502612146" lon="13.882168854959964"><ele>325.0</ele><time>2026-04-11T16:20:33.038Z</time></trkpt><trkpt lat="45.09790443699116" lon="13.882078551535093"><ele>325.0</ele><time>2026-04-11T16:20:34.038Z</time></trkpt><trkpt lat="45.09770802171387" lon="13.881984233800392"><ele>325.0</ele><time>2026-04-11T16:20:35.038Z</time></trkpt><trkpt lat="45.09750943016464" lon="13.881894797261328"><ele>324.0</ele><time>2026-04-11T16:20:36.038Z</time></trkpt><trkpt lat="45.097316513540896" lon="13.881804244825496"><ele>323.0</ele><time>2026-04-11T16:20:37.038Z</time></trkpt><trkpt lat="45.09712455304114" lon="13.881694332082986"><ele>322.0</ele><time>2026-04-11T16:20:38.038Z</time></trkpt><trkpt lat="45.09692745450261" lon="13.881600757428563"><ele>321.3333333333333</ele><time>2026-04-11T16:20:39.038Z</time></trkpt><trkpt lat="45.096735946137606" lon="13.881510653321081"><ele>320.6666666666667</ele><time>2026-04-11T16:20:40.038Z</time></trkpt><trkpt lat="45.09653994595511" lon="13.881440881803645"><ele>320.0</ele><time>2026-04-11T16:20:41.038Z</time></trkpt><trkpt lat="45.09634741088087" lon="13.881348053704167"><ele>320.0</ele><time>2026-04-11T16:20:42.038Z</time></trkpt><trkpt lat="45.09615647596443" lon="13.881256006202893"><ele>320.0</ele><time>2026-04-11T16:20:43.038Z</time></trkpt><trkpt lat="45.095965179386326" lon="13.881164170697202"><ele>320.0</ele><time>2026-04-11T16:20:44.038Z</time></trkpt><trkpt lat="45.09577566883391" lon="13.881078452592465"><ele>320.0</ele><time>2026-04-11T16:20:45.038Z</time></trkpt><trkpt lat="45.09558595071442" lon="13.88099516657683"><ele>320.0</ele><time>2026-04-11T16:20:46.038Z</time></trkpt><trkpt lat="45.09539512555335" lon="13.880910936998749"><ele>320.0</ele><time>2026-04-11T16:20:47.038Z</time></trkpt><trkpt lat="45.09520184125629" lon="13.880836647939859"><ele>320.0</ele><time>2026-04-11T16:20:48.038Z</time></trkpt><trkpt lat="45.0950091211344" lon="13.880776391377788"><ele>320.0</ele><time>2026-04-11T16:20:49.038Z</time></trkpt><trkpt lat="45.09481305744023" lon="13.880734814580514"><ele>320.0</ele><time>2026-04-11T16:20:50.038Z</time></trkpt><trkpt lat="45.09461445210507" lon="13.88071346812665"><ele>319.6666666666667</ele><time>2026-04-11T16:20:51.038Z</time></trkpt><trkpt lat="45.094412799872856" lon="13.88070510848346"><ele>319.3333333333333</ele><time>2026-04-11T16:20:52.038Z</time></trkpt><trkpt lat="45.09421291339523" lon="13.880710919241563"><ele>319.0</ele><time>2026-04-11T16:20:53.038Z</time></trkpt><trkpt lat="45.09401488123324" lon="13.880735283513918"><ele>317.66666666666663</ele><time>2026-04-11T16:20:54.038Z</time></trkpt><trkpt lat="45.093830029769705" lon="13.880767842564339"><ele>316.3333333333333</ele><time>2026-04-11T16:20:55.038Z</time></trkpt><trkpt lat="45.093655597160634" lon="13.880802351689102"><ele>315.0</ele><time>2026-04-11T16:20:56.038Z</time></trkpt><trkpt lat="45.093486610870535" lon="13.880830571761708"><ele>315.0</ele><time>2026-04-11T16:20:57.038Z</time></trkpt><trkpt lat="45.09331292460252" lon="13.880859926393997"><ele>315.0</ele><time>2026-04-11T16:20:58.038Z</time></trkpt><trkpt lat="45.09313991606316" lon="13.880892910344926"><ele>315.0</ele><time>2026-04-11T16:20:59.038Z</time></trkpt><trkpt lat="45.09296416060939" lon="13.880920467661094"><ele>313.3333333333333</ele><time>2026-04-11T16:21:00.038Z</time></trkpt><trkpt lat="45.09278713882116" lon="13.88095190819084"><ele>311.66666666666663</ele><time>2026-04-11T16:21:01.038Z</time></trkpt><trkpt lat="45.092614719106564" lon="13.880981534243988"><ele>310.0</ele><time>2026-04-11T16:21:02.038Z</time></trkpt><trkpt lat="45.09243708657102" lon="13.881012563675817"><ele>310.66666666666663</ele><time>2026-04-11T16:21:03.038Z</time></trkpt><trkpt lat="45.092257787863446" lon="13.881044757086741"><ele>311.3333333333333</ele><time>2026-04-11T16:21:04.038Z</time></trkpt><trkpt lat="45.092083678295296" lon="13.88107801155581"><ele>312.0</ele><time>2026-04-11T16:21:05.038Z</time></trkpt><trkpt lat="45.091906306711806" lon="13.881108600891695"><ele>312.0</ele><time>2026-04-11T16:21:06.038Z</time></trkpt><trkpt lat="45.09172755592882" lon="13.881135326082601"><ele>312.0</ele><time>2026-04-11T16:21:07.038Z</time></trkpt><trkpt lat="45.091552427602025" lon="13.881162144151721"><ele>312.0</ele><time>2026-04-11T16:21:08.038Z</time></trkpt><trkpt lat="45.091379483009675" lon="13.881189750878521"><ele>309.6666666666667</ele><time>2026-04-11T16:21:09.038Z</time></trkpt><trkpt lat="45.09121438544019" lon="13.88122455823859"><ele>307.33333333333337</ele><time>2026-04-11T16:21:10.038Z</time></trkpt><trkpt lat="45.09104839793843" lon="13.881253017262775"><ele>305.0</ele><time>2026-04-11T16:21:11.038Z</time></trkpt><trkpt lat="45.090886233037004" lon="13.88126551544427"><ele>306.6666666666667</ele><time>2026-04-11T16:21:12.038Z</time></trkpt><trkpt lat="45.09072277254855" lon="13.881226422107154"><ele>308.3333333333333</ele><time>2026-04-11T16:21:13.038Z</time></trkpt><trkpt lat="45.090564691299484" lon="13.881195865146275"><ele>310.0</ele><time>2026-04-11T16:21:14.038Z</time></trkpt><trkpt lat="45.090402351786615" lon="13.88114884086941"><ele>310.0</ele><time>2026-04-11T16:21:15.038Z</time></trkpt><trkpt lat="45.09024288875872" lon="13.881107046626587"><ele>310.0</ele><time>2026-04-11T16:21:16.038Z</time></trkpt><trkpt lat="45.09009820696109" lon="13.881000997880403"><ele>310.0</ele><time>2026-04-11T16:21:17.038Z</time></trkpt><trkpt lat="45.08994646842515" lon="13.880934435692724"><ele>310.66666666666663</ele><time>2026-04-11T16:21:18.038Z</time></trkpt><trkpt lat="45.089807746383926" lon="13.880815033065812"><ele>311.3333333333333</ele><time>2026-04-11T16:21:19.038Z</time></trkpt><trkpt lat="45.089669190506626" lon="13.880712275891673"><ele>312.0</ele><time>2026-04-11T16:21:20.038Z</time></trkpt><trkpt lat="45.08953472264496" lon="13.880610929248432"><ele>312.0</ele><time>2026-04-11T16:21:21.038Z</time></trkpt><trkpt lat="45.08939926142287" lon="13.880510252195663"><ele>312.0</ele><time>2026-04-11T16:21:22.038Z</time></trkpt><trkpt lat="45.08925935363645" lon="13.880416371509064"><ele>312.0</ele><time>2026-04-11T16:21:23.038Z</time></trkpt><trkpt lat="45.08911141132596" lon="13.880327416073454"><ele>312.0</ele><time>2026-04-11T16:21:24.038Z</time></trkpt><trkpt lat="45.08895513512369" lon="13.88028168947198"><ele>312.0</ele><time>2026-04-11T16:21:25.038Z</time></trkpt><trkpt lat="45.08880129292181" lon="13.88022388834467"><ele>312.0</ele><time>2026-04-11T16:21:26.038Z</time></trkpt><trkpt lat="45.08863652186622" lon="13.88018609010465"><ele>312.0</ele><time>2026-04-11T16:21:27.038Z</time></trkpt><trkpt lat="45.08846959833359" lon="13.880145306572807"><ele>312.0</ele><time>2026-04-11T16:21:28.038Z</time></trkpt><trkpt lat="45.08830504305119" lon="13.880115308636258"><ele>312.0</ele><time>2026-04-11T16:21:29.038Z</time></trkpt><trkpt lat="45.088131110770476" lon="13.880115171099192"><ele>311.3333333333333</ele><time>2026-04-11T16:21:30.038Z</time></trkpt><trkpt lat="45.087953097300314" lon="13.880114316660405"><ele>310.66666666666663</ele><time>2026-04-11T16:21:31.038Z</time></trkpt><trkpt lat="45.08777568046895" lon="13.880109936690937"><ele>310.0</ele><time>2026-04-11T16:21:32.037Z</time></trkpt><trkpt lat="45.08759450421787" lon="13.880102144306345"><ele>309.0</ele><time>2026-04-11T16:21:33.037Z</time></trkpt><trkpt lat="45.08741165568504" lon="13.880091840545667"><ele>308.0</ele><time>2026-04-11T16:21:34.037Z</time></trkpt><trkpt lat="45.08722868473847" lon="13.88008225436817"><ele>307.0</ele><time>2026-04-11T16:21:35.037Z</time></trkpt><trkpt lat="45.08704891712219" lon="13.880078888441867"><ele>307.0</ele><time>2026-04-11T16:21:36.037Z</time></trkpt><trkpt lat="45.08686530826065" lon="13.880086387925994"><ele>307.0</ele><time>2026-04-11T16:21:37.037Z</time></trkpt><trkpt lat="45.08669887617374" lon="13.880127862354383"><ele>307.0</ele><time>2026-04-11T16:21:38.037Z</time></trkpt><trkpt lat="45.08652948576043" lon="13.880181989266788"><ele>307.66666666666663</ele><time>2026-04-11T16:21:39.037Z</time></trkpt><trkpt lat="45.086369389276705" lon="13.880249842808436"><ele>308.3333333333333</ele><time>2026-04-11T16:21:40.037Z</time></trkpt><trkpt lat="45.0862172130564" lon="13.880335874582736"><ele>309.0</ele><time>2026-04-11T16:21:41.037Z</time></trkpt><trkpt lat="45.08607375989691" lon="13.880440966658092"><ele>309.0</ele><time>2026-04-11T16:21:42.037Z</time></trkpt><trkpt lat="45.0859366784628" lon="13.880561919547036"><ele>309.0</ele><time>2026-04-11T16:21:43.037Z</time></trkpt><trkpt lat="45.08580585028771" lon="13.880697176003405"><ele>309.0</ele><time>2026-04-11T16:21:44.037Z</time></trkpt><trkpt lat="45.08568174039644" lon="13.880849078423399"><ele>309.0</ele><time>2026-04-11T16:21:45.037Z</time></trkpt><trkpt lat="45.08556019613799" lon="13.881004971629677"><ele>309.0</ele><time>2026-04-11T16:21:46.037Z</time></trkpt><trkpt lat="45.08543661275669" lon="13.881164028215794"><ele>309.0</ele><time>2026-04-11T16:21:47.037Z</time></trkpt><trkpt lat="45.085320077786555" lon="13.881327182408638"><ele>309.0</ele><time>2026-04-11T16:21:48.037Z</time></trkpt><trkpt lat="45.08519700050192" lon="13.881492259630205"><ele>309.0</ele><time>2026-04-11T16:21:49.037Z</time></trkpt><trkpt lat="45.085072772094385" lon="13.881659579790739"><ele>309.0</ele><time>2026-04-11T16:21:50.037Z</time></trkpt><trkpt lat="45.084944549344925" lon="13.881824663128736"><ele>309.6666666666667</ele><time>2026-04-11T16:21:51.037Z</time></trkpt><trkpt lat="45.08481098253877" lon="13.881984787132906"><ele>310.33333333333337</ele><time>2026-04-11T16:21:52.037Z</time></trkpt><trkpt lat="45.0846645330894" lon="13.882122629071397"><ele>311.0</ele><time>2026-04-11T16:21:53.037Z</time></trkpt><trkpt lat="45.08451526392148" lon="13.882256682087483"><ele>311.0</ele><time>2026-04-11T16:21:54.037Z</time></trkpt><trkpt lat="45.084354716743405" lon="13.882370533080994"><ele>311.0</ele><time>2026-04-11T16:21:55.037Z</time></trkpt><trkpt lat="45.0841967643369" lon="13.882488872446634"><ele>311.0</ele><time>2026-04-11T16:21:56.037Z</time></trkpt><trkpt lat="45.084034033130166" lon="13.882609045879295"><ele>310.0</ele><time>2026-04-11T16:21:57.037Z</time></trkpt><trkpt lat="45.0838714492227" lon="13.882728502595532"><ele>309.0</ele><time>2026-04-11T16:21:58.037Z</time></trkpt><trkpt lat="45.083704281165375" lon="13.882838687430075"><ele>308.0</ele><time>2026-04-11T16:21:59.037Z</time></trkpt><trkpt lat="45.083530181898475" lon="13.882927451075966"><ele>308.0</ele><time>2026-04-11T16:22:00.037Z</time></trkpt><trkpt lat="45.08335165401968" lon="13.883000320343452"><ele>308.0</ele><time>2026-04-11T16:22:01.037Z</time></trkpt><trkpt lat="45.0831701987592" lon="13.883052708257562"><ele>308.0</ele><time>2026-04-11T16:22:02.037Z</time></trkpt><trkpt lat="45.08298548736464" lon="13.88309327306905"><ele>306.33333333333337</ele><time>2026-04-11T16:22:03.037Z</time></trkpt><trkpt lat="45.0827964579576" lon="13.883119173044072"><ele>304.6666666666667</ele><time>2026-04-11T16:22:04.037Z</time></trkpt><trkpt lat="45.082605345083955" lon="13.883144073296034"><ele>303.0</ele><time>2026-04-11T16:22:05.037Z</time></trkpt><trkpt lat="45.08241106706425" lon="13.883162145946322"><ele>303.0</ele><time>2026-04-11T16:22:06.037Z</time></trkpt><trkpt lat="45.08221965482388" lon="13.883182423499404"><ele>303.0</ele><time>2026-04-11T16:22:07.037Z</time></trkpt><trkpt lat="45.082029656197356" lon="13.883208331041242"><ele>303.0</ele><time>2026-04-11T16:22:08.037Z</time></trkpt><trkpt lat="45.08184171748443" lon="13.88323358159486"><ele>303.0</ele><time>2026-04-11T16:22:09.037Z</time></trkpt><trkpt lat="45.081651851504276" lon="13.883262048456992"><ele>303.0</ele><time>2026-04-11T16:22:10.037Z</time></trkpt><trkpt lat="45.08146514564334" lon="13.88328358785469"><ele>303.0</ele><time>2026-04-11T16:22:11.037Z</time></trkpt><trkpt lat="45.08127652603295" lon="13.883299387462948"><ele>303.3333333333333</ele><time>2026-04-11T16:22:12.037Z</time></trkpt><trkpt lat="45.08109235430322" lon="13.88332264198057"><ele>303.66666666666663</ele><time>2026-04-11T16:22:13.037Z</time></trkpt><trkpt lat="45.08091031514628" lon="13.883350952552815"><ele>304.0</ele><time>2026-04-11T16:22:14.037Z</time></trkpt><trkpt lat="45.08072639645224" lon="13.883384414558298"><ele>304.0</ele><time>2026-04-11T16:22:15.037Z</time></trkpt><trkpt lat="45.080539293901964" lon="13.883394878838702"><ele>304.0</ele><time>2026-04-11T16:22:16.037Z</time></trkpt><trkpt lat="45.080358000122075" lon="13.883454283474864"><ele>304.0</ele><time>2026-04-11T16:22:17.037Z</time></trkpt><trkpt lat="45.08018368709059" lon="13.883538143265616"><ele>304.0</ele><time>2026-04-11T16:22:18.037Z</time></trkpt><trkpt lat="45.08000548059869" lon="13.883632073176042"><ele>304.0</ele><time>2026-04-11T16:22:19.04Z</time></trkpt><trkpt lat="45.07982967410287" lon="13.88373667155333"><ele>304.0</ele><time>2026-04-11T16:22:20.039Z</time></trkpt><trkpt lat="45.0796507850262" lon="13.883852090965394"><ele>303.3333333333333</ele><time>2026-04-11T16:22:21.039Z</time></trkpt><trkpt lat="45.07946544639004" lon="13.883970543279407"><ele>302.6666666666667</ele><time>2026-04-11T16:22:22.04Z</time></trkpt><trkpt lat="45.07927691966842" lon="13.884092451051202"><ele>302.0</ele><time>2026-04-11T16:22:23.039Z</time></trkpt><trkpt lat="45.07908802471712" lon="13.884204116808917"><ele>301.6666666666667</ele><time>2026-04-11T16:22:24.039Z</time></trkpt><trkpt lat="45.07889817243303" lon="13.884305032654888"><ele>301.3333333333333</ele><time>2026-04-11T16:22:25.04Z</time></trkpt><trkpt lat="45.0787010407245" lon="13.88437459488679"><ele>301.0</ele><time>2026-04-11T16:22:26.04Z</time></trkpt><trkpt lat="45.07849703186925" lon="13.884424763346777"><ele>301.0</ele><time>2026-04-11T16:22:27.04Z</time></trkpt><trkpt lat="45.07829462607982" lon="13.884436690889592"><ele>301.0</ele><time>2026-04-11T16:22:28.04Z</time></trkpt><trkpt lat="45.07808818781387" lon="13.884420889632382"><ele>301.0</ele><time>2026-04-11T16:22:29.04Z</time></trkpt><trkpt lat="45.07788871231271" lon="13.884386025208853"><ele>301.3333333333333</ele><time>2026-04-11T16:22:30.04Z</time></trkpt><trkpt lat="45.077695966839435" lon="13.884327045918129"><ele>301.6666666666667</ele><time>2026-04-11T16:22:31.039Z</time></trkpt><trkpt lat="45.07750431661858" lon="13.884250440525737"><ele>302.0</ele><time>2026-04-11T16:22:32.04Z</time></trkpt><trkpt lat="45.07731588053251" lon="13.884159950110648"><ele>302.0</ele><time>2026-04-11T16:22:33.04Z</time></trkpt><trkpt lat="45.077124460508294" lon="13.884066546425927"><ele>302.0</ele><time>2026-04-11T16:22:34.04Z</time></trkpt><trkpt lat="45.07694377666581" lon="13.883945716837495"><ele>302.0</ele><time>2026-04-11T16:22:35.04Z</time></trkpt><trkpt lat="45.07674550519108" lon="13.883856737660862"><ele>302.6666666666667</ele><time>2026-04-11T16:22:36.04Z</time></trkpt><trkpt lat="45.0765562157305" lon="13.883745586630495"><ele>303.3333333333333</ele><time>2026-04-11T16:22:37.04Z</time></trkpt><trkpt lat="45.07636514097132" lon="13.883637875796541"><ele>304.0</ele><time>2026-04-11T16:22:38.04Z</time></trkpt><trkpt lat="45.076176005957485" lon="13.883521289761664"><ele>304.0</ele><time>2026-04-11T16:22:39.04Z</time></trkpt><trkpt lat="45.075977797035875" lon="13.883437523077713"><ele>304.0</ele><time>2026-04-11T16:22:40.04Z</time></trkpt><trkpt lat="45.07579255918213" lon="13.883312121139092"><ele>304.0</ele><time>2026-04-11T16:22:41.04Z</time></trkpt><trkpt lat="45.075599121281414" lon="13.883205115141832"><ele>303.66666666666663</ele><time>2026-04-11T16:22:42.04Z</time></trkpt><trkpt lat="45.07540661573978" lon="13.883111807861248"><ele>303.3333333333333</ele><time>2026-04-11T16:22:43.04Z</time></trkpt><trkpt lat="45.07521985008363" lon="13.88299629095135"><ele>303.0</ele><time>2026-04-11T16:22:44.04Z</time></trkpt><trkpt lat="45.07504352056499" lon="13.882846803174422"><ele>302.3333333333333</ele><time>2026-04-11T16:22:45.04Z</time></trkpt><trkpt lat="45.07487088693415" lon="13.882700714205303"><ele>301.66666666666663</ele><time>2026-04-11T16:22:46.04Z</time></trkpt><trkpt lat="45.07470086376922" lon="13.882547914438343"><ele>301.0</ele><time>2026-04-11T16:22:47.04Z</time></trkpt><trkpt lat="45.074532330756064" lon="13.882394592145769"><ele>300.3333333333333</ele><time>2026-04-11T16:22:48.04Z</time></trkpt><trkpt lat="45.07436158066111" lon="13.882240000213047"><ele>299.6666666666667</ele><time>2026-04-11T16:22:49.04Z</time></trkpt><trkpt lat="45.07418982279124" lon="13.882084144547335"><ele>299.0</ele><time>2026-04-11T16:22:50.04Z</time></trkpt><trkpt lat="45.074018692509014" lon="13.88192856266427"><ele>297.6666666666667</ele><time>2026-04-11T16:22:51.04Z</time></trkpt><trkpt lat="45.07384606145088" lon="13.881771449822065"><ele>296.3333333333333</ele><time>2026-04-11T16:22:52.04Z</time></trkpt><trkpt lat="45.07367739895169" lon="13.881618987933718"><ele>295.0</ele><time>2026-04-11T16:22:53.04Z</time></trkpt><trkpt lat="45.0735063120078" lon="13.881463269822119"><ele>294.3333333333333</ele><time>2026-04-11T16:22:54.04Z</time></trkpt><trkpt lat="45.07332845795845" lon="13.881328590767772"><ele>293.6666666666667</ele><time>2026-04-11T16:22:55.04Z</time></trkpt><trkpt lat="45.073166678894225" lon="13.881153463669751"><ele>293.0</ele><time>2026-04-11T16:22:56.04Z</time></trkpt><trkpt lat="45.07299733302067" lon="13.88099882476108"><ele>291.33333333333337</ele><time>2026-04-11T16:22:57.04Z</time></trkpt><trkpt lat="45.0728252232308" lon="13.880841604761448"><ele>289.6666666666667</ele><time>2026-04-11T16:22:58.04Z</time></trkpt><trkpt lat="45.07265515591587" lon="13.880686730243813"><ele>288.0</ele><time>2026-04-11T16:22:59.04Z</time></trkpt><trkpt lat="45.07247838566558" lon="13.880551198395068"><ele>286.0</ele><time>2026-04-11T16:23:00.04Z</time></trkpt><trkpt lat="45.07231504663314" lon="13.880376959644094"><ele>284.0</ele><time>2026-04-11T16:23:01.04Z</time></trkpt><trkpt lat="45.072146758205875" lon="13.880222395524674"><ele>282.0</ele><time>2026-04-11T16:23:02.04Z</time></trkpt><trkpt lat="45.07197977361797" lon="13.880069270903661"><ele>281.6666666666667</ele><time>2026-04-11T16:23:03.04Z</time></trkpt><trkpt lat="45.07180291046601" lon="13.879936615321393"><ele>281.33333333333337</ele><time>2026-04-11T16:23:04.04Z</time></trkpt><trkpt lat="45.07162766624216" lon="13.87978401504542"><ele>281.0</ele><time>2026-04-11T16:23:05.04Z</time></trkpt><trkpt lat="45.071459569967224" lon="13.879626286219539"><ele>279.0</ele><time>2026-04-11T16:23:06.04Z</time></trkpt><trkpt lat="45.07129094180969" lon="13.879477768128663"><ele>277.0</ele><time>2026-04-11T16:23:07.04Z</time></trkpt><trkpt lat="45.071118817686106" lon="13.87932473838379"><ele>275.0</ele><time>2026-04-11T16:23:08.04Z</time></trkpt><trkpt lat="45.070947610525344" lon="13.879170776637581"><ele>273.6666666666667</ele><time>2026-04-11T16:23:09.04Z</time></trkpt><trkpt lat="45.07077370815914" lon="13.87901619463589"><ele>272.3333333333333</ele><time>2026-04-11T16:23:10.04Z</time></trkpt><trkpt lat="45.07060715939488" lon="13.878866354944126"><ele>271.0</ele><time>2026-04-11T16:23:11.04Z</time></trkpt><trkpt lat="45.07044228600635" lon="13.878710556817342"><ele>271.0</ele><time>2026-04-11T16:23:12.04Z</time></trkpt><trkpt lat="45.0702731863348" lon="13.878558287685653"><ele>271.0</ele><time>2026-04-11T16:23:13.04Z</time></trkpt><trkpt lat="45.07010392895291" lon="13.878404862076414"><ele>271.0</ele><time>2026-04-11T16:23:14.04Z</time></trkpt><trkpt lat="45.06993623067273" lon="13.87826372668729"><ele>268.0</ele><time>2026-04-11T16:23:15.04Z</time></trkpt><trkpt lat="45.06975577059995" lon="13.87811865752978"><ele>265.0</ele><time>2026-04-11T16:23:16.04Z</time></trkpt><trkpt lat="45.069576764780464" lon="13.877997116702556"><ele>262.0</ele><time>2026-04-11T16:23:17.04Z</time></trkpt><trkpt lat="45.0693883958092" lon="13.877897210961523"><ele>262.0</ele><time>2026-04-11T16:23:18.04Z</time></trkpt><trkpt lat="45.0691941541609" lon="13.877819941174307"><ele>262.0</ele><time>2026-04-11T16:23:19.04Z</time></trkpt><trkpt lat="45.06899347133796" lon="13.877778095415117"><ele>262.0</ele><time>2026-04-11T16:23:20.04Z</time></trkpt><trkpt lat="45.06879234138299" lon="13.87776774408286"><ele>260.3333333333333</ele><time>2026-04-11T16:23:21.04Z</time></trkpt><trkpt lat="45.068594278955764" lon="13.877775049440043"><ele>258.6666666666667</ele><time>2026-04-11T16:23:22.039Z</time></trkpt><trkpt lat="45.06839148792665" lon="13.877804863750752"><ele>257.0</ele><time>2026-04-11T16:23:23.039Z</time></trkpt><trkpt lat="45.06819200957495" lon="13.877845464258922"><ele>257.0</ele><time>2026-04-11T16:23:24.039Z</time></trkpt><trkpt lat="45.067993035978546" lon="13.877900334334507"><ele>257.0</ele><time>2026-04-11T16:23:25.039Z</time></trkpt><trkpt lat="45.06779521030783" lon="13.877944121516565"><ele>257.0</ele><time>2026-04-11T16:23:26.039Z</time></trkpt><trkpt lat="45.0675976151321" lon="13.87799337679826"><ele>257.33333333333337</ele><time>2026-04-11T16:23:27.039Z</time></trkpt><trkpt lat="45.06740137739854" lon="13.878037725163153"><ele>257.6666666666667</ele><time>2026-04-11T16:23:28.039Z</time></trkpt><trkpt lat="45.06720286549161" lon="13.878083381377705"><ele>258.0</ele><time>2026-04-11T16:23:29.039Z</time></trkpt><trkpt lat="45.06700460514661" lon="13.87810515869951"><ele>258.0</ele><time>2026-04-11T16:23:30.039Z</time></trkpt><trkpt lat="45.06680933580872" lon="13.878160753746245"><ele>258.0</ele><time>2026-04-11T16:23:31.039Z</time></trkpt><trkpt lat="45.0666074221599" lon="13.878183667935305"><ele>258.0</ele><time>2026-04-11T16:23:32.039Z</time></trkpt><trkpt lat="45.066403389085345" lon="13.878176354764744"><ele>257.0</ele><time>2026-04-11T16:23:33.039Z</time></trkpt><trkpt lat="45.06620136605712" lon="13.878186970073859"><ele>256.0</ele><time>2026-04-11T16:23:34.039Z</time></trkpt><trkpt lat="45.06600834801416" lon="13.87818106863326"><ele>255.0</ele><time>2026-04-11T16:23:35.039Z</time></trkpt><trkpt lat="45.065806629098525" lon="13.878191376025017"><ele>254.66666666666669</ele><time>2026-04-11T16:23:36.039Z</time></trkpt><trkpt lat="45.06560312012878" lon="13.878203819232079"><ele>254.33333333333334</ele><time>2026-04-11T16:23:37.039Z</time></trkpt><trkpt lat="45.06540784016226" lon="13.878204797223086"><ele>254.0</ele><time>2026-04-11T16:23:38.039Z</time></trkpt><trkpt lat="45.0652060475184" lon="13.878213800429856"><ele>254.0</ele><time>2026-04-11T16:23:39.039Z</time></trkpt><trkpt lat="45.06500787886205" lon="13.878226844254275"><ele>254.0</ele><time>2026-04-11T16:23:40.039Z</time></trkpt><trkpt lat="45.06480641296562" lon="13.878247672353165"><ele>254.0</ele><time>2026-04-11T16:23:41.039Z</time></trkpt><trkpt lat="45.06460208672404" lon="13.878260214985056"><ele>254.33333333333334</ele><time>2026-04-11T16:23:42.039Z</time></trkpt><trkpt lat="45.06439799081402" lon="13.878272615826809"><ele>254.66666666666669</ele><time>2026-04-11T16:23:43.039Z</time></trkpt><trkpt lat="45.064197746481625" lon="13.878272454948785"><ele>255.0</ele><time>2026-04-11T16:23:44.039Z</time></trkpt><trkpt lat="45.063994990680015" lon="13.878282079344217"><ele>255.33333333333331</ele><time>2026-04-11T16:23:45.039Z</time></trkpt><trkpt lat="45.06378620119828" lon="13.878294041019853"><ele>255.66666666666666</ele><time>2026-04-11T16:23:46.039Z</time></trkpt><trkpt lat="45.06358064455724" lon="13.878301787129743"><ele>256.0</ele><time>2026-04-11T16:23:47.039Z</time></trkpt><trkpt lat="45.06337345355952" lon="13.878310719273477"><ele>254.33333333333331</ele><time>2026-04-11T16:23:48.039Z</time></trkpt><trkpt lat="45.06316837105525" lon="13.878322604480347"><ele>252.66666666666669</ele><time>2026-04-11T16:23:49.039Z</time></trkpt><trkpt lat="45.062961988512306" lon="13.878311713104623"><ele>251.0</ele><time>2026-04-11T16:23:50.039Z</time></trkpt><trkpt lat="45.062751682311905" lon="13.87832772578205"><ele>251.0</ele><time>2026-04-11T16:23:51.039Z</time></trkpt><trkpt lat="45.06254663811266" lon="13.87836242174585"><ele>251.0</ele><time>2026-04-11T16:23:52.039Z</time></trkpt><trkpt lat="45.06234617515688" lon="13.87837141072769"><ele>251.0</ele><time>2026-04-11T16:23:53.039Z</time></trkpt><trkpt lat="45.062154580053004" lon="13.878353398622885"><ele>250.33333333333334</ele><time>2026-04-11T16:23:54.039Z</time></trkpt><trkpt lat="45.061954858320036" lon="13.878369798317237"><ele>249.66666666666669</ele><time>2026-04-11T16:23:55.039Z</time></trkpt><trkpt lat="45.061751768152895" lon="13.878387849369027"><ele>249.0</ele><time>2026-04-11T16:23:56.039Z</time></trkpt><trkpt lat="45.061550844695404" lon="13.878407556622602"><ele>249.0</ele><time>2026-04-11T16:23:57.039Z</time></trkpt><trkpt lat="45.06135154701515" lon="13.878423352050113"><ele>249.0</ele><time>2026-04-11T16:23:58.039Z</time></trkpt><trkpt lat="45.06115127691764" lon="13.878436424211579"><ele>249.0</ele><time>2026-04-11T16:23:59.039Z</time></trkpt><trkpt lat="45.06095272704853" lon="13.878450953444073"><ele>249.66666666666669</ele><time>2026-04-11T16:24:00.039Z</time></trkpt><trkpt lat="45.06075665048431" lon="13.878465059501961"><ele>250.33333333333334</ele><time>2026-04-11T16:24:01.039Z</time></trkpt><trkpt lat="45.06055864780081" lon="13.878478047001765"><ele>251.0</ele><time>2026-04-11T16:24:02.039Z</time></trkpt><trkpt lat="45.06036057600697" lon="13.878493766212731"><ele>251.0</ele><time>2026-04-11T16:24:03.039Z</time></trkpt><trkpt lat="45.060161505564395" lon="13.87850653268639"><ele>251.0</ele><time>2026-04-11T16:24:04.039Z</time></trkpt><trkpt lat="45.05996444434123" lon="13.878518021682222"><ele>251.0</ele><time>2026-04-11T16:24:05.039Z</time></trkpt><trkpt lat="45.05976636968448" lon="13.878526170853357"><ele>250.66666666666669</ele><time>2026-04-11T16:24:06.039Z</time></trkpt><trkpt lat="45.05956612169083" lon="13.878529725692356"><ele>250.33333333333331</ele><time>2026-04-11T16:24:07.039Z</time></trkpt><trkpt lat="45.059362580925274" lon="13.878529342095034"><ele>250.0</ele><time>2026-04-11T16:24:08.039Z</time></trkpt><trkpt lat="45.05915737040624" lon="13.87852065778082"><ele>250.0</ele><time>2026-04-11T16:24:09.039Z</time></trkpt><trkpt lat="45.05895096958098" lon="13.878506565208784"><ele>250.0</ele><time>2026-04-11T16:24:10.039Z</time></trkpt><trkpt lat="45.058742753043056" lon="13.878491399564181"><ele>250.0</ele><time>2026-04-11T16:24:11.039Z</time></trkpt><trkpt lat="45.058534157779675" lon="13.878472377248874"><ele>250.0</ele><time>2026-04-11T16:24:12.039Z</time></trkpt><trkpt lat="45.05832585962505" lon="13.878453813581572"><ele>250.0</ele><time>2026-04-11T16:24:13.039Z</time></trkpt><trkpt lat="45.058118154366014" lon="13.878443618113877"><ele>250.0</ele><time>2026-04-11T16:24:14.039Z</time></trkpt><trkpt lat="45.05790743097881" lon="13.878438431556148"><ele>249.33333333333331</ele><time>2026-04-11T16:24:15.039Z</time></trkpt><trkpt lat="45.05769810225587" lon="13.878409099349323"><ele>248.66666666666669</ele><time>2026-04-11T16:24:16.039Z</time></trkpt><trkpt lat="45.05749882288827" lon="13.878383435695525"><ele>248.0</ele><time>2026-04-11T16:24:17.039Z</time></trkpt><trkpt lat="45.05729710970901" lon="13.878371419376993"><ele>248.0</ele><time>2026-04-11T16:24:18.039Z</time></trkpt><trkpt lat="45.057097722362805" lon="13.87835747415735"><ele>248.0</ele><time>2026-04-11T16:24:19.039Z</time></trkpt><trkpt lat="45.056896389300825" lon="13.87834328624934"><ele>248.0</ele><time>2026-04-11T16:24:20.039Z</time></trkpt><trkpt lat="45.05669930320168" lon="13.878328010384998"><ele>248.66666666666669</ele><time>2026-04-11T16:24:21.039Z</time></trkpt><trkpt lat="45.05650493331105" lon="13.878316147025377"><ele>249.33333333333331</ele><time>2026-04-11T16:24:22.039Z</time></trkpt><trkpt lat="45.05630557738781" lon="13.878306334267192"><ele>250.0</ele><time>2026-04-11T16:24:23.039Z</time></trkpt><trkpt lat="45.056109529467484" lon="13.878313065674455"><ele>250.0</ele><time>2026-04-11T16:24:24.039Z</time></trkpt><trkpt lat="45.05591552314776" lon="13.87834268296723"><ele>250.0</ele><time>2026-04-11T16:24:25.042Z</time></trkpt><trkpt lat="45.05572233549558" lon="13.878394507573164"><ele>250.0</ele><time>2026-04-11T16:24:26.041Z</time></trkpt><trkpt lat="45.05553411677151" lon="13.878464729150622"><ele>249.33333333333331</ele><time>2026-04-11T16:24:27.041Z</time></trkpt><trkpt lat="45.055340434249594" lon="13.878546920162092"><ele>248.66666666666669</ele><time>2026-04-11T16:24:28.042Z</time></trkpt><trkpt lat="45.0551465614741" lon="13.878634758009104"><ele>248.0</ele><time>2026-04-11T16:24:29.041Z</time></trkpt><trkpt lat="45.054951192901605" lon="13.878726189395971"><ele>246.66666666666669</ele><time>2026-04-11T16:24:30.041Z</time></trkpt><trkpt lat="45.054751261753125" lon="13.878816212515586"><ele>245.33333333333331</ele><time>2026-04-11T16:24:31.042Z</time></trkpt><trkpt lat="45.05455354974113" lon="13.878903596509549"><ele>244.0</ele><time>2026-04-11T16:24:32.041Z</time></trkpt><trkpt lat="45.0543570328391" lon="13.878988202873199"><ele>244.0</ele><time>2026-04-11T16:24:33.041Z</time></trkpt><trkpt lat="45.054154138149975" lon="13.879075153332307"><ele>244.0</ele><time>2026-04-11T16:24:34.042Z</time></trkpt><trkpt lat="45.0539567467808" lon="13.8791620975333"><ele>244.0</ele><time>2026-04-11T16:24:35.042Z</time></trkpt><trkpt lat="45.0537627899202" lon="13.87924509753334"><ele>243.0</ele><time>2026-04-11T16:24:36.042Z</time></trkpt><trkpt lat="45.053570294565894" lon="13.879326606484153"><ele>242.0</ele><time>2026-04-11T16:24:37.042Z</time></trkpt><trkpt lat="45.05337595928279" lon="13.87939024336619"><ele>241.0</ele><time>2026-04-11T16:24:38.041Z</time></trkpt><trkpt lat="45.05317824102865" lon="13.879433098364087"><ele>241.0</ele><time>2026-04-11T16:24:39.041Z</time></trkpt><trkpt lat="45.05297890236994" lon="13.879450963417863"><ele>241.0</ele><time>2026-04-11T16:24:40.041Z</time></trkpt><trkpt lat="45.05277929287077" lon="13.879451380375551"><ele>241.0</ele><time>2026-04-11T16:24:41.041Z</time></trkpt><trkpt lat="45.05258370140318" lon="13.879440737422899"><ele>243.0</ele><time>2026-04-11T16:24:42.041Z</time></trkpt><trkpt lat="45.0523874909135" lon="13.879426109995084"><ele>245.0</ele><time>2026-04-11T16:24:43.041Z</time></trkpt><trkpt lat="45.052190650527" lon="13.87940737311197"><ele>247.0</ele><time>2026-04-11T16:24:44.041Z</time></trkpt><trkpt lat="45.051995406048704" lon="13.879386868226087"><ele>247.0</ele><time>2026-04-11T16:24:45.041Z</time></trkpt><trkpt lat="45.05180297174815" lon="13.87936263593688"><ele>247.0</ele><time>2026-04-11T16:24:46.041Z</time></trkpt><trkpt lat="45.05161081215175" lon="13.879331591475669"><ele>247.0</ele><time>2026-04-11T16:24:47.041Z</time></trkpt><trkpt lat="45.05141660113679" lon="13.879306518192964"><ele>248.0</ele><time>2026-04-11T16:24:48.041Z</time></trkpt><trkpt lat="45.0512171834104" lon="13.8792847061063"><ele>249.0</ele><time>2026-04-11T16:24:49.041Z</time></trkpt><trkpt lat="45.051016213626475" lon="13.879261925509363"><ele>250.0</ele><time>2026-04-11T16:24:50.041Z</time></trkpt><trkpt lat="45.05081574420301" lon="13.879238179007185"><ele>251.0</ele><time>2026-04-11T16:24:51.041Z</time></trkpt><trkpt lat="45.05061160277403" lon="13.879216430717804"><ele>252.0</ele><time>2026-04-11T16:24:52.041Z</time></trkpt><trkpt lat="45.050406843605316" lon="13.879193510492073"><ele>253.0</ele><time>2026-04-11T16:24:53.041Z</time></trkpt><trkpt lat="45.050200773525546" lon="13.879167816187417"><ele>253.0</ele><time>2026-04-11T16:24:54.041Z</time></trkpt><trkpt lat="45.04999550495812" lon="13.879144215507939"><ele>253.0</ele><time>2026-04-11T16:24:55.041Z</time></trkpt><trkpt lat="45.04978679102603" lon="13.879121105910416"><ele>253.0</ele><time>2026-04-11T16:24:56.041Z</time></trkpt><trkpt lat="45.04957671302014" lon="13.879096195962141"><ele>253.33333333333331</ele><time>2026-04-11T16:24:57.041Z</time></trkpt><trkpt lat="45.049368815245046" lon="13.879071670663116"><ele>253.66666666666669</ele><time>2026-04-11T16:24:58.041Z</time></trkpt><trkpt lat="45.04915951042379" lon="13.879049086235117"><ele>254.0</ele><time>2026-04-11T16:24:59.041Z</time></trkpt><trkpt lat="45.04895207385756" lon="13.87903071888586"><ele>254.66666666666669</ele><time>2026-04-11T16:25:00.041Z</time></trkpt><trkpt lat="45.04874483913265" lon="13.879018208891992"><ele>255.33333333333331</ele><time>2026-04-11T16:25:01.041Z</time></trkpt><trkpt lat="45.04853787049792" lon="13.879005041573857"><ele>256.0</ele><time>2026-04-11T16:25:02.041Z</time></trkpt><trkpt lat="45.048335848590405" lon="13.879021733663299"><ele>255.0</ele><time>2026-04-11T16:25:03.041Z</time></trkpt><trkpt lat="45.048135516129605" lon="13.879057662417557"><ele>254.0</ele><time>2026-04-11T16:25:04.041Z</time></trkpt><trkpt lat="45.047938173329754" lon="13.879111431608916"><ele>253.0</ele><time>2026-04-11T16:25:05.041Z</time></trkpt><trkpt lat="45.04774288858098" lon="13.87918911332564"><ele>253.0</ele><time>2026-04-11T16:25:06.041Z</time></trkpt><trkpt lat="45.047551834523475" lon="13.879267290494646"><ele>253.0</ele><time>2026-04-11T16:25:07.041Z</time></trkpt><trkpt lat="45.04735561748055" lon="13.87934491848975"><ele>253.0</ele><time>2026-04-11T16:25:08.041Z</time></trkpt><trkpt lat="45.047162632548776" lon="13.879422343563407"><ele>251.33333333333331</ele><time>2026-04-11T16:25:09.041Z</time></trkpt><trkpt lat="45.04697299105787" lon="13.879508589335359"><ele>249.66666666666669</ele><time>2026-04-11T16:25:10.041Z</time></trkpt><trkpt lat="45.0467729302857" lon="13.879586946106533"><ele>248.0</ele><time>2026-04-11T16:25:11.041Z</time></trkpt><trkpt lat="45.04657876857299" lon="13.879652810921847"><ele>247.0</ele><time>2026-04-11T16:25:12.041Z</time></trkpt><trkpt lat="45.046377955265335" lon="13.879704489750639"><ele>246.0</ele><time>2026-04-11T16:25:13.041Z</time></trkpt><trkpt lat="45.04617513944181" lon="13.879735592925412"><ele>245.0</ele><time>2026-04-11T16:25:14.041Z</time></trkpt><trkpt lat="45.04597509532534" lon="13.879741576253286"><ele>244.0</ele><time>2026-04-11T16:25:15.041Z</time></trkpt><trkpt lat="45.045778158178784" lon="13.879741672532369"><ele>243.0</ele><time>2026-04-11T16:25:16.041Z</time></trkpt><trkpt lat="45.045595449473645" lon="13.879736607776055"><ele>242.0</ele><time>2026-04-11T16:25:17.041Z</time></trkpt><trkpt lat="45.045422134103006" lon="13.879737749849014"><ele>242.0</ele><time>2026-04-11T16:25:18.041Z</time></trkpt><trkpt lat="45.04525485304996" lon="13.87973703767033"><ele>242.0</ele><time>2026-04-11T16:25:19.041Z</time></trkpt><trkpt lat="45.04509036713259" lon="13.87972753330794"><ele>242.0</ele><time>2026-04-11T16:25:20.041Z</time></trkpt><trkpt lat="45.04492331959281" lon="13.879715424776974"><ele>241.66666666666669</ele><time>2026-04-11T16:25:21.041Z</time></trkpt><trkpt lat="45.044753405921035" lon="13.879696153525268"><ele>241.33333333333331</ele><time>2026-04-11T16:25:22.041Z</time></trkpt><trkpt lat="45.04458608536557" lon="13.87964642112047"><ele>241.0</ele><time>2026-04-11T16:25:23.041Z</time></trkpt><trkpt lat="45.04441947666925" lon="13.879620287274665"><ele>241.0</ele><time>2026-04-11T16:25:24.041Z</time></trkpt><trkpt lat="45.044251763045054" lon="13.879566324228037"><ele>241.0</ele><time>2026-04-11T16:25:25.041Z</time></trkpt><trkpt lat="45.044082520401886" lon="13.879493022045295"><ele>241.0</ele><time>2026-04-11T16:25:26.041Z</time></trkpt><trkpt lat="45.04390970559949" lon="13.879420310964552"><ele>240.0</ele><time>2026-04-11T16:25:27.041Z</time></trkpt><trkpt lat="45.043733125825355" lon="13.87934692014907"><ele>239.0</ele><time>2026-04-11T16:25:28.041Z</time></trkpt><trkpt lat="45.04355890470702" lon="13.879265560150131"><ele>238.0</ele><time>2026-04-11T16:25:29.041Z</time></trkpt><trkpt lat="45.04338786584712" lon="13.879183537324797"><ele>237.66666666666666</ele><time>2026-04-11T16:25:30.041Z</time></trkpt><trkpt lat="45.04321920754254" lon="13.879109479201059"><ele>237.33333333333331</ele><time>2026-04-11T16:25:31.041Z</time></trkpt><trkpt lat="45.0430500278662" lon="13.879044502599314"><ele>237.0</ele><time>2026-04-11T16:25:32.041Z</time></trkpt><trkpt lat="45.04288031570537" lon="13.879003941525133"><ele>237.0</ele><time>2026-04-11T16:25:33.041Z</time></trkpt><trkpt lat="45.042701855553624" lon="13.878972783857435"><ele>237.0</ele><time>2026-04-11T16:25:34.041Z</time></trkpt><trkpt lat="45.04252342014133" lon="13.878957858672646"><ele>237.0</ele><time>2026-04-11T16:25:35.041Z</time></trkpt><trkpt lat="45.04234114865077" lon="13.878939062967024"><ele>237.33333333333331</ele><time>2026-04-11T16:25:36.041Z</time></trkpt><trkpt lat="45.042151280206014" lon="13.878934128911824"><ele>237.66666666666666</ele><time>2026-04-11T16:25:37.041Z</time></trkpt><trkpt lat="45.04195427353523" lon="13.878943902165357"><ele>238.0</ele><time>2026-04-11T16:25:38.041Z</time></trkpt><trkpt lat="45.04175083309898" lon="13.878923919842947"><ele>237.66666666666666</ele><time>2026-04-11T16:25:39.041Z</time></trkpt><trkpt lat="45.04154725382212" lon="13.878921004270527"><ele>237.33333333333331</ele><time>2026-04-11T16:25:40.041Z</time></trkpt><trkpt lat="45.04134231870139" lon="13.878914711442604"><ele>237.0</ele><time>2026-04-11T16:25:41.041Z</time></trkpt><trkpt lat="45.04113426441291" lon="13.87890391429394"><ele>237.0</ele><time>2026-04-11T16:25:42.041Z</time></trkpt><trkpt lat="45.040926169812714" lon="13.878906127973094"><ele>237.0</ele><time>2026-04-11T16:25:43.041Z</time></trkpt><trkpt lat="45.04071477490511" lon="13.878873901592815"><ele>237.0</ele><time>2026-04-11T16:25:44.041Z</time></trkpt><trkpt lat="45.040508684804124" lon="13.878799501205933"><ele>236.66666666666669</ele><time>2026-04-11T16:25:45.041Z</time></trkpt><trkpt lat="45.04030434152077" lon="13.87872551771056"><ele>236.33333333333334</ele><time>2026-04-11T16:25:46.041Z</time></trkpt><trkpt lat="45.04010535427127" lon="13.878629815647818"><ele>236.0</ele><time>2026-04-11T16:25:47.041Z</time></trkpt><trkpt lat="45.039912047352" lon="13.878525828033707"><ele>235.33333333333334</ele><time>2026-04-11T16:25:48.041Z</time></trkpt><trkpt lat="45.039711360927356" lon="13.878429350393699"><ele>234.66666666666669</ele><time>2026-04-11T16:25:49.041Z</time></trkpt><trkpt lat="45.03952078540519" lon="13.878319002034115"><ele>234.0</ele><time>2026-04-11T16:25:50.041Z</time></trkpt><trkpt lat="45.03932512476314" lon="13.878211128023075"><ele>234.33333333333331</ele><time>2026-04-11T16:25:51.041Z</time></trkpt><trkpt lat="45.039131165999486" lon="13.878080764396714"><ele>234.66666666666666</ele><time>2026-04-11T16:25:52.041Z</time></trkpt><trkpt lat="45.03892814268245" lon="13.877988892409915"><ele>235.0</ele><time>2026-04-11T16:25:53.041Z</time></trkpt><trkpt lat="45.03873074213527" lon="13.87787517830932"><ele>235.0</ele><time>2026-04-11T16:25:54.041Z</time></trkpt><trkpt lat="45.038531078099886" lon="13.87776026250065"><ele>235.0</ele><time>2026-04-11T16:25:55.041Z</time></trkpt><trkpt lat="45.0383293479882" lon="13.877641942843068"><ele>235.0</ele><time>2026-04-11T16:25:56.041Z</time></trkpt><trkpt lat="45.03812358250167" lon="13.877523219966"><ele>235.0</ele><time>2026-04-11T16:25:57.041Z</time></trkpt><trkpt lat="45.037920623739325" lon="13.877404617786505"><ele>235.0</ele><time>2026-04-11T16:25:58.041Z</time></trkpt><trkpt lat="45.03771503844765" lon="13.877286931087257"><ele>235.0</ele><time>2026-04-11T16:25:59.041Z</time></trkpt><trkpt lat="45.037505799686194" lon="13.87717084846219"><ele>235.66666666666666</ele><time>2026-04-11T16:26:00.041Z</time></trkpt><trkpt lat="45.037295642011316" lon="13.877069282749334"><ele>236.33333333333331</ele><time>2026-04-11T16:26:01.041Z</time></trkpt><trkpt lat="45.03707886059529" lon="13.876979997058141"><ele>237.0</ele><time>2026-04-11T16:26:02.041Z</time></trkpt><trkpt lat="45.036862842696124" lon="13.87691042716284"><ele>237.0</ele><time>2026-04-11T16:26:03.041Z</time></trkpt><trkpt lat="45.036642190292035" lon="13.876849409576337"><ele>237.0</ele><time>2026-04-11T16:26:04.041Z</time></trkpt><trkpt lat="45.036421024680685" lon="13.876792150755277"><ele>236.33333333333331</ele><time>2026-04-11T16:26:05.041Z</time></trkpt><trkpt lat="45.0362010730006" lon="13.876737884424214"><ele>235.66666666666666</ele><time>2026-04-11T16:26:06.041Z</time></trkpt><trkpt lat="45.03598109788067" lon="13.876678725556294"><ele>235.0</ele><time>2026-04-11T16:26:07.041Z</time></trkpt><trkpt lat="45.03576432090875" lon="13.876618478876452"><ele>235.0</ele><time>2026-04-11T16:26:08.041Z</time></trkpt><trkpt lat="45.03554398293205" lon="13.876558730363481"><ele>235.0</ele><time>2026-04-11T16:26:09.041Z</time></trkpt><trkpt lat="45.03532743107526" lon="13.876493763992865"><ele>235.0</ele><time>2026-04-11T16:26:10.041Z</time></trkpt><trkpt lat="45.035111498887986" lon="13.87643026513232"><ele>236.33333333333331</ele><time>2026-04-11T16:26:11.041Z</time></trkpt><trkpt lat="45.03489588396902" lon="13.876373839070434"><ele>237.66666666666669</ele><time>2026-04-11T16:26:12.041Z</time></trkpt><trkpt lat="45.034680961577564" lon="13.876314937190251"><ele>239.0</ele><time>2026-04-11T16:26:13.041Z</time></trkpt><trkpt lat="45.03446676272002" lon="13.876256708935331"><ele>239.0</ele><time>2026-04-11T16:26:14.041Z</time></trkpt><trkpt lat="45.03425168414563" lon="13.876202944006847"><ele>239.0</ele><time>2026-04-11T16:26:15.041Z</time></trkpt><trkpt lat="45.034036964835025" lon="13.876151102290958"><ele>239.0</ele><time>2026-04-11T16:26:16.041Z</time></trkpt><trkpt lat="45.033828469870535" lon="13.876099582414518"><ele>238.0</ele><time>2026-04-11T16:26:17.041Z</time></trkpt><trkpt lat="45.03361776596309" lon="13.876065296745475"><ele>237.0</ele><time>2026-04-11T16:26:18.041Z</time></trkpt><trkpt lat="45.03340442125819" lon="13.876032746564382"><ele>236.0</ele><time>2026-04-11T16:26:19.041Z</time></trkpt><trkpt lat="45.03319002812606" lon="13.876015153126103"><ele>235.33333333333334</ele><time>2026-04-11T16:26:20.041Z</time></trkpt><trkpt lat="45.03298287518781" lon="13.8760081422096"><ele>234.66666666666669</ele><time>2026-04-11T16:26:21.041Z</time></trkpt><trkpt lat="45.03277040178098" lon="13.876002797130432"><ele>234.0</ele><time>2026-04-11T16:26:22.041Z</time></trkpt><trkpt lat="45.032562146147505" lon="13.875991928747569"><ele>234.66666666666669</ele><time>2026-04-11T16:26:23.041Z</time></trkpt><trkpt lat="45.03235581893902" lon="13.875976274657123"><ele>235.33333333333334</ele><time>2026-04-11T16:26:24.041Z</time></trkpt><trkpt lat="45.032148430875345" lon="13.875952707284352"><ele>236.0</ele><time>2026-04-11T16:26:25.041Z</time></trkpt><trkpt lat="45.03194330995192" lon="13.875923829751256"><ele>235.0</ele><time>2026-04-11T16:26:26.041Z</time></trkpt><trkpt lat="45.03173634168103" lon="13.875890520211458"><ele>234.0</ele><time>2026-04-11T16:26:27.041Z</time></trkpt><trkpt lat="45.03153278198964" lon="13.875839663131252"><ele>233.0</ele><time>2026-04-11T16:26:28.041Z</time></trkpt><trkpt lat="45.031333162212796" lon="13.875777927530885"><ele>233.0</ele><time>2026-04-11T16:26:29.041Z</time></trkpt><trkpt lat="45.03113530952543" lon="13.87570766056963"><ele>233.0</ele><time>2026-04-11T16:26:30.041Z</time></trkpt><trkpt lat="45.03094016558657" lon="13.875641784650394"><ele>233.0</ele><time>2026-04-11T16:26:31.044Z</time></trkpt><trkpt lat="45.0307365184549" lon="13.875566813835663"><ele>233.0</ele><time>2026-04-11T16:26:32.043Z</time></trkpt><trkpt lat="45.030534280972404" lon="13.875501138156482"><ele>233.0</ele><time>2026-04-11T16:26:33.043Z</time></trkpt><trkpt lat="45.03032592638336" lon="13.875438688043621"><ele>233.0</ele><time>2026-04-11T16:26:34.044Z</time></trkpt><trkpt lat="45.03011877134032" lon="13.87537544700259"><ele>231.66666666666669</ele><time>2026-04-11T16:26:35.044Z</time></trkpt><trkpt lat="45.02990874828241" lon="13.875315666432227"><ele>230.33333333333331</ele><time>2026-04-11T16:26:36.044Z</time></trkpt><trkpt lat="45.029700225684856" lon="13.875252246148534"><ele>229.0</ele><time>2026-04-11T16:26:37.044Z</time></trkpt><trkpt lat="45.02948654398807" lon="13.875198005168361"><ele>229.0</ele><time>2026-04-11T16:26:38.044Z</time></trkpt><trkpt lat="45.0292730801584" lon="13.875157545538805"><ele>229.0</ele><time>2026-04-11T16:26:39.043Z</time></trkpt><trkpt lat="45.02905855820179" lon="13.875116334008814"><ele>229.0</ele><time>2026-04-11T16:26:40.043Z</time></trkpt><trkpt lat="45.028838729885535" lon="13.875071011666073"><ele>230.0</ele><time>2026-04-11T16:26:41.043Z</time></trkpt><trkpt lat="45.02862132520961" lon="13.875032566790717"><ele>231.0</ele><time>2026-04-11T16:26:42.043Z</time></trkpt><trkpt lat="45.028407492995754" lon="13.874994147610405"><ele>232.0</ele><time>2026-04-11T16:26:43.044Z</time></trkpt><trkpt lat="45.028190769707045" lon="13.874973065969199"><ele>233.33333333333331</ele><time>2026-04-11T16:26:44.044Z</time></trkpt><trkpt lat="45.02797192702274" lon="13.874926305444305"><ele>234.66666666666669</ele><time>2026-04-11T16:26:45.044Z</time></trkpt><trkpt lat="45.02775736159181" lon="13.874880559731054"><ele>236.0</ele><time>2026-04-11T16:26:46.044Z</time></trkpt><trkpt lat="45.02754316691169" lon="13.8748444814606"><ele>235.0</ele><time>2026-04-11T16:26:47.044Z</time></trkpt><trkpt lat="45.02733543012442" lon="13.874803278569436"><ele>234.0</ele><time>2026-04-11T16:26:48.044Z</time></trkpt><trkpt lat="45.02713729084549" lon="13.874720554090974"><ele>233.0</ele><time>2026-04-11T16:26:49.044Z</time></trkpt><trkpt lat="45.02693724495109" lon="13.874689323428578"><ele>233.0</ele><time>2026-04-11T16:26:50.044Z</time></trkpt><trkpt lat="45.02673989949445" lon="13.874654724525561"><ele>233.0</ele><time>2026-04-11T16:26:51.044Z</time></trkpt><trkpt lat="45.02654138432322" lon="13.874621467695821"><ele>233.0</ele><time>2026-04-11T16:26:52.044Z</time></trkpt><trkpt lat="45.02634132927795" lon="13.874584500055088"><ele>233.0</ele><time>2026-04-11T16:26:53.044Z</time></trkpt><trkpt lat="45.02614434118608" lon="13.874547733448493"><ele>233.0</ele><time>2026-04-11T16:26:54.044Z</time></trkpt><trkpt lat="45.02594621422957" lon="13.874509311447282"><ele>233.0</ele><time>2026-04-11T16:26:55.044Z</time></trkpt><trkpt lat="45.02574783118129" lon="13.874469474359294"><ele>232.33333333333334</ele><time>2026-04-11T16:26:56.044Z</time></trkpt><trkpt lat="45.025544600831125" lon="13.874429946226433"><ele>231.66666666666669</ele><time>2026-04-11T16:26:57.044Z</time></trkpt><trkpt lat="45.02533966226667" lon="13.874391792645174"><ele>231.0</ele><time>2026-04-11T16:26:58.044Z</time></trkpt><trkpt lat="45.02513044959055" lon="13.87435592703848"><ele>230.0</ele><time>2026-04-11T16:26:59.044Z</time></trkpt><trkpt lat="45.024923750369624" lon="13.87431145033028"><ele>229.0</ele><time>2026-04-11T16:27:00.044Z</time></trkpt><trkpt lat="45.024716427151304" lon="13.874268911827377"><ele>228.0</ele><time>2026-04-11T16:27:01.044Z</time></trkpt><trkpt lat="45.02451036434388" lon="13.874218702274899"><ele>227.66666666666669</ele><time>2026-04-11T16:27:02.044Z</time></trkpt><trkpt lat="45.024305095952926" lon="13.87416378962262"><ele>227.33333333333334</ele><time>2026-04-11T16:27:03.044Z</time></trkpt><trkpt lat="45.02410966408963" lon="13.874087110616042"><ele>227.0</ele><time>2026-04-11T16:27:04.044Z</time></trkpt><trkpt lat="45.02391464124522" lon="13.874001119778926"><ele>226.33333333333334</ele><time>2026-04-11T16:27:05.044Z</time></trkpt><trkpt lat="45.02372132265528" lon="13.873907822587109"><ele>225.66666666666669</ele><time>2026-04-11T16:27:06.044Z</time></trkpt><trkpt lat="45.02352508992916" lon="13.873820426418607"><ele>225.0</ele><time>2026-04-11T16:27:07.044Z</time></trkpt><trkpt lat="45.02333094749623" lon="13.873733865754142"><ele>223.66666666666669</ele><time>2026-04-11T16:27:08.044Z</time></trkpt><trkpt lat="45.02313897461499" lon="13.87365467803102"><ele>222.33333333333334</ele><time>2026-04-11T16:27:09.044Z</time></trkpt><trkpt lat="45.02294669110524" lon="13.873572755711125"><ele>221.0</ele><time>2026-04-11T16:27:10.044Z</time></trkpt><trkpt lat="45.02277094468591" lon="13.873494126914043"><ele>221.66666666666669</ele><time>2026-04-11T16:27:11.044Z</time></trkpt><trkpt lat="45.02260220507753" lon="13.873416846376346"><ele>222.33333333333331</ele><time>2026-04-11T16:27:12.044Z</time></trkpt><trkpt lat="45.02243421513217" lon="13.873339806210954"><ele>223.0</ele><time>2026-04-11T16:27:13.044Z</time></trkpt><trkpt lat="45.02226375258749" lon="13.873264207640595"><ele>223.33333333333331</ele><time>2026-04-11T16:27:14.044Z</time></trkpt><trkpt lat="45.02209629306577" lon="13.873183290838165"><ele>223.66666666666669</ele><time>2026-04-11T16:27:15.044Z</time></trkpt><trkpt lat="45.02193576129412" lon="13.873107932310138"><ele>224.0</ele><time>2026-04-11T16:27:16.044Z</time></trkpt><trkpt lat="45.02177828233967" lon="13.873039212226782"><ele>223.33333333333334</ele><time>2026-04-11T16:27:17.044Z</time></trkpt><trkpt lat="45.0216235862313" lon="13.87297359188382"><ele>222.66666666666669</ele><time>2026-04-11T16:27:18.044Z</time></trkpt><trkpt lat="45.021481408726224" lon="13.872907483813444"><ele>222.0</ele><time>2026-04-11T16:27:19.044Z</time></trkpt><trkpt lat="45.02134106941292" lon="13.872841725594514"><ele>222.0</ele><time>2026-04-11T16:27:20.044Z</time></trkpt><trkpt lat="45.021199580121994" lon="13.872785482537063"><ele>222.0</ele><time>2026-04-11T16:27:21.044Z</time></trkpt><trkpt lat="45.021062322199796" lon="13.8727207055379"><ele>222.0</ele><time>2026-04-11T16:27:22.044Z</time></trkpt><trkpt lat="45.0209301021344" lon="13.872655531423918"><ele>222.0</ele><time>2026-04-11T16:27:23.044Z</time></trkpt><trkpt lat="45.020798338691954" lon="13.872593863827504"><ele>222.0</ele><time>2026-04-11T16:27:24.044Z</time></trkpt><trkpt lat="45.020668370777074" lon="13.872535982610618"><ele>222.0</ele><time>2026-04-11T16:27:25.044Z</time></trkpt><trkpt lat="45.020540285243484" lon="13.872472886690016"><ele>222.0</ele><time>2026-04-11T16:27:26.044Z</time></trkpt><trkpt lat="45.020408435105594" lon="13.872421405198553"><ele>222.0</ele><time>2026-04-11T16:27:27.044Z</time></trkpt><trkpt lat="45.02028630721665" lon="13.872361484999454"><ele>222.0</ele><time>2026-04-11T16:27:28.044Z</time></trkpt><trkpt lat="45.02016429030458" lon="13.87230829589553"><ele>222.0</ele><time>2026-04-11T16:27:29.044Z</time></trkpt><trkpt lat="45.02004256402654" lon="13.872254631771183"><ele>222.0</ele><time>2026-04-11T16:27:30.044Z</time></trkpt><trkpt lat="45.019924269174446" lon="13.872193186200864"><ele>222.0</ele><time>2026-04-11T16:27:31.044Z</time></trkpt><trkpt lat="45.019812687176724" lon="13.872147124050269"><ele>221.25</ele><time>2026-04-11T16:27:32.044Z</time></trkpt><trkpt lat="45.01969491856562" lon="13.872092146708276"><ele>220.5</ele><time>2026-04-11T16:27:33.044Z</time></trkpt><trkpt lat="45.01956950304272" lon="13.872034505567342"><ele>219.75</ele><time>2026-04-11T16:27:34.044Z</time></trkpt><trkpt lat="45.019443864857394" lon="13.871955258666988"><ele>219.0</ele><time>2026-04-11T16:27:35.044Z</time></trkpt><trkpt lat="45.01930837124692" lon="13.871904933753596"><ele>219.0</ele><time>2026-04-11T16:27:36.044Z</time></trkpt><trkpt lat="45.019187221867085" lon="13.871847912272528"><ele>219.0</ele><time>2026-04-11T16:27:37.044Z</time></trkpt><trkpt lat="45.019066312717314" lon="13.871776700498431"><ele>219.0</ele><time>2026-04-11T16:27:38.044Z</time></trkpt><trkpt lat="45.01893469799874" lon="13.871727151536469"><ele>219.0</ele><time>2026-04-11T16:27:39.044Z</time></trkpt><trkpt lat="45.0188105261724" lon="13.871658598777255"><ele>218.25</ele><time>2026-04-11T16:27:40.044Z</time></trkpt><trkpt lat="45.01868671151178" lon="13.871594694811762"><ele>217.5</ele><time>2026-04-11T16:27:41.044Z</time></trkpt><trkpt lat="45.01855659940539" lon="13.871535542238748"><ele>216.75</ele><time>2026-04-11T16:27:42.044Z</time></trkpt><trkpt lat="45.0184268475488" lon="13.87148091777908"><ele>216.0</ele><time>2026-04-11T16:27:43.044Z</time></trkpt><trkpt lat="45.01829514320807" lon="13.871424804632488"><ele>215.75</ele><time>2026-04-11T16:27:44.044Z</time></trkpt><trkpt lat="45.01816439543801" lon="13.871364051863372"><ele>215.5</ele><time>2026-04-11T16:27:45.044Z</time></trkpt><trkpt lat="45.018036744031825" lon="13.871312197536817"><ele>215.25</ele><time>2026-04-11T16:27:46.044Z</time></trkpt><trkpt lat="45.017900231464935" lon="13.871252020087981"><ele>215.0</ele><time>2026-04-11T16:27:47.044Z</time></trkpt><trkpt lat="45.017764198048766" lon="13.871189068100268"><ele>215.0</ele><time>2026-04-11T16:27:48.044Z</time></trkpt><trkpt lat="45.01762337118055" lon="13.871127073675781"><ele>215.0</ele><time>2026-04-11T16:27:49.044Z</time></trkpt><trkpt lat="45.01747758080777" lon="13.871049581986002"><ele>215.0</ele><time>2026-04-11T16:27:50.044Z</time></trkpt><trkpt lat="45.017329244601406" lon="13.870983803541826"><ele>214.66666666666669</ele><time>2026-04-11T16:27:51.044Z</time></trkpt><trkpt lat="45.017180672143624" lon="13.870912386352686"><ele>214.33333333333331</ele><time>2026-04-11T16:27:52.044Z</time></trkpt><trkpt lat="45.01702795823285" lon="13.870842642928606"><ele>214.0</ele><time>2026-04-11T16:27:53.044Z</time></trkpt><trkpt lat="45.016872105398605" lon="13.870773840317737"><ele>214.0</ele><time>2026-04-11T16:27:54.044Z</time></trkpt><trkpt lat="45.01670807740988" lon="13.870693393738929"><ele>214.0</ele><time>2026-04-11T16:27:55.044Z</time></trkpt><trkpt lat="45.01654338929736" lon="13.870620758249386"><ele>214.0</ele><time>2026-04-11T16:27:56.044Z</time></trkpt><trkpt lat="45.01637248658826" lon="13.870543553052599"><ele>213.0</ele><time>2026-04-11T16:27:57.044Z</time></trkpt><trkpt lat="45.01619152532538" lon="13.870468462302673"><ele>212.0</ele><time>2026-04-11T16:27:58.044Z</time></trkpt><trkpt lat="45.0160030590729" lon="13.870385608100786"><ele>211.0</ele><time>2026-04-11T16:27:59.044Z</time></trkpt><trkpt lat="45.01581496132595" lon="13.870305690828742"><ele>210.33333333333331</ele><time>2026-04-11T16:28:00.044Z</time></trkpt><trkpt lat="45.01564025284516" lon="13.870208286505086"><ele>209.66666666666669</ele><time>2026-04-11T16:28:01.044Z</time></trkpt><trkpt lat="45.015452190224394" lon="13.870124935974392"><ele>209.0</ele><time>2026-04-11T16:28:02.044Z</time></trkpt><trkpt lat="45.01525442198563" lon="13.870044264505754"><ele>208.66666666666669</ele><time>2026-04-11T16:28:03.044Z</time></trkpt><trkpt lat="45.015054514936516" lon="13.869987828644865"><ele>208.33333333333331</ele><time>2026-04-11T16:28:04.044Z</time></trkpt><trkpt lat="45.014855191067134" lon="13.869911385737872"><ele>208.0</ele><time>2026-04-11T16:28:05.044Z</time></trkpt><trkpt lat="45.0146499021368" lon="13.869857782686168"><ele>207.33333333333331</ele><time>2026-04-11T16:28:06.044Z</time></trkpt><trkpt lat="45.014446553809584" lon="13.869828321791266"><ele>206.66666666666669</ele><time>2026-04-11T16:28:07.044Z</time></trkpt><trkpt lat="45.014239050691415" lon="13.869835497531632"><ele>206.0</ele><time>2026-04-11T16:28:08.044Z</time></trkpt><trkpt lat="45.01402164901065" lon="13.869879126881145"><ele>206.0</ele><time>2026-04-11T16:28:09.044Z</time></trkpt><trkpt lat="45.013816216769015" lon="13.869926322312851"><ele>206.0</ele><time>2026-04-11T16:28:10.044Z</time></trkpt><trkpt lat="45.01360811447025" lon="13.869985801821985"><ele>206.0</ele><time>2026-04-11T16:28:11.044Z</time></trkpt><trkpt lat="45.01341094188815" lon="13.87003508630276"><ele>206.0</ele><time>2026-04-11T16:28:12.044Z</time></trkpt><trkpt lat="45.013204669754685" lon="13.870090775653377"><ele>206.0</ele><time>2026-04-11T16:28:13.044Z</time></trkpt><trkpt lat="45.01300243169945" lon="13.870131950769347"><ele>206.0</ele><time>2026-04-11T16:28:14.044Z</time></trkpt><trkpt lat="45.01279277460596" lon="13.870182415850037"><ele>206.33333333333334</ele><time>2026-04-11T16:28:15.044Z</time></trkpt><trkpt lat="45.012589433597284" lon="13.8702324779651"><ele>206.66666666666669</ele><time>2026-04-11T16:28:16.044Z</time></trkpt><trkpt lat="45.012386305256115" lon="13.870282363715406"><ele>207.0</ele><time>2026-04-11T16:28:17.044Z</time></trkpt><trkpt lat="45.01218651166543" lon="13.870335591247288"><ele>207.0</ele><time>2026-04-11T16:28:18.043Z</time></trkpt><trkpt lat="45.011986219211295" lon="13.870388934899022"><ele>207.0</ele><time>2026-04-11T16:28:19.043Z</time></trkpt><trkpt lat="45.01178871567846" lon="13.87043907353627"><ele>207.0</ele><time>2026-04-11T16:28:20.043Z</time></trkpt><trkpt lat="45.0115897678381" lon="13.870485935513393"><ele>208.0</ele><time>2026-04-11T16:28:21.043Z</time></trkpt><trkpt lat="45.011393037558456" lon="13.870535083293271"><ele>209.0</ele><time>2026-04-11T16:28:22.043Z</time></trkpt><trkpt lat="45.011200200844634" lon="13.8705816739345"><ele>210.0</ele><time>2026-04-11T16:28:23.043Z</time></trkpt><trkpt lat="45.0110052473581" lon="13.870638927654081"><ele>210.33333333333331</ele><time>2026-04-11T16:28:24.043Z</time></trkpt><trkpt lat="45.01081408925603" lon="13.87068744285636"><ele>210.66666666666666</ele><time>2026-04-11T16:28:25.043Z</time></trkpt><trkpt lat="45.01061844229583" lon="13.870712381443191"><ele>211.0</ele><time>2026-04-11T16:28:26.043Z</time></trkpt><trkpt lat="45.010425634922726" lon="13.870779277585498"><ele>211.0</ele><time>2026-04-11T16:28:27.043Z</time></trkpt><trkpt lat="45.01023085686121" lon="13.870827552488603"><ele>211.0</ele><time>2026-04-11T16:28:28.043Z</time></trkpt><trkpt lat="45.01003611682098" lon="13.870875786055906"><ele>211.0</ele><time>2026-04-11T16:28:29.043Z</time></trkpt><trkpt lat="45.009841723233585" lon="13.87092053456884"><ele>211.0</ele><time>2026-04-11T16:28:30.043Z</time></trkpt><trkpt lat="45.00964255392003" lon="13.870963042246272"><ele>211.0</ele><time>2026-04-11T16:28:31.043Z</time></trkpt><trkpt lat="45.009442080136054" lon="13.871006788836576"><ele>211.0</ele><time>2026-04-11T16:28:32.043Z</time></trkpt><trkpt lat="45.00923964780149" lon="13.871047016051259"><ele>210.0</ele><time>2026-04-11T16:28:33.043Z</time></trkpt><trkpt lat="45.00903652002774" lon="13.871083201756546"><ele>209.0</ele><time>2026-04-11T16:28:34.043Z</time></trkpt><trkpt lat="45.00882653790651" lon="13.871120434224917"><ele>208.0</ele><time>2026-04-11T16:28:35.043Z</time></trkpt><trkpt lat="45.008624003677994" lon="13.871163286116353"><ele>208.0</ele><time>2026-04-11T16:28:36.043Z</time></trkpt><trkpt lat="45.008412072355426" lon="13.871178794269278"><ele>208.0</ele><time>2026-04-11T16:28:37.046Z</time></trkpt><trkpt lat="45.00820121974286" lon="13.871217931325303"><ele>208.0</ele><time>2026-04-11T16:28:38.045Z</time></trkpt><trkpt lat="45.00798983121484" lon="13.871258172603495"><ele>206.66666666666666</ele><time>2026-04-11T16:28:39.045Z</time></trkpt><trkpt lat="45.00776780243605" lon="13.8712953631363"><ele>205.33333333333331</ele><time>2026-04-11T16:28:40.046Z</time></trkpt><trkpt lat="45.00755118722297" lon="13.871338467088433"><ele>204.0</ele><time>2026-04-11T16:28:41.046Z</time></trkpt><trkpt lat="45.00733839310127" lon="13.871398552539556"><ele>203.33333333333331</ele><time>2026-04-11T16:28:42.046Z</time></trkpt><trkpt lat="45.007116255333756" lon="13.871435763500598"><ele>202.66666666666666</ele><time>2026-04-11T16:28:43.046Z</time></trkpt><trkpt lat="45.006895038241325" lon="13.871477798740742"><ele>202.0</ele><time>2026-04-11T16:28:44.045Z</time></trkpt><trkpt lat="45.0066747704336" lon="13.871519165265521"><ele>201.66666666666666</ele><time>2026-04-11T16:28:45.045Z</time></trkpt><trkpt lat="45.00645345468689" lon="13.871560990778846"><ele>201.33333333333331</ele><time>2026-04-11T16:28:46.046Z</time></trkpt><trkpt lat="45.00623641506766" lon="13.871598823948958"><ele>201.0</ele><time>2026-04-11T16:28:47.046Z</time></trkpt><trkpt lat="45.006025475510846" lon="13.871635328330811"><ele>200.66666666666669</ele><time>2026-04-11T16:28:48.046Z</time></trkpt><trkpt lat="45.005817668795004" lon="13.871667528343098"><ele>200.33333333333334</ele><time>2026-04-11T16:28:49.045Z</time></trkpt><trkpt lat="45.00560802283602" lon="13.871706430004885"><ele>200.0</ele><time>2026-04-11T16:28:50.045Z</time></trkpt><trkpt lat="45.005398828107005" lon="13.87175332276071"><ele>200.33333333333334</ele><time>2026-04-11T16:28:51.045Z</time></trkpt><trkpt lat="45.005188581272265" lon="13.871798002080638"><ele>200.66666666666669</ele><time>2026-04-11T16:28:52.045Z</time></trkpt><trkpt lat="45.00498395575201" lon="13.87181943045342"><ele>201.0</ele><time>2026-04-11T16:28:53.045Z</time></trkpt><trkpt lat="45.00477413281357" lon="13.871858727294113"><ele>201.0</ele><time>2026-04-11T16:28:54.045Z</time></trkpt><trkpt lat="45.00456294131971" lon="13.871920530484715"><ele>201.0</ele><time>2026-04-11T16:28:55.045Z</time></trkpt><trkpt lat="45.00435092276608" lon="13.871937261101788"><ele>201.0</ele><time>2026-04-11T16:28:56.045Z</time></trkpt><trkpt lat="45.004154387636966" lon="13.871996090528452"><ele>200.33333333333331</ele><time>2026-04-11T16:28:57.045Z</time></trkpt><trkpt lat="45.003951707564966" lon="13.872032278916882"><ele>199.66666666666666</ele><time>2026-04-11T16:28:58.045Z</time></trkpt><trkpt lat="45.003737267768024" lon="13.872048011695597"><ele>199.0</ele><time>2026-04-11T16:28:59.045Z</time></trkpt><trkpt lat="45.003527007979734" lon="13.872086193960111"><ele>198.0</ele><time>2026-04-11T16:29:00.045Z</time></trkpt><trkpt lat="45.003322411341856" lon="13.872145584884878"><ele>197.0</ele><time>2026-04-11T16:29:01.045Z</time></trkpt><trkpt lat="45.00311172371272" lon="13.872155838746258"><ele>196.0</ele><time>2026-04-11T16:29:02.045Z</time></trkpt><trkpt lat="45.00290111621699" lon="13.872185397248828"><ele>196.0</ele><time>2026-04-11T16:29:03.045Z</time></trkpt><trkpt lat="45.002689936143696" lon="13.872242828002065"><ele>196.0</ele><time>2026-04-11T16:29:04.045Z</time></trkpt><trkpt lat="45.00247464661206" lon="13.87227495443497"><ele>196.0</ele><time>2026-04-11T16:29:05.045Z</time></trkpt><trkpt lat="45.002260544406084" lon="13.872306820396506"><ele>194.66666666666666</ele><time>2026-04-11T16:29:06.045Z</time></trkpt><trkpt lat="45.002042147652745" lon="13.872335551564209"><ele>193.33333333333331</ele><time>2026-04-11T16:29:07.045Z</time></trkpt><trkpt lat="45.0018266785967" lon="13.87236766900554"><ele>192.0</ele><time>2026-04-11T16:29:08.045Z</time></trkpt><trkpt lat="45.001605289549104" lon="13.872378858193729"><ele>191.33333333333334</ele><time>2026-04-11T16:29:09.045Z</time></trkpt><trkpt lat="45.001388408374076" lon="13.872428173684607"><ele>190.66666666666669</ele><time>2026-04-11T16:29:10.045Z</time></trkpt><trkpt lat="45.00116749156238" lon="13.872462713951878"><ele>190.0</ele><time>2026-04-11T16:29:11.045Z</time></trkpt><trkpt lat="45.00094527274847" lon="13.872476179781456"><ele>189.33333333333334</ele><time>2026-04-11T16:29:12.045Z</time></trkpt><trkpt lat="45.000722356227435" lon="13.87253338005569"><ele>188.66666666666666</ele><time>2026-04-11T16:29:13.045Z</time></trkpt><trkpt lat="45.00050328752453" lon="13.872543754933101"><ele>188.0</ele><time>2026-04-11T16:29:14.045Z</time></trkpt><trkpt lat="45.00028780764161" lon="13.872575559579687"><ele>188.0</ele><time>2026-04-11T16:29:15.045Z</time></trkpt><trkpt lat="45.000079910896744" lon="13.87260609241591"><ele>188.0</ele><time>2026-04-11T16:29:16.045Z</time></trkpt><trkpt lat="44.99988585645982" lon="13.8726573697996"><ele>188.0</ele><time>2026-04-11T16:29:17.045Z</time></trkpt><trkpt lat="44.999697284347015" lon="13.872664952088824"><ele>188.33333333333331</ele><time>2026-04-11T16:29:18.045Z</time></trkpt><trkpt lat="44.9995112810357" lon="13.87269242005386"><ele>188.66666666666666</ele><time>2026-04-11T16:29:19.045Z</time></trkpt><trkpt lat="44.99934178392158" lon="13.872740549385703"><ele>189.0</ele><time>2026-04-11T16:29:20.045Z</time></trkpt><trkpt lat="44.99916905870586" lon="13.872759381019904"><ele>188.66666666666666</ele><time>2026-04-11T16:29:21.045Z</time></trkpt><trkpt lat="44.99899458641097" lon="13.872791452088396"><ele>188.33333333333331</ele><time>2026-04-11T16:29:22.045Z</time></trkpt><trkpt lat="44.99881417911249" lon="13.872815258517576"><ele>188.0</ele><time>2026-04-11T16:29:23.045Z</time></trkpt><trkpt lat="44.99863793782819" lon="13.872811941171822"><ele>188.0</ele><time>2026-04-11T16:29:24.045Z</time></trkpt><trkpt lat="44.99845496356679" lon="13.872821816584839"><ele>188.0</ele><time>2026-04-11T16:29:25.045Z</time></trkpt><trkpt lat="44.99826585399036" lon="13.872825148376974"><ele>188.0</ele><time>2026-04-11T16:29:26.045Z</time></trkpt><trkpt lat="44.99807575978344" lon="13.872806541859742"><ele>186.33333333333331</ele><time>2026-04-11T16:29:27.045Z</time></trkpt><trkpt lat="44.997880679662444" lon="13.872768882655672"><ele>184.66666666666666</ele><time>2026-04-11T16:29:28.045Z</time></trkpt><trkpt lat="44.997689422647284" lon="13.872719449852612"><ele>183.0</ele><time>2026-04-11T16:29:29.045Z</time></trkpt><trkpt lat="44.99750087840058" lon="13.872670337246838"><ele>182.0</ele><time>2026-04-11T16:29:30.045Z</time></trkpt><trkpt lat="44.99731811796469" lon="13.872617107305569"><ele>181.0</ele><time>2026-04-11T16:29:31.045Z</time></trkpt><trkpt lat="44.99713475133644" lon="13.872566270394236"><ele>180.0</ele><time>2026-04-11T16:29:32.045Z</time></trkpt><trkpt lat="44.9969516520065" lon="13.87252117089331"><ele>179.33333333333334</ele><time>2026-04-11T16:29:33.045Z</time></trkpt><trkpt lat="44.99676848816537" lon="13.872477174625603"><ele>178.66666666666669</ele><time>2026-04-11T16:29:34.045Z</time></trkpt><trkpt lat="44.996586878854366" lon="13.87243725984337"><ele>178.0</ele><time>2026-04-11T16:29:35.045Z</time></trkpt><trkpt lat="44.996412343113285" lon="13.872385756596149"><ele>178.0</ele><time>2026-04-11T16:29:36.045Z</time></trkpt><trkpt lat="44.99623416019567" lon="13.87234073997939"><ele>178.0</ele><time>2026-04-11T16:29:37.045Z</time></trkpt><trkpt lat="44.99605219226423" lon="13.872292165005836"><ele>178.0</ele><time>2026-04-11T16:29:38.045Z</time></trkpt><trkpt lat="44.995872900196595" lon="13.87224053491884"><ele>177.0</ele><time>2026-04-11T16:29:39.045Z</time></trkpt><trkpt lat="44.995691836679356" lon="13.872182879263075"><ele>176.0</ele><time>2026-04-11T16:29:40.045Z</time></trkpt><trkpt lat="44.995512145196315" lon="13.872128221077684"><ele>175.0</ele><time>2026-04-11T16:29:41.045Z</time></trkpt><trkpt lat="44.995331928168866" lon="13.87207987211076"><ele>175.0</ele><time>2026-04-11T16:29:42.045Z</time></trkpt><trkpt lat="44.99515492524308" lon="13.87202917719275"><ele>175.0</ele><time>2026-04-11T16:29:43.045Z</time></trkpt><trkpt lat="44.994978606886534" lon="13.87197886269608"><ele>175.0</ele><time>2026-04-11T16:29:44.045Z</time></trkpt><trkpt lat="44.994800296527615" lon="13.871929514369471"><ele>175.33333333333334</ele><time>2026-04-11T16:29:45.045Z</time></trkpt><trkpt lat="44.99462630649704" lon="13.871885991990272"><ele>175.66666666666666</ele><time>2026-04-11T16:29:46.045Z</time></trkpt><trkpt lat="44.99446161814256" lon="13.871841028264909"><ele>176.0</ele><time>2026-04-11T16:29:47.045Z</time></trkpt><trkpt lat="44.994308006713865" lon="13.87177555338888"><ele>175.75</ele><time>2026-04-11T16:29:48.045Z</time></trkpt><trkpt lat="44.99415998610388" lon="13.87174010447211"><ele>175.5</ele><time>2026-04-11T16:29:49.045Z</time></trkpt><trkpt lat="44.99401488394888" lon="13.871701781271284"><ele>175.25</ele><time>2026-04-11T16:29:50.045Z</time></trkpt><trkpt lat="44.99386735370577" lon="13.87165794831141"><ele>175.0</ele><time>2026-04-11T16:29:51.045Z</time></trkpt><trkpt lat="44.993716466545564" lon="13.871615277090703"><ele>175.0</ele><time>2026-04-11T16:29:52.045Z</time></trkpt><trkpt lat="44.993567673136866" lon="13.871574269345691"><ele>175.0</ele><time>2026-04-11T16:29:53.045Z</time></trkpt><trkpt lat="44.99341909463353" lon="13.871531187819578"><ele>175.0</ele><time>2026-04-11T16:29:54.045Z</time></trkpt><trkpt lat="44.99326893959944" lon="13.871490105358435"><ele>175.75</ele><time>2026-04-11T16:29:55.045Z</time></trkpt><trkpt lat="44.99312951636343" lon="13.87145604566085"><ele>176.5</ele><time>2026-04-11T16:29:56.045Z</time></trkpt><trkpt lat="44.993000423788736" lon="13.871430668079771"><ele>177.25</ele><time>2026-04-11T16:29:57.045Z</time></trkpt><trkpt lat="44.99287428106107" lon="13.871418324958078"><ele>178.0</ele><time>2026-04-11T16:29:58.045Z</time></trkpt><trkpt lat="44.9927562152068" lon="13.871405308500085"><ele>178.0</ele><time>2026-04-11T16:29:59.045Z</time></trkpt><trkpt lat="44.992634789375074" lon="13.871398023041253"><ele>178.0</ele><time>2026-04-11T16:30:00.045Z</time></trkpt><trkpt lat="44.992506591869585" lon="13.871400291306271"><ele>178.0</ele><time>2026-04-11T16:30:01.045Z</time></trkpt><trkpt lat="44.99236669251178" lon="13.871407969556703"><ele>178.0</ele><time>2026-04-11T16:30:02.045Z</time></trkpt><trkpt lat="44.9922187202277" lon="13.871428906246805"><ele>178.66666666666669</ele><time>2026-04-11T16:30:03.045Z</time></trkpt><trkpt lat="44.992065116801555" lon="13.87145307338024"><ele>179.33333333333334</ele><time>2026-04-11T16:30:04.045Z</time></trkpt><trkpt lat="44.99190144526121" lon="13.871485044706471"><ele>180.0</ele><time>2026-04-11T16:30:05.045Z</time></trkpt><trkpt lat="44.991738046054344" lon="13.871515871751855"><ele>179.33333333333334</ele><time>2026-04-11T16:30:06.045Z</time></trkpt><trkpt lat="44.991562787669544" lon="13.871549808295851"><ele>178.66666666666669</ele><time>2026-04-11T16:30:07.045Z</time></trkpt><trkpt lat="44.9913858796719" lon="13.871588529813879"><ele>178.0</ele><time>2026-04-11T16:30:08.045Z</time></trkpt><trkpt lat="44.991208787179936" lon="13.871616653111644"><ele>178.0</ele><time>2026-04-11T16:30:09.045Z</time></trkpt><trkpt lat="44.99103194827859" lon="13.87164077132439"><ele>178.0</ele><time>2026-04-11T16:30:10.045Z</time></trkpt><trkpt lat="44.99085204610191" lon="13.871670786315248"><ele>178.0</ele><time>2026-04-11T16:30:11.045Z</time></trkpt><trkpt lat="44.99067710754588" lon="13.871704058018118"><ele>177.33333333333334</ele><time>2026-04-11T16:30:12.045Z</time></trkpt><trkpt lat="44.99050640241871" lon="13.871736700921613"><ele>176.66666666666666</ele><time>2026-04-11T16:30:13.045Z</time></trkpt><trkpt lat="44.99034122471269" lon="13.87176782238035"><ele>176.0</ele><time>2026-04-11T16:30:14.045Z</time></trkpt><trkpt lat="44.990179078444775" lon="13.871798566495414"><ele>175.66666666666666</ele><time>2026-04-11T16:30:15.045Z</time></trkpt><trkpt lat="44.99002080870909" lon="13.871823741441323"><ele>175.33333333333334</ele><time>2026-04-11T16:30:16.045Z</time></trkpt><trkpt lat="44.98986264009902" lon="13.871843056640444"><ele>175.0</ele><time>2026-04-11T16:30:17.045Z</time></trkpt><trkpt lat="44.989697599435054" lon="13.871853034473473"><ele>174.33333333333334</ele><time>2026-04-11T16:30:18.045Z</time></trkpt><trkpt lat="44.98952933861121" lon="13.871861862700909"><ele>173.66666666666666</ele><time>2026-04-11T16:30:19.045Z</time></trkpt><trkpt lat="44.98935554649267" lon="13.871853879352935"><ele>173.0</ele><time>2026-04-11T16:30:20.045Z</time></trkpt><trkpt lat="44.989170146585465" lon="13.871817006468723"><ele>172.33333333333331</ele><time>2026-04-11T16:30:21.045Z</time></trkpt><trkpt lat="44.988979765053664" lon="13.871799714526524"><ele>171.66666666666666</ele><time>2026-04-11T16:30:22.045Z</time></trkpt><trkpt lat="44.98878545761377" lon="13.871804213815462"><ele>171.0</ele><time>2026-04-11T16:30:23.045Z</time></trkpt><trkpt lat="44.98859249258588" lon="13.871785577677809"><ele>171.33333333333334</ele><time>2026-04-11T16:30:24.045Z</time></trkpt><trkpt lat="44.98840374007516" lon="13.871761046411137"><ele>171.66666666666669</ele><time>2026-04-11T16:30:25.045Z</time></trkpt><trkpt lat="44.98821078994047" lon="13.871745259053199"><ele>172.0</ele><time>2026-04-11T16:30:26.045Z</time></trkpt><trkpt lat="44.98801730051294" lon="13.87173071169561"><ele>171.0</ele><time>2026-04-11T16:30:27.045Z</time></trkpt><trkpt lat="44.98782299428449" lon="13.87171590089181"><ele>170.0</ele><time>2026-04-11T16:30:28.045Z</time></trkpt><trkpt lat="44.987630426883" lon="13.871699480584732"><ele>169.0</ele><time>2026-04-11T16:30:29.045Z</time></trkpt><trkpt lat="44.9874380145298" lon="13.871685285446947"><ele>168.66666666666669</ele><time>2026-04-11T16:30:30.045Z</time></trkpt><trkpt lat="44.98724739559723" lon="13.871667497036865"><ele>168.33333333333334</ele><time>2026-04-11T16:30:31.045Z</time></trkpt><trkpt lat="44.987056551746406" lon="13.871648335187906"><ele>168.0</ele><time>2026-04-11T16:30:32.045Z</time></trkpt><trkpt lat="44.98686462983234" lon="13.871626903970546"><ele>167.66666666666666</ele><time>2026-04-11T16:30:33.045Z</time></trkpt><trkpt lat="44.9866704209207" lon="13.87161235082184"><ele>167.33333333333331</ele><time>2026-04-11T16:30:34.045Z</time></trkpt><trkpt lat="44.98647861382978" lon="13.871594340215227"><ele>167.0</ele><time>2026-04-11T16:30:35.045Z</time></trkpt><trkpt lat="44.98629508368091" lon="13.871553268308235"><ele>167.0</ele><time>2026-04-11T16:30:36.045Z</time></trkpt><trkpt lat="44.98610707164441" lon="13.871537512487084"><ele>167.0</ele><time>2026-04-11T16:30:37.045Z</time></trkpt><trkpt lat="44.98591722251358" lon="13.871516648424073"><ele>167.0</ele><time>2026-04-11T16:30:38.045Z</time></trkpt><trkpt lat="44.98572844849852" lon="13.871480251698358"><ele>166.33333333333331</ele><time>2026-04-11T16:30:39.045Z</time></trkpt><trkpt lat="44.98554235912621" lon="13.87142664247327"><ele>165.66666666666666</ele><time>2026-04-11T16:30:40.045Z</time></trkpt><trkpt lat="44.98536167465447" lon="13.871350988248057"><ele>165.0</ele><time>2026-04-11T16:30:41.045Z</time></trkpt><trkpt lat="44.98518168093807" lon="13.87126105226837"><ele>164.66666666666666</ele><time>2026-04-11T16:30:42.047Z</time></trkpt><trkpt lat="44.98500372031106" lon="13.871169746112113"><ele>164.33333333333331</ele><time>2026-04-11T16:30:43.048Z</time></trkpt><trkpt lat="44.98482929038801" lon="13.871071355250495"><ele>164.0</ele><time>2026-04-11T16:30:44.048Z</time></trkpt><trkpt lat="44.98465501411463" lon="13.87097264285071"><ele>164.33333333333331</ele><time>2026-04-11T16:30:45.048Z</time></trkpt><trkpt lat="44.984478777953505" lon="13.870879995760662"><ele>164.66666666666666</ele><time>2026-04-11T16:30:46.047Z</time></trkpt><trkpt lat="44.984304056357125" lon="13.870791020692375"><ele>165.0</ele><time>2026-04-11T16:30:47.047Z</time></trkpt><trkpt lat="44.98412894235172" lon="13.870706982015294"><ele>164.0</ele><time>2026-04-11T16:30:48.047Z</time></trkpt><trkpt lat="44.983949605668045" lon="13.870637114938846"><ele>163.0</ele><time>2026-04-11T16:30:49.047Z</time></trkpt><trkpt lat="44.98377080056032" lon="13.870580145007565"><ele>162.0</ele><time>2026-04-11T16:30:50.047Z</time></trkpt><trkpt lat="44.983585087625656" lon="13.870546179572742"><ele>162.0</ele><time>2026-04-11T16:30:51.047Z</time></trkpt><trkpt lat="44.983401147948626" lon="13.870522931782437"><ele>162.0</ele><time>2026-04-11T16:30:52.048Z</time></trkpt><trkpt lat="44.98321452879818" lon="13.87051709712456"><ele>162.0</ele><time>2026-04-11T16:30:53.048Z</time></trkpt><trkpt lat="44.98302597632053" lon="13.870528854853191"><ele>162.0</ele><time>2026-04-11T16:30:54.048Z</time></trkpt><trkpt lat="44.98283798159907" lon="13.870551121346189"><ele>162.0</ele><time>2026-04-11T16:30:55.047Z</time></trkpt><trkpt lat="44.98265289411981" lon="13.870570864440818"><ele>162.0</ele><time>2026-04-11T16:30:56.047Z</time></trkpt><trkpt lat="44.98246598272699" lon="13.870586434706595"><ele>162.33333333333334</ele><time>2026-04-11T16:30:57.047Z</time></trkpt><trkpt lat="44.982284153354335" lon="13.870595691502498"><ele>162.66666666666669</ele><time>2026-04-11T16:30:58.047Z</time></trkpt><trkpt lat="44.98209675601392" lon="13.870609633851114"><ele>163.0</ele><time>2026-04-11T16:30:59.047Z</time></trkpt><trkpt lat="44.98190891946724" lon="13.870623863354512"><ele>163.0</ele><time>2026-04-11T16:31:00.047Z</time></trkpt><trkpt lat="44.98172278912668" lon="13.870638020601938"><ele>163.0</ele><time>2026-04-11T16:31:01.047Z</time></trkpt><trkpt lat="44.98153655857121" lon="13.870652869028488"><ele>163.0</ele><time>2026-04-11T16:31:02.047Z</time></trkpt><trkpt lat="44.98135875645975" lon="13.870670464325524"><ele>162.0</ele><time>2026-04-11T16:31:03.047Z</time></trkpt><trkpt lat="44.98118817875276" lon="13.870691645316498"><ele>161.0</ele><time>2026-04-11T16:31:04.047Z</time></trkpt><trkpt lat="44.98102523596898" lon="13.870716289518215"><ele>160.0</ele><time>2026-04-11T16:31:05.047Z</time></trkpt><trkpt lat="44.98086715938909" lon="13.870749189251525"><ele>160.33333333333334</ele><time>2026-04-11T16:31:06.047Z</time></trkpt><trkpt lat="44.980709368369794" lon="13.870757895760871"><ele>160.66666666666666</ele><time>2026-04-11T16:31:07.047Z</time></trkpt><trkpt lat="44.980566249671384" lon="13.870799832676807"><ele>161.0</ele><time>2026-04-11T16:31:08.047Z</time></trkpt><trkpt lat="44.98041480167455" lon="13.870823809312869"><ele>161.0</ele><time>2026-04-11T16:31:09.047Z</time></trkpt><trkpt lat="44.98026891957951" lon="13.870843409065412"><ele>161.0</ele><time>2026-04-11T16:31:10.047Z</time></trkpt><trkpt lat="44.98011937812534" lon="13.870868722243243"><ele>161.0</ele><time>2026-04-11T16:31:11.047Z</time></trkpt><trkpt lat="44.97996453186861" lon="13.87089237545819"><ele>160.33333333333331</ele><time>2026-04-11T16:31:12.047Z</time></trkpt><trkpt lat="44.97981473269361" lon="13.870901162506321"><ele>159.66666666666666</ele><time>2026-04-11T16:31:13.047Z</time></trkpt><trkpt lat="44.97966175690428" lon="13.870895952968432"><ele>159.0</ele><time>2026-04-11T16:31:14.047Z</time></trkpt><trkpt lat="44.97951569022624" lon="13.87086282976998"><ele>159.0</ele><time>2026-04-11T16:31:15.047Z</time></trkpt><trkpt lat="44.9793723738279" lon="13.870869668890135"><ele>159.0</ele><time>2026-04-11T16:31:16.047Z</time></trkpt><trkpt lat="44.97922940019634" lon="13.870836924498116"><ele>159.0</ele><time>2026-04-11T16:31:17.047Z</time></trkpt><trkpt lat="44.97909582388699" lon="13.870766567556478"><ele>159.0</ele><time>2026-04-11T16:31:18.047Z</time></trkpt><trkpt lat="44.97895747829714" lon="13.870724279788961"><ele>158.25</ele><time>2026-04-11T16:31:19.047Z</time></trkpt><trkpt lat="44.97882497458527" lon="13.870644875787919"><ele>157.5</ele><time>2026-04-11T16:31:20.047Z</time></trkpt><trkpt lat="44.97870176652576" lon="13.8705270948526"><ele>156.75</ele><time>2026-04-11T16:31:21.047Z</time></trkpt><trkpt lat="44.97857643644761" lon="13.870411542435"><ele>156.0</ele><time>2026-04-11T16:31:22.047Z</time></trkpt><trkpt lat="44.97844744891851" lon="13.870301311742343"><ele>155.66666666666666</ele><time>2026-04-11T16:31:23.047Z</time></trkpt><trkpt lat="44.978336402349164" lon="13.870151361839996"><ele>155.33333333333331</ele><time>2026-04-11T16:31:24.047Z</time></trkpt><trkpt lat="44.97822535773529" lon="13.869991070333016"><ele>155.0</ele><time>2026-04-11T16:31:25.047Z</time></trkpt><trkpt lat="44.978116276575804" lon="13.869828012010576"><ele>155.0</ele><time>2026-04-11T16:31:26.047Z</time></trkpt><trkpt lat="44.97800611313131" lon="13.869663846405228"><ele>155.0</ele><time>2026-04-11T16:31:27.047Z</time></trkpt><trkpt lat="44.97789517853444" lon="13.86949948381747"><ele>155.0</ele><time>2026-04-11T16:31:28.047Z</time></trkpt><trkpt lat="44.97778080740941" lon="13.869333391484693"><ele>155.33333333333331</ele><time>2026-04-11T16:31:29.047Z</time></trkpt><trkpt lat="44.97766550134975" lon="13.869164518466283"><ele>155.66666666666666</ele><time>2026-04-11T16:31:30.047Z</time></trkpt><trkpt lat="44.97755177677604" lon="13.868994423657513"><ele>156.0</ele><time>2026-04-11T16:31:31.047Z</time></trkpt><trkpt lat="44.977434208343055" lon="13.868819526485362"><ele>156.66666666666666</ele><time>2026-04-11T16:31:32.047Z</time></trkpt><trkpt lat="44.97731825395273" lon="13.868647495103602"><ele>157.33333333333331</ele><time>2026-04-11T16:31:33.047Z</time></trkpt><trkpt lat="44.97720065373958" lon="13.868472024118043"><ele>158.0</ele><time>2026-04-11T16:31:34.047Z</time></trkpt><trkpt lat="44.9770785024557" lon="13.868292253171525"><ele>158.66666666666666</ele><time>2026-04-11T16:31:35.047Z</time></trkpt><trkpt lat="44.97695867741331" lon="13.86811004789773"><ele>159.33333333333334</ele><time>2026-04-11T16:31:36.047Z</time></trkpt><trkpt lat="44.97684066252596" lon="13.867934035860237"><ele>160.0</ele><time>2026-04-11T16:31:37.047Z</time></trkpt><trkpt lat="44.97672362048953" lon="13.867765263004848"><ele>159.66666666666669</ele><time>2026-04-11T16:31:38.047Z</time></trkpt><trkpt lat="44.97660522713566" lon="13.86759767826487"><ele>159.33333333333334</ele><time>2026-04-11T16:31:39.047Z</time></trkpt><trkpt lat="44.97648129728338" lon="13.867432049209256"><ele>159.0</ele><time>2026-04-11T16:31:40.047Z</time></trkpt><trkpt lat="44.97635300435567" lon="13.867282862520282"><ele>159.0</ele><time>2026-04-11T16:31:41.047Z</time></trkpt><trkpt lat="44.97621878843865" lon="13.867158485382467"><ele>159.0</ele><time>2026-04-11T16:31:42.047Z</time></trkpt><trkpt lat="44.97607755509463" lon="13.867058360391514"><ele>159.0</ele><time>2026-04-11T16:31:43.047Z</time></trkpt><trkpt lat="44.97593242358717" lon="13.866967888053559"><ele>159.66666666666666</ele><time>2026-04-11T16:31:44.047Z</time></trkpt><trkpt lat="44.97578339953524" lon="13.866882051296004"><ele>160.33333333333331</ele><time>2026-04-11T16:31:45.047Z</time></trkpt><trkpt lat="44.975633452775725" lon="13.866792336344623"><ele>161.0</ele><time>2026-04-11T16:31:46.047Z</time></trkpt><trkpt lat="44.97548562820276" lon="13.866698678603138"><ele>161.0</ele><time>2026-04-11T16:31:47.047Z</time></trkpt><trkpt lat="44.97533320746077" lon="13.866603090005787"><ele>161.0</ele><time>2026-04-11T16:31:48.047Z</time></trkpt><trkpt lat="44.97518030982444" lon="13.866504651497255"><ele>161.0</ele><time>2026-04-11T16:31:49.047Z</time></trkpt><trkpt lat="44.97502008226502" lon="13.866400000265749"><ele>162.0</ele><time>2026-04-11T16:31:50.047Z</time></trkpt><trkpt lat="44.974856252883775" lon="13.866293011412665"><ele>163.0</ele><time>2026-04-11T16:31:51.047Z</time></trkpt><trkpt lat="44.97468763552881" lon="13.86618458291372"><ele>164.0</ele><time>2026-04-11T16:31:52.047Z</time></trkpt><trkpt lat="44.97451789947323" lon="13.866077499659976"><ele>164.0</ele><time>2026-04-11T16:31:53.047Z</time></trkpt><trkpt lat="44.97434432791856" lon="13.865968275845315"><ele>164.0</ele><time>2026-04-11T16:31:54.047Z</time></trkpt><trkpt lat="44.974176461566174" lon="13.865860158035858"><ele>164.0</ele><time>2026-04-11T16:31:55.047Z</time></trkpt><trkpt lat="44.97401363343673" lon="13.865757811101918"><ele>162.0</ele><time>2026-04-11T16:31:56.047Z</time></trkpt><trkpt lat="44.97386577290576" lon="13.865633545127238"><ele>160.0</ele><time>2026-04-11T16:31:57.047Z</time></trkpt><trkpt lat="44.97371511935983" lon="13.865527394016214"><ele>158.0</ele><time>2026-04-11T16:31:58.047Z</time></trkpt><trkpt lat="44.97357268612293" lon="13.865423569390266"><ele>158.0</ele><time>2026-04-11T16:31:59.047Z</time></trkpt><trkpt lat="44.97342792048587" lon="13.865316890573535"><ele>158.0</ele><time>2026-04-11T16:32:00.047Z</time></trkpt><trkpt lat="44.97327581041135" lon="13.865204609785279"><ele>158.0</ele><time>2026-04-11T16:32:01.047Z</time></trkpt><trkpt lat="44.973115355608066" lon="13.865086556391304"><ele>157.33333333333331</ele><time>2026-04-11T16:32:02.047Z</time></trkpt><trkpt lat="44.972947396692874" lon="13.864962982763478"><ele>156.66666666666666</ele><time>2026-04-11T16:32:03.047Z</time></trkpt><trkpt lat="44.97278091254494" lon="13.864841722071573"><ele>156.0</ele><time>2026-04-11T16:32:04.047Z</time></trkpt><trkpt lat="44.972607624249925" lon="13.864740265147857"><ele>155.33333333333334</ele><time>2026-04-11T16:32:05.047Z</time></trkpt><trkpt lat="44.97244482775718" lon="13.86461854365207"><ele>154.66666666666669</ele><time>2026-04-11T16:32:06.047Z</time></trkpt><trkpt lat="44.97228780296657" lon="13.864500652361968"><ele>154.0</ele><time>2026-04-11T16:32:07.047Z</time></trkpt><trkpt lat="44.97213580983714" lon="13.864389543990027"><ele>154.0</ele><time>2026-04-11T16:32:08.047Z</time></trkpt><trkpt lat="44.97198241496428" lon="13.864279142638315"><ele>154.0</ele><time>2026-04-11T16:32:09.047Z</time></trkpt><trkpt lat="44.97183011478499" lon="13.864168290553552"><ele>154.0</ele><time>2026-04-11T16:32:10.047Z</time></trkpt><trkpt lat="44.9716751524499" lon="13.864053579671152"><ele>154.0</ele><time>2026-04-11T16:32:11.047Z</time></trkpt><trkpt lat="44.971525181824404" lon="13.863943187198842"><ele>154.0</ele><time>2026-04-11T16:32:12.047Z</time></trkpt><trkpt lat="44.97137461036375" lon="13.863830591764138"><ele>154.0</ele><time>2026-04-11T16:32:13.047Z</time></trkpt><trkpt lat="44.97122475648791" lon="13.863720203350365"><ele>154.0</ele><time>2026-04-11T16:32:14.047Z</time></trkpt><trkpt lat="44.971080556406335" lon="13.863612534957722"><ele>154.0</ele><time>2026-04-11T16:32:15.047Z</time></trkpt><trkpt lat="44.970936008649296" lon="13.863508688573177"><ele>154.0</ele><time>2026-04-11T16:32:16.047Z</time></trkpt><trkpt lat="44.9707939542514" lon="13.863405032510967"><ele>153.66666666666669</ele><time>2026-04-11T16:32:17.047Z</time></trkpt><trkpt lat="44.97065160103355" lon="13.863305070310256"><ele>153.33333333333334</ele><time>2026-04-11T16:32:18.047Z</time></trkpt><trkpt lat="44.970510095866416" lon="13.8631996962169"><ele>153.0</ele><time>2026-04-11T16:32:19.047Z</time></trkpt><trkpt lat="44.97036496725598" lon="13.863093520878545"><ele>153.0</ele><time>2026-04-11T16:32:20.047Z</time></trkpt><trkpt lat="44.97021647096372" lon="13.862988754728528"><ele>153.0</ele><time>2026-04-11T16:32:21.047Z</time></trkpt><trkpt lat="44.9700707798145" lon="13.862879876641024"><ele>153.0</ele><time>2026-04-11T16:32:22.047Z</time></trkpt><trkpt lat="44.96991780365639" lon="13.862766946043305"><ele>152.66666666666666</ele><time>2026-04-11T16:32:23.047Z</time></trkpt><trkpt lat="44.9697592974863" lon="13.862651465117791"><ele>152.33333333333331</ele><time>2026-04-11T16:32:24.047Z</time></trkpt><trkpt lat="44.96960074228437" lon="13.862534454176242"><ele>152.0</ele><time>2026-04-11T16:32:25.047Z</time></trkpt><trkpt lat="44.96944408523233" lon="13.862420358176164"><ele>152.0</ele><time>2026-04-11T16:32:26.047Z</time></trkpt><trkpt lat="44.969290477303254" lon="13.862305434578207"><ele>152.0</ele><time>2026-04-11T16:32:27.047Z</time></trkpt><trkpt lat="44.969129326990085" lon="13.862193388536195"><ele>152.0</ele><time>2026-04-11T16:32:28.047Z</time></trkpt><trkpt lat="44.968968771871204" lon="13.862091342138823"><ele>153.0</ele><time>2026-04-11T16:32:29.047Z</time></trkpt><trkpt lat="44.96881485306249" lon="13.861998091435105"><ele>154.0</ele><time>2026-04-11T16:32:30.047Z</time></trkpt><trkpt lat="44.96866731834293" lon="13.861917946897393"><ele>155.0</ele><time>2026-04-11T16:32:31.047Z</time></trkpt><trkpt lat="44.96852689133742" lon="13.86184180091012"><ele>155.0</ele><time>2026-04-11T16:32:32.047Z</time></trkpt><trkpt lat="44.96839615082895" lon="13.861761623506972"><ele>155.0</ele><time>2026-04-11T16:32:33.047Z</time></trkpt><trkpt lat="44.9682727553124" lon="13.861679653922549"><ele>155.0</ele><time>2026-04-11T16:32:34.047Z</time></trkpt><trkpt lat="44.96815486083967" lon="13.861594145790388"><ele>155.0</ele><time>2026-04-11T16:32:35.047Z</time></trkpt><trkpt lat="44.96804124496186" lon="13.861504641613568"><ele>155.25</ele><time>2026-04-11T16:32:36.047Z</time></trkpt><trkpt lat="44.96792984937369" lon="13.861413023166758"><ele>155.5</ele><time>2026-04-11T16:32:37.047Z</time></trkpt><trkpt lat="44.96781383393985" lon="13.861313206329942"><ele>155.75</ele><time>2026-04-11T16:32:38.047Z</time></trkpt><trkpt lat="44.967690349127516" lon="13.861204903900322"><ele>156.0</ele><time>2026-04-11T16:32:39.047Z</time></trkpt><trkpt lat="44.96756455623196" lon="13.86109578004351"><ele>155.25</ele><time>2026-04-11T16:32:40.047Z</time></trkpt><trkpt lat="44.96745000961453" lon="13.860970379417783"><ele>154.5</ele><time>2026-04-11T16:32:41.047Z</time></trkpt><trkpt lat="44.96731555749387" lon="13.86087813347364"><ele>153.75</ele><time>2026-04-11T16:32:42.047Z</time></trkpt><trkpt lat="44.96718833013558" lon="13.860776550955459"><ele>153.0</ele><time>2026-04-11T16:32:43.047Z</time></trkpt><trkpt lat="44.9670545196116" lon="13.860677770990772"><ele>152.66666666666666</ele><time>2026-04-11T16:32:44.047Z</time></trkpt><trkpt lat="44.9669124503619" lon="13.860590154673393"><ele>152.33333333333331</ele><time>2026-04-11T16:32:45.047Z</time></trkpt><trkpt lat="44.966766556816104" lon="13.860517454674069"><ele>152.0</ele><time>2026-04-11T16:32:46.047Z</time></trkpt><trkpt lat="44.96661545018024" lon="13.860447111796232"><ele>151.25</ele><time>2026-04-11T16:32:47.047Z</time></trkpt><trkpt lat="44.96646877395436" lon="13.860402562017862"><ele>150.5</ele><time>2026-04-11T16:32:48.05Z</time></trkpt><trkpt lat="44.966327478517535" lon="13.860367904654426"><ele>149.75</ele><time>2026-04-11T16:32:49.049Z</time></trkpt><trkpt lat="44.966193574441306" lon="13.860346903415984"><ele>149.0</ele><time>2026-04-11T16:32:50.049Z</time></trkpt><trkpt lat="44.966064129481026" lon="13.860333789821304"><ele>149.0</ele><time>2026-04-11T16:32:51.049Z</time></trkpt><trkpt lat="44.965940655577455" lon="13.860330585277637"><ele>149.0</ele><time>2026-04-11T16:32:52.049Z</time></trkpt><trkpt lat="44.965818217420015" lon="13.860338974240713"><ele>149.0</ele><time>2026-04-11T16:32:53.049Z</time></trkpt><trkpt lat="44.96569537745226" lon="13.860358223942708"><ele>149.0</ele><time>2026-04-11T16:32:54.049Z</time></trkpt><trkpt lat="44.96557689997696" lon="13.860367997905541"><ele>148.75</ele><time>2026-04-11T16:32:55.05Z</time></trkpt><trkpt lat="44.965464258456194" lon="13.860356814945838"><ele>148.5</ele><time>2026-04-11T16:32:56.05Z</time></trkpt><trkpt lat="44.96535383631345" lon="13.860370155234973"><ele>148.25</ele><time>2026-04-11T16:32:57.049Z</time></trkpt><trkpt lat="44.965236229169285" lon="13.860383534387044"><ele>148.0</ele><time>2026-04-11T16:32:58.049Z</time></trkpt><trkpt lat="44.96512514274829" lon="13.860394820379106"><ele>147.8</ele><time>2026-04-11T16:32:59.049Z</time></trkpt><trkpt lat="44.9650181272975" lon="13.86040334846082"><ele>147.60000000000002</ele><time>2026-04-11T16:33:00.05Z</time></trkpt><trkpt lat="44.96491145185684" lon="13.860416255963493"><ele>147.39999999999998</ele><time>2026-04-11T16:33:01.05Z</time></trkpt><trkpt lat="44.96480528490496" lon="13.860428886745073"><ele>147.2</ele><time>2026-04-11T16:33:02.05Z</time></trkpt><trkpt lat="44.96469679119714" lon="13.86044067431324"><ele>147.0</ele><time>2026-04-11T16:33:03.05Z</time></trkpt><trkpt lat="44.9645905431977" lon="13.860455041993063"><ele>147.0</ele><time>2026-04-11T16:33:04.05Z</time></trkpt><trkpt lat="44.96448210553704" lon="13.860464873428375"><ele>147.0</ele><time>2026-04-11T16:33:05.05Z</time></trkpt><trkpt lat="44.964373395525676" lon="13.86047259299329"><ele>147.0</ele><time>2026-04-11T16:33:06.05Z</time></trkpt><trkpt lat="44.96426230866255" lon="13.860486252531613"><ele>147.0</ele><time>2026-04-11T16:33:07.05Z</time></trkpt><trkpt lat="44.964158929848494" lon="13.860497573613932"><ele>147.0</ele><time>2026-04-11T16:33:08.05Z</time></trkpt><trkpt lat="44.964062601151944" lon="13.86050751725359"><ele>146.66666666666666</ele><time>2026-04-11T16:33:09.05Z</time></trkpt><trkpt lat="44.96397370429651" lon="13.86050905143102"><ele>146.33333333333334</ele><time>2026-04-11T16:33:10.05Z</time></trkpt><trkpt lat="44.96388689465414" lon="13.860504441136284"><ele>146.0</ele><time>2026-04-11T16:33:11.05Z</time></trkpt><trkpt lat="44.96381171732397" lon="13.860481775990669"><ele>145.66666666666669</ele><time>2026-04-11T16:33:12.05Z</time></trkpt><trkpt lat="44.96374615226017" lon="13.860415924025503"><ele>145.33333333333334</ele><time>2026-04-11T16:33:13.05Z</time></trkpt><trkpt lat="44.96368878278018" lon="13.860345662929813"><ele>145.0</ele><time>2026-04-11T16:33:14.05Z</time></trkpt><trkpt lat="44.963618606846836" lon="13.860262433989469"><ele>145.0</ele><time>2026-04-11T16:33:15.05Z</time></trkpt><trkpt lat="44.963594685804075" lon="13.860131996148425"><ele>145.0</ele><time>2026-04-11T16:33:16.05Z</time></trkpt><trkpt lat="44.96355880027532" lon="13.860004061317492"><ele>145.0</ele><time>2026-04-11T16:33:17.05Z</time></trkpt><trkpt lat="44.963502975330144" lon="13.859878424849693"><ele>145.0</ele><time>2026-04-11T16:33:18.049Z</time></trkpt><trkpt lat="44.96346498757226" lon="13.859737227624485"><ele>145.0</ele><time>2026-04-11T16:33:19.049Z</time></trkpt><trkpt lat="44.963440711836526" lon="13.859577317560605"><ele>144.66666666666669</ele><time>2026-04-11T16:33:20.049Z</time></trkpt><trkpt lat="44.96339562801829" lon="13.859448574226631"><ele>144.33333333333334</ele><time>2026-04-11T16:33:21.049Z</time></trkpt><trkpt lat="44.963359351880584" lon="13.859326206830731"><ele>144.0</ele><time>2026-04-11T16:33:22.049Z</time></trkpt><trkpt lat="44.963320879232135" lon="13.859208771769204"><ele>143.66666666666666</ele><time>2026-04-11T16:33:23.049Z</time></trkpt><trkpt lat="44.96328367683978" lon="13.8591031473358"><ele>143.33333333333331</ele><time>2026-04-11T16:33:24.049Z</time></trkpt><trkpt lat="44.96325340651857" lon="13.859008734598998"><ele>143.0</ele><time>2026-04-11T16:33:25.049Z</time></trkpt><trkpt lat="44.963221543531155" lon="13.858912344164604"><ele>143.0</ele><time>2026-04-11T16:33:26.049Z</time></trkpt><trkpt lat="44.963193870733996" lon="13.858814603025767"><ele>143.0</ele><time>2026-04-11T16:33:27.049Z</time></trkpt><trkpt lat="44.96316372261349" lon="13.858720601173419"><ele>143.0</ele><time>2026-04-11T16:33:28.049Z</time></trkpt><trkpt lat="44.963133669912246" lon="13.85863783064246"><ele>143.0</ele><time>2026-04-11T16:33:29.049Z</time></trkpt><trkpt lat="44.963077110377704" lon="13.858478211723812"><ele>143.0</ele><time>2026-04-11T16:33:31.049Z</time></trkpt><trkpt lat="44.96307325209221" lon="13.85837700341056"><ele>143.0</ele><time>2026-04-11T16:33:32.049Z</time></trkpt><trkpt lat="44.96304324260257" lon="13.858292206588137"><ele>143.14285714285714</ele><time>2026-04-11T16:33:33.049Z</time></trkpt><trkpt lat="44.96301190339017" lon="13.858202056377333"><ele>143.28571428571428</ele><time>2026-04-11T16:33:34.049Z</time></trkpt><trkpt lat="44.9629791969351" lon="13.858120149216779"><ele>143.42857142857144</ele><time>2026-04-11T16:33:35.049Z</time></trkpt><trkpt lat="44.96295083127924" lon="13.858025167148616"><ele>143.57142857142856</ele><time>2026-04-11T16:33:36.049Z</time></trkpt><trkpt lat="44.96292244375303" lon="13.85792755858304"><ele>143.71428571428572</ele><time>2026-04-11T16:33:37.049Z</time></trkpt><trkpt lat="44.96288790821725" lon="13.857833237768457"><ele>143.85714285714286</ele><time>2026-04-11T16:33:38.049Z</time></trkpt><trkpt lat="44.96285475844043" lon="13.857732245028492"><ele>144.0</ele><time>2026-04-11T16:33:39.049Z</time></trkpt><trkpt lat="44.96283417838605" lon="13.857631842955115"><ele>143.83333333333334</ele><time>2026-04-11T16:33:40.049Z</time></trkpt><trkpt lat="44.962804939131985" lon="13.85753631892726"><ele>143.66666666666666</ele><time>2026-04-11T16:33:41.049Z</time></trkpt><trkpt lat="44.96277675791229" lon="13.857445715482394"><ele>143.5</ele><time>2026-04-11T16:33:42.049Z</time></trkpt><trkpt lat="44.96275131998333" lon="13.857361976654103"><ele>143.33333333333331</ele><time>2026-04-11T16:33:43.049Z</time></trkpt><trkpt lat="44.96270537775988" lon="13.857211794052715"><ele>143.16666666666666</ele><time>2026-04-11T16:33:45.049Z</time></trkpt><trkpt lat="44.96267203573512" lon="13.857101350537965"><ele>143.0</ele><time>2026-04-11T16:33:47.049Z</time></trkpt><trkpt lat="44.96263708675803" lon="13.856990093875291"><ele>143.0</ele><time>2026-04-11T16:33:49.049Z</time></trkpt><trkpt lat="44.96260805080645" lon="13.856897660732935"><ele>143.0</ele><time>2026-04-11T16:33:51.049Z</time></trkpt><trkpt lat="44.96256941046922" lon="13.856774653019558"><ele>143.0</ele><time>2026-04-11T16:33:53.049Z</time></trkpt><trkpt lat="44.96251984547078" lon="13.856620806229834"><ele>143.0</ele><time>2026-04-11T16:33:55.049Z</time></trkpt><trkpt lat="44.9624773210384" lon="13.856546357414164"><ele>143.0</ele><time>2026-04-11T16:33:56.049Z</time></trkpt><trkpt lat="44.962465627415966" lon="13.856458794036408"><ele>143.0</ele><time>2026-04-11T16:33:57.049Z</time></trkpt><trkpt lat="44.9624276499761" lon="13.85633682242296"><ele>143.33333333333331</ele><time>2026-04-11T16:33:59.049Z</time></trkpt><trkpt lat="44.962370836594" lon="13.856274727380322"><ele>143.66666666666666</ele><time>2026-04-11T16:34:01.049Z</time></trkpt><trkpt lat="44.96228048354828" lon="13.856246847990715"><ele>144.0</ele><time>2026-04-11T16:34:03.049Z</time></trkpt><trkpt lat="44.96218540223092" lon="13.856157483893945"><ele>144.33333333333334</ele><time>2026-04-11T16:34:05.049Z</time></trkpt><trkpt lat="44.962134377821776" lon="13.856093904431054"><ele>144.66666666666669</ele><time>2026-04-11T16:34:06.049Z</time></trkpt><trkpt lat="44.962074810757166" lon="13.8560299650076"><ele>145.0</ele><time>2026-04-11T16:34:07.049Z</time></trkpt><trkpt lat="44.96201805643361" lon="13.855972142712039"><ele>145.33333333333334</ele><time>2026-04-11T16:34:08.049Z</time></trkpt><trkpt lat="44.9619585800953" lon="13.855910859659874"><ele>145.66666666666669</ele><time>2026-04-11T16:34:09.049Z</time></trkpt><trkpt lat="44.96188484280454" lon="13.855855913703135"><ele>146.0</ele><time>2026-04-11T16:34:10.049Z</time></trkpt><trkpt lat="44.96180027238313" lon="13.855812637087535"><ele>146.33333333333334</ele><time>2026-04-11T16:34:11.049Z</time></trkpt><trkpt lat="44.961721044837546" lon="13.855764627808977"><ele>146.66666666666666</ele><time>2026-04-11T16:34:12.049Z</time></trkpt><trkpt lat="44.96163235673021" lon="13.855713547492408"><ele>147.0</ele><time>2026-04-11T16:34:13.049Z</time></trkpt><trkpt lat="44.96153848894983" lon="13.855658766894125"><ele>147.2</ele><time>2026-04-11T16:34:14.049Z</time></trkpt><trkpt lat="44.96143910443927" lon="13.855598400778378"><ele>147.39999999999998</ele><time>2026-04-11T16:34:15.049Z</time></trkpt><trkpt lat="44.96134255216334" lon="13.855542870376691"><ele>147.60000000000002</ele><time>2026-04-11T16:34:16.049Z</time></trkpt><trkpt lat="44.96124970626879" lon="13.855491308728316"><ele>147.8</ele><time>2026-04-11T16:34:17.049Z</time></trkpt><trkpt lat="44.96116058775594" lon="13.85543403139056"><ele>148.0</ele><time>2026-04-11T16:34:18.049Z</time></trkpt><trkpt lat="44.96106787341075" lon="13.855372172037459"><ele>148.0</ele><time>2026-04-11T16:34:19.049Z</time></trkpt><trkpt lat="44.9609725772918" lon="13.855315397782297"><ele>148.0</ele><time>2026-04-11T16:34:20.049Z</time></trkpt><trkpt lat="44.960884426743156" lon="13.855251520440302"><ele>148.0</ele><time>2026-04-11T16:34:21.049Z</time></trkpt><trkpt lat="44.960796739777315" lon="13.855201565297067"><ele>148.0</ele><time>2026-04-11T16:34:22.049Z</time></trkpt><trkpt lat="44.960708398984615" lon="13.855143263134657"><ele>148.0</ele><time>2026-04-11T16:34:23.049Z</time></trkpt><trkpt lat="44.96060935224746" lon="13.855082365640166"><ele>148.20000000000002</ele><time>2026-04-11T16:34:24.049Z</time></trkpt><trkpt lat="44.96050622925037" lon="13.855017026555046"><ele>148.4</ele><time>2026-04-11T16:34:25.049Z</time></trkpt><trkpt lat="44.96040512095869" lon="13.854949100741255"><ele>148.60000000000002</ele><time>2026-04-11T16:34:26.049Z</time></trkpt><trkpt lat="44.96030370764883" lon="13.854892573467216"><ele>148.8</ele><time>2026-04-11T16:34:27.049Z</time></trkpt><trkpt lat="44.960207095579186" lon="13.854836388255174"><ele>149.0</ele><time>2026-04-11T16:34:28.049Z</time></trkpt><trkpt lat="44.96011552303255" lon="13.854783061356171"><ele>149.0</ele><time>2026-04-11T16:34:29.049Z</time></trkpt><trkpt lat="44.960038739205444" lon="13.854715344057924"><ele>149.0</ele><time>2026-04-11T16:34:30.049Z</time></trkpt><trkpt lat="44.95995578540611" lon="13.854688092999444"><ele>149.0</ele><time>2026-04-11T16:34:31.049Z</time></trkpt><trkpt lat="44.9598914942323" lon="13.854630206274361"><ele>149.0</ele><time>2026-04-11T16:34:32.049Z</time></trkpt><trkpt lat="44.95982769501031" lon="13.854590341009384"><ele>149.0</ele><time>2026-04-11T16:34:33.049Z</time></trkpt><trkpt lat="44.959760573029115" lon="13.854551495567536"><ele>149.0</ele><time>2026-04-11T16:34:34.049Z</time></trkpt><trkpt lat="44.95969074811346" lon="13.854508244593708"><ele>148.66666666666666</ele><time>2026-04-11T16:34:35.049Z</time></trkpt><trkpt lat="44.95961861073759" lon="13.8544597595545"><ele>148.33333333333331</ele><time>2026-04-11T16:34:36.049Z</time></trkpt><trkpt lat="44.95954315371143" lon="13.854413321161184"><ele>148.0</ele><time>2026-04-11T16:34:37.049Z</time></trkpt><trkpt lat="44.95946880264504" lon="13.85437119337309"><ele>147.66666666666666</ele><time>2026-04-11T16:34:38.049Z</time></trkpt><trkpt lat="44.959396047551415" lon="13.854334958247595"><ele>147.33333333333334</ele><time>2026-04-11T16:34:39.049Z</time></trkpt><trkpt lat="44.95933247048179" lon="13.854279877847596"><ele>147.0</ele><time>2026-04-11T16:34:40.049Z</time></trkpt><trkpt lat="44.959268012854714" lon="13.854243938157126"><ele>147.0</ele><time>2026-04-11T16:34:41.049Z</time></trkpt><trkpt lat="44.959204843868086" lon="13.854212041251168"><ele>147.0</ele><time>2026-04-11T16:34:42.049Z</time></trkpt><trkpt lat="44.95913849947492" lon="13.854179684251257"><ele>147.0</ele><time>2026-04-11T16:34:43.049Z</time></trkpt><trkpt lat="44.95906184756979" lon="13.85414230014187"><ele>147.0</ele><time>2026-04-11T16:34:44.049Z</time></trkpt><trkpt lat="44.95898133230776" lon="13.854102492440255"><ele>147.0</ele><time>2026-04-11T16:34:45.049Z</time></trkpt><trkpt lat="44.9589003253403" lon="13.854062203524094"><ele>147.0</ele><time>2026-04-11T16:34:46.049Z</time></trkpt><trkpt lat="44.95881323573566" lon="13.854019004681003"><ele>147.0</ele><time>2026-04-11T16:34:47.049Z</time></trkpt><trkpt lat="44.95872681385892" lon="13.853976529014917"><ele>147.0</ele><time>2026-04-11T16:34:48.049Z</time></trkpt><trkpt lat="44.95864244559625" lon="13.853935830555518"><ele>147.0</ele><time>2026-04-11T16:34:49.049Z</time></trkpt><trkpt lat="44.95855462905345" lon="13.8539193409089"><ele>147.0</ele><time>2026-04-11T16:34:50.049Z</time></trkpt><trkpt lat="44.95847259897275" lon="13.85388768046387"><ele>147.0</ele><time>2026-04-11T16:34:51.049Z</time></trkpt><trkpt lat="44.958403267844496" lon="13.853866837847269"><ele>147.0</ele><time>2026-04-11T16:34:52.049Z</time></trkpt><trkpt lat="44.95833629906136" lon="13.853854469746091"><ele>147.0</ele><time>2026-04-11T16:34:53.049Z</time></trkpt><trkpt lat="44.9582691117186" lon="13.853841304143327"><ele>147.0</ele><time>2026-04-11T16:34:54.051Z</time></trkpt><trkpt lat="44.958199756399" lon="13.853834462523082"><ele>147.0</ele><time>2026-04-11T16:34:55.051Z</time></trkpt><trkpt lat="44.9581332602026" lon="13.853840253495278"><ele>147.0</ele><time>2026-04-11T16:34:56.051Z</time></trkpt><trkpt lat="44.9580513085689" lon="13.853846982881604"><ele>147.0</ele><time>2026-04-11T16:34:57.051Z</time></trkpt><trkpt lat="44.9579557933568" lon="13.853846296523589"><ele>147.0</ele><time>2026-04-11T16:34:58.051Z</time></trkpt><trkpt lat="44.95786463639698" lon="13.85383625994831"><ele>147.0</ele><time>2026-04-11T16:34:59.051Z</time></trkpt><trkpt lat="44.95777121016448" lon="13.853846659977812"><ele>147.0</ele><time>2026-04-11T16:35:00.051Z</time></trkpt><trkpt lat="44.957667767088516" lon="13.853810380784248"><ele>147.0</ele><time>2026-04-11T16:35:01.051Z</time></trkpt><trkpt lat="44.95755579879214" lon="13.853815337706912"><ele>147.0</ele><time>2026-04-11T16:35:02.051Z</time></trkpt><trkpt lat="44.957443296275464" lon="13.85381355533649"><ele>147.0</ele><time>2026-04-11T16:35:03.051Z</time></trkpt><trkpt lat="44.957328198857695" lon="13.853813854238103"><ele>146.4</ele><time>2026-04-11T16:35:04.051Z</time></trkpt><trkpt lat="44.95721136973975" lon="13.853817169942207"><ele>145.79999999999998</ele><time>2026-04-11T16:35:05.051Z</time></trkpt><trkpt lat="44.95710168190441" lon="13.85380712682327"><ele>145.2</ele><time>2026-04-11T16:35:06.051Z</time></trkpt><trkpt lat="44.95699456674846" lon="13.853812176191779"><ele>144.6</ele><time>2026-04-11T16:35:07.051Z</time></trkpt><trkpt lat="44.95689106067334" lon="13.853812512622506"><ele>144.0</ele><time>2026-04-11T16:35:08.051Z</time></trkpt><trkpt lat="44.95678706556323" lon="13.8538103247274"><ele>142.8</ele><time>2026-04-11T16:35:09.051Z</time></trkpt><trkpt lat="44.95667579593191" lon="13.853809473356304"><ele>141.60000000000002</ele><time>2026-04-11T16:35:10.051Z</time></trkpt><trkpt lat="44.956558261055015" lon="13.853807133717469"><ele>140.4</ele><time>2026-04-11T16:35:11.051Z</time></trkpt><trkpt lat="44.95644992947759" lon="13.853806309155132"><ele>139.20000000000002</ele><time>2026-04-11T16:35:12.051Z</time></trkpt><trkpt lat="44.956344591506415" lon="13.85380246078433"><ele>138.0</ele><time>2026-04-11T16:35:13.051Z</time></trkpt><trkpt lat="44.95624073604558" lon="13.853800389884091"><ele>138.0</ele><time>2026-04-11T16:35:14.051Z</time></trkpt><trkpt lat="44.95613540268158" lon="13.853800160228033"><ele>138.0</ele><time>2026-04-11T16:35:15.051Z</time></trkpt><trkpt lat="44.95602476592112" lon="13.853800369598554"><ele>138.0</ele><time>2026-04-11T16:35:16.051Z</time></trkpt><trkpt lat="44.95591163852007" lon="13.853796124353275"><ele>138.0</ele><time>2026-04-11T16:35:17.051Z</time></trkpt><trkpt lat="44.955789991232606" lon="13.853795254371814"><ele>137.5</ele><time>2026-04-11T16:35:18.051Z</time></trkpt><trkpt lat="44.95566944434275" lon="13.853786267176794"><ele>137.0</ele><time>2026-04-11T16:35:19.051Z</time></trkpt><trkpt lat="44.95554553085781" lon="13.853781070695241"><ele>136.5</ele><time>2026-04-11T16:35:20.05Z</time></trkpt><trkpt lat="44.95542407326332" lon="13.853780276310047"><ele>136.0</ele><time>2026-04-11T16:35:21.049Z</time></trkpt><trkpt lat="44.955305920953116" lon="13.853778797521954"><ele>136.0</ele><time>2026-04-11T16:35:22.048Z</time></trkpt><trkpt lat="44.955192480015576" lon="13.85377598015303"><ele>136.0</ele><time>2026-04-11T16:35:23.047Z</time></trkpt><trkpt lat="44.95508070732624" lon="13.853773412516448"><ele>136.0</ele><time>2026-04-11T16:35:24.046Z</time></trkpt><trkpt lat="44.95497504410797" lon="13.853777619216233"><ele>136.0</ele><time>2026-04-11T16:35:25.045Z</time></trkpt><trkpt lat="44.95487255836553" lon="13.853782604670968"><ele>136.0</ele><time>2026-04-11T16:35:26.044Z</time></trkpt><trkpt lat="44.95477499505057" lon="13.853786623174765"><ele>135.4</ele><time>2026-04-11T16:35:27.043Z</time></trkpt><trkpt lat="44.95468036483647" lon="13.853761694326115"><ele>134.8</ele><time>2026-04-11T16:35:28.042Z</time></trkpt><trkpt lat="44.95458444389775" lon="13.85376508539691"><ele>134.20000000000002</ele><time>2026-04-11T16:35:29.041Z</time></trkpt><trkpt lat="44.95448469416831" lon="13.853764992715837"><ele>133.6</ele><time>2026-04-11T16:35:30.041Z</time></trkpt><trkpt lat="44.954380231511344" lon="13.853765310569877"><ele>133.0</ele><time>2026-04-11T16:35:31.04Z</time></trkpt><trkpt lat="44.95428354272539" lon="13.853759007045214"><ele>132.33333333333334</ele><time>2026-04-11T16:35:32.039Z</time></trkpt><trkpt lat="44.95419462439719" lon="13.853756049227025"><ele>131.66666666666669</ele><time>2026-04-11T16:35:33.039Z</time></trkpt><trkpt lat="44.954113744539676" lon="13.85375400109661"><ele>131.0</ele><time>2026-04-11T16:35:34.038Z</time></trkpt><trkpt lat="44.954033849897314" lon="13.853724082873692"><ele>130.33333333333334</ele><time>2026-04-11T16:35:35.038Z</time></trkpt><trkpt lat="44.95395203524355" lon="13.853752006028316"><ele>129.66666666666666</ele><time>2026-04-11T16:35:36.037Z</time></trkpt><trkpt lat="44.95386205179509" lon="13.853763267659852"><ele>129.0</ele><time>2026-04-11T16:35:37.037Z</time></trkpt><trkpt lat="44.95376153204044" lon="13.853754193123255"><ele>129.0</ele><time>2026-04-11T16:35:38.036Z</time></trkpt><trkpt lat="44.95364835994936" lon="13.85373786986575"><ele>129.0</ele><time>2026-04-11T16:35:39.036Z</time></trkpt><trkpt lat="44.95352712413626" lon="13.85372458846104"><ele>129.0</ele><time>2026-04-11T16:35:40.036Z</time></trkpt><trkpt lat="44.95341353304769" lon="13.853707735457265"><ele>129.0</ele><time>2026-04-11T16:35:41.035Z</time></trkpt><trkpt lat="44.95329924508415" lon="13.853693723982069"><ele>128.0</ele><time>2026-04-11T16:35:42.035Z</time></trkpt><trkpt lat="44.95317907277302" lon="13.853691025778545"><ele>127.0</ele><time>2026-04-11T16:35:43.035Z</time></trkpt><trkpt lat="44.95306002927414" lon="13.853693557614575"><ele>126.0</ele><time>2026-04-11T16:35:44.034Z</time></trkpt><trkpt lat="44.95295032604095" lon="13.853685475120745"><ele>125.0</ele><time>2026-04-11T16:35:45.034Z</time></trkpt><trkpt lat="44.952847402534815" lon="13.853656381370836"><ele>125.0</ele><time>2026-04-11T16:35:46.034Z</time></trkpt><trkpt lat="44.952754931989006" lon="13.853593255632681"><ele>125.0</ele><time>2026-04-11T16:35:47.033Z</time></trkpt><trkpt lat="44.952694487959405" lon="13.853478393131686"><ele>125.0</ele><time>2026-04-11T16:35:48.033Z</time></trkpt><trkpt lat="44.95263585272431" lon="13.853375168578548"><ele>125.0</ele><time>2026-04-11T16:35:49.033Z</time></trkpt><trkpt lat="44.95259124884357" lon="13.853254114605106"><ele>125.0</ele><time>2026-04-11T16:35:50.033Z</time></trkpt><trkpt lat="44.9525640713237" lon="13.853132219660207"><ele>124.83333333333333</ele><time>2026-04-11T16:35:51.033Z</time></trkpt><trkpt lat="44.952549541722895" lon="13.853013086330531"><ele>124.66666666666666</ele><time>2026-04-11T16:35:52.032Z</time></trkpt><trkpt lat="44.95252578518205" lon="13.852916623361093"><ele>124.5</ele><time>2026-04-11T16:35:53.032Z</time></trkpt><trkpt lat="44.952481437070674" lon="13.852852687438391"><ele>124.33333333333334</ele><time>2026-04-11T16:35:54.032Z</time></trkpt><trkpt lat="44.95236233726706" lon="13.852840087642983"><ele>124.16666666666667</ele><time>2026-04-11T16:35:56.032Z</time></trkpt><trkpt lat="44.95230351227624" lon="13.852914945592575"><ele>124.0</ele><time>2026-04-11T16:35:57.032Z</time></trkpt><trkpt lat="44.9522654933826" lon="13.853017253237887"><ele>123.4</ele><time>2026-04-11T16:35:58.031Z</time></trkpt><trkpt lat="44.95221813309297" lon="13.853122630250473"><ele>122.80000000000001</ele><time>2026-04-11T16:35:59.031Z</time></trkpt><trkpt lat="44.95214983518184" lon="13.85321494820376"><ele>122.19999999999999</ele><time>2026-04-11T16:36:00.031Z</time></trkpt><trkpt lat="44.95204630953545" lon="13.853298858806331"><ele>121.6</ele><time>2026-04-11T16:36:01.031Z</time></trkpt><trkpt lat="44.95193772116472" lon="13.853374461819904"><ele>121.0</ele><time>2026-04-11T16:36:02.031Z</time></trkpt><trkpt lat="44.95182989987719" lon="13.853440534399313"><ele>120.33333333333334</ele><time>2026-04-11T16:36:03.031Z</time></trkpt><trkpt lat="44.951702711588176" lon="13.853503720992379"><ele>119.66666666666666</ele><time>2026-04-11T16:36:04.031Z</time></trkpt><trkpt lat="44.951548717327704" lon="13.853563904653367"><ele>119.0</ele><time>2026-04-11T16:36:05.031Z</time></trkpt><trkpt lat="44.95137447928936" lon="13.85362661346303"><ele>119.0</ele><time>2026-04-11T16:36:06.031Z</time></trkpt><trkpt lat="44.951199786618055" lon="13.853670509953313"><ele>119.0</ele><time>2026-04-11T16:36:07.031Z</time></trkpt><trkpt lat="44.95103850640061" lon="13.853688644512182"><ele>119.0</ele><time>2026-04-11T16:36:08.031Z</time></trkpt><trkpt lat="44.95086789004607" lon="13.853695696519189"><ele>119.33333333333333</ele><time>2026-04-11T16:36:09.031Z</time></trkpt><trkpt lat="44.9506885864165" lon="13.853696911753211"><ele>119.66666666666666</ele><time>2026-04-11T16:36:10.03Z</time></trkpt><trkpt lat="44.950507515137" lon="13.853680318555396"><ele>120.0</ele><time>2026-04-11T16:36:11.03Z</time></trkpt><trkpt lat="44.950329484001045" lon="13.853694986465447"><ele>120.0</ele><time>2026-04-11T16:36:12.03Z</time></trkpt><trkpt lat="44.95015807295484" lon="13.853688869639715"><ele>120.0</ele><time>2026-04-11T16:36:13.03Z</time></trkpt><trkpt lat="44.94998480085397" lon="13.85366825996443"><ele>120.0</ele><time>2026-04-11T16:36:14.03Z</time></trkpt><trkpt lat="44.94980286892225" lon="13.853668027327497"><ele>120.66666666666666</ele><time>2026-04-11T16:36:15.03Z</time></trkpt><trkpt lat="44.94961994755451" lon="13.853663791109886"><ele>121.33333333333333</ele><time>2026-04-11T16:36:16.03Z</time></trkpt><trkpt lat="44.94944198415616" lon="13.853660952178853"><ele>122.0</ele><time>2026-04-11T16:36:17.03Z</time></trkpt><trkpt lat="44.94926888776136" lon="13.853654023906126"><ele>122.0</ele><time>2026-04-11T16:36:18.03Z</time></trkpt><trkpt lat="44.94909506408065" lon="13.853658318903133"><ele>122.0</ele><time>2026-04-11T16:36:19.03Z</time></trkpt><trkpt lat="44.94891477154335" lon="13.853660382053867"><ele>122.0</ele><time>2026-04-11T16:36:20.03Z</time></trkpt><trkpt lat="44.94873394872177" lon="13.853659029760836"><ele>122.0</ele><time>2026-04-11T16:36:21.03Z</time></trkpt><trkpt lat="44.94855983441054" lon="13.85365586087708"><ele>122.0</ele><time>2026-04-11T16:36:22.03Z</time></trkpt><trkpt lat="44.94838515836855" lon="13.853656580298022"><ele>122.0</ele><time>2026-04-11T16:36:23.03Z</time></trkpt><trkpt lat="44.948213445604246" lon="13.853652014499444"><ele>120.33333333333333</ele><time>2026-04-11T16:36:24.03Z</time></trkpt><trkpt lat="44.94804152086087" lon="13.8536438196821"><ele>118.66666666666666</ele><time>2026-04-11T16:36:25.03Z</time></trkpt><trkpt lat="44.94787443343489" lon="13.853641051576334"><ele>117.0</ele><time>2026-04-11T16:36:26.03Z</time></trkpt><trkpt lat="44.94771445212078" lon="13.853634367039962"><ele>117.0</ele><time>2026-04-11T16:36:27.03Z</time></trkpt><trkpt lat="44.947554423369226" lon="13.853630877454744"><ele>117.0</ele><time>2026-04-11T16:36:28.03Z</time></trkpt><trkpt lat="44.947394242410546" lon="13.853628193488595"><ele>117.0</ele><time>2026-04-11T16:36:29.03Z</time></trkpt><trkpt lat="44.947225945177756" lon="13.853624422210158"><ele>117.33333333333334</ele><time>2026-04-11T16:36:30.03Z</time></trkpt><trkpt lat="44.94706061554172" lon="13.853617798047031"><ele>117.66666666666667</ele><time>2026-04-11T16:36:31.03Z</time></trkpt><trkpt lat="44.94689350312883" lon="13.853613816149997"><ele>118.0</ele><time>2026-04-11T16:36:32.03Z</time></trkpt><trkpt lat="44.94672690049842" lon="13.85360621295299"><ele>117.33333333333334</ele><time>2026-04-11T16:36:33.03Z</time></trkpt><trkpt lat="44.94655668836007" lon="13.853603074298137"><ele>116.66666666666666</ele><time>2026-04-11T16:36:34.03Z</time></trkpt><trkpt lat="44.94638375145064" lon="13.853602257843"><ele>116.0</ele><time>2026-04-11T16:36:35.03Z</time></trkpt><trkpt lat="44.946203467379696" lon="13.853608082070119"><ele>116.0</ele><time>2026-04-11T16:36:36.03Z</time></trkpt><trkpt lat="44.94601999558608" lon="13.85360375542642"><ele>116.0</ele><time>2026-04-11T16:36:37.03Z</time></trkpt><trkpt lat="44.94583099117163" lon="13.853597401120455"><ele>116.0</ele><time>2026-04-11T16:36:38.029Z</time></trkpt><trkpt lat="44.945636137614265" lon="13.85359893436618"><ele>116.33333333333333</ele><time>2026-04-11T16:36:39.029Z</time></trkpt><trkpt lat="44.94543751508684" lon="13.85359107144384"><ele>116.66666666666666</ele><time>2026-04-11T16:36:40.029Z</time></trkpt><trkpt lat="44.94524229624205" lon="13.8535907820791"><ele>117.0</ele><time>2026-04-11T16:36:41.029Z</time></trkpt><trkpt lat="44.94505156085215" lon="13.853582455822705"><ele>116.33333333333334</ele><time>2026-04-11T16:36:42.029Z</time></trkpt><trkpt lat="44.944865509197584" lon="13.853580750592908"><ele>115.66666666666667</ele><time>2026-04-11T16:36:43.029Z</time></trkpt><trkpt lat="44.94467887465541" lon="13.85355641509064"><ele>115.0</ele><time>2026-04-11T16:36:44.029Z</time></trkpt><trkpt lat="44.944493960821084" lon="13.853548411503695"><ele>115.0</ele><time>2026-04-11T16:36:45.029Z</time></trkpt><trkpt lat="44.944311111352036" lon="13.853530213053187"><ele>115.0</ele><time>2026-04-11T16:36:46.029Z</time></trkpt><trkpt lat="44.94412812826474" lon="13.853506665624248"><ele>115.0</ele><time>2026-04-11T16:36:47.029Z</time></trkpt><trkpt lat="44.94393905467586" lon="13.853480005326485"><ele>114.33333333333334</ele><time>2026-04-11T16:36:48.029Z</time></trkpt><trkpt lat="44.943746355992836" lon="13.853471386706278"><ele>113.66666666666666</ele><time>2026-04-11T16:36:49.029Z</time></trkpt><trkpt lat="44.94355012023649" lon="13.853425055177755"><ele>113.0</ele><time>2026-04-11T16:36:50.029Z</time></trkpt><trkpt lat="44.94334826740977" lon="13.853397612446912"><ele>112.33333333333333</ele><time>2026-04-11T16:36:51.029Z</time></trkpt><trkpt lat="44.94315037241976" lon="13.853395672836784"><ele>111.66666666666666</ele><time>2026-04-11T16:36:52.029Z</time></trkpt><trkpt lat="44.94296153194858" lon="13.853370143080038"><ele>111.0</ele><time>2026-04-11T16:36:53.029Z</time></trkpt><trkpt lat="44.94277114407043" lon="13.85335230346725"><ele>111.0</ele><time>2026-04-11T16:36:54.029Z</time></trkpt><trkpt lat="44.94258560494234" lon="13.853306583273755"><ele>111.0</ele><time>2026-04-11T16:36:55.029Z</time></trkpt><trkpt lat="44.94240134823991" lon="13.85328118268335"><ele>111.0</ele><time>2026-04-11T16:36:56.029Z</time></trkpt><trkpt lat="44.9422186449756" lon="13.853275560150237"><ele>109.33333333333334</ele><time>2026-04-11T16:36:57.029Z</time></trkpt><trkpt lat="44.942030585403224" lon="13.853254831651936"><ele>107.66666666666667</ele><time>2026-04-11T16:36:58.029Z</time></trkpt><trkpt lat="44.94184659762246" lon="13.853223431716383"><ele>106.0</ele><time>2026-04-11T16:36:59.031Z</time></trkpt><trkpt lat="44.94165242377548" lon="13.853200462467385"><ele>104.66666666666667</ele><time>2026-04-11T16:37:00.03Z</time></trkpt><trkpt lat="44.94146289613357" lon="13.853172280730265"><ele>103.33333333333334</ele><time>2026-04-11T16:37:01.03Z</time></trkpt><trkpt lat="44.94126950992461" lon="13.853145448679385"><ele>102.0</ele><time>2026-04-11T16:37:02.031Z</time></trkpt><trkpt lat="44.94107044002386" lon="13.8531202288716"><ele>101.0</ele><time>2026-04-11T16:37:03.03Z</time></trkpt><trkpt lat="44.94087130148871" lon="13.853089973987599"><ele>100.0</ele><time>2026-04-11T16:37:04.03Z</time></trkpt><trkpt lat="44.940672752558335" lon="13.85306581957899"><ele>99.0</ele><time>2026-04-11T16:37:05.03Z</time></trkpt><trkpt lat="44.94047709895549" lon="13.853039035735273"><ele>99.0</ele><time>2026-04-11T16:37:06.03Z</time></trkpt><trkpt lat="44.940289382611965" lon="13.853016283560263"><ele>99.0</ele><time>2026-04-11T16:37:07.03Z</time></trkpt><trkpt lat="44.94009890982182" lon="13.85299625980426"><ele>99.0</ele><time>2026-04-11T16:37:08.03Z</time></trkpt><trkpt lat="44.939919060609284" lon="13.852968731143228"><ele>97.66666666666667</ele><time>2026-04-11T16:37:09.03Z</time></trkpt><trkpt lat="44.93974203015468" lon="13.852940239111266"><ele>96.33333333333334</ele><time>2026-04-11T16:37:10.03Z</time></trkpt><trkpt lat="44.939551418073655" lon="13.852903451219474"><ele>95.0</ele><time>2026-04-11T16:37:11.03Z</time></trkpt><trkpt lat="44.93935480242929" lon="13.852871997363248"><ele>94.66666666666667</ele><time>2026-04-11T16:37:12.031Z</time></trkpt><trkpt lat="44.939159945292246" lon="13.852842841628275"><ele>94.33333333333333</ele><time>2026-04-11T16:37:13.031Z</time></trkpt><trkpt lat="44.93897182426032" lon="13.85281956677249"><ele>94.0</ele><time>2026-04-11T16:37:14.031Z</time></trkpt><trkpt lat="44.938778245961664" lon="13.85280021344372"><ele>94.0</ele><time>2026-04-11T16:37:15.03Z</time></trkpt><trkpt lat="44.938584105287966" lon="13.852783936041135"><ele>94.0</ele><time>2026-04-11T16:37:16.03Z</time></trkpt><trkpt lat="44.938398537642485" lon="13.852766247342583"><ele>94.0</ele><time>2026-04-11T16:37:17.03Z</time></trkpt><trkpt lat="44.93821562142009" lon="13.852746274633397"><ele>93.0</ele><time>2026-04-11T16:37:18.03Z</time></trkpt><trkpt lat="44.93803470405679" lon="13.852721822553942"><ele>92.0</ele><time>2026-04-11T16:37:19.03Z</time></trkpt><trkpt lat="44.937856265738915" lon="13.852694535697335"><ele>91.0</ele><time>2026-04-11T16:37:20.03Z</time></trkpt><trkpt lat="44.937685537217334" lon="13.852672567778708"><ele>89.66666666666666</ele><time>2026-04-11T16:37:21.03Z</time></trkpt><trkpt lat="44.937510545609214" lon="13.852649814752555"><ele>88.33333333333333</ele><time>2026-04-11T16:37:22.03Z</time></trkpt><trkpt lat="44.93733403227262" lon="13.85262087464052"><ele>87.0</ele><time>2026-04-11T16:37:23.03Z</time></trkpt><trkpt lat="44.937152941454606" lon="13.85259644900442"><ele>86.33333333333333</ele><time>2026-04-11T16:37:24.03Z</time></trkpt><trkpt lat="44.93697136900479" lon="13.852574912722522"><ele>85.66666666666666</ele><time>2026-04-11T16:37:25.03Z</time></trkpt><trkpt lat="44.9367971216545" lon="13.852556472953077"><ele>85.0</ele><time>2026-04-11T16:37:26.03Z</time></trkpt><trkpt lat="44.936629569705616" lon="13.852534310102813"><ele>84.0</ele><time>2026-04-11T16:37:27.03Z</time></trkpt><trkpt lat="44.936464443331005" lon="13.852509539968604"><ele>83.0</ele><time>2026-04-11T16:37:28.03Z</time></trkpt><trkpt lat="44.93630124286882" lon="13.852486731378193"><ele>82.0</ele><time>2026-04-11T16:37:29.03Z</time></trkpt><trkpt lat="44.93613476250687" lon="13.852460243724263"><ele>82.0</ele><time>2026-04-11T16:37:30.03Z</time></trkpt><trkpt lat="44.93596596263994" lon="13.852435954466824"><ele>82.0</ele><time>2026-04-11T16:37:31.03Z</time></trkpt><trkpt lat="44.93579098147016" lon="13.852413618084771"><ele>82.0</ele><time>2026-04-11T16:37:32.03Z</time></trkpt><trkpt lat="44.935613128663775" lon="13.852391830940103"><ele>82.0</ele><time>2026-04-11T16:37:33.03Z</time></trkpt><trkpt lat="44.93543268087453" lon="13.852371352851963"><ele>82.0</ele><time>2026-04-11T16:37:34.03Z</time></trkpt><trkpt lat="44.93525308707453" lon="13.852347872657722"><ele>82.0</ele><time>2026-04-11T16:37:35.03Z</time></trkpt><trkpt lat="44.935071546167364" lon="13.852323095966785"><ele>79.33333333333333</ele><time>2026-04-11T16:37:36.03Z</time></trkpt><trkpt lat="44.934887158217805" lon="13.852299012143252"><ele>76.66666666666667</ele><time>2026-04-11T16:37:37.03Z</time></trkpt><trkpt lat="44.934704990833566" lon="13.852275120189951"><ele>74.0</ele><time>2026-04-11T16:37:38.03Z</time></trkpt><trkpt lat="44.934524380040486" lon="13.8522533631937"><ele>74.0</ele><time>2026-04-11T16:37:39.03Z</time></trkpt><trkpt lat="44.934344372431966" lon="13.852230268477953"><ele>74.0</ele><time>2026-04-11T16:37:40.03Z</time></trkpt><trkpt lat="44.93416429410437" lon="13.852201965386366"><ele>74.0</ele><time>2026-04-11T16:37:41.03Z</time></trkpt><trkpt lat="44.933985624195074" lon="13.852174424561547"><ele>73.33333333333334</ele><time>2026-04-11T16:37:42.03Z</time></trkpt><trkpt lat="44.93380632604371" lon="13.852153065120147"><ele>72.66666666666667</ele><time>2026-04-11T16:37:43.03Z</time></trkpt><trkpt lat="44.93362489184496" lon="13.852135823863089"><ele>72.0</ele><time>2026-04-11T16:37:44.03Z</time></trkpt><trkpt lat="44.9334404552211" lon="13.85211444410169"><ele>71.33333333333333</ele><time>2026-04-11T16:37:45.03Z</time></trkpt><trkpt lat="44.93325631332087" lon="13.852088484175058"><ele>70.66666666666666</ele><time>2026-04-11T16:37:46.03Z</time></trkpt><trkpt lat="44.93307311957633" lon="13.852063415951235"><ele>70.0</ele><time>2026-04-11T16:37:47.03Z</time></trkpt><trkpt lat="44.932889360782575" lon="13.852039332356032"><ele>70.0</ele><time>2026-04-11T16:37:48.03Z</time></trkpt><trkpt lat="44.93270794046621" lon="13.852012410820702"><ele>70.0</ele><time>2026-04-11T16:37:49.03Z</time></trkpt><trkpt lat="44.932523762284205" lon="13.85198603193027"><ele>70.0</ele><time>2026-04-11T16:37:50.03Z</time></trkpt><trkpt lat="44.932339039344576" lon="13.85196383938054"><ele>69.33333333333333</ele><time>2026-04-11T16:37:51.03Z</time></trkpt><trkpt lat="44.93215452692726" lon="13.85194254189231"><ele>68.66666666666667</ele><time>2026-04-11T16:37:52.03Z</time></trkpt><trkpt lat="44.93197215016506" lon="13.851921472759491"><ele>68.0</ele><time>2026-04-11T16:37:53.03Z</time></trkpt><trkpt lat="44.9317931692332" lon="13.851897624547066"><ele>67.0</ele><time>2026-04-11T16:37:54.03Z</time></trkpt><trkpt lat="44.93161743909077" lon="13.851873082962536"><ele>66.0</ele><time>2026-04-11T16:37:55.03Z</time></trkpt><trkpt lat="44.93143598330056" lon="13.851849170635235"><ele>65.0</ele><time>2026-04-11T16:37:56.03Z</time></trkpt><trkpt lat="44.93126298586984" lon="13.851827227129993"><ele>65.0</ele><time>2026-04-11T16:37:57.03Z</time></trkpt><trkpt lat="44.931091552226874" lon="13.851804070226105"><ele>65.0</ele><time>2026-04-11T16:37:58.03Z</time></trkpt><trkpt lat="44.93092946886395" lon="13.851782020940306"><ele>65.0</ele><time>2026-04-11T16:37:59.03Z</time></trkpt><trkpt lat="44.930767829239464" lon="13.851761665052926"><ele>65.0</ele><time>2026-04-11T16:38:00.03Z</time></trkpt><trkpt lat="44.9306050034531" lon="13.851741640112037"><ele>65.0</ele><time>2026-04-11T16:38:01.03Z</time></trkpt><trkpt lat="44.93043891568199" lon="13.851721447876539"><ele>65.0</ele><time>2026-04-11T16:38:02.03Z</time></trkpt><trkpt lat="44.93027615890238" lon="13.851700125034643"><ele>65.0</ele><time>2026-04-11T16:38:03.03Z</time></trkpt><trkpt lat="44.9301145088718" lon="13.851680408047072"><ele>65.0</ele><time>2026-04-11T16:38:04.03Z</time></trkpt><trkpt lat="44.92995601227572" lon="13.851658089138109"><ele>65.0</ele><time>2026-04-11T16:38:05.03Z</time></trkpt><trkpt lat="44.929796535177765" lon="13.851637234017074"><ele>64.75</ele><time>2026-04-11T16:38:06.03Z</time></trkpt><trkpt lat="44.929638339879176" lon="13.851619218300888"><ele>64.5</ele><time>2026-04-11T16:38:07.03Z</time></trkpt><trkpt lat="44.92949379265007" lon="13.851602233910892"><ele>64.25</ele><time>2026-04-11T16:38:08.03Z</time></trkpt><trkpt lat="44.92935256813351" lon="13.851583603976312"><ele>64.0</ele><time>2026-04-11T16:38:09.03Z</time></trkpt><trkpt lat="44.92921250818921" lon="13.851560846425642"><ele>64.0</ele><time>2026-04-11T16:38:10.03Z</time></trkpt><trkpt lat="44.929068157137856" lon="13.851540877845256"><ele>64.0</ele><time>2026-04-11T16:38:11.03Z</time></trkpt><trkpt lat="44.9289238164805" lon="13.85152551059306"><ele>64.0</ele><time>2026-04-11T16:38:12.03Z</time></trkpt><trkpt lat="44.92878133922396" lon="13.851502878338149"><ele>64.0</ele><time>2026-04-11T16:38:13.03Z</time></trkpt><trkpt lat="44.9286480586266" lon="13.85148606991628"><ele>64.0</ele><time>2026-04-11T16:38:14.03Z</time></trkpt><trkpt lat="44.928513961738496" lon="13.851469251009727"><ele>64.0</ele><time>2026-04-11T16:38:15.03Z</time></trkpt><trkpt lat="44.92838306406126" lon="13.851455296176521"><ele>64.0</ele><time>2026-04-11T16:38:16.03Z</time></trkpt><trkpt lat="44.92825239667292" lon="13.851438104863453"><ele>64.0</ele><time>2026-04-11T16:38:17.03Z</time></trkpt><trkpt lat="44.92812691540321" lon="13.85142148259957"><ele>62.75</ele><time>2026-04-11T16:38:18.03Z</time></trkpt><trkpt lat="44.927999634729474" lon="13.851407619942151"><ele>61.5</ele><time>2026-04-11T16:38:19.03Z</time></trkpt><trkpt lat="44.92787676426988" lon="13.851390856575533"><ele>60.25</ele><time>2026-04-11T16:38:20.03Z</time></trkpt><trkpt lat="44.927756832202675" lon="13.85137244321321"><ele>59.0</ele><time>2026-04-11T16:38:21.03Z</time></trkpt><trkpt lat="44.927633094834604" lon="13.851341222107894"><ele>58.75</ele><time>2026-04-11T16:38:22.03Z</time></trkpt><trkpt lat="44.927508584878275" lon="13.851327080371293"><ele>58.5</ele><time>2026-04-11T16:38:23.03Z</time></trkpt><trkpt lat="44.927379062695834" lon="13.85131574022266"><ele>58.25</ele><time>2026-04-11T16:38:24.03Z</time></trkpt><trkpt lat="44.927244437855556" lon="13.851294927796516"><ele>58.0</ele><time>2026-04-11T16:38:25.03Z</time></trkpt><trkpt lat="44.92710818020059" lon="13.851290255356119"><ele>58.0</ele><time>2026-04-11T16:38:26.03Z</time></trkpt><trkpt lat="44.92696580908271" lon="13.851272273077749"><ele>58.0</ele><time>2026-04-11T16:38:27.03Z</time></trkpt><trkpt lat="44.926825467779324" lon="13.851250146164618"><ele>58.0</ele><time>2026-04-11T16:38:28.03Z</time></trkpt><trkpt lat="44.92667632065651" lon="13.851233747380075"><ele>58.0</ele><time>2026-04-11T16:38:29.03Z</time></trkpt><trkpt lat="44.92651953388642" lon="13.851209018552918"><ele>57.666666666666664</ele><time>2026-04-11T16:38:30.03Z</time></trkpt><trkpt lat="44.926354179486346" lon="13.851183214180066"><ele>57.33333333333333</ele><time>2026-04-11T16:38:31.03Z</time></trkpt><trkpt lat="44.926187848141375" lon="13.851174181434818"><ele>57.0</ele><time>2026-04-11T16:38:32.03Z</time></trkpt><trkpt lat="44.92603499536563" lon="13.85114316740103"><ele>57.0</ele><time>2026-04-11T16:38:33.03Z</time></trkpt><trkpt lat="44.9258782507129" lon="13.85112375085655"><ele>57.0</ele><time>2026-04-11T16:38:34.03Z</time></trkpt><trkpt lat="44.92571674691831" lon="13.851101833906712"><ele>57.0</ele><time>2026-04-11T16:38:35.03Z</time></trkpt><trkpt lat="44.92554998854974" lon="13.851084162171302"><ele>57.0</ele><time>2026-04-11T16:38:36.03Z</time></trkpt><trkpt lat="44.92538324975902" lon="13.85106100489136"><ele>57.0</ele><time>2026-04-11T16:38:37.03Z</time></trkpt><trkpt lat="44.92521071163065" lon="13.851038085014158"><ele>57.0</ele><time>2026-04-11T16:38:38.03Z</time></trkpt><trkpt lat="44.925038070994944" lon="13.851016339621019"><ele>56.66666666666667</ele><time>2026-04-11T16:38:39.03Z</time></trkpt><trkpt lat="44.92486085119051" lon="13.851003349949174"><ele>56.333333333333336</ele><time>2026-04-11T16:38:40.03Z</time></trkpt><trkpt lat="44.92469069348889" lon="13.850978742699084"><ele>56.0</ele><time>2026-04-11T16:38:41.03Z</time></trkpt><trkpt lat="44.924520544797964" lon="13.85093745004614"><ele>55.66666666666667</ele><time>2026-04-11T16:38:42.03Z</time></trkpt><trkpt lat="44.92436139253832" lon="13.850930011861681"><ele>55.33333333333333</ele><time>2026-04-11T16:38:43.03Z</time></trkpt><trkpt lat="44.92420225188038" lon="13.850912326267558"><ele>55.0</ele><time>2026-04-11T16:38:44.03Z</time></trkpt><trkpt lat="44.92405507700512" lon="13.850866560024945"><ele>54.75</ele><time>2026-04-11T16:38:45.03Z</time></trkpt><trkpt lat="44.923906607970515" lon="13.850845398619906"><ele>54.5</ele><time>2026-04-11T16:38:46.03Z</time></trkpt><trkpt lat="44.92376294407433" lon="13.850834445878544"><ele>54.25</ele><time>2026-04-11T16:38:47.03Z</time></trkpt><trkpt lat="44.9236118889989" lon="13.850808447616128"><ele>54.0</ele><time>2026-04-11T16:38:48.03Z</time></trkpt><trkpt lat="44.92346348797234" lon="13.850793922375699"><ele>53.0</ele><time>2026-04-11T16:38:49.03Z</time></trkpt><trkpt lat="44.92331761160044" lon="13.85077302147089"><ele>52.0</ele><time>2026-04-11T16:38:50.03Z</time></trkpt><trkpt lat="44.923168179700674" lon="13.850757040682545"><ele>51.0</ele><time>2026-04-11T16:38:51.03Z</time></trkpt><trkpt lat="44.92301482507735" lon="13.850734262522831"><ele>51.0</ele><time>2026-04-11T16:38:52.03Z</time></trkpt><trkpt lat="44.92285695173087" lon="13.850713441186008"><ele>51.0</ele><time>2026-04-11T16:38:53.03Z</time></trkpt><trkpt lat="44.92269092425636" lon="13.850700325874259"><ele>51.0</ele><time>2026-04-11T16:38:54.03Z</time></trkpt><trkpt lat="44.9225256414354" lon="13.850679725159381"><ele>50.33333333333333</ele><time>2026-04-11T16:38:55.03Z</time></trkpt><trkpt lat="44.922361429516734" lon="13.850658709671768"><ele>49.666666666666664</ele><time>2026-04-11T16:38:56.03Z</time></trkpt><trkpt lat="44.922197779089224" lon="13.850635939282405"><ele>49.0</ele><time>2026-04-11T16:38:57.03Z</time></trkpt><trkpt lat="44.92203366646839" lon="13.850619970628362"><ele>49.0</ele><time>2026-04-11T16:38:58.029Z</time></trkpt><trkpt lat="44.92187429346826" lon="13.850594070005496"><ele>49.0</ele><time>2026-04-11T16:38:59.029Z</time></trkpt><trkpt lat="44.92171180691923" lon="13.850573511613705"><ele>49.0</ele><time>2026-04-11T16:39:00.029Z</time></trkpt><trkpt lat="44.92155441318756" lon="13.85055148325685"><ele>48.5</ele><time>2026-04-11T16:39:01.029Z</time></trkpt><trkpt lat="44.921400248249455" lon="13.850528694480706"><ele>48.0</ele><time>2026-04-11T16:39:02.029Z</time></trkpt><trkpt lat="44.92125405574372" lon="13.85051314142934"><ele>47.5</ele><time>2026-04-11T16:39:03.029Z</time></trkpt><trkpt lat="44.92111148535816" lon="13.850496711931351"><ele>47.0</ele><time>2026-04-11T16:39:04.029Z</time></trkpt><trkpt lat="44.92097337330693" lon="13.85048549122652"><ele>47.5</ele><time>2026-04-11T16:39:05.031Z</time></trkpt><trkpt lat="44.92083042869931" lon="13.850479095237374"><ele>48.0</ele><time>2026-04-11T16:39:06.032Z</time></trkpt><trkpt lat="44.920689155505514" lon="13.85047147907453"><ele>48.5</ele><time>2026-04-11T16:39:07.032Z</time></trkpt><trkpt lat="44.92053939035048" lon="13.850472826438796"><ele>49.0</ele><time>2026-04-11T16:39:08.031Z</time></trkpt><trkpt lat="44.92038584319454" lon="13.850480733410503"><ele>49.0</ele><time>2026-04-11T16:39:09.032Z</time></trkpt><trkpt lat="44.92023702381329" lon="13.850461181752724"><ele>49.0</ele><time>2026-04-11T16:39:10.032Z</time></trkpt><trkpt lat="44.92008207943143" lon="13.850468948245481"><ele>49.0</ele><time>2026-04-11T16:39:11.031Z</time></trkpt><trkpt lat="44.91992331960484" lon="13.850476023425042"><ele>47.666666666666664</ele><time>2026-04-11T16:39:12.032Z</time></trkpt><trkpt lat="44.919762779218246" lon="13.850482548809527"><ele>46.33333333333333</ele><time>2026-04-11T16:39:13.032Z</time></trkpt><trkpt lat="44.919599565968966" lon="13.850483943785248"><ele>45.0</ele><time>2026-04-11T16:39:14.031Z</time></trkpt><trkpt lat="44.919435467255106" lon="13.850493293496188"><ele>45.0</ele><time>2026-04-11T16:39:15.032Z</time></trkpt><trkpt lat="44.919273817776784" lon="13.850500412525756"><ele>45.0</ele><time>2026-04-11T16:39:16.032Z</time></trkpt><trkpt lat="44.919107456106794" lon="13.850509528731616"><ele>45.0</ele><time>2026-04-11T16:39:17.031Z</time></trkpt><trkpt lat="44.91893385469466" lon="13.85052036516863"><ele>43.666666666666664</ele><time>2026-04-11T16:39:18.032Z</time></trkpt><trkpt lat="44.91877523123517" lon="13.850527344304767"><ele>42.33333333333333</ele><time>2026-04-11T16:39:19.032Z</time></trkpt><trkpt lat="44.918621251253754" lon="13.85051715147525"><ele>41.0</ele><time>2026-04-11T16:39:20.032Z</time></trkpt><trkpt lat="44.91848006566916" lon="13.85050817187383"><ele>40.75</ele><time>2026-04-11T16:39:21.032Z</time></trkpt><trkpt lat="44.91834043079673" lon="13.850508482788259"><ele>40.5</ele><time>2026-04-11T16:39:22.032Z</time></trkpt><trkpt lat="44.918202667652004" lon="13.850501384070844"><ele>40.25</ele><time>2026-04-11T16:39:23.032Z</time></trkpt><trkpt lat="44.91805571795113" lon="13.850490403676586"><ele>40.0</ele><time>2026-04-11T16:39:24.032Z</time></trkpt><trkpt lat="44.91790270982023" lon="13.850472744297868"><ele>40.0</ele><time>2026-04-11T16:39:25.032Z</time></trkpt><trkpt lat="44.91774746839783" lon="13.850444353529053"><ele>40.0</ele><time>2026-04-11T16:39:26.032Z</time></trkpt><trkpt lat="44.917588947923505" lon="13.850417737843204"><ele>40.0</ele><time>2026-04-11T16:39:27.032Z</time></trkpt><trkpt lat="44.917434363765565" lon="13.850385635692296"><ele>41.0</ele><time>2026-04-11T16:39:28.032Z</time></trkpt><trkpt lat="44.917283123455235" lon="13.85034963524601"><ele>42.0</ele><time>2026-04-11T16:39:29.032Z</time></trkpt><trkpt lat="44.91713036804347" lon="13.850302880665515"><ele>43.0</ele><time>2026-04-11T16:39:30.032Z</time></trkpt><trkpt lat="44.916978753539425" lon="13.85025723775174"><ele>43.0</ele><time>2026-04-11T16:39:31.032Z</time></trkpt><trkpt lat="44.916822896628" lon="13.850202201783022"><ele>43.0</ele><time>2026-04-11T16:39:32.032Z</time></trkpt><trkpt lat="44.91666218857483" lon="13.850152880340952"><ele>43.0</ele><time>2026-04-11T16:39:33.032Z</time></trkpt><trkpt lat="44.91650140315691" lon="13.850096853063254"><ele>42.333333333333336</ele><time>2026-04-11T16:39:34.032Z</time></trkpt><trkpt lat="44.916332772659224" lon="13.850054719657244"><ele>41.666666666666664</ele><time>2026-04-11T16:39:35.032Z</time></trkpt><trkpt lat="44.916168003165524" lon="13.850004462258433"><ele>41.0</ele><time>2026-04-11T16:39:36.032Z</time></trkpt><trkpt lat="44.91601421892449" lon="13.849955089881025"><ele>41.5</ele><time>2026-04-11T16:39:37.032Z</time></trkpt><trkpt lat="44.91587787447546" lon="13.84989358904913"><ele>42.0</ele><time>2026-04-11T16:39:38.032Z</time></trkpt><trkpt lat="44.91572990486703" lon="13.849837994157586"><ele>42.5</ele><time>2026-04-11T16:39:39.032Z</time></trkpt><trkpt lat="44.915585481342134" lon="13.849778545409588"><ele>43.0</ele><time>2026-04-11T16:39:40.032Z</time></trkpt><trkpt lat="44.91543744663557" lon="13.84973355739359"><ele>43.0</ele><time>2026-04-11T16:39:41.032Z</time></trkpt><trkpt lat="44.91529011623224" lon="13.849698560232888"><ele>43.0</ele><time>2026-04-11T16:39:42.032Z</time></trkpt><trkpt lat="44.915143959106274" lon="13.849653997115354"><ele>43.0</ele><time>2026-04-11T16:39:43.032Z</time></trkpt><trkpt lat="44.914985302637334" lon="13.849610549142257"><ele>42.66666666666667</ele><time>2026-04-11T16:39:44.032Z</time></trkpt><trkpt lat="44.91483526322511" lon="13.849571724147077"><ele>42.333333333333336</ele><time>2026-04-11T16:39:45.032Z</time></trkpt><trkpt lat="44.914678279861405" lon="13.849529583931051"><ele>42.0</ele><time>2026-04-11T16:39:46.032Z</time></trkpt><trkpt lat="44.914514607659044" lon="13.849494827727794"><ele>42.0</ele><time>2026-04-11T16:39:47.032Z</time></trkpt><trkpt lat="44.91435350562155" lon="13.849424298551423"><ele>42.0</ele><time>2026-04-11T16:39:48.032Z</time></trkpt><trkpt lat="44.91418855318961" lon="13.849367022039901"><ele>42.0</ele><time>2026-04-11T16:39:49.032Z</time></trkpt><trkpt lat="44.914018103906955" lon="13.84931776225094"><ele>40.666666666666664</ele><time>2026-04-11T16:39:50.032Z</time></trkpt><trkpt lat="44.91384626464535" lon="13.849266687531548"><ele>39.33333333333333</ele><time>2026-04-11T16:39:51.032Z</time></trkpt><trkpt lat="44.91367275206955" lon="13.849209560209834"><ele>38.0</ele><time>2026-04-11T16:39:52.032Z</time></trkpt><trkpt lat="44.91348917973442" lon="13.849159773308306"><ele>38.0</ele><time>2026-04-11T16:39:53.032Z</time></trkpt><trkpt lat="44.91331068235801" lon="13.849101521081764"><ele>38.0</ele><time>2026-04-11T16:39:54.032Z</time></trkpt><trkpt lat="44.91312541730431" lon="13.8490478003902"><ele>38.0</ele><time>2026-04-11T16:39:55.032Z</time></trkpt><trkpt lat="44.912944081979866" lon="13.848994859413233"><ele>38.0</ele><time>2026-04-11T16:39:56.032Z</time></trkpt><trkpt lat="44.91275809989482" lon="13.848940061907095"><ele>38.0</ele><time>2026-04-11T16:39:57.032Z</time></trkpt><trkpt lat="44.91257986220921" lon="13.84888084258217"><ele>38.0</ele><time>2026-04-11T16:39:58.032Z</time></trkpt><trkpt lat="44.912395451664885" lon="13.848821708688796"><ele>37.33333333333333</ele><time>2026-04-11T16:39:59.032Z</time></trkpt><trkpt lat="44.91220508687317" lon="13.848767332711626"><ele>36.666666666666664</ele><time>2026-04-11T16:40:00.032Z</time></trkpt><trkpt lat="44.91201289170496" lon="13.848717786540002"><ele>36.0</ele><time>2026-04-11T16:40:01.031Z</time></trkpt><trkpt lat="44.91181539343297" lon="13.848637319932095"><ele>36.0</ele><time>2026-04-11T16:40:02.031Z</time></trkpt><trkpt lat="44.91161177197263" lon="13.848575501514704"><ele>36.0</ele><time>2026-04-11T16:40:03.031Z</time></trkpt><trkpt lat="44.91141659570436" lon="13.848515315890902"><ele>36.0</ele><time>2026-04-11T16:40:04.031Z</time></trkpt><trkpt lat="44.91121324017413" lon="13.84845232302466"><ele>35.666666666666664</ele><time>2026-04-11T16:40:05.031Z</time></trkpt><trkpt lat="44.91101253024027" lon="13.848389323285428"><ele>35.33333333333333</ele><time>2026-04-11T16:40:06.031Z</time></trkpt><trkpt lat="44.91080030747952" lon="13.84832020464292"><ele>35.0</ele><time>2026-04-11T16:40:07.031Z</time></trkpt><trkpt lat="44.910592337563294" lon="13.848253492402677"><ele>35.0</ele><time>2026-04-11T16:40:08.031Z</time></trkpt><trkpt lat="44.910381362435345" lon="13.84818581672542"><ele>35.0</ele><time>2026-04-11T16:40:09.031Z</time></trkpt><trkpt lat="44.91016886116182" lon="13.84814182536866"><ele>35.0</ele><time>2026-04-11T16:40:10.031Z</time></trkpt><trkpt lat="44.90995635214158" lon="13.84807460362582"><ele>34.33333333333333</ele><time>2026-04-11T16:40:11.031Z</time></trkpt><trkpt lat="44.90974120241403" lon="13.848004705525618"><ele>33.666666666666664</ele><time>2026-04-11T16:40:12.031Z</time></trkpt><trkpt lat="44.909528020407514" lon="13.847934368396718"><ele>33.0</ele><time>2026-04-11T16:40:13.031Z</time></trkpt><trkpt lat="44.909316794888646" lon="13.847865593254319"><ele>32.0</ele><time>2026-04-11T16:40:14.031Z</time></trkpt><trkpt lat="44.909107934052976" lon="13.847801535838324"><ele>31.0</ele><time>2026-04-11T16:40:15.031Z</time></trkpt><trkpt lat="44.90890447680847" lon="13.847734768330241"><ele>30.0</ele><time>2026-04-11T16:40:16.031Z</time></trkpt><trkpt lat="44.90869317886732" lon="13.847675397316426"><ele>30.333333333333336</ele><time>2026-04-11T16:40:17.031Z</time></trkpt><trkpt lat="44.90849279806262" lon="13.847614063053733"><ele>30.666666666666668</ele><time>2026-04-11T16:40:18.031Z</time></trkpt><trkpt lat="44.908292570335306" lon="13.847550841920553"><ele>31.0</ele><time>2026-04-11T16:40:19.031Z</time></trkpt><trkpt lat="44.9080932291151" lon="13.847484931164916"><ele>30.333333333333336</ele><time>2026-04-11T16:40:20.031Z</time></trkpt><trkpt lat="44.907892629971734" lon="13.847417006957548"><ele>29.666666666666664</ele><time>2026-04-11T16:40:21.031Z</time></trkpt><trkpt lat="44.9076928636679" lon="13.847358590750696"><ele>29.0</ele><time>2026-04-11T16:40:22.031Z</time></trkpt><trkpt lat="44.90749198020884" lon="13.847299372362546"><ele>28.333333333333332</ele><time>2026-04-11T16:40:23.031Z</time></trkpt><trkpt lat="44.90729184405167" lon="13.847242363968318"><ele>27.666666666666664</ele><time>2026-04-11T16:40:24.031Z</time></trkpt><trkpt lat="44.90709130624002" lon="13.847175189349826"><ele>27.0</ele><time>2026-04-11T16:40:25.031Z</time></trkpt><trkpt lat="44.90689188811912" lon="13.84711126350159"><ele>27.666666666666664</ele><time>2026-04-11T16:40:26.031Z</time></trkpt><trkpt lat="44.906687212603096" lon="13.847054919409928"><ele>28.333333333333332</ele><time>2026-04-11T16:40:27.031Z</time></trkpt><trkpt lat="44.906488429182374" lon="13.846992407504741"><ele>29.0</ele><time>2026-04-11T16:40:28.031Z</time></trkpt><trkpt lat="44.906290112627275" lon="13.84692988679383"><ele>29.0</ele><time>2026-04-11T16:40:29.031Z</time></trkpt><trkpt lat="44.90609201390752" lon="13.846867185848227"><ele>29.0</ele><time>2026-04-11T16:40:30.031Z</time></trkpt><trkpt lat="44.905893463930454" lon="13.846797582569348"><ele>29.0</ele><time>2026-04-11T16:40:31.031Z</time></trkpt><trkpt lat="44.9056959959082" lon="13.846735724152975"><ele>28.333333333333332</ele><time>2026-04-11T16:40:32.031Z</time></trkpt><trkpt lat="44.90550415960703" lon="13.846670396215481"><ele>27.666666666666664</ele><time>2026-04-11T16:40:33.031Z</time></trkpt><trkpt lat="44.9053133449305" lon="13.846612697813587"><ele>27.0</ele><time>2026-04-11T16:40:34.031Z</time></trkpt><trkpt lat="44.905128576435956" lon="13.846554674172568"><ele>26.666666666666664</ele><time>2026-04-11T16:40:35.031Z</time></trkpt><trkpt lat="44.90496718092424" lon="13.846504225440738"><ele>26.333333333333332</ele><time>2026-04-11T16:40:36.031Z</time></trkpt><trkpt lat="44.90481159436843" lon="13.846457316222589"><ele>26.0</ele><time>2026-04-11T16:40:37.031Z</time></trkpt><trkpt lat="44.9046677778362" lon="13.846410537830257"><ele>26.0</ele><time>2026-04-11T16:40:38.031Z</time></trkpt><trkpt lat="44.90452606648334" lon="13.846363844711522"><ele>26.0</ele><time>2026-04-11T16:40:39.031Z</time></trkpt><trkpt lat="44.904394552580584" lon="13.846317188635577"><ele>26.0</ele><time>2026-04-11T16:40:40.031Z</time></trkpt><trkpt lat="44.90427246809272" lon="13.846261515614136"><ele>26.0</ele><time>2026-04-11T16:40:41.031Z</time></trkpt><trkpt lat="44.904161632995596" lon="13.84619434867151"><ele>26.0</ele><time>2026-04-11T16:40:42.031Z</time></trkpt><trkpt lat="44.90407401372774" lon="13.846099988935473"><ele>26.0</ele><time>2026-04-11T16:40:43.031Z</time></trkpt><trkpt lat="44.90399234630475" lon="13.846044799879545"><ele>26.0</ele><time>2026-04-11T16:40:44.031Z</time></trkpt><trkpt lat="44.903899512023486" lon="13.846043760060795"><ele>26.0</ele><time>2026-04-11T16:40:45.031Z</time></trkpt><trkpt lat="44.903787750700715" lon="13.846080026230723"><ele>26.0</ele><time>2026-04-11T16:40:46.031Z</time></trkpt><trkpt lat="44.90366104104055" lon="13.846082681065619"><ele>26.0</ele><time>2026-04-11T16:40:47.031Z</time></trkpt><trkpt lat="44.90351254760003" lon="13.846055246814725"><ele>26.0</ele><time>2026-04-11T16:40:48.031Z</time></trkpt><trkpt lat="44.903350647527326" lon="13.84599932367567"><ele>26.0</ele><time>2026-04-11T16:40:49.031Z</time></trkpt><trkpt lat="44.903203872892014" lon="13.845946722418063"><ele>27.0</ele><time>2026-04-11T16:40:50.031Z</time></trkpt><trkpt lat="44.9030606369234" lon="13.845898176370566"><ele>28.0</ele><time>2026-04-11T16:40:51.031Z</time></trkpt><trkpt lat="44.902905929074784" lon="13.84585752952181"><ele>29.0</ele><time>2026-04-11T16:40:52.031Z</time></trkpt><trkpt lat="44.90274170075847" lon="13.845820958797047"><ele>28.333333333333332</ele><time>2026-04-11T16:40:53.031Z</time></trkpt><trkpt lat="44.902575095204256" lon="13.845776555228577"><ele>27.666666666666664</ele><time>2026-04-11T16:40:54.031Z</time></trkpt><trkpt lat="44.90240487390431" lon="13.845735714386784"><ele>27.0</ele><time>2026-04-11T16:40:55.031Z</time></trkpt><trkpt lat="44.902232866837394" lon="13.84570117559577"><ele>27.0</ele><time>2026-04-11T16:40:56.031Z</time></trkpt><trkpt lat="44.902061316422795" lon="13.845664612889033"><ele>27.0</ele><time>2026-04-11T16:40:57.031Z</time></trkpt><trkpt lat="44.9018892540199" lon="13.84562696345983"><ele>27.0</ele><time>2026-04-11T16:40:58.031Z</time></trkpt><trkpt lat="44.90171789345595" lon="13.845588188545962"><ele>27.0</ele><time>2026-04-11T16:40:59.031Z</time></trkpt><trkpt lat="44.90154664252442" lon="13.845558910786226"><ele>27.0</ele><time>2026-04-11T16:41:00.031Z</time></trkpt><trkpt lat="44.90137494855459" lon="13.845528434671204"><ele>27.0</ele><time>2026-04-11T16:41:01.031Z</time></trkpt><trkpt lat="44.90120774901034" lon="13.845498204524892"><ele>27.0</ele><time>2026-04-11T16:41:02.031Z</time></trkpt><trkpt lat="44.90104302967612" lon="13.845468857224908"><ele>27.0</ele><time>2026-04-11T16:41:03.031Z</time></trkpt><trkpt lat="44.900884746992894" lon="13.84543770052991"><ele>27.0</ele><time>2026-04-11T16:41:04.031Z</time></trkpt><trkpt lat="44.9007271162298" lon="13.845407583360082"><ele>27.0</ele><time>2026-04-11T16:41:05.031Z</time></trkpt><trkpt lat="44.900577724474964" lon="13.845376440287028"><ele>27.0</ele><time>2026-04-11T16:41:06.031Z</time></trkpt><trkpt lat="44.90042474527952" lon="13.845354940798899"><ele>27.0</ele><time>2026-04-11T16:41:07.031Z</time></trkpt><trkpt lat="44.900282416294985" lon="13.845304617710424"><ele>27.0</ele><time>2026-04-11T16:41:08.031Z</time></trkpt><trkpt lat="44.90013514457257" lon="13.845289669300103"><ele>27.0</ele><time>2026-04-11T16:41:09.031Z</time></trkpt><trkpt lat="44.89999142903154" lon="13.845263951066771"><ele>27.0</ele><time>2026-04-11T16:41:10.033Z</time></trkpt><trkpt lat="44.89984962940503" lon="13.845242914153635"><ele>27.0</ele><time>2026-04-11T16:41:11.032Z</time></trkpt><trkpt lat="44.89971104697249" lon="13.845219758207964"><ele>27.25</ele><time>2026-04-11T16:41:12.032Z</time></trkpt><trkpt lat="44.89957771753551" lon="13.84518612556476"><ele>27.5</ele><time>2026-04-11T16:41:13.033Z</time></trkpt><trkpt lat="44.89945262545127" lon="13.8451528816969"><ele>27.75</ele><time>2026-04-11T16:41:14.033Z</time></trkpt><trkpt lat="44.89933960843954" lon="13.845105311176448"><ele>28.0</ele><time>2026-04-11T16:41:15.033Z</time></trkpt><trkpt lat="44.89923581263708" lon="13.84504362077943"><ele>27.599999999999998</ele><time>2026-04-11T16:41:16.033Z</time></trkpt><trkpt lat="44.89914237910907" lon="13.844965327545955"><ele>27.199999999999996</ele><time>2026-04-11T16:41:17.033Z</time></trkpt><trkpt lat="44.89905071891082" lon="13.84489268853642"><ele>26.8</ele><time>2026-04-11T16:41:18.033Z</time></trkpt><trkpt lat="44.89895808588882" lon="13.844862508831373"><ele>26.4</ele><time>2026-04-11T16:41:19.033Z</time></trkpt><trkpt lat="44.898870720049814" lon="13.844886137640264"><ele>26.0</ele><time>2026-04-11T16:41:20.033Z</time></trkpt><trkpt lat="44.89879464232391" lon="13.844981676504984"><ele>26.0</ele><time>2026-04-11T16:41:21.033Z</time></trkpt><trkpt lat="44.898680895700124" lon="13.845024808627105"><ele>26.0</ele><time>2026-04-11T16:41:22.033Z</time></trkpt><trkpt lat="44.898562631869204" lon="13.84504744622306"><ele>26.0</ele><time>2026-04-11T16:41:23.033Z</time></trkpt><trkpt lat="44.89843044294446" lon="13.845048038803403"><ele>26.0</ele><time>2026-04-11T16:41:24.033Z</time></trkpt><trkpt lat="44.89828601887282" lon="13.845052699852193"><ele>25.75</ele><time>2026-04-11T16:41:25.033Z</time></trkpt><trkpt lat="44.898140041480026" lon="13.845058892246849"><ele>25.5</ele><time>2026-04-11T16:41:26.033Z</time></trkpt><trkpt lat="44.89800959021091" lon="13.845055600448845"><ele>25.25</ele><time>2026-04-11T16:41:27.033Z</time></trkpt><trkpt lat="44.8978759516674" lon="13.845058778971733"><ele>25.0</ele><time>2026-04-11T16:41:28.033Z</time></trkpt><trkpt lat="44.89773328046163" lon="13.845060657975187"><ele>26.0</ele><time>2026-04-11T16:41:29.033Z</time></trkpt><trkpt lat="44.89758198179041" lon="13.845063769556628"><ele>27.0</ele><time>2026-04-11T16:41:30.032Z</time></trkpt><trkpt lat="44.89742851947253" lon="13.845065048518133"><ele>28.0</ele><time>2026-04-11T16:41:31.032Z</time></trkpt><trkpt lat="44.89726641342283" lon="13.845066535858026"><ele>28.0</ele><time>2026-04-11T16:41:32.032Z</time></trkpt><trkpt lat="44.897098274088165" lon="13.845068187857425"><ele>28.0</ele><time>2026-04-11T16:41:33.032Z</time></trkpt><trkpt lat="44.896934501162285" lon="13.845071162127327"><ele>28.0</ele><time>2026-04-11T16:41:34.032Z</time></trkpt><trkpt lat="44.89678539066002" lon="13.84507309280979"><ele>28.75</ele><time>2026-04-11T16:41:35.032Z</time></trkpt><trkpt lat="44.896639542230226" lon="13.845073641064419"><ele>29.5</ele><time>2026-04-11T16:41:36.032Z</time></trkpt><trkpt lat="44.896491539000635" lon="13.845076074727483"><ele>30.25</ele><time>2026-04-11T16:41:37.032Z</time></trkpt><trkpt lat="44.89634190552721" lon="13.845082760517622"><ele>31.0</ele><time>2026-04-11T16:41:38.032Z</time></trkpt><trkpt lat="44.89618679186798" lon="13.845084445665735"><ele>31.0</ele><time>2026-04-11T16:41:39.032Z</time></trkpt><trkpt lat="44.89603478102738" lon="13.845080977832158"><ele>31.0</ele><time>2026-04-11T16:41:40.032Z</time></trkpt><trkpt lat="44.89587052468858" lon="13.845086037824974"><ele>31.0</ele><time>2026-04-11T16:41:41.032Z</time></trkpt><trkpt lat="44.89570457664888" lon="13.845081129209076"><ele>31.666666666666668</ele><time>2026-04-11T16:41:42.032Z</time></trkpt><trkpt lat="44.8955391339167" lon="13.84508286798224"><ele>32.333333333333336</ele><time>2026-04-11T16:41:43.032Z</time></trkpt><trkpt lat="44.895368222799675" lon="13.8450832260352"><ele>33.0</ele><time>2026-04-11T16:41:44.032Z</time></trkpt><trkpt lat="44.89520217888104" lon="13.845088784401852"><ele>33.333333333333336</ele><time>2026-04-11T16:41:45.032Z</time></trkpt><trkpt lat="44.89504583469607" lon="13.845069743594124"><ele>33.66666666666667</ele><time>2026-04-11T16:41:46.032Z</time></trkpt><trkpt lat="44.894885176383326" lon="13.845105128570813"><ele>34.0</ele><time>2026-04-11T16:41:47.032Z</time></trkpt><trkpt lat="44.89472489248812" lon="13.845134907458915"><ele>34.333333333333336</ele><time>2026-04-11T16:41:48.032Z</time></trkpt><trkpt lat="44.8945685819473" lon="13.84517751373079"><ele>34.666666666666664</ele><time>2026-04-11T16:41:49.032Z</time></trkpt><trkpt lat="44.894413062002116" lon="13.84523577239999"><ele>35.0</ele><time>2026-04-11T16:41:50.032Z</time></trkpt><trkpt lat="44.894262285078796" lon="13.845304937912122"><ele>35.0</ele><time>2026-04-11T16:41:51.032Z</time></trkpt><trkpt lat="44.89411827843873" lon="13.845375751977457"><ele>35.0</ele><time>2026-04-11T16:41:52.032Z</time></trkpt><trkpt lat="44.893985275211435" lon="13.845454730332943"><ele>35.0</ele><time>2026-04-11T16:41:53.032Z</time></trkpt><trkpt lat="44.893855869490004" lon="13.845530734028502"><ele>35.0</ele><time>2026-04-11T16:41:54.032Z</time></trkpt><trkpt lat="44.89373296257921" lon="13.845606120570844"><ele>35.0</ele><time>2026-04-11T16:41:55.032Z</time></trkpt><trkpt lat="44.89361255052167" lon="13.845685984093537"><ele>35.0</ele><time>2026-04-11T16:41:56.032Z</time></trkpt><trkpt lat="44.893492898882776" lon="13.845757625379377"><ele>35.0</ele><time>2026-04-11T16:41:57.032Z</time></trkpt><trkpt lat="44.89338071921617" lon="13.84582665092208"><ele>35.0</ele><time>2026-04-11T16:41:58.032Z</time></trkpt><trkpt lat="44.89326397863926" lon="13.845882659666783"><ele>35.0</ele><time>2026-04-11T16:41:59.032Z</time></trkpt><trkpt lat="44.89316541807758" lon="13.8459337160761"><ele>35.0</ele><time>2026-04-11T16:42:00.032Z</time></trkpt><trkpt lat="44.8930911208039" lon="13.845960147192901"><ele>35.0</ele><time>2026-04-11T16:42:01.032Z</time></trkpt><trkpt lat="44.8930256432351" lon="13.84598001550247"><ele>35.0</ele><time>2026-04-11T16:42:02.032Z</time></trkpt><trkpt lat="44.892956093835636" lon="13.845988342207582"><ele>35.0</ele><time>2026-04-11T16:42:03.032Z</time></trkpt><trkpt lat="44.8928828433827" lon="13.8459837170281"><ele>35.0</ele><time>2026-04-11T16:42:05.032Z</time></trkpt><trkpt lat="44.89282396161431" lon="13.845935952222263"><ele>34.6</ele><time>2026-04-11T16:42:14.032Z</time></trkpt><trkpt lat="44.89273722744423" lon="13.845886186248583"><ele>34.2</ele><time>2026-04-11T16:42:16.032Z</time></trkpt><trkpt lat="44.89266362294493" lon="13.845886821729488"><ele>33.8</ele><time>2026-04-11T16:42:17.032Z</time></trkpt><trkpt lat="44.892567433582855" lon="13.846017281558362"><ele>33.4</ele><time>2026-04-11T16:42:19.032Z</time></trkpt><trkpt lat="44.89247801256115" lon="13.846043120267515"><ele>33.0</ele><time>2026-04-11T16:42:20.032Z</time></trkpt><trkpt lat="44.89240664787474" lon="13.846067279933262"><ele>34.199999999999996</ele><time>2026-04-11T16:42:21.032Z</time></trkpt><trkpt lat="44.8923265363775" lon="13.84607685498056"><ele>35.4</ele><time>2026-04-11T16:42:22.032Z</time></trkpt><trkpt lat="44.89223115615534" lon="13.846077054547147"><ele>36.599999999999994</ele><time>2026-04-11T16:42:23.032Z</time></trkpt><trkpt lat="44.892123072737434" lon="13.846068622392133"><ele>37.8</ele><time>2026-04-11T16:42:24.032Z</time></trkpt><trkpt lat="44.89202253592817" lon="13.846061057926523"><ele>39.0</ele><time>2026-04-11T16:42:25.032Z</time></trkpt><trkpt lat="44.8919310657166" lon="13.846023807142343"><ele>39.0</ele><time>2026-04-11T16:42:26.032Z</time></trkpt><trkpt lat="44.891832203029736" lon="13.846018356122318"><ele>39.0</ele><time>2026-04-11T16:42:27.032Z</time></trkpt><trkpt lat="44.89174097316018" lon="13.84600293521127"><ele>39.0</ele><time>2026-04-11T16:42:28.032Z</time></trkpt><trkpt lat="44.891655556550724" lon="13.846004771684436"><ele>39.0</ele><time>2026-04-11T16:42:29.032Z</time></trkpt><trkpt lat="44.89157624306836" lon="13.846002946581217"><ele>39.0</ele><time>2026-04-11T16:42:30.032Z</time></trkpt><trkpt lat="44.89149379916745" lon="13.845997024769853"><ele>39.0</ele><time>2026-04-11T16:42:31.032Z</time></trkpt><trkpt lat="44.89139650224155" lon="13.84599029305421"><ele>38.5</ele><time>2026-04-11T16:42:32.032Z</time></trkpt><trkpt lat="44.891310235589984" lon="13.845980266902734"><ele>38.0</ele><time>2026-04-11T16:42:33.032Z</time></trkpt><trkpt lat="44.891225346763406" lon="13.845981298956682"><ele>37.5</ele><time>2026-04-11T16:42:34.032Z</time></trkpt><trkpt lat="44.891149334740675" lon="13.845976954782786"><ele>37.0</ele><time>2026-04-11T16:42:35.032Z</time></trkpt><trkpt lat="44.89107329100335" lon="13.845976087150161"><ele>36.5</ele><time>2026-04-11T16:42:36.032Z</time></trkpt><trkpt lat="44.89100120823835" lon="13.845981237068466"><ele>36.0</ele><time>2026-04-11T16:42:37.032Z</time></trkpt><trkpt lat="44.8909206815033" lon="13.845978725364445"><ele>36.0</ele><time>2026-04-11T16:42:38.032Z</time></trkpt><trkpt lat="44.89084109525844" lon="13.84594670371592"><ele>36.0</ele><time>2026-04-11T16:42:39.032Z</time></trkpt><trkpt lat="44.89075011611719" lon="13.845942280665565"><ele>36.0</ele><time>2026-04-11T16:42:40.032Z</time></trkpt><trkpt lat="44.89064793718945" lon="13.845954398859357"><ele>36.0</ele><time>2026-04-11T16:42:41.032Z</time></trkpt><trkpt lat="44.8905426626079" lon="13.845984369391156"><ele>36.0</ele><time>2026-04-11T16:42:42.032Z</time></trkpt><trkpt lat="44.8904424740366" lon="13.846049196530783"><ele>36.0</ele><time>2026-04-11T16:42:43.032Z</time></trkpt><trkpt lat="44.89035563893008" lon="13.846108553737853"><ele>36.0</ele><time>2026-04-11T16:42:44.032Z</time></trkpt><trkpt lat="44.890176594387086" lon="13.846110077294288"><ele>36.0</ele><time>2026-04-11T16:42:45.032Z</time></trkpt><trkpt lat="44.89012371059563" lon="13.846190165568558"><ele>36.0</ele><time>2026-04-11T16:42:46.032Z</time></trkpt><trkpt lat="44.89003454221569" lon="13.84628331469279"><ele>33.5</ele><time>2026-04-11T16:42:47.032Z</time></trkpt><trkpt lat="44.889941935217614" lon="13.84639138655405"><ele>31.0</ele><time>2026-04-11T16:42:48.032Z</time></trkpt><trkpt lat="44.889853202336504" lon="13.84650277875246"><ele>28.5</ele><time>2026-04-11T16:42:49.032Z</time></trkpt><trkpt lat="44.88977272653209" lon="13.846608498826662"><ele>26.0</ele><time>2026-04-11T16:42:50.032Z</time></trkpt><trkpt lat="44.88969573132886" lon="13.846710396420173"><ele>26.0</ele><time>2026-04-11T16:42:51.032Z</time></trkpt><trkpt lat="44.889616053677265" lon="13.846810310890067"><ele>26.0</ele><time>2026-04-11T16:42:52.032Z</time></trkpt><trkpt lat="44.88954323868298" lon="13.846897428205043"><ele>26.0</ele><time>2026-04-11T16:42:53.032Z</time></trkpt><trkpt lat="44.8894623731583" lon="13.846984140862569"><ele>26.0</ele><time>2026-04-11T16:42:54.032Z</time></trkpt><trkpt lat="44.88938007653245" lon="13.847064624104897"><ele>26.0</ele><time>2026-04-11T16:42:55.032Z</time></trkpt><trkpt lat="44.88929788469379" lon="13.847139101112472"><ele>24.400000000000002</ele><time>2026-04-11T16:42:56.032Z</time></trkpt><trkpt lat="44.88921138002963" lon="13.847211721296462"><ele>22.8</ele><time>2026-04-11T16:42:57.032Z</time></trkpt><trkpt lat="44.889128046134594" lon="13.847270033626662"><ele>21.200000000000003</ele><time>2026-04-11T16:42:58.032Z</time></trkpt><trkpt lat="44.8890264873958" lon="13.847335762512348"><ele>19.6</ele><time>2026-04-11T16:42:59.032Z</time></trkpt><trkpt lat="44.88892383728651" lon="13.847399568363715"><ele>18.0</ele><time>2026-04-11T16:43:00.032Z</time></trkpt><trkpt lat="44.88881823815966" lon="13.84746044664251"><ele>18.0</ele><time>2026-04-11T16:43:01.032Z</time></trkpt><trkpt lat="44.888714223438896" lon="13.847519199050373"><ele>18.0</ele><time>2026-04-11T16:43:02.032Z</time></trkpt><trkpt lat="44.88861277946618" lon="13.847576196364297"><ele>18.0</ele><time>2026-04-11T16:43:03.032Z</time></trkpt><trkpt lat="44.88851465807268" lon="13.847631102533287"><ele>18.0</ele><time>2026-04-11T16:43:04.032Z</time></trkpt><trkpt lat="44.88842319353835" lon="13.847682284395779"><ele>18.0</ele><time>2026-04-11T16:43:05.032Z</time></trkpt><trkpt lat="44.88833444918659" lon="13.847731499957897"><ele>16.666666666666668</ele><time>2026-04-11T16:43:06.032Z</time></trkpt><trkpt lat="44.88825347421136" lon="13.847776513081735"><ele>15.333333333333334</ele><time>2026-04-11T16:43:07.032Z</time></trkpt><trkpt lat="44.88817342863659" lon="13.847821009615306"><ele>14.0</ele><time>2026-04-11T16:43:08.032Z</time></trkpt><trkpt lat="44.88810066013734" lon="13.847861460741449"><ele>12.666666666666668</ele><time>2026-04-11T16:43:09.032Z</time></trkpt><trkpt lat="44.88803799663789" lon="13.847896743461076"><ele>11.333333333333334</ele><time>2026-04-11T16:43:10.032Z</time></trkpt><trkpt lat="44.88797840376929" lon="13.847929561602541"><ele>10.0</ele><time>2026-04-11T16:43:11.032Z</time></trkpt><trkpt lat="44.88787046919815" lon="13.847991801909775"><ele>10.0</ele><time>2026-04-11T16:43:13.032Z</time></trkpt><trkpt lat="44.8878081149182" lon="13.848028655773911"><ele>10.0</ele><time>2026-04-11T16:43:14.031Z</time></trkpt><trkpt lat="44.88773161978003" lon="13.848073992653553"><ele>10.0</ele><time>2026-04-11T16:43:15.031Z</time></trkpt><trkpt lat="44.88765573816955" lon="13.848119837360263"><ele>10.0</ele><time>2026-04-11T16:43:16.034Z</time></trkpt><trkpt lat="44.88757990227574" lon="13.848165629126001"><ele>10.0</ele><time>2026-04-11T16:43:17.034Z</time></trkpt><trkpt lat="44.88750748214404" lon="13.848208659050362"><ele>10.0</ele><time>2026-04-11T16:43:18.034Z</time></trkpt><trkpt lat="44.887436310766596" lon="13.84825179931069"><ele>9.0</ele><time>2026-04-11T16:43:19.034Z</time></trkpt><trkpt lat="44.88735766349833" lon="13.848303784016448"><ele>8.0</ele><time>2026-04-11T16:43:20.034Z</time></trkpt><trkpt lat="44.88726997879402" lon="13.848353565267713"><ele>7.0</ele><time>2026-04-11T16:43:21.034Z</time></trkpt><trkpt lat="44.88718473209361" lon="13.848406093827622"><ele>6.0</ele><time>2026-04-11T16:43:22.034Z</time></trkpt><trkpt lat="44.887101540577724" lon="13.848462790311638"><ele>5.0</ele><time>2026-04-11T16:43:23.034Z</time></trkpt><trkpt lat="44.887021002120456" lon="13.848508265378674"><ele>4.6</ele><time>2026-04-11T16:43:24.034Z</time></trkpt><trkpt lat="44.886938349106096" lon="13.848556052409231"><ele>4.2</ele><time>2026-04-11T16:43:25.034Z</time></trkpt><trkpt lat="44.886859488637526" lon="13.848599402616914"><ele>3.8</ele><time>2026-04-11T16:43:26.035Z</time></trkpt><trkpt lat="44.88679183744734" lon="13.8486442169145"><ele>3.4</ele><time>2026-04-11T16:43:27.035Z</time></trkpt><trkpt lat="44.88669213356352" lon="13.84871029388656"><ele>3.0</ele><time>2026-04-11T16:43:29.034Z</time></trkpt><trkpt lat="44.88659688682316" lon="13.84877545040109"><ele>3.0</ele><time>2026-04-11T16:43:31.034Z</time></trkpt><trkpt lat="44.88653561803213" lon="13.8488179304327"><ele>3.0</ele><time>2026-04-11T16:43:32.034Z</time></trkpt><trkpt lat="44.8864603687927" lon="13.848876417628311"><ele>3.0</ele><time>2026-04-11T16:43:33.034Z</time></trkpt><trkpt lat="44.88638885018005" lon="13.848935763678687"><ele>3.0</ele><time>2026-04-11T16:43:34.034Z</time></trkpt><trkpt lat="44.886329956125266" lon="13.848992389135498"><ele>3.0</ele><time>2026-04-11T16:43:35.034Z</time></trkpt><trkpt lat="44.88627118457098" lon="13.849049216446803"><ele>3.0</ele><time>2026-04-11T16:43:36.034Z</time></trkpt><trkpt lat="44.88621026707267" lon="13.849112371938181"><ele>3.0</ele><time>2026-04-11T16:43:37.034Z</time></trkpt><trkpt lat="44.88615789405104" lon="13.849172156924064"><ele>3.0</ele><time>2026-04-11T16:43:38.034Z</time></trkpt><trkpt lat="44.886065185019206" lon="13.849297573518866"><ele>3.0</ele><time>2026-04-11T16:43:40.034Z</time></trkpt><trkpt lat="44.8860084251489" lon="13.849385908870689"><ele>3.0</ele><time>2026-04-11T16:43:41.034Z</time></trkpt><trkpt lat="44.88595578938441" lon="13.849471448935974"><ele>3.0</ele><time>2026-04-11T16:43:42.034Z</time></trkpt><trkpt lat="44.88591482741667" lon="13.84955476699616"><ele>3.0</ele><time>2026-04-11T16:43:43.034Z</time></trkpt><trkpt lat="44.8858762271423" lon="13.849635490453222"><ele>3.1666666666666665</ele><time>2026-04-11T16:43:44.034Z</time></trkpt><trkpt lat="44.885842282927705" lon="13.84971087117084"><ele>3.333333333333333</ele><time>2026-04-11T16:43:45.034Z</time></trkpt><trkpt lat="44.88577979584866" lon="13.849867426434061"><ele>3.5</ele><time>2026-04-11T16:43:47.034Z</time></trkpt><trkpt lat="44.88572620278524" lon="13.850025540064708"><ele>3.6666666666666665</ele><time>2026-04-11T16:43:49.034Z</time></trkpt><trkpt lat="44.88568843058151" lon="13.85010811635845"><ele>3.833333333333333</ele><time>2026-04-11T16:43:50.034Z</time></trkpt><trkpt lat="44.88564678784251" lon="13.850178270415748"><ele>4.0</ele><time>2026-04-11T16:43:51.034Z</time></trkpt><trkpt lat="44.88555187955325" lon="13.850277011504607"><ele>4.800000000000001</ele><time>2026-04-11T16:43:53.034Z</time></trkpt><trkpt lat="44.88549308321506" lon="13.850320107050404"><ele>5.6000000000000005</ele><time>2026-04-11T16:43:54.034Z</time></trkpt><trkpt lat="44.88544165828408" lon="13.85037213536725"><ele>6.4</ele><time>2026-04-11T16:43:55.034Z</time></trkpt><trkpt lat="44.885419075844716" lon="13.850513909166267"><ele>7.2</ele><time>2026-04-11T16:43:57.033Z</time></trkpt><trkpt lat="44.88547418141213" lon="13.85068905131801"><ele>8.0</ele><time>2026-04-11T16:43:59.033Z</time></trkpt><trkpt lat="44.885499096259466" lon="13.850804796674613"><ele>8.0</ele><time>2026-04-11T16:44:00.033Z</time></trkpt><trkpt lat="44.88551070557678" lon="13.850915841877802"><ele>8.0</ele><time>2026-04-11T16:44:01.033Z</time></trkpt><trkpt lat="44.885515371818876" lon="13.851028514090142"><ele>8.0</ele><time>2026-04-11T16:44:02.033Z</time></trkpt><trkpt lat="44.88551773433856" lon="13.851160822121924"><ele>8.0</ele><time>2026-04-11T16:44:03.033Z</time></trkpt><trkpt lat="44.88552314716443" lon="13.851315149941714"><ele>8.0</ele><time>2026-04-11T16:44:04.033Z</time></trkpt><trkpt lat="44.885528462397104" lon="13.851482608598314"><ele>8.200000000000001</ele><time>2026-04-11T16:44:05.033Z</time></trkpt><trkpt lat="44.88554356628251" lon="13.851642722058521"><ele>8.4</ele><time>2026-04-11T16:44:06.033Z</time></trkpt><trkpt lat="44.88556591075799" lon="13.851799466565224"><ele>8.600000000000001</ele><time>2026-04-11T16:44:07.033Z</time></trkpt><trkpt lat="44.88559036976781" lon="13.851948971296672"><ele>8.8</ele><time>2026-04-11T16:44:08.033Z</time></trkpt><trkpt lat="44.88561662011377" lon="13.852090340822723"><ele>9.0</ele><time>2026-04-11T16:44:09.033Z</time></trkpt><trkpt lat="44.885646539466904" lon="13.85223512699394"><ele>9.6</ele><time>2026-04-11T16:44:10.033Z</time></trkpt><trkpt lat="44.88567376667716" lon="13.852384193121726"><ele>10.2</ele><time>2026-04-11T16:44:11.033Z</time></trkpt><trkpt lat="44.88568915923275" lon="13.852538792236315"><ele>10.799999999999999</ele><time>2026-04-11T16:44:12.033Z</time></trkpt><trkpt lat="44.88571841367645" lon="13.852681217885472"><ele>11.4</ele><time>2026-04-11T16:44:13.033Z</time></trkpt><trkpt lat="44.88574463960277" lon="13.852827788513782"><ele>12.0</ele><time>2026-04-11T16:44:14.033Z</time></trkpt><trkpt lat="44.8857685919888" lon="13.85297313266285"><ele>12.6</ele><time>2026-04-11T16:44:15.033Z</time></trkpt><trkpt lat="44.885791235256185" lon="13.853107626168379"><ele>13.2</ele><time>2026-04-11T16:44:16.033Z</time></trkpt><trkpt lat="44.88581357046088" lon="13.853243150170206"><ele>13.8</ele><time>2026-04-11T16:44:17.033Z</time></trkpt><trkpt lat="44.88583597554269" lon="13.853384124040069"><ele>14.4</ele><time>2026-04-11T16:44:18.033Z</time></trkpt><trkpt lat="44.88585765086917" lon="13.853523361108437"><ele>15.0</ele><time>2026-04-11T16:44:19.033Z</time></trkpt><trkpt lat="44.885876058262845" lon="13.85365643910982"><ele>15.2</ele><time>2026-04-11T16:44:20.033Z</time></trkpt><trkpt lat="44.88589968230512" lon="13.853792715514343"><ele>15.4</ele><time>2026-04-11T16:44:21.033Z</time></trkpt><trkpt lat="44.885920609013915" lon="13.853936855664795"><ele>15.600000000000001</ele><time>2026-04-11T16:44:22.033Z</time></trkpt><trkpt lat="44.88593849114573" lon="13.85408203557345"><ele>15.8</ele><time>2026-04-11T16:44:23.033Z</time></trkpt><trkpt lat="44.88595432254736" lon="13.854231832524624"><ele>16.0</ele><time>2026-04-11T16:44:24.033Z</time></trkpt><trkpt lat="44.88596803095815" lon="13.854384805372936"><ele>16.0</ele><time>2026-04-11T16:44:25.033Z</time></trkpt><trkpt lat="44.88598386190644" lon="13.854533073348565"><ele>16.0</ele><time>2026-04-11T16:44:26.033Z</time></trkpt><trkpt lat="44.88599600156221" lon="13.854673733604207"><ele>16.0</ele><time>2026-04-11T16:44:27.033Z</time></trkpt><trkpt lat="44.88600625336505" lon="13.854818785061362"><ele>16.0</ele><time>2026-04-11T16:44:28.033Z</time></trkpt><trkpt lat="44.88601244555343" lon="13.854970180621732"><ele>16.0</ele><time>2026-04-11T16:44:29.033Z</time></trkpt><trkpt lat="44.886018552966874" lon="13.855122196284304"><ele>16.0</ele><time>2026-04-11T16:44:30.033Z</time></trkpt><trkpt lat="44.88602353651773" lon="13.855261732022134"><ele>16.0</ele><time>2026-04-11T16:44:31.033Z</time></trkpt><trkpt lat="44.88602680048717" lon="13.855394701826565"><ele>16.0</ele><time>2026-04-11T16:44:32.033Z</time></trkpt><trkpt lat="44.886022505914056" lon="13.855527340400142"><ele>16.0</ele><time>2026-04-11T16:44:33.033Z</time></trkpt><trkpt lat="44.886017474433395" lon="13.855654203344763"><ele>16.0</ele><time>2026-04-11T16:44:34.033Z</time></trkpt><trkpt lat="44.886011327450774" lon="13.855778171614837"><ele>16.0</ele><time>2026-04-11T16:44:35.033Z</time></trkpt><trkpt lat="44.88600451388283" lon="13.855916063810142"><ele>16.0</ele><time>2026-04-11T16:44:36.033Z</time></trkpt><trkpt lat="44.88599548627301" lon="13.856053676451129"><ele>16.0</ele><time>2026-04-11T16:44:37.033Z</time></trkpt><trkpt lat="44.8859898871082" lon="13.856208441627151"><ele>16.0</ele><time>2026-04-11T16:44:38.033Z</time></trkpt><trkpt lat="44.88597890046655" lon="13.856364656471868"><ele>16.0</ele><time>2026-04-11T16:44:39.033Z</time></trkpt><trkpt lat="44.88595908152351" lon="13.856518943644437"><ele>16.2</ele><time>2026-04-11T16:44:40.033Z</time></trkpt><trkpt lat="44.885943179006304" lon="13.856664238086815"><ele>16.400000000000002</ele><time>2026-04-11T16:44:41.033Z</time></trkpt><trkpt lat="44.88593105236551" lon="13.856802416931606"><ele>16.6</ele><time>2026-04-11T16:44:42.033Z</time></trkpt><trkpt lat="44.88591639032497" lon="13.856926937722518"><ele>16.8</ele><time>2026-04-11T16:44:43.033Z</time></trkpt><trkpt lat="44.88588602109988" lon="13.857059888388566"><ele>17.0</ele><time>2026-04-11T16:44:45.033Z</time></trkpt><trkpt lat="44.88586821745736" lon="13.857179190146223"><ele>17.6</ele><time>2026-04-11T16:44:48.033Z</time></trkpt><trkpt lat="44.885809844123024" lon="13.857326561749083"><ele>18.2</ele><time>2026-04-11T16:44:50.033Z</time></trkpt><trkpt lat="44.88578127547981" lon="13.857451572635608"><ele>18.8</ele><time>2026-04-11T16:44:51.033Z</time></trkpt><trkpt lat="44.885770420638536" lon="13.857578825241726"><ele>19.4</ele><time>2026-04-11T16:44:52.033Z</time></trkpt><trkpt lat="44.88574736087175" lon="13.857727706579052"><ele>20.0</ele><time>2026-04-11T16:44:53.033Z</time></trkpt><trkpt lat="44.88570615087504" lon="13.857933267313344"><ele>20.0</ele><time>2026-04-11T16:44:54.033Z</time></trkpt><trkpt lat="44.88565746832348" lon="13.858137975317259"><ele>20.0</ele><time>2026-04-11T16:44:55.033Z</time></trkpt><trkpt lat="44.88560699413124" lon="13.85834607290229"><ele>20.0</ele><time>2026-04-11T16:44:56.033Z</time></trkpt><trkpt lat="44.88554339604885" lon="13.85857579073487"><ele>19.333333333333336</ele><time>2026-04-11T16:44:57.033Z</time></trkpt><trkpt lat="44.885474715864746" lon="13.858797775861316"><ele>18.666666666666668</ele><time>2026-04-11T16:44:58.033Z</time></trkpt><trkpt lat="44.88540397070098" lon="13.859001474484828"><ele>18.0</ele><time>2026-04-11T16:44:59.033Z</time></trkpt><trkpt lat="44.885328587328075" lon="13.859214012161198"><ele>17.666666666666668</ele><time>2026-04-11T16:45:00.033Z</time></trkpt><trkpt lat="44.88524600188546" lon="13.85942391291284"><ele>17.333333333333336</ele><time>2026-04-11T16:45:01.033Z</time></trkpt><trkpt lat="44.885158776533615" lon="13.859632019878577"><ele>17.0</ele><time>2026-04-11T16:45:02.033Z</time></trkpt><trkpt lat="44.88506062955933" lon="13.859831106817884"><ele>17.0</ele><time>2026-04-11T16:45:03.033Z</time></trkpt><trkpt lat="44.884961259869776" lon="13.860015431839908"><ele>17.0</ele><time>2026-04-11T16:45:04.033Z</time></trkpt><trkpt lat="44.8848643573164" lon="13.8601936551015"><ele>17.0</ele><time>2026-04-11T16:45:05.033Z</time></trkpt><trkpt lat="44.88475555723125" lon="13.860370105511166"><ele>17.0</ele><time>2026-04-11T16:45:06.033Z</time></trkpt><trkpt lat="44.884642260757175" lon="13.860547932283417"><ele>17.0</ele><time>2026-04-11T16:45:07.033Z</time></trkpt><trkpt lat="44.88453358972173" lon="13.860722493027188"><ele>17.0</ele><time>2026-04-11T16:45:08.033Z</time></trkpt><trkpt lat="44.88441137309035" lon="13.86088391494273"><ele>16.666666666666668</ele><time>2026-04-11T16:45:09.033Z</time></trkpt><trkpt lat="44.884291288421004" lon="13.861035503179249"><ele>16.333333333333332</ele><time>2026-04-11T16:45:10.033Z</time></trkpt><trkpt lat="44.88417082452507" lon="13.86118475207103"><ele>16.0</ele><time>2026-04-11T16:45:11.033Z</time></trkpt><trkpt lat="44.88404412699111" lon="13.861339593428095"><ele>16.0</ele><time>2026-04-11T16:45:12.033Z</time></trkpt><trkpt lat="44.88390837378816" lon="13.861479282306528"><ele>16.0</ele><time>2026-04-11T16:45:13.033Z</time></trkpt><trkpt lat="44.88377049801887" lon="13.861604186327527"><ele>16.0</ele><time>2026-04-11T16:45:14.033Z</time></trkpt><trkpt lat="44.88362498064541" lon="13.861724873121348"><ele>16.0</ele><time>2026-04-11T16:45:15.033Z</time></trkpt><trkpt lat="44.8834821481013" lon="13.861850759653636"><ele>16.0</ele><time>2026-04-11T16:45:16.033Z</time></trkpt><trkpt lat="44.88333934810621" lon="13.861976498308596"><ele>16.0</ele><time>2026-04-11T16:45:17.033Z</time></trkpt><trkpt lat="44.883188838757164" lon="13.862092297934431"><ele>15.666666666666666</ele><time>2026-04-11T16:45:18.033Z</time></trkpt><trkpt lat="44.88303433573894" lon="13.862186492975834"><ele>15.333333333333332</ele><time>2026-04-11T16:45:19.033Z</time></trkpt><trkpt lat="44.8828816930735" lon="13.862268606677091"><ele>15.0</ele><time>2026-04-11T16:45:20.033Z</time></trkpt><trkpt lat="44.88272922699589" lon="13.86236690651711"><ele>14.666666666666668</ele><time>2026-04-11T16:45:21.033Z</time></trkpt><trkpt lat="44.88257829428235" lon="13.862483416905222"><ele>14.333333333333334</ele><time>2026-04-11T16:45:22.035Z</time></trkpt><trkpt lat="44.88243265331" lon="13.862599039007824"><ele>14.0</ele><time>2026-04-11T16:45:23.035Z</time></trkpt><trkpt lat="44.88229585138045" lon="13.862724017446762"><ele>14.0</ele><time>2026-04-11T16:45:24.035Z</time></trkpt><trkpt lat="44.882168300368136" lon="13.862849569400801"><ele>14.0</ele><time>2026-04-11T16:45:25.035Z</time></trkpt><trkpt lat="44.88204543590515" lon="13.862963517453105"><ele>14.0</ele><time>2026-04-11T16:45:26.035Z</time></trkpt><trkpt lat="44.88193573129751" lon="13.863060212156366"><ele>14.0</ele><time>2026-04-11T16:45:27.035Z</time></trkpt><trkpt lat="44.88182765320636" lon="13.86315097816448"><ele>13.799999999999999</ele><time>2026-04-11T16:45:28.035Z</time></trkpt><trkpt lat="44.881723717423895" lon="13.86323040108708"><ele>13.599999999999998</ele><time>2026-04-11T16:45:29.035Z</time></trkpt><trkpt lat="44.88162514908641" lon="13.863302857263678"><ele>13.4</ele><time>2026-04-11T16:45:30.035Z</time></trkpt><trkpt lat="44.881530986047196" lon="13.863371334714381"><ele>13.2</ele><time>2026-04-11T16:45:31.035Z</time></trkpt><trkpt lat="44.88144084761991" lon="13.863429048219826"><ele>13.0</ele><time>2026-04-11T16:45:32.035Z</time></trkpt><trkpt lat="44.88135553606412" lon="13.863460973707351"><ele>13.0</ele><time>2026-04-11T16:45:33.035Z</time></trkpt><trkpt lat="44.8812540884506" lon="13.863449096461219"><ele>13.0</ele><time>2026-04-11T16:45:35.035Z</time></trkpt><trkpt lat="44.88118080706561" lon="13.863427152895373"><ele>13.0</ele><time>2026-04-11T16:45:37.035Z</time></trkpt><trkpt lat="44.88110829909386" lon="13.863390750224736"><ele>13.0</ele><time>2026-04-11T16:45:38.035Z</time></trkpt><trkpt lat="44.88101616095695" lon="13.863337239324547"><ele>13.0</ele><time>2026-04-11T16:45:39.035Z</time></trkpt><trkpt lat="44.88090745619495" lon="13.86328650567033"><ele>13.0</ele><time>2026-04-11T16:45:40.035Z</time></trkpt><trkpt lat="44.880790174731644" lon="13.863264118700565"><ele>13.0</ele><time>2026-04-11T16:45:41.035Z</time></trkpt><trkpt lat="44.88067017446357" lon="13.863263097668007"><ele>13.0</ele><time>2026-04-11T16:45:42.035Z</time></trkpt><trkpt lat="44.88055508556371" lon="13.863301725489107"><ele>13.0</ele><time>2026-04-11T16:45:43.035Z</time></trkpt><trkpt lat="44.88044173027483" lon="13.86336918588782"><ele>13.0</ele><time>2026-04-11T16:45:44.035Z</time></trkpt><trkpt lat="44.880332209914904" lon="13.863467479421642"><ele>13.0</ele><time>2026-04-11T16:45:45.035Z</time></trkpt><trkpt lat="44.880238327755755" lon="13.863589663678875"><ele>13.0</ele><time>2026-04-11T16:45:46.035Z</time></trkpt><trkpt lat="44.880168717547484" lon="13.86373437349167"><ele>13.0</ele><time>2026-04-11T16:45:47.035Z</time></trkpt><trkpt lat="44.880121663780834" lon="13.86387962012843"><ele>13.0</ele><time>2026-04-11T16:45:48.035Z</time></trkpt><trkpt lat="44.88008786907482" lon="13.864025807133386"><ele>13.0</ele><time>2026-04-11T16:45:49.035Z</time></trkpt><trkpt lat="44.88006293264143" lon="13.864182339243367"><ele>13.0</ele><time>2026-04-11T16:45:50.035Z</time></trkpt><trkpt lat="44.880057914316325" lon="13.864332620732634"><ele>13.0</ele><time>2026-04-11T16:45:51.035Z</time></trkpt><trkpt lat="44.87998242576627" lon="13.864474745193359"><ele>13.25</ele><time>2026-04-11T16:45:52.035Z</time></trkpt><trkpt lat="44.879909278807" lon="13.864595280738577"><ele>13.5</ele><time>2026-04-11T16:45:53.035Z</time></trkpt><trkpt lat="44.879812771430636" lon="13.864701187742357"><ele>13.75</ele><time>2026-04-11T16:45:54.035Z</time></trkpt><trkpt lat="44.87970895164545" lon="13.864791158880928"><ele>14.0</ele><time>2026-04-11T16:45:55.035Z</time></trkpt><trkpt lat="44.87959737954654" lon="13.86486470172372"><ele>14.0</ele><time>2026-04-11T16:45:56.035Z</time></trkpt><trkpt lat="44.87947595409308" lon="13.864955356077322"><ele>14.0</ele><time>2026-04-11T16:45:57.035Z</time></trkpt><trkpt lat="44.87935353321205" lon="13.865047897297352"><ele>14.0</ele><time>2026-04-11T16:45:58.035Z</time></trkpt><trkpt lat="44.87923135738148" lon="13.865141432113255"><ele>14.0</ele><time>2026-04-11T16:45:59.035Z</time></trkpt><trkpt lat="44.87910519756043" lon="13.865230142860126"><ele>14.25</ele><time>2026-04-11T16:46:00.035Z</time></trkpt><trkpt lat="44.8789804091818" lon="13.865327548269157"><ele>14.5</ele><time>2026-04-11T16:46:01.035Z</time></trkpt><trkpt lat="44.878858057306886" lon="13.865426756932703"><ele>14.75</ele><time>2026-04-11T16:46:02.035Z</time></trkpt><trkpt lat="44.87874251731557" lon="13.865530259748224"><ele>15.0</ele><time>2026-04-11T16:46:03.035Z</time></trkpt><trkpt lat="44.87863794382631" lon="13.865652384243669"><ele>15.0</ele><time>2026-04-11T16:46:04.035Z</time></trkpt><trkpt lat="44.87852884868568" lon="13.865778303092371"><ele>15.0</ele><time>2026-04-11T16:46:05.035Z</time></trkpt><trkpt lat="44.87840132828523" lon="13.865896551699846"><ele>15.0</ele><time>2026-04-11T16:46:06.035Z</time></trkpt><trkpt lat="44.87826621750729" lon="13.865998227325166"><ele>15.0</ele><time>2026-04-11T16:46:07.035Z</time></trkpt><trkpt lat="44.87812292815833" lon="13.86609678693998"><ele>15.75</ele><time>2026-04-11T16:46:08.035Z</time></trkpt><trkpt lat="44.87798035658662" lon="13.866199198071568"><ele>16.5</ele><time>2026-04-11T16:46:09.035Z</time></trkpt><trkpt lat="44.8778530153419" lon="13.866293146201034"><ele>17.25</ele><time>2026-04-11T16:46:10.035Z</time></trkpt><trkpt lat="44.87772938590661" lon="13.866382658593364"><ele>18.0</ele><time>2026-04-11T16:46:11.035Z</time></trkpt><trkpt lat="44.87760698118775" lon="13.866472151007882"><ele>18.0</ele><time>2026-04-11T16:46:12.035Z</time></trkpt><trkpt lat="44.87748083578727" lon="13.866556740645876"><ele>18.0</ele><time>2026-04-11T16:46:13.035Z</time></trkpt><trkpt lat="44.87735292124049" lon="13.866639791788275"><ele>18.0</ele><time>2026-04-11T16:46:14.035Z</time></trkpt><trkpt lat="44.877223449049886" lon="13.866721413131511"><ele>18.0</ele><time>2026-04-11T16:46:15.035Z</time></trkpt><trkpt lat="44.8770945953773" lon="13.866804879474929"><ele>19.0</ele><time>2026-04-11T16:46:16.035Z</time></trkpt><trkpt lat="44.87695534437597" lon="13.866864605906603"><ele>20.0</ele><time>2026-04-11T16:46:17.035Z</time></trkpt><trkpt lat="44.876827979491594" lon="13.866930801056654"><ele>21.0</ele><time>2026-04-11T16:46:18.035Z</time></trkpt><trkpt lat="44.87671011776087" lon="13.867001644558538"><ele>22.0</ele><time>2026-04-11T16:46:19.035Z</time></trkpt><trkpt lat="44.876596073657026" lon="13.867054361131402"><ele>22.0</ele><time>2026-04-11T16:46:20.035Z</time></trkpt><trkpt lat="44.8764935969899" lon="13.867084288040063"><ele>22.0</ele><time>2026-04-11T16:46:21.035Z</time></trkpt><trkpt lat="44.876395974968574" lon="13.867097574497443"><ele>22.0</ele><time>2026-04-11T16:46:22.035Z</time></trkpt><trkpt lat="44.87631456381253" lon="13.867070656141802"><ele>22.0</ele><time>2026-04-11T16:46:23.035Z</time></trkpt><trkpt lat="44.87623116201719" lon="13.867044831533404"><ele>22.0</ele><time>2026-04-11T16:46:24.035Z</time></trkpt><trkpt lat="44.87615151093737" lon="13.867035610510897"><ele>22.0</ele><time>2026-04-11T16:46:25.035Z</time></trkpt><trkpt lat="44.87608371156659" lon="13.86706732122149"><ele>22.0</ele><time>2026-04-11T16:46:26.035Z</time></trkpt><trkpt lat="44.87603078731464" lon="13.867145075385386"><ele>22.0</ele><time>2026-04-11T16:46:27.035Z</time></trkpt><trkpt lat="44.87598228479812" lon="13.867255168876552"><ele>22.0</ele><time>2026-04-11T16:46:28.035Z</time></trkpt><trkpt lat="44.87588700091095" lon="13.86731702728617"><ele>22.0</ele><time>2026-04-11T16:46:29.035Z</time></trkpt><trkpt lat="44.875799986924704" lon="13.867362299241854"><ele>22.0</ele><time>2026-04-11T16:46:30.035Z</time></trkpt><trkpt lat="44.87570837118529" lon="13.86739229431704"><ele>22.0</ele><time>2026-04-11T16:46:31.035Z</time></trkpt><trkpt lat="44.87560169606979" lon="13.867423365525482"><ele>22.0</ele><time>2026-04-11T16:46:32.035Z</time></trkpt><trkpt lat="44.875484322696835" lon="13.867455332901084"><ele>22.0</ele><time>2026-04-11T16:46:33.035Z</time></trkpt><trkpt lat="44.87535935610464" lon="13.867483206508155"><ele>22.0</ele><time>2026-04-11T16:46:34.035Z</time></trkpt><trkpt lat="44.875219940696034" lon="13.867528702369308"><ele>21.0</ele><time>2026-04-11T16:46:35.035Z</time></trkpt><trkpt lat="44.875073698462096" lon="13.86757510539522"><ele>20.0</ele><time>2026-04-11T16:46:36.035Z</time></trkpt><trkpt lat="44.87491620421304" lon="13.867618588331359"><ele>19.0</ele><time>2026-04-11T16:46:37.035Z</time></trkpt><trkpt lat="44.87474918949618" lon="13.86765960524019"><ele>19.0</ele><time>2026-04-11T16:46:38.035Z</time></trkpt><trkpt lat="44.87458370396912" lon="13.867702998817927"><ele>19.0</ele><time>2026-04-11T16:46:39.035Z</time></trkpt><trkpt lat="44.87441991389044" lon="13.867749128131303"><ele>19.0</ele><time>2026-04-11T16:46:40.035Z</time></trkpt><trkpt lat="44.87425268882876" lon="13.867791231997147"><ele>18.0</ele><time>2026-04-11T16:46:41.035Z</time></trkpt><trkpt lat="44.87408255987877" lon="13.867855766291168"><ele>17.0</ele><time>2026-04-11T16:46:42.035Z</time></trkpt><trkpt lat="44.87390320102208" lon="13.86790832675101"><ele>16.0</ele><time>2026-04-11T16:46:43.035Z</time></trkpt><trkpt lat="44.873717981730515" lon="13.867945733587641"><ele>16.0</ele><time>2026-04-11T16:46:44.035Z</time></trkpt><trkpt lat="44.873532457590976" lon="13.8679946981165"><ele>16.0</ele><time>2026-04-11T16:46:45.035Z</time></trkpt><trkpt lat="44.87335081086901" lon="13.868044213112604"><ele>16.0</ele><time>2026-04-11T16:46:46.035Z</time></trkpt><trkpt lat="44.87317085933606" lon="13.868098843417092"><ele>15.0</ele><time>2026-04-11T16:46:47.035Z</time></trkpt><trkpt lat="44.87299118856392" lon="13.868147964302773"><ele>14.0</ele><time>2026-04-11T16:46:48.035Z</time></trkpt><trkpt lat="44.87281092944991" lon="13.868192102586463"><ele>13.0</ele><time>2026-04-11T16:46:49.035Z</time></trkpt><trkpt lat="44.872627674722835" lon="13.868232367532332"><ele>14.0</ele><time>2026-04-11T16:46:50.035Z</time></trkpt><trkpt lat="44.87245002468717" lon="13.868270079773062"><ele>15.0</ele><time>2026-04-11T16:46:51.035Z</time></trkpt><trkpt lat="44.87227235919446" lon="13.868311497662653"><ele>16.0</ele><time>2026-04-11T16:46:52.035Z</time></trkpt><trkpt lat="44.87208599462462" lon="13.868351689713485"><ele>16.0</ele><time>2026-04-11T16:46:53.035Z</time></trkpt><trkpt lat="44.87190175696443" lon="13.8683820493227"><ele>16.0</ele><time>2026-04-11T16:46:54.035Z</time></trkpt><trkpt lat="44.87171752752096" lon="13.868424238522202"><ele>16.0</ele><time>2026-04-11T16:46:55.035Z</time></trkpt><trkpt lat="44.87153183187338" lon="13.868474615050113"><ele>16.666666666666664</ele><time>2026-04-11T16:46:56.035Z</time></trkpt><trkpt lat="44.871348313130326" lon="13.86852029360511"><ele>17.333333333333332</ele><time>2026-04-11T16:46:57.035Z</time></trkpt><trkpt lat="44.87116488668565" lon="13.868565558334263"><ele>18.0</ele><time>2026-04-11T16:46:58.035Z</time></trkpt><trkpt lat="44.87097994848197" lon="13.868617449597796"><ele>18.333333333333332</ele><time>2026-04-11T16:46:59.035Z</time></trkpt><trkpt lat="44.87079162523974" lon="13.868662586823454"><ele>18.666666666666664</ele><time>2026-04-11T16:47:00.035Z</time></trkpt><trkpt lat="44.87060772481363" lon="13.868707478428727"><ele>19.0</ele><time>2026-04-11T16:47:01.035Z</time></trkpt><trkpt lat="44.87042243354879" lon="13.868758541135385"><ele>19.0</ele><time>2026-04-11T16:47:02.035Z</time></trkpt><trkpt lat="44.87023990421618" lon="13.868803505528914"><ele>19.0</ele><time>2026-04-11T16:47:03.035Z</time></trkpt><trkpt lat="44.87005682603219" lon="13.868847235946603"><ele>19.0</ele><time>2026-04-11T16:47:04.035Z</time></trkpt><trkpt lat="44.86988014937783" lon="13.868899641023065"><ele>19.0</ele><time>2026-04-11T16:47:05.035Z</time></trkpt><trkpt lat="44.86970722134226" lon="13.868942615386718"><ele>19.0</ele><time>2026-04-11T16:47:06.035Z</time></trkpt><trkpt lat="44.869538854144174" lon="13.868995512505728"><ele>19.0</ele><time>2026-04-11T16:47:07.035Z</time></trkpt><trkpt lat="44.86936549537554" lon="13.869031681509284"><ele>18.0</ele><time>2026-04-11T16:47:08.035Z</time></trkpt><trkpt lat="44.86919244871373" lon="13.869077586002595"><ele>17.0</ele><time>2026-04-11T16:47:09.035Z</time></trkpt><trkpt lat="44.869015395944146" lon="13.869128276551896"><ele>16.0</ele><time>2026-04-11T16:47:10.035Z</time></trkpt><trkpt lat="44.86883868309181" lon="13.869167233717441"><ele>16.0</ele><time>2026-04-11T16:47:11.035Z</time></trkpt><trkpt lat="44.86866541831582" lon="13.869206955313048"><ele>16.0</ele><time>2026-04-11T16:47:12.035Z</time></trkpt><trkpt lat="44.8684998089051" lon="13.86924711470431"><ele>16.0</ele><time>2026-04-11T16:47:13.035Z</time></trkpt><trkpt lat="44.86833886336514" lon="13.869285287756199"><ele>16.0</ele><time>2026-04-11T16:47:14.035Z</time></trkpt><trkpt lat="44.8681797144671" lon="13.869307072362163"><ele>16.0</ele><time>2026-04-11T16:47:15.035Z</time></trkpt><trkpt lat="44.86803076052276" lon="13.86932992852915"><ele>16.0</ele><time>2026-04-11T16:47:16.035Z</time></trkpt><trkpt lat="44.86789630829228" lon="13.86934645934463"><ele>16.0</ele><time>2026-04-11T16:47:17.035Z</time></trkpt><trkpt lat="44.867782463111666" lon="13.869367826785032"><ele>15.999999999999998</ele><time>2026-04-11T16:47:18.034Z</time></trkpt><trkpt lat="44.867714633980476" lon="13.869369840990178"><ele>16.0</ele><time>2026-04-11T16:47:19.034Z</time></trkpt><trkpt lat="44.86763726775787" lon="13.869356616760767"><ele>16.0</ele><time>2026-04-11T16:47:21.034Z</time></trkpt><trkpt lat="44.86755530905987" lon="13.869304124697235"><ele>16.0</ele><time>2026-04-11T16:47:23.034Z</time></trkpt><trkpt lat="44.86745091217798" lon="13.869202625814518"><ele>15.999999999999998</ele><time>2026-04-11T16:47:25.034Z</time></trkpt><trkpt lat="44.86736525805616" lon="13.869202387391411"><ele>16.0</ele><time>2026-04-11T16:47:26.034Z</time></trkpt><trkpt lat="44.86727577005399" lon="13.8692384488306"><ele>15.25</ele><time>2026-04-11T16:47:27.034Z</time></trkpt><trkpt lat="44.86718845309915" lon="13.869312950918731"><ele>14.5</ele><time>2026-04-11T16:47:28.036Z</time></trkpt><trkpt lat="44.86708291310883" lon="13.869373014105891"><ele>13.75</ele><time>2026-04-11T16:47:29.036Z</time></trkpt><trkpt lat="44.86696363288344" lon="13.869396644328768"><ele>13.0</ele><time>2026-04-11T16:47:30.036Z</time></trkpt><trkpt lat="44.866834295512085" lon="13.869395359561763"><ele>13.5</ele><time>2026-04-11T16:47:31.037Z</time></trkpt><trkpt lat="44.866710699048966" lon="13.869383192269968"><ele>14.0</ele><time>2026-04-11T16:47:32.036Z</time></trkpt><trkpt lat="44.86657644187506" lon="13.869361148377987"><ele>14.5</ele><time>2026-04-11T16:47:33.036Z</time></trkpt><trkpt lat="44.86642439050075" lon="13.86933637888004"><ele>15.0</ele><time>2026-04-11T16:47:34.036Z</time></trkpt><trkpt lat="44.86625303527804" lon="13.86929690738517"><ele>14.0</ele><time>2026-04-11T16:47:35.036Z</time></trkpt><trkpt lat="44.86608385937078" lon="13.86925461463641"><ele>13.0</ele><time>2026-04-11T16:47:36.036Z</time></trkpt><trkpt lat="44.86592976438702" lon="13.869209045229889"><ele>12.0</ele><time>2026-04-11T16:47:37.036Z</time></trkpt><trkpt lat="44.865773454027064" lon="13.86915552259423"><ele>11.666666666666666</ele><time>2026-04-11T16:47:38.036Z</time></trkpt><trkpt lat="44.86560676448352" lon="13.869099442432766"><ele>11.333333333333332</ele><time>2026-04-11T16:47:39.036Z</time></trkpt><trkpt lat="44.86543800043959" lon="13.869024636013977"><ele>11.0</ele><time>2026-04-11T16:47:40.036Z</time></trkpt><trkpt lat="44.86526617468792" lon="13.868947197308971"><ele>11.333333333333332</ele><time>2026-04-11T16:47:41.037Z</time></trkpt><trkpt lat="44.86509786929784" lon="13.868863212033457"><ele>11.666666666666666</ele><time>2026-04-11T16:47:42.037Z</time></trkpt><trkpt lat="44.86492953102751" lon="13.868772320938744"><ele>12.0</ele><time>2026-04-11T16:47:43.037Z</time></trkpt><trkpt lat="44.86476213105798" lon="13.868668372090275"><ele>12.0</ele><time>2026-04-11T16:47:44.036Z</time></trkpt><trkpt lat="44.864598731830924" lon="13.868548127003754"><ele>12.0</ele><time>2026-04-11T16:47:45.036Z</time></trkpt><trkpt lat="44.86443500517895" lon="13.868423828402735"><ele>12.0</ele><time>2026-04-11T16:47:46.036Z</time></trkpt><trkpt lat="44.864271501128215" lon="13.868294558849703"><ele>11.666666666666666</ele><time>2026-04-11T16:47:47.036Z</time></trkpt><trkpt lat="44.864115487065376" lon="13.868151277054858"><ele>11.333333333333332</ele><time>2026-04-11T16:47:48.036Z</time></trkpt><trkpt lat="44.86396685589106" lon="13.8679901569612"><ele>11.0</ele><time>2026-04-11T16:47:49.036Z</time></trkpt><trkpt lat="44.8638182369702" lon="13.867838218710991"><ele>11.0</ele><time>2026-04-11T16:47:50.036Z</time></trkpt><trkpt lat="44.86367525759638" lon="13.867661937671624"><ele>11.0</ele><time>2026-04-11T16:47:51.036Z</time></trkpt><trkpt lat="44.863531207504224" lon="13.86748918990056"><ele>11.0</ele><time>2026-04-11T16:47:52.036Z</time></trkpt><trkpt lat="44.86338839597138" lon="13.867304360425154"><ele>10.0</ele><time>2026-04-11T16:47:53.036Z</time></trkpt><trkpt lat="44.86324742988421" lon="13.867109470259004"><ele>9.0</ele><time>2026-04-11T16:47:54.036Z</time></trkpt><trkpt lat="44.863108765703544" lon="13.86691328227162"><ele>8.0</ele><time>2026-04-11T16:47:55.036Z</time></trkpt><trkpt lat="44.86297290566598" lon="13.866719059832635"><ele>8.0</ele><time>2026-04-11T16:47:56.036Z</time></trkpt><trkpt lat="44.86283758473223" lon="13.866529411231415"><ele>8.0</ele><time>2026-04-11T16:47:57.036Z</time></trkpt><trkpt lat="44.862703496172884" lon="13.866336511335788"><ele>8.0</ele><time>2026-04-11T16:47:58.036Z</time></trkpt><trkpt lat="44.862576157494765" lon="13.866146052939174"><ele>7.666666666666666</ele><time>2026-04-11T16:47:59.036Z</time></trkpt><trkpt lat="44.86245760757255" lon="13.865961653316862"><ele>7.333333333333334</ele><time>2026-04-11T16:48:00.036Z</time></trkpt><trkpt lat="44.86234680751189" lon="13.865793951591542"><ele>7.0</ele><time>2026-04-11T16:48:01.036Z</time></trkpt><trkpt lat="44.8622404099849" lon="13.865631912213605"><ele>6.6</ele><time>2026-04-11T16:48:02.036Z</time></trkpt><trkpt lat="44.86215440093131" lon="13.865492573558802"><ele>6.199999999999999</ele><time>2026-04-11T16:48:03.036Z</time></trkpt><trkpt lat="44.8620923214087" lon="13.86538400853696"><ele>5.8</ele><time>2026-04-11T16:48:04.036Z</time></trkpt><trkpt lat="44.86205212633849" lon="13.86530158820896"><ele>5.4</ele><time>2026-04-11T16:48:05.036Z</time></trkpt><trkpt lat="44.86201554507256" lon="13.865177236045458"><ele>5.0</ele><time>2026-04-11T16:48:07.036Z</time></trkpt><trkpt lat="44.861991386856474" lon="13.86499635019647"><ele>5.0</ele><time>2026-04-11T16:48:09.036Z</time></trkpt><trkpt lat="44.86200133190343" lon="13.864862484692889"><ele>5.0</ele><time>2026-04-11T16:48:10.036Z</time></trkpt><trkpt lat="44.86196708972308" lon="13.864726809453574"><ele>5.0</ele><time>2026-04-11T16:48:11.036Z</time></trkpt><trkpt lat="44.86189650997264" lon="13.864613353845844"><ele>5.0</ele><time>2026-04-11T16:48:12.036Z</time></trkpt><trkpt lat="44.861797046000845" lon="13.864564256359085"><ele>5.0</ele><time>2026-04-11T16:48:13.036Z</time></trkpt><trkpt lat="44.861697253788364" lon="13.864536112882464"><ele>5.0</ele><time>2026-04-11T16:48:14.036Z</time></trkpt><trkpt lat="44.86157879214646" lon="13.864522343150334"><ele>5.0</ele><time>2026-04-11T16:48:15.036Z</time></trkpt><trkpt lat="44.86146503198593" lon="13.864486734369288"><ele>5.0</ele><time>2026-04-11T16:48:16.036Z</time></trkpt><trkpt lat="44.861366875949905" lon="13.864421717537788"><ele>5.0</ele><time>2026-04-11T16:48:17.036Z</time></trkpt><trkpt lat="44.86127327710823" lon="13.864331915146892"><ele>4.75</ele><time>2026-04-11T16:48:18.036Z</time></trkpt><trkpt lat="44.861170836286256" lon="13.864233708113929"><ele>4.5</ele><time>2026-04-11T16:48:19.036Z</time></trkpt><trkpt lat="44.86105688668474" lon="13.864131964538332"><ele>4.25</ele><time>2026-04-11T16:48:20.036Z</time></trkpt><trkpt lat="44.86094094816875" lon="13.86403543233049"><ele>4.0</ele><time>2026-04-11T16:48:21.036Z</time></trkpt><trkpt lat="44.86081852242662" lon="13.863941178134699"><ele>4.666666666666666</ele><time>2026-04-11T16:48:22.036Z</time></trkpt><trkpt lat="44.860680010713644" lon="13.863847568339727"><ele>5.333333333333333</ele><time>2026-04-11T16:48:23.036Z</time></trkpt><trkpt lat="44.860527203349335" lon="13.863748722421398"><ele>6.0</ele><time>2026-04-11T16:48:24.036Z</time></trkpt><trkpt lat="44.860377898754095" lon="13.863663696186563"><ele>6.0</ele><time>2026-04-11T16:48:25.036Z</time></trkpt><trkpt lat="44.86023970636919" lon="13.863594436685608"><ele>6.0</ele><time>2026-04-11T16:48:26.036Z</time></trkpt><trkpt lat="44.860101934588656" lon="13.863534191505684"><ele>6.0</ele><time>2026-04-11T16:48:27.036Z</time></trkpt><trkpt lat="44.85996667331197" lon="13.863485929311029"><ele>6.0</ele><time>2026-04-11T16:48:28.036Z</time></trkpt><trkpt lat="44.85983635732569" lon="13.863445875844114"><ele>7.0</ele><time>2026-04-11T16:48:29.036Z</time></trkpt><trkpt lat="44.85971050218366" lon="13.863415495218636"><ele>8.0</ele><time>2026-04-11T16:48:30.036Z</time></trkpt><trkpt lat="44.859595384541144" lon="13.863394499305665"><ele>9.0</ele><time>2026-04-11T16:48:31.036Z</time></trkpt><trkpt lat="44.85948645605999" lon="13.863378398681462"><ele>10.0</ele><time>2026-04-11T16:48:32.036Z</time></trkpt><trkpt lat="44.85938412432933" lon="13.863370109384743"><ele>11.25</ele><time>2026-04-11T16:48:33.036Z</time></trkpt><trkpt lat="44.859280466152605" lon="13.863361168595414"><ele>12.5</ele><time>2026-04-11T16:48:34.036Z</time></trkpt><trkpt lat="44.85917136322539" lon="13.863324306540369"><ele>13.75</ele><time>2026-04-11T16:48:35.036Z</time></trkpt><trkpt lat="44.85905341363691" lon="13.86332851612806"><ele>15.0</ele><time>2026-04-11T16:48:36.036Z</time></trkpt><trkpt lat="44.85892952975479" lon="13.863339864711264"><ele>15.0</ele><time>2026-04-11T16:48:37.036Z</time></trkpt><trkpt lat="44.85880245302988" lon="13.86335585542766"><ele>15.0</ele><time>2026-04-11T16:48:38.036Z</time></trkpt><trkpt lat="44.85867439119109" lon="13.86337983901347"><ele>15.0</ele><time>2026-04-11T16:48:39.036Z</time></trkpt><trkpt lat="44.85854774092817" lon="13.863406743996611"><ele>15.0</ele><time>2026-04-11T16:48:40.036Z</time></trkpt><trkpt lat="44.8584217789635" lon="13.863433611555601"><ele>15.75</ele><time>2026-04-11T16:48:41.036Z</time></trkpt><trkpt lat="44.858308496062314" lon="13.86346580603419"><ele>16.5</ele><time>2026-04-11T16:48:42.036Z</time></trkpt><trkpt lat="44.858195043704775" lon="13.86349536270931"><ele>17.25</ele><time>2026-04-11T16:48:43.036Z</time></trkpt><trkpt lat="44.85807785585721" lon="13.863527155269407"><ele>18.0</ele><time>2026-04-11T16:48:44.036Z</time></trkpt><trkpt lat="44.85796038937208" lon="13.863569788323069"><ele>18.0</ele><time>2026-04-11T16:48:45.036Z</time></trkpt><trkpt lat="44.85784052477918" lon="13.863599891759359"><ele>18.0</ele><time>2026-04-11T16:48:46.036Z</time></trkpt><trkpt lat="44.85771666190379" lon="13.863626407454335"><ele>18.0</ele><time>2026-04-11T16:48:47.036Z</time></trkpt><trkpt lat="44.857596548676845" lon="13.86366245636086"><ele>18.0</ele><time>2026-04-11T16:48:48.036Z</time></trkpt><trkpt lat="44.85747037486335" lon="13.863680754327845"><ele>17.5</ele><time>2026-04-11T16:48:49.036Z</time></trkpt><trkpt lat="44.8573430713335" lon="13.863713149803006"><ele>17.0</ele><time>2026-04-11T16:48:50.036Z</time></trkpt><trkpt lat="44.85720894595046" lon="13.863726632681066"><ele>16.5</ele><time>2026-04-11T16:48:51.036Z</time></trkpt><trkpt lat="44.857069110857196" lon="13.863753097543688"><ele>16.0</ele><time>2026-04-11T16:48:52.036Z</time></trkpt><trkpt lat="44.85691590508886" lon="13.863759490229736"><ele>15.0</ele><time>2026-04-11T16:48:53.036Z</time></trkpt><trkpt lat="44.856754567372604" lon="13.863767655044262"><ele>14.0</ele><time>2026-04-11T16:48:54.036Z</time></trkpt><trkpt lat="44.85658916185448" lon="13.86377001754633"><ele>13.0</ele><time>2026-04-11T16:48:55.036Z</time></trkpt><trkpt lat="44.85642807158407" lon="13.863766910393684"><ele>13.0</ele><time>2026-04-11T16:48:56.036Z</time></trkpt><trkpt lat="44.85626775261983" lon="13.86374833996468"><ele>13.0</ele><time>2026-04-11T16:48:57.036Z</time></trkpt><trkpt lat="44.85610427553864" lon="13.863722603929324"><ele>13.0</ele><time>2026-04-11T16:48:58.036Z</time></trkpt><trkpt lat="44.8559472773722" lon="13.863690307633869"><ele>12.5</ele><time>2026-04-11T16:48:59.036Z</time></trkpt><trkpt lat="44.8557970060247" lon="13.863637548295243"><ele>12.0</ele><time>2026-04-11T16:49:00.036Z</time></trkpt><trkpt lat="44.85565707315026" lon="13.86359350291507"><ele>11.5</ele><time>2026-04-11T16:49:01.036Z</time></trkpt><trkpt lat="44.855521188914544" lon="13.863571361410028"><ele>11.0</ele><time>2026-04-11T16:49:02.036Z</time></trkpt><trkpt lat="44.855396282369725" lon="13.863526286211627"><ele>11.0</ele><time>2026-04-11T16:49:03.036Z</time></trkpt><trkpt lat="44.855282891677035" lon="13.863450196858864"><ele>11.0</ele><time>2026-04-11T16:49:04.036Z</time></trkpt><trkpt lat="44.8551734706892" lon="13.863411726004362"><ele>11.0</ele><time>2026-04-11T16:49:05.036Z</time></trkpt><trkpt lat="44.85508621266107" lon="13.863372728812807"><ele>11.0</ele><time>2026-04-11T16:49:06.036Z</time></trkpt><trkpt lat="44.854991452187726" lon="13.863338330106766"><ele>11.0</ele><time>2026-04-11T16:49:08.036Z</time></trkpt><trkpt lat="44.85492311668579" lon="13.863314371642842"><ele>10.5</ele><time>2026-04-11T16:49:11.036Z</time></trkpt><trkpt lat="44.85483983262359" lon="13.86326516759116"><ele>10.0</ele><time>2026-04-11T16:49:13.036Z</time></trkpt><trkpt lat="44.854774802317664" lon="13.863218560963634"><ele>9.5</ele><time>2026-04-11T16:49:15.036Z</time></trkpt><trkpt lat="44.854710709378466" lon="13.863172858459917"><ele>9.0</ele><time>2026-04-11T16:49:17.036Z</time></trkpt><trkpt lat="44.85462648386789" lon="13.863102900740092"><ele>8.5</ele><time>2026-04-11T16:49:19.036Z</time></trkpt><trkpt lat="44.854542667178606" lon="13.862995769769284"><ele>8.0</ele><time>2026-04-11T16:49:21.036Z</time></trkpt><trkpt lat="44.854467705791386" lon="13.862883027314371"><ele>8.0</ele><time>2026-04-11T16:49:23.036Z</time></trkpt><trkpt lat="44.85436919152" lon="13.862875470231323"><ele>8.0</ele><time>2026-04-11T16:49:25.036Z</time></trkpt><trkpt lat="44.854287436601815" lon="13.863049497115567"><ele>8.0</ele><time>2026-04-11T16:49:27.036Z</time></trkpt><trkpt lat="44.854226619164564" lon="13.863183993762764"><ele>8.0</ele><time>2026-04-11T16:49:28.035Z</time></trkpt><trkpt lat="44.854159327322044" lon="13.863318610012254"><ele>10.0</ele><time>2026-04-11T16:49:29.035Z</time></trkpt><trkpt lat="44.85408434313984" lon="13.863456081025989"><ele>12.0</ele><time>2026-04-11T16:49:30.035Z</time></trkpt><trkpt lat="44.85399790944759" lon="13.863618388835048"><ele>14.0</ele><time>2026-04-11T16:49:31.035Z</time></trkpt><trkpt lat="44.853902247430916" lon="13.863772889157596"><ele>16.0</ele><time>2026-04-11T16:49:32.035Z</time></trkpt><trkpt lat="44.85381829000807" lon="13.863907630653511"><ele>16.0</ele><time>2026-04-11T16:49:33.035Z</time></trkpt><trkpt lat="44.85372543795423" lon="13.864040671935173"><ele>16.0</ele><time>2026-04-11T16:49:34.038Z</time></trkpt><trkpt lat="44.853633368794455" lon="13.8641922888538"><ele>16.0</ele><time>2026-04-11T16:49:35.038Z</time></trkpt><trkpt lat="44.85353892297693" lon="13.864339501435133"><ele>16.0</ele><time>2026-04-11T16:49:36.038Z</time></trkpt><trkpt lat="44.85344699661539" lon="13.864474879759516"><ele>16.400000000000002</ele><time>2026-04-11T16:49:37.038Z</time></trkpt><trkpt lat="44.85336912478223" lon="13.86458962799246"><ele>16.8</ele><time>2026-04-11T16:49:38.038Z</time></trkpt><trkpt lat="44.853309999208335" lon="13.864651996146746"><ele>17.200000000000003</ele><time>2026-04-11T16:49:39.038Z</time></trkpt><trkpt lat="44.853228514669105" lon="13.864725856643014"><ele>17.6</ele><time>2026-04-11T16:49:41.037Z</time></trkpt><trkpt lat="44.8531496425282" lon="13.864874637403055"><ele>18.0</ele><time>2026-04-11T16:49:43.037Z</time></trkpt><trkpt lat="44.8531092568297" lon="13.864975826036542"><ele>18.0</ele><time>2026-04-11T16:49:44.037Z</time></trkpt><trkpt lat="44.853053905102776" lon="13.865065612422837"><ele>18.0</ele><time>2026-04-11T16:49:45.037Z</time></trkpt><trkpt lat="44.85298806790176" lon="13.865160027232369"><ele>18.0</ele><time>2026-04-11T16:49:46.037Z</time></trkpt><trkpt lat="44.85291284405738" lon="13.86526190581515"><ele>18.0</ele><time>2026-04-11T16:49:47.038Z</time></trkpt><trkpt lat="44.85282672952069" lon="13.865376723212488"><ele>18.0</ele><time>2026-04-11T16:49:48.038Z</time></trkpt><trkpt lat="44.85273844870709" lon="13.865504312511026"><ele>18.25</ele><time>2026-04-11T16:49:49.038Z</time></trkpt><trkpt lat="44.852642458977314" lon="13.865628189313663"><ele>18.5</ele><time>2026-04-11T16:49:50.038Z</time></trkpt><trkpt lat="44.85253638003637" lon="13.865761374901039"><ele>18.75</ele><time>2026-04-11T16:49:51.038Z</time></trkpt><trkpt lat="44.8524179251468" lon="13.865896000242397"><ele>19.0</ele><time>2026-04-11T16:49:52.038Z</time></trkpt><trkpt lat="44.8522953107358" lon="13.866026408870061"><ele>18.25</ele><time>2026-04-11T16:49:53.038Z</time></trkpt><trkpt lat="44.85217731119896" lon="13.866157297447433"><ele>17.5</ele><time>2026-04-11T16:49:54.038Z</time></trkpt><trkpt lat="44.852060585637425" lon="13.866272387190108"><ele>16.75</ele><time>2026-04-11T16:49:55.038Z</time></trkpt><trkpt lat="44.851950572042234" lon="13.866389451734307"><ele>16.0</ele><time>2026-04-11T16:49:56.038Z</time></trkpt><trkpt lat="44.85182795171583" lon="13.866471893780481"><ele>15.75</ele><time>2026-04-11T16:49:57.038Z</time></trkpt><trkpt lat="44.851713530399" lon="13.866577650953964"><ele>15.5</ele><time>2026-04-11T16:49:58.038Z</time></trkpt><trkpt lat="44.851590095522724" lon="13.866662489887917"><ele>15.25</ele><time>2026-04-11T16:49:59.038Z</time></trkpt><trkpt lat="44.85146062001639" lon="13.866737533866656"><ele>15.0</ele><time>2026-04-11T16:50:00.038Z</time></trkpt><trkpt lat="44.851327633751495" lon="13.866803554655553"><ele>16.25</ele><time>2026-04-11T16:50:01.038Z</time></trkpt><trkpt lat="44.85119206087707" lon="13.866847949007417"><ele>17.5</ele><time>2026-04-11T16:50:02.038Z</time></trkpt><trkpt lat="44.85104576425764" lon="13.866895926735532"><ele>18.75</ele><time>2026-04-11T16:50:03.038Z</time></trkpt><trkpt lat="44.85089591380957" lon="13.866962590874316"><ele>20.0</ele><time>2026-04-11T16:50:04.038Z</time></trkpt><trkpt lat="44.85075925187291" lon="13.867075243286484"><ele>21.5</ele><time>2026-04-11T16:50:05.038Z</time></trkpt><trkpt lat="44.850631155713586" lon="13.867204051388311"><ele>23.0</ele><time>2026-04-11T16:50:06.038Z</time></trkpt><trkpt lat="44.85051483085361" lon="13.867334490503215"><ele>24.5</ele><time>2026-04-11T16:50:07.038Z</time></trkpt><trkpt lat="44.85042547416815" lon="13.867471270633406"><ele>26.0</ele><time>2026-04-11T16:50:08.038Z</time></trkpt><trkpt lat="44.850343277269246" lon="13.867621108532774"><ele>28.333333333333332</ele><time>2026-04-11T16:50:09.038Z</time></trkpt><trkpt lat="44.85025870586971" lon="13.86780766884066"><ele>30.666666666666664</ele><time>2026-04-11T16:50:10.038Z</time></trkpt><trkpt lat="44.85017242364582" lon="13.868001090535428"><ele>33.0</ele><time>2026-04-11T16:50:11.038Z</time></trkpt><trkpt lat="44.850086117326384" lon="13.868189486541958"><ele>34.0</ele><time>2026-04-11T16:50:12.037Z</time></trkpt><trkpt lat="44.84999690025149" lon="13.868371736520837"><ele>35.0</ele><time>2026-04-11T16:50:13.037Z</time></trkpt><trkpt lat="44.84990566503174" lon="13.868557289384897"><ele>36.0</ele><time>2026-04-11T16:50:14.037Z</time></trkpt><trkpt lat="44.84981956843352" lon="13.868744749335663"><ele>37.333333333333336</ele><time>2026-04-11T16:50:15.037Z</time></trkpt><trkpt lat="44.8497337878006" lon="13.868919749515985"><ele>38.66666666666667</ele><time>2026-04-11T16:50:16.037Z</time></trkpt><trkpt lat="44.84964007439973" lon="13.869084596214716"><ele>40.0</ele><time>2026-04-11T16:50:17.037Z</time></trkpt><trkpt lat="44.84953535728303" lon="13.869250634971864"><ele>40.66666666666667</ele><time>2026-04-11T16:50:18.037Z</time></trkpt><trkpt lat="44.84942193189831" lon="13.86941518062029"><ele>41.333333333333336</ele><time>2026-04-11T16:50:19.037Z</time></trkpt><trkpt lat="44.849296592240485" lon="13.869578988320908"><ele>42.0</ele><time>2026-04-11T16:50:20.037Z</time></trkpt><trkpt lat="44.84916196513224" lon="13.86972609076667"><ele>42.0</ele><time>2026-04-11T16:50:21.037Z</time></trkpt><trkpt lat="44.84901836132723" lon="13.869862495635768"><ele>42.0</ele><time>2026-04-11T16:50:22.037Z</time></trkpt><trkpt lat="44.84886625673187" lon="13.869976556442674"><ele>42.0</ele><time>2026-04-11T16:50:23.037Z</time></trkpt><trkpt lat="44.84869983619948" lon="13.870036325739889"><ele>42.0</ele><time>2026-04-11T16:50:24.037Z</time></trkpt><trkpt lat="44.84853525991129" lon="13.870085022728485"><ele>42.0</ele><time>2026-04-11T16:50:25.037Z</time></trkpt><trkpt lat="44.84836924146812" lon="13.870146552832004"><ele>42.0</ele><time>2026-04-11T16:50:26.037Z</time></trkpt><trkpt lat="44.848202537701326" lon="13.870180602951026"><ele>42.666666666666664</ele><time>2026-04-11T16:50:27.037Z</time></trkpt><trkpt lat="44.84803441457773" lon="13.870219054363947"><ele>43.33333333333333</ele><time>2026-04-11T16:50:28.037Z</time></trkpt><trkpt lat="44.847876468327094" lon="13.87023945555599"><ele>44.0</ele><time>2026-04-11T16:50:29.037Z</time></trkpt><trkpt lat="44.84771376298493" lon="13.87024571956106"><ele>43.33333333333333</ele><time>2026-04-11T16:50:30.037Z</time></trkpt><trkpt lat="44.84755816582439" lon="13.870230000202376"><ele>42.666666666666664</ele><time>2026-04-11T16:50:31.037Z</time></trkpt><trkpt lat="44.847404066864" lon="13.870210570249052"><ele>42.0</ele><time>2026-04-11T16:50:32.037Z</time></trkpt><trkpt lat="44.84725165740177" lon="13.870188483464014"><ele>42.0</ele><time>2026-04-11T16:50:33.037Z</time></trkpt><trkpt lat="44.847094008101585" lon="13.87016394450452"><ele>42.0</ele><time>2026-04-11T16:50:34.037Z</time></trkpt><trkpt lat="44.84693089312093" lon="13.870134231844984"><ele>42.0</ele><time>2026-04-11T16:50:35.037Z</time></trkpt><trkpt lat="44.84676089471287" lon="13.87011076100206"><ele>40.333333333333336</ele><time>2026-04-11T16:50:36.037Z</time></trkpt><trkpt lat="44.846583988288344" lon="13.870094793561282"><ele>38.66666666666667</ele><time>2026-04-11T16:50:37.037Z</time></trkpt><trkpt lat="44.84640247345938" lon="13.870105153894443"><ele>37.0</ele><time>2026-04-11T16:50:38.037Z</time></trkpt><trkpt lat="44.84621749714767" lon="13.87014341656772"><ele>36.66666666666667</ele><time>2026-04-11T16:50:39.037Z</time></trkpt><trkpt lat="44.84604047279679" lon="13.870220014947433"><ele>36.333333333333336</ele><time>2026-04-11T16:50:40.037Z</time></trkpt><trkpt lat="44.845868398056155" lon="13.87033162668943"><ele>36.0</ele><time>2026-04-11T16:50:41.037Z</time></trkpt><trkpt lat="44.845701753872746" lon="13.870475893441068"><ele>36.0</ele><time>2026-04-11T16:50:42.037Z</time></trkpt><trkpt lat="44.84553503505905" lon="13.870621599223265"><ele>36.0</ele><time>2026-04-11T16:50:43.037Z</time></trkpt><trkpt lat="44.84537496590851" lon="13.870776167135704"><ele>36.0</ele><time>2026-04-11T16:50:44.037Z</time></trkpt><trkpt lat="44.84521491193642" lon="13.870916359355041"><ele>34.333333333333336</ele><time>2026-04-11T16:50:45.037Z</time></trkpt><trkpt lat="44.8450507522396" lon="13.87102882051168"><ele>32.66666666666667</ele><time>2026-04-11T16:50:46.037Z</time></trkpt><trkpt lat="44.844883917435645" lon="13.871121762510768"><ele>31.0</ele><time>2026-04-11T16:50:47.037Z</time></trkpt><trkpt lat="44.84471078995269" lon="13.87118869978105"><ele>31.0</ele><time>2026-04-11T16:50:48.037Z</time></trkpt><trkpt lat="44.84452535182121" lon="13.871181724447963"><ele>31.0</ele><time>2026-04-11T16:50:49.037Z</time></trkpt><trkpt lat="44.84434676109726" lon="13.871184156369717"><ele>31.0</ele><time>2026-04-11T16:50:50.037Z</time></trkpt><trkpt lat="44.84415896373893" lon="13.871160190318824"><ele>32.66666666666667</ele><time>2026-04-11T16:50:51.037Z</time></trkpt><trkpt lat="44.843977017610776" lon="13.871121171241018"><ele>34.333333333333336</ele><time>2026-04-11T16:50:52.037Z</time></trkpt><trkpt lat="44.8437934466149" lon="13.871061123304935"><ele>36.0</ele><time>2026-04-11T16:50:53.037Z</time></trkpt><trkpt lat="44.84361521795222" lon="13.870990427341544"><ele>37.0</ele><time>2026-04-11T16:50:54.037Z</time></trkpt><trkpt lat="44.843426604058926" lon="13.870920816701572"><ele>38.0</ele><time>2026-04-11T16:50:55.037Z</time></trkpt><trkpt lat="44.8432360042019" lon="13.870873710569237"><ele>39.0</ele><time>2026-04-11T16:50:56.037Z</time></trkpt><trkpt lat="44.84305004015643" lon="13.87080100238883"><ele>39.0</ele><time>2026-04-11T16:50:57.037Z</time></trkpt><trkpt lat="44.84286480632935" lon="13.870726399784193"><ele>39.0</ele><time>2026-04-11T16:50:58.037Z</time></trkpt><trkpt lat="44.84269268774699" lon="13.870660726823465"><ele>39.0</ele><time>2026-04-11T16:50:59.037Z</time></trkpt><trkpt lat="44.84254090119822" lon="13.870604618573594"><ele>39.0</ele><time>2026-04-11T16:51:00.037Z</time></trkpt><trkpt lat="44.842391430767414" lon="13.87057424196364"><ele>39.0</ele><time>2026-04-11T16:51:01.037Z</time></trkpt><trkpt lat="44.842235592441455" lon="13.87056143238943"><ele>39.0</ele><time>2026-04-11T16:51:02.037Z</time></trkpt><trkpt lat="44.842072708106684" lon="13.870570081971643"><ele>39.0</ele><time>2026-04-11T16:51:03.037Z</time></trkpt><trkpt lat="44.8419098987754" lon="13.870601111473544"><ele>39.0</ele><time>2026-04-11T16:51:04.037Z</time></trkpt><trkpt lat="44.84175302429524" lon="13.87068589378853"><ele>39.0</ele><time>2026-04-11T16:51:05.037Z</time></trkpt><trkpt lat="44.84159473748208" lon="13.870803871169409"><ele>40.0</ele><time>2026-04-11T16:51:06.037Z</time></trkpt><trkpt lat="44.84144371320157" lon="13.87093384882286"><ele>41.0</ele><time>2026-04-11T16:51:07.037Z</time></trkpt><trkpt lat="44.841301817654134" lon="13.871082890388362"><ele>42.0</ele><time>2026-04-11T16:51:08.037Z</time></trkpt><trkpt lat="44.841165388332364" lon="13.871252321183206"><ele>42.0</ele><time>2026-04-11T16:51:09.037Z</time></trkpt><trkpt lat="44.84103678191458" lon="13.87142357115528"><ele>42.0</ele><time>2026-04-11T16:51:10.037Z</time></trkpt><trkpt lat="44.840924598432714" lon="13.871609291441327"><ele>42.0</ele><time>2026-04-11T16:51:11.037Z</time></trkpt><trkpt lat="44.840834107213034" lon="13.87180833091594"><ele>38.666666666666664</ele><time>2026-04-11T16:51:12.037Z</time></trkpt><trkpt lat="44.84075457973067" lon="13.872008521772104"><ele>35.33333333333333</ele><time>2026-04-11T16:51:13.037Z</time></trkpt><trkpt lat="44.84066530601985" lon="13.872187228763783"><ele>32.0</ele><time>2026-04-11T16:51:14.037Z</time></trkpt><trkpt lat="44.84057043803489" lon="13.87234515958294"><ele>32.0</ele><time>2026-04-11T16:51:15.037Z</time></trkpt><trkpt lat="44.84046796538444" lon="13.872489147279278"><ele>32.0</ele><time>2026-04-11T16:51:16.037Z</time></trkpt><trkpt lat="44.84034679779875" lon="13.872613628974714"><ele>32.0</ele><time>2026-04-11T16:51:17.037Z</time></trkpt><trkpt lat="44.84021779527961" lon="13.872723187941219"><ele>32.0</ele><time>2026-04-11T16:51:18.037Z</time></trkpt><trkpt lat="44.84007511348864" lon="13.872782557676725"><ele>31.25</ele><time>2026-04-11T16:51:19.037Z</time></trkpt><trkpt lat="44.83994847573988" lon="13.87286439994604"><ele>30.5</ele><time>2026-04-11T16:51:20.036Z</time></trkpt><trkpt lat="44.839826183452935" lon="13.872917107306554"><ele>29.75</ele><time>2026-04-11T16:51:21.035Z</time></trkpt><trkpt lat="44.83969775607312" lon="13.87298521213813"><ele>29.0</ele><time>2026-04-11T16:51:22.034Z</time></trkpt><trkpt lat="44.8395648836662" lon="13.873065730575137"><ele>29.0</ele><time>2026-04-11T16:51:23.033Z</time></trkpt><trkpt lat="44.83943381637667" lon="13.873146370310247"><ele>29.0</ele><time>2026-04-11T16:51:24.032Z</time></trkpt><trkpt lat="44.83930054919465" lon="13.873231919958045"><ele>29.0</ele><time>2026-04-11T16:51:25.031Z</time></trkpt><trkpt lat="44.83916693182339" lon="13.873321761748917"><ele>29.0</ele><time>2026-04-11T16:51:26.03Z</time></trkpt><trkpt lat="44.83903294376776" lon="13.87341141580197"><ele>28.0</ele><time>2026-04-11T16:51:27.029Z</time></trkpt><trkpt lat="44.83889046370452" lon="13.873470163569865"><ele>27.0</ele><time>2026-04-11T16:51:28.028Z</time></trkpt><trkpt lat="44.83875201388356" lon="13.873547899051516"><ele>26.0</ele><time>2026-04-11T16:51:29.027Z</time></trkpt><trkpt lat="44.83862886508843" lon="13.873616479049689"><ele>25.0</ele><time>2026-04-11T16:51:30.027Z</time></trkpt><trkpt lat="44.83851152331611" lon="13.87370521000172"><ele>24.666666666666668</ele><time>2026-04-11T16:51:31.026Z</time></trkpt><trkpt lat="44.8383826385713" lon="13.873781857043916"><ele>24.333333333333336</ele><time>2026-04-11T16:51:32.025Z</time></trkpt><trkpt lat="44.838233865112244" lon="13.87383753046431"><ele>24.0</ele><time>2026-04-11T16:51:33.025Z</time></trkpt><trkpt lat="44.838087820511106" lon="13.873934766476365"><ele>24.0</ele><time>2026-04-11T16:51:34.024Z</time></trkpt><trkpt lat="44.837938274307525" lon="13.874029102879978"><ele>24.0</ele><time>2026-04-11T16:51:35.024Z</time></trkpt><trkpt lat="44.83779228013358" lon="13.874112109563644"><ele>24.0</ele><time>2026-04-11T16:51:36.023Z</time></trkpt><trkpt lat="44.83764559715432" lon="13.874186164730286"><ele>24.0</ele><time>2026-04-11T16:51:37.023Z</time></trkpt><trkpt lat="44.83749431228598" lon="13.874260075409037"><ele>24.0</ele><time>2026-04-11T16:51:38.023Z</time></trkpt><trkpt lat="44.837350518994356" lon="13.874339636535689"><ele>24.0</ele><time>2026-04-11T16:51:39.022Z</time></trkpt><trkpt lat="44.83720046706247" lon="13.874416457749211"><ele>24.0</ele><time>2026-04-11T16:51:40.024Z</time></trkpt><trkpt lat="44.83705290422516" lon="13.8744756523229"><ele>24.0</ele><time>2026-04-11T16:51:41.023Z</time></trkpt><trkpt lat="44.8369067023743" lon="13.874520661427661"><ele>24.0</ele><time>2026-04-11T16:51:42.023Z</time></trkpt><trkpt lat="44.83677327221102" lon="13.87457584310538"><ele>24.0</ele><time>2026-04-11T16:51:43.023Z</time></trkpt><trkpt lat="44.83664617480302" lon="13.874624497831455"><ele>24.0</ele><time>2026-04-11T16:51:44.022Z</time></trkpt><trkpt lat="44.836526968622465" lon="13.87467686555929"><ele>24.0</ele><time>2026-04-11T16:51:45.022Z</time></trkpt><trkpt lat="44.83641501447729" lon="13.874735835476116"><ele>24.0</ele><time>2026-04-11T16:51:46.022Z</time></trkpt><trkpt lat="44.836299439189084" lon="13.874790673624698"><ele>24.0</ele><time>2026-04-11T16:51:47.022Z</time></trkpt><trkpt lat="44.83619735704626" lon="13.874871361832453"><ele>24.0</ele><time>2026-04-11T16:51:48.022Z</time></trkpt><trkpt lat="44.836088401687704" lon="13.874982688755354"><ele>24.0</ele><time>2026-04-11T16:51:49.021Z</time></trkpt><trkpt lat="44.83598139009552" lon="13.875103106613382"><ele>24.0</ele><time>2026-04-11T16:51:50.022Z</time></trkpt><trkpt lat="44.83586721968539" lon="13.875237549456527"><ele>24.0</ele><time>2026-04-11T16:51:51.021Z</time></trkpt><trkpt lat="44.835734182733795" lon="13.875371225820203"><ele>24.666666666666664</ele><time>2026-04-11T16:51:52.021Z</time></trkpt><trkpt lat="44.83559628168755" lon="13.875509225940608"><ele>25.333333333333332</ele><time>2026-04-11T16:51:53.02Z</time></trkpt><trkpt lat="44.835465939772945" lon="13.875630827406992"><ele>26.0</ele><time>2026-04-11T16:51:54.02Z</time></trkpt><trkpt lat="44.83532548258006" lon="13.875758614579377"><ele>26.0</ele><time>2026-04-11T16:51:55.02Z</time></trkpt><trkpt lat="44.83516984963422" lon="13.87587934544366"><ele>26.0</ele><time>2026-04-11T16:51:56.02Z</time></trkpt><trkpt lat="44.83501339356407" lon="13.876021173419659"><ele>26.0</ele><time>2026-04-11T16:51:57.02Z</time></trkpt><trkpt lat="44.8348489007342" lon="13.876148990455306"><ele>27.333333333333332</ele><time>2026-04-11T16:51:58.019Z</time></trkpt><trkpt lat="44.83468605036494" lon="13.87626889455166"><ele>28.666666666666664</ele><time>2026-04-11T16:51:59.019Z</time></trkpt><trkpt lat="44.83452223114955" lon="13.876396099572514"><ele>30.0</ele><time>2026-04-11T16:52:00.019Z</time></trkpt><trkpt lat="44.83435951005834" lon="13.876517101720976"><ele>29.666666666666664</ele><time>2026-04-11T16:52:01.019Z</time></trkpt><trkpt lat="44.834196796021104" lon="13.876628642171317"><ele>29.333333333333332</ele><time>2026-04-11T16:52:02.019Z</time></trkpt><trkpt lat="44.83402512400356" lon="13.87672047803405"><ele>29.0</ele><time>2026-04-11T16:52:03.019Z</time></trkpt><trkpt lat="44.83385256592164" lon="13.876813742932313"><ele>29.0</ele><time>2026-04-11T16:52:04.019Z</time></trkpt><trkpt lat="44.83368048967164" lon="13.876896576264395"><ele>29.0</ele><time>2026-04-11T16:52:05.019Z</time></trkpt><trkpt lat="44.83350197970188" lon="13.87698632198739"><ele>29.0</ele><time>2026-04-11T16:52:06.019Z</time></trkpt><trkpt lat="44.83332094910582" lon="13.877042317691199"><ele>27.666666666666664</ele><time>2026-04-11T16:52:07.019Z</time></trkpt><trkpt lat="44.83314762253992" lon="13.877149928785268"><ele>26.333333333333336</ele><time>2026-04-11T16:52:08.018Z</time></trkpt><trkpt lat="44.83297440853711" lon="13.877285618167969"><ele>25.0</ele><time>2026-04-11T16:52:09.018Z</time></trkpt><trkpt lat="44.83280945178448" lon="13.877431768824886"><ele>25.0</ele><time>2026-04-11T16:52:10.018Z</time></trkpt><trkpt lat="44.83264144776386" lon="13.877597657482362"><ele>25.0</ele><time>2026-04-11T16:52:11.018Z</time></trkpt><trkpt lat="44.832478355166394" lon="13.877778343988167"><ele>25.0</ele><time>2026-04-11T16:52:12.018Z</time></trkpt><trkpt lat="44.83231267649923" lon="13.877953165089322"><ele>24.666666666666668</ele><time>2026-04-11T16:52:13.018Z</time></trkpt><trkpt lat="44.83215076101778" lon="13.878121650241019"><ele>24.333333333333336</ele><time>2026-04-11T16:52:14.018Z</time></trkpt><trkpt lat="44.83198817710691" lon="13.878299806115953"><ele>24.0</ele><time>2026-04-11T16:52:15.018Z</time></trkpt><trkpt lat="44.83183015427569" lon="13.878459199658613"><ele>24.0</ele><time>2026-04-11T16:52:16.018Z</time></trkpt><trkpt lat="44.83166580885404" lon="13.87860812154398"><ele>24.0</ele><time>2026-04-11T16:52:17.018Z</time></trkpt><trkpt lat="44.83149841406402" lon="13.878730450663765"><ele>24.0</ele><time>2026-04-11T16:52:18.018Z</time></trkpt><trkpt lat="44.831330986560864" lon="13.878826337662586"><ele>24.0</ele><time>2026-04-11T16:52:19.018Z</time></trkpt><trkpt lat="44.83116769554256" lon="13.87888759526207"><ele>24.0</ele><time>2026-04-11T16:52:20.018Z</time></trkpt><trkpt lat="44.83100389706211" lon="13.8789208535714"><ele>24.0</ele><time>2026-04-11T16:52:21.018Z</time></trkpt><trkpt lat="44.83083189696302" lon="13.878926805623918"><ele>24.0</ele><time>2026-04-11T16:52:22.018Z</time></trkpt><trkpt lat="44.83064967182069" lon="13.878920121962548"><ele>24.0</ele><time>2026-04-11T16:52:23.018Z</time></trkpt><trkpt lat="44.83047213828261" lon="13.878907127267999"><ele>24.0</ele><time>2026-04-11T16:52:24.018Z</time></trkpt><trkpt lat="44.83030187493282" lon="13.878900685337712"><ele>22.333333333333332</ele><time>2026-04-11T16:52:25.018Z</time></trkpt><trkpt lat="44.8301365323391" lon="13.878906624049362"><ele>20.666666666666664</ele><time>2026-04-11T16:52:26.018Z</time></trkpt><trkpt lat="44.82997066558913" lon="13.878933773227189"><ele>19.0</ele><time>2026-04-11T16:52:27.018Z</time></trkpt><trkpt lat="44.82980068989214" lon="13.878986336825424"><ele>19.0</ele><time>2026-04-11T16:52:28.018Z</time></trkpt><trkpt lat="44.82962339671317" lon="13.879054550867258"><ele>19.0</ele><time>2026-04-11T16:52:29.017Z</time></trkpt><trkpt lat="44.82943566031572" lon="13.879090609510527"><ele>19.0</ele><time>2026-04-11T16:52:30.017Z</time></trkpt><trkpt lat="44.82924744126055" lon="13.879148697783037"><ele>18.666666666666664</ele><time>2026-04-11T16:52:31.017Z</time></trkpt><trkpt lat="44.82905706853464" lon="13.879206721619559"><ele>18.333333333333332</ele><time>2026-04-11T16:52:32.017Z</time></trkpt><trkpt lat="44.82886281143567" lon="13.879262973023463"><ele>18.0</ele><time>2026-04-11T16:52:33.017Z</time></trkpt><trkpt lat="44.82866491901722" lon="13.879318845142713"><ele>16.666666666666668</ele><time>2026-04-11T16:52:34.017Z</time></trkpt><trkpt lat="44.828466444485684" lon="13.879365160474244"><ele>15.333333333333334</ele><time>2026-04-11T16:52:35.017Z</time></trkpt><trkpt lat="44.828271826027695" lon="13.879428737104428"><ele>14.0</ele><time>2026-04-11T16:52:36.017Z</time></trkpt><trkpt lat="44.82808645987129" lon="13.879465117819892"><ele>14.0</ele><time>2026-04-11T16:52:37.017Z</time></trkpt><trkpt lat="44.82791358132852" lon="13.879494219002108"><ele>14.0</ele><time>2026-04-11T16:52:38.017Z</time></trkpt><trkpt lat="44.8277523979773" lon="13.879511059776261"><ele>14.0</ele><time>2026-04-11T16:52:39.017Z</time></trkpt><trkpt lat="44.82759566517718" lon="13.879503889071017"><ele>14.333333333333334</ele><time>2026-04-11T16:52:40.017Z</time></trkpt><trkpt lat="44.82745069891612" lon="13.879478949535782"><ele>14.666666666666668</ele><time>2026-04-11T16:52:41.017Z</time></trkpt><trkpt lat="44.82729924841003" lon="13.879438654013349"><ele>15.0</ele><time>2026-04-11T16:52:42.017Z</time></trkpt><trkpt lat="44.82714099447617" lon="13.879388672010986"><ele>15.0</ele><time>2026-04-11T16:52:43.017Z</time></trkpt><trkpt lat="44.8269825637701" lon="13.879337712526363"><ele>15.0</ele><time>2026-04-11T16:52:44.017Z</time></trkpt><trkpt lat="44.8268223319341" lon="13.879279801636729"><ele>15.0</ele><time>2026-04-11T16:52:45.017Z</time></trkpt><trkpt lat="44.82666643554334" lon="13.87923113244487"><ele>15.5</ele><time>2026-04-11T16:52:46.017Z</time></trkpt><trkpt lat="44.826523321884736" lon="13.879184166452625"><ele>16.0</ele><time>2026-04-11T16:52:47.017Z</time></trkpt><trkpt lat="44.826389204337204" lon="13.87914633043504"><ele>16.5</ele><time>2026-04-11T16:52:48.017Z</time></trkpt><trkpt lat="44.826265875897505" lon="13.879107631644946"><ele>17.0</ele><time>2026-04-11T16:52:49.017Z</time></trkpt><trkpt lat="44.82614876985872" lon="13.879079280381042"><ele>17.0</ele><time>2026-04-11T16:52:50.017Z</time></trkpt><trkpt lat="44.826042366381216" lon="13.879037378039492"><ele>17.0</ele><time>2026-04-11T16:52:51.017Z</time></trkpt><trkpt lat="44.82594304867258" lon="13.878999730684132"><ele>17.0</ele><time>2026-04-11T16:52:52.017Z</time></trkpt><trkpt lat="44.82584204668497" lon="13.878973659527853"><ele>17.0</ele><time>2026-04-11T16:52:53.017Z</time></trkpt><trkpt lat="44.82574535036073" lon="13.878958191078365"><ele>17.0</ele><time>2026-04-11T16:52:54.017Z</time></trkpt><trkpt lat="44.8256586579271" lon="13.878938211148567"><ele>17.0</ele><time>2026-04-11T16:52:55.017Z</time></trkpt><trkpt lat="44.82558225907689" lon="13.878910704925012"><ele>17.0</ele><time>2026-04-11T16:52:56.017Z</time></trkpt><trkpt lat="44.82550572298772" lon="13.878873608029695"><ele>17.0</ele><time>2026-04-11T16:52:57.017Z</time></trkpt><trkpt lat="44.825432239162474" lon="13.878827911995604"><ele>17.0</ele><time>2026-04-11T16:52:58.017Z</time></trkpt><trkpt lat="44.82537169086293" lon="13.87877134398497"><ele>17.0</ele><time>2026-04-11T16:52:59.017Z</time></trkpt><trkpt lat="44.82533407518093" lon="13.878675253144184"><ele>17.0</ele><time>2026-04-11T16:53:00.017Z</time></trkpt><trkpt lat="44.82521517348326" lon="13.87866025763336"><ele>17.0</ele><time>2026-04-11T16:53:02.017Z</time></trkpt><trkpt lat="44.82515179646639" lon="13.878676343763312"><ele>17.0</ele><time>2026-04-11T16:53:03.017Z</time></trkpt><trkpt lat="44.825071864937" lon="13.87868216858232"><ele>17.0</ele><time>2026-04-11T16:53:04.017Z</time></trkpt><trkpt lat="44.82497258434899" lon="13.87868757523112"><ele>17.0</ele><time>2026-04-11T16:53:05.017Z</time></trkpt><trkpt lat="44.82486814684807" lon="13.87868703069275"><ele>17.0</ele><time>2026-04-11T16:53:06.017Z</time></trkpt><trkpt lat="44.82476587904012" lon="13.878692971189226"><ele>16.75</ele><time>2026-04-11T16:53:07.017Z</time></trkpt><trkpt lat="44.82466004920535" lon="13.878702832112072"><ele>16.5</ele><time>2026-04-11T16:53:08.017Z</time></trkpt><trkpt lat="44.82454009627132" lon="13.87873066720902"><ele>16.25</ele><time>2026-04-11T16:53:09.017Z</time></trkpt><trkpt lat="44.824409965449675" lon="13.878772777891145"><ele>16.0</ele><time>2026-04-11T16:53:10.017Z</time></trkpt><trkpt lat="44.824289206375184" lon="13.878820308134017"><ele>16.0</ele><time>2026-04-11T16:53:11.017Z</time></trkpt><trkpt lat="44.82414903209626" lon="13.878883155729339"><ele>16.0</ele><time>2026-04-11T16:53:12.017Z</time></trkpt><trkpt lat="44.823995765525034" lon="13.878957189441305"><ele>16.0</ele><time>2026-04-11T16:53:13.017Z</time></trkpt><trkpt lat="44.823837958816895" lon="13.879031704192554"><ele>16.0</ele><time>2026-04-11T16:53:14.017Z</time></trkpt><trkpt lat="44.82367732413454" lon="13.879105346717392"><ele>16.0</ele><time>2026-04-11T16:53:15.017Z</time></trkpt><trkpt lat="44.823517709926534" lon="13.879157129095683"><ele>16.0</ele><time>2026-04-11T16:53:16.017Z</time></trkpt><trkpt lat="44.82337931872892" lon="13.879236769674318"><ele>17.75</ele><time>2026-04-11T16:53:17.017Z</time></trkpt><trkpt lat="44.82324635978133" lon="13.879289853180198"><ele>19.5</ele><time>2026-04-11T16:53:18.017Z</time></trkpt><trkpt lat="44.82311703728661" lon="13.879352546879973"><ele>21.25</ele><time>2026-04-11T16:53:19.017Z</time></trkpt><trkpt lat="44.82298742064005" lon="13.879438326599852"><ele>23.0</ele><time>2026-04-11T16:53:20.017Z</time></trkpt><trkpt lat="44.82285202722432" lon="13.879540812466335"><ele>23.0</ele><time>2026-04-11T16:53:21.017Z</time></trkpt><trkpt lat="44.822719364226224" lon="13.87965800467726"><ele>23.0</ele><time>2026-04-11T16:53:22.017Z</time></trkpt><trkpt lat="44.82258786302258" lon="13.87978657824439"><ele>23.0</ele><time>2026-04-11T16:53:23.017Z</time></trkpt><trkpt lat="44.822451864314196" lon="13.879923679215214"><ele>20.666666666666668</ele><time>2026-04-11T16:53:24.017Z</time></trkpt><trkpt lat="44.822313178004265" lon="13.88005808813942"><ele>18.333333333333332</ele><time>2026-04-11T16:53:25.016Z</time></trkpt><trkpt lat="44.82217504911259" lon="13.88020087269071"><ele>16.0</ele><time>2026-04-11T16:53:26.016Z</time></trkpt><trkpt lat="44.822030769327704" lon="13.880347516778027"><ele>16.0</ele><time>2026-04-11T16:53:27.016Z</time></trkpt><trkpt lat="44.821882013507356" lon="13.880485338025343"><ele>16.0</ele><time>2026-04-11T16:53:28.016Z</time></trkpt><trkpt lat="44.82173834158183" lon="13.88062479365969"><ele>16.0</ele><time>2026-04-11T16:53:29.016Z</time></trkpt><trkpt lat="44.82159290706853" lon="13.880776704161287"><ele>13.0</ele><time>2026-04-11T16:53:30.016Z</time></trkpt><trkpt lat="44.82144663208937" lon="13.880916072944228"><ele>10.0</ele><time>2026-04-11T16:53:31.016Z</time></trkpt><trkpt lat="44.821297930793726" lon="13.881052356069201"><ele>7.0</ele><time>2026-04-11T16:53:32.016Z</time></trkpt><trkpt lat="44.82116276824774" lon="13.881189970507776"><ele>6.0</ele><time>2026-04-11T16:53:33.016Z</time></trkpt><trkpt lat="44.82103275934576" lon="13.881326609826615"><ele>5.0</ele><time>2026-04-11T16:53:34.016Z</time></trkpt><trkpt lat="44.82090771668035" lon="13.881459507351034"><ele>4.0</ele><time>2026-04-11T16:53:35.016Z</time></trkpt><trkpt lat="44.82078392659211" lon="13.881600137020877"><ele>4.0</ele><time>2026-04-11T16:53:36.016Z</time></trkpt><trkpt lat="44.82066265942732" lon="13.881753678995057"><ele>4.0</ele><time>2026-04-11T16:53:37.016Z</time></trkpt><trkpt lat="44.82054423891157" lon="13.881921242100155"><ele>4.0</ele><time>2026-04-11T16:53:38.016Z</time></trkpt><trkpt lat="44.82042790902204" lon="13.882094506573852"><ele>4.333333333333333</ele><time>2026-04-11T16:53:39.016Z</time></trkpt><trkpt lat="44.82031641538511" lon="13.8822667163863"><ele>4.666666666666667</ele><time>2026-04-11T16:53:40.016Z</time></trkpt><trkpt lat="44.82020780726765" lon="13.882444365915584"><ele>5.0</ele><time>2026-04-11T16:53:41.016Z</time></trkpt><trkpt lat="44.82010035001667" lon="13.8826230854518"><ele>5.0</ele><time>2026-04-11T16:53:42.016Z</time></trkpt><trkpt lat="44.819993845689424" lon="13.882803494974787"><ele>5.0</ele><time>2026-04-11T16:53:43.016Z</time></trkpt><trkpt lat="44.81988510249353" lon="13.882984364395638"><ele>5.0</ele><time>2026-04-11T16:53:44.016Z</time></trkpt><trkpt lat="44.819777530768825" lon="13.883166776039761"><ele>5.0</ele><time>2026-04-11T16:53:45.016Z</time></trkpt><trkpt lat="44.819667792703186" lon="13.883350634644284"><ele>5.0</ele><time>2026-04-11T16:53:46.019Z</time></trkpt><trkpt lat="44.819557612184475" lon="13.883532666999802"><ele>5.0</ele><time>2026-04-11T16:53:47.018Z</time></trkpt><trkpt lat="44.819446492928606" lon="13.883711895727435"><ele>5.666666666666667</ele><time>2026-04-11T16:53:48.018Z</time></trkpt><trkpt lat="44.819332207631355" lon="13.883888254767646"><ele>6.333333333333334</ele><time>2026-04-11T16:53:49.019Z</time></trkpt><trkpt lat="44.81922106534913" lon="13.88407259194768"><ele>7.0</ele><time>2026-04-11T16:53:50.018Z</time></trkpt><trkpt lat="44.81910803100886" lon="13.884258470178185"><ele>7.0</ele><time>2026-04-11T16:53:51.018Z</time></trkpt><trkpt lat="44.81899543878067" lon="13.884446734899324"><ele>7.0</ele><time>2026-04-11T16:53:52.019Z</time></trkpt><trkpt lat="44.81888068710892" lon="13.884627897255834"><ele>7.0</ele><time>2026-04-11T16:53:53.019Z</time></trkpt><trkpt lat="44.81876895361793" lon="13.884815544237808"><ele>7.0</ele><time>2026-04-11T16:53:54.019Z</time></trkpt><trkpt lat="44.81865592830525" lon="13.885001350677367"><ele>7.0</ele><time>2026-04-11T16:53:55.019Z</time></trkpt><trkpt lat="44.81854217616371" lon="13.885189631792159"><ele>7.0</ele><time>2026-04-11T16:53:56.019Z</time></trkpt><trkpt lat="44.81842569702937" lon="13.885370932633819"><ele>7.0</ele><time>2026-04-11T16:53:57.019Z</time></trkpt><trkpt lat="44.81831122969605" lon="13.885559716013535"><ele>7.0</ele><time>2026-04-11T16:53:58.019Z</time></trkpt><trkpt lat="44.81819548187991" lon="13.885746862664645"><ele>7.0</ele><time>2026-04-11T16:53:59.019Z</time></trkpt><trkpt lat="44.81808199185779" lon="13.885932484802275"><ele>6.333333333333334</ele><time>2026-04-11T16:54:00.019Z</time></trkpt><trkpt lat="44.817961657717944" lon="13.886123443901106"><ele>5.666666666666667</ele><time>2026-04-11T16:54:01.019Z</time></trkpt><trkpt lat="44.81784227746569" lon="13.886314843676898"><ele>5.0</ele><time>2026-04-11T16:54:02.019Z</time></trkpt><trkpt lat="44.81772923301892" lon="13.88650493224836"><ele>4.666666666666667</ele><time>2026-04-11T16:54:03.019Z</time></trkpt><trkpt lat="44.8176174508354" lon="13.886693250758945"><ele>4.333333333333333</ele><time>2026-04-11T16:54:04.019Z</time></trkpt><trkpt lat="44.817504660005284" lon="13.886882376061813"><ele>4.0</ele><time>2026-04-11T16:54:05.019Z</time></trkpt><trkpt lat="44.81739335972211" lon="13.887065684376465"><ele>4.0</ele><time>2026-04-11T16:54:06.019Z</time></trkpt><trkpt lat="44.81728293800408" lon="13.887253400166324"><ele>4.0</ele><time>2026-04-11T16:54:07.019Z</time></trkpt><trkpt lat="44.81717746105023" lon="13.887440611685347"><ele>4.0</ele><time>2026-04-11T16:54:08.019Z</time></trkpt><trkpt lat="44.81707405100812" lon="13.887628764947264"><ele>2.6666666666666665</ele><time>2026-04-11T16:54:09.019Z</time></trkpt><trkpt lat="44.81698280042006" lon="13.887830373068951"><ele>1.3333333333333333</ele><time>2026-04-11T16:54:10.019Z</time></trkpt><trkpt lat="44.81690899722329" lon="13.888038322903423"><ele>0.0</ele><time>2026-04-11T16:54:11.019Z</time></trkpt><trkpt lat="44.8168324368311" lon="13.888254326057659"><ele>2.0</ele><time>2026-04-11T16:54:12.019Z</time></trkpt><trkpt lat="44.816775868023115" lon="13.888472357510727"><ele>4.0</ele><time>2026-04-11T16:54:13.019Z</time></trkpt><trkpt lat="44.81673188290531" lon="13.88870167869431"><ele>6.0</ele><time>2026-04-11T16:54:14.019Z</time></trkpt><trkpt lat="44.816689341448956" lon="13.888935961798596"><ele>6.0</ele><time>2026-04-11T16:54:15.019Z</time></trkpt><trkpt lat="44.816636752357724" lon="13.889161845936208"><ele>6.0</ele><time>2026-04-11T16:54:16.019Z</time></trkpt><trkpt lat="44.81658977265481" lon="13.889393747873175"><ele>6.0</ele><time>2026-04-11T16:54:17.019Z</time></trkpt><trkpt lat="44.81654516276833" lon="13.889629645963767"><ele>5.666666666666667</ele><time>2026-04-11T16:54:18.019Z</time></trkpt><trkpt lat="44.816497136822655" lon="13.88986968505706"><ele>5.333333333333334</ele><time>2026-04-11T16:54:19.019Z</time></trkpt><trkpt lat="44.81645074377306" lon="13.890111984919729"><ele>5.0</ele><time>2026-04-11T16:54:20.019Z</time></trkpt><trkpt lat="44.81640282009214" lon="13.890347605757631"><ele>4.333333333333334</ele><time>2026-04-11T16:54:21.019Z</time></trkpt><trkpt lat="44.81634633250084" lon="13.890593364304067"><ele>3.666666666666667</ele><time>2026-04-11T16:54:22.019Z</time></trkpt><trkpt lat="44.81628349806224" lon="13.890831995199672"><ele>3.0</ele><time>2026-04-11T16:54:23.019Z</time></trkpt><trkpt lat="44.81623448596039" lon="13.891066138422037"><ele>2.3333333333333335</ele><time>2026-04-11T16:54:24.019Z</time></trkpt><trkpt lat="44.81617757983484" lon="13.891284073447961"><ele>1.6666666666666665</ele><time>2026-04-11T16:54:25.019Z</time></trkpt><trkpt lat="44.816113109804334" lon="13.891492718245102"><ele>1.0</ele><time>2026-04-11T16:54:26.019Z</time></trkpt><trkpt lat="44.816047134976984" lon="13.891689252694452"><ele>1.75</ele><time>2026-04-11T16:54:27.019Z</time></trkpt><trkpt lat="44.815982484077615" lon="13.891876387552005"><ele>2.5</ele><time>2026-04-11T16:54:28.019Z</time></trkpt><trkpt lat="44.81593356169781" lon="13.89207923100231"><ele>3.25</ele><time>2026-04-11T16:54:29.019Z</time></trkpt><trkpt lat="44.81590499914365" lon="13.892279785085476"><ele>4.0</ele><time>2026-04-11T16:54:30.019Z</time></trkpt><trkpt lat="44.815924308422545" lon="13.892489659449224"><ele>3.0</ele><time>2026-04-11T16:54:31.019Z</time></trkpt><trkpt lat="44.815984165713814" lon="13.892701757471615"><ele>2.0</ele><time>2026-04-11T16:54:32.019Z</time></trkpt><trkpt lat="44.81605671511095" lon="13.892906841943331"><ele>1.0</ele><time>2026-04-11T16:54:33.019Z</time></trkpt><trkpt lat="44.816138246877564" lon="13.89309781819557"><ele>1.0</ele><time>2026-04-11T16:54:34.019Z</time></trkpt><trkpt lat="44.81624630079653" lon="13.89328365460418"><ele>1.0</ele><time>2026-04-11T16:54:35.019Z</time></trkpt><trkpt lat="44.81635274792349" lon="13.893468130775426"><ele>1.0</ele><time>2026-04-11T16:54:36.019Z</time></trkpt><trkpt lat="44.81645779331337" lon="13.89364979918424"><ele>2.0</ele><time>2026-04-11T16:54:37.019Z</time></trkpt><trkpt lat="44.81655969153859" lon="13.89383597211343"><ele>3.0</ele><time>2026-04-11T16:54:38.019Z</time></trkpt><trkpt lat="44.816670182438116" lon="13.894011826745466"><ele>4.0</ele><time>2026-04-11T16:54:39.019Z</time></trkpt><trkpt lat="44.816775147098234" lon="13.894188933881086"><ele>2.6666666666666665</ele><time>2026-04-11T16:54:40.019Z</time></trkpt><trkpt lat="44.81687338656908" lon="13.894361966898432"><ele>1.3333333333333333</ele><time>2026-04-11T16:54:41.019Z</time></trkpt><trkpt lat="44.81696259096747" lon="13.894535263917453"><ele>0.0</ele><time>2026-04-11T16:54:42.019Z</time></trkpt><trkpt lat="44.817041146240875" lon="13.894714662319751"><ele>0.0</ele><time>2026-04-11T16:54:43.019Z</time></trkpt><trkpt lat="44.81710261149303" lon="13.894931665146634"><ele>0.0</ele><time>2026-04-11T16:54:44.019Z</time></trkpt><trkpt lat="44.817141680413144" lon="13.895145911501471"><ele>0.0</ele><time>2026-04-11T16:54:45.019Z</time></trkpt><trkpt lat="44.81714786364482" lon="13.895358257289766"><ele>0.0</ele><time>2026-04-11T16:54:46.019Z</time></trkpt><trkpt lat="44.81714043406685" lon="13.895569440545518"><ele>0.0</ele><time>2026-04-11T16:54:47.019Z</time></trkpt><trkpt lat="44.81710815391343" lon="13.895777921946436"><ele>0.0</ele><time>2026-04-11T16:54:48.019Z</time></trkpt><trkpt lat="44.81706306281533" lon="13.8959835512333"><ele>0.3333333333333333</ele><time>2026-04-11T16:54:49.019Z</time></trkpt><trkpt lat="44.81701797198362" lon="13.896195038833923"><ele>0.6666666666666666</ele><time>2026-04-11T16:54:50.019Z</time></trkpt><trkpt lat="44.81696991677857" lon="13.896407786260289"><ele>1.0</ele><time>2026-04-11T16:54:51.019Z</time></trkpt><trkpt lat="44.81691324182106" lon="13.896622521385627"><ele>1.0</ele><time>2026-04-11T16:54:52.019Z</time></trkpt><trkpt lat="44.816851257721396" lon="13.896825960598136"><ele>1.0</ele><time>2026-04-11T16:54:53.019Z</time></trkpt><trkpt lat="44.816779365897595" lon="13.897031128478307"><ele>1.0</ele><time>2026-04-11T16:54:54.019Z</time></trkpt><trkpt lat="44.81671397543445" lon="13.89724184086908"><ele>1.0</ele><time>2026-04-11T16:54:55.019Z</time></trkpt><trkpt lat="44.81663813139516" lon="13.897450402051133"><ele>1.0</ele><time>2026-04-11T16:54:56.019Z</time></trkpt><trkpt lat="44.81657589404691" lon="13.89765048117363"><ele>1.0</ele><time>2026-04-11T16:54:57.018Z</time></trkpt><trkpt lat="44.816510750829586" lon="13.897844598150304"><ele>1.0</ele><time>2026-04-11T16:54:58.018Z</time></trkpt><trkpt lat="44.816448070012264" lon="13.898030354016276"><ele>1.0</ele><time>2026-04-11T16:54:59.018Z</time></trkpt><trkpt lat="44.81637358410132" lon="13.898203150678567"><ele>1.0</ele><time>2026-04-11T16:55:00.018Z</time></trkpt><trkpt lat="44.81629171010934" lon="13.898369675779508"><ele>1.0</ele><time>2026-04-11T16:55:01.018Z</time></trkpt><trkpt lat="44.816197537248094" lon="13.89854684487495"><ele>0.6666666666666666</ele><time>2026-04-11T16:55:02.018Z</time></trkpt><trkpt lat="44.816101824322594" lon="13.898718812638487"><ele>0.3333333333333333</ele><time>2026-04-11T16:55:03.018Z</time></trkpt><trkpt lat="44.81600244689249" lon="13.898881874399368"><ele>0.0</ele><time>2026-04-11T16:55:04.018Z</time></trkpt><trkpt lat="44.81589494415013" lon="13.899039539328223"><ele>0.3333333333333333</ele><time>2026-04-11T16:55:05.018Z</time></trkpt><trkpt lat="44.81578674802659" lon="13.89920452905723"><ele>0.6666666666666666</ele><time>2026-04-11T16:55:06.018Z</time></trkpt><trkpt lat="44.81567712742331" lon="13.89936329020704"><ele>1.0</ele><time>2026-04-11T16:55:07.018Z</time></trkpt><trkpt lat="44.81557131547696" lon="13.899540956467927"><ele>1.0</ele><time>2026-04-11T16:55:08.018Z</time></trkpt><trkpt lat="44.81546790455256" lon="13.899715885942003"><ele>1.0</ele><time>2026-04-11T16:55:09.018Z</time></trkpt><trkpt lat="44.81537409012552" lon="13.899908703166743"><ele>1.0</ele><time>2026-04-11T16:55:10.018Z</time></trkpt><trkpt lat="44.81527925559839" lon="13.900094556014741"><ele>0.6666666666666666</ele><time>2026-04-11T16:55:11.018Z</time></trkpt><trkpt lat="44.81519176524411" lon="13.900287409928058"><ele>0.3333333333333333</ele><time>2026-04-11T16:55:12.018Z</time></trkpt><trkpt lat="44.81509574633924" lon="13.900474319259617"><ele>0.0</ele><time>2026-04-11T16:55:13.018Z</time></trkpt><trkpt lat="44.8149990488187" lon="13.90065745029432"><ele>0.3333333333333333</ele><time>2026-04-11T16:55:14.018Z</time></trkpt><trkpt lat="44.81491154102832" lon="13.900854173529492"><ele>0.6666666666666666</ele><time>2026-04-11T16:55:15.018Z</time></trkpt><trkpt lat="44.81482257421775" lon="13.901050961080754"><ele>1.0</ele><time>2026-04-11T16:55:16.018Z</time></trkpt><trkpt lat="44.81474943538315" lon="13.90125758789996"><ele>1.0</ele><time>2026-04-11T16:55:17.018Z</time></trkpt><trkpt lat="44.81468474281044" lon="13.901474224917957"><ele>1.0</ele><time>2026-04-11T16:55:18.018Z</time></trkpt><trkpt lat="44.814630527875835" lon="13.90168891498431"><ele>1.0</ele><time>2026-04-11T16:55:19.018Z</time></trkpt><trkpt lat="44.81458860117948" lon="13.901913813264988"><ele>1.0</ele><time>2026-04-11T16:55:20.018Z</time></trkpt><trkpt lat="44.81456323657288" lon="13.902148938724645"><ele>1.0</ele><time>2026-04-11T16:55:21.018Z</time></trkpt><trkpt lat="44.81452886831089" lon="13.902379973049758"><ele>1.0</ele><time>2026-04-11T16:55:22.018Z</time></trkpt><trkpt lat="44.81450634956245" lon="13.902619261379625"><ele>0.6666666666666666</ele><time>2026-04-11T16:55:23.018Z</time></trkpt><trkpt lat="44.81449093466688" lon="13.902860234952081"><ele>0.3333333333333333</ele><time>2026-04-11T16:55:24.018Z</time></trkpt><trkpt lat="44.81449008637763" lon="13.903101853303175"><ele>0.0</ele><time>2026-04-11T16:55:25.018Z</time></trkpt><trkpt lat="44.81449465978243" lon="13.903349422956241"><ele>0.0</ele><time>2026-04-11T16:55:26.018Z</time></trkpt><trkpt lat="44.81449840286055" lon="13.903594789919085"><ele>0.0</ele><time>2026-04-11T16:55:27.018Z</time></trkpt><trkpt lat="44.81450193610714" lon="13.903841016640856"><ele>0.0</ele><time>2026-04-11T16:55:28.018Z</time></trkpt><trkpt lat="44.81451753922769" lon="13.904073069071726"><ele>0.6666666666666666</ele><time>2026-04-11T16:55:29.018Z</time></trkpt><trkpt lat="44.81453542630767" lon="13.904307406129494"><ele>1.3333333333333333</ele><time>2026-04-11T16:55:30.018Z</time></trkpt><trkpt lat="44.81457564247942" lon="13.904531658821258"><ele>2.0</ele><time>2026-04-11T16:55:31.018Z</time></trkpt><trkpt lat="44.814622797800816" lon="13.904748437746603"><ele>2.0</ele><time>2026-04-11T16:55:32.018Z</time></trkpt><trkpt lat="44.81467299983269" lon="13.9049657415547"><ele>2.0</ele><time>2026-04-11T16:55:33.018Z</time></trkpt><trkpt lat="44.81471204610228" lon="13.905187482837821"><ele>2.0</ele><time>2026-04-11T16:55:34.018Z</time></trkpt><trkpt lat="44.81474790509843" lon="13.905412204726222"><ele>3.333333333333333</ele><time>2026-04-11T16:55:35.018Z</time></trkpt><trkpt lat="44.81479426008494" lon="13.905639422628301"><ele>4.666666666666667</ele><time>2026-04-11T16:55:36.018Z</time></trkpt><trkpt lat="44.81486261830976" lon="13.905867195526477"><ele>6.0</ele><time>2026-04-11T16:55:37.018Z</time></trkpt><trkpt lat="44.8149250988634" lon="13.906094121805394"><ele>7.333333333333334</ele><time>2026-04-11T16:55:38.018Z</time></trkpt><trkpt lat="44.81497669679527" lon="13.906315024563332"><ele>8.666666666666668</ele><time>2026-04-11T16:55:39.018Z</time></trkpt><trkpt lat="44.8150245666698" lon="13.906529549275518"><ele>10.0</ele><time>2026-04-11T16:55:40.018Z</time></trkpt><trkpt lat="44.815059845751136" lon="13.906751371977673"><ele>11.333333333333334</ele><time>2026-04-11T16:55:41.018Z</time></trkpt><trkpt lat="44.81509255698917" lon="13.906977976813735"><ele>12.666666666666668</ele><time>2026-04-11T16:55:42.018Z</time></trkpt><trkpt lat="44.81510147188068" lon="13.907202669521654"><ele>14.0</ele><time>2026-04-11T16:55:43.018Z</time></trkpt><trkpt lat="44.815114589614204" lon="13.90743110724338"><ele>13.666666666666668</ele><time>2026-04-11T16:55:44.018Z</time></trkpt><trkpt lat="44.81511353023012" lon="13.907662510242632"><ele>13.333333333333332</ele><time>2026-04-11T16:55:45.018Z</time></trkpt><trkpt lat="44.81510130886612" lon="13.907897900935808"><ele>13.0</ele><time>2026-04-11T16:55:46.018Z</time></trkpt><trkpt lat="44.81507866027296" lon="13.908135104305414"><ele>13.0</ele><time>2026-04-11T16:55:47.018Z</time></trkpt><trkpt lat="44.815053078889555" lon="13.908372272383518"><ele>13.0</ele><time>2026-04-11T16:55:48.018Z</time></trkpt><trkpt lat="44.81503197527925" lon="13.908609937258067"><ele>13.0</ele><time>2026-04-11T16:55:49.018Z</time></trkpt><trkpt lat="44.81500059601732" lon="13.908841489405253"><ele>13.0</ele><time>2026-04-11T16:55:50.018Z</time></trkpt><trkpt lat="44.81497021352767" lon="13.90907609779329"><ele>13.0</ele><time>2026-04-11T16:55:51.018Z</time></trkpt><trkpt lat="44.81493697049685" lon="13.909312252946085"><ele>13.0</ele><time>2026-04-11T16:55:52.019Z</time></trkpt><trkpt lat="44.81489974880714" lon="13.909531903591473"><ele>13.0</ele><time>2026-04-11T16:55:53.019Z</time></trkpt><trkpt lat="44.8148745918241" lon="13.909770756723333"><ele>13.0</ele><time>2026-04-11T16:55:54.019Z</time></trkpt><trkpt lat="44.814824787728185" lon="13.909990013439351"><ele>13.0</ele><time>2026-04-11T16:55:55.019Z</time></trkpt><trkpt lat="44.81478610333031" lon="13.910204465074326"><ele>11.0</ele><time>2026-04-11T16:55:56.019Z</time></trkpt><trkpt lat="44.81474951867476" lon="13.91041770439294"><ele>9.0</ele><time>2026-04-11T16:55:57.019Z</time></trkpt><trkpt lat="44.81471256157095" lon="13.910622814598334"><ele>7.0</ele><time>2026-04-11T16:55:58.02Z</time></trkpt><trkpt lat="44.81467085268945" lon="13.910818753966037"><ele>6.5</ele><time>2026-04-11T16:55:59.019Z</time></trkpt><trkpt lat="44.81463650095224" lon="13.911016301125997"><ele>6.0</ele><time>2026-04-11T16:56:00.019Z</time></trkpt><trkpt lat="44.814599147132" lon="13.911198567562703"><ele>5.5</ele><time>2026-04-11T16:56:01.019Z</time></trkpt><trkpt lat="44.814564555330975" lon="13.91139392864785"><ele>5.0</ele><time>2026-04-11T16:56:02.019Z</time></trkpt><trkpt lat="44.81452248133875" lon="13.911567143215695"><ele>5.0</ele><time>2026-04-11T16:56:03.019Z</time></trkpt><trkpt lat="44.814475001747304" lon="13.9117327433061"><ele>5.0</ele><time>2026-04-11T16:56:04.02Z</time></trkpt><trkpt lat="44.8144382297664" lon="13.91192326159839"><ele>5.0</ele><time>2026-04-11T16:56:05.02Z</time></trkpt><trkpt lat="44.81439943678141" lon="13.912103565656402"><ele>5.0</ele><time>2026-04-11T16:56:06.02Z</time></trkpt><trkpt lat="44.814348305243165" lon="13.91226663591947"><ele>6.0</ele><time>2026-04-11T16:56:07.02Z</time></trkpt><trkpt lat="44.814286999055454" lon="13.91241917967557"><ele>7.0</ele><time>2026-04-11T16:56:08.02Z</time></trkpt><trkpt lat="44.81426649885893" lon="13.912626219410523"><ele>8.0</ele><time>2026-04-11T16:56:09.02Z</time></trkpt><trkpt lat="44.81409413832461" lon="13.912689043937274"><ele>8.0</ele><time>2026-04-11T16:56:10.02Z</time></trkpt><trkpt lat="44.813971133788876" lon="13.912765608498649"><ele>8.0</ele><time>2026-04-11T16:56:11.019Z</time></trkpt><trkpt lat="44.81383830845724" lon="13.912802955984457"><ele>8.0</ele><time>2026-04-11T16:56:12.019Z</time></trkpt><trkpt lat="44.81370219274198" lon="13.912837831068543"><ele>8.0</ele><time>2026-04-11T16:56:13.019Z</time></trkpt><trkpt lat="44.81357418975502" lon="13.912757129578251"><ele>9.25</ele><time>2026-04-11T16:56:14.019Z</time></trkpt><trkpt lat="44.81345340850321" lon="13.912701896737891"><ele>10.5</ele><time>2026-04-11T16:56:15.019Z</time></trkpt><trkpt lat="44.81333121284019" lon="13.912612667458143"><ele>11.75</ele><time>2026-04-11T16:56:16.019Z</time></trkpt><trkpt lat="44.813215774830574" lon="13.912506076077946"><ele>13.0</ele><time>2026-04-11T16:56:17.019Z</time></trkpt><trkpt lat="44.81311031481743" lon="13.912404208940037"><ele>15.75</ele><time>2026-04-11T16:56:18.019Z</time></trkpt><trkpt lat="44.8129938287282" lon="13.912288250416616"><ele>18.5</ele><time>2026-04-11T16:56:19.019Z</time></trkpt><trkpt lat="44.81287687148231" lon="13.912165866295076"><ele>21.25</ele><time>2026-04-11T16:56:20.019Z</time></trkpt><trkpt lat="44.81276535293775" lon="13.912040679234362"><ele>24.0</ele><time>2026-04-11T16:56:21.019Z</time></trkpt><trkpt lat="44.812653756094846" lon="13.911911272154668"><ele>24.0</ele><time>2026-04-11T16:56:22.019Z</time></trkpt><trkpt lat="44.812535896654936" lon="13.911763711638356"><ele>24.0</ele><time>2026-04-11T16:56:23.019Z</time></trkpt><trkpt lat="44.812434711428956" lon="13.911599786010889"><ele>24.0</ele><time>2026-04-11T16:56:24.019Z</time></trkpt><trkpt lat="44.812329050577944" lon="13.911444496569613"><ele>27.333333333333336</ele><time>2026-04-11T16:56:25.019Z</time></trkpt><trkpt lat="44.812219249381016" lon="13.911282055083204"><ele>30.666666666666668</ele><time>2026-04-11T16:56:26.019Z</time></trkpt><trkpt lat="44.81209418450551" lon="13.911096768724605"><ele>34.0</ele><time>2026-04-11T16:56:27.019Z</time></trkpt><trkpt lat="44.81196826009688" lon="13.910906865671747"><ele>36.66666666666667</ele><time>2026-04-11T16:56:28.019Z</time></trkpt><trkpt lat="44.81185698312718" lon="13.9107436453767"><ele>39.333333333333336</ele><time>2026-04-11T16:56:29.019Z</time></trkpt><trkpt lat="44.811734323436305" lon="13.910562942588095"><ele>42.0</ele><time>2026-04-11T16:56:30.019Z</time></trkpt><trkpt lat="44.81161036744838" lon="13.910377101798272"><ele>42.0</ele><time>2026-04-11T16:56:31.019Z</time></trkpt><trkpt lat="44.811485612548374" lon="13.910191551467996"><ele>42.0</ele><time>2026-04-11T16:56:32.019Z</time></trkpt><trkpt lat="44.811348057964" lon="13.910014586627304"><ele>42.0</ele><time>2026-04-11T16:56:33.019Z</time></trkpt><trkpt lat="44.81123109766565" lon="13.909822663593173"><ele>45.0</ele><time>2026-04-11T16:56:34.019Z</time></trkpt><trkpt lat="44.81111240262309" lon="13.90963776697856"><ele>48.0</ele><time>2026-04-11T16:56:35.019Z</time></trkpt><trkpt lat="44.81099097526625" lon="13.909465317584571"><ele>51.0</ele><time>2026-04-11T16:56:36.019Z</time></trkpt><trkpt lat="44.81087141790591" lon="13.909296609516305"><ele>52.66666666666667</ele><time>2026-04-11T16:56:37.019Z</time></trkpt><trkpt lat="44.81075554803097" lon="13.909123624792255"><ele>54.333333333333336</ele><time>2026-04-11T16:56:38.019Z</time></trkpt><trkpt lat="44.81065271392714" lon="13.908953945179391"><ele>56.0</ele><time>2026-04-11T16:56:39.019Z</time></trkpt><trkpt lat="44.810547930055876" lon="13.908815916667798"><ele>56.0</ele><time>2026-04-11T16:56:40.019Z</time></trkpt><trkpt lat="44.81044290308987" lon="13.908684263346368"><ele>56.0</ele><time>2026-04-11T16:56:41.019Z</time></trkpt><trkpt lat="44.8103457291878" lon="13.908551535012405"><ele>56.0</ele><time>2026-04-11T16:56:42.019Z</time></trkpt><trkpt lat="44.810251208404615" lon="13.908463930835943"><ele>56.0</ele><time>2026-04-11T16:56:43.019Z</time></trkpt><trkpt lat="44.81012907752352" lon="13.908409053579193"><ele>57.25</ele><time>2026-04-11T16:56:44.019Z</time></trkpt><trkpt lat="44.81001072305854" lon="13.908379133292856"><ele>58.5</ele><time>2026-04-11T16:56:45.019Z</time></trkpt><trkpt lat="44.809875042406944" lon="13.90837968482025"><ele>59.75</ele><time>2026-04-11T16:56:46.019Z</time></trkpt><trkpt lat="44.80969930055929" lon="13.908447742300183"><ele>61.0</ele><time>2026-04-11T16:56:47.019Z</time></trkpt><trkpt lat="44.80950049792626" lon="13.908517690037412"><ele>62.33333333333333</ele><time>2026-04-11T16:56:48.019Z</time></trkpt><trkpt lat="44.80930627720089" lon="13.908537264266675"><ele>63.66666666666667</ele><time>2026-04-11T16:56:49.019Z</time></trkpt><trkpt lat="44.80912282667572" lon="13.908567050683846"><ele>65.0</ele><time>2026-04-11T16:56:50.019Z</time></trkpt><trkpt lat="44.80892131265613" lon="13.90860052867724"><ele>65.0</ele><time>2026-04-11T16:56:51.019Z</time></trkpt><trkpt lat="44.80872109615774" lon="13.90863437687981"><ele>65.0</ele><time>2026-04-11T16:56:52.019Z</time></trkpt><trkpt lat="44.808535149197" lon="13.908666349863699"><ele>65.0</ele><time>2026-04-11T16:56:53.019Z</time></trkpt><trkpt lat="44.808371071368505" lon="13.908695247209641"><ele>64.33333333333334</ele><time>2026-04-11T16:56:54.019Z</time></trkpt><trkpt lat="44.808213546173654" lon="13.908722053310983"><ele>63.66666666666667</ele><time>2026-04-11T16:56:55.019Z</time></trkpt><trkpt lat="44.80804560620228" lon="13.908751550227224"><ele>63.0</ele><time>2026-04-11T16:56:56.019Z</time></trkpt><trkpt lat="44.80787402013462" lon="13.908782497555952"><ele>63.0</ele><time>2026-04-11T16:56:57.019Z</time></trkpt><trkpt lat="44.807703309271126" lon="13.908812937674574"><ele>63.0</ele><time>2026-04-11T16:56:58.019Z</time></trkpt><trkpt lat="44.80752199973609" lon="13.908843452277047"><ele>63.0</ele><time>2026-04-11T16:56:59.019Z</time></trkpt><trkpt lat="44.80734390634424" lon="13.908865359207349"><ele>62.5</ele><time>2026-04-11T16:57:00.019Z</time></trkpt><trkpt lat="44.80719015137901" lon="13.90889958448777"><ele>62.0</ele><time>2026-04-11T16:57:01.019Z</time></trkpt><trkpt lat="44.80704887277102" lon="13.908927851684647"><ele>61.5</ele><time>2026-04-11T16:57:02.019Z</time></trkpt><trkpt lat="44.80691257349632" lon="13.908949824403694"><ele>61.0</ele><time>2026-04-11T16:57:03.019Z</time></trkpt><trkpt lat="44.806791817347275" lon="13.908970505340998"><ele>59.25</ele><time>2026-04-11T16:57:04.019Z</time></trkpt><trkpt lat="44.806676566074884" lon="13.908990686970325"><ele>57.5</ele><time>2026-04-11T16:57:05.019Z</time></trkpt><trkpt lat="44.80655816723085" lon="13.909022630520882"><ele>55.75</ele><time>2026-04-11T16:57:06.019Z</time></trkpt><trkpt lat="44.80643569412012" lon="13.909040330435499"><ele>54.0</ele><time>2026-04-11T16:57:07.019Z</time></trkpt><trkpt lat="44.806333511190836" lon="13.909055878169344"><ele>54.0</ele><time>2026-04-11T16:57:08.019Z</time></trkpt><trkpt lat="44.806233517974015" lon="13.909084026900482"><ele>54.00000000000001</ele><time>2026-04-11T16:57:09.019Z</time></trkpt><trkpt lat="44.80613942879436" lon="13.909110232546636"><ele>54.00000000000001</ele><time>2026-04-11T16:57:10.019Z</time></trkpt><trkpt lat="44.80603866919585" lon="13.909088973693448"><ele>54.0</ele><time>2026-04-11T16:57:11.019Z</time></trkpt><trkpt lat="44.80594414997809" lon="13.90912312512468"><ele>54.0</ele><time>2026-04-11T16:57:12.019Z</time></trkpt><trkpt lat="44.80584524614814" lon="13.909171350048094"><ele>52.833333333333336</ele><time>2026-04-11T16:57:13.019Z</time></trkpt><trkpt lat="44.80576198213567" lon="13.909202490510799"><ele>51.666666666666664</ele><time>2026-04-11T16:57:14.019Z</time></trkpt><trkpt lat="44.80568212436327" lon="13.909237437077197"><ele>50.5</ele><time>2026-04-11T16:57:15.019Z</time></trkpt><trkpt lat="44.80560193421832" lon="13.909273189819828"><ele>49.33333333333333</ele><time>2026-04-11T16:57:16.019Z</time></trkpt><trkpt lat="44.80552409684002" lon="13.909304437400365"><ele>48.166666666666664</ele><time>2026-04-11T16:57:17.019Z</time></trkpt><trkpt lat="44.805447184585674" lon="13.909333754315755"><ele>47.0</ele><time>2026-04-11T16:57:18.019Z</time></trkpt><trkpt lat="44.8053731993652" lon="13.909361501961644"><ele>46.42857142857143</ele><time>2026-04-11T16:57:19.019Z</time></trkpt><trkpt lat="44.805297871357794" lon="13.909399056411266"><ele>45.857142857142854</ele><time>2026-04-11T16:57:20.019Z</time></trkpt><trkpt lat="44.805225657495214" lon="13.909430865921937"><ele>45.28571428571429</ele><time>2026-04-11T16:57:21.019Z</time></trkpt><trkpt lat="44.80515179987423" lon="13.909455251842182"><ele>44.714285714285715</ele><time>2026-04-11T16:57:22.019Z</time></trkpt><trkpt lat="44.80509374748304" lon="13.909491997758654"><ele>44.142857142857146</ele><time>2026-04-11T16:57:23.018Z</time></trkpt><trkpt lat="44.805022273825784" lon="13.909523398934239"><ele>43.57142857142858</ele><time>2026-04-11T16:57:24.018Z</time></trkpt><trkpt lat="44.804950032816386" lon="13.9095616471459"><ele>43.0</ele><time>2026-04-11T16:57:25.018Z</time></trkpt><trkpt lat="44.804874427904316" lon="13.909594782749739"><ele>42.8</ele><time>2026-04-11T16:57:26.018Z</time></trkpt><trkpt lat="44.804797260182895" lon="13.90963221001915"><ele>42.599999999999994</ele><time>2026-04-11T16:57:27.018Z</time></trkpt><trkpt lat="44.804728361400436" lon="13.909660310748654"><ele>42.400000000000006</ele><time>2026-04-11T16:57:28.018Z</time></trkpt><trkpt lat="44.80466276896561" lon="13.909683958455677"><ele>42.2</ele><time>2026-04-11T16:57:29.018Z</time></trkpt><trkpt lat="44.80454595829563" lon="13.909731650945037"><ele>42.0</ele><time>2026-04-11T16:57:31.018Z</time></trkpt><trkpt lat="44.80442439823917" lon="13.9097597561247"><ele>42.0</ele><time>2026-04-11T16:57:33.018Z</time></trkpt><trkpt lat="44.804358759924796" lon="13.909766740208887"><ele>42.0</ele><time>2026-04-11T16:57:34.018Z</time></trkpt><trkpt lat="44.80423428988583" lon="13.909798912149652"><ele>42.0</ele><time>2026-04-11T16:57:36.018Z</time></trkpt><trkpt lat="44.804171705822604" lon="13.909812682619602"><ele>42.0</ele><time>2026-04-11T16:57:37.018Z</time></trkpt><trkpt lat="44.80410545760954" lon="13.90982193566131"><ele>42.0</ele><time>2026-04-11T16:57:38.018Z</time></trkpt><trkpt lat="44.80397599899806" lon="13.909860727771424"><ele>42.166666666666664</ele><time>2026-04-11T16:57:40.018Z</time></trkpt><trkpt lat="44.803901808821095" lon="13.909854987871075"><ele>42.333333333333336</ele><time>2026-04-11T16:57:41.018Z</time></trkpt><trkpt lat="44.80383207101241" lon="13.909869121758177"><ele>42.5</ele><time>2026-04-11T16:57:42.018Z</time></trkpt><trkpt lat="44.80371026136998" lon="13.909895192002233"><ele>42.66666666666667</ele><time>2026-04-11T16:57:44.018Z</time></trkpt><trkpt lat="44.80364301313735" lon="13.90990901657286"><ele>42.833333333333336</ele><time>2026-04-11T16:57:45.018Z</time></trkpt><trkpt lat="44.80357202625698" lon="13.909924359187434"><ele>43.0</ele><time>2026-04-11T16:57:46.018Z</time></trkpt><trkpt lat="44.803508414829494" lon="13.909932335045797"><ele>42.8</ele><time>2026-04-11T16:57:47.018Z</time></trkpt><trkpt lat="44.80344318035599" lon="13.909941284118768"><ele>42.599999999999994</ele><time>2026-04-11T16:57:48.018Z</time></trkpt><trkpt lat="44.803324651928165" lon="13.909940352352447"><ele>42.400000000000006</ele><time>2026-04-11T16:57:50.018Z</time></trkpt><trkpt lat="44.80321217223818" lon="13.90994010368112"><ele>42.2</ele><time>2026-04-11T16:57:52.018Z</time></trkpt><trkpt lat="44.80313617204109" lon="13.9099341744176"><ele>42.0</ele><time>2026-04-11T16:57:53.018Z</time></trkpt><trkpt lat="44.803058759809815" lon="13.909933337496046"><ele>42.0</ele><time>2026-04-11T16:57:54.018Z</time></trkpt><trkpt lat="44.802980129147635" lon="13.90992332149522"><ele>42.0</ele><time>2026-04-11T16:57:55.018Z</time></trkpt><trkpt lat="44.80290049265415" lon="13.909928202620971"><ele>42.0</ele><time>2026-04-11T16:57:56.018Z</time></trkpt><trkpt lat="44.802825842912476" lon="13.909931413989963"><ele>42.0</ele><time>2026-04-11T16:57:57.018Z</time></trkpt><trkpt lat="44.80275611204917" lon="13.909918126503657"><ele>42.0</ele><time>2026-04-11T16:57:58.02Z</time></trkpt><trkpt lat="44.80269004442344" lon="13.909932458059261"><ele>42.0</ele><time>2026-04-11T16:57:59.02Z</time></trkpt><trkpt lat="44.80262154650213" lon="13.909944475676198"><ele>42.0</ele><time>2026-04-11T16:58:00.02Z</time></trkpt><trkpt lat="44.80254753429352" lon="13.90995695077917"><ele>42.166666666666664</ele><time>2026-04-11T16:58:01.02Z</time></trkpt><trkpt lat="44.802468757423796" lon="13.909982527555627"><ele>42.333333333333336</ele><time>2026-04-11T16:58:02.02Z</time></trkpt><trkpt lat="44.80238530891238" lon="13.909996706507421"><ele>42.5</ele><time>2026-04-11T16:58:03.02Z</time></trkpt><trkpt lat="44.8023124629753" lon="13.91002418010924"><ele>42.66666666666667</ele><time>2026-04-11T16:58:04.021Z</time></trkpt><trkpt lat="44.80223907646064" lon="13.910037111891304"><ele>42.833333333333336</ele><time>2026-04-11T16:58:05.02Z</time></trkpt><trkpt lat="44.80216297045809" lon="13.91005370416923"><ele>43.0</ele><time>2026-04-11T16:58:06.02Z</time></trkpt><trkpt lat="44.80209530347268" lon="13.910068207966674"><ele>43.0</ele><time>2026-04-11T16:58:07.02Z</time></trkpt><trkpt lat="44.802005292995005" lon="13.910032291400904"><ele>43.0</ele><time>2026-04-11T16:58:09.021Z</time></trkpt><trkpt lat="44.80192824314514" lon="13.909994540665068"><ele>43.0</ele><time>2026-04-11T16:58:11.02Z</time></trkpt><trkpt lat="44.80182290104741" lon="13.909919022208408"><ele>43.0</ele><time>2026-04-11T16:58:13.02Z</time></trkpt><trkpt lat="44.80175852872419" lon="13.909862722906349"><ele>43.0</ele><time>2026-04-11T16:58:14.02Z</time></trkpt><trkpt lat="44.80170249457177" lon="13.909803760256967"><ele>43.0</ele><time>2026-04-11T16:58:15.02Z</time></trkpt><trkpt lat="44.80164310867599" lon="13.909759894064404"><ele>43.333333333333336</ele><time>2026-04-11T16:58:16.02Z</time></trkpt><trkpt lat="44.80158033513208" lon="13.909724689089886"><ele>43.66666666666667</ele><time>2026-04-11T16:58:17.02Z</time></trkpt><trkpt lat="44.80146945937895" lon="13.909710528458872"><ele>44.0</ele><time>2026-04-11T16:58:19.02Z</time></trkpt><trkpt lat="44.80136261506287" lon="13.909684126758894"><ele>44.333333333333336</ele><time>2026-04-11T16:58:21.02Z</time></trkpt><trkpt lat="44.801294132462964" lon="13.909644047462749"><ele>44.666666666666664</ele><time>2026-04-11T16:58:22.02Z</time></trkpt><trkpt lat="44.801224672192134" lon="13.909633969887917"><ele>45.0</ele><time>2026-04-11T16:58:23.02Z</time></trkpt><trkpt lat="44.80114971669512" lon="13.909619519816927"><ele>45.0</ele><time>2026-04-11T16:58:24.02Z</time></trkpt><trkpt lat="44.80103919209515" lon="13.909597677241226"><ele>45.0</ele><time>2026-04-11T16:58:26.02Z</time></trkpt><trkpt lat="44.800920480557764" lon="13.909584162442396"><ele>45.0</ele><time>2026-04-11T16:58:28.02Z</time></trkpt><trkpt lat="44.80081374780497" lon="13.909585716281752"><ele>45.0</ele><time>2026-04-11T16:58:30.02Z</time></trkpt><trkpt lat="44.80074408104888" lon="13.909565525326533"><ele>45.0</ele><time>2026-04-11T16:58:32.02Z</time></trkpt><trkpt lat="44.800708071819166" lon="13.909768011771071"><ele>44.166666666666664</ele><time>2026-04-11T16:58:34.019Z</time></trkpt><trkpt lat="44.80068041091741" lon="13.909951697449149"><ele>43.333333333333336</ele><time>2026-04-11T16:58:36.019Z</time></trkpt><trkpt lat="44.80067257790613" lon="13.910058397039409"><ele>42.5</ele><time>2026-04-11T16:58:37.019Z</time></trkpt><trkpt lat="44.80061845478759" lon="13.910138852062792"><ele>41.66666666666667</ele><time>2026-04-11T16:58:38.019Z</time></trkpt><trkpt lat="44.80059973295537" lon="13.910242627368621"><ele>40.833333333333336</ele><time>2026-04-11T16:58:39.019Z</time></trkpt><trkpt lat="44.80055573193777" lon="13.910333840858186"><ele>40.0</ele><time>2026-04-11T16:58:40.019Z</time></trkpt><trkpt lat="44.800527044137354" lon="13.910431968813585"><ele>39.66666666666667</ele><time>2026-04-11T16:58:41.019Z</time></trkpt><trkpt lat="44.80050472152721" lon="13.910525454377197"><ele>39.333333333333336</ele><time>2026-04-11T16:58:42.019Z</time></trkpt><trkpt lat="44.8004842657397" lon="13.910622141485245"><ele>39.0</ele><time>2026-04-11T16:58:43.019Z</time></trkpt><trkpt lat="44.80046771627616" lon="13.910725005776552"><ele>38.666666666666664</ele><time>2026-04-11T16:58:44.019Z</time></trkpt><trkpt lat="44.80045468356454" lon="13.91083971184577"><ele>38.33333333333333</ele><time>2026-04-11T16:58:45.019Z</time></trkpt><trkpt lat="44.80044196286213" lon="13.910946986878706"><ele>38.0</ele><time>2026-04-11T16:58:46.019Z</time></trkpt><trkpt lat="44.80043002091102" lon="13.911049277390406"><ele>37.166666666666664</ele><time>2026-04-11T16:58:47.019Z</time></trkpt><trkpt lat="44.80042146098619" lon="13.911157094013857"><ele>36.33333333333333</ele><time>2026-04-11T16:58:48.019Z</time></trkpt><trkpt lat="44.80040522612905" lon="13.911268727618987"><ele>35.5</ele><time>2026-04-11T16:58:49.019Z</time></trkpt><trkpt lat="44.80038391882765" lon="13.91137272909174"><ele>34.666666666666664</ele><time>2026-04-11T16:58:50.019Z</time></trkpt><trkpt lat="44.800362252644454" lon="13.911472020707304"><ele>33.833333333333336</ele><time>2026-04-11T16:58:51.019Z</time></trkpt><trkpt lat="44.80034157514952" lon="13.911613042503921"><ele>33.0</ele><time>2026-04-11T16:58:53.019Z</time></trkpt><trkpt lat="44.80031377016083" lon="13.911710914292396"><ele>32.5</ele><time>2026-04-11T16:58:54.019Z</time></trkpt><trkpt lat="44.80027969451141" lon="13.911826998116213"><ele>32.0</ele><time>2026-04-11T16:58:55.019Z</time></trkpt><trkpt lat="44.80025033213502" lon="13.911932317076191"><ele>31.5</ele><time>2026-04-11T16:58:56.019Z</time></trkpt><trkpt lat="44.80022164232404" lon="13.912027759916933"><ele>31.0</ele><time>2026-04-11T16:58:57.019Z</time></trkpt><trkpt lat="44.800188427540725" lon="13.912143724847475"><ele>30.5</ele><time>2026-04-11T16:58:58.019Z</time></trkpt><trkpt lat="44.80015628626366" lon="13.912276715258812"><ele>30.0</ele><time>2026-04-11T16:58:59.019Z</time></trkpt><trkpt lat="44.80011830394161" lon="13.912411321412007"><ele>30.0</ele><time>2026-04-11T16:59:00.019Z</time></trkpt><trkpt lat="44.800084965282366" lon="13.912537612793797"><ele>30.0</ele><time>2026-04-11T16:59:01.019Z</time></trkpt><trkpt lat="44.80004999054407" lon="13.91265233056149"><ele>30.0</ele><time>2026-04-11T16:59:02.019Z</time></trkpt><trkpt lat="44.79999012062434" lon="13.91273036496194"><ele>30.0</ele><time>2026-04-11T16:59:03.019Z</time></trkpt><trkpt lat="44.799938829355234" lon="13.912802957389937"><ele>30.0</ele><time>2026-04-11T16:59:04.019Z</time></trkpt><trkpt lat="44.7998613943407" lon="13.912840772710629"><ele>30.0</ele><time>2026-04-11T16:59:05.019Z</time></trkpt><trkpt lat="44.7997940445411" lon="13.912873925665265"><ele>28.6</ele><time>2026-04-11T16:59:06.019Z</time></trkpt><trkpt lat="44.79972144298181" lon="13.912909187096751"><ele>27.2</ele><time>2026-04-11T16:59:07.019Z</time></trkpt><trkpt lat="44.79963987215637" lon="13.912947869800984"><ele>25.799999999999997</ele><time>2026-04-11T16:59:08.019Z</time></trkpt><trkpt lat="44.79955326385622" lon="13.912987016276674"><ele>24.4</ele><time>2026-04-11T16:59:09.019Z</time></trkpt><trkpt lat="44.799449811765776" lon="13.913025865309875"><ele>23.0</ele><time>2026-04-11T16:59:10.019Z</time></trkpt><trkpt lat="44.79933292312609" lon="13.913067301432928"><ele>23.0</ele><time>2026-04-11T16:59:11.019Z</time></trkpt><trkpt lat="44.79921865625291" lon="13.91308130155702"><ele>23.0</ele><time>2026-04-11T16:59:12.019Z</time></trkpt><trkpt lat="44.79911965610398" lon="13.91309821600473"><ele>23.0</ele><time>2026-04-11T16:59:13.019Z</time></trkpt><trkpt lat="44.79901555563528" lon="13.913113269751651"><ele>23.0</ele><time>2026-04-11T16:59:14.019Z</time></trkpt><trkpt lat="44.798922793430705" lon="13.913131077965293"><ele>23.0</ele><time>2026-04-11T16:59:15.019Z</time></trkpt><trkpt lat="44.798828832005064" lon="13.9131733255318"><ele>23.0</ele><time>2026-04-11T16:59:16.019Z</time></trkpt><trkpt lat="44.798733287376535" lon="13.913191617827035"><ele>23.0</ele><time>2026-04-11T16:59:17.019Z</time></trkpt><trkpt lat="44.798635369629075" lon="13.913214675489881"><ele>23.0</ele><time>2026-04-11T16:59:18.019Z</time></trkpt><trkpt lat="44.79854216596654" lon="13.91322745254262"><ele>23.0</ele><time>2026-04-11T16:59:19.019Z</time></trkpt><trkpt lat="44.79844903427873" lon="13.913259172577646"><ele>23.0</ele><time>2026-04-11T16:59:20.019Z</time></trkpt><trkpt lat="44.79835225491646" lon="13.913285015010631"><ele>22.833333333333336</ele><time>2026-04-11T16:59:21.019Z</time></trkpt><trkpt lat="44.79825379638076" lon="13.913306450718707"><ele>22.666666666666668</ele><time>2026-04-11T16:59:22.019Z</time></trkpt><trkpt lat="44.79816983453327" lon="13.913334657424942"><ele>22.5</ele><time>2026-04-11T16:59:23.019Z</time></trkpt><trkpt lat="44.79808646368123" lon="13.913360016742871"><ele>22.333333333333332</ele><time>2026-04-11T16:59:24.019Z</time></trkpt><trkpt lat="44.79800853291916" lon="13.913379462992499"><ele>22.166666666666664</ele><time>2026-04-11T16:59:25.019Z</time></trkpt><trkpt lat="44.79792083830238" lon="13.913410022637846"><ele>22.0</ele><time>2026-04-11T16:59:27.019Z</time></trkpt><trkpt lat="44.797852737868915" lon="13.913447314525792"><ele>22.200000000000003</ele><time>2026-04-11T16:59:31.019Z</time></trkpt><trkpt lat="44.79778976857526" lon="13.913521401279851"><ele>22.4</ele><time>2026-04-11T16:59:36.019Z</time></trkpt><trkpt lat="44.797730285127756" lon="13.91357102358179"><ele>22.6</ele><time>2026-04-11T17:08:42.005Z</time></trkpt><trkpt lat="44.79763872040575" lon="13.913653838805633"><ele>22.799999999999997</ele><time>2026-04-11T17:08:44.005Z</time></trkpt><trkpt lat="44.79754645718189" lon="13.91376659412046"><ele>23.0</ele><time>2026-04-11T17:08:46.005Z</time></trkpt><trkpt lat="44.7974734790845" lon="13.913795246975583"><ele>23.0</ele><time>2026-04-11T17:08:47.005Z</time></trkpt><trkpt lat="44.7974180141676" lon="13.91386688850796"><ele>23.0</ele><time>2026-04-11T17:08:48.005Z</time></trkpt><trkpt lat="44.797362110559824" lon="13.913936410266327"><ele>23.0</ele><time>2026-04-11T17:08:49.005Z</time></trkpt><trkpt lat="44.79730325753104" lon="13.914010120141192"><ele>23.0</ele><time>2026-04-11T17:08:50.005Z</time></trkpt><trkpt lat="44.79724403063308" lon="13.914085468838577"><ele>23.0</ele><time>2026-04-11T17:08:51.005Z</time></trkpt><trkpt lat="44.79719776916411" lon="13.914178208259145"><ele>23.0</ele><time>2026-04-11T17:08:52.005Z</time></trkpt><trkpt lat="44.797131559172264" lon="13.914233928117502"><ele>23.4</ele><time>2026-04-11T17:08:53.005Z</time></trkpt><trkpt lat="44.79708064848276" lon="13.91430448006143"><ele>23.799999999999997</ele><time>2026-04-11T17:08:54.005Z</time></trkpt><trkpt lat="44.79699091033282" lon="13.914425342971882"><ele>24.2</ele><time>2026-04-11T17:08:56.005Z</time></trkpt><trkpt lat="44.79691277240213" lon="13.914498278181627"><ele>24.6</ele><time>2026-04-11T17:08:58.005Z</time></trkpt><trkpt lat="44.79679912025108" lon="13.9144975776927"><ele>25.0</ele><time>2026-04-11T17:09:00.005Z</time></trkpt><trkpt lat="44.79672237572607" lon="13.91446073229956"><ele>26.6</ele><time>2026-04-11T17:09:01.005Z</time></trkpt><trkpt lat="44.79666021499992" lon="13.914418622178168"><ele>28.2</ele><time>2026-04-11T17:09:02.005Z</time></trkpt><trkpt lat="44.79659706835202" lon="13.914393754535235"><ele>29.799999999999997</ele><time>2026-04-11T17:09:03.005Z</time></trkpt><trkpt lat="44.796532239960825" lon="13.914375020848473"><ele>31.4</ele><time>2026-04-11T17:09:04.005Z</time></trkpt><trkpt lat="44.79647140605773" lon="13.914326402207513"><ele>33.0</ele><time>2026-04-11T17:09:06.005Z</time></trkpt><trkpt lat="44.796407969972485" lon="13.914579821768006"><ele>33.0</ele><time>2026-04-11T17:09:08.005Z</time></trkpt><trkpt lat="44.79642193201562" lon="13.914690911431384"><ele>33.0</ele><time>2026-04-11T17:09:09.005Z</time></trkpt><trkpt lat="44.79643522661515" lon="13.914803148715912"><ele>33.0</ele><time>2026-04-11T17:09:10.005Z</time></trkpt><trkpt lat="44.796461557748415" lon="13.914904864520604"><ele>33.0</ele><time>2026-04-11T17:09:11.005Z</time></trkpt><trkpt lat="44.796460405275305" lon="13.91501198673596"><ele>33.0</ele><time>2026-04-11T17:09:12.005Z</time></trkpt><trkpt lat="44.7964751539257" lon="13.91511467134437"><ele>33.0</ele><time>2026-04-11T17:09:13.005Z</time></trkpt><trkpt lat="44.796482374468475" lon="13.915233963915766"><ele>32.5</ele><time>2026-04-11T17:09:14.005Z</time></trkpt><trkpt lat="44.796495238214476" lon="13.915363997333218"><ele>32.0</ele><time>2026-04-11T17:09:15.005Z</time></trkpt><trkpt lat="44.79650637640346" lon="13.915494514989549"><ele>31.5</ele><time>2026-04-11T17:09:16.005Z</time></trkpt><trkpt lat="44.79651984055772" lon="13.915616226583163"><ele>31.0</ele><time>2026-04-11T17:09:17.005Z</time></trkpt><trkpt lat="44.796534197838504" lon="13.915729272701007"><ele>30.5</ele><time>2026-04-11T17:09:18.005Z</time></trkpt><trkpt lat="44.79656061712657" lon="13.915828817716287"><ele>30.0</ele><time>2026-04-11T17:09:19.005Z</time></trkpt><trkpt lat="44.796580409846804" lon="13.91592186889134"><ele>29.6</ele><time>2026-04-11T17:09:20.005Z</time></trkpt><trkpt lat="44.79660236621058" lon="13.916012416440328"><ele>29.2</ele><time>2026-04-11T17:09:21.005Z</time></trkpt><trkpt lat="44.79662703527789" lon="13.916103621027698"><ele>28.799999999999997</ele><time>2026-04-11T17:09:22.005Z</time></trkpt><trkpt lat="44.7966568128107" lon="13.916261933936568"><ele>28.4</ele><time>2026-04-11T17:09:24.005Z</time></trkpt><trkpt lat="44.79667960206812" lon="13.91642299639288"><ele>28.0</ele><time>2026-04-11T17:09:26.005Z</time></trkpt><trkpt lat="44.79670411827428" lon="13.916557546344013"><ele>28.0</ele><time>2026-04-11T17:09:28.005Z</time></trkpt><trkpt lat="44.79670995229921" lon="13.916655482055834"><ele>28.0</ele><time>2026-04-11T17:09:30.004Z</time></trkpt><trkpt lat="44.79672176198482" lon="13.916760644294616"><ele>28.0</ele><time>2026-04-11T17:09:33.004Z</time></trkpt><trkpt lat="44.796746080648376" lon="13.916850999064488"><ele>28.0</ele><time>2026-04-11T17:09:36.004Z</time></trkpt><trkpt lat="44.79676729231452" lon="13.916935593180193"><ele>28.0</ele><time>2026-04-11T17:09:38.004Z</time></trkpt><trkpt lat="44.79677248767688" lon="13.917039957305583"><ele>28.0</ele><time>2026-04-11T17:09:41.004Z</time></trkpt><trkpt lat="44.796792068016536" lon="13.91713310116502"><ele>28.0</ele><time>2026-04-11T17:09:44.004Z</time></trkpt><trkpt lat="44.79681350335808" lon="13.917240758712188"><ele>26.666666666666668</ele><time>2026-04-11T17:09:49.004Z</time></trkpt><trkpt lat="44.79681631482429" lon="13.917335457032637"><ele>25.333333333333336</ele><time>2026-04-11T17:09:52.004Z</time></trkpt><trkpt lat="44.79683141755933" lon="13.917427244336295"><ele>24.0</ele><time>2026-04-11T17:09:56.004Z</time></trkpt><trkpt lat="44.7968540936713" lon="13.91751158852084"><ele>22.666666666666668</ele><time>2026-04-11T17:10:04.004Z</time></trkpt><trkpt lat="44.79687386262385" lon="13.917605593585247"><ele>21.333333333333336</ele><time>2026-04-11T17:10:13.004Z</time></trkpt><trkpt lat="44.796899751321426" lon="13.917763146810618"><ele>20.0</ele><time>2026-04-11T17:11:36.005Z</time></trkpt><trkpt lat="44.7969163296642" lon="13.917863704337819"><ele>20.0</ele><time>2026-04-11T17:11:40.005Z</time></trkpt><trkpt lat="44.79689867675985" lon="13.917705471947295"><ele>20.0</ele><time>2026-04-11T17:11:54.005Z</time></trkpt><trkpt lat="44.796873864008624" lon="13.917605602290056"><ele>20.0</ele><time>2026-04-11T17:11:59.005Z</time></trkpt><trkpt lat="44.79687287889429" lon="13.917505559379183"><ele>20.0</ele><time>2026-04-11T17:12:02.005Z</time></trkpt><trkpt lat="44.79682635740316" lon="13.917383230423216"><ele>20.0</ele><time>2026-04-11T17:12:05.005Z</time></trkpt><trkpt lat="44.79680814341918" lon="13.91729679136063"><ele>20.0</ele><time>2026-04-11T17:12:06.005Z</time></trkpt><trkpt lat="44.79679079405694" lon="13.917209477408141"><ele>19.833333333333336</ele><time>2026-04-11T17:12:07.005Z</time></trkpt><trkpt lat="44.796778779057405" lon="13.917049196004417"><ele>19.666666666666668</ele><time>2026-04-11T17:12:09.005Z</time></trkpt><trkpt lat="44.79676481498886" lon="13.916907359380843"><ele>19.5</ele><time>2026-04-11T17:12:11.005Z</time></trkpt><trkpt lat="44.79671618571609" lon="13.916833546964309"><ele>19.333333333333332</ele><time>2026-04-11T17:12:14.005Z</time></trkpt><trkpt lat="44.796760250393184" lon="13.916924129669221"><ele>19.166666666666664</ele><time>2026-04-11T17:12:23.004Z</time></trkpt><trkpt lat="44.79677410596404" lon="13.917036060639555"><ele>19.0</ele><time>2026-04-11T17:12:26.004Z</time></trkpt><trkpt lat="44.79679286339087" lon="13.917134340091222"><ele>19.0</ele><time>2026-04-11T17:12:28.004Z</time></trkpt><trkpt lat="44.79680923437319" lon="13.917258777607227"><ele>19.0</ele><time>2026-04-11T17:12:30.004Z</time></trkpt><trkpt lat="44.79683193852441" lon="13.917394767189652"><ele>19.0</ele><time>2026-04-11T17:12:32.004Z</time></trkpt><trkpt lat="44.79685580082636" lon="13.9174943873812"><ele>19.0</ele><time>2026-04-11T17:12:34.004Z</time></trkpt><trkpt lat="44.79687539825046" lon="13.917614413461719"><ele>19.0</ele><time>2026-04-11T17:12:36.004Z</time></trkpt><trkpt lat="44.7968928720487" lon="13.917720626134667"><ele>19.0</ele><time>2026-04-11T17:12:39.004Z</time></trkpt><trkpt lat="44.79691303156573" lon="13.917827555457048"><ele>19.0</ele><time>2026-04-11T17:12:54.007Z</time></trkpt><trkpt lat="44.79686976455263" lon="13.91757975179457"><ele>19.0</ele><time>2026-04-11T17:13:11.006Z</time></trkpt><trkpt lat="44.79683928317438" lon="13.917466016283669"><ele>19.0</ele><time>2026-04-11T17:13:14.006Z</time></trkpt><trkpt lat="44.79679944322359" lon="13.917323458903926"><ele>19.0</ele><time>2026-04-11T17:13:16.006Z</time></trkpt><trkpt lat="44.7967869390735" lon="13.917234597592245"><ele>19.0</ele><time>2026-04-11T17:13:23.006Z</time></trkpt><trkpt lat="44.796781576465875" lon="13.917122422421716"><ele>19.0</ele><time>2026-04-11T17:14:28.005Z</time></trkpt><trkpt lat="44.79677395910864" lon="13.9170170096749"><ele>19.0</ele><time>2026-04-11T17:14:30.005Z</time></trkpt><trkpt lat="44.79675497460267" lon="13.916868758862227"><ele>19.0</ele><time>2026-04-11T17:14:32.005Z</time></trkpt><trkpt lat="44.79673625800303" lon="13.916751345515125"><ele>19.0</ele><time>2026-04-11T17:14:34.005Z</time></trkpt><trkpt lat="44.796712905480774" lon="13.916663490982106"><ele>19.0</ele><time>2026-04-11T17:14:35.005Z</time></trkpt><trkpt lat="44.79669788394429" lon="13.916563348607639"><ele>19.0</ele><time>2026-04-11T17:14:36.005Z</time></trkpt><trkpt lat="44.79669804032747" lon="13.916436110482145"><ele>20.799999999999997</ele><time>2026-04-11T17:14:37.005Z</time></trkpt><trkpt lat="44.79665579642657" lon="13.916303129708979"><ele>22.599999999999998</ele><time>2026-04-11T17:14:38.005Z</time></trkpt><trkpt lat="44.796639169768305" lon="13.916174171558213"><ele>24.4</ele><time>2026-04-11T17:14:39.005Z</time></trkpt><trkpt lat="44.79661486940273" lon="13.916083117589244"><ele>26.2</ele><time>2026-04-11T17:14:40.005Z</time></trkpt><trkpt lat="44.796577106299495" lon="13.915905919349738"><ele>28.0</ele><time>2026-04-11T17:14:42.005Z</time></trkpt><trkpt lat="44.79655865661446" lon="13.915798566130219"><ele>28.333333333333336</ele><time>2026-04-11T17:14:43.005Z</time></trkpt><trkpt lat="44.79654413574528" lon="13.915704244719194"><ele>28.666666666666668</ele><time>2026-04-11T17:14:44.005Z</time></trkpt><trkpt lat="44.79652445973352" lon="13.91561457879639"><ele>29.0</ele><time>2026-04-11T17:14:45.005Z</time></trkpt><trkpt lat="44.796508342913796" lon="13.915521905366994"><ele>29.333333333333336</ele><time>2026-04-11T17:14:46.006Z</time></trkpt><trkpt lat="44.796510565773225" lon="13.915359732953572"><ele>29.666666666666668</ele><time>2026-04-11T17:14:48.006Z</time></trkpt><trkpt lat="44.796492301318274" lon="13.915258951973788"><ele>30.0</ele><time>2026-04-11T17:14:49.006Z</time></trkpt><trkpt lat="44.796479312015876" lon="13.915147420153396"><ele>30.5</ele><time>2026-04-11T17:14:50.007Z</time></trkpt><trkpt lat="44.79647597848449" lon="13.915018224651648"><ele>31.0</ele><time>2026-04-11T17:14:51.007Z</time></trkpt><trkpt lat="44.79645611127997" lon="13.91488217522768"><ele>31.5</ele><time>2026-04-11T17:14:52.007Z</time></trkpt><trkpt lat="44.796439643553335" lon="13.914765663245728"><ele>32.0</ele><time>2026-04-11T17:14:53.006Z</time></trkpt><trkpt lat="44.79642461542609" lon="13.914658988876859"><ele>32.5</ele><time>2026-04-11T17:14:54.006Z</time></trkpt><trkpt lat="44.79640398084635" lon="13.914542666678557"><ele>33.0</ele><time>2026-04-11T17:14:56.007Z</time></trkpt><trkpt lat="44.796375118010054" lon="13.914441864267795"><ele>33.0</ele><time>2026-04-11T17:14:59.006Z</time></trkpt><trkpt lat="44.7963159205592" lon="13.914369677518236"><ele>33.0</ele><time>2026-04-11T17:15:01.006Z</time></trkpt><trkpt lat="44.79624392244038" lon="13.914397457841456"><ele>33.0</ele><time>2026-04-11T17:15:05.006Z</time></trkpt><trkpt lat="44.79626280682298" lon="13.914493362830852"><ele>33.0</ele><time>2026-04-11T17:15:10.006Z</time></trkpt><trkpt lat="44.796338850325014" lon="13.914524031396942"><ele>33.0</ele><time>2026-04-11T17:15:13.006Z</time></trkpt><trkpt lat="44.79644303944875" lon="13.914385444407129"><ele>33.0</ele><time>2026-04-11T17:15:15.006Z</time></trkpt><trkpt lat="44.79651967704429" lon="13.91442756500973"><ele>33.0</ele><time>2026-04-11T17:15:17.006Z</time></trkpt><trkpt lat="44.79661646875138" lon="13.914440953187125"><ele>33.0</ele><time>2026-04-11T17:15:19.006Z</time></trkpt><trkpt lat="44.796728765987645" lon="13.914485879254983"><ele>33.0</ele><time>2026-04-11T17:15:21.006Z</time></trkpt><trkpt lat="44.79685413056002" lon="13.914532847797203"><ele>33.0</ele><time>2026-04-11T17:15:23.006Z</time></trkpt><trkpt lat="44.79694129031398" lon="13.91451308965173"><ele>33.0</ele><time>2026-04-11T17:15:24.006Z</time></trkpt><trkpt lat="44.797028774255296" lon="13.914451549028518"><ele>31.4</ele><time>2026-04-11T17:15:25.006Z</time></trkpt><trkpt lat="44.79709367375968" lon="13.914349176997233"><ele>29.799999999999997</ele><time>2026-04-11T17:15:26.006Z</time></trkpt><trkpt lat="44.797155781144696" lon="13.914266899809522"><ele>28.2</ele><time>2026-04-11T17:15:27.006Z</time></trkpt><trkpt lat="44.79722631970295" lon="13.914173897763288"><ele>26.6</ele><time>2026-04-11T17:15:28.006Z</time></trkpt><trkpt lat="44.79728946873265" lon="13.914090514493264"><ele>25.0</ele><time>2026-04-11T17:15:29.006Z</time></trkpt><trkpt lat="44.79735560759135" lon="13.914006956512756"><ele>24.666666666666668</ele><time>2026-04-11T17:15:30.006Z</time></trkpt><trkpt lat="44.79741697246381" lon="13.913930643033785"><ele>24.333333333333336</ele><time>2026-04-11T17:15:31.006Z</time></trkpt><trkpt lat="44.797455510811865" lon="13.913856993731953"><ele>24.0</ele><time>2026-04-11T17:15:32.006Z</time></trkpt><trkpt lat="44.79753131181543" lon="13.913814548885115"><ele>23.666666666666668</ele><time>2026-04-11T17:15:34.006Z</time></trkpt><trkpt lat="44.797641875290964" lon="13.913882238521417"><ele>23.333333333333336</ele><time>2026-04-11T17:15:36.006Z</time></trkpt><trkpt lat="44.797607017994444" lon="13.913803767162594"><ele>23.0</ele><time>2026-04-11T17:15:57.005Z</time></trkpt><trkpt lat="44.79770787845605" lon="13.91364720358482"><ele>17.0</ele><time>2026-04-11T17:16:06.005Z</time></trkpt></trkseg></trk></gpx>